<?xml version='1.0' encoding='UTF-8'?><gpx version="1.1" creator="JPX - https://github.com/jenetics/jpx" xmlns="http://www.topografix.com/GPX/1/1"><trk><trkseg><trkpt lat="41.4249495" lon="13.183716"><ele>15.0</ele><time>2026-04-04T09:13:04.273Z</time></trkpt><trkpt lat="41.4250135" lon="13.183756"><ele>15.0</ele><time>2026-04-04T09:13:07.254Z</time></trkpt><trkpt lat="41.4250809" lon="13.1837457"><ele>15.0</ele><time>2026-04-04T09:13:11.259Z</time></trkpt><trkpt lat="41.4251446" lon="13.1837994"><ele>15.0</ele><time>2026-04-04T09:13:13.293Z</time></trkpt><trkpt lat="41.4252171" lon="13.1838731"><ele>15.0</ele><time>2026-04-04T09:13:15.253Z</time></trkpt><trkpt lat="41.4253074" lon="13.1839584"><ele>15.0</ele><time>2026-04-04T09:13:17.255Z</time></trkpt><trkpt lat="41.4253956" lon="13.1840455"><ele>14.8</ele><time>2026-04-04T09:13:19.264Z</time></trkpt><trkpt lat="41.4254743" lon="13.1841189"><ele>14.6</ele><time>2026-04-04T09:13:21.252Z</time></trkpt><trkpt lat="41.4255653" lon="13.1842032"><ele>14.399999999999999</ele><time>2026-04-04T09:13:23.263Z</time></trkpt><trkpt lat="41.4256696" lon="13.1843006"><ele>14.2</ele><time>2026-04-04T09:13:25.257Z</time></trkpt><trkpt lat="41.4257257" lon="13.184353"><ele>14.0</ele><time>2026-04-04T09:13:26.256Z</time></trkpt><trkpt lat="41.4257812" lon="13.1844037"><ele>14.000000000000002</ele><time>2026-04-04T09:13:27.252Z</time></trkpt><trkpt lat="41.42584" lon="13.1844552"><ele>14.0</ele><time>2026-04-04T09:13:28.257Z</time></trkpt><trkpt lat="41.4259007" lon="13.1845092"><ele>14.0</ele><time>2026-04-04T09:13:29.251Z</time></trkpt><trkpt lat="41.4259643" lon="13.1845693"><ele>14.0</ele><time>2026-04-04T09:13:30.257Z</time></trkpt><trkpt lat="41.4260332" lon="13.1846308"><ele>14.000000000000002</ele><time>2026-04-04T09:13:31.269Z</time></trkpt><trkpt lat="41.4261023" lon="13.1846932"><ele>14.0</ele><time>2026-04-04T09:13:32.252Z</time></trkpt><trkpt lat="41.4261713" lon="13.1847553"><ele>14.000000000000002</ele><time>2026-04-04T09:13:33.254Z</time></trkpt><trkpt lat="41.42624" lon="13.1848169"><ele>14.0</ele><time>2026-04-04T09:13:34.258Z</time></trkpt><trkpt lat="41.4263079" lon="13.1848728"><ele>14.0</ele><time>2026-04-04T09:13:35.257Z</time></trkpt><trkpt lat="41.4263768" lon="13.1849298"><ele>14.0</ele><time>2026-04-04T09:13:36.257Z</time></trkpt><trkpt lat="41.4264521" lon="13.1849957"><ele>14.000000000000002</ele><time>2026-04-04T09:13:37.256Z</time></trkpt><trkpt lat="41.4265263" lon="13.185062"><ele>14.0</ele><time>2026-04-04T09:13:38.266Z</time></trkpt><trkpt lat="41.4266062" lon="13.1851379"><ele>13.75</ele><time>2026-04-04T09:13:39.253Z</time></trkpt><trkpt lat="41.4266888" lon="13.1852149"><ele>13.5</ele><time>2026-04-04T09:13:40.257Z</time></trkpt><trkpt lat="41.4267781" lon="13.1853002"><ele>13.25</ele><time>2026-04-04T09:13:41.255Z</time></trkpt><trkpt lat="41.4268778" lon="13.1853957"><ele>13.0</ele><time>2026-04-04T09:13:42.255Z</time></trkpt><trkpt lat="41.4269793" lon="13.1854889"><ele>13.0</ele><time>2026-04-04T09:13:43.263Z</time></trkpt><trkpt lat="41.4270791" lon="13.1855848"><ele>13.0</ele><time>2026-04-04T09:13:44.259Z</time></trkpt><trkpt lat="41.4271782" lon="13.1856787"><ele>13.0</ele><time>2026-04-04T09:13:45.256Z</time></trkpt><trkpt lat="41.4272779" lon="13.185769"><ele>13.0</ele><time>2026-04-04T09:13:46.255Z</time></trkpt><trkpt lat="41.4273773" lon="13.1858604"><ele>13.75</ele><time>2026-04-04T09:13:47.257Z</time></trkpt><trkpt lat="41.4274731" lon="13.1859536"><ele>14.5</ele><time>2026-04-04T09:13:48.255Z</time></trkpt><trkpt lat="41.427571" lon="13.1860467"><ele>15.25</ele><time>2026-04-04T09:13:49.258Z</time></trkpt><trkpt lat="41.4276689" lon="13.1861379"><ele>16.0</ele><time>2026-04-04T09:13:50.251Z</time></trkpt><trkpt lat="41.427765" lon="13.1862344"><ele>16.0</ele><time>2026-04-04T09:13:51.256Z</time></trkpt><trkpt lat="41.4278636" lon="13.1863272"><ele>16.0</ele><time>2026-04-04T09:13:52.271Z</time></trkpt><trkpt lat="41.4279619" lon="13.1864236"><ele>16.0</ele><time>2026-04-04T09:13:53.251Z</time></trkpt><trkpt lat="41.4280611" lon="13.1865135"><ele>16.0</ele><time>2026-04-04T09:13:54.252Z</time></trkpt><trkpt lat="41.4281562" lon="13.1866013"><ele>16.5</ele><time>2026-04-04T09:13:55.255Z</time></trkpt><trkpt lat="41.4282532" lon="13.1866887"><ele>17.0</ele><time>2026-04-04T09:13:56.253Z</time></trkpt><trkpt lat="41.4283461" lon="13.1867634"><ele>17.5</ele><time>2026-04-04T09:13:57.252Z</time></trkpt><trkpt lat="41.428442" lon="13.1868436"><ele>18.0</ele><time>2026-04-04T09:13:58.253Z</time></trkpt><trkpt lat="41.4285366" lon="13.1869305"><ele>18.0</ele><time>2026-04-04T09:13:59.26Z</time></trkpt><trkpt lat="41.428636" lon="13.1870251"><ele>18.0</ele><time>2026-04-04T09:14:00.281Z</time></trkpt><trkpt lat="41.4287529" lon="13.1871294"><ele>18.0</ele><time>2026-04-04T09:14:01.255Z</time></trkpt><trkpt lat="41.4288752" lon="13.1872375"><ele>18.0</ele><time>2026-04-04T09:14:02.259Z</time></trkpt><trkpt lat="41.4290087" lon="13.1873489"><ele>17.0</ele><time>2026-04-04T09:14:03.252Z</time></trkpt><trkpt lat="41.4291459" lon="13.1874552"><ele>16.0</ele><time>2026-04-04T09:14:04.252Z</time></trkpt><trkpt lat="41.4292855" lon="13.187562"><ele>15.0</ele><time>2026-04-04T09:14:05.258Z</time></trkpt><trkpt lat="41.4294302" lon="13.1876678"><ele>15.0</ele><time>2026-04-04T09:14:06.266Z</time></trkpt><trkpt lat="41.4295797" lon="13.1877716"><ele>15.0</ele><time>2026-04-04T09:14:07.255Z</time></trkpt><trkpt lat="41.4297365" lon="13.1878684"><ele>15.0</ele><time>2026-04-04T09:14:08.248Z</time></trkpt><trkpt lat="41.429895" lon="13.1879497"><ele>15.0</ele><time>2026-04-04T09:14:09.25Z</time></trkpt><trkpt lat="41.4300548" lon="13.1880166"><ele>15.0</ele><time>2026-04-04T09:14:10.254Z</time></trkpt><trkpt lat="41.4302202" lon="13.1880737"><ele>15.0</ele><time>2026-04-04T09:14:11.254Z</time></trkpt><trkpt lat="41.4303868" lon="13.1881206"><ele>15.0</ele><time>2026-04-04T09:14:12.27Z</time></trkpt><trkpt lat="41.4305576" lon="13.1881473"><ele>15.0</ele><time>2026-04-04T09:14:13.256Z</time></trkpt><trkpt lat="41.4307303" lon="13.1881647"><ele>15.0</ele><time>2026-04-04T09:14:14.259Z</time></trkpt><trkpt lat="41.4309029" lon="13.1881838"><ele>15.0</ele><time>2026-04-04T09:14:15.259Z</time></trkpt><trkpt lat="41.4310757" lon="13.188203"><ele>15.0</ele><time>2026-04-04T09:14:16.255Z</time></trkpt><trkpt lat="41.4312494" lon="13.1882205"><ele>15.0</ele><time>2026-04-04T09:14:17.263Z</time></trkpt><trkpt lat="41.4314231" lon="13.1882366"><ele>15.0</ele><time>2026-04-04T09:14:18.254Z</time></trkpt><trkpt lat="41.4315938" lon="13.188259"><ele>15.0</ele><time>2026-04-04T09:14:19.256Z</time></trkpt><trkpt lat="41.4317646" lon="13.1882983"><ele>15.0</ele><time>2026-04-04T09:14:20.258Z</time></trkpt><trkpt lat="41.4319355" lon="13.1883539"><ele>15.0</ele><time>2026-04-04T09:14:21.26Z</time></trkpt><trkpt lat="41.4321027" lon="13.1884287"><ele>15.0</ele><time>2026-04-04T09:14:22.25Z</time></trkpt><trkpt lat="41.4322634" lon="13.1885275"><ele>15.0</ele><time>2026-04-04T09:14:23.26Z</time></trkpt><trkpt lat="41.4324236" lon="13.1886352"><ele>15.0</ele><time>2026-04-04T09:14:24.262Z</time></trkpt><trkpt lat="41.432578" lon="13.1887548"><ele>15.0</ele><time>2026-04-04T09:14:25.261Z</time></trkpt><trkpt lat="41.4327253" lon="13.18887"><ele>15.0</ele><time>2026-04-04T09:14:26.257Z</time></trkpt><trkpt lat="41.4328758" lon="13.1889882"><ele>16.0</ele><time>2026-04-04T09:14:27.26Z</time></trkpt><trkpt lat="41.4330263" lon="13.1891123"><ele>17.0</ele><time>2026-04-04T09:14:28.258Z</time></trkpt><trkpt lat="41.4331853" lon="13.1892153"><ele>18.0</ele><time>2026-04-04T09:14:29.284Z</time></trkpt><trkpt lat="41.4333352" lon="13.1893354"><ele>18.0</ele><time>2026-04-04T09:14:30.257Z</time></trkpt><trkpt lat="41.433483" lon="13.1894571"><ele>18.0</ele><time>2026-04-04T09:14:31.254Z</time></trkpt><trkpt lat="41.4336383" lon="13.1895774"><ele>18.0</ele><time>2026-04-04T09:14:32.263Z</time></trkpt><trkpt lat="41.4337918" lon="13.1896923"><ele>18.333333333333332</ele><time>2026-04-04T09:14:33.257Z</time></trkpt><trkpt lat="41.4339428" lon="13.1898081"><ele>18.666666666666664</ele><time>2026-04-04T09:14:34.275Z</time></trkpt><trkpt lat="41.4340897" lon="13.1899191"><ele>19.0</ele><time>2026-04-04T09:14:35.252Z</time></trkpt><trkpt lat="41.4342365" lon="13.1900293"><ele>19.0</ele><time>2026-04-04T09:14:36.255Z</time></trkpt><trkpt lat="41.4343873" lon="13.1901375"><ele>19.0</ele><time>2026-04-04T09:14:37.248Z</time></trkpt><trkpt lat="41.434524" lon="13.1902381"><ele>19.0</ele><time>2026-04-04T09:14:38.253Z</time></trkpt><trkpt lat="41.434649" lon="13.1903299"><ele>19.6</ele><time>2026-04-04T09:14:39.268Z</time></trkpt><trkpt lat="41.4347541" lon="13.1904131"><ele>20.2</ele><time>2026-04-04T09:14:40.26Z</time></trkpt><trkpt lat="41.4348358" lon="13.1904931"><ele>20.8</ele><time>2026-04-04T09:14:41.25Z</time></trkpt><trkpt lat="41.4348932" lon="13.1905763"><ele>21.400000000000002</ele><time>2026-04-04T09:14:42.258Z</time></trkpt><trkpt lat="41.4349172" lon="13.1906704"><ele>22.0</ele><time>2026-04-04T09:14:43.259Z</time></trkpt><trkpt lat="41.4349115" lon="13.1907728"><ele>22.0</ele><time>2026-04-04T09:14:44.255Z</time></trkpt><trkpt lat="41.4348782" lon="13.1908826"><ele>22.0</ele><time>2026-04-04T09:14:45.273Z</time></trkpt><trkpt lat="41.4348205" lon="13.1910006"><ele>22.0</ele><time>2026-04-04T09:14:46.259Z</time></trkpt><trkpt lat="41.4347527" lon="13.1911185"><ele>22.0</ele><time>2026-04-04T09:14:47.266Z</time></trkpt><trkpt lat="41.4346768" lon="13.1912422"><ele>22.0</ele><time>2026-04-04T09:14:48.258Z</time></trkpt><trkpt lat="41.4345972" lon="13.1913818"><ele>20.75</ele><time>2026-04-04T09:14:49.257Z</time></trkpt><trkpt lat="41.4345152" lon="13.1915333"><ele>19.5</ele><time>2026-04-04T09:14:50.271Z</time></trkpt><trkpt lat="41.4344285" lon="13.1916985"><ele>18.25</ele><time>2026-04-04T09:14:51.256Z</time></trkpt><trkpt lat="41.4343441" lon="13.1918642"><ele>17.0</ele><time>2026-04-04T09:14:52.255Z</time></trkpt><trkpt lat="41.434264" lon="13.1920301"><ele>17.0</ele><time>2026-04-04T09:14:53.254Z</time></trkpt><trkpt lat="41.4341856" lon="13.1922063"><ele>17.0</ele><time>2026-04-04T09:14:54.255Z</time></trkpt><trkpt lat="41.4341052" lon="13.1923949"><ele>17.0</ele><time>2026-04-04T09:14:55.278Z</time></trkpt><trkpt lat="41.4340235" lon="13.1925855"><ele>16.666666666666668</ele><time>2026-04-04T09:14:56.258Z</time></trkpt><trkpt lat="41.4339424" lon="13.1927768"><ele>16.333333333333332</ele><time>2026-04-04T09:14:57.26Z</time></trkpt><trkpt lat="41.4338642" lon="13.192968"><ele>16.0</ele><time>2026-04-04T09:14:58.259Z</time></trkpt><trkpt lat="41.4337843" lon="13.1931629"><ele>15.333333333333332</ele><time>2026-04-04T09:14:59.26Z</time></trkpt><trkpt lat="41.4337075" lon="13.1933511"><ele>14.666666666666668</ele><time>2026-04-04T09:15:00.255Z</time></trkpt><trkpt lat="41.4336351" lon="13.1935338"><ele>14.0</ele><time>2026-04-04T09:15:01.261Z</time></trkpt><trkpt lat="41.433566" lon="13.1937129"><ele>14.0</ele><time>2026-04-04T09:15:02.256Z</time></trkpt><trkpt lat="41.4335053" lon="13.1938871"><ele>14.0</ele><time>2026-04-04T09:15:03.256Z</time></trkpt><trkpt lat="41.4334578" lon="13.1940534"><ele>14.0</ele><time>2026-04-04T09:15:04.272Z</time></trkpt><trkpt lat="41.4334206" lon="13.194206"><ele>14.0</ele><time>2026-04-04T09:15:05.256Z</time></trkpt><trkpt lat="41.4333913" lon="13.1943425"><ele>14.166666666666668</ele><time>2026-04-04T09:15:06.254Z</time></trkpt><trkpt lat="41.433371" lon="13.194467"><ele>14.333333333333334</ele><time>2026-04-04T09:15:07.261Z</time></trkpt><trkpt lat="41.4333605" lon="13.1945704"><ele>14.5</ele><time>2026-04-04T09:15:08.252Z</time></trkpt><trkpt lat="41.4333551" lon="13.1946578"><ele>14.666666666666668</ele><time>2026-04-04T09:15:09.265Z</time></trkpt><trkpt lat="41.4333299" lon="13.1948074"><ele>14.833333333333334</ele><time>2026-04-04T09:15:11.26Z</time></trkpt><trkpt lat="41.4333183" lon="13.194899"><ele>15.0</ele><time>2026-04-04T09:15:13.256Z</time></trkpt><trkpt lat="41.4333677" lon="13.194976"><ele>15.0</ele><time>2026-04-04T09:15:16.256Z</time></trkpt><trkpt lat="41.4334104" lon="13.1948875"><ele>15.0</ele><time>2026-04-04T09:15:19.26Z</time></trkpt><trkpt lat="41.4334127" lon="13.1947378"><ele>15.0</ele><time>2026-04-04T09:18:46.267Z</time></trkpt><trkpt lat="41.4334148" lon="13.1946435"><ele>15.0</ele><time>2026-04-04T09:18:48.261Z</time></trkpt><trkpt lat="41.4334477" lon="13.1945582"><ele>15.0</ele><time>2026-04-04T09:18:50.265Z</time></trkpt><trkpt lat="41.4335209" lon="13.1945385"><ele>15.0</ele><time>2026-04-04T09:18:52.265Z</time></trkpt><trkpt lat="41.4336171" lon="13.1945649"><ele>15.0</ele><time>2026-04-04T09:18:54.26Z</time></trkpt><trkpt lat="41.4337146" lon="13.1946126"><ele>15.0</ele><time>2026-04-04T09:18:56.256Z</time></trkpt><trkpt lat="41.4338061" lon="13.194662"><ele>15.0</ele><time>2026-04-04T09:18:58.262Z</time></trkpt><trkpt lat="41.4339174" lon="13.1947237"><ele>15.0</ele><time>2026-04-04T09:19:00.265Z</time></trkpt><trkpt lat="41.4339785" lon="13.1947591"><ele>15.0</ele><time>2026-04-04T09:19:01.268Z</time></trkpt><trkpt lat="41.4340412" lon="13.1947986"><ele>15.2</ele><time>2026-04-04T09:19:02.263Z</time></trkpt><trkpt lat="41.4341011" lon="13.1948411"><ele>15.4</ele><time>2026-04-04T09:19:03.255Z</time></trkpt><trkpt lat="41.4341946" lon="13.1949332"><ele>15.600000000000001</ele><time>2026-04-04T09:19:05.266Z</time></trkpt><trkpt lat="41.4342562" lon="13.1950561"><ele>15.8</ele><time>2026-04-04T09:19:07.263Z</time></trkpt><trkpt lat="41.43428" lon="13.1951775"><ele>16.0</ele><time>2026-04-04T09:19:09.261Z</time></trkpt><trkpt lat="41.434287" lon="13.1952763"><ele>16.0</ele><time>2026-04-04T09:19:11.26Z</time></trkpt><trkpt lat="41.4343127" lon="13.1954028"><ele>16.0</ele><time>2026-04-04T09:19:14.265Z</time></trkpt><trkpt lat="41.4343371" lon="13.1955053"><ele>16.0</ele><time>2026-04-04T09:19:16.257Z</time></trkpt><trkpt lat="41.4343691" lon="13.1956192"><ele>16.0</ele><time>2026-04-04T09:19:18.259Z</time></trkpt><trkpt lat="41.4344001" lon="13.1957506"><ele>16.0</ele><time>2026-04-04T09:19:20.256Z</time></trkpt><trkpt lat="41.4343943" lon="13.1958643"><ele>15.600000000000001</ele><time>2026-04-04T09:19:22.256Z</time></trkpt><trkpt lat="41.4343764" lon="13.1959845"><ele>15.200000000000001</ele><time>2026-04-04T09:19:24.255Z</time></trkpt><trkpt lat="41.4343595" lon="13.1961227"><ele>14.799999999999999</ele><time>2026-04-04T09:19:26.275Z</time></trkpt><trkpt lat="41.4343429" lon="13.1962572"><ele>14.399999999999999</ele><time>2026-04-04T09:19:28.262Z</time></trkpt><trkpt lat="41.4343265" lon="13.1964038"><ele>14.0</ele><time>2026-04-04T09:19:30.258Z</time></trkpt><trkpt lat="41.4343138" lon="13.1965657"><ele>13.500000000000002</ele><time>2026-04-04T09:19:32.259Z</time></trkpt><trkpt lat="41.4343092" lon="13.1966519"><ele>13.0</ele><time>2026-04-04T09:19:33.264Z</time></trkpt><trkpt lat="41.4343024" lon="13.1967515"><ele>12.5</ele><time>2026-04-04T09:19:34.258Z</time></trkpt><trkpt lat="41.4342932" lon="13.1968623"><ele>12.0</ele><time>2026-04-04T09:19:35.261Z</time></trkpt><trkpt lat="41.434287" lon="13.1969781"><ele>11.5</ele><time>2026-04-04T09:19:36.277Z</time></trkpt><trkpt lat="41.4342858" lon="13.197095"><ele>11.0</ele><time>2026-04-04T09:19:37.264Z</time></trkpt><trkpt lat="41.4342924" lon="13.19721"><ele>11.0</ele><time>2026-04-04T09:19:38.262Z</time></trkpt><trkpt lat="41.4343069" lon="13.1973256"><ele>11.0</ele><time>2026-04-04T09:19:39.263Z</time></trkpt><trkpt lat="41.434325" lon="13.1974393"><ele>11.0</ele><time>2026-04-04T09:19:40.261Z</time></trkpt><trkpt lat="41.4343448" lon="13.1975512"><ele>11.0</ele><time>2026-04-04T09:19:41.253Z</time></trkpt><trkpt lat="41.4343644" lon="13.1976647"><ele>11.0</ele><time>2026-04-04T09:19:42.268Z</time></trkpt><trkpt lat="41.4343834" lon="13.1977832"><ele>11.0</ele><time>2026-04-04T09:19:43.257Z</time></trkpt><trkpt lat="41.4344026" lon="13.1978983"><ele>11.5</ele><time>2026-04-04T09:19:44.264Z</time></trkpt><trkpt lat="41.4344227" lon="13.1980083"><ele>12.0</ele><time>2026-04-04T09:19:45.259Z</time></trkpt><trkpt lat="41.4344433" lon="13.1981172"><ele>12.5</ele><time>2026-04-04T09:19:46.261Z</time></trkpt><trkpt lat="41.434463" lon="13.1982159"><ele>13.0</ele><time>2026-04-04T09:19:47.268Z</time></trkpt><trkpt lat="41.4344813" lon="13.1983041"><ele>13.500000000000002</ele><time>2026-04-04T09:19:48.252Z</time></trkpt><trkpt lat="41.4345112" lon="13.1984604"><ele>14.0</ele><time>2026-04-04T09:19:50.254Z</time></trkpt><trkpt lat="41.4345378" lon="13.1986114"><ele>14.0</ele><time>2026-04-04T09:19:52.257Z</time></trkpt><trkpt lat="41.4345591" lon="13.1987733"><ele>13.999999999999998</ele><time>2026-04-04T09:19:54.258Z</time></trkpt><trkpt lat="41.4345866" lon="13.1989335"><ele>13.999999999999998</ele><time>2026-04-04T09:19:56.266Z</time></trkpt><trkpt lat="41.4346031" lon="13.1990162"><ele>14.0</ele><time>2026-04-04T09:19:57.26Z</time></trkpt><trkpt lat="41.4346207" lon="13.1991122"><ele>14.0</ele><time>2026-04-04T09:19:58.269Z</time></trkpt><trkpt lat="41.4346385" lon="13.199216"><ele>13.857142857142858</ele><time>2026-04-04T09:19:59.26Z</time></trkpt><trkpt lat="41.4346568" lon="13.1993176"><ele>13.714285714285715</ele><time>2026-04-04T09:20:00.263Z</time></trkpt><trkpt lat="41.4346758" lon="13.1994145"><ele>13.571428571428571</ele><time>2026-04-04T09:20:01.26Z</time></trkpt><trkpt lat="41.4347014" lon="13.1995035"><ele>13.428571428571429</ele><time>2026-04-04T09:20:02.257Z</time></trkpt><trkpt lat="41.4347288" lon="13.1995889"><ele>13.285714285714286</ele><time>2026-04-04T09:20:03.264Z</time></trkpt><trkpt lat="41.434759" lon="13.1996804"><ele>13.142857142857142</ele><time>2026-04-04T09:20:04.263Z</time></trkpt><trkpt lat="41.4347876" lon="13.1997651"><ele>13.0</ele><time>2026-04-04T09:20:05.27Z</time></trkpt><trkpt lat="41.4348111" lon="13.1998605"><ele>12.833333333333332</ele><time>2026-04-04T09:20:06.254Z</time></trkpt><trkpt lat="41.4348345" lon="13.1999579"><ele>12.666666666666666</ele><time>2026-04-04T09:20:07.256Z</time></trkpt><trkpt lat="41.4348568" lon="13.2000532"><ele>12.5</ele><time>2026-04-04T09:20:08.26Z</time></trkpt><trkpt lat="41.4348785" lon="13.2001483"><ele>12.333333333333332</ele><time>2026-04-04T09:20:09.255Z</time></trkpt><trkpt lat="41.4349002" lon="13.2002347"><ele>12.166666666666666</ele><time>2026-04-04T09:20:10.264Z</time></trkpt><trkpt lat="41.4349201" lon="13.2003149"><ele>12.0</ele><time>2026-04-04T09:20:11.259Z</time></trkpt><trkpt lat="41.4349686" lon="13.2004599"><ele>12.0</ele><time>2026-04-04T09:20:13.256Z</time></trkpt><trkpt lat="41.4350323" lon="13.2005886"><ele>12.0</ele><time>2026-04-04T09:20:15.256Z</time></trkpt><trkpt lat="41.4350838" lon="13.2006931"><ele>12.0</ele><time>2026-04-04T09:20:17.254Z</time></trkpt><trkpt lat="41.4351372" lon="13.200792"><ele>12.0</ele><time>2026-04-04T09:20:20.254Z</time></trkpt><trkpt lat="41.4351807" lon="13.2008704"><ele>12.0</ele><time>2026-04-04T09:20:22.261Z</time></trkpt><trkpt lat="41.4352338" lon="13.2009608"><ele>12.0</ele><time>2026-04-04T09:20:24.275Z</time></trkpt><trkpt lat="41.4352795" lon="13.2010424"><ele>12.0</ele><time>2026-04-04T09:20:26.261Z</time></trkpt><trkpt lat="41.4353274" lon="13.2011194"><ele>12.0</ele><time>2026-04-04T09:20:28.258Z</time></trkpt><trkpt lat="41.4353812" lon="13.2012108"><ele>12.0</ele><time>2026-04-04T09:20:30.263Z</time></trkpt><trkpt lat="41.4354264" lon="13.201292"><ele>12.0</ele><time>2026-04-04T09:20:32.255Z</time></trkpt><trkpt lat="41.4354749" lon="13.2013796"><ele>12.0</ele><time>2026-04-04T09:20:34.259Z</time></trkpt><trkpt lat="41.4355212" lon="13.2014609"><ele>12.285714285714285</ele><time>2026-04-04T09:20:36.258Z</time></trkpt><trkpt lat="41.4355742" lon="13.2015488"><ele>12.571428571428571</ele><time>2026-04-04T09:20:38.259Z</time></trkpt><trkpt lat="41.4356183" lon="13.2016402"><ele>12.857142857142858</ele><time>2026-04-04T09:20:40.255Z</time></trkpt><trkpt lat="41.4356542" lon="13.2017144"><ele>13.142857142857142</ele><time>2026-04-04T09:20:42.258Z</time></trkpt><trkpt lat="41.4356943" lon="13.2017835"><ele>13.428571428571429</ele><time>2026-04-04T09:20:44.258Z</time></trkpt><trkpt lat="41.4357364" lon="13.201862"><ele>13.714285714285714</ele><time>2026-04-04T09:20:46.259Z</time></trkpt><trkpt lat="41.4357806" lon="13.2019483"><ele>14.0</ele><time>2026-04-04T09:20:48.256Z</time></trkpt><trkpt lat="41.4358161" lon="13.2020222"><ele>14.000000000000002</ele><time>2026-04-04T09:20:50.263Z</time></trkpt><trkpt lat="41.4358616" lon="13.2020839"><ele>14.0</ele><time>2026-04-04T09:20:52.257Z</time></trkpt><trkpt lat="41.4359295" lon="13.2021365"><ele>14.0</ele><time>2026-04-04T09:20:55.267Z</time></trkpt><trkpt lat="41.4359927" lon="13.2022561"><ele>14.0</ele><time>2026-04-04T09:20:58.259Z</time></trkpt><trkpt lat="41.4360514" lon="13.2023594"><ele>14.000000000000002</ele><time>2026-04-04T09:21:00.264Z</time></trkpt><trkpt lat="41.4360973" lon="13.2024411"><ele>14.0</ele><time>2026-04-04T09:21:02.262Z</time></trkpt><trkpt lat="41.4361262" lon="13.2025329"><ele>14.2</ele><time>2026-04-04T09:21:04.257Z</time></trkpt><trkpt lat="41.4361469" lon="13.202637"><ele>14.399999999999999</ele><time>2026-04-04T09:21:06.256Z</time></trkpt><trkpt lat="41.4361907" lon="13.2027512"><ele>14.6</ele><time>2026-04-04T09:21:08.266Z</time></trkpt><trkpt lat="41.4362479" lon="13.2028742"><ele>14.8</ele><time>2026-04-04T09:21:10.27Z</time></trkpt><trkpt lat="41.4363106" lon="13.2029849"><ele>15.0</ele><time>2026-04-04T09:21:12.255Z</time></trkpt><trkpt lat="41.4363804" lon="13.2030981"><ele>14.8</ele><time>2026-04-04T09:21:14.255Z</time></trkpt><trkpt lat="41.4364406" lon="13.2032069"><ele>14.6</ele><time>2026-04-04T09:21:16.259Z</time></trkpt><trkpt lat="41.4364785" lon="13.2033121"><ele>14.399999999999999</ele><time>2026-04-04T09:21:18.258Z</time></trkpt><trkpt lat="41.4364835" lon="13.2034452"><ele>14.2</ele><time>2026-04-04T09:21:20.268Z</time></trkpt><trkpt lat="41.4364798" lon="13.2035333"><ele>14.0</ele><time>2026-04-04T09:21:21.264Z</time></trkpt><trkpt lat="41.4364665" lon="13.2037402"><ele>14.0</ele><time>2026-04-04T09:21:23.262Z</time></trkpt><trkpt lat="41.4364625" lon="13.2038621"><ele>13.999999999999998</ele><time>2026-04-04T09:21:24.273Z</time></trkpt><trkpt lat="41.4364662" lon="13.2041011"><ele>13.999999999999998</ele><time>2026-04-04T09:21:26.264Z</time></trkpt><trkpt lat="41.4364729" lon="13.2042062"><ele>14.0</ele><time>2026-04-04T09:21:27.26Z</time></trkpt><trkpt lat="41.4364732" lon="13.2043205"><ele>14.0</ele><time>2026-04-04T09:21:28.269Z</time></trkpt><trkpt lat="41.4364666" lon="13.2044232"><ele>14.000000000000002</ele><time>2026-04-04T09:21:29.266Z</time></trkpt><trkpt lat="41.4364657" lon="13.2045214"><ele>14.0</ele><time>2026-04-04T09:21:30.256Z</time></trkpt><trkpt lat="41.4364446" lon="13.2046725"><ele>14.0</ele><time>2026-04-04T09:21:32.253Z</time></trkpt><trkpt lat="41.436457" lon="13.2047581"><ele>14.0</ele><time>2026-04-04T09:21:33.256Z</time></trkpt><trkpt lat="41.4364818" lon="13.2048517"><ele>14.000000000000002</ele><time>2026-04-04T09:21:34.261Z</time></trkpt><trkpt lat="41.4365111" lon="13.2049516"><ele>14.0</ele><time>2026-04-04T09:21:35.259Z</time></trkpt><trkpt lat="41.4365403" lon="13.205052"><ele>15.000000000000002</ele><time>2026-04-04T09:21:36.259Z</time></trkpt><trkpt lat="41.4365642" lon="13.2051406"><ele>16.0</ele><time>2026-04-04T09:21:37.277Z</time></trkpt><trkpt lat="41.4366003" lon="13.2052743"><ele>17.0</ele><time>2026-04-04T09:21:39.255Z</time></trkpt><trkpt lat="41.4366358" lon="13.2053633"><ele>18.0</ele><time>2026-04-04T09:21:41.257Z</time></trkpt><trkpt lat="41.4367338" lon="13.2053749"><ele>19.0</ele><time>2026-04-04T09:21:43.254Z</time></trkpt><trkpt lat="41.4368139" lon="13.205346"><ele>20.0</ele><time>2026-04-04T09:21:44.251Z</time></trkpt><trkpt lat="41.4368987" lon="13.2052954"><ele>20.0</ele><time>2026-04-04T09:21:45.257Z</time></trkpt><trkpt lat="41.4369811" lon="13.2052314"><ele>20.0</ele><time>2026-04-04T09:21:46.252Z</time></trkpt><trkpt lat="41.4370475" lon="13.2051495"><ele>20.0</ele><time>2026-04-04T09:21:47.272Z</time></trkpt><trkpt lat="41.4371066" lon="13.2050557"><ele>20.0</ele><time>2026-04-04T09:21:48.261Z</time></trkpt><trkpt lat="41.4371566" lon="13.2049499"><ele>20.0</ele><time>2026-04-04T09:21:49.262Z</time></trkpt><trkpt lat="41.4371963" lon="13.2048323"><ele>19.0</ele><time>2026-04-04T09:21:50.258Z</time></trkpt><trkpt lat="41.4372378" lon="13.2047118"><ele>18.0</ele><time>2026-04-04T09:21:51.264Z</time></trkpt><trkpt lat="41.4372898" lon="13.2045992"><ele>17.0</ele><time>2026-04-04T09:21:52.265Z</time></trkpt><trkpt lat="41.4373411" lon="13.20449"><ele>16.0</ele><time>2026-04-04T09:21:53.264Z</time></trkpt><trkpt lat="41.4373967" lon="13.2043991"><ele>15.0</ele><time>2026-04-04T09:21:54.253Z</time></trkpt><trkpt lat="41.4374454" lon="13.2043205"><ele>15.0</ele><time>2026-04-04T09:21:55.253Z</time></trkpt><trkpt lat="41.4374982" lon="13.2042688"><ele>15.0</ele><time>2026-04-04T09:21:56.255Z</time></trkpt><trkpt lat="41.4375609" lon="13.2042533"><ele>15.0</ele><time>2026-04-04T09:21:57.254Z</time></trkpt><trkpt lat="41.4376305" lon="13.2042358"><ele>15.0</ele><time>2026-04-04T09:21:58.261Z</time></trkpt><trkpt lat="41.4377237" lon="13.2042499"><ele>15.0</ele><time>2026-04-04T09:21:59.258Z</time></trkpt><trkpt lat="41.4378326" lon="13.2042473"><ele>15.0</ele><time>2026-04-04T09:22:00.26Z</time></trkpt><trkpt lat="41.4379485" lon="13.2042425"><ele>14.75</ele><time>2026-04-04T09:22:01.255Z</time></trkpt><trkpt lat="41.4380797" lon="13.2042154"><ele>14.5</ele><time>2026-04-04T09:22:02.258Z</time></trkpt><trkpt lat="41.4382179" lon="13.2041698"><ele>14.25</ele><time>2026-04-04T09:22:03.254Z</time></trkpt><trkpt lat="41.4383477" lon="13.2041145"><ele>14.0</ele><time>2026-04-04T09:22:04.26Z</time></trkpt><trkpt lat="41.4384641" lon="13.204043"><ele>14.0</ele><time>2026-04-04T09:22:05.257Z</time></trkpt><trkpt lat="41.4385619" lon="13.2039665"><ele>13.999999999999998</ele><time>2026-04-04T09:22:06.259Z</time></trkpt><trkpt lat="41.4386451" lon="13.2038851"><ele>13.999999999999998</ele><time>2026-04-04T09:22:07.256Z</time></trkpt><trkpt lat="41.4387243" lon="13.2038014"><ele>14.0</ele><time>2026-04-04T09:22:08.278Z</time></trkpt><trkpt lat="41.4388038" lon="13.2037236"><ele>14.0</ele><time>2026-04-04T09:22:09.255Z</time></trkpt><trkpt lat="41.4388719" lon="13.2036546"><ele>14.000000000000002</ele><time>2026-04-04T09:22:10.26Z</time></trkpt><trkpt lat="41.4389333" lon="13.2035942"><ele>14.0</ele><time>2026-04-04T09:22:11.262Z</time></trkpt><trkpt lat="41.4389919" lon="13.2035376"><ele>14.0</ele><time>2026-04-04T09:22:12.257Z</time></trkpt><trkpt lat="41.439043" lon="13.203485"><ele>14.0</ele><time>2026-04-04T09:22:13.26Z</time></trkpt><trkpt lat="41.4390959" lon="13.2034359"><ele>14.000000000000002</ele><time>2026-04-04T09:22:14.271Z</time></trkpt><trkpt lat="41.4391835" lon="13.2033526"><ele>14.0</ele><time>2026-04-04T09:22:16.266Z</time></trkpt><trkpt lat="41.439277" lon="13.2032663"><ele>14.000000000000002</ele><time>2026-04-04T09:22:18.263Z</time></trkpt><trkpt lat="41.4393379" lon="13.2032113"><ele>14.0</ele><time>2026-04-04T09:22:19.273Z</time></trkpt><trkpt lat="41.439409" lon="13.2031438"><ele>14.0</ele><time>2026-04-04T09:22:20.263Z</time></trkpt><trkpt lat="41.439484" lon="13.2030783"><ele>14.0</ele><time>2026-04-04T09:22:21.266Z</time></trkpt><trkpt lat="41.4395608" lon="13.2030195"><ele>14.000000000000002</ele><time>2026-04-04T09:22:22.262Z</time></trkpt><trkpt lat="41.439642" lon="13.2029604"><ele>14.0</ele><time>2026-04-04T09:22:23.268Z</time></trkpt><trkpt lat="41.4397141" lon="13.2029266"><ele>14.500000000000002</ele><time>2026-04-04T09:22:24.263Z</time></trkpt><trkpt lat="41.4397758" lon="13.202886"><ele>15.0</ele><time>2026-04-04T09:22:25.261Z</time></trkpt><trkpt lat="41.4398385" lon="13.2028333"><ele>15.5</ele><time>2026-04-04T09:22:26.261Z</time></trkpt><trkpt lat="41.4398958" lon="13.2027835"><ele>16.0</ele><time>2026-04-04T09:22:27.26Z</time></trkpt><trkpt lat="41.4400079" lon="13.2027226"><ele>16.5</ele><time>2026-04-04T09:22:29.258Z</time></trkpt><trkpt lat="41.4400779" lon="13.2026998"><ele>17.0</ele><time>2026-04-04T09:22:30.259Z</time></trkpt><trkpt lat="41.4401621" lon="13.2026906"><ele>17.0</ele><time>2026-04-04T09:22:31.26Z</time></trkpt><trkpt lat="41.4402571" lon="13.2026949"><ele>17.0</ele><time>2026-04-04T09:22:32.259Z</time></trkpt><trkpt lat="41.4403514" lon="13.2027107"><ele>17.0</ele><time>2026-04-04T09:22:33.259Z</time></trkpt><trkpt lat="41.4404423" lon="13.2027427"><ele>17.0</ele><time>2026-04-04T09:22:34.27Z</time></trkpt><trkpt lat="41.4405311" lon="13.2027907"><ele>17.0</ele><time>2026-04-04T09:22:35.265Z</time></trkpt><trkpt lat="41.4406145" lon="13.2028566"><ele>17.2</ele><time>2026-04-04T09:22:36.255Z</time></trkpt><trkpt lat="41.4406888" lon="13.2029324"><ele>17.4</ele><time>2026-04-04T09:22:37.256Z</time></trkpt><trkpt lat="41.4407605" lon="13.2030199"><ele>17.6</ele><time>2026-04-04T09:22:38.268Z</time></trkpt><trkpt lat="41.440825" lon="13.2031261"><ele>17.8</ele><time>2026-04-04T09:22:39.262Z</time></trkpt><trkpt lat="41.440877" lon="13.2032402"><ele>18.0</ele><time>2026-04-04T09:22:40.256Z</time></trkpt><trkpt lat="41.440925" lon="13.203358"><ele>18.0</ele><time>2026-04-04T09:22:41.273Z</time></trkpt><trkpt lat="41.4409684" lon="13.2034722"><ele>18.0</ele><time>2026-04-04T09:22:42.255Z</time></trkpt><trkpt lat="41.4410107" lon="13.203583"><ele>18.0</ele><time>2026-04-04T09:22:43.257Z</time></trkpt><trkpt lat="41.4410495" lon="13.2036879"><ele>18.0</ele><time>2026-04-04T09:22:44.256Z</time></trkpt><trkpt lat="41.4410943" lon="13.203781"><ele>18.0</ele><time>2026-04-04T09:22:45.266Z</time></trkpt><trkpt lat="41.4411398" lon="13.2038745"><ele>18.0</ele><time>2026-04-04T09:22:46.267Z</time></trkpt><trkpt lat="41.4412003" lon="13.2039532"><ele>18.2</ele><time>2026-04-04T09:22:47.277Z</time></trkpt><trkpt lat="41.4412694" lon="13.2040562"><ele>18.4</ele><time>2026-04-04T09:22:48.252Z</time></trkpt><trkpt lat="41.4413356" lon="13.2041568"><ele>18.599999999999998</ele><time>2026-04-04T09:22:49.259Z</time></trkpt><trkpt lat="41.4414015" lon="13.2042442"><ele>18.8</ele><time>2026-04-04T09:22:50.252Z</time></trkpt><trkpt lat="41.441468" lon="13.2043324"><ele>19.0</ele><time>2026-04-04T09:22:51.261Z</time></trkpt><trkpt lat="41.4415368" lon="13.2044185"><ele>19.0</ele><time>2026-04-04T09:22:52.256Z</time></trkpt><trkpt lat="41.4416128" lon="13.2044882"><ele>19.0</ele><time>2026-04-04T09:22:53.252Z</time></trkpt><trkpt lat="41.4416893" lon="13.2045398"><ele>19.0</ele><time>2026-04-04T09:22:54.257Z</time></trkpt><trkpt lat="41.4417672" lon="13.204585"><ele>19.0</ele><time>2026-04-04T09:22:55.256Z</time></trkpt><trkpt lat="41.4418453" lon="13.2046275"><ele>19.0</ele><time>2026-04-04T09:22:56.257Z</time></trkpt><trkpt lat="41.4419303" lon="13.2046683"><ele>19.0</ele><time>2026-04-04T09:22:57.273Z</time></trkpt><trkpt lat="41.4420208" lon="13.2047103"><ele>19.0</ele><time>2026-04-04T09:22:58.259Z</time></trkpt><trkpt lat="41.4421163" lon="13.2047403"><ele>19.0</ele><time>2026-04-04T09:22:59.259Z</time></trkpt><trkpt lat="41.4422142" lon="13.2047475"><ele>19.0</ele><time>2026-04-04T09:23:00.259Z</time></trkpt><trkpt lat="41.4423216" lon="13.204735"><ele>19.0</ele><time>2026-04-04T09:23:01.272Z</time></trkpt><trkpt lat="41.4424347" lon="13.2047111"><ele>19.0</ele><time>2026-04-04T09:23:02.269Z</time></trkpt><trkpt lat="41.4425426" lon="13.2046872"><ele>18.8</ele><time>2026-04-04T09:23:03.261Z</time></trkpt><trkpt lat="41.4426495" lon="13.2046648"><ele>18.599999999999998</ele><time>2026-04-04T09:23:04.258Z</time></trkpt><trkpt lat="41.4427566" lon="13.204643"><ele>18.4</ele><time>2026-04-04T09:23:05.253Z</time></trkpt><trkpt lat="41.44287" lon="13.2046354"><ele>18.2</ele><time>2026-04-04T09:23:06.263Z</time></trkpt><trkpt lat="41.4429882" lon="13.2046439"><ele>18.0</ele><time>2026-04-04T09:23:07.255Z</time></trkpt><trkpt lat="41.4431105" lon="13.2046494"><ele>18.0</ele><time>2026-04-04T09:23:08.257Z</time></trkpt><trkpt lat="41.4432353" lon="13.2046491"><ele>18.0</ele><time>2026-04-04T09:23:09.253Z</time></trkpt><trkpt lat="41.4433532" lon="13.2046646"><ele>18.0</ele><time>2026-04-04T09:23:10.259Z</time></trkpt><trkpt lat="41.4434695" lon="13.2046916"><ele>18.0</ele><time>2026-04-04T09:23:11.262Z</time></trkpt><trkpt lat="41.4435855" lon="13.2047261"><ele>18.0</ele><time>2026-04-04T09:23:12.259Z</time></trkpt><trkpt lat="41.4437073" lon="13.2047556"><ele>18.0</ele><time>2026-04-04T09:23:13.259Z</time></trkpt><trkpt lat="41.4438313" lon="13.204783"><ele>18.0</ele><time>2026-04-04T09:23:14.251Z</time></trkpt><trkpt lat="41.4439407" lon="13.2048158"><ele>18.0</ele><time>2026-04-04T09:23:15.272Z</time></trkpt><trkpt lat="41.444034" lon="13.2048504"><ele>18.6</ele><time>2026-04-04T09:23:16.268Z</time></trkpt><trkpt lat="41.4441187" lon="13.204884"><ele>19.200000000000003</ele><time>2026-04-04T09:23:17.259Z</time></trkpt><trkpt lat="41.4441886" lon="13.2049194"><ele>19.8</ele><time>2026-04-04T09:23:18.26Z</time></trkpt><trkpt lat="41.4442951" lon="13.2049854"><ele>20.400000000000002</ele><time>2026-04-04T09:23:20.274Z</time></trkpt><trkpt lat="41.4444121" lon="13.2050059"><ele>21.0</ele><time>2026-04-04T09:23:22.259Z</time></trkpt><trkpt lat="41.4445015" lon="13.2050696"><ele>21.0</ele><time>2026-04-04T09:23:24.255Z</time></trkpt><trkpt lat="41.4445539" lon="13.2051381"><ele>21.0</ele><time>2026-04-04T09:23:25.277Z</time></trkpt><trkpt lat="41.4446133" lon="13.2052133"><ele>21.0</ele><time>2026-04-04T09:23:26.259Z</time></trkpt><trkpt lat="41.4446744" lon="13.2052893"><ele>21.0</ele><time>2026-04-04T09:23:27.259Z</time></trkpt><trkpt lat="41.4447451" lon="13.2053608"><ele>21.0</ele><time>2026-04-04T09:23:28.263Z</time></trkpt><trkpt lat="41.4448146" lon="13.2054185"><ele>21.0</ele><time>2026-04-04T09:23:29.266Z</time></trkpt><trkpt lat="41.4448811" lon="13.2054767"><ele>20.6</ele><time>2026-04-04T09:23:30.281Z</time></trkpt><trkpt lat="41.4449807" lon="13.2055349"><ele>20.200000000000003</ele><time>2026-04-04T09:23:32.255Z</time></trkpt><trkpt lat="41.4450767" lon="13.2055779"><ele>19.799999999999997</ele><time>2026-04-04T09:23:43.254Z</time></trkpt><trkpt lat="41.4451733" lon="13.2056388"><ele>19.4</ele><time>2026-04-04T09:23:46.264Z</time></trkpt><trkpt lat="41.4452855" lon="13.2056787"><ele>19.0</ele><time>2026-04-04T09:23:48.259Z</time></trkpt><trkpt lat="41.445348" lon="13.2057016"><ele>19.0</ele><time>2026-04-04T09:23:49.258Z</time></trkpt><trkpt lat="41.4454118" lon="13.2057217"><ele>19.0</ele><time>2026-04-04T09:23:50.261Z</time></trkpt><trkpt lat="41.4454743" lon="13.2057334"><ele>19.0</ele><time>2026-04-04T09:23:51.258Z</time></trkpt><trkpt lat="41.4455873" lon="13.2057573"><ele>19.0</ele><time>2026-04-04T09:23:53.259Z</time></trkpt><trkpt lat="41.445702" lon="13.2057741"><ele>19.0</ele><time>2026-04-04T09:23:55.256Z</time></trkpt><trkpt lat="41.4457658" lon="13.2057746"><ele>19.0</ele><time>2026-04-04T09:23:56.253Z</time></trkpt><trkpt lat="41.4458336" lon="13.205775"><ele>18.8</ele><time>2026-04-04T09:23:57.259Z</time></trkpt><trkpt lat="41.4459143" lon="13.2057706"><ele>18.599999999999998</ele><time>2026-04-04T09:23:58.257Z</time></trkpt><trkpt lat="41.4460086" lon="13.2057595"><ele>18.4</ele><time>2026-04-04T09:23:59.283Z</time></trkpt><trkpt lat="41.4461059" lon="13.205739"><ele>18.2</ele><time>2026-04-04T09:24:00.263Z</time></trkpt><trkpt lat="41.4462019" lon="13.2057143"><ele>18.0</ele><time>2026-04-04T09:24:01.251Z</time></trkpt><trkpt lat="41.4462961" lon="13.2056813"><ele>18.2</ele><time>2026-04-04T09:24:02.254Z</time></trkpt><trkpt lat="41.4463893" lon="13.2056395"><ele>18.4</ele><time>2026-04-04T09:24:03.251Z</time></trkpt><trkpt lat="41.4464844" lon="13.205592"><ele>18.599999999999998</ele><time>2026-04-04T09:24:04.254Z</time></trkpt><trkpt lat="41.4465763" lon="13.205537"><ele>18.8</ele><time>2026-04-04T09:24:05.259Z</time></trkpt><trkpt lat="41.446668" lon="13.2054732"><ele>19.0</ele><time>2026-04-04T09:24:06.261Z</time></trkpt><trkpt lat="41.4467608" lon="13.205408"><ele>19.0</ele><time>2026-04-04T09:24:07.268Z</time></trkpt><trkpt lat="41.4468562" lon="13.2053459"><ele>19.0</ele><time>2026-04-04T09:24:08.255Z</time></trkpt><trkpt lat="41.4469505" lon="13.2052872"><ele>19.0</ele><time>2026-04-04T09:24:09.255Z</time></trkpt><trkpt lat="41.4470385" lon="13.2052298"><ele>19.0</ele><time>2026-04-04T09:24:10.253Z</time></trkpt><trkpt lat="41.4471196" lon="13.2051772"><ele>19.0</ele><time>2026-04-04T09:24:11.256Z</time></trkpt><trkpt lat="41.4471954" lon="13.2051294"><ele>18.833333333333332</ele><time>2026-04-04T09:24:12.27Z</time></trkpt><trkpt lat="41.4472735" lon="13.2050756"><ele>18.666666666666664</ele><time>2026-04-04T09:24:13.26Z</time></trkpt><trkpt lat="41.4473515" lon="13.2050208"><ele>18.5</ele><time>2026-04-04T09:24:14.256Z</time></trkpt><trkpt lat="41.4474225" lon="13.2049727"><ele>18.333333333333332</ele><time>2026-04-04T09:24:15.256Z</time></trkpt><trkpt lat="41.4474987" lon="13.204924"><ele>18.166666666666668</ele><time>2026-04-04T09:24:16.259Z</time></trkpt><trkpt lat="41.4475703" lon="13.2048794"><ele>18.0</ele><time>2026-04-04T09:24:17.262Z</time></trkpt><trkpt lat="41.4476347" lon="13.2048307"><ele>18.333333333333332</ele><time>2026-04-04T09:24:18.259Z</time></trkpt><trkpt lat="41.4476956" lon="13.2047681"><ele>18.666666666666668</ele><time>2026-04-04T09:24:19.262Z</time></trkpt><trkpt lat="41.4477546" lon="13.2046928"><ele>19.0</ele><time>2026-04-04T09:24:20.253Z</time></trkpt><trkpt lat="41.4478183" lon="13.2046136"><ele>19.333333333333336</ele><time>2026-04-04T09:24:21.259Z</time></trkpt><trkpt lat="41.4478829" lon="13.2045258"><ele>19.666666666666668</ele><time>2026-04-04T09:24:22.256Z</time></trkpt><trkpt lat="41.4479481" lon="13.2044291"><ele>20.0</ele><time>2026-04-04T09:24:23.261Z</time></trkpt><trkpt lat="41.4480156" lon="13.2043237"><ele>20.0</ele><time>2026-04-04T09:24:24.257Z</time></trkpt><trkpt lat="41.4480801" lon="13.2042219"><ele>20.0</ele><time>2026-04-04T09:24:25.254Z</time></trkpt><trkpt lat="41.4481406" lon="13.2041231"><ele>20.0</ele><time>2026-04-04T09:24:26.26Z</time></trkpt><trkpt lat="41.4482023" lon="13.2040235"><ele>20.0</ele><time>2026-04-04T09:24:27.256Z</time></trkpt><trkpt lat="41.4482595" lon="13.2039286"><ele>20.0</ele><time>2026-04-04T09:24:28.267Z</time></trkpt><trkpt lat="41.4483135" lon="13.2038432"><ele>20.0</ele><time>2026-04-04T09:24:29.254Z</time></trkpt><trkpt lat="41.448365" lon="13.2037667"><ele>20.0</ele><time>2026-04-04T09:24:30.256Z</time></trkpt><trkpt lat="41.4484141" lon="13.2036914"><ele>20.0</ele><time>2026-04-04T09:24:31.261Z</time></trkpt><trkpt lat="41.4484718" lon="13.2036185"><ele>20.0</ele><time>2026-04-04T09:24:32.259Z</time></trkpt><trkpt lat="41.4485317" lon="13.2035536"><ele>20.0</ele><time>2026-04-04T09:24:33.253Z</time></trkpt><trkpt lat="41.448589" lon="13.2034933"><ele>20.0</ele><time>2026-04-04T09:24:34.261Z</time></trkpt><trkpt lat="41.4486533" lon="13.2034361"><ele>20.0</ele><time>2026-04-04T09:24:35.255Z</time></trkpt><trkpt lat="41.448726" lon="13.2033846"><ele>20.0</ele><time>2026-04-04T09:24:36.26Z</time></trkpt><trkpt lat="41.4488059" lon="13.2033432"><ele>20.0</ele><time>2026-04-04T09:24:37.252Z</time></trkpt><trkpt lat="41.4488894" lon="13.2033135"><ele>20.0</ele><time>2026-04-04T09:24:38.256Z</time></trkpt><trkpt lat="41.4489765" lon="13.2032965"><ele>20.0</ele><time>2026-04-04T09:24:39.252Z</time></trkpt><trkpt lat="41.4490667" lon="13.203291"><ele>20.0</ele><time>2026-04-04T09:24:40.255Z</time></trkpt><trkpt lat="41.4491557" lon="13.2032936"><ele>19.6</ele><time>2026-04-04T09:24:41.259Z</time></trkpt><trkpt lat="41.449246" lon="13.2033136"><ele>19.2</ele><time>2026-04-04T09:24:42.253Z</time></trkpt><trkpt lat="41.4493417" lon="13.2033459"><ele>18.8</ele><time>2026-04-04T09:24:43.27Z</time></trkpt><trkpt lat="41.4494292" lon="13.203386"><ele>18.4</ele><time>2026-04-04T09:24:44.258Z</time></trkpt><trkpt lat="41.4495096" lon="13.2034456"><ele>18.0</ele><time>2026-04-04T09:24:45.261Z</time></trkpt><trkpt lat="41.4495986" lon="13.2035269"><ele>17.75</ele><time>2026-04-04T09:24:46.261Z</time></trkpt><trkpt lat="41.4496891" lon="13.203622"><ele>17.5</ele><time>2026-04-04T09:24:47.258Z</time></trkpt><trkpt lat="41.4497823" lon="13.2037203"><ele>17.25</ele><time>2026-04-04T09:24:48.255Z</time></trkpt><trkpt lat="41.4498732" lon="13.2038308"><ele>17.0</ele><time>2026-04-04T09:24:49.254Z</time></trkpt><trkpt lat="41.4499601" lon="13.2039388"><ele>17.6</ele><time>2026-04-04T09:24:50.252Z</time></trkpt><trkpt lat="41.4500418" lon="13.204042"><ele>18.2</ele><time>2026-04-04T09:24:51.255Z</time></trkpt><trkpt lat="41.4501246" lon="13.204152"><ele>18.8</ele><time>2026-04-04T09:24:52.252Z</time></trkpt><trkpt lat="41.4502075" lon="13.2042495"><ele>19.4</ele><time>2026-04-04T09:24:53.259Z</time></trkpt><trkpt lat="41.4502868" lon="13.2043286"><ele>20.0</ele><time>2026-04-04T09:24:54.264Z</time></trkpt><trkpt lat="41.4503639" lon="13.2043958"><ele>20.0</ele><time>2026-04-04T09:24:55.264Z</time></trkpt><trkpt lat="41.4504385" lon="13.2044589"><ele>20.0</ele><time>2026-04-04T09:24:56.258Z</time></trkpt><trkpt lat="41.4505218" lon="13.2044947"><ele>20.0</ele><time>2026-04-04T09:24:57.256Z</time></trkpt><trkpt lat="41.4506099" lon="13.2045173"><ele>20.0</ele><time>2026-04-04T09:24:58.255Z</time></trkpt><trkpt lat="41.4506949" lon="13.2045595"><ele>20.0</ele><time>2026-04-04T09:24:59.256Z</time></trkpt><trkpt lat="41.4507904" lon="13.2046234"><ele>19.75</ele><time>2026-04-04T09:25:00.268Z</time></trkpt><trkpt lat="41.4508936" lon="13.2046897"><ele>19.5</ele><time>2026-04-04T09:25:01.251Z</time></trkpt><trkpt lat="41.4510076" lon="13.2047346"><ele>19.25</ele><time>2026-04-04T09:25:02.258Z</time></trkpt><trkpt lat="41.4511202" lon="13.2047446"><ele>19.0</ele><time>2026-04-04T09:25:03.257Z</time></trkpt><trkpt lat="41.4512303" lon="13.2047206"><ele>19.5</ele><time>2026-04-04T09:25:04.255Z</time></trkpt><trkpt lat="41.4513408" lon="13.2046752"><ele>20.0</ele><time>2026-04-04T09:25:05.269Z</time></trkpt><trkpt lat="41.4514517" lon="13.2046108"><ele>20.5</ele><time>2026-04-04T09:25:06.256Z</time></trkpt><trkpt lat="41.4515521" lon="13.2045369"><ele>21.0</ele><time>2026-04-04T09:25:07.257Z</time></trkpt><trkpt lat="41.4516416" lon="13.2044514"><ele>21.0</ele><time>2026-04-04T09:25:08.251Z</time></trkpt><trkpt lat="41.4517321" lon="13.2043699"><ele>21.0</ele><time>2026-04-04T09:25:09.26Z</time></trkpt><trkpt lat="41.451824" lon="13.2042973"><ele>21.0</ele><time>2026-04-04T09:25:10.257Z</time></trkpt><trkpt lat="41.4519148" lon="13.2042266"><ele>21.0</ele><time>2026-04-04T09:25:11.254Z</time></trkpt><trkpt lat="41.4520126" lon="13.2041691"><ele>21.0</ele><time>2026-04-04T09:25:12.253Z</time></trkpt><trkpt lat="41.4521192" lon="13.2041383"><ele>21.8</ele><time>2026-04-04T09:25:13.252Z</time></trkpt><trkpt lat="41.4522288" lon="13.2041217"><ele>22.6</ele><time>2026-04-04T09:25:14.253Z</time></trkpt><trkpt lat="41.4523414" lon="13.2041125"><ele>23.4</ele><time>2026-04-04T09:25:15.269Z</time></trkpt><trkpt lat="41.4524351" lon="13.2041128"><ele>24.2</ele><time>2026-04-04T09:25:16.253Z</time></trkpt><trkpt lat="41.452514" lon="13.2041248"><ele>25.0</ele><time>2026-04-04T09:25:17.257Z</time></trkpt><trkpt lat="41.4525783" lon="13.204145"><ele>25.0</ele><time>2026-04-04T09:25:18.259Z</time></trkpt><trkpt lat="41.4526928" lon="13.2041954"><ele>25.0</ele><time>2026-04-04T09:25:20.27Z</time></trkpt><trkpt lat="41.4527443" lon="13.2042441"><ele>25.0</ele><time>2026-04-04T09:25:21.248Z</time></trkpt><trkpt lat="41.4528433" lon="13.2043337"><ele>25.0</ele><time>2026-04-04T09:25:23.258Z</time></trkpt><trkpt lat="41.4529381" lon="13.2043929"><ele>25.0</ele><time>2026-04-04T09:25:25.262Z</time></trkpt><trkpt lat="41.4530238" lon="13.2044231"><ele>25.4</ele><time>2026-04-04T09:25:27.26Z</time></trkpt><trkpt lat="41.4531325" lon="13.204389"><ele>25.8</ele><time>2026-04-04T09:25:29.252Z</time></trkpt><trkpt lat="41.4532547" lon="13.2043383"><ele>26.200000000000003</ele><time>2026-04-04T09:25:31.253Z</time></trkpt><trkpt lat="41.453337" lon="13.2043062"><ele>26.6</ele><time>2026-04-04T09:25:32.257Z</time></trkpt><trkpt lat="41.453421" lon="13.204274"><ele>27.0</ele><time>2026-04-04T09:25:33.249Z</time></trkpt><trkpt lat="41.4535049" lon="13.2042422"><ele>27.0</ele><time>2026-04-04T09:25:34.25Z</time></trkpt><trkpt lat="41.4535856" lon="13.204217"><ele>27.000000000000004</ele><time>2026-04-04T09:25:35.255Z</time></trkpt><trkpt lat="41.4536575" lon="13.2041993"><ele>27.000000000000004</ele><time>2026-04-04T09:25:36.252Z</time></trkpt><trkpt lat="41.4537295" lon="13.2041899"><ele>27.0</ele><time>2026-04-04T09:25:37.256Z</time></trkpt><trkpt lat="41.4538497" lon="13.2042192"><ele>27.0</ele><time>2026-04-04T09:25:39.256Z</time></trkpt><trkpt lat="41.4539672" lon="13.2042853"><ele>26.333333333333332</ele><time>2026-04-04T09:25:41.25Z</time></trkpt><trkpt lat="41.4540271" lon="13.2043261"><ele>25.666666666666668</ele><time>2026-04-04T09:25:42.253Z</time></trkpt><trkpt lat="41.4540904" lon="13.2043703"><ele>25.0</ele><time>2026-04-04T09:25:43.253Z</time></trkpt><trkpt lat="41.4541504" lon="13.2044205"><ele>24.333333333333336</ele><time>2026-04-04T09:25:44.253Z</time></trkpt><trkpt lat="41.4542006" lon="13.2044742"><ele>23.666666666666668</ele><time>2026-04-04T09:25:45.255Z</time></trkpt><trkpt lat="41.4542976" lon="13.2045694"><ele>23.0</ele><time>2026-04-04T09:25:47.257Z</time></trkpt><trkpt lat="41.4543956" lon="13.2046514"><ele>23.0</ele><time>2026-04-04T09:25:49.26Z</time></trkpt><trkpt lat="41.4544741" lon="13.2047155"><ele>23.0</ele><time>2026-04-04T09:25:51.261Z</time></trkpt><trkpt lat="41.4545563" lon="13.2047859"><ele>23.0</ele><time>2026-04-04T09:25:53.255Z</time></trkpt><trkpt lat="41.4546179" lon="13.2048345"><ele>23.0</ele><time>2026-04-04T09:25:54.261Z</time></trkpt><trkpt lat="41.4546807" lon="13.2048865"><ele>23.0</ele><time>2026-04-04T09:25:55.268Z</time></trkpt><trkpt lat="41.4547504" lon="13.2049398"><ele>23.0</ele><time>2026-04-04T09:25:56.261Z</time></trkpt><trkpt lat="41.4548216" lon="13.2049897"><ele>22.2</ele><time>2026-04-04T09:25:57.257Z</time></trkpt><trkpt lat="41.4548924" lon="13.2050244"><ele>21.4</ele><time>2026-04-04T09:25:58.253Z</time></trkpt><trkpt lat="41.4549739" lon="13.2050506"><ele>20.599999999999998</ele><time>2026-04-04T09:25:59.256Z</time></trkpt><trkpt lat="41.4550702" lon="13.2050693"><ele>19.799999999999997</ele><time>2026-04-04T09:26:00.259Z</time></trkpt><trkpt lat="41.4551706" lon="13.2050803"><ele>19.0</ele><time>2026-04-04T09:26:01.261Z</time></trkpt><trkpt lat="41.4552849" lon="13.2050919"><ele>19.0</ele><time>2026-04-04T09:26:02.257Z</time></trkpt><trkpt lat="41.4554085" lon="13.205108"><ele>19.0</ele><time>2026-04-04T09:26:03.258Z</time></trkpt><trkpt lat="41.4555311" lon="13.2051227"><ele>19.0</ele><time>2026-04-04T09:26:04.257Z</time></trkpt><trkpt lat="41.4556449" lon="13.2051341"><ele>19.0</ele><time>2026-04-04T09:26:05.258Z</time></trkpt><trkpt lat="41.4557423" lon="13.205145"><ele>19.333333333333332</ele><time>2026-04-04T09:26:06.271Z</time></trkpt><trkpt lat="41.4558257" lon="13.2051505"><ele>19.666666666666664</ele><time>2026-04-04T09:26:07.255Z</time></trkpt><trkpt lat="41.4558945" lon="13.2051397"><ele>20.0</ele><time>2026-04-04T09:26:08.257Z</time></trkpt><trkpt lat="41.4559617" lon="13.2051287"><ele>20.333333333333332</ele><time>2026-04-04T09:26:09.259Z</time></trkpt><trkpt lat="41.4560321" lon="13.2050763"><ele>20.666666666666668</ele><time>2026-04-04T09:26:10.258Z</time></trkpt><trkpt lat="41.456115" lon="13.2050201"><ele>21.0</ele><time>2026-04-04T09:26:11.251Z</time></trkpt><trkpt lat="41.4562003" lon="13.2049724"><ele>21.0</ele><time>2026-04-04T09:26:12.258Z</time></trkpt><trkpt lat="41.4562822" lon="13.2049246"><ele>21.0</ele><time>2026-04-04T09:26:13.26Z</time></trkpt><trkpt lat="41.4563559" lon="13.2048726"><ele>21.0</ele><time>2026-04-04T09:26:14.257Z</time></trkpt><trkpt lat="41.4564143" lon="13.2048111"><ele>21.0</ele><time>2026-04-04T09:26:15.257Z</time></trkpt><trkpt lat="41.4564697" lon="13.2047516"><ele>21.0</ele><time>2026-04-04T09:26:16.254Z</time></trkpt><trkpt lat="41.4565338" lon="13.2046791"><ele>21.0</ele><time>2026-04-04T09:26:17.257Z</time></trkpt><trkpt lat="41.4565955" lon="13.2045924"><ele>21.166666666666668</ele><time>2026-04-04T09:26:18.249Z</time></trkpt><trkpt lat="41.4566586" lon="13.2045064"><ele>21.333333333333332</ele><time>2026-04-04T09:26:19.271Z</time></trkpt><trkpt lat="41.4567143" lon="13.2044157"><ele>21.5</ele><time>2026-04-04T09:26:20.258Z</time></trkpt><trkpt lat="41.45677" lon="13.2043246"><ele>21.666666666666664</ele><time>2026-04-04T09:26:21.253Z</time></trkpt><trkpt lat="41.4568182" lon="13.2042375"><ele>21.833333333333332</ele><time>2026-04-04T09:26:22.261Z</time></trkpt><trkpt lat="41.4568658" lon="13.2041496"><ele>22.0</ele><time>2026-04-04T09:26:23.254Z</time></trkpt><trkpt lat="41.4569019" lon="13.2040799"><ele>22.0</ele><time>2026-04-04T09:26:24.254Z</time></trkpt><trkpt lat="41.4569485" lon="13.2039881"><ele>22.0</ele><time>2026-04-04T09:26:25.255Z</time></trkpt><trkpt lat="41.4570038" lon="13.203901"><ele>22.0</ele><time>2026-04-04T09:26:26.253Z</time></trkpt><trkpt lat="41.4570533" lon="13.2038175"><ele>22.0</ele><time>2026-04-04T09:26:27.266Z</time></trkpt><trkpt lat="41.457102" lon="13.2037333"><ele>22.0</ele><time>2026-04-04T09:26:28.251Z</time></trkpt><trkpt lat="41.4571383" lon="13.2036522"><ele>22.0</ele><time>2026-04-04T09:26:29.255Z</time></trkpt><trkpt lat="41.4571745" lon="13.20358"><ele>22.0</ele><time>2026-04-04T09:26:30.254Z</time></trkpt><trkpt lat="41.4572115" lon="13.2035117"><ele>22.0</ele><time>2026-04-04T09:26:31.255Z</time></trkpt><trkpt lat="41.4572775" lon="13.2033874"><ele>22.0</ele><time>2026-04-04T09:26:33.256Z</time></trkpt><trkpt lat="41.457336" lon="13.2032732"><ele>22.0</ele><time>2026-04-04T09:26:35.257Z</time></trkpt><trkpt lat="41.4573886" lon="13.2031687"><ele>22.0</ele><time>2026-04-04T09:26:37.255Z</time></trkpt><trkpt lat="41.4574399" lon="13.2030621"><ele>22.0</ele><time>2026-04-04T09:26:39.259Z</time></trkpt><trkpt lat="41.4574947" lon="13.2029545"><ele>22.0</ele><time>2026-04-04T09:26:41.252Z</time></trkpt><trkpt lat="41.4575548" lon="13.2028405"><ele>22.0</ele><time>2026-04-04T09:26:43.248Z</time></trkpt><trkpt lat="41.4576177" lon="13.2027273"><ele>22.0</ele><time>2026-04-04T09:26:45.263Z</time></trkpt><trkpt lat="41.4576726" lon="13.2026231"><ele>22.0</ele><time>2026-04-04T09:26:47.258Z</time></trkpt><trkpt lat="41.4577318" lon="13.202503"><ele>22.0</ele><time>2026-04-04T09:26:49.26Z</time></trkpt><trkpt lat="41.4577933" lon="13.2023816"><ele>22.0</ele><time>2026-04-04T09:26:51.254Z</time></trkpt><trkpt lat="41.4578464" lon="13.2022819"><ele>22.0</ele><time>2026-04-04T09:26:53.253Z</time></trkpt><trkpt lat="41.4579123" lon="13.202163"><ele>22.0</ele><time>2026-04-04T09:26:55.253Z</time></trkpt><trkpt lat="41.4579749" lon="13.2020524"><ele>22.0</ele><time>2026-04-04T09:26:57.256Z</time></trkpt><trkpt lat="41.4580256" lon="13.2019543"><ele>22.200000000000003</ele><time>2026-04-04T09:26:59.259Z</time></trkpt><trkpt lat="41.4580812" lon="13.2018441"><ele>22.4</ele><time>2026-04-04T09:27:01.256Z</time></trkpt><trkpt lat="41.4581506" lon="13.2017248"><ele>22.6</ele><time>2026-04-04T09:27:03.258Z</time></trkpt><trkpt lat="41.4582137" lon="13.2016159"><ele>22.799999999999997</ele><time>2026-04-04T09:27:05.26Z</time></trkpt><trkpt lat="41.4582684" lon="13.2015234"><ele>23.0</ele><time>2026-04-04T09:27:07.252Z</time></trkpt><trkpt lat="41.4583199" lon="13.2014298"><ele>23.0</ele><time>2026-04-04T09:27:09.259Z</time></trkpt><trkpt lat="41.4583789" lon="13.2013278"><ele>23.0</ele><time>2026-04-04T09:27:11.254Z</time></trkpt><trkpt lat="41.4584395" lon="13.2012411"><ele>23.0</ele><time>2026-04-04T09:27:13.252Z</time></trkpt><trkpt lat="41.4584922" lon="13.2011777"><ele>23.0</ele><time>2026-04-04T09:27:15.28Z</time></trkpt><trkpt lat="41.4585425" lon="13.2011151"><ele>23.0</ele><time>2026-04-04T09:27:17.255Z</time></trkpt><trkpt lat="41.4586054" lon="13.2010448"><ele>23.0</ele><time>2026-04-04T09:27:19.257Z</time></trkpt><trkpt lat="41.4586685" lon="13.2009899"><ele>23.0</ele><time>2026-04-04T09:27:21.269Z</time></trkpt><trkpt lat="41.4587364" lon="13.2009296"><ele>23.0</ele><time>2026-04-04T09:27:23.251Z</time></trkpt><trkpt lat="41.4587986" lon="13.2008784"><ele>23.0</ele><time>2026-04-04T09:27:25.255Z</time></trkpt><trkpt lat="41.4588743" lon="13.2008304"><ele>23.0</ele><time>2026-04-04T09:27:28.275Z</time></trkpt><trkpt lat="41.4589567" lon="13.2008279"><ele>23.0</ele><time>2026-04-04T09:27:31.256Z</time></trkpt><trkpt lat="41.4590204" lon="13.2008326"><ele>23.0</ele><time>2026-04-04T09:27:33.252Z</time></trkpt><trkpt lat="41.4590806" lon="13.2008066"><ele>23.0</ele><time>2026-04-04T09:27:35.254Z</time></trkpt><trkpt lat="41.4591679" lon="13.2007711"><ele>22.833333333333336</ele><time>2026-04-04T09:27:38.263Z</time></trkpt><trkpt lat="41.4592539" lon="13.2007384"><ele>22.666666666666668</ele><time>2026-04-04T09:27:41.254Z</time></trkpt><trkpt lat="41.4593264" lon="13.2007147"><ele>22.5</ele><time>2026-04-04T09:27:45.252Z</time></trkpt><trkpt lat="41.4593959" lon="13.2007648"><ele>22.333333333333332</ele><time>2026-04-04T09:27:49.253Z</time></trkpt><trkpt lat="41.4594633" lon="13.2007903"><ele>22.166666666666664</ele><time>2026-04-04T09:27:52.263Z</time></trkpt><trkpt lat="41.4594981" lon="13.2006517"><ele>22.0</ele><time>2026-04-04T09:27:55.26Z</time></trkpt><trkpt lat="41.4594954" lon="13.2005521"><ele>22.0</ele><time>2026-04-04T09:27:56.265Z</time></trkpt><trkpt lat="41.4594895" lon="13.200449"><ele>22.0</ele><time>2026-04-04T09:27:57.278Z</time></trkpt><trkpt lat="41.4594748" lon="13.2003216"><ele>22.0</ele><time>2026-04-04T09:27:58.262Z</time></trkpt><trkpt lat="41.4594568" lon="13.2001837"><ele>22.0</ele><time>2026-04-04T09:27:59.253Z</time></trkpt><trkpt lat="41.4594437" lon="13.2000683"><ele>22.0</ele><time>2026-04-04T09:28:00.258Z</time></trkpt><trkpt lat="41.4594303" lon="13.1999701"><ele>22.0</ele><time>2026-04-04T09:28:01.251Z</time></trkpt><trkpt lat="41.4594605" lon="13.1998788"><ele>22.0</ele><time>2026-04-04T09:28:03.258Z</time></trkpt><trkpt lat="41.4595358" lon="13.1998652"><ele>22.0</ele><time>2026-04-04T09:28:05.264Z</time></trkpt><trkpt lat="41.459607" lon="13.19987"><ele>22.0</ele><time>2026-04-04T09:28:06.26Z</time></trkpt><trkpt lat="41.4596897" lon="13.1998631"><ele>22.0</ele><time>2026-04-04T09:28:07.256Z</time></trkpt><trkpt lat="41.4597839" lon="13.1998441"><ele>22.0</ele><time>2026-04-04T09:28:08.256Z</time></trkpt><trkpt lat="41.4598725" lon="13.1998268"><ele>22.0</ele><time>2026-04-04T09:28:09.255Z</time></trkpt><trkpt lat="41.4599624" lon="13.1998081"><ele>22.0</ele><time>2026-04-04T09:28:10.266Z</time></trkpt><trkpt lat="41.4600546" lon="13.1997912"><ele>22.0</ele><time>2026-04-04T09:28:11.253Z</time></trkpt><trkpt lat="41.460145" lon="13.1997741"><ele>22.0</ele><time>2026-04-04T09:28:12.272Z</time></trkpt><trkpt lat="41.4602245" lon="13.1997557"><ele>22.0</ele><time>2026-04-04T09:28:13.263Z</time></trkpt><trkpt lat="41.4602952" lon="13.1997415"><ele>22.0</ele><time>2026-04-04T09:28:14.257Z</time></trkpt><trkpt lat="41.4603617" lon="13.1997295"><ele>22.0</ele><time>2026-04-04T09:28:15.26Z</time></trkpt><trkpt lat="41.4604841" lon="13.1997045"><ele>22.200000000000003</ele><time>2026-04-04T09:28:17.271Z</time></trkpt><trkpt lat="41.4606111" lon="13.1996758"><ele>22.4</ele><time>2026-04-04T09:28:19.262Z</time></trkpt><trkpt lat="41.4606873" lon="13.1996585"><ele>22.6</ele><time>2026-04-04T09:28:20.256Z</time></trkpt><trkpt lat="41.4607727" lon="13.1996405"><ele>22.799999999999997</ele><time>2026-04-04T09:28:21.253Z</time></trkpt><trkpt lat="41.4608713" lon="13.1996207"><ele>23.0</ele><time>2026-04-04T09:28:22.254Z</time></trkpt><trkpt lat="41.4609735" lon="13.1995971"><ele>23.0</ele><time>2026-04-04T09:28:23.256Z</time></trkpt><trkpt lat="41.4610754" lon="13.199565"><ele>23.0</ele><time>2026-04-04T09:28:24.256Z</time></trkpt><trkpt lat="41.4611841" lon="13.1995149"><ele>23.0</ele><time>2026-04-04T09:28:25.257Z</time></trkpt><trkpt lat="41.4613023" lon="13.1994446"><ele>23.0</ele><time>2026-04-04T09:28:26.27Z</time></trkpt><trkpt lat="41.4614187" lon="13.199358"><ele>22.75</ele><time>2026-04-04T09:28:27.259Z</time></trkpt><trkpt lat="41.4615333" lon="13.1992531"><ele>22.5</ele><time>2026-04-04T09:28:28.254Z</time></trkpt><trkpt lat="41.4616428" lon="13.199129"><ele>22.25</ele><time>2026-04-04T09:28:29.257Z</time></trkpt><trkpt lat="41.4617439" lon="13.1989894"><ele>22.0</ele><time>2026-04-04T09:28:30.252Z</time></trkpt><trkpt lat="41.4618452" lon="13.198834"><ele>22.333333333333332</ele><time>2026-04-04T09:28:31.267Z</time></trkpt><trkpt lat="41.4619469" lon="13.1986738"><ele>22.666666666666668</ele><time>2026-04-04T09:28:32.263Z</time></trkpt><trkpt lat="41.4620491" lon="13.1985134"><ele>23.0</ele><time>2026-04-04T09:28:33.263Z</time></trkpt><trkpt lat="41.4621516" lon="13.1983499"><ele>23.0</ele><time>2026-04-04T09:28:34.262Z</time></trkpt><trkpt lat="41.4622569" lon="13.1981849"><ele>23.0</ele><time>2026-04-04T09:28:35.257Z</time></trkpt><trkpt lat="41.4623683" lon="13.1980163"><ele>23.0</ele><time>2026-04-04T09:28:36.258Z</time></trkpt><trkpt lat="41.4624736" lon="13.1978571"><ele>23.0</ele><time>2026-04-04T09:28:37.256Z</time></trkpt><trkpt lat="41.4625698" lon="13.1977075"><ele>23.0</ele><time>2026-04-04T09:28:38.261Z</time></trkpt><trkpt lat="41.4626662" lon="13.1975585"><ele>23.0</ele><time>2026-04-04T09:28:39.264Z</time></trkpt><trkpt lat="41.4627657" lon="13.1974049"><ele>23.0</ele><time>2026-04-04T09:28:40.261Z</time></trkpt><trkpt lat="41.4628659" lon="13.197252"><ele>23.25</ele><time>2026-04-04T09:28:41.268Z</time></trkpt><trkpt lat="41.4629625" lon="13.1971017"><ele>23.5</ele><time>2026-04-04T09:28:42.263Z</time></trkpt><trkpt lat="41.4630573" lon="13.1969559"><ele>23.75</ele><time>2026-04-04T09:28:43.261Z</time></trkpt><trkpt lat="41.4631517" lon="13.1968105"><ele>24.0</ele><time>2026-04-04T09:28:44.263Z</time></trkpt><trkpt lat="41.4632472" lon="13.1966708"><ele>24.0</ele><time>2026-04-04T09:28:45.256Z</time></trkpt><trkpt lat="41.4633472" lon="13.1965349"><ele>24.0</ele><time>2026-04-04T09:28:46.275Z</time></trkpt><trkpt lat="41.4634486" lon="13.1964081"><ele>24.0</ele><time>2026-04-04T09:28:47.263Z</time></trkpt><trkpt lat="41.4635654" lon="13.1962824"><ele>24.0</ele><time>2026-04-04T09:28:48.252Z</time></trkpt><trkpt lat="41.463697" lon="13.1961834"><ele>23.75</ele><time>2026-04-04T09:28:49.262Z</time></trkpt><trkpt lat="41.4638228" lon="13.1960851"><ele>23.5</ele><time>2026-04-04T09:28:50.256Z</time></trkpt><trkpt lat="41.4639554" lon="13.1960008"><ele>23.25</ele><time>2026-04-04T09:28:51.275Z</time></trkpt><trkpt lat="41.4640912" lon="13.1959328"><ele>23.0</ele><time>2026-04-04T09:28:52.256Z</time></trkpt><trkpt lat="41.4642347" lon="13.1958827"><ele>23.0</ele><time>2026-04-04T09:28:53.264Z</time></trkpt><trkpt lat="41.4643808" lon="13.1958529"><ele>23.0</ele><time>2026-04-04T09:28:54.253Z</time></trkpt><trkpt lat="41.464528" lon="13.1958438"><ele>23.0</ele><time>2026-04-04T09:28:55.26Z</time></trkpt><trkpt lat="41.4646844" lon="13.1958499"><ele>22.75</ele><time>2026-04-04T09:28:56.264Z</time></trkpt><trkpt lat="41.4648417" lon="13.1958738"><ele>22.5</ele><time>2026-04-04T09:28:57.279Z</time></trkpt><trkpt lat="41.4649933" lon="13.195912"><ele>22.25</ele><time>2026-04-04T09:28:58.26Z</time></trkpt><trkpt lat="41.4651205" lon="13.1959589"><ele>22.0</ele><time>2026-04-04T09:28:59.26Z</time></trkpt><trkpt lat="41.4652163" lon="13.1960065"><ele>22.0</ele><time>2026-04-04T09:29:00.263Z</time></trkpt><trkpt lat="41.4653031" lon="13.196053"><ele>22.0</ele><time>2026-04-04T09:29:01.256Z</time></trkpt><trkpt lat="41.4653771" lon="13.1960936"><ele>22.0</ele><time>2026-04-04T09:29:02.267Z</time></trkpt><trkpt lat="41.4654379" lon="13.1961335"><ele>22.0</ele><time>2026-04-04T09:29:03.253Z</time></trkpt><trkpt lat="41.4655309" lon="13.1962027"><ele>22.0</ele><time>2026-04-04T09:29:05.26Z</time></trkpt><trkpt lat="41.4656398" lon="13.196285"><ele>22.400000000000002</ele><time>2026-04-04T09:29:07.261Z</time></trkpt><trkpt lat="41.4657226" lon="13.1963341"><ele>22.8</ele><time>2026-04-04T09:29:08.253Z</time></trkpt><trkpt lat="41.4658169" lon="13.1963862"><ele>23.2</ele><time>2026-04-04T09:29:09.272Z</time></trkpt><trkpt lat="41.4659236" lon="13.1964443"><ele>23.6</ele><time>2026-04-04T09:29:10.257Z</time></trkpt><trkpt lat="41.4660355" lon="13.1965175"><ele>24.0</ele><time>2026-04-04T09:29:11.256Z</time></trkpt><trkpt lat="41.4661461" lon="13.1965819"><ele>24.0</ele><time>2026-04-04T09:29:12.258Z</time></trkpt><trkpt lat="41.4662637" lon="13.1966489"><ele>24.0</ele><time>2026-04-04T09:29:13.265Z</time></trkpt><trkpt lat="41.4663826" lon="13.196701"><ele>24.0</ele><time>2026-04-04T09:29:14.254Z</time></trkpt><trkpt lat="41.4664995" lon="13.1967497"><ele>24.0</ele><time>2026-04-04T09:29:15.247Z</time></trkpt><trkpt lat="41.4666213" lon="13.1967939"><ele>24.0</ele><time>2026-04-04T09:29:16.255Z</time></trkpt><trkpt lat="41.4667421" lon="13.1968304"><ele>24.0</ele><time>2026-04-04T09:29:17.251Z</time></trkpt><trkpt lat="41.4668372" lon="13.1968405"><ele>24.0</ele><time>2026-04-04T09:29:18.268Z</time></trkpt><trkpt lat="41.4669246" lon="13.1968333"><ele>24.0</ele><time>2026-04-04T09:29:19.252Z</time></trkpt><trkpt lat="41.4670096" lon="13.1968201"><ele>24.0</ele><time>2026-04-04T09:29:20.257Z</time></trkpt><trkpt lat="41.4670806" lon="13.19681"><ele>24.166666666666668</ele><time>2026-04-04T09:29:21.256Z</time></trkpt><trkpt lat="41.4671914" lon="13.1967966"><ele>24.333333333333336</ele><time>2026-04-04T09:29:23.275Z</time></trkpt><trkpt lat="41.4672806" lon="13.1967765"><ele>24.5</ele><time>2026-04-04T09:29:25.258Z</time></trkpt><trkpt lat="41.4673558" lon="13.1967764"><ele>24.666666666666668</ele><time>2026-04-04T09:29:27.255Z</time></trkpt><trkpt lat="41.4674261" lon="13.1967863"><ele>24.833333333333336</ele><time>2026-04-04T09:29:29.256Z</time></trkpt><trkpt lat="41.4675174" lon="13.1967777"><ele>25.0</ele><time>2026-04-04T09:29:32.258Z</time></trkpt><trkpt lat="41.4675897" lon="13.1967715"><ele>25.000000000000004</ele><time>2026-04-04T09:29:34.259Z</time></trkpt><trkpt lat="41.4676888" lon="13.1967667"><ele>25.0</ele><time>2026-04-04T09:29:36.253Z</time></trkpt><trkpt lat="41.4677572" lon="13.196767"><ele>25.0</ele><time>2026-04-04T09:29:37.252Z</time></trkpt><trkpt lat="41.4678316" lon="13.1967602"><ele>25.0</ele><time>2026-04-04T09:29:38.28Z</time></trkpt><trkpt lat="41.4679185" lon="13.1967455"><ele>25.000000000000004</ele><time>2026-04-04T09:29:39.26Z</time></trkpt><trkpt lat="41.4680227" lon="13.1967321"><ele>25.0</ele><time>2026-04-04T09:29:40.259Z</time></trkpt><trkpt lat="41.4681394" lon="13.1967114"><ele>24.75</ele><time>2026-04-04T09:29:41.261Z</time></trkpt><trkpt lat="41.4682535" lon="13.1966958"><ele>24.5</ele><time>2026-04-04T09:29:42.256Z</time></trkpt><trkpt lat="41.4683693" lon="13.1966899"><ele>24.25</ele><time>2026-04-04T09:29:43.263Z</time></trkpt><trkpt lat="41.4684903" lon="13.196674"><ele>24.0</ele><time>2026-04-04T09:29:44.273Z</time></trkpt><trkpt lat="41.468611" lon="13.1966672"><ele>24.0</ele><time>2026-04-04T09:29:45.263Z</time></trkpt><trkpt lat="41.4687376" lon="13.1966543"><ele>24.0</ele><time>2026-04-04T09:29:46.256Z</time></trkpt><trkpt lat="41.4688634" lon="13.1966395"><ele>24.0</ele><time>2026-04-04T09:29:47.257Z</time></trkpt><trkpt lat="41.468997" lon="13.1966272"><ele>24.0</ele><time>2026-04-04T09:29:48.265Z</time></trkpt><trkpt lat="41.469135" lon="13.1966124"><ele>23.666666666666668</ele><time>2026-04-04T09:29:49.257Z</time></trkpt><trkpt lat="41.4692784" lon="13.1965954"><ele>23.333333333333336</ele><time>2026-04-04T09:29:50.271Z</time></trkpt><trkpt lat="41.4694306" lon="13.1965772"><ele>23.0</ele><time>2026-04-04T09:29:51.258Z</time></trkpt><trkpt lat="41.4695966" lon="13.1965583"><ele>23.666666666666668</ele><time>2026-04-04T09:29:52.258Z</time></trkpt><trkpt lat="41.4697627" lon="13.1965358"><ele>24.333333333333336</ele><time>2026-04-04T09:29:53.253Z</time></trkpt><trkpt lat="41.4699122" lon="13.1965169"><ele>25.0</ele><time>2026-04-04T09:29:54.257Z</time></trkpt><trkpt lat="41.4700491" lon="13.1964991"><ele>25.4</ele><time>2026-04-04T09:29:55.263Z</time></trkpt><trkpt lat="41.4701796" lon="13.1964851"><ele>25.8</ele><time>2026-04-04T09:29:56.255Z</time></trkpt><trkpt lat="41.4702964" lon="13.1964722"><ele>26.200000000000003</ele><time>2026-04-04T09:29:57.258Z</time></trkpt><trkpt lat="41.4704021" lon="13.1964613"><ele>26.6</ele><time>2026-04-04T09:29:58.27Z</time></trkpt><trkpt lat="41.4704957" lon="13.1964511"><ele>27.0</ele><time>2026-04-04T09:29:59.257Z</time></trkpt><trkpt lat="41.4705806" lon="13.1964408"><ele>27.0</ele><time>2026-04-04T09:30:00.255Z</time></trkpt><trkpt lat="41.4706471" lon="13.196437"><ele>27.0</ele><time>2026-04-04T09:30:01.256Z</time></trkpt><trkpt lat="41.4707289" lon="13.1964748"><ele>27.0</ele><time>2026-04-04T09:30:03.255Z</time></trkpt><trkpt lat="41.4707666" lon="13.196567"><ele>27.0</ele><time>2026-04-04T09:30:05.266Z</time></trkpt><trkpt lat="41.470765" lon="13.1967298"><ele>27.0</ele><time>2026-04-04T09:30:07.257Z</time></trkpt><trkpt lat="41.4707602" lon="13.1968519"><ele>27.0</ele><time>2026-04-04T09:30:09.252Z</time></trkpt><trkpt lat="41.4707721" lon="13.1969952"><ele>26.6</ele><time>2026-04-04T09:37:55.265Z</time></trkpt><trkpt lat="41.4708031" lon="13.1971166"><ele>26.200000000000003</ele><time>2026-04-04T09:37:57.263Z</time></trkpt><trkpt lat="41.4708634" lon="13.1971657"><ele>25.8</ele><time>2026-04-04T09:37:59.254Z</time></trkpt><trkpt lat="41.4709827" lon="13.1971649"><ele>25.4</ele><time>2026-04-04T09:38:01.259Z</time></trkpt><trkpt lat="41.4710624" lon="13.1971644"><ele>25.0</ele><time>2026-04-04T09:38:02.262Z</time></trkpt><trkpt lat="41.4711479" lon="13.1971645"><ele>25.0</ele><time>2026-04-04T09:38:03.253Z</time></trkpt><trkpt lat="41.4712434" lon="13.1971598"><ele>25.0</ele><time>2026-04-04T09:38:04.257Z</time></trkpt><trkpt lat="41.4713418" lon="13.1971587"><ele>25.0</ele><time>2026-04-04T09:38:05.25Z</time></trkpt><trkpt lat="41.4714512" lon="13.1971534"><ele>25.0</ele><time>2026-04-04T09:38:06.256Z</time></trkpt><trkpt lat="41.4715625" lon="13.197134"><ele>25.0</ele><time>2026-04-04T09:38:07.252Z</time></trkpt><trkpt lat="41.4716763" lon="13.1971207"><ele>25.0</ele><time>2026-04-04T09:38:08.249Z</time></trkpt><trkpt lat="41.4717884" lon="13.1971087"><ele>25.0</ele><time>2026-04-04T09:38:09.254Z</time></trkpt><trkpt lat="41.4718922" lon="13.19711"><ele>25.0</ele><time>2026-04-04T09:38:10.261Z</time></trkpt><trkpt lat="41.4719977" lon="13.1971068"><ele>25.0</ele><time>2026-04-04T09:38:11.256Z</time></trkpt><trkpt lat="41.4721131" lon="13.1971022"><ele>25.0</ele><time>2026-04-04T09:38:12.269Z</time></trkpt><trkpt lat="41.4722354" lon="13.1970869"><ele>25.25</ele><time>2026-04-04T09:38:13.252Z</time></trkpt><trkpt lat="41.47236" lon="13.1970717"><ele>25.5</ele><time>2026-04-04T09:38:14.26Z</time></trkpt><trkpt lat="41.4724828" lon="13.1970558"><ele>25.75</ele><time>2026-04-04T09:38:15.261Z</time></trkpt><trkpt lat="41.4726038" lon="13.1970421"><ele>26.0</ele><time>2026-04-04T09:38:16.262Z</time></trkpt><trkpt lat="41.4727281" lon="13.1970264"><ele>26.0</ele><time>2026-04-04T09:38:17.284Z</time></trkpt><trkpt lat="41.4728537" lon="13.1970075"><ele>26.0</ele><time>2026-04-04T09:38:18.258Z</time></trkpt><trkpt lat="41.4729792" lon="13.1969958"><ele>26.0</ele><time>2026-04-04T09:38:19.273Z</time></trkpt><trkpt lat="41.4731045" lon="13.1969829"><ele>26.0</ele><time>2026-04-04T09:38:20.255Z</time></trkpt><trkpt lat="41.4732248" lon="13.1969613"><ele>26.0</ele><time>2026-04-04T09:38:21.261Z</time></trkpt><trkpt lat="41.473342" lon="13.1969404"><ele>26.0</ele><time>2026-04-04T09:38:22.26Z</time></trkpt><trkpt lat="41.4734609" lon="13.1969175"><ele>26.0</ele><time>2026-04-04T09:38:23.255Z</time></trkpt><trkpt lat="41.4735761" lon="13.1968886"><ele>26.0</ele><time>2026-04-04T09:38:24.255Z</time></trkpt><trkpt lat="41.4736896" lon="13.196831"><ele>26.25</ele><time>2026-04-04T09:38:25.273Z</time></trkpt><trkpt lat="41.4738027" lon="13.1967718"><ele>26.5</ele><time>2026-04-04T09:38:26.26Z</time></trkpt><trkpt lat="41.4739093" lon="13.1966948"><ele>26.75</ele><time>2026-04-04T09:38:27.263Z</time></trkpt><trkpt lat="41.4740168" lon="13.1966002"><ele>27.0</ele><time>2026-04-04T09:38:28.257Z</time></trkpt><trkpt lat="41.4741241" lon="13.1965045"><ele>26.5</ele><time>2026-04-04T09:38:29.254Z</time></trkpt><trkpt lat="41.4742215" lon="13.1964007"><ele>26.0</ele><time>2026-04-04T09:38:30.257Z</time></trkpt><trkpt lat="41.474323" lon="13.1962944"><ele>25.5</ele><time>2026-04-04T09:38:31.263Z</time></trkpt><trkpt lat="41.4744302" lon="13.1961791"><ele>25.0</ele><time>2026-04-04T09:38:32.265Z</time></trkpt><trkpt lat="41.4745295" lon="13.1960572"><ele>25.25</ele><time>2026-04-04T09:38:33.272Z</time></trkpt><trkpt lat="41.474629" lon="13.1959407"><ele>25.5</ele><time>2026-04-04T09:38:34.255Z</time></trkpt><trkpt lat="41.4747298" lon="13.1958214"><ele>25.75</ele><time>2026-04-04T09:38:35.258Z</time></trkpt><trkpt lat="41.4748244" lon="13.1957085"><ele>26.0</ele><time>2026-04-04T09:38:36.259Z</time></trkpt><trkpt lat="41.4749225" lon="13.1955934"><ele>26.0</ele><time>2026-04-04T09:38:37.25Z</time></trkpt><trkpt lat="41.4750154" lon="13.1954863"><ele>26.0</ele><time>2026-04-04T09:38:38.253Z</time></trkpt><trkpt lat="41.4751078" lon="13.1953807"><ele>26.0</ele><time>2026-04-04T09:38:39.256Z</time></trkpt><trkpt lat="41.4751957" lon="13.1952796"><ele>26.0</ele><time>2026-04-04T09:38:40.261Z</time></trkpt><trkpt lat="41.4752811" lon="13.1951835"><ele>26.0</ele><time>2026-04-04T09:38:41.259Z</time></trkpt><trkpt lat="41.4753808" lon="13.1950943"><ele>26.0</ele><time>2026-04-04T09:38:42.262Z</time></trkpt><trkpt lat="41.4754947" lon="13.1950218"><ele>26.0</ele><time>2026-04-04T09:38:43.254Z</time></trkpt><trkpt lat="41.4756194" lon="13.194961"><ele>26.0</ele><time>2026-04-04T09:38:44.253Z</time></trkpt><trkpt lat="41.4757509" lon="13.1949003"><ele>26.666666666666664</ele><time>2026-04-04T09:38:45.257Z</time></trkpt><trkpt lat="41.4758878" lon="13.1948448"><ele>27.333333333333336</ele><time>2026-04-04T09:38:46.253Z</time></trkpt><trkpt lat="41.4760351" lon="13.1947826"><ele>28.0</ele><time>2026-04-04T09:38:47.253Z</time></trkpt><trkpt lat="41.4761896" lon="13.194706"><ele>28.333333333333336</ele><time>2026-04-04T09:38:48.263Z</time></trkpt><trkpt lat="41.4763365" lon="13.1946318"><ele>28.666666666666664</ele><time>2026-04-04T09:38:49.254Z</time></trkpt><trkpt lat="41.4764925" lon="13.1945725"><ele>29.0</ele><time>2026-04-04T09:38:50.25Z</time></trkpt><trkpt lat="41.4766602" lon="13.194532"><ele>29.0</ele><time>2026-04-04T09:38:51.253Z</time></trkpt><trkpt lat="41.4768265" lon="13.1945109"><ele>29.0</ele><time>2026-04-04T09:38:52.26Z</time></trkpt><trkpt lat="41.4769907" lon="13.1944988"><ele>29.0</ele><time>2026-04-04T09:38:53.263Z</time></trkpt><trkpt lat="41.4771539" lon="13.1945087"><ele>28.333333333333332</ele><time>2026-04-04T09:38:54.26Z</time></trkpt><trkpt lat="41.4773042" lon="13.1945311"><ele>27.666666666666664</ele><time>2026-04-04T09:38:55.268Z</time></trkpt><trkpt lat="41.4774486" lon="13.1945762"><ele>27.0</ele><time>2026-04-04T09:38:56.256Z</time></trkpt><trkpt lat="41.4775896" lon="13.1946495"><ele>27.0</ele><time>2026-04-04T09:38:57.26Z</time></trkpt><trkpt lat="41.4777257" lon="13.1947378"><ele>27.0</ele><time>2026-04-04T09:38:58.26Z</time></trkpt><trkpt lat="41.4778488" lon="13.194826"><ele>27.0</ele><time>2026-04-04T09:38:59.255Z</time></trkpt><trkpt lat="41.4779525" lon="13.1949258"><ele>27.0</ele><time>2026-04-04T09:39:00.262Z</time></trkpt><trkpt lat="41.4780478" lon="13.195036"><ele>26.75</ele><time>2026-04-04T09:39:01.26Z</time></trkpt><trkpt lat="41.4781442" lon="13.1951533"><ele>26.5</ele><time>2026-04-04T09:39:02.273Z</time></trkpt><trkpt lat="41.478231" lon="13.1952698"><ele>26.25</ele><time>2026-04-04T09:39:03.252Z</time></trkpt><trkpt lat="41.4782988" lon="13.1954008"><ele>26.0</ele><time>2026-04-04T09:39:04.257Z</time></trkpt><trkpt lat="41.4783633" lon="13.1955566"><ele>26.25</ele><time>2026-04-04T09:39:05.262Z</time></trkpt><trkpt lat="41.4784325" lon="13.1957239"><ele>26.5</ele><time>2026-04-04T09:39:06.258Z</time></trkpt><trkpt lat="41.4785027" lon="13.1958879"><ele>26.75</ele><time>2026-04-04T09:39:07.273Z</time></trkpt><trkpt lat="41.478552" lon="13.1960647"><ele>27.0</ele><time>2026-04-04T09:39:08.259Z</time></trkpt><trkpt lat="41.4786098" lon="13.1962374"><ele>27.0</ele><time>2026-04-04T09:39:09.257Z</time></trkpt><trkpt lat="41.478683" lon="13.1964081"><ele>27.0</ele><time>2026-04-04T09:39:10.26Z</time></trkpt><trkpt lat="41.4787587" lon="13.1965809"><ele>27.0</ele><time>2026-04-04T09:39:11.261Z</time></trkpt><trkpt lat="41.4788407" lon="13.1967443"><ele>27.0</ele><time>2026-04-04T09:39:12.258Z</time></trkpt><trkpt lat="41.4789288" lon="13.1969075"><ele>27.0</ele><time>2026-04-04T09:39:13.252Z</time></trkpt><trkpt lat="41.4790223" lon="13.1970636"><ele>27.0</ele><time>2026-04-04T09:39:14.256Z</time></trkpt><trkpt lat="41.4791366" lon="13.1972015"><ele>27.0</ele><time>2026-04-04T09:39:15.256Z</time></trkpt><trkpt lat="41.4792633" lon="13.1973238"><ele>27.0</ele><time>2026-04-04T09:39:16.269Z</time></trkpt><trkpt lat="41.4794031" lon="13.1974199"><ele>27.0</ele><time>2026-04-04T09:39:17.267Z</time></trkpt><trkpt lat="41.4795474" lon="13.1974905"><ele>27.0</ele><time>2026-04-04T09:39:18.251Z</time></trkpt><trkpt lat="41.4797041" lon="13.1975484"><ele>26.75</ele><time>2026-04-04T09:39:19.259Z</time></trkpt><trkpt lat="41.4798574" lon="13.1975977"><ele>26.5</ele><time>2026-04-04T09:39:20.262Z</time></trkpt><trkpt lat="41.4800008" lon="13.1976381"><ele>26.25</ele><time>2026-04-04T09:39:21.247Z</time></trkpt><trkpt lat="41.4801228" lon="13.1976739"><ele>26.0</ele><time>2026-04-04T09:39:22.269Z</time></trkpt><trkpt lat="41.4802371" lon="13.1977126"><ele>26.0</ele><time>2026-04-04T09:39:23.251Z</time></trkpt><trkpt lat="41.4803496" lon="13.1977584"><ele>26.0</ele><time>2026-04-04T09:39:24.264Z</time></trkpt><trkpt lat="41.4804586" lon="13.1978302"><ele>26.0</ele><time>2026-04-04T09:39:25.255Z</time></trkpt><trkpt lat="41.4805568" lon="13.1979369"><ele>26.0</ele><time>2026-04-04T09:39:26.255Z</time></trkpt><trkpt lat="41.4806474" lon="13.19806"><ele>26.5</ele><time>2026-04-04T09:39:27.252Z</time></trkpt><trkpt lat="41.4807282" lon="13.1982017"><ele>27.0</ele><time>2026-04-04T09:39:28.255Z</time></trkpt><trkpt lat="41.4808075" lon="13.1983527"><ele>27.5</ele><time>2026-04-04T09:39:29.259Z</time></trkpt><trkpt lat="41.4808782" lon="13.1984936"><ele>28.0</ele><time>2026-04-04T09:39:30.255Z</time></trkpt><trkpt lat="41.4809385" lon="13.1986286"><ele>28.0</ele><time>2026-04-04T09:39:31.275Z</time></trkpt><trkpt lat="41.4809874" lon="13.1987623"><ele>28.0</ele><time>2026-04-04T09:39:32.256Z</time></trkpt><trkpt lat="41.4810064" lon="13.1989073"><ele>28.0</ele><time>2026-04-04T09:39:33.253Z</time></trkpt><trkpt lat="41.4810502" lon="13.1990622"><ele>28.0</ele><time>2026-04-04T09:39:34.257Z</time></trkpt><trkpt lat="41.4811003" lon="13.1992109"><ele>28.0</ele><time>2026-04-04T09:39:35.255Z</time></trkpt><trkpt lat="41.4811821" lon="13.1993528"><ele>28.0</ele><time>2026-04-04T09:39:36.271Z</time></trkpt><trkpt lat="41.4812583" lon="13.199513"><ele>28.0</ele><time>2026-04-04T09:39:37.249Z</time></trkpt><trkpt lat="41.4813276" lon="13.1996743"><ele>28.0</ele><time>2026-04-04T09:39:38.254Z</time></trkpt><trkpt lat="41.4813893" lon="13.199818"><ele>28.25</ele><time>2026-04-04T09:39:39.256Z</time></trkpt><trkpt lat="41.4814806" lon="13.1999294"><ele>28.5</ele><time>2026-04-04T09:39:40.256Z</time></trkpt><trkpt lat="41.4815677" lon="13.2000571"><ele>28.75</ele><time>2026-04-04T09:39:41.257Z</time></trkpt><trkpt lat="41.4816669" lon="13.2001842"><ele>29.0</ele><time>2026-04-04T09:39:42.256Z</time></trkpt><trkpt lat="41.4817733" lon="13.2002921"><ele>29.0</ele><time>2026-04-04T09:39:43.269Z</time></trkpt><trkpt lat="41.4818892" lon="13.2003834"><ele>29.0</ele><time>2026-04-04T09:39:44.256Z</time></trkpt><trkpt lat="41.4820159" lon="13.2004586"><ele>29.0</ele><time>2026-04-04T09:39:45.258Z</time></trkpt><trkpt lat="41.4821458" lon="13.2005256"><ele>29.0</ele><time>2026-04-04T09:39:46.254Z</time></trkpt><trkpt lat="41.4822838" lon="13.2005938"><ele>28.75</ele><time>2026-04-04T09:39:47.259Z</time></trkpt><trkpt lat="41.4824226" lon="13.2006614"><ele>28.5</ele><time>2026-04-04T09:39:48.265Z</time></trkpt><trkpt lat="41.4825591" lon="13.200731"><ele>28.25</ele><time>2026-04-04T09:39:49.257Z</time></trkpt><trkpt lat="41.4826944" lon="13.2008043"><ele>28.0</ele><time>2026-04-04T09:39:50.27Z</time></trkpt><trkpt lat="41.4828309" lon="13.2008799"><ele>28.0</ele><time>2026-04-04T09:39:51.251Z</time></trkpt><trkpt lat="41.4829643" lon="13.2009577"><ele>28.0</ele><time>2026-04-04T09:39:52.253Z</time></trkpt><trkpt lat="41.483094" lon="13.2010353"><ele>28.0</ele><time>2026-04-04T09:39:53.263Z</time></trkpt><trkpt lat="41.4832214" lon="13.2011063"><ele>28.0</ele><time>2026-04-04T09:39:54.253Z</time></trkpt><trkpt lat="41.4833465" lon="13.2011763"><ele>28.0</ele><time>2026-04-04T09:39:55.256Z</time></trkpt><trkpt lat="41.4834624" lon="13.2012441"><ele>27.999999999999996</ele><time>2026-04-04T09:39:56.255Z</time></trkpt><trkpt lat="41.4835545" lon="13.2013108"><ele>27.999999999999996</ele><time>2026-04-04T09:39:57.253Z</time></trkpt><trkpt lat="41.4836351" lon="13.2013821"><ele>28.0</ele><time>2026-04-04T09:39:58.263Z</time></trkpt><trkpt lat="41.4837038" lon="13.2014444"><ele>28.0</ele><time>2026-04-04T09:39:59.257Z</time></trkpt><trkpt lat="41.4837749" lon="13.2015638"><ele>28.166666666666668</ele><time>2026-04-04T09:40:01.258Z</time></trkpt><trkpt lat="41.483857" lon="13.2015746"><ele>28.333333333333336</ele><time>2026-04-04T09:40:05.262Z</time></trkpt><trkpt lat="41.4838942" lon="13.2014918"><ele>28.5</ele><time>2026-04-04T09:40:07.258Z</time></trkpt><trkpt lat="41.4839145" lon="13.2013953"><ele>28.666666666666664</ele><time>2026-04-04T09:40:09.26Z</time></trkpt><trkpt lat="41.4839367" lon="13.2012944"><ele>28.833333333333332</ele><time>2026-04-04T09:40:11.256Z</time></trkpt><trkpt lat="41.4839605" lon="13.2011468"><ele>29.0</ele><time>2026-04-04T09:40:13.257Z</time></trkpt><trkpt lat="41.4839772" lon="13.2010565"><ele>29.0</ele><time>2026-04-04T09:40:14.255Z</time></trkpt><trkpt lat="41.4839952" lon="13.2009475"><ele>29.0</ele><time>2026-04-04T09:40:15.256Z</time></trkpt><trkpt lat="41.4840139" lon="13.2008207"><ele>29.0</ele><time>2026-04-04T09:40:16.256Z</time></trkpt><trkpt lat="41.4840316" lon="13.200688"><ele>29.0</ele><time>2026-04-04T09:40:17.253Z</time></trkpt><trkpt lat="41.4840524" lon="13.2005427"><ele>29.0</ele><time>2026-04-04T09:40:18.253Z</time></trkpt><trkpt lat="41.4840745" lon="13.2003875"><ele>29.0</ele><time>2026-04-04T09:40:19.252Z</time></trkpt><trkpt lat="41.4841003" lon="13.2002273"><ele>29.0</ele><time>2026-04-04T09:40:20.252Z</time></trkpt><trkpt lat="41.4841321" lon="13.2000646"><ele>29.0</ele><time>2026-04-04T09:40:21.27Z</time></trkpt><trkpt lat="41.4841719" lon="13.1999143"><ele>29.0</ele><time>2026-04-04T09:40:22.257Z</time></trkpt><trkpt lat="41.4842257" lon="13.1997777"><ele>29.25</ele><time>2026-04-04T09:40:23.252Z</time></trkpt><trkpt lat="41.4842877" lon="13.1996465"><ele>29.5</ele><time>2026-04-04T09:40:24.252Z</time></trkpt><trkpt lat="41.4843539" lon="13.1995143"><ele>29.75</ele><time>2026-04-04T09:40:25.253Z</time></trkpt><trkpt lat="41.4844234" lon="13.1993837"><ele>30.0</ele><time>2026-04-04T09:40:26.27Z</time></trkpt><trkpt lat="41.4845012" lon="13.1992598"><ele>30.0</ele><time>2026-04-04T09:40:27.264Z</time></trkpt><trkpt lat="41.4845922" lon="13.1991523"><ele>30.0</ele><time>2026-04-04T09:40:28.255Z</time></trkpt><trkpt lat="41.4846962" lon="13.1990609"><ele>30.0</ele><time>2026-04-04T09:40:29.263Z</time></trkpt><trkpt lat="41.4848032" lon="13.1989748"><ele>30.0</ele><time>2026-04-04T09:40:30.25Z</time></trkpt><trkpt lat="41.4849084" lon="13.1988899"><ele>29.5</ele><time>2026-04-04T09:40:31.264Z</time></trkpt><trkpt lat="41.4850117" lon="13.1988067"><ele>29.0</ele><time>2026-04-04T09:40:32.256Z</time></trkpt><trkpt lat="41.4851163" lon="13.1987239"><ele>28.5</ele><time>2026-04-04T09:40:33.253Z</time></trkpt><trkpt lat="41.4852208" lon="13.1986412"><ele>28.0</ele><time>2026-04-04T09:40:34.26Z</time></trkpt><trkpt lat="41.4853255" lon="13.198561"><ele>28.5</ele><time>2026-04-04T09:40:35.254Z</time></trkpt><trkpt lat="41.4854311" lon="13.1984767"><ele>29.0</ele><time>2026-04-04T09:40:36.273Z</time></trkpt><trkpt lat="41.4855477" lon="13.1983995"><ele>29.5</ele><time>2026-04-04T09:40:37.256Z</time></trkpt><trkpt lat="41.4856583" lon="13.1983235"><ele>30.0</ele><time>2026-04-04T09:40:38.26Z</time></trkpt><trkpt lat="41.4857639" lon="13.1982526"><ele>30.0</ele><time>2026-04-04T09:40:39.257Z</time></trkpt><trkpt lat="41.4858702" lon="13.1981809"><ele>30.0</ele><time>2026-04-04T09:40:40.252Z</time></trkpt><trkpt lat="41.4859696" lon="13.1981135"><ele>30.0</ele><time>2026-04-04T09:40:41.256Z</time></trkpt><trkpt lat="41.4860576" lon="13.1980563"><ele>30.0</ele><time>2026-04-04T09:40:42.25Z</time></trkpt><trkpt lat="41.4861399" lon="13.1980083"><ele>30.0</ele><time>2026-04-04T09:40:43.277Z</time></trkpt><trkpt lat="41.4862229" lon="13.1979625"><ele>29.5</ele><time>2026-04-04T09:40:44.255Z</time></trkpt><trkpt lat="41.4863039" lon="13.1979294"><ele>29.0</ele><time>2026-04-04T09:40:45.252Z</time></trkpt><trkpt lat="41.4863794" lon="13.1979189"><ele>28.5</ele><time>2026-04-04T09:40:46.257Z</time></trkpt><trkpt lat="41.4864841" lon="13.197986"><ele>28.0</ele><time>2026-04-04T09:40:48.264Z</time></trkpt><trkpt lat="41.4865352" lon="13.1980508"><ele>27.5</ele><time>2026-04-04T09:40:49.276Z</time></trkpt><trkpt lat="41.4865604" lon="13.1981768"><ele>27.0</ele><time>2026-04-04T09:40:50.26Z</time></trkpt><trkpt lat="41.4865785" lon="13.1983094"><ele>27.0</ele><time>2026-04-04T09:40:51.261Z</time></trkpt><trkpt lat="41.4865932" lon="13.1984512"><ele>27.0</ele><time>2026-04-04T09:40:52.26Z</time></trkpt><trkpt lat="41.4866123" lon="13.1986083"><ele>27.0</ele><time>2026-04-04T09:40:53.257Z</time></trkpt><trkpt lat="41.4866315" lon="13.1987795"><ele>27.0</ele><time>2026-04-04T09:40:54.255Z</time></trkpt><trkpt lat="41.4866531" lon="13.1989532"><ele>27.0</ele><time>2026-04-04T09:40:55.263Z</time></trkpt><trkpt lat="41.4866702" lon="13.1991308"><ele>27.0</ele><time>2026-04-04T09:40:56.252Z</time></trkpt><trkpt lat="41.4866756" lon="13.1993046"><ele>27.0</ele><time>2026-04-04T09:40:57.275Z</time></trkpt><trkpt lat="41.4866747" lon="13.1994538"><ele>27.0</ele><time>2026-04-04T09:40:58.263Z</time></trkpt><trkpt lat="41.4866823" lon="13.1995817"><ele>27.0</ele><time>2026-04-04T09:40:59.257Z</time></trkpt><trkpt lat="41.4867038" lon="13.1996978"><ele>27.000000000000004</ele><time>2026-04-04T09:41:00.261Z</time></trkpt><trkpt lat="41.4867402" lon="13.1998016"><ele>27.000000000000004</ele><time>2026-04-04T09:41:01.252Z</time></trkpt><trkpt lat="41.4867908" lon="13.1999036"><ele>27.0</ele><time>2026-04-04T09:41:02.272Z</time></trkpt><trkpt lat="41.486862" lon="13.2000135"><ele>27.0</ele><time>2026-04-04T09:41:03.256Z</time></trkpt><trkpt lat="41.4869348" lon="13.2001222"><ele>27.5</ele><time>2026-04-04T09:41:04.259Z</time></trkpt><trkpt lat="41.4870084" lon="13.2002291"><ele>28.0</ele><time>2026-04-04T09:41:05.255Z</time></trkpt><trkpt lat="41.4870851" lon="13.2003351"><ele>28.5</ele><time>2026-04-04T09:41:06.256Z</time></trkpt><trkpt lat="41.4871675" lon="13.200445"><ele>29.0</ele><time>2026-04-04T09:41:07.252Z</time></trkpt><trkpt lat="41.4872523" lon="13.2005618"><ele>29.0</ele><time>2026-04-04T09:41:08.257Z</time></trkpt><trkpt lat="41.4873442" lon="13.2006817"><ele>29.0</ele><time>2026-04-04T09:41:09.254Z</time></trkpt><trkpt lat="41.4874377" lon="13.200811"><ele>29.0</ele><time>2026-04-04T09:41:10.26Z</time></trkpt><trkpt lat="41.4875389" lon="13.2009459"><ele>29.0</ele><time>2026-04-04T09:41:11.275Z</time></trkpt><trkpt lat="41.4876481" lon="13.2010863"><ele>29.0</ele><time>2026-04-04T09:41:12.254Z</time></trkpt><trkpt lat="41.4877603" lon="13.2012249"><ele>29.0</ele><time>2026-04-04T09:41:13.257Z</time></trkpt><trkpt lat="41.4878759" lon="13.2013631"><ele>29.0</ele><time>2026-04-04T09:41:14.253Z</time></trkpt><trkpt lat="41.4880061" lon="13.2015061"><ele>29.0</ele><time>2026-04-04T09:41:15.258Z</time></trkpt><trkpt lat="41.4881485" lon="13.2016534"><ele>29.0</ele><time>2026-04-04T09:41:16.253Z</time></trkpt><trkpt lat="41.4882987" lon="13.2018087"><ele>29.0</ele><time>2026-04-04T09:41:17.258Z</time></trkpt><trkpt lat="41.4884547" lon="13.2019637"><ele>29.0</ele><time>2026-04-04T09:41:18.257Z</time></trkpt><trkpt lat="41.4886216" lon="13.2021213"><ele>29.0</ele><time>2026-04-04T09:41:19.258Z</time></trkpt><trkpt lat="41.4888005" lon="13.2022789"><ele>29.0</ele><time>2026-04-04T09:41:20.259Z</time></trkpt><trkpt lat="41.4889828" lon="13.2024329"><ele>29.333333333333332</ele><time>2026-04-04T09:41:21.251Z</time></trkpt><trkpt lat="41.4891609" lon="13.2025794"><ele>29.666666666666664</ele><time>2026-04-04T09:41:22.266Z</time></trkpt><trkpt lat="41.4893352" lon="13.2027177"><ele>30.0</ele><time>2026-04-04T09:41:23.252Z</time></trkpt><trkpt lat="41.4895074" lon="13.2028414"><ele>29.333333333333336</ele><time>2026-04-04T09:41:24.253Z</time></trkpt><trkpt lat="41.4896865" lon="13.2029454"><ele>28.666666666666668</ele><time>2026-04-04T09:41:25.261Z</time></trkpt><trkpt lat="41.4898639" lon="13.2030412"><ele>28.0</ele><time>2026-04-04T09:41:26.257Z</time></trkpt><trkpt lat="41.4900325" lon="13.2031584"><ele>28.0</ele><time>2026-04-04T09:41:27.249Z</time></trkpt><trkpt lat="41.4902014" lon="13.2032897"><ele>28.0</ele><time>2026-04-04T09:41:28.267Z</time></trkpt><trkpt lat="41.4903826" lon="13.2034168"><ele>28.0</ele><time>2026-04-04T09:41:29.251Z</time></trkpt><trkpt lat="41.4905765" lon="13.2035381"><ele>28.333333333333336</ele><time>2026-04-04T09:41:30.258Z</time></trkpt><trkpt lat="41.4907731" lon="13.2036602"><ele>28.666666666666664</ele><time>2026-04-04T09:41:31.254Z</time></trkpt><trkpt lat="41.490965" lon="13.2037809"><ele>29.0</ele><time>2026-04-04T09:41:32.255Z</time></trkpt><trkpt lat="41.491155" lon="13.2038993"><ele>29.0</ele><time>2026-04-04T09:41:33.252Z</time></trkpt><trkpt lat="41.4913482" lon="13.2040181"><ele>29.0</ele><time>2026-04-04T09:41:34.25Z</time></trkpt><trkpt lat="41.4915407" lon="13.2041372"><ele>29.0</ele><time>2026-04-04T09:41:35.264Z</time></trkpt><trkpt lat="41.4917261" lon="13.2042527"><ele>29.0</ele><time>2026-04-04T09:41:36.257Z</time></trkpt><trkpt lat="41.4919012" lon="13.204373"><ele>29.0</ele><time>2026-04-04T09:41:37.254Z</time></trkpt><trkpt lat="41.4920674" lon="13.2044802"><ele>29.0</ele><time>2026-04-04T09:41:38.261Z</time></trkpt><trkpt lat="41.4922321" lon="13.20459"><ele>29.0</ele><time>2026-04-04T09:41:39.251Z</time></trkpt><trkpt lat="41.4923904" lon="13.204706"><ele>29.0</ele><time>2026-04-04T09:41:40.267Z</time></trkpt><trkpt lat="41.4925384" lon="13.2048248"><ele>29.0</ele><time>2026-04-04T09:41:41.251Z</time></trkpt><trkpt lat="41.4926748" lon="13.204941"><ele>29.0</ele><time>2026-04-04T09:41:42.259Z</time></trkpt><trkpt lat="41.4927988" lon="13.205048"><ele>29.0</ele><time>2026-04-04T09:41:43.251Z</time></trkpt><trkpt lat="41.4929049" lon="13.2051454"><ele>29.0</ele><time>2026-04-04T09:41:44.257Z</time></trkpt><trkpt lat="41.4929961" lon="13.2052349"><ele>29.0</ele><time>2026-04-04T09:41:45.255Z</time></trkpt><trkpt lat="41.4930734" lon="13.2053138"><ele>29.666666666666664</ele><time>2026-04-04T09:41:46.258Z</time></trkpt><trkpt lat="41.4931325" lon="13.2053754"><ele>30.333333333333332</ele><time>2026-04-04T09:41:47.25Z</time></trkpt><trkpt lat="41.4931868" lon="13.2054651"><ele>31.0</ele><time>2026-04-04T09:41:49.252Z</time></trkpt><trkpt lat="41.4931768" lon="13.2055556"><ele>31.666666666666664</ele><time>2026-04-04T09:41:51.264Z</time></trkpt><trkpt lat="41.4931159" lon="13.2056472"><ele>32.333333333333336</ele><time>2026-04-04T09:41:53.252Z</time></trkpt><trkpt lat="41.4930502" lon="13.2057261"><ele>33.0</ele><time>2026-04-04T09:41:54.257Z</time></trkpt><trkpt lat="41.4929908" lon="13.2058326"><ele>33.0</ele><time>2026-04-04T09:41:55.254Z</time></trkpt><trkpt lat="41.4929328" lon="13.2059467"><ele>33.0</ele><time>2026-04-04T09:41:56.26Z</time></trkpt><trkpt lat="41.4929094" lon="13.2060401"><ele>33.0</ele><time>2026-04-04T09:41:57.255Z</time></trkpt><trkpt lat="41.4929174" lon="13.2061316"><ele>33.0</ele><time>2026-04-04T09:41:58.258Z</time></trkpt><trkpt lat="41.4929558" lon="13.2062245"><ele>33.0</ele><time>2026-04-04T09:41:59.254Z</time></trkpt><trkpt lat="41.4930066" lon="13.2062961"><ele>33.0</ele><time>2026-04-04T09:42:00.267Z</time></trkpt><trkpt lat="41.4930791" lon="13.206336"><ele>33.0</ele><time>2026-04-04T09:42:01.25Z</time></trkpt><trkpt lat="41.4931746" lon="13.2063543"><ele>33.0</ele><time>2026-04-04T09:42:02.254Z</time></trkpt><trkpt lat="41.4932619" lon="13.2063638"><ele>33.0</ele><time>2026-04-04T09:42:03.252Z</time></trkpt><trkpt lat="41.4933751" lon="13.2063944"><ele>33.0</ele><time>2026-04-04T09:42:05.249Z</time></trkpt><trkpt lat="41.4933545" lon="13.2065506"><ele>33.0</ele><time>2026-04-04T09:42:07.254Z</time></trkpt><trkpt lat="41.4933013" lon="13.2066724"><ele>33.25</ele><time>2026-04-04T09:42:08.261Z</time></trkpt><trkpt lat="41.4932486" lon="13.2068248"><ele>33.5</ele><time>2026-04-04T09:42:09.257Z</time></trkpt><trkpt lat="41.4932069" lon="13.206979"><ele>33.75</ele><time>2026-04-04T09:42:10.261Z</time></trkpt><trkpt lat="41.493159" lon="13.2071377"><ele>34.0</ele><time>2026-04-04T09:42:11.251Z</time></trkpt><trkpt lat="41.4930754" lon="13.2072893"><ele>34.0</ele><time>2026-04-04T09:42:12.254Z</time></trkpt><trkpt lat="41.4929933" lon="13.2074019"><ele>34.0</ele><time>2026-04-04T09:42:13.269Z</time></trkpt><trkpt lat="41.4929157" lon="13.2075031"><ele>34.0</ele><time>2026-04-04T09:42:14.255Z</time></trkpt><trkpt lat="41.4928462" lon="13.207585"><ele>34.0</ele><time>2026-04-04T09:42:15.252Z</time></trkpt><trkpt lat="41.49278" lon="13.2076394"><ele>34.0</ele><time>2026-04-04T09:42:16.249Z</time></trkpt><trkpt lat="41.4927277" lon="13.2076992"><ele>33.66666666666667</ele><time>2026-04-04T09:42:17.254Z</time></trkpt><trkpt lat="41.4926963" lon="13.2077886"><ele>33.333333333333336</ele><time>2026-04-04T09:42:18.256Z</time></trkpt><trkpt lat="41.4926585" lon="13.2078816"><ele>33.0</ele><time>2026-04-04T09:42:19.256Z</time></trkpt><trkpt lat="41.4925243" lon="13.2083165"><ele>33.0</ele><time>2026-04-04T09:42:23.255Z</time></trkpt><trkpt lat="41.4924998" lon="13.2084693"><ele>33.0</ele><time>2026-04-04T09:42:24.262Z</time></trkpt><trkpt lat="41.492481" lon="13.2086143"><ele>33.0</ele><time>2026-04-04T09:42:25.255Z</time></trkpt><trkpt lat="41.4924793" lon="13.2087864"><ele>33.0</ele><time>2026-04-04T09:42:26.255Z</time></trkpt><trkpt lat="41.4924867" lon="13.2089186"><ele>32.8</ele><time>2026-04-04T09:42:27.258Z</time></trkpt><trkpt lat="41.4924972" lon="13.2090514"><ele>32.599999999999994</ele><time>2026-04-04T09:42:28.253Z</time></trkpt><trkpt lat="41.492517" lon="13.2091829"><ele>32.400000000000006</ele><time>2026-04-04T09:42:29.256Z</time></trkpt><trkpt lat="41.4925361" lon="13.2093253"><ele>32.2</ele><time>2026-04-04T09:42:30.256Z</time></trkpt><trkpt lat="41.4925691" lon="13.2094591"><ele>32.0</ele><time>2026-04-04T09:42:31.26Z</time></trkpt><trkpt lat="41.4926082" lon="13.2095953"><ele>32.0</ele><time>2026-04-04T09:42:32.257Z</time></trkpt><trkpt lat="41.4926634" lon="13.2097308"><ele>32.0</ele><time>2026-04-04T09:42:33.257Z</time></trkpt><trkpt lat="41.4927211" lon="13.2098776"><ele>32.0</ele><time>2026-04-04T09:42:34.257Z</time></trkpt><trkpt lat="41.49278" lon="13.2100325"><ele>32.0</ele><time>2026-04-04T09:42:35.267Z</time></trkpt><trkpt lat="41.492841" lon="13.2101951"><ele>32.0</ele><time>2026-04-04T09:42:36.254Z</time></trkpt><trkpt lat="41.4929026" lon="13.2103596"><ele>32.0</ele><time>2026-04-04T09:42:37.254Z</time></trkpt><trkpt lat="41.4929615" lon="13.210517"><ele>32.0</ele><time>2026-04-04T09:42:38.253Z</time></trkpt><trkpt lat="41.493019" lon="13.2106843"><ele>32.0</ele><time>2026-04-04T09:42:39.259Z</time></trkpt><trkpt lat="41.4930756" lon="13.2108544"><ele>31.75</ele><time>2026-04-04T09:42:40.257Z</time></trkpt><trkpt lat="41.4931319" lon="13.2110236"><ele>31.5</ele><time>2026-04-04T09:42:41.258Z</time></trkpt><trkpt lat="41.4931811" lon="13.2111914"><ele>31.25</ele><time>2026-04-04T09:42:42.258Z</time></trkpt><trkpt lat="41.4932193" lon="13.2113572"><ele>31.0</ele><time>2026-04-04T09:42:43.253Z</time></trkpt><trkpt lat="41.4932573" lon="13.2115293"><ele>31.0</ele><time>2026-04-04T09:42:44.268Z</time></trkpt><trkpt lat="41.493294" lon="13.2117055"><ele>31.0</ele><time>2026-04-04T09:42:45.256Z</time></trkpt><trkpt lat="41.4933317" lon="13.2118823"><ele>31.0</ele><time>2026-04-04T09:42:46.254Z</time></trkpt><trkpt lat="41.4933717" lon="13.2120576"><ele>31.0</ele><time>2026-04-04T09:42:47.258Z</time></trkpt><trkpt lat="41.4934073" lon="13.2122337"><ele>31.25</ele><time>2026-04-04T09:42:48.256Z</time></trkpt><trkpt lat="41.4934462" lon="13.2124071"><ele>31.5</ele><time>2026-04-04T09:42:49.27Z</time></trkpt><trkpt lat="41.4935004" lon="13.2125764"><ele>31.75</ele><time>2026-04-04T09:42:50.261Z</time></trkpt><trkpt lat="41.4935479" lon="13.2127453"><ele>32.0</ele><time>2026-04-04T09:42:51.257Z</time></trkpt><trkpt lat="41.493586" lon="13.212916"><ele>32.0</ele><time>2026-04-04T09:42:52.273Z</time></trkpt><trkpt lat="41.493613" lon="13.2130985"><ele>32.0</ele><time>2026-04-04T09:42:53.256Z</time></trkpt><trkpt lat="41.4936511" lon="13.2132782"><ele>32.0</ele><time>2026-04-04T09:42:54.257Z</time></trkpt><trkpt lat="41.493689" lon="13.2134608"><ele>32.0</ele><time>2026-04-04T09:42:55.254Z</time></trkpt><trkpt lat="41.4937231" lon="13.2136483"><ele>32.0</ele><time>2026-04-04T09:42:56.256Z</time></trkpt><trkpt lat="41.4937542" lon="13.2138254"><ele>32.0</ele><time>2026-04-04T09:42:57.255Z</time></trkpt><trkpt lat="41.4937748" lon="13.2139928"><ele>32.0</ele><time>2026-04-04T09:42:58.272Z</time></trkpt><trkpt lat="41.4937697" lon="13.2141689"><ele>32.0</ele><time>2026-04-04T09:42:59.256Z</time></trkpt><trkpt lat="41.493767" lon="13.2143615"><ele>31.75</ele><time>2026-04-04T09:43:00.259Z</time></trkpt><trkpt lat="41.4937614" lon="13.2145553"><ele>31.5</ele><time>2026-04-04T09:43:01.262Z</time></trkpt><trkpt lat="41.4937527" lon="13.2147433"><ele>31.25</ele><time>2026-04-04T09:43:02.254Z</time></trkpt><trkpt lat="41.4937415" lon="13.2149193"><ele>31.0</ele><time>2026-04-04T09:43:03.271Z</time></trkpt><trkpt lat="41.4937374" lon="13.2150825"><ele>31.0</ele><time>2026-04-04T09:43:04.255Z</time></trkpt><trkpt lat="41.493733" lon="13.2152329"><ele>31.0</ele><time>2026-04-04T09:43:05.257Z</time></trkpt><trkpt lat="41.4937269" lon="13.2153851"><ele>31.0</ele><time>2026-04-04T09:43:06.256Z</time></trkpt><trkpt lat="41.4937151" lon="13.2155344"><ele>31.0</ele><time>2026-04-04T09:43:07.26Z</time></trkpt><trkpt lat="41.4937023" lon="13.2156808"><ele>30.75</ele><time>2026-04-04T09:43:08.265Z</time></trkpt><trkpt lat="41.4936925" lon="13.2158377"><ele>30.5</ele><time>2026-04-04T09:43:09.257Z</time></trkpt><trkpt lat="41.4936856" lon="13.2160075"><ele>30.25</ele><time>2026-04-04T09:43:10.254Z</time></trkpt><trkpt lat="41.4936756" lon="13.2161746"><ele>30.0</ele><time>2026-04-04T09:43:11.261Z</time></trkpt><trkpt lat="41.4936643" lon="13.2163375"><ele>30.0</ele><time>2026-04-04T09:43:12.263Z</time></trkpt><trkpt lat="41.4936574" lon="13.2165051"><ele>30.0</ele><time>2026-04-04T09:43:13.256Z</time></trkpt><trkpt lat="41.4936484" lon="13.2166858"><ele>30.0</ele><time>2026-04-04T09:43:14.261Z</time></trkpt><trkpt lat="41.493637" lon="13.2168582"><ele>30.0</ele><time>2026-04-04T09:43:15.26Z</time></trkpt><trkpt lat="41.493625" lon="13.2170473"><ele>30.0</ele><time>2026-04-04T09:43:16.255Z</time></trkpt><trkpt lat="41.4936141" lon="13.2172359"><ele>30.0</ele><time>2026-04-04T09:43:17.268Z</time></trkpt><trkpt lat="41.4935998" lon="13.2174154"><ele>30.0</ele><time>2026-04-04T09:43:18.259Z</time></trkpt><trkpt lat="41.4935882" lon="13.2175939"><ele>30.0</ele><time>2026-04-04T09:43:19.259Z</time></trkpt><trkpt lat="41.4935827" lon="13.2177612"><ele>30.2</ele><time>2026-04-04T09:43:20.263Z</time></trkpt><trkpt lat="41.4935911" lon="13.2179095"><ele>30.4</ele><time>2026-04-04T09:43:21.26Z</time></trkpt><trkpt lat="41.4936222" lon="13.2180309"><ele>30.6</ele><time>2026-04-04T09:43:22.256Z</time></trkpt><trkpt lat="41.4936607" lon="13.2181342"><ele>30.8</ele><time>2026-04-04T09:43:23.259Z</time></trkpt><trkpt lat="41.4937183" lon="13.2182203"><ele>31.0</ele><time>2026-04-04T09:43:24.259Z</time></trkpt><trkpt lat="41.4937841" lon="13.2183273"><ele>32.0</ele><time>2026-04-04T09:43:25.263Z</time></trkpt><trkpt lat="41.4938525" lon="13.2184605"><ele>33.0</ele><time>2026-04-04T09:43:26.253Z</time></trkpt><trkpt lat="41.493925" lon="13.2186057"><ele>34.0</ele><time>2026-04-04T09:43:27.253Z</time></trkpt><trkpt lat="41.4939877" lon="13.2187442"><ele>35.0</ele><time>2026-04-04T09:43:28.259Z</time></trkpt><trkpt lat="41.4940484" lon="13.2188805"><ele>35.0</ele><time>2026-04-04T09:43:29.253Z</time></trkpt><trkpt lat="41.4941095" lon="13.2190324"><ele>35.0</ele><time>2026-04-04T09:43:30.26Z</time></trkpt><trkpt lat="41.4941751" lon="13.2191972"><ele>35.0</ele><time>2026-04-04T09:43:31.254Z</time></trkpt><trkpt lat="41.4942415" lon="13.2193655"><ele>35.0</ele><time>2026-04-04T09:43:32.259Z</time></trkpt><trkpt lat="41.4943096" lon="13.2195394"><ele>35.0</ele><time>2026-04-04T09:43:33.254Z</time></trkpt><trkpt lat="41.4943749" lon="13.2197153"><ele>35.0</ele><time>2026-04-04T09:43:34.257Z</time></trkpt><trkpt lat="41.4944354" lon="13.2198854"><ele>35.0</ele><time>2026-04-04T09:43:35.253Z</time></trkpt><trkpt lat="41.4944983" lon="13.2200561"><ele>35.0</ele><time>2026-04-04T09:43:36.258Z</time></trkpt><trkpt lat="41.4945573" lon="13.2202475"><ele>35.33333333333333</ele><time>2026-04-04T09:43:37.267Z</time></trkpt><trkpt lat="41.4946257" lon="13.2204311"><ele>35.666666666666664</ele><time>2026-04-04T09:43:38.257Z</time></trkpt><trkpt lat="41.494695" lon="13.220619"><ele>36.0</ele><time>2026-04-04T09:43:39.275Z</time></trkpt><trkpt lat="41.4947615" lon="13.2208021"><ele>36.0</ele><time>2026-04-04T09:43:40.258Z</time></trkpt><trkpt lat="41.4948146" lon="13.2209619"><ele>36.0</ele><time>2026-04-04T09:43:41.258Z</time></trkpt><trkpt lat="41.4948519" lon="13.2211082"><ele>36.0</ele><time>2026-04-04T09:43:42.257Z</time></trkpt><trkpt lat="41.4948818" lon="13.2212443"><ele>36.0</ele><time>2026-04-04T09:43:43.257Z</time></trkpt><trkpt lat="41.4949104" lon="13.2213607"><ele>36.0</ele><time>2026-04-04T09:43:44.261Z</time></trkpt><trkpt lat="41.4949329" lon="13.2214619"><ele>36.4</ele><time>2026-04-04T09:43:45.269Z</time></trkpt><trkpt lat="41.4949538" lon="13.2215611"><ele>36.8</ele><time>2026-04-04T09:43:46.259Z</time></trkpt><trkpt lat="41.4949785" lon="13.2216709"><ele>37.199999999999996</ele><time>2026-04-04T09:43:47.256Z</time></trkpt><trkpt lat="41.4950129" lon="13.2217908"><ele>37.6</ele><time>2026-04-04T09:43:48.256Z</time></trkpt><trkpt lat="41.4950568" lon="13.2219168"><ele>38.0</ele><time>2026-04-04T09:43:49.259Z</time></trkpt><trkpt lat="41.4951161" lon="13.222044"><ele>38.0</ele><time>2026-04-04T09:43:50.269Z</time></trkpt><trkpt lat="41.4951839" lon="13.2221792"><ele>38.0</ele><time>2026-04-04T09:43:51.258Z</time></trkpt><trkpt lat="41.4952533" lon="13.2223218"><ele>38.0</ele><time>2026-04-04T09:43:52.26Z</time></trkpt><trkpt lat="41.4953258" lon="13.222469"><ele>38.0</ele><time>2026-04-04T09:43:53.258Z</time></trkpt><trkpt lat="41.4954017" lon="13.2226229"><ele>38.5</ele><time>2026-04-04T09:43:54.259Z</time></trkpt><trkpt lat="41.4954781" lon="13.2227802"><ele>39.0</ele><time>2026-04-04T09:43:55.257Z</time></trkpt><trkpt lat="41.4955559" lon="13.2229396"><ele>39.5</ele><time>2026-04-04T09:43:56.258Z</time></trkpt><trkpt lat="41.495638" lon="13.2231095"><ele>40.0</ele><time>2026-04-04T09:43:57.258Z</time></trkpt><trkpt lat="41.4957196" lon="13.2232721"><ele>40.333333333333336</ele><time>2026-04-04T09:43:58.254Z</time></trkpt><trkpt lat="41.4958051" lon="13.2234448"><ele>40.666666666666664</ele><time>2026-04-04T09:43:59.261Z</time></trkpt><trkpt lat="41.4958731" lon="13.2236268"><ele>41.0</ele><time>2026-04-04T09:44:00.26Z</time></trkpt><trkpt lat="41.4959333" lon="13.2238212"><ele>40.666666666666664</ele><time>2026-04-04T09:44:01.272Z</time></trkpt><trkpt lat="41.4959932" lon="13.22402"><ele>40.333333333333336</ele><time>2026-04-04T09:44:02.254Z</time></trkpt><trkpt lat="41.4960441" lon="13.2242254"><ele>40.0</ele><time>2026-04-04T09:44:03.249Z</time></trkpt><trkpt lat="41.4961019" lon="13.2244289"><ele>40.0</ele><time>2026-04-04T09:44:04.258Z</time></trkpt><trkpt lat="41.4961598" lon="13.2246282"><ele>40.0</ele><time>2026-04-04T09:44:05.258Z</time></trkpt><trkpt lat="41.4962116" lon="13.2248122"><ele>40.0</ele><time>2026-04-04T09:44:06.255Z</time></trkpt><trkpt lat="41.4962634" lon="13.2249908"><ele>40.5</ele><time>2026-04-04T09:44:07.251Z</time></trkpt><trkpt lat="41.496315" lon="13.2251576"><ele>41.0</ele><time>2026-04-04T09:44:08.27Z</time></trkpt><trkpt lat="41.4963734" lon="13.2253127"><ele>41.5</ele><time>2026-04-04T09:44:09.259Z</time></trkpt><trkpt lat="41.4964268" lon="13.225465"><ele>42.0</ele><time>2026-04-04T09:44:10.257Z</time></trkpt><trkpt lat="41.4964911" lon="13.2255982"><ele>41.25</ele><time>2026-04-04T09:44:11.26Z</time></trkpt><trkpt lat="41.496553" lon="13.2257332"><ele>40.5</ele><time>2026-04-04T09:44:12.256Z</time></trkpt><trkpt lat="41.4966197" lon="13.2258631"><ele>39.75</ele><time>2026-04-04T09:44:13.262Z</time></trkpt><trkpt lat="41.4966764" lon="13.2260006"><ele>39.0</ele><time>2026-04-04T09:44:14.253Z</time></trkpt><trkpt lat="41.4967207" lon="13.2261457"><ele>39.0</ele><time>2026-04-04T09:44:15.255Z</time></trkpt><trkpt lat="41.4967752" lon="13.2262846"><ele>39.0</ele><time>2026-04-04T09:44:16.255Z</time></trkpt><trkpt lat="41.4968336" lon="13.2264013"><ele>39.0</ele><time>2026-04-04T09:44:17.257Z</time></trkpt><trkpt lat="41.4968837" lon="13.2265185"><ele>39.0</ele><time>2026-04-04T09:44:18.259Z</time></trkpt><trkpt lat="41.4969343" lon="13.2266373"><ele>39.0</ele><time>2026-04-04T09:44:19.256Z</time></trkpt><trkpt lat="41.4969839" lon="13.2267604"><ele>39.0</ele><time>2026-04-04T09:44:20.259Z</time></trkpt><trkpt lat="41.4970293" lon="13.2268805"><ele>39.0</ele><time>2026-04-04T09:44:21.271Z</time></trkpt><trkpt lat="41.4970779" lon="13.2269937"><ele>39.0</ele><time>2026-04-04T09:44:22.257Z</time></trkpt><trkpt lat="41.4971311" lon="13.2271092"><ele>39.0</ele><time>2026-04-04T09:44:23.261Z</time></trkpt><trkpt lat="41.4971861" lon="13.2272287"><ele>39.0</ele><time>2026-04-04T09:44:24.259Z</time></trkpt><trkpt lat="41.497241" lon="13.2273486"><ele>39.4</ele><time>2026-04-04T09:44:25.253Z</time></trkpt><trkpt lat="41.4973012" lon="13.2274661"><ele>39.8</ele><time>2026-04-04T09:44:26.278Z</time></trkpt><trkpt lat="41.4973694" lon="13.2275876"><ele>40.199999999999996</ele><time>2026-04-04T09:44:27.256Z</time></trkpt><trkpt lat="41.4974307" lon="13.2277079"><ele>40.599999999999994</ele><time>2026-04-04T09:44:28.258Z</time></trkpt><trkpt lat="41.4974867" lon="13.2278334"><ele>41.0</ele><time>2026-04-04T09:44:29.257Z</time></trkpt><trkpt lat="41.4975383" lon="13.2279621"><ele>41.0</ele><time>2026-04-04T09:44:30.256Z</time></trkpt><trkpt lat="41.4975965" lon="13.2280927"><ele>41.0</ele><time>2026-04-04T09:44:31.265Z</time></trkpt><trkpt lat="41.4976544" lon="13.2282324"><ele>41.0</ele><time>2026-04-04T09:44:32.251Z</time></trkpt><trkpt lat="41.4977108" lon="13.2283779"><ele>41.0</ele><time>2026-04-04T09:44:33.27Z</time></trkpt><trkpt lat="41.4977703" lon="13.228532"><ele>41.0</ele><time>2026-04-04T09:44:34.256Z</time></trkpt><trkpt lat="41.4978302" lon="13.2286853"><ele>41.0</ele><time>2026-04-04T09:44:35.256Z</time></trkpt><trkpt lat="41.4978905" lon="13.2288421"><ele>41.0</ele><time>2026-04-04T09:44:36.255Z</time></trkpt><trkpt lat="41.4979462" lon="13.2289958"><ele>41.0</ele><time>2026-04-04T09:44:37.249Z</time></trkpt><trkpt lat="41.4980008" lon="13.2291486"><ele>41.0</ele><time>2026-04-04T09:44:38.271Z</time></trkpt><trkpt lat="41.4980485" lon="13.2292895"><ele>41.0</ele><time>2026-04-04T09:44:39.261Z</time></trkpt><trkpt lat="41.4980982" lon="13.2294094"><ele>41.0</ele><time>2026-04-04T09:44:40.258Z</time></trkpt><trkpt lat="41.4981378" lon="13.2295093"><ele>41.0</ele><time>2026-04-04T09:44:41.257Z</time></trkpt><trkpt lat="41.4981805" lon="13.2296425"><ele>41.0</ele><time>2026-04-04T09:44:43.259Z</time></trkpt><trkpt lat="41.4981344" lon="13.2297395"><ele>41.0</ele><time>2026-04-04T09:44:45.255Z</time></trkpt><trkpt lat="41.4980791" lon="13.2297798"><ele>41.0</ele><time>2026-04-04T09:44:46.259Z</time></trkpt><trkpt lat="41.4980123" lon="13.229824"><ele>41.0</ele><time>2026-04-04T09:44:47.258Z</time></trkpt><trkpt lat="41.4979386" lon="13.2298736"><ele>41.0</ele><time>2026-04-04T09:44:48.269Z</time></trkpt><trkpt lat="41.4978519" lon="13.2299241"><ele>41.0</ele><time>2026-04-04T09:44:49.253Z</time></trkpt><trkpt lat="41.4977577" lon="13.2299771"><ele>41.0</ele><time>2026-04-04T09:44:50.249Z</time></trkpt><trkpt lat="41.4976588" lon="13.2300294"><ele>41.25</ele><time>2026-04-04T09:44:51.255Z</time></trkpt><trkpt lat="41.4975472" lon="13.2300878"><ele>41.5</ele><time>2026-04-04T09:44:52.256Z</time></trkpt><trkpt lat="41.4974263" lon="13.2301504"><ele>41.75</ele><time>2026-04-04T09:44:53.256Z</time></trkpt><trkpt lat="41.497302" lon="13.2302166"><ele>42.0</ele><time>2026-04-04T09:44:54.266Z</time></trkpt><trkpt lat="41.4971791" lon="13.2302885"><ele>41.75</ele><time>2026-04-04T09:44:55.258Z</time></trkpt><trkpt lat="41.4970598" lon="13.2303587"><ele>41.5</ele><time>2026-04-04T09:44:56.261Z</time></trkpt><trkpt lat="41.49695" lon="13.2304255"><ele>41.25</ele><time>2026-04-04T09:44:57.255Z</time></trkpt><trkpt lat="41.4968487" lon="13.2304858"><ele>41.0</ele><time>2026-04-04T09:44:58.251Z</time></trkpt><trkpt lat="41.4967573" lon="13.2305384"><ele>41.0</ele><time>2026-04-04T09:44:59.263Z</time></trkpt><trkpt lat="41.4966748" lon="13.2305863"><ele>41.0</ele><time>2026-04-04T09:45:00.257Z</time></trkpt><trkpt lat="41.4966012" lon="13.2306185"><ele>41.0</ele><time>2026-04-04T09:45:01.251Z</time></trkpt><trkpt lat="41.4965301" lon="13.2306256"><ele>41.0</ele><time>2026-04-04T09:45:02.264Z</time></trkpt><trkpt lat="41.4964419" lon="13.2305553"><ele>41.0</ele><time>2026-04-04T09:45:04.263Z</time></trkpt><trkpt lat="41.4964004" lon="13.2304303"><ele>41.0</ele><time>2026-04-04T09:45:06.26Z</time></trkpt><trkpt lat="41.4963247" lon="13.2303786"><ele>41.0</ele><time>2026-04-04T09:45:08.261Z</time></trkpt><trkpt lat="41.4962087" lon="13.2304047"><ele>41.0</ele><time>2026-04-04T09:45:10.253Z</time></trkpt><trkpt lat="41.4961326" lon="13.2304317"><ele>41.0</ele><time>2026-04-04T09:45:11.256Z</time></trkpt><trkpt lat="41.4960442" lon="13.2304619"><ele>41.0</ele><time>2026-04-04T09:45:12.257Z</time></trkpt><trkpt lat="41.4959367" lon="13.2304981"><ele>41.0</ele><time>2026-04-04T09:45:13.256Z</time></trkpt><trkpt lat="41.4958268" lon="13.2305329"><ele>41.0</ele><time>2026-04-04T09:45:14.27Z</time></trkpt><trkpt lat="41.4957083" lon="13.230567"><ele>41.0</ele><time>2026-04-04T09:45:15.259Z</time></trkpt><trkpt lat="41.4955832" lon="13.2306055"><ele>41.0</ele><time>2026-04-04T09:45:16.261Z</time></trkpt><trkpt lat="41.495449" lon="13.2306393"><ele>41.0</ele><time>2026-04-04T09:45:17.254Z</time></trkpt><trkpt lat="41.4953139" lon="13.2306561"><ele>40.5</ele><time>2026-04-04T09:45:18.257Z</time></trkpt><trkpt lat="41.4951667" lon="13.230673"><ele>40.0</ele><time>2026-04-04T09:45:19.26Z</time></trkpt><trkpt lat="41.4950142" lon="13.2306891"><ele>39.5</ele><time>2026-04-04T09:45:20.256Z</time></trkpt><trkpt lat="41.4948659" lon="13.2307043"><ele>39.0</ele><time>2026-04-04T09:45:21.258Z</time></trkpt><trkpt lat="41.4947069" lon="13.2307367"><ele>38.333333333333336</ele><time>2026-04-04T09:45:22.258Z</time></trkpt><trkpt lat="41.4945467" lon="13.2307925"><ele>37.66666666666667</ele><time>2026-04-04T09:45:23.26Z</time></trkpt><trkpt lat="41.4943933" lon="13.2308668"><ele>37.0</ele><time>2026-04-04T09:45:24.258Z</time></trkpt><trkpt lat="41.494247" lon="13.2309337"><ele>37.0</ele><time>2026-04-04T09:45:25.249Z</time></trkpt><trkpt lat="41.4941127" lon="13.230996"><ele>37.0</ele><time>2026-04-04T09:45:26.255Z</time></trkpt><trkpt lat="41.493995" lon="13.2310515"><ele>37.0</ele><time>2026-04-04T09:45:27.258Z</time></trkpt><trkpt lat="41.493894" lon="13.2310979"><ele>37.0</ele><time>2026-04-04T09:45:28.261Z</time></trkpt><trkpt lat="41.4938096" lon="13.2311364"><ele>36.800000000000004</ele><time>2026-04-04T09:45:29.252Z</time></trkpt><trkpt lat="41.4937494" lon="13.2311762"><ele>36.6</ele><time>2026-04-04T09:45:30.259Z</time></trkpt><trkpt lat="41.4936712" lon="13.231267"><ele>36.400000000000006</ele><time>2026-04-04T09:45:32.256Z</time></trkpt><trkpt lat="41.4936672" lon="13.2314122"><ele>36.2</ele><time>2026-04-04T09:45:34.252Z</time></trkpt><trkpt lat="41.493702" lon="13.2315231"><ele>36.0</ele><time>2026-04-04T09:45:35.266Z</time></trkpt><trkpt lat="41.4937417" lon="13.2316501"><ele>36.0</ele><time>2026-04-04T09:45:36.257Z</time></trkpt><trkpt lat="41.4937869" lon="13.2317941"><ele>36.0</ele><time>2026-04-04T09:45:37.257Z</time></trkpt><trkpt lat="41.4938469" lon="13.231953"><ele>36.0</ele><time>2026-04-04T09:45:38.255Z</time></trkpt><trkpt lat="41.4939085" lon="13.2320953"><ele>36.0</ele><time>2026-04-04T09:45:39.258Z</time></trkpt><trkpt lat="41.4939694" lon="13.2322223"><ele>35.666666666666664</ele><time>2026-04-04T09:45:40.26Z</time></trkpt><trkpt lat="41.4940311" lon="13.2323291"><ele>35.333333333333336</ele><time>2026-04-04T09:45:41.262Z</time></trkpt><trkpt lat="41.4940943" lon="13.232426"><ele>35.0</ele><time>2026-04-04T09:45:42.257Z</time></trkpt><trkpt lat="41.4941648" lon="13.2325017"><ele>34.66666666666667</ele><time>2026-04-04T09:45:43.255Z</time></trkpt><trkpt lat="41.4942245" lon="13.2325746"><ele>34.333333333333336</ele><time>2026-04-04T09:45:44.258Z</time></trkpt><trkpt lat="41.4942697" lon="13.2326468"><ele>34.0</ele><time>2026-04-04T09:45:45.257Z</time></trkpt><trkpt lat="41.4943147" lon="13.232719"><ele>34.0</ele><time>2026-04-04T09:45:46.257Z</time></trkpt><trkpt lat="41.4943544" lon="13.2328068"><ele>34.0</ele><time>2026-04-04T09:45:47.259Z</time></trkpt><trkpt lat="41.4943925" lon="13.2329175"><ele>34.0</ele><time>2026-04-04T09:45:48.271Z</time></trkpt><trkpt lat="41.4944248" lon="13.2330458"><ele>34.0</ele><time>2026-04-04T09:45:49.255Z</time></trkpt><trkpt lat="41.4944618" lon="13.233181"><ele>34.0</ele><time>2026-04-04T09:45:50.26Z</time></trkpt><trkpt lat="41.4944996" lon="13.2333162"><ele>34.2</ele><time>2026-04-04T09:45:51.259Z</time></trkpt><trkpt lat="41.4945436" lon="13.233463"><ele>34.4</ele><time>2026-04-04T09:45:52.258Z</time></trkpt><trkpt lat="41.4945798" lon="13.2335928"><ele>34.6</ele><time>2026-04-04T09:45:53.255Z</time></trkpt><trkpt lat="41.4946125" lon="13.2337064"><ele>34.8</ele><time>2026-04-04T09:45:54.263Z</time></trkpt><trkpt lat="41.4946438" lon="13.2338239"><ele>35.0</ele><time>2026-04-04T09:45:55.263Z</time></trkpt><trkpt lat="41.4946646" lon="13.2339631"><ele>34.75</ele><time>2026-04-04T09:45:56.254Z</time></trkpt><trkpt lat="41.4946746" lon="13.2341072"><ele>34.5</ele><time>2026-04-04T09:45:57.269Z</time></trkpt><trkpt lat="41.4946861" lon="13.2342529"><ele>34.25</ele><time>2026-04-04T09:45:58.26Z</time></trkpt><trkpt lat="41.4947027" lon="13.2344112"><ele>34.0</ele><time>2026-04-04T09:45:59.254Z</time></trkpt><trkpt lat="41.4947237" lon="13.2345767"><ele>34.0</ele><time>2026-04-04T09:46:00.259Z</time></trkpt><trkpt lat="41.4947545" lon="13.2347398"><ele>34.0</ele><time>2026-04-04T09:46:01.261Z</time></trkpt><trkpt lat="41.4947913" lon="13.2349031"><ele>34.0</ele><time>2026-04-04T09:46:02.263Z</time></trkpt><trkpt lat="41.4948429" lon="13.2350634"><ele>34.0</ele><time>2026-04-04T09:46:03.26Z</time></trkpt><trkpt lat="41.4949136" lon="13.2352328"><ele>34.0</ele><time>2026-04-04T09:46:04.255Z</time></trkpt><trkpt lat="41.4949814" lon="13.2353976"><ele>34.0</ele><time>2026-04-04T09:46:05.258Z</time></trkpt><trkpt lat="41.4950501" lon="13.2355618"><ele>34.0</ele><time>2026-04-04T09:46:06.26Z</time></trkpt><trkpt lat="41.4951202" lon="13.2357316"><ele>34.0</ele><time>2026-04-04T09:46:07.257Z</time></trkpt><trkpt lat="41.4951903" lon="13.2359004"><ele>34.25</ele><time>2026-04-04T09:46:08.265Z</time></trkpt><trkpt lat="41.495266" lon="13.2360656"><ele>34.5</ele><time>2026-04-04T09:46:09.259Z</time></trkpt><trkpt lat="41.4953423" lon="13.2362405"><ele>34.75</ele><time>2026-04-04T09:46:10.258Z</time></trkpt><trkpt lat="41.4954098" lon="13.2364154"><ele>35.0</ele><time>2026-04-04T09:46:11.256Z</time></trkpt><trkpt lat="41.4954882" lon="13.2365837"><ele>35.0</ele><time>2026-04-04T09:46:12.258Z</time></trkpt><trkpt lat="41.4956002" lon="13.2367356"><ele>35.0</ele><time>2026-04-04T09:46:13.266Z</time></trkpt><trkpt lat="41.4957079" lon="13.2368901"><ele>35.0</ele><time>2026-04-04T09:46:14.259Z</time></trkpt><trkpt lat="41.4958189" lon="13.2370458"><ele>35.0</ele><time>2026-04-04T09:46:15.273Z</time></trkpt><trkpt lat="41.4959266" lon="13.2372006"><ele>35.0</ele><time>2026-04-04T09:46:16.256Z</time></trkpt><trkpt lat="41.4960341" lon="13.2373468"><ele>35.0</ele><time>2026-04-04T09:46:17.264Z</time></trkpt><trkpt lat="41.4961476" lon="13.2374966"><ele>35.25</ele><time>2026-04-04T09:46:18.262Z</time></trkpt><trkpt lat="41.4962555" lon="13.2376438"><ele>35.5</ele><time>2026-04-04T09:46:19.267Z</time></trkpt><trkpt lat="41.4963592" lon="13.2377829"><ele>35.75</ele><time>2026-04-04T09:46:20.251Z</time></trkpt><trkpt lat="41.4964566" lon="13.2379256"><ele>36.0</ele><time>2026-04-04T09:46:21.261Z</time></trkpt><trkpt lat="41.4965508" lon="13.2380654"><ele>35.75</ele><time>2026-04-04T09:46:22.253Z</time></trkpt><trkpt lat="41.4966359" lon="13.2381974"><ele>35.5</ele><time>2026-04-04T09:46:23.257Z</time></trkpt><trkpt lat="41.4967065" lon="13.2383406"><ele>35.25</ele><time>2026-04-04T09:46:24.259Z</time></trkpt><trkpt lat="41.4967697" lon="13.2384771"><ele>35.0</ele><time>2026-04-04T09:46:25.257Z</time></trkpt><trkpt lat="41.4968432" lon="13.2385975"><ele>35.0</ele><time>2026-04-04T09:46:26.256Z</time></trkpt><trkpt lat="41.4969487" lon="13.2386885"><ele>35.0</ele><time>2026-04-04T09:46:27.268Z</time></trkpt><trkpt lat="41.4970737" lon="13.2387737"><ele>35.0</ele><time>2026-04-04T09:46:28.255Z</time></trkpt><trkpt lat="41.4971818" lon="13.2388688"><ele>35.0</ele><time>2026-04-04T09:46:29.261Z</time></trkpt><trkpt lat="41.4972843" lon="13.2389943"><ele>35.0</ele><time>2026-04-04T09:46:30.266Z</time></trkpt><trkpt lat="41.4973829" lon="13.2391254"><ele>35.0</ele><time>2026-04-04T09:46:31.259Z</time></trkpt><trkpt lat="41.497464" lon="13.2392788"><ele>35.0</ele><time>2026-04-04T09:46:32.255Z</time></trkpt><trkpt lat="41.4975446" lon="13.2394379"><ele>35.0</ele><time>2026-04-04T09:46:33.274Z</time></trkpt><trkpt lat="41.4976125" lon="13.2396162"><ele>35.0</ele><time>2026-04-04T09:46:34.265Z</time></trkpt><trkpt lat="41.4976727" lon="13.2397724"><ele>35.0</ele><time>2026-04-04T09:46:35.255Z</time></trkpt><trkpt lat="41.4977347" lon="13.2399055"><ele>35.0</ele><time>2026-04-04T09:46:36.261Z</time></trkpt><trkpt lat="41.4977998" lon="13.2400241"><ele>35.0</ele><time>2026-04-04T09:46:37.253Z</time></trkpt><trkpt lat="41.497869" lon="13.2401354"><ele>35.4</ele><time>2026-04-04T09:46:38.256Z</time></trkpt><trkpt lat="41.4979333" lon="13.2402424"><ele>35.8</ele><time>2026-04-04T09:46:39.276Z</time></trkpt><trkpt lat="41.4979923" lon="13.2403445"><ele>36.2</ele><time>2026-04-04T09:46:40.256Z</time></trkpt><trkpt lat="41.4980463" lon="13.2404405"><ele>36.6</ele><time>2026-04-04T09:46:41.252Z</time></trkpt><trkpt lat="41.4981031" lon="13.2405372"><ele>37.0</ele><time>2026-04-04T09:46:42.257Z</time></trkpt><trkpt lat="41.4981598" lon="13.2406353"><ele>37.0</ele><time>2026-04-04T09:46:43.25Z</time></trkpt><trkpt lat="41.4982182" lon="13.2407402"><ele>37.0</ele><time>2026-04-04T09:46:44.263Z</time></trkpt><trkpt lat="41.4982766" lon="13.2408493"><ele>37.0</ele><time>2026-04-04T09:46:45.253Z</time></trkpt><trkpt lat="41.4983369" lon="13.2409621"><ele>37.0</ele><time>2026-04-04T09:46:46.261Z</time></trkpt><trkpt lat="41.4983977" lon="13.2410702"><ele>37.0</ele><time>2026-04-04T09:46:47.258Z</time></trkpt><trkpt lat="41.4984565" lon="13.2411711"><ele>37.0</ele><time>2026-04-04T09:46:48.258Z</time></trkpt><trkpt lat="41.4985147" lon="13.2412674"><ele>37.0</ele><time>2026-04-04T09:46:49.253Z</time></trkpt><trkpt lat="41.4985667" lon="13.2413588"><ele>37.0</ele><time>2026-04-04T09:46:50.256Z</time></trkpt><trkpt lat="41.4986126" lon="13.2414408"><ele>37.0</ele><time>2026-04-04T09:46:51.263Z</time></trkpt><trkpt lat="41.4986641" lon="13.2415113"><ele>37.0</ele><time>2026-04-04T09:46:52.256Z</time></trkpt><trkpt lat="41.498711" lon="13.2415799"><ele>37.0</ele><time>2026-04-04T09:46:53.255Z</time></trkpt><trkpt lat="41.4987548" lon="13.241652"><ele>37.0</ele><time>2026-04-04T09:46:54.26Z</time></trkpt><trkpt lat="41.4987961" lon="13.2417204"><ele>37.0</ele><time>2026-04-04T09:46:55.264Z</time></trkpt><trkpt lat="41.4988377" lon="13.2417868"><ele>37.0</ele><time>2026-04-04T09:46:56.26Z</time></trkpt><trkpt lat="41.4988771" lon="13.2418546"><ele>37.0</ele><time>2026-04-04T09:46:57.26Z</time></trkpt><trkpt lat="41.498951" lon="13.2419804"><ele>37.0</ele><time>2026-04-04T09:46:59.255Z</time></trkpt><trkpt lat="41.4990298" lon="13.2421069"><ele>37.0</ele><time>2026-04-04T09:47:01.263Z</time></trkpt><trkpt lat="41.499073" lon="13.2421784"><ele>37.0</ele><time>2026-04-04T09:47:02.27Z</time></trkpt><trkpt lat="41.4991193" lon="13.2422542"><ele>37.0</ele><time>2026-04-04T09:47:03.251Z</time></trkpt><trkpt lat="41.4991707" lon="13.2423324"><ele>37.0</ele><time>2026-04-04T09:47:04.257Z</time></trkpt><trkpt lat="41.499227" lon="13.2424119"><ele>37.0</ele><time>2026-04-04T09:47:05.257Z</time></trkpt><trkpt lat="41.4992889" lon="13.2425032"><ele>37.0</ele><time>2026-04-04T09:47:06.264Z</time></trkpt><trkpt lat="41.4993532" lon="13.2426004"><ele>37.0</ele><time>2026-04-04T09:47:07.255Z</time></trkpt><trkpt lat="41.4994214" lon="13.2426986"><ele>37.0</ele><time>2026-04-04T09:47:08.259Z</time></trkpt><trkpt lat="41.4994882" lon="13.2427848"><ele>37.0</ele><time>2026-04-04T09:47:09.263Z</time></trkpt><trkpt lat="41.4995519" lon="13.2428596"><ele>37.0</ele><time>2026-04-04T09:47:10.267Z</time></trkpt><trkpt lat="41.4996178" lon="13.2429324"><ele>37.0</ele><time>2026-04-04T09:47:11.259Z</time></trkpt><trkpt lat="41.4996957" lon="13.2430019"><ele>37.0</ele><time>2026-04-04T09:47:12.252Z</time></trkpt><trkpt lat="41.4997777" lon="13.2430701"><ele>37.142857142857146</ele><time>2026-04-04T09:47:13.254Z</time></trkpt><trkpt lat="41.4998545" lon="13.2431319"><ele>37.285714285714285</ele><time>2026-04-04T09:47:14.253Z</time></trkpt><trkpt lat="41.4999279" lon="13.2431816"><ele>37.42857142857143</ele><time>2026-04-04T09:47:15.255Z</time></trkpt><trkpt lat="41.4999994" lon="13.2432091"><ele>37.57142857142857</ele><time>2026-04-04T09:47:16.256Z</time></trkpt><trkpt lat="41.5000682" lon="13.2432091"><ele>37.714285714285715</ele><time>2026-04-04T09:47:17.253Z</time></trkpt><trkpt lat="41.5001295" lon="13.2431857"><ele>37.857142857142854</ele><time>2026-04-04T09:47:18.26Z</time></trkpt><trkpt lat="41.5001947" lon="13.2431518"><ele>38.0</ele><time>2026-04-04T09:47:19.262Z</time></trkpt><trkpt lat="41.5002559" lon="13.2430959"><ele>38.0</ele><time>2026-04-04T09:47:20.262Z</time></trkpt><trkpt lat="41.5003225" lon="13.243041"><ele>38.0</ele><time>2026-04-04T09:47:21.256Z</time></trkpt><trkpt lat="41.5003844" lon="13.2429949"><ele>38.0</ele><time>2026-04-04T09:47:22.262Z</time></trkpt><trkpt lat="41.5005042" lon="13.2429809"><ele>38.0</ele><time>2026-04-04T09:47:24.26Z</time></trkpt><trkpt lat="41.5006061" lon="13.2430139"><ele>38.0</ele><time>2026-04-04T09:47:26.257Z</time></trkpt><trkpt lat="41.5006696" lon="13.2431489"><ele>39.2</ele><time>2026-04-04T09:47:28.256Z</time></trkpt><trkpt lat="41.5006873" lon="13.2432493"><ele>40.4</ele><time>2026-04-04T09:47:29.258Z</time></trkpt><trkpt lat="41.5007018" lon="13.2433661"><ele>41.6</ele><time>2026-04-04T09:47:30.268Z</time></trkpt><trkpt lat="41.5007208" lon="13.2435004"><ele>42.800000000000004</ele><time>2026-04-04T09:47:31.258Z</time></trkpt><trkpt lat="41.5007478" lon="13.2436533"><ele>44.0</ele><time>2026-04-04T09:47:32.255Z</time></trkpt><trkpt lat="41.5007736" lon="13.2438013"><ele>44.0</ele><time>2026-04-04T09:47:33.258Z</time></trkpt><trkpt lat="41.5007951" lon="13.2439336"><ele>44.0</ele><time>2026-04-04T09:47:34.257Z</time></trkpt><trkpt lat="41.5008144" lon="13.2440584"><ele>44.0</ele><time>2026-04-04T09:47:35.256Z</time></trkpt><trkpt lat="41.5008329" lon="13.2441805"><ele>44.0</ele><time>2026-04-04T09:47:36.27Z</time></trkpt><trkpt lat="41.500854" lon="13.2443152"><ele>44.0</ele><time>2026-04-04T09:47:37.258Z</time></trkpt><trkpt lat="41.5008816" lon="13.2444681"><ele>43.75</ele><time>2026-04-04T09:47:38.252Z</time></trkpt><trkpt lat="41.5009241" lon="13.2446361"><ele>43.5</ele><time>2026-04-04T09:47:39.266Z</time></trkpt><trkpt lat="41.5009833" lon="13.2448039"><ele>43.25</ele><time>2026-04-04T09:47:40.252Z</time></trkpt><trkpt lat="41.5010629" lon="13.2449666"><ele>43.0</ele><time>2026-04-04T09:47:41.272Z</time></trkpt><trkpt lat="41.5011593" lon="13.2451311"><ele>43.66666666666667</ele><time>2026-04-04T09:47:42.259Z</time></trkpt><trkpt lat="41.5012684" lon="13.245308"><ele>44.333333333333336</ele><time>2026-04-04T09:47:43.259Z</time></trkpt><trkpt lat="41.5013771" lon="13.2454941"><ele>45.0</ele><time>2026-04-04T09:47:44.259Z</time></trkpt><trkpt lat="41.5014877" lon="13.2456934"><ele>45.0</ele><time>2026-04-04T09:47:45.251Z</time></trkpt><trkpt lat="41.5016047" lon="13.2459061"><ele>45.0</ele><time>2026-04-04T09:47:46.272Z</time></trkpt><trkpt lat="41.501729" lon="13.2461259"><ele>45.0</ele><time>2026-04-04T09:47:47.254Z</time></trkpt><trkpt lat="41.5018546" lon="13.2463508"><ele>44.666666666666664</ele><time>2026-04-04T09:47:48.257Z</time></trkpt><trkpt lat="41.5019783" lon="13.2465754"><ele>44.33333333333333</ele><time>2026-04-04T09:47:49.256Z</time></trkpt><trkpt lat="41.5020921" lon="13.2467913"><ele>44.0</ele><time>2026-04-04T09:47:50.257Z</time></trkpt><trkpt lat="41.5021943" lon="13.2470072"><ele>44.0</ele><time>2026-04-04T09:47:51.264Z</time></trkpt><trkpt lat="41.5022866" lon="13.2472265"><ele>44.0</ele><time>2026-04-04T09:47:52.256Z</time></trkpt><trkpt lat="41.5023728" lon="13.2474477"><ele>44.0</ele><time>2026-04-04T09:47:53.271Z</time></trkpt><trkpt lat="41.5024551" lon="13.2476661"><ele>42.666666666666664</ele><time>2026-04-04T09:47:54.259Z</time></trkpt><trkpt lat="41.50253" lon="13.247873"><ele>41.333333333333336</ele><time>2026-04-04T09:47:55.257Z</time></trkpt><trkpt lat="41.5026044" lon="13.2480769"><ele>40.0</ele><time>2026-04-04T09:47:56.259Z</time></trkpt><trkpt lat="41.5026563" lon="13.2483012"><ele>39.66666666666667</ele><time>2026-04-04T09:47:57.254Z</time></trkpt><trkpt lat="41.5026883" lon="13.2485442"><ele>39.333333333333336</ele><time>2026-04-04T09:47:58.261Z</time></trkpt><trkpt lat="41.5027066" lon="13.2487885"><ele>39.0</ele><time>2026-04-04T09:47:59.256Z</time></trkpt><trkpt lat="41.5027231" lon="13.2490503"><ele>39.0</ele><time>2026-04-04T09:48:00.264Z</time></trkpt><trkpt lat="41.5027425" lon="13.2493154"><ele>39.0</ele><time>2026-04-04T09:48:01.256Z</time></trkpt><trkpt lat="41.5027588" lon="13.2495923"><ele>39.0</ele><time>2026-04-04T09:48:02.261Z</time></trkpt><trkpt lat="41.5027674" lon="13.2498645"><ele>39.333333333333336</ele><time>2026-04-04T09:48:03.257Z</time></trkpt><trkpt lat="41.5027808" lon="13.2501406"><ele>39.66666666666667</ele><time>2026-04-04T09:48:04.263Z</time></trkpt><trkpt lat="41.5027944" lon="13.2504197"><ele>40.0</ele><time>2026-04-04T09:48:05.259Z</time></trkpt><trkpt lat="41.5028072" lon="13.2507005"><ele>40.0</ele><time>2026-04-04T09:48:06.264Z</time></trkpt><trkpt lat="41.5028169" lon="13.2509768"><ele>40.0</ele><time>2026-04-04T09:48:07.259Z</time></trkpt><trkpt lat="41.5028288" lon="13.2512521"><ele>40.0</ele><time>2026-04-04T09:48:08.257Z</time></trkpt><trkpt lat="41.5028442" lon="13.25153"><ele>40.66666666666667</ele><time>2026-04-04T09:48:09.258Z</time></trkpt><trkpt lat="41.5028652" lon="13.2518101"><ele>41.333333333333336</ele><time>2026-04-04T09:48:10.253Z</time></trkpt><trkpt lat="41.5028933" lon="13.2520887"><ele>42.0</ele><time>2026-04-04T09:48:11.259Z</time></trkpt><trkpt lat="41.5029239" lon="13.2523665"><ele>42.0</ele><time>2026-04-04T09:48:12.255Z</time></trkpt><trkpt lat="41.5029599" lon="13.252646"><ele>42.0</ele><time>2026-04-04T09:48:13.259Z</time></trkpt><trkpt lat="41.5029975" lon="13.2529293"><ele>42.0</ele><time>2026-04-04T09:48:14.255Z</time></trkpt><trkpt lat="41.5030355" lon="13.253217"><ele>42.0</ele><time>2026-04-04T09:48:15.253Z</time></trkpt><trkpt lat="41.503073" lon="13.2535075"><ele>42.0</ele><time>2026-04-04T09:48:16.26Z</time></trkpt><trkpt lat="41.5031134" lon="13.2538028"><ele>42.0</ele><time>2026-04-04T09:48:17.263Z</time></trkpt><trkpt lat="41.5031572" lon="13.2540995"><ele>42.0</ele><time>2026-04-04T09:48:18.255Z</time></trkpt><trkpt lat="41.503203" lon="13.2543951"><ele>42.0</ele><time>2026-04-04T09:48:19.26Z</time></trkpt><trkpt lat="41.5032489" lon="13.2546894"><ele>42.0</ele><time>2026-04-04T09:48:20.269Z</time></trkpt><trkpt lat="41.5033001" lon="13.2549794"><ele>42.0</ele><time>2026-04-04T09:48:21.259Z</time></trkpt><trkpt lat="41.5033608" lon="13.2552642"><ele>42.0</ele><time>2026-04-04T09:48:22.259Z</time></trkpt><trkpt lat="41.5034232" lon="13.2555432"><ele>42.0</ele><time>2026-04-04T09:48:23.262Z</time></trkpt><trkpt lat="41.5035037" lon="13.2558112"><ele>42.0</ele><time>2026-04-04T09:48:24.251Z</time></trkpt><trkpt lat="41.5035933" lon="13.256081"><ele>42.0</ele><time>2026-04-04T09:48:25.269Z</time></trkpt><trkpt lat="41.5036853" lon="13.2563458"><ele>42.0</ele><time>2026-04-04T09:48:26.257Z</time></trkpt><trkpt lat="41.5037764" lon="13.2566168"><ele>42.0</ele><time>2026-04-04T09:48:27.255Z</time></trkpt><trkpt lat="41.5038667" lon="13.2568853"><ele>42.0</ele><time>2026-04-04T09:48:28.258Z</time></trkpt><trkpt lat="41.5039542" lon="13.2571545"><ele>43.0</ele><time>2026-04-04T09:48:29.255Z</time></trkpt><trkpt lat="41.504036" lon="13.257425"><ele>44.0</ele><time>2026-04-04T09:48:30.263Z</time></trkpt><trkpt lat="41.5041136" lon="13.257687"><ele>45.0</ele><time>2026-04-04T09:48:31.261Z</time></trkpt><trkpt lat="41.5041678" lon="13.257961"><ele>46.0</ele><time>2026-04-04T09:48:32.257Z</time></trkpt><trkpt lat="41.5042216" lon="13.258235"><ele>47.0</ele><time>2026-04-04T09:48:33.28Z</time></trkpt><trkpt lat="41.5042681" lon="13.2585102"><ele>48.0</ele><time>2026-04-04T09:48:34.258Z</time></trkpt><trkpt lat="41.5043166" lon="13.2587842"><ele>47.666666666666664</ele><time>2026-04-04T09:48:35.264Z</time></trkpt><trkpt lat="41.5043682" lon="13.2590527"><ele>47.33333333333333</ele><time>2026-04-04T09:48:36.264Z</time></trkpt><trkpt lat="41.5044146" lon="13.259326"><ele>47.0</ele><time>2026-04-04T09:48:37.262Z</time></trkpt><trkpt lat="41.5044535" lon="13.259584"><ele>46.666666666666664</ele><time>2026-04-04T09:48:38.264Z</time></trkpt><trkpt lat="41.5044805" lon="13.2598251"><ele>46.333333333333336</ele><time>2026-04-04T09:48:39.263Z</time></trkpt><trkpt lat="41.5044806" lon="13.2600653"><ele>46.0</ele><time>2026-04-04T09:48:40.257Z</time></trkpt><trkpt lat="41.5044571" lon="13.2603085"><ele>46.0</ele><time>2026-04-04T09:48:41.256Z</time></trkpt><trkpt lat="41.5044232" lon="13.2605459"><ele>46.0</ele><time>2026-04-04T09:48:42.283Z</time></trkpt><trkpt lat="41.50438" lon="13.2607666"><ele>46.0</ele><time>2026-04-04T09:48:43.256Z</time></trkpt><trkpt lat="41.504317" lon="13.2609761"><ele>46.333333333333336</ele><time>2026-04-04T09:48:44.263Z</time></trkpt><trkpt lat="41.5042291" lon="13.2611765"><ele>46.666666666666664</ele><time>2026-04-04T09:48:45.267Z</time></trkpt><trkpt lat="41.5041306" lon="13.2613712"><ele>47.0</ele><time>2026-04-04T09:48:46.257Z</time></trkpt><trkpt lat="41.5040364" lon="13.2615501"><ele>47.0</ele><time>2026-04-04T09:48:47.257Z</time></trkpt><trkpt lat="41.5039457" lon="13.2617003"><ele>47.0</ele><time>2026-04-04T09:48:48.265Z</time></trkpt><trkpt lat="41.5038589" lon="13.2618217"><ele>47.0</ele><time>2026-04-04T09:48:49.259Z</time></trkpt><trkpt lat="41.5037774" lon="13.2618976"><ele>47.0</ele><time>2026-04-04T09:48:50.258Z</time></trkpt><trkpt lat="41.5037131" lon="13.2619571"><ele>47.0</ele><time>2026-04-04T09:48:51.264Z</time></trkpt><trkpt lat="41.5036756" lon="13.2620269"><ele>47.0</ele><time>2026-04-04T09:48:52.261Z</time></trkpt><trkpt lat="41.5036626" lon="13.2621303"><ele>47.0</ele><time>2026-04-04T09:48:53.256Z</time></trkpt><trkpt lat="41.5036676" lon="13.2622639"><ele>47.0</ele><time>2026-04-04T09:48:54.252Z</time></trkpt><trkpt lat="41.5036789" lon="13.2624291"><ele>47.0</ele><time>2026-04-04T09:48:55.259Z</time></trkpt><trkpt lat="41.5036806" lon="13.2626089"><ele>47.0</ele><time>2026-04-04T09:48:56.266Z</time></trkpt><trkpt lat="41.5036642" lon="13.2627902"><ele>46.33333333333333</ele><time>2026-04-04T09:48:57.257Z</time></trkpt><trkpt lat="41.5036385" lon="13.262983"><ele>45.666666666666664</ele><time>2026-04-04T09:48:58.262Z</time></trkpt><trkpt lat="41.5036151" lon="13.2631921"><ele>45.0</ele><time>2026-04-04T09:48:59.259Z</time></trkpt><trkpt lat="41.503593" lon="13.2634112"><ele>45.0</ele><time>2026-04-04T09:49:00.252Z</time></trkpt><trkpt lat="41.5035745" lon="13.2636384"><ele>45.0</ele><time>2026-04-04T09:49:01.274Z</time></trkpt><trkpt lat="41.5035659" lon="13.2638647"><ele>45.0</ele><time>2026-04-04T09:49:02.255Z</time></trkpt><trkpt lat="41.5035619" lon="13.2641006"><ele>45.0</ele><time>2026-04-04T09:49:03.262Z</time></trkpt><trkpt lat="41.5035602" lon="13.2643444"><ele>45.0</ele><time>2026-04-04T09:49:04.254Z</time></trkpt><trkpt lat="41.5035637" lon="13.2645909"><ele>45.0</ele><time>2026-04-04T09:49:05.263Z</time></trkpt><trkpt lat="41.5035736" lon="13.2648404"><ele>45.0</ele><time>2026-04-04T09:49:06.255Z</time></trkpt><trkpt lat="41.5035889" lon="13.2650884"><ele>45.0</ele><time>2026-04-04T09:49:07.263Z</time></trkpt><trkpt lat="41.503603" lon="13.2653253"><ele>45.0</ele><time>2026-04-04T09:49:08.263Z</time></trkpt><trkpt lat="41.5036132" lon="13.2655373"><ele>45.25</ele><time>2026-04-04T09:49:09.26Z</time></trkpt><trkpt lat="41.5036332" lon="13.2657308"><ele>45.5</ele><time>2026-04-04T09:49:10.265Z</time></trkpt><trkpt lat="41.5036757" lon="13.2659199"><ele>45.75</ele><time>2026-04-04T09:49:11.273Z</time></trkpt><trkpt lat="41.5037362" lon="13.266098"><ele>46.0</ele><time>2026-04-04T09:49:12.26Z</time></trkpt><trkpt lat="41.5037926" lon="13.2663052"><ele>46.66666666666667</ele><time>2026-04-04T09:49:13.261Z</time></trkpt><trkpt lat="41.503842" lon="13.2665204"><ele>47.333333333333336</ele><time>2026-04-04T09:49:14.264Z</time></trkpt><trkpt lat="41.5038837" lon="13.2667406"><ele>48.0</ele><time>2026-04-04T09:49:15.262Z</time></trkpt><trkpt lat="41.5039249" lon="13.2669619"><ele>48.0</ele><time>2026-04-04T09:49:16.269Z</time></trkpt><trkpt lat="41.5039691" lon="13.2671812"><ele>48.0</ele><time>2026-04-04T09:49:17.261Z</time></trkpt><trkpt lat="41.504017" lon="13.2673973"><ele>48.0</ele><time>2026-04-04T09:49:18.258Z</time></trkpt><trkpt lat="41.5040621" lon="13.2676104"><ele>48.5</ele><time>2026-04-04T09:49:19.265Z</time></trkpt><trkpt lat="41.5040974" lon="13.2678202"><ele>49.0</ele><time>2026-04-04T09:49:20.257Z</time></trkpt><trkpt lat="41.5041189" lon="13.2680169"><ele>49.5</ele><time>2026-04-04T09:49:21.256Z</time></trkpt><trkpt lat="41.5041242" lon="13.2681898"><ele>50.0</ele><time>2026-04-04T09:49:22.274Z</time></trkpt><trkpt lat="41.5041287" lon="13.2683456"><ele>50.0</ele><time>2026-04-04T09:49:23.26Z</time></trkpt><trkpt lat="41.5041359" lon="13.2685056"><ele>50.0</ele><time>2026-04-04T09:49:24.259Z</time></trkpt><trkpt lat="41.5041755" lon="13.2686603"><ele>50.0</ele><time>2026-04-04T09:49:25.26Z</time></trkpt><trkpt lat="41.5042267" lon="13.2688178"><ele>50.0</ele><time>2026-04-04T09:49:26.258Z</time></trkpt><trkpt lat="41.5042709" lon="13.2689731"><ele>49.25</ele><time>2026-04-04T09:49:27.274Z</time></trkpt><trkpt lat="41.5043073" lon="13.2691326"><ele>48.5</ele><time>2026-04-04T09:49:28.266Z</time></trkpt><trkpt lat="41.5043493" lon="13.2693053"><ele>47.75</ele><time>2026-04-04T09:49:29.255Z</time></trkpt><trkpt lat="41.5044042" lon="13.2694814"><ele>47.0</ele><time>2026-04-04T09:49:30.26Z</time></trkpt><trkpt lat="41.5044543" lon="13.2696558"><ele>47.0</ele><time>2026-04-04T09:49:31.273Z</time></trkpt><trkpt lat="41.5045057" lon="13.2698387"><ele>47.0</ele><time>2026-04-04T09:49:32.257Z</time></trkpt><trkpt lat="41.5045577" lon="13.2700127"><ele>47.0</ele><time>2026-04-04T09:49:33.266Z</time></trkpt><trkpt lat="41.504604" lon="13.270182"><ele>47.0</ele><time>2026-04-04T09:49:34.269Z</time></trkpt><trkpt lat="41.5046449" lon="13.2703784"><ele>47.0</ele><time>2026-04-04T09:49:35.267Z</time></trkpt><trkpt lat="41.5046722" lon="13.2705781"><ele>47.0</ele><time>2026-04-04T09:49:36.283Z</time></trkpt><trkpt lat="41.5047113" lon="13.2707716"><ele>47.0</ele><time>2026-04-04T09:49:37.263Z</time></trkpt><trkpt lat="41.5047635" lon="13.2709532"><ele>47.0</ele><time>2026-04-04T09:49:38.26Z</time></trkpt><trkpt lat="41.5048232" lon="13.2711295"><ele>47.25</ele><time>2026-04-04T09:49:39.265Z</time></trkpt><trkpt lat="41.5048917" lon="13.2713056"><ele>47.5</ele><time>2026-04-04T09:49:40.26Z</time></trkpt><trkpt lat="41.5049597" lon="13.2714815"><ele>47.75</ele><time>2026-04-04T09:49:41.258Z</time></trkpt><trkpt lat="41.5050462" lon="13.2716431"><ele>48.0</ele><time>2026-04-04T09:49:42.273Z</time></trkpt><trkpt lat="41.5051203" lon="13.2717884"><ele>48.25</ele><time>2026-04-04T09:49:43.261Z</time></trkpt><trkpt lat="41.5051933" lon="13.2719226"><ele>48.5</ele><time>2026-04-04T09:49:44.264Z</time></trkpt><trkpt lat="41.5052762" lon="13.2720398"><ele>48.75</ele><time>2026-04-04T09:49:45.266Z</time></trkpt><trkpt lat="41.505366" lon="13.2721364"><ele>49.0</ele><time>2026-04-04T09:49:46.261Z</time></trkpt><trkpt lat="41.505455" lon="13.2722018"><ele>49.166666666666664</ele><time>2026-04-04T09:49:47.258Z</time></trkpt><trkpt lat="41.5055495" lon="13.2722411"><ele>49.33333333333333</ele><time>2026-04-04T09:49:48.258Z</time></trkpt><trkpt lat="41.5056461" lon="13.2722643"><ele>49.5</ele><time>2026-04-04T09:49:49.26Z</time></trkpt><trkpt lat="41.5057381" lon="13.2722721"><ele>49.66666666666667</ele><time>2026-04-04T09:49:50.264Z</time></trkpt><trkpt lat="41.505821" lon="13.2722853"><ele>49.833333333333336</ele><time>2026-04-04T09:49:51.264Z</time></trkpt><trkpt lat="41.505887" lon="13.2723118"><ele>50.0</ele><time>2026-04-04T09:49:52.26Z</time></trkpt><trkpt lat="41.5059427" lon="13.2723831"><ele>50.2</ele><time>2026-04-04T09:49:54.26Z</time></trkpt><trkpt lat="41.5059171" lon="13.2725045"><ele>50.4</ele><time>2026-04-04T09:49:56.267Z</time></trkpt><trkpt lat="41.5058619" lon="13.2726618"><ele>50.599999999999994</ele><time>2026-04-04T09:49:58.272Z</time></trkpt><trkpt lat="41.5058393" lon="13.2727462"><ele>50.8</ele><time>2026-04-04T09:49:59.264Z</time></trkpt><trkpt lat="41.5058076" lon="13.2728215"><ele>51.0</ele><time>2026-04-04T09:50:00.262Z</time></trkpt><trkpt lat="41.5057759" lon="13.2729465"><ele>51.0</ele><time>2026-04-04T09:50:02.262Z</time></trkpt><trkpt lat="41.5057978" lon="13.2730417"><ele>51.0</ele><time>2026-04-04T09:50:04.26Z</time></trkpt><trkpt lat="41.5058358" lon="13.2731488"><ele>51.0</ele><time>2026-04-04T09:50:06.267Z</time></trkpt><trkpt lat="41.5058685" lon="13.2732491"><ele>51.0</ele><time>2026-04-04T09:50:08.266Z</time></trkpt><trkpt lat="41.5059095" lon="13.2733873"><ele>51.0</ele><time>2026-04-04T09:50:10.262Z</time></trkpt><trkpt lat="41.505941" lon="13.2735362"><ele>51.0</ele><time>2026-04-04T09:50:12.26Z</time></trkpt><trkpt lat="41.5059686" lon="13.2736953"><ele>51.0</ele><time>2026-04-04T09:50:14.261Z</time></trkpt><trkpt lat="41.5060043" lon="13.273848"><ele>51.0</ele><time>2026-04-04T09:50:16.26Z</time></trkpt><trkpt lat="41.5060331" lon="13.2740007"><ele>51.0</ele><time>2026-04-04T09:50:18.267Z</time></trkpt><trkpt lat="41.5060496" lon="13.2741622"><ele>51.0</ele><time>2026-04-04T09:50:20.272Z</time></trkpt><trkpt lat="41.5060564" lon="13.2742466"><ele>51.0</ele><time>2026-04-04T09:50:21.259Z</time></trkpt><trkpt lat="41.5060654" lon="13.2743394"><ele>51.0</ele><time>2026-04-04T09:50:22.261Z</time></trkpt><trkpt lat="41.5060756" lon="13.2744292"><ele>51.0</ele><time>2026-04-04T09:50:23.255Z</time></trkpt><trkpt lat="41.5060835" lon="13.2745128"><ele>51.0</ele><time>2026-04-04T09:50:24.258Z</time></trkpt><trkpt lat="41.5060894" lon="13.2746547"><ele>51.0</ele><time>2026-04-04T09:50:26.262Z</time></trkpt><trkpt lat="41.5060771" lon="13.2747739"><ele>52.0</ele><time>2026-04-04T09:50:28.275Z</time></trkpt><trkpt lat="41.5061355" lon="13.2748821"><ele>53.0</ele><time>2026-04-04T09:50:31.259Z</time></trkpt><trkpt lat="41.5062111" lon="13.2750001"><ele>53.99999999999999</ele><time>2026-04-04T09:50:33.264Z</time></trkpt><trkpt lat="41.5062424" lon="13.2750916"><ele>55.0</ele><time>2026-04-04T09:50:34.254Z</time></trkpt><trkpt lat="41.5062634" lon="13.2751894"><ele>56.0</ele><time>2026-04-04T09:50:35.257Z</time></trkpt><trkpt lat="41.5062896" lon="13.2752958"><ele>56.833333333333336</ele><time>2026-04-04T09:50:36.259Z</time></trkpt><trkpt lat="41.5063251" lon="13.2753978"><ele>57.66666666666667</ele><time>2026-04-04T09:50:37.263Z</time></trkpt><trkpt lat="41.5063603" lon="13.2754989"><ele>58.5</ele><time>2026-04-04T09:50:38.265Z</time></trkpt><trkpt lat="41.5063889" lon="13.2756072"><ele>59.33333333333333</ele><time>2026-04-04T09:50:39.28Z</time></trkpt><trkpt lat="41.5064148" lon="13.2757175"><ele>60.166666666666664</ele><time>2026-04-04T09:50:40.26Z</time></trkpt><trkpt lat="41.5064465" lon="13.2758216"><ele>61.0</ele><time>2026-04-04T09:50:41.259Z</time></trkpt><trkpt lat="41.5064905" lon="13.2759205"><ele>63.8</ele><time>2026-04-04T09:50:42.264Z</time></trkpt><trkpt lat="41.5065382" lon="13.2760116"><ele>66.6</ele><time>2026-04-04T09:50:43.263Z</time></trkpt><trkpt lat="41.5066026" lon="13.2760908"><ele>69.4</ele><time>2026-04-04T09:50:44.261Z</time></trkpt><trkpt lat="41.5066631" lon="13.2761821"><ele>72.2</ele><time>2026-04-04T09:50:45.265Z</time></trkpt><trkpt lat="41.5067203" lon="13.2762849"><ele>75.0</ele><time>2026-04-04T09:50:46.264Z</time></trkpt><trkpt lat="41.5067768" lon="13.276391"><ele>75.66666666666667</ele><time>2026-04-04T09:50:47.262Z</time></trkpt><trkpt lat="41.5068267" lon="13.2764946"><ele>76.33333333333333</ele><time>2026-04-04T09:50:48.259Z</time></trkpt><trkpt lat="41.5068573" lon="13.276586"><ele>77.0</ele><time>2026-04-04T09:50:49.267Z</time></trkpt><trkpt lat="41.5068724" lon="13.2766864"><ele>77.66666666666666</ele><time>2026-04-04T09:50:50.26Z</time></trkpt><trkpt lat="41.5068667" lon="13.276791"><ele>78.33333333333333</ele><time>2026-04-04T09:50:51.271Z</time></trkpt><trkpt lat="41.506854" lon="13.2769033"><ele>79.0</ele><time>2026-04-04T09:50:52.265Z</time></trkpt><trkpt lat="41.5068437" lon="13.2770209"><ele>79.0</ele><time>2026-04-04T09:50:53.266Z</time></trkpt><trkpt lat="41.5068461" lon="13.2771507"><ele>79.0</ele><time>2026-04-04T09:50:54.265Z</time></trkpt><trkpt lat="41.50686" lon="13.2772829"><ele>79.0</ele><time>2026-04-04T09:50:55.261Z</time></trkpt><trkpt lat="41.5068765" lon="13.277417"><ele>79.0</ele><time>2026-04-04T09:50:56.26Z</time></trkpt><trkpt lat="41.5068937" lon="13.2775473"><ele>79.0</ele><time>2026-04-04T09:50:57.262Z</time></trkpt><trkpt lat="41.506916" lon="13.2776766"><ele>80.0</ele><time>2026-04-04T09:50:58.264Z</time></trkpt><trkpt lat="41.506942" lon="13.2777986"><ele>81.0</ele><time>2026-04-04T09:50:59.263Z</time></trkpt><trkpt lat="41.5069618" lon="13.2779217"><ele>82.0</ele><time>2026-04-04T09:51:00.259Z</time></trkpt><trkpt lat="41.5069785" lon="13.2780512"><ele>83.0</ele><time>2026-04-04T09:51:01.294Z</time></trkpt><trkpt lat="41.5069989" lon="13.2781725"><ele>84.0</ele><time>2026-04-04T09:51:02.272Z</time></trkpt><trkpt lat="41.5070229" lon="13.2782896"><ele>85.4</ele><time>2026-04-04T09:51:03.267Z</time></trkpt><trkpt lat="41.5070368" lon="13.2784123"><ele>86.80000000000001</ele><time>2026-04-04T09:51:04.262Z</time></trkpt><trkpt lat="41.5070582" lon="13.2785211"><ele>88.19999999999999</ele><time>2026-04-04T09:51:05.27Z</time></trkpt><trkpt lat="41.5070836" lon="13.2786487"><ele>89.6</ele><time>2026-04-04T09:51:06.267Z</time></trkpt><trkpt lat="41.5071118" lon="13.2787743"><ele>91.0</ele><time>2026-04-04T09:51:07.272Z</time></trkpt><trkpt lat="41.5071387" lon="13.2789017"><ele>93.19999999999999</ele><time>2026-04-04T09:51:08.279Z</time></trkpt><trkpt lat="41.5071601" lon="13.2790344"><ele>95.39999999999999</ele><time>2026-04-04T09:51:09.277Z</time></trkpt><trkpt lat="41.5071788" lon="13.2791638"><ele>97.6</ele><time>2026-04-04T09:51:10.26Z</time></trkpt><trkpt lat="41.5072123" lon="13.2792862"><ele>99.8</ele><time>2026-04-04T09:51:11.273Z</time></trkpt><trkpt lat="41.5072416" lon="13.2794102"><ele>102.0</ele><time>2026-04-04T09:51:12.286Z</time></trkpt><trkpt lat="41.5072708" lon="13.2795491"><ele>102.0</ele><time>2026-04-04T09:51:13.274Z</time></trkpt><trkpt lat="41.5073067" lon="13.2796933"><ele>102.0</ele><time>2026-04-04T09:51:14.262Z</time></trkpt><trkpt lat="41.5073492" lon="13.2798362"><ele>102.0</ele><time>2026-04-04T09:51:15.272Z</time></trkpt><trkpt lat="41.5073935" lon="13.279976"><ele>102.0</ele><time>2026-04-04T09:51:16.261Z</time></trkpt><trkpt lat="41.507464" lon="13.2800854"><ele>101.5</ele><time>2026-04-04T09:51:17.267Z</time></trkpt><trkpt lat="41.5075416" lon="13.2801882"><ele>101.0</ele><time>2026-04-04T09:51:18.256Z</time></trkpt><trkpt lat="41.5076218" lon="13.2802837"><ele>100.5</ele><time>2026-04-04T09:51:19.263Z</time></trkpt><trkpt lat="41.5077142" lon="13.2803765"><ele>100.0</ele><time>2026-04-04T09:51:20.258Z</time></trkpt><trkpt lat="41.5078075" lon="13.2804746"><ele>100.0</ele><time>2026-04-04T09:51:21.261Z</time></trkpt><trkpt lat="41.5079015" lon="13.2805709"><ele>100.0</ele><time>2026-04-04T09:51:22.259Z</time></trkpt><trkpt lat="41.5079939" lon="13.2806715"><ele>100.0</ele><time>2026-04-04T09:51:23.262Z</time></trkpt><trkpt lat="41.5080876" lon="13.2807757"><ele>100.0</ele><time>2026-04-04T09:51:24.264Z</time></trkpt><trkpt lat="41.5081605" lon="13.2809122"><ele>100.0</ele><time>2026-04-04T09:51:25.26Z</time></trkpt><trkpt lat="41.508227" lon="13.281073"><ele>100.0</ele><time>2026-04-04T09:51:26.264Z</time></trkpt><trkpt lat="41.5082827" lon="13.281238"><ele>100.0</ele><time>2026-04-04T09:51:27.261Z</time></trkpt><trkpt lat="41.5083264" lon="13.2814176"><ele>100.0</ele><time>2026-04-04T09:51:28.278Z</time></trkpt><trkpt lat="41.5083698" lon="13.2816036"><ele>100.0</ele><time>2026-04-04T09:51:29.266Z</time></trkpt><trkpt lat="41.5083969" lon="13.2818071"><ele>100.0</ele><time>2026-04-04T09:51:30.26Z</time></trkpt><trkpt lat="41.5084182" lon="13.2820131"><ele>100.0</ele><time>2026-04-04T09:51:31.263Z</time></trkpt><trkpt lat="41.5084457" lon="13.2822229"><ele>99.75</ele><time>2026-04-04T09:51:32.257Z</time></trkpt><trkpt lat="41.5084707" lon="13.2824261"><ele>99.5</ele><time>2026-04-04T09:51:33.275Z</time></trkpt><trkpt lat="41.5084969" lon="13.2826145"><ele>99.25</ele><time>2026-04-04T09:51:34.257Z</time></trkpt><trkpt lat="41.508535" lon="13.2827815"><ele>99.0</ele><time>2026-04-04T09:51:35.256Z</time></trkpt><trkpt lat="41.5085776" lon="13.2829214"><ele>99.0</ele><time>2026-04-04T09:51:36.262Z</time></trkpt><trkpt lat="41.5086157" lon="13.2830321"><ele>99.0</ele><time>2026-04-04T09:51:37.256Z</time></trkpt><trkpt lat="41.5086506" lon="13.2831157"><ele>99.0</ele><time>2026-04-04T09:51:38.271Z</time></trkpt><trkpt lat="41.508679" lon="13.2832207"><ele>99.0</ele><time>2026-04-04T09:51:40.259Z</time></trkpt><trkpt lat="41.5085969" lon="13.2832981"><ele>99.0</ele><time>2026-04-04T09:51:43.259Z</time></trkpt><trkpt lat="41.5084711" lon="13.283244"><ele>98.0</ele><time>2026-04-04T09:51:45.259Z</time></trkpt><trkpt lat="41.5083884" lon="13.2832293"><ele>97.0</ele><time>2026-04-04T09:51:46.263Z</time></trkpt><trkpt lat="41.5083111" lon="13.2832421"><ele>96.0</ele><time>2026-04-04T09:51:47.257Z</time></trkpt><trkpt lat="41.5082194" lon="13.2832616"><ele>95.0</ele><time>2026-04-04T09:51:48.251Z</time></trkpt><trkpt lat="41.5081048" lon="13.2832616"><ele>94.0</ele><time>2026-04-04T09:51:49.266Z</time></trkpt><trkpt lat="41.5079746" lon="13.2832304"><ele>93.5</ele><time>2026-04-04T09:51:50.251Z</time></trkpt><trkpt lat="41.5078451" lon="13.2831472"><ele>93.0</ele><time>2026-04-04T09:51:51.256Z</time></trkpt><trkpt lat="41.5077192" lon="13.283063"><ele>92.5</ele><time>2026-04-04T09:51:52.262Z</time></trkpt><trkpt lat="41.5075936" lon="13.283036"><ele>92.0</ele><time>2026-04-04T09:51:53.258Z</time></trkpt><trkpt lat="41.5074859" lon="13.2830256"><ele>92.0</ele><time>2026-04-04T09:51:54.264Z</time></trkpt><trkpt lat="41.5073703" lon="13.2830152"><ele>92.0</ele><time>2026-04-04T09:51:55.285Z</time></trkpt><trkpt lat="41.507259" lon="13.2830095"><ele>92.0</ele><time>2026-04-04T09:51:56.262Z</time></trkpt><trkpt lat="41.5071523" lon="13.2830147"><ele>92.0</ele><time>2026-04-04T09:51:57.265Z</time></trkpt><trkpt lat="41.507049" lon="13.2830367"><ele>92.0</ele><time>2026-04-04T09:51:58.257Z</time></trkpt><trkpt lat="41.5069587" lon="13.2830876"><ele>89.8</ele><time>2026-04-04T09:51:59.255Z</time></trkpt><trkpt lat="41.506863" lon="13.2831459"><ele>87.6</ele><time>2026-04-04T09:52:00.271Z</time></trkpt><trkpt lat="41.5067694" lon="13.2832029"><ele>85.39999999999999</ele><time>2026-04-04T09:52:01.26Z</time></trkpt><trkpt lat="41.5066689" lon="13.2832594"><ele>83.19999999999999</ele><time>2026-04-04T09:52:02.258Z</time></trkpt><trkpt lat="41.5065879" lon="13.2833172"><ele>81.0</ele><time>2026-04-04T09:52:03.256Z</time></trkpt><trkpt lat="41.506495" lon="13.2833558"><ele>81.0</ele><time>2026-04-04T09:52:04.259Z</time></trkpt><trkpt lat="41.5064024" lon="13.2833912"><ele>81.0</ele><time>2026-04-04T09:52:05.255Z</time></trkpt><trkpt lat="41.5063134" lon="13.2834292"><ele>81.0</ele><time>2026-04-04T09:52:06.258Z</time></trkpt><trkpt lat="41.506223" lon="13.2834583"><ele>81.0</ele><time>2026-04-04T09:52:07.252Z</time></trkpt><trkpt lat="41.5061324" lon="13.283487"><ele>81.0</ele><time>2026-04-04T09:52:08.251Z</time></trkpt><trkpt lat="41.5060463" lon="13.2835062"><ele>78.83333333333333</ele><time>2026-04-04T09:52:09.255Z</time></trkpt><trkpt lat="41.5059653" lon="13.2835073"><ele>76.66666666666667</ele><time>2026-04-04T09:52:10.259Z</time></trkpt><trkpt lat="41.5058932" lon="13.2834794"><ele>74.5</ele><time>2026-04-04T09:52:11.266Z</time></trkpt><trkpt lat="41.5058162" lon="13.2834259"><ele>72.33333333333334</ele><time>2026-04-04T09:52:12.259Z</time></trkpt><trkpt lat="41.505725" lon="13.283359"><ele>70.16666666666667</ele><time>2026-04-04T09:52:13.26Z</time></trkpt><trkpt lat="41.5056624" lon="13.2832718"><ele>68.0</ele><time>2026-04-04T09:52:14.267Z</time></trkpt><trkpt lat="41.5056044" lon="13.2831724"><ele>68.4</ele><time>2026-04-04T09:52:15.254Z</time></trkpt><trkpt lat="41.5055669" lon="13.2830764"><ele>68.8</ele><time>2026-04-04T09:52:16.259Z</time></trkpt><trkpt lat="41.5054897" lon="13.2829711"><ele>69.2</ele><time>2026-04-04T09:52:18.26Z</time></trkpt><trkpt lat="41.5053704" lon="13.2829456"><ele>69.6</ele><time>2026-04-04T09:52:20.268Z</time></trkpt><trkpt lat="41.5053092" lon="13.2829034"><ele>70.0</ele><time>2026-04-04T09:52:21.266Z</time></trkpt><trkpt lat="41.5052442" lon="13.2828296"><ele>68.8</ele><time>2026-04-04T09:52:22.258Z</time></trkpt><trkpt lat="41.5051766" lon="13.2827477"><ele>67.6</ele><time>2026-04-04T09:52:23.271Z</time></trkpt><trkpt lat="41.505111" lon="13.2826409"><ele>66.4</ele><time>2026-04-04T09:52:24.261Z</time></trkpt><trkpt lat="41.5050397" lon="13.2825171"><ele>65.2</ele><time>2026-04-04T09:52:25.256Z</time></trkpt><trkpt lat="41.5049675" lon="13.28238"><ele>64.0</ele><time>2026-04-04T09:52:26.262Z</time></trkpt><trkpt lat="41.5049003" lon="13.2822463"><ele>64.0</ele><time>2026-04-04T09:52:27.257Z</time></trkpt><trkpt lat="41.5048302" lon="13.2821289"><ele>64.0</ele><time>2026-04-04T09:52:28.272Z</time></trkpt><trkpt lat="41.504752" lon="13.2820333"><ele>64.0</ele><time>2026-04-04T09:52:29.263Z</time></trkpt><trkpt lat="41.5046594" lon="13.2819618"><ele>64.0</ele><time>2026-04-04T09:52:30.26Z</time></trkpt><trkpt lat="41.5045617" lon="13.2818924"><ele>64.0</ele><time>2026-04-04T09:52:31.264Z</time></trkpt><trkpt lat="41.5044708" lon="13.2818205"><ele>62.6</ele><time>2026-04-04T09:52:32.256Z</time></trkpt><trkpt lat="41.5043836" lon="13.2817557"><ele>61.2</ele><time>2026-04-04T09:52:33.269Z</time></trkpt><trkpt lat="41.5043069" lon="13.2816814"><ele>59.800000000000004</ele><time>2026-04-04T09:52:34.253Z</time></trkpt><trkpt lat="41.5042452" lon="13.2816012"><ele>58.400000000000006</ele><time>2026-04-04T09:52:35.262Z</time></trkpt><trkpt lat="41.50419" lon="13.2814899"><ele>57.0</ele><time>2026-04-04T09:52:36.256Z</time></trkpt><trkpt lat="41.5041294" lon="13.2813571"><ele>56.8</ele><time>2026-04-04T09:52:37.258Z</time></trkpt><trkpt lat="41.5040817" lon="13.281228"><ele>56.6</ele><time>2026-04-04T09:52:38.263Z</time></trkpt><trkpt lat="41.5040423" lon="13.2811174"><ele>56.39999999999999</ele><time>2026-04-04T09:52:39.26Z</time></trkpt><trkpt lat="41.5040103" lon="13.2810395"><ele>56.199999999999996</ele><time>2026-04-04T09:52:40.264Z</time></trkpt><trkpt lat="41.503918" lon="13.2809933"><ele>56.0</ele><time>2026-04-04T09:52:42.26Z</time></trkpt><trkpt lat="41.5037869" lon="13.2810655"><ele>55.4</ele><time>2026-04-04T09:52:44.262Z</time></trkpt><trkpt lat="41.5037025" lon="13.2811288"><ele>54.8</ele><time>2026-04-04T09:52:45.262Z</time></trkpt><trkpt lat="41.5036114" lon="13.281203"><ele>54.199999999999996</ele><time>2026-04-04T09:52:46.26Z</time></trkpt><trkpt lat="41.503542" lon="13.2812876"><ele>53.599999999999994</ele><time>2026-04-04T09:52:47.268Z</time></trkpt><trkpt lat="41.5034972" lon="13.2813834"><ele>53.0</ele><time>2026-04-04T09:52:48.255Z</time></trkpt><trkpt lat="41.5034571" lon="13.2815088"><ele>53.0</ele><time>2026-04-04T09:52:49.27Z</time></trkpt><trkpt lat="41.5034335" lon="13.2816678"><ele>53.0</ele><time>2026-04-04T09:52:50.269Z</time></trkpt><trkpt lat="41.5033912" lon="13.2818294"><ele>53.0</ele><time>2026-04-04T09:52:51.263Z</time></trkpt><trkpt lat="41.5033527" lon="13.2819916"><ele>53.0</ele><time>2026-04-04T09:52:52.262Z</time></trkpt><trkpt lat="41.5032911" lon="13.2821513"><ele>53.66666666666667</ele><time>2026-04-04T09:52:53.255Z</time></trkpt><trkpt lat="41.5032077" lon="13.2823131"><ele>54.33333333333333</ele><time>2026-04-04T09:52:54.268Z</time></trkpt><trkpt lat="41.5031203" lon="13.2824892"><ele>55.0</ele><time>2026-04-04T09:52:55.269Z</time></trkpt><trkpt lat="41.5030414" lon="13.28267"><ele>55.0</ele><time>2026-04-04T09:52:56.26Z</time></trkpt><trkpt lat="41.5029684" lon="13.2828329"><ele>55.0</ele><time>2026-04-04T09:52:57.257Z</time></trkpt><trkpt lat="41.5029044" lon="13.2829969"><ele>55.0</ele><time>2026-04-04T09:52:58.263Z</time></trkpt><trkpt lat="41.5028528" lon="13.2831747"><ele>55.0</ele><time>2026-04-04T09:52:59.26Z</time></trkpt><trkpt lat="41.5028098" lon="13.2833669"><ele>55.0</ele><time>2026-04-04T09:53:00.262Z</time></trkpt><trkpt lat="41.5027746" lon="13.2835627"><ele>55.0</ele><time>2026-04-04T09:53:01.271Z</time></trkpt><trkpt lat="41.5027519" lon="13.2837597"><ele>55.0</ele><time>2026-04-04T09:53:02.261Z</time></trkpt><trkpt lat="41.5027435" lon="13.2839485"><ele>55.0</ele><time>2026-04-04T09:53:03.263Z</time></trkpt><trkpt lat="41.5027418" lon="13.2841205"><ele>55.0</ele><time>2026-04-04T09:53:04.268Z</time></trkpt><trkpt lat="41.5027423" lon="13.2842853"><ele>55.0</ele><time>2026-04-04T09:53:05.265Z</time></trkpt><trkpt lat="41.5027397" lon="13.2844576"><ele>55.0</ele><time>2026-04-04T09:53:06.259Z</time></trkpt><trkpt lat="41.502735" lon="13.2846368"><ele>55.0</ele><time>2026-04-04T09:53:07.255Z</time></trkpt><trkpt lat="41.502734" lon="13.2848156"><ele>55.5</ele><time>2026-04-04T09:53:08.259Z</time></trkpt><trkpt lat="41.5027244" lon="13.2849938"><ele>56.0</ele><time>2026-04-04T09:53:09.261Z</time></trkpt><trkpt lat="41.5027053" lon="13.2851772"><ele>56.5</ele><time>2026-04-04T09:53:10.26Z</time></trkpt><trkpt lat="41.5026836" lon="13.2853571"><ele>57.0</ele><time>2026-04-04T09:53:11.259Z</time></trkpt><trkpt lat="41.5026299" lon="13.285531"><ele>58.0</ele><time>2026-04-04T09:53:12.264Z</time></trkpt><trkpt lat="41.5025543" lon="13.2857019"><ele>59.0</ele><time>2026-04-04T09:53:13.268Z</time></trkpt><trkpt lat="41.5024699" lon="13.2858669"><ele>60.0</ele><time>2026-04-04T09:53:14.264Z</time></trkpt><trkpt lat="41.5023992" lon="13.2860216"><ele>61.0</ele><time>2026-04-04T09:53:15.257Z</time></trkpt><trkpt lat="41.5023474" lon="13.2861796"><ele>61.0</ele><time>2026-04-04T09:53:16.26Z</time></trkpt><trkpt lat="41.5023065" lon="13.2863539"><ele>61.0</ele><time>2026-04-04T09:53:17.274Z</time></trkpt><trkpt lat="41.5022787" lon="13.2865156"><ele>61.0</ele><time>2026-04-04T09:53:18.259Z</time></trkpt><trkpt lat="41.5022499" lon="13.2866504"><ele>61.0</ele><time>2026-04-04T09:53:19.273Z</time></trkpt><trkpt lat="41.5022134" lon="13.2867598"><ele>60.8</ele><time>2026-04-04T09:53:20.258Z</time></trkpt><trkpt lat="41.5021452" lon="13.2868367"><ele>60.599999999999994</ele><time>2026-04-04T09:53:21.26Z</time></trkpt><trkpt lat="41.5020754" lon="13.2869187"><ele>60.4</ele><time>2026-04-04T09:53:22.263Z</time></trkpt><trkpt lat="41.5020196" lon="13.2870347"><ele>60.2</ele><time>2026-04-04T09:53:23.263Z</time></trkpt><trkpt lat="41.5019715" lon="13.2871741"><ele>60.0</ele><time>2026-04-04T09:53:24.262Z</time></trkpt><trkpt lat="41.5019152" lon="13.2873255"><ele>61.5</ele><time>2026-04-04T09:53:25.261Z</time></trkpt><trkpt lat="41.5018591" lon="13.2874899"><ele>63.0</ele><time>2026-04-04T09:53:26.26Z</time></trkpt><trkpt lat="41.5018024" lon="13.2876566"><ele>64.5</ele><time>2026-04-04T09:53:27.263Z</time></trkpt><trkpt lat="41.5017412" lon="13.2878313"><ele>66.0</ele><time>2026-04-04T09:53:28.263Z</time></trkpt><trkpt lat="41.5016885" lon="13.2880123"><ele>67.75</ele><time>2026-04-04T09:53:29.261Z</time></trkpt><trkpt lat="41.501654" lon="13.2881983"><ele>69.5</ele><time>2026-04-04T09:53:30.262Z</time></trkpt><trkpt lat="41.5016335" lon="13.2883856"><ele>71.25</ele><time>2026-04-04T09:53:31.27Z</time></trkpt><trkpt lat="41.5016083" lon="13.2885686"><ele>73.0</ele><time>2026-04-04T09:53:32.257Z</time></trkpt><trkpt lat="41.5015694" lon="13.2887425"><ele>73.0</ele><time>2026-04-04T09:53:33.272Z</time></trkpt><trkpt lat="41.5015166" lon="13.2889042"><ele>73.0</ele><time>2026-04-04T09:53:34.259Z</time></trkpt><trkpt lat="41.5014589" lon="13.2890437"><ele>73.0</ele><time>2026-04-04T09:53:35.254Z</time></trkpt><trkpt lat="41.5013986" lon="13.2891785"><ele>73.0</ele><time>2026-04-04T09:53:36.264Z</time></trkpt><trkpt lat="41.5013469" lon="13.2893268"><ele>74.8</ele><time>2026-04-04T09:53:37.257Z</time></trkpt><trkpt lat="41.5012956" lon="13.2894752"><ele>76.6</ele><time>2026-04-04T09:53:38.274Z</time></trkpt><trkpt lat="41.5012861" lon="13.2896067"><ele>78.39999999999999</ele><time>2026-04-04T09:53:39.261Z</time></trkpt><trkpt lat="41.50128" lon="13.2897034"><ele>80.19999999999999</ele><time>2026-04-04T09:53:40.263Z</time></trkpt><trkpt lat="41.5012486" lon="13.2898301"><ele>82.0</ele><time>2026-04-04T09:53:42.259Z</time></trkpt><trkpt lat="41.5011736" lon="13.289888"><ele>82.6</ele><time>2026-04-04T09:53:44.268Z</time></trkpt><trkpt lat="41.501095" lon="13.2898965"><ele>83.19999999999999</ele><time>2026-04-04T09:53:45.26Z</time></trkpt><trkpt lat="41.5010029" lon="13.2899123"><ele>83.8</ele><time>2026-04-04T09:53:46.255Z</time></trkpt><trkpt lat="41.5008914" lon="13.2899335"><ele>84.4</ele><time>2026-04-04T09:53:47.254Z</time></trkpt><trkpt lat="41.5007609" lon="13.289936"><ele>85.0</ele><time>2026-04-04T09:53:48.262Z</time></trkpt><trkpt lat="41.5006176" lon="13.2899299"><ele>85.0</ele><time>2026-04-04T09:53:49.261Z</time></trkpt><trkpt lat="41.5004692" lon="13.289927"><ele>85.0</ele><time>2026-04-04T09:53:50.265Z</time></trkpt><trkpt lat="41.5003163" lon="13.2899155"><ele>85.0</ele><time>2026-04-04T09:53:51.259Z</time></trkpt><trkpt lat="41.5001533" lon="13.2899065"><ele>84.5</ele><time>2026-04-04T09:53:52.257Z</time></trkpt><trkpt lat="41.4999968" lon="13.2899032"><ele>84.0</ele><time>2026-04-04T09:53:53.261Z</time></trkpt><trkpt lat="41.4998648" lon="13.2899216"><ele>83.5</ele><time>2026-04-04T09:53:54.259Z</time></trkpt><trkpt lat="41.4997522" lon="13.2899631"><ele>83.0</ele><time>2026-04-04T09:53:55.266Z</time></trkpt><trkpt lat="41.4996369" lon="13.2900152"><ele>82.25</ele><time>2026-04-04T09:53:56.256Z</time></trkpt><trkpt lat="41.4995312" lon="13.2901082"><ele>81.5</ele><time>2026-04-04T09:53:57.279Z</time></trkpt><trkpt lat="41.4994192" lon="13.2902143"><ele>80.75</ele><time>2026-04-04T09:53:58.266Z</time></trkpt><trkpt lat="41.4993006" lon="13.2903365"><ele>80.0</ele><time>2026-04-04T09:53:59.267Z</time></trkpt><trkpt lat="41.4991842" lon="13.2904497"><ele>80.0</ele><time>2026-04-04T09:54:00.258Z</time></trkpt><trkpt lat="41.4990522" lon="13.2905518"><ele>80.0</ele><time>2026-04-04T09:54:01.261Z</time></trkpt><trkpt lat="41.4989155" lon="13.2906363"><ele>80.0</ele><time>2026-04-04T09:54:02.258Z</time></trkpt><trkpt lat="41.4987726" lon="13.2907307"><ele>80.33333333333334</ele><time>2026-04-04T09:54:03.259Z</time></trkpt><trkpt lat="41.4986346" lon="13.2908142"><ele>80.66666666666667</ele><time>2026-04-04T09:54:04.264Z</time></trkpt><trkpt lat="41.4984964" lon="13.2908985"><ele>81.0</ele><time>2026-04-04T09:54:05.274Z</time></trkpt><trkpt lat="41.4983518" lon="13.2909693"><ele>81.0</ele><time>2026-04-04T09:54:06.263Z</time></trkpt><trkpt lat="41.4982021" lon="13.2910448"><ele>81.0</ele><time>2026-04-04T09:54:07.259Z</time></trkpt><trkpt lat="41.4980693" lon="13.2911105"><ele>81.0</ele><time>2026-04-04T09:54:08.257Z</time></trkpt><trkpt lat="41.497953" lon="13.2911692"><ele>81.0</ele><time>2026-04-04T09:54:09.266Z</time></trkpt><trkpt lat="41.4978385" lon="13.291225"><ele>79.0</ele><time>2026-04-04T09:54:10.264Z</time></trkpt><trkpt lat="41.4977025" lon="13.2912684"><ele>77.0</ele><time>2026-04-04T09:54:11.261Z</time></trkpt><trkpt lat="41.4975441" lon="13.2912838"><ele>75.0</ele><time>2026-04-04T09:54:12.263Z</time></trkpt><trkpt lat="41.4973774" lon="13.291314"><ele>75.0</ele><time>2026-04-04T09:54:13.261Z</time></trkpt><trkpt lat="41.4972206" lon="13.2913536"><ele>75.0</ele><time>2026-04-04T09:54:14.315Z</time></trkpt><trkpt lat="41.4970599" lon="13.2914101"><ele>75.0</ele><time>2026-04-04T09:54:15.266Z</time></trkpt><trkpt lat="41.4969012" lon="13.2914761"><ele>76.33333333333333</ele><time>2026-04-04T09:54:16.262Z</time></trkpt><trkpt lat="41.4967457" lon="13.2915434"><ele>77.66666666666666</ele><time>2026-04-04T09:54:17.267Z</time></trkpt><trkpt lat="41.4966007" lon="13.2916367"><ele>79.0</ele><time>2026-04-04T09:54:18.252Z</time></trkpt><trkpt lat="41.496472" lon="13.2917301"><ele>79.0</ele><time>2026-04-04T09:54:19.27Z</time></trkpt><trkpt lat="41.4963486" lon="13.2918263"><ele>79.0</ele><time>2026-04-04T09:54:20.262Z</time></trkpt><trkpt lat="41.4962281" lon="13.2919438"><ele>79.0</ele><time>2026-04-04T09:54:21.262Z</time></trkpt><trkpt lat="41.4961157" lon="13.2920788"><ele>79.0</ele><time>2026-04-04T09:54:22.262Z</time></trkpt><trkpt lat="41.4960067" lon="13.2922059"><ele>78.75</ele><time>2026-04-04T09:54:23.26Z</time></trkpt><trkpt lat="41.4958953" lon="13.292318"><ele>78.5</ele><time>2026-04-04T09:54:24.258Z</time></trkpt><trkpt lat="41.495769" lon="13.2924101"><ele>78.25</ele><time>2026-04-04T09:54:25.259Z</time></trkpt><trkpt lat="41.495626" lon="13.2924809"><ele>78.0</ele><time>2026-04-04T09:54:26.257Z</time></trkpt><trkpt lat="41.4954697" lon="13.2925402"><ele>77.0</ele><time>2026-04-04T09:54:27.265Z</time></trkpt><trkpt lat="41.4953099" lon="13.2925897"><ele>76.0</ele><time>2026-04-04T09:54:28.264Z</time></trkpt><trkpt lat="41.4951493" lon="13.2926298"><ele>75.0</ele><time>2026-04-04T09:54:29.257Z</time></trkpt><trkpt lat="41.4950002" lon="13.2926698"><ele>75.0</ele><time>2026-04-04T09:54:30.261Z</time></trkpt><trkpt lat="41.4948614" lon="13.292694"><ele>75.0</ele><time>2026-04-04T09:54:31.261Z</time></trkpt><trkpt lat="41.4947168" lon="13.2926935"><ele>75.0</ele><time>2026-04-04T09:54:32.261Z</time></trkpt><trkpt lat="41.4945622" lon="13.292695"><ele>75.0</ele><time>2026-04-04T09:54:33.26Z</time></trkpt><trkpt lat="41.4943993" lon="13.2927034"><ele>73.33333333333333</ele><time>2026-04-04T09:54:34.265Z</time></trkpt><trkpt lat="41.4942467" lon="13.2927115"><ele>71.66666666666666</ele><time>2026-04-04T09:54:35.259Z</time></trkpt><trkpt lat="41.4940752" lon="13.2927012"><ele>70.0</ele><time>2026-04-04T09:54:36.256Z</time></trkpt><trkpt lat="41.4939072" lon="13.2926856"><ele>68.33333333333333</ele><time>2026-04-04T09:54:37.262Z</time></trkpt><trkpt lat="41.4937486" lon="13.2926705"><ele>66.66666666666667</ele><time>2026-04-04T09:54:38.255Z</time></trkpt><trkpt lat="41.4935968" lon="13.2926597"><ele>65.0</ele><time>2026-04-04T09:54:39.274Z</time></trkpt><trkpt lat="41.4934577" lon="13.2926545"><ele>65.0</ele><time>2026-04-04T09:54:40.267Z</time></trkpt><trkpt lat="41.4933244" lon="13.2926602"><ele>65.0</ele><time>2026-04-04T09:54:41.254Z</time></trkpt><trkpt lat="41.4931885" lon="13.2926637"><ele>65.0</ele><time>2026-04-04T09:54:42.261Z</time></trkpt><trkpt lat="41.4930514" lon="13.2926864"><ele>65.0</ele><time>2026-04-04T09:54:43.252Z</time></trkpt><trkpt lat="41.4929236" lon="13.2927055"><ele>63.5</ele><time>2026-04-04T09:54:44.292Z</time></trkpt><trkpt lat="41.492799" lon="13.2927229"><ele>62.0</ele><time>2026-04-04T09:54:45.262Z</time></trkpt><trkpt lat="41.4926621" lon="13.2927374"><ele>60.5</ele><time>2026-04-04T09:54:46.255Z</time></trkpt><trkpt lat="41.492536" lon="13.2927273"><ele>59.0</ele><time>2026-04-04T09:54:47.262Z</time></trkpt><trkpt lat="41.4924118" lon="13.2927159"><ele>59.0</ele><time>2026-04-04T09:54:48.261Z</time></trkpt><trkpt lat="41.4922946" lon="13.2927026"><ele>59.00000000000001</ele><time>2026-04-04T09:54:49.27Z</time></trkpt><trkpt lat="41.4921876" lon="13.2926885"><ele>59.00000000000001</ele><time>2026-04-04T09:54:50.262Z</time></trkpt><trkpt lat="41.4920941" lon="13.2926593"><ele>59.0</ele><time>2026-04-04T09:54:51.259Z</time></trkpt><trkpt lat="41.4920115" lon="13.2926166"><ele>59.0</ele><time>2026-04-04T09:54:52.26Z</time></trkpt><trkpt lat="41.491932" lon="13.2925655"><ele>58.833333333333336</ele><time>2026-04-04T09:54:53.267Z</time></trkpt><trkpt lat="41.4918647" lon="13.2924738"><ele>58.66666666666667</ele><time>2026-04-04T09:54:54.258Z</time></trkpt><trkpt lat="41.4918071" lon="13.2923952"><ele>58.5</ele><time>2026-04-04T09:54:55.266Z</time></trkpt><trkpt lat="41.4917506" lon="13.2923308"><ele>58.33333333333333</ele><time>2026-04-04T09:54:56.259Z</time></trkpt><trkpt lat="41.4916756" lon="13.2923225"><ele>58.166666666666664</ele><time>2026-04-04T09:54:57.265Z</time></trkpt><trkpt lat="41.4915868" lon="13.2923546"><ele>58.0</ele><time>2026-04-04T09:54:58.255Z</time></trkpt><trkpt lat="41.4914896" lon="13.2924164"><ele>58.0</ele><time>2026-04-04T09:54:59.265Z</time></trkpt><trkpt lat="41.491377" lon="13.2924869"><ele>58.0</ele><time>2026-04-04T09:55:00.261Z</time></trkpt><trkpt lat="41.4912617" lon="13.2925543"><ele>58.0</ele><time>2026-04-04T09:55:01.262Z</time></trkpt><trkpt lat="41.4911467" lon="13.292626"><ele>58.0</ele><time>2026-04-04T09:55:02.277Z</time></trkpt><trkpt lat="41.4910296" lon="13.2926968"><ele>58.0</ele><time>2026-04-04T09:55:03.256Z</time></trkpt><trkpt lat="41.4909155" lon="13.2927656"><ele>58.0</ele><time>2026-04-04T09:55:04.26Z</time></trkpt><trkpt lat="41.4908249" lon="13.2928246"><ele>58.0</ele><time>2026-04-04T09:55:05.253Z</time></trkpt><trkpt lat="41.4907481" lon="13.2928673"><ele>58.0</ele><time>2026-04-04T09:55:06.259Z</time></trkpt><trkpt lat="41.4906263" lon="13.2928695"><ele>58.0</ele><time>2026-04-04T09:55:08.261Z</time></trkpt><trkpt lat="41.4905581" lon="13.2928235"><ele>58.0</ele><time>2026-04-04T09:55:09.258Z</time></trkpt><trkpt lat="41.4904861" lon="13.2927424"><ele>58.0</ele><time>2026-04-04T09:55:10.269Z</time></trkpt><trkpt lat="41.4904078" lon="13.2926492"><ele>58.0</ele><time>2026-04-04T09:55:11.262Z</time></trkpt><trkpt lat="41.4903154" lon="13.2925417"><ele>58.0</ele><time>2026-04-04T09:55:12.263Z</time></trkpt><trkpt lat="41.490216" lon="13.2924217"><ele>58.25</ele><time>2026-04-04T09:55:13.261Z</time></trkpt><trkpt lat="41.4901086" lon="13.2923046"><ele>58.5</ele><time>2026-04-04T09:55:14.267Z</time></trkpt><trkpt lat="41.4899982" lon="13.2921898"><ele>58.75</ele><time>2026-04-04T09:55:15.259Z</time></trkpt><trkpt lat="41.4898741" lon="13.2920719"><ele>59.0</ele><time>2026-04-04T09:55:16.267Z</time></trkpt><trkpt lat="41.4897436" lon="13.2919523"><ele>59.0</ele><time>2026-04-04T09:55:17.27Z</time></trkpt><trkpt lat="41.4896099" lon="13.2918162"><ele>59.0</ele><time>2026-04-04T09:55:18.261Z</time></trkpt><trkpt lat="41.4894731" lon="13.2916768"><ele>59.0</ele><time>2026-04-04T09:55:19.277Z</time></trkpt><trkpt lat="41.4893368" lon="13.2915452"><ele>59.333333333333336</ele><time>2026-04-04T09:55:20.259Z</time></trkpt><trkpt lat="41.4892001" lon="13.2914115"><ele>59.66666666666667</ele><time>2026-04-04T09:55:21.258Z</time></trkpt><trkpt lat="41.4890631" lon="13.2912742"><ele>60.0</ele><time>2026-04-04T09:55:22.252Z</time></trkpt><trkpt lat="41.4889243" lon="13.2911374"><ele>60.0</ele><time>2026-04-04T09:55:23.255Z</time></trkpt><trkpt lat="41.4887857" lon="13.2910018"><ele>60.0</ele><time>2026-04-04T09:55:24.256Z</time></trkpt><trkpt lat="41.4886546" lon="13.2908745"><ele>60.0</ele><time>2026-04-04T09:55:25.262Z</time></trkpt><trkpt lat="41.4885337" lon="13.2907586"><ele>60.5</ele><time>2026-04-04T09:55:26.266Z</time></trkpt><trkpt lat="41.4884136" lon="13.290653"><ele>61.0</ele><time>2026-04-04T09:55:27.26Z</time></trkpt><trkpt lat="41.4883016" lon="13.2905528"><ele>61.5</ele><time>2026-04-04T09:55:28.267Z</time></trkpt><trkpt lat="41.4882016" lon="13.2904653"><ele>62.0</ele><time>2026-04-04T09:55:29.264Z</time></trkpt><trkpt lat="41.4881161" lon="13.2903883"><ele>62.00000000000001</ele><time>2026-04-04T09:55:30.257Z</time></trkpt><trkpt lat="41.4880486" lon="13.290341"><ele>62.0</ele><time>2026-04-04T09:55:31.269Z</time></trkpt><trkpt lat="41.487988" lon="13.2903113"><ele>62.0</ele><time>2026-04-04T09:55:32.258Z</time></trkpt><trkpt lat="41.4878857" lon="13.2903419"><ele>62.0</ele><time>2026-04-04T09:55:34.263Z</time></trkpt><trkpt lat="41.4878042" lon="13.2904422"><ele>62.00000000000001</ele><time>2026-04-04T09:55:36.266Z</time></trkpt><trkpt lat="41.4877536" lon="13.290544"><ele>62.0</ele><time>2026-04-04T09:55:37.261Z</time></trkpt><trkpt lat="41.4876799" lon="13.2906392"><ele>62.833333333333336</ele><time>2026-04-04T09:55:38.257Z</time></trkpt><trkpt lat="41.4876336" lon="13.2907297"><ele>63.66666666666667</ele><time>2026-04-04T09:55:39.269Z</time></trkpt><trkpt lat="41.4875992" lon="13.2908239"><ele>64.5</ele><time>2026-04-04T09:55:40.26Z</time></trkpt><trkpt lat="41.487596" lon="13.2909349"><ele>65.33333333333333</ele><time>2026-04-04T09:55:41.275Z</time></trkpt><trkpt lat="41.4876027" lon="13.2910514"><ele>66.16666666666666</ele><time>2026-04-04T09:55:42.26Z</time></trkpt><trkpt lat="41.4876081" lon="13.2911762"><ele>67.0</ele><time>2026-04-04T09:55:43.271Z</time></trkpt><trkpt lat="41.4875912" lon="13.2913015"><ele>67.0</ele><time>2026-04-04T09:55:44.257Z</time></trkpt><trkpt lat="41.4875613" lon="13.2914008"><ele>67.0</ele><time>2026-04-04T09:55:45.254Z</time></trkpt><trkpt lat="41.4875171" lon="13.291472"><ele>67.0</ele><time>2026-04-04T09:55:46.258Z</time></trkpt><trkpt lat="41.4874396" lon="13.2915276"><ele>67.0</ele><time>2026-04-04T09:55:47.265Z</time></trkpt><trkpt lat="41.4873448" lon="13.2915646"><ele>67.0</ele><time>2026-04-04T09:55:48.274Z</time></trkpt><trkpt lat="41.4872457" lon="13.291599"><ele>67.0</ele><time>2026-04-04T09:55:49.26Z</time></trkpt><trkpt lat="41.4871522" lon="13.2916172"><ele>67.6</ele><time>2026-04-04T09:55:50.256Z</time></trkpt><trkpt lat="41.4870776" lon="13.2916264"><ele>68.2</ele><time>2026-04-04T09:55:51.256Z</time></trkpt><trkpt lat="41.4869797" lon="13.2916997"><ele>68.8</ele><time>2026-04-04T09:55:53.255Z</time></trkpt><trkpt lat="41.486962" lon="13.2918455"><ele>69.4</ele><time>2026-04-04T09:55:55.26Z</time></trkpt><trkpt lat="41.4870297" lon="13.2919943"><ele>70.0</ele><time>2026-04-04T09:55:57.268Z</time></trkpt><trkpt lat="41.4870755" lon="13.2921231"><ele>71.0</ele><time>2026-04-04T09:55:58.26Z</time></trkpt><trkpt lat="41.4871179" lon="13.2922758"><ele>72.0</ele><time>2026-04-04T09:55:59.259Z</time></trkpt><trkpt lat="41.4871688" lon="13.2924238"><ele>73.0</ele><time>2026-04-04T09:56:00.263Z</time></trkpt><trkpt lat="41.4872231" lon="13.2925849"><ele>74.0</ele><time>2026-04-04T09:56:01.257Z</time></trkpt><trkpt lat="41.4872853" lon="13.2927415"><ele>74.0</ele><time>2026-04-04T09:56:02.263Z</time></trkpt><trkpt lat="41.4873396" lon="13.2929066"><ele>74.0</ele><time>2026-04-04T09:56:03.256Z</time></trkpt><trkpt lat="41.4873931" lon="13.2930783"><ele>74.0</ele><time>2026-04-04T09:56:04.263Z</time></trkpt><trkpt lat="41.4874522" lon="13.2932488"><ele>74.0</ele><time>2026-04-04T09:56:05.259Z</time></trkpt><trkpt lat="41.4875064" lon="13.2934159"><ele>75.25</ele><time>2026-04-04T09:56:06.261Z</time></trkpt><trkpt lat="41.4875687" lon="13.293586"><ele>76.5</ele><time>2026-04-04T09:56:07.257Z</time></trkpt><trkpt lat="41.487624" lon="13.2937604"><ele>77.75</ele><time>2026-04-04T09:56:08.258Z</time></trkpt><trkpt lat="41.4876857" lon="13.2939436"><ele>79.0</ele><time>2026-04-04T09:56:09.255Z</time></trkpt><trkpt lat="41.48773" lon="13.2941149"><ele>79.2</ele><time>2026-04-04T09:56:10.257Z</time></trkpt><trkpt lat="41.4877753" lon="13.2942677"><ele>79.4</ele><time>2026-04-04T09:56:11.256Z</time></trkpt><trkpt lat="41.4878348" lon="13.2943885"><ele>79.6</ele><time>2026-04-04T09:56:12.26Z</time></trkpt><trkpt lat="41.4878858" lon="13.2944827"><ele>79.8</ele><time>2026-04-04T09:56:13.267Z</time></trkpt><trkpt lat="41.4879387" lon="13.2946016"><ele>80.0</ele><time>2026-04-04T09:56:15.258Z</time></trkpt><trkpt lat="41.4879953" lon="13.2947541"><ele>80.33333333333334</ele><time>2026-04-04T09:57:06.258Z</time></trkpt><trkpt lat="41.4880556" lon="13.2948801"><ele>80.66666666666667</ele><time>2026-04-04T09:57:08.263Z</time></trkpt><trkpt lat="41.4880939" lon="13.2949563"><ele>81.0</ele><time>2026-04-04T09:57:09.265Z</time></trkpt><trkpt lat="41.4881319" lon="13.2950387"><ele>81.33333333333333</ele><time>2026-04-04T09:57:10.262Z</time></trkpt><trkpt lat="41.4881693" lon="13.2951351"><ele>81.66666666666666</ele><time>2026-04-04T09:57:11.264Z</time></trkpt><trkpt lat="41.4882106" lon="13.2952569"><ele>82.0</ele><time>2026-04-04T09:57:12.262Z</time></trkpt><trkpt lat="41.4882483" lon="13.2953793"><ele>82.0</ele><time>2026-04-04T09:57:13.26Z</time></trkpt><trkpt lat="41.4882764" lon="13.2954816"><ele>82.0</ele><time>2026-04-04T09:57:14.263Z</time></trkpt><trkpt lat="41.4883159" lon="13.2955575"><ele>82.0</ele><time>2026-04-04T09:57:15.259Z</time></trkpt><trkpt lat="41.488429" lon="13.2956615"><ele>82.0</ele><time>2026-04-04T09:57:17.263Z</time></trkpt><trkpt lat="41.4884644" lon="13.2957589"><ele>82.0</ele><time>2026-04-04T09:57:18.261Z</time></trkpt><trkpt lat="41.4884979" lon="13.2958423"><ele>82.0</ele><time>2026-04-04T09:57:19.259Z</time></trkpt><trkpt lat="41.4885336" lon="13.2960025"><ele>82.33333333333333</ele><time>2026-04-04T09:57:21.257Z</time></trkpt><trkpt lat="41.4885479" lon="13.2960957"><ele>82.66666666666666</ele><time>2026-04-04T09:57:22.258Z</time></trkpt><trkpt lat="41.4885615" lon="13.2961843"><ele>83.0</ele><time>2026-04-04T09:57:23.263Z</time></trkpt><trkpt lat="41.4885554" lon="13.296286"><ele>83.33333333333333</ele><time>2026-04-04T09:57:24.26Z</time></trkpt><trkpt lat="41.4885519" lon="13.2963755"><ele>83.66666666666667</ele><time>2026-04-04T09:57:25.27Z</time></trkpt><trkpt lat="41.4885402" lon="13.2965105"><ele>84.0</ele><time>2026-04-04T09:57:27.255Z</time></trkpt><trkpt lat="41.48857" lon="13.2965978"><ele>84.2</ele><time>2026-04-04T09:57:31.258Z</time></trkpt><trkpt lat="41.4885803" lon="13.2967007"><ele>84.4</ele><time>2026-04-04T09:57:38.268Z</time></trkpt><trkpt lat="41.4886005" lon="13.2968185"><ele>84.6</ele><time>2026-04-04T09:57:40.266Z</time></trkpt><trkpt lat="41.4886247" lon="13.2969556"><ele>84.8</ele><time>2026-04-04T09:57:59.257Z</time></trkpt><trkpt lat="41.4886598" lon="13.297063"><ele>85.0</ele><time>2026-04-04T09:58:01.26Z</time></trkpt><trkpt lat="41.4887019" lon="13.2972143"><ele>85.2</ele><time>2026-04-04T09:58:03.261Z</time></trkpt><trkpt lat="41.488755" lon="13.2973298"><ele>85.4</ele><time>2026-04-04T09:58:05.258Z</time></trkpt><trkpt lat="41.4888258" lon="13.2974238"><ele>85.6</ele><time>2026-04-04T09:58:07.276Z</time></trkpt><trkpt lat="41.4888721" lon="13.297531"><ele>85.8</ele><time>2026-04-04T09:58:09.26Z</time></trkpt><trkpt lat="41.488908" lon="13.2976467"><ele>86.0</ele><time>2026-04-04T09:58:11.261Z</time></trkpt><trkpt lat="41.4889578" lon="13.2977857"><ele>85.19999999999999</ele><time>2026-04-04T09:58:13.258Z</time></trkpt><trkpt lat="41.4890226" lon="13.2979013"><ele>84.39999999999999</ele><time>2026-04-04T09:58:15.268Z</time></trkpt><trkpt lat="41.4890897" lon="13.2979982"><ele>83.6</ele><time>2026-04-04T09:58:17.261Z</time></trkpt><trkpt lat="41.4891497" lon="13.2980729"><ele>82.8</ele><time>2026-04-04T09:58:19.268Z</time></trkpt><trkpt lat="41.4892072" lon="13.298174"><ele>82.0</ele><time>2026-04-04T09:58:21.269Z</time></trkpt><trkpt lat="41.4892329" lon="13.2983365"><ele>82.0</ele><time>2026-04-04T09:58:23.258Z</time></trkpt><trkpt lat="41.4892559" lon="13.2984964"><ele>82.0</ele><time>2026-04-04T09:58:25.267Z</time></trkpt><trkpt lat="41.4892778" lon="13.2986267"><ele>82.0</ele><time>2026-04-04T09:58:27.259Z</time></trkpt><trkpt lat="41.4892674" lon="13.2987279"><ele>82.0</ele><time>2026-04-04T09:58:29.271Z</time></trkpt><trkpt lat="41.4892947" lon="13.2988221"><ele>82.0</ele><time>2026-04-04T09:58:31.252Z</time></trkpt><trkpt lat="41.4893028" lon="13.2989701"><ele>82.16666666666666</ele><time>2026-04-04T09:58:33.264Z</time></trkpt><trkpt lat="41.4893124" lon="13.2990652"><ele>82.33333333333333</ele><time>2026-04-04T09:58:34.257Z</time></trkpt><trkpt lat="41.4893254" lon="13.2991586"><ele>82.5</ele><time>2026-04-04T09:58:35.277Z</time></trkpt><trkpt lat="41.4893376" lon="13.2992836"><ele>82.66666666666667</ele><time>2026-04-04T09:58:36.262Z</time></trkpt><trkpt lat="41.4893508" lon="13.2993918"><ele>82.83333333333334</ele><time>2026-04-04T09:58:37.26Z</time></trkpt><trkpt lat="41.4893482" lon="13.2994921"><ele>83.0</ele><time>2026-04-04T09:58:38.264Z</time></trkpt><trkpt lat="41.4893415" lon="13.2995992"><ele>83.0</ele><time>2026-04-04T09:58:39.257Z</time></trkpt><trkpt lat="41.4893406" lon="13.2997099"><ele>83.0</ele><time>2026-04-04T09:58:40.259Z</time></trkpt><trkpt lat="41.4893517" lon="13.2998104"><ele>83.0</ele><time>2026-04-04T09:58:41.264Z</time></trkpt><trkpt lat="41.4893707" lon="13.2999153"><ele>83.0</ele><time>2026-04-04T09:58:42.254Z</time></trkpt><trkpt lat="41.4894004" lon="13.3000145"><ele>83.0</ele><time>2026-04-04T09:58:43.27Z</time></trkpt><trkpt lat="41.4894416" lon="13.3001157"><ele>83.0</ele><time>2026-04-04T09:58:44.256Z</time></trkpt><trkpt lat="41.4894782" lon="13.3002204"><ele>82.83333333333334</ele><time>2026-04-04T09:58:45.262Z</time></trkpt><trkpt lat="41.4895039" lon="13.3003279"><ele>82.66666666666667</ele><time>2026-04-04T09:58:46.256Z</time></trkpt><trkpt lat="41.4895203" lon="13.3004272"><ele>82.5</ele><time>2026-04-04T09:58:47.26Z</time></trkpt><trkpt lat="41.4895394" lon="13.300516"><ele>82.33333333333333</ele><time>2026-04-04T09:58:48.259Z</time></trkpt><trkpt lat="41.4895858" lon="13.3006097"><ele>82.16666666666666</ele><time>2026-04-04T09:58:49.258Z</time></trkpt><trkpt lat="41.4896557" lon="13.3006989"><ele>82.0</ele><time>2026-04-04T09:58:50.257Z</time></trkpt><trkpt lat="41.4897227" lon="13.3007726"><ele>82.0</ele><time>2026-04-04T09:58:51.26Z</time></trkpt><trkpt lat="41.4898006" lon="13.3008519"><ele>82.0</ele><time>2026-04-04T09:58:53.259Z</time></trkpt><trkpt lat="41.4898869" lon="13.3009001"><ele>82.0</ele><time>2026-04-04T09:58:55.26Z</time></trkpt><trkpt lat="41.4899807" lon="13.3010012"><ele>82.0</ele><time>2026-04-04T09:58:57.257Z</time></trkpt><trkpt lat="41.4900244" lon="13.3010811"><ele>82.0</ele><time>2026-04-04T09:58:58.274Z</time></trkpt><trkpt lat="41.4900961" lon="13.3011964"><ele>82.0</ele><time>2026-04-04T09:59:00.264Z</time></trkpt><trkpt lat="41.4901279" lon="13.3013006"><ele>82.0</ele><time>2026-04-04T09:59:02.256Z</time></trkpt><trkpt lat="41.4901614" lon="13.3013763"><ele>82.0</ele><time>2026-04-04T09:59:04.255Z</time></trkpt><trkpt lat="41.4902021" lon="13.3014653"><ele>82.0</ele><time>2026-04-04T09:59:06.255Z</time></trkpt><trkpt lat="41.4902324" lon="13.3015577"><ele>82.0</ele><time>2026-04-04T09:59:08.258Z</time></trkpt><trkpt lat="41.4902902" lon="13.3016091"><ele>82.0</ele><time>2026-04-04T09:59:10.256Z</time></trkpt><trkpt lat="41.4903841" lon="13.3016712"><ele>81.8</ele><time>2026-04-04T09:59:12.261Z</time></trkpt><trkpt lat="41.4904652" lon="13.3017505"><ele>81.6</ele><time>2026-04-04T09:59:14.259Z</time></trkpt><trkpt lat="41.4905079" lon="13.3018131"><ele>81.39999999999999</ele><time>2026-04-04T09:59:15.265Z</time></trkpt><trkpt lat="41.4905839" lon="13.3019613"><ele>81.19999999999999</ele><time>2026-04-04T09:59:17.261Z</time></trkpt><trkpt lat="41.4906237" lon="13.3020281"><ele>81.0</ele><time>2026-04-04T09:59:18.259Z</time></trkpt><trkpt lat="41.490674" lon="13.3021882"><ele>80.14285714285714</ele><time>2026-04-04T09:59:20.258Z</time></trkpt><trkpt lat="41.4906992" lon="13.3022978"><ele>79.28571428571428</ele><time>2026-04-04T09:59:21.257Z</time></trkpt><trkpt lat="41.4907281" lon="13.3024014"><ele>78.42857142857142</ele><time>2026-04-04T09:59:22.26Z</time></trkpt><trkpt lat="41.4907521" lon="13.3024848"><ele>77.57142857142857</ele><time>2026-04-04T09:59:23.262Z</time></trkpt><trkpt lat="41.4907796" lon="13.3025648"><ele>76.71428571428571</ele><time>2026-04-04T09:59:24.265Z</time></trkpt><trkpt lat="41.4908214" lon="13.3026431"><ele>75.85714285714285</ele><time>2026-04-04T09:59:25.275Z</time></trkpt><trkpt lat="41.4908563" lon="13.3027246"><ele>75.0</ele><time>2026-04-04T09:59:26.256Z</time></trkpt><trkpt lat="41.4909164" lon="13.3028597"><ele>75.0</ele><time>2026-04-04T09:59:28.265Z</time></trkpt><trkpt lat="41.4909512" lon="13.3029745"><ele>75.0</ele><time>2026-04-04T09:59:30.256Z</time></trkpt><trkpt lat="41.4909219" lon="13.3030528"><ele>75.0</ele><time>2026-04-04T09:59:32.26Z</time></trkpt><trkpt lat="41.4908554" lon="13.3031012"><ele>75.0</ele><time>2026-04-04T09:59:34.256Z</time></trkpt><trkpt lat="41.4908975" lon="13.3031673"><ele>75.0</ele><time>2026-04-04T09:59:41.258Z</time></trkpt><trkpt lat="41.491014" lon="13.3032148"><ele>75.0</ele><time>2026-04-04T09:59:43.258Z</time></trkpt><trkpt lat="41.4910916" lon="13.3032631"><ele>75.0</ele><time>2026-04-04T09:59:44.258Z</time></trkpt><trkpt lat="41.4911802" lon="13.3033188"><ele>75.0</ele><time>2026-04-04T09:59:45.271Z</time></trkpt><trkpt lat="41.4912601" lon="13.3033788"><ele>75.0</ele><time>2026-04-04T09:59:46.265Z</time></trkpt><trkpt lat="41.4913357" lon="13.3034271"><ele>75.0</ele><time>2026-04-04T09:59:47.258Z</time></trkpt><trkpt lat="41.4914055" lon="13.3034656"><ele>75.0</ele><time>2026-04-04T09:59:48.261Z</time></trkpt><trkpt lat="41.4914656" lon="13.3035008"><ele>75.0</ele><time>2026-04-04T09:59:49.261Z</time></trkpt><trkpt lat="41.4915404" lon="13.3035602"><ele>75.0</ele><time>2026-04-04T09:59:53.262Z</time></trkpt><trkpt lat="41.4916009" lon="13.3036739"><ele>75.0</ele><time>2026-04-04T09:59:56.268Z</time></trkpt><trkpt lat="41.4916455" lon="13.303767"><ele>75.0</ele><time>2026-04-04T09:59:58.257Z</time></trkpt><trkpt lat="41.4917325" lon="13.3038618"><ele>75.0</ele><time>2026-04-04T10:00:01.255Z</time></trkpt><trkpt lat="41.4918117" lon="13.3039524"><ele>75.0</ele><time>2026-04-04T10:00:03.257Z</time></trkpt><trkpt lat="41.4918595" lon="13.3040153"><ele>75.5</ele><time>2026-04-04T10:00:05.258Z</time></trkpt><trkpt lat="41.4918603" lon="13.30411"><ele>76.0</ele><time>2026-04-04T10:00:09.276Z</time></trkpt><trkpt lat="41.491782" lon="13.3041134"><ele>76.5</ele><time>2026-04-04T10:00:12.258Z</time></trkpt><trkpt lat="41.4917017" lon="13.3041607"><ele>77.0</ele><time>2026-04-04T10:00:15.27Z</time></trkpt><trkpt lat="41.4916202" lon="13.3041959"><ele>77.5</ele><time>2026-04-04T10:00:18.263Z</time></trkpt><trkpt lat="41.4915403" lon="13.3042337"><ele>78.0</ele><time>2026-04-04T10:00:20.265Z</time></trkpt><trkpt lat="41.4914659" lon="13.3042734"><ele>78.0</ele><time>2026-04-04T10:00:22.257Z</time></trkpt><trkpt lat="41.4913971" lon="13.3043534"><ele>78.0</ele><time>2026-04-04T10:00:24.267Z</time></trkpt><trkpt lat="41.4913855" lon="13.3045047"><ele>78.0</ele><time>2026-04-04T10:00:26.263Z</time></trkpt><trkpt lat="41.4913923" lon="13.3046059"><ele>78.0</ele><time>2026-04-04T10:00:27.261Z</time></trkpt><trkpt lat="41.4914063" lon="13.3047259"><ele>78.0</ele><time>2026-04-04T10:00:28.261Z</time></trkpt><trkpt lat="41.4914383" lon="13.304882"><ele>77.75</ele><time>2026-04-04T10:00:29.268Z</time></trkpt><trkpt lat="41.4914831" lon="13.3050505"><ele>77.5</ele><time>2026-04-04T10:00:30.261Z</time></trkpt><trkpt lat="41.4915209" lon="13.3052131"><ele>77.25</ele><time>2026-04-04T10:00:31.256Z</time></trkpt><trkpt lat="41.4915743" lon="13.3053684"><ele>77.0</ele><time>2026-04-04T10:00:32.273Z</time></trkpt><trkpt lat="41.4916455" lon="13.3055341"><ele>76.0</ele><time>2026-04-04T10:00:33.256Z</time></trkpt><trkpt lat="41.4917124" lon="13.3057146"><ele>75.0</ele><time>2026-04-04T10:00:34.26Z</time></trkpt><trkpt lat="41.49177" lon="13.3059073"><ele>74.0</ele><time>2026-04-04T10:00:35.26Z</time></trkpt><trkpt lat="41.4918314" lon="13.3061043"><ele>74.0</ele><time>2026-04-04T10:00:36.258Z</time></trkpt><trkpt lat="41.4918969" lon="13.3062885"><ele>74.0</ele><time>2026-04-04T10:00:37.271Z</time></trkpt><trkpt lat="41.4919701" lon="13.3064479"><ele>74.0</ele><time>2026-04-04T10:00:38.259Z</time></trkpt><trkpt lat="41.492041" lon="13.3065902"><ele>74.0</ele><time>2026-04-04T10:00:39.266Z</time></trkpt><trkpt lat="41.4921191" lon="13.3067198"><ele>75.0</ele><time>2026-04-04T10:00:40.26Z</time></trkpt><trkpt lat="41.4922315" lon="13.3068136"><ele>76.0</ele><time>2026-04-04T10:00:41.266Z</time></trkpt><trkpt lat="41.4923558" lon="13.3069034"><ele>77.0</ele><time>2026-04-04T10:00:42.266Z</time></trkpt><trkpt lat="41.4924745" lon="13.3070167"><ele>78.0</ele><time>2026-04-04T10:00:43.258Z</time></trkpt><trkpt lat="41.4925825" lon="13.3071459"><ele>77.75</ele><time>2026-04-04T10:00:44.257Z</time></trkpt><trkpt lat="41.492686" lon="13.3072922"><ele>77.5</ele><time>2026-04-04T10:00:45.262Z</time></trkpt><trkpt lat="41.4927962" lon="13.3074336"><ele>77.25</ele><time>2026-04-04T10:00:46.259Z</time></trkpt><trkpt lat="41.4928964" lon="13.3075178"><ele>77.0</ele><time>2026-04-04T10:00:47.271Z</time></trkpt><trkpt lat="41.4929984" lon="13.3075971"><ele>77.0</ele><time>2026-04-04T10:00:48.259Z</time></trkpt><trkpt lat="41.4930975" lon="13.3076504"><ele>77.0</ele><time>2026-04-04T10:00:49.252Z</time></trkpt><trkpt lat="41.4931855" lon="13.3076725"><ele>77.0</ele><time>2026-04-04T10:00:50.262Z</time></trkpt><trkpt lat="41.4932616" lon="13.3076663"><ele>77.0</ele><time>2026-04-04T10:00:51.261Z</time></trkpt><trkpt lat="41.4933456" lon="13.3076714"><ele>77.0</ele><time>2026-04-04T10:00:52.254Z</time></trkpt><trkpt lat="41.4934235" lon="13.3076989"><ele>77.0</ele><time>2026-04-04T10:00:53.267Z</time></trkpt><trkpt lat="41.4934961" lon="13.3077759"><ele>77.0</ele><time>2026-04-04T10:00:54.264Z</time></trkpt><trkpt lat="41.4935501" lon="13.307878"><ele>77.0</ele><time>2026-04-04T10:00:55.253Z</time></trkpt><trkpt lat="41.4936057" lon="13.3079996"><ele>77.0</ele><time>2026-04-04T10:00:56.263Z</time></trkpt><trkpt lat="41.4936328" lon="13.3081587"><ele>77.0</ele><time>2026-04-04T10:00:57.263Z</time></trkpt><trkpt lat="41.493643" lon="13.308317"><ele>77.0</ele><time>2026-04-04T10:00:58.255Z</time></trkpt><trkpt lat="41.4936284" lon="13.30849"><ele>76.0</ele><time>2026-04-04T10:00:59.259Z</time></trkpt><trkpt lat="41.4936057" lon="13.3086515"><ele>75.0</ele><time>2026-04-04T10:01:00.255Z</time></trkpt><trkpt lat="41.4936021" lon="13.308806"><ele>74.0</ele><time>2026-04-04T10:01:01.289Z</time></trkpt><trkpt lat="41.4936251" lon="13.3089732"><ele>73.0</ele><time>2026-04-04T10:01:02.256Z</time></trkpt><trkpt lat="41.4936883" lon="13.3091323"><ele>73.0</ele><time>2026-04-04T10:01:03.263Z</time></trkpt><trkpt lat="41.4937345" lon="13.3092768"><ele>73.0</ele><time>2026-04-04T10:01:04.255Z</time></trkpt><trkpt lat="41.493812" lon="13.3093825"><ele>73.0</ele><time>2026-04-04T10:01:05.258Z</time></trkpt><trkpt lat="41.4938914" lon="13.30948"><ele>73.0</ele><time>2026-04-04T10:01:06.261Z</time></trkpt><trkpt lat="41.493988" lon="13.3095758"><ele>73.75</ele><time>2026-04-04T10:01:07.253Z</time></trkpt><trkpt lat="41.4940807" lon="13.3097011"><ele>74.5</ele><time>2026-04-04T10:01:08.268Z</time></trkpt><trkpt lat="41.4941575" lon="13.3098414"><ele>75.25</ele><time>2026-04-04T10:01:09.261Z</time></trkpt><trkpt lat="41.4942343" lon="13.3099652"><ele>76.0</ele><time>2026-04-04T10:01:10.261Z</time></trkpt><trkpt lat="41.4943092" lon="13.3100754"><ele>76.0</ele><time>2026-04-04T10:01:11.257Z</time></trkpt><trkpt lat="41.4943812" lon="13.3101806"><ele>76.0</ele><time>2026-04-04T10:01:12.267Z</time></trkpt><trkpt lat="41.4944673" lon="13.3102568"><ele>76.0</ele><time>2026-04-04T10:01:13.256Z</time></trkpt><trkpt lat="41.4945644" lon="13.3103167"><ele>76.0</ele><time>2026-04-04T10:01:14.261Z</time></trkpt><trkpt lat="41.4946531" lon="13.3103854"><ele>76.0</ele><time>2026-04-04T10:01:15.261Z</time></trkpt><trkpt lat="41.494744" lon="13.3104705"><ele>75.75</ele><time>2026-04-04T10:01:16.265Z</time></trkpt><trkpt lat="41.4948562" lon="13.310524"><ele>75.5</ele><time>2026-04-04T10:01:17.276Z</time></trkpt><trkpt lat="41.494987" lon="13.3105608"><ele>75.25</ele><time>2026-04-04T10:01:18.258Z</time></trkpt><trkpt lat="41.4951178" lon="13.3105869"><ele>75.0</ele><time>2026-04-04T10:01:19.276Z</time></trkpt><trkpt lat="41.4952526" lon="13.3106338"><ele>75.0</ele><time>2026-04-04T10:01:20.256Z</time></trkpt><trkpt lat="41.4953869" lon="13.3106788"><ele>75.0</ele><time>2026-04-04T10:01:21.256Z</time></trkpt><trkpt lat="41.4955076" lon="13.3107361"><ele>75.0</ele><time>2026-04-04T10:01:22.262Z</time></trkpt><trkpt lat="41.4956277" lon="13.3107956"><ele>75.0</ele><time>2026-04-04T10:01:23.256Z</time></trkpt><trkpt lat="41.4957326" lon="13.3108569"><ele>75.75</ele><time>2026-04-04T10:01:24.26Z</time></trkpt><trkpt lat="41.4958381" lon="13.3109374"><ele>76.5</ele><time>2026-04-04T10:01:25.259Z</time></trkpt><trkpt lat="41.4959319" lon="13.3110262"><ele>77.25</ele><time>2026-04-04T10:01:26.258Z</time></trkpt><trkpt lat="41.4960341" lon="13.3111155"><ele>78.0</ele><time>2026-04-04T10:01:27.269Z</time></trkpt><trkpt lat="41.4961578" lon="13.3111807"><ele>78.25</ele><time>2026-04-04T10:01:28.255Z</time></trkpt><trkpt lat="41.4962753" lon="13.3112507"><ele>78.5</ele><time>2026-04-04T10:01:29.258Z</time></trkpt><trkpt lat="41.4963885" lon="13.3113278"><ele>78.75</ele><time>2026-04-04T10:01:30.259Z</time></trkpt><trkpt lat="41.4964994" lon="13.3114241"><ele>79.0</ele><time>2026-04-04T10:01:31.258Z</time></trkpt><trkpt lat="41.4966014" lon="13.311509"><ele>79.4</ele><time>2026-04-04T10:01:32.257Z</time></trkpt><trkpt lat="41.4967017" lon="13.3115771"><ele>79.80000000000001</ele><time>2026-04-04T10:01:33.259Z</time></trkpt><trkpt lat="41.4967847" lon="13.3116292"><ele>80.19999999999999</ele><time>2026-04-04T10:01:34.256Z</time></trkpt><trkpt lat="41.4968552" lon="13.3116573"><ele>80.6</ele><time>2026-04-04T10:01:35.259Z</time></trkpt><trkpt lat="41.4969228" lon="13.3116924"><ele>81.0</ele><time>2026-04-04T10:01:36.256Z</time></trkpt><trkpt lat="41.4970004" lon="13.3117817"><ele>81.0</ele><time>2026-04-04T10:01:38.264Z</time></trkpt><trkpt lat="41.497012" lon="13.3119046"><ele>81.0</ele><time>2026-04-04T10:01:40.267Z</time></trkpt><trkpt lat="41.4969939" lon="13.3120095"><ele>81.0</ele><time>2026-04-04T10:01:41.268Z</time></trkpt><trkpt lat="41.4969761" lon="13.3121487"><ele>81.0</ele><time>2026-04-04T10:01:42.273Z</time></trkpt><trkpt lat="41.4969689" lon="13.3122888"><ele>81.0</ele><time>2026-04-04T10:01:43.257Z</time></trkpt><trkpt lat="41.4969799" lon="13.3123981"><ele>81.16666666666667</ele><time>2026-04-04T10:01:44.27Z</time></trkpt><trkpt lat="41.497012" lon="13.3124747"><ele>81.33333333333333</ele><time>2026-04-04T10:01:45.261Z</time></trkpt><trkpt lat="41.4970693" lon="13.3125331"><ele>81.5</ele><time>2026-04-04T10:01:46.264Z</time></trkpt><trkpt lat="41.4971406" lon="13.3125989"><ele>81.66666666666666</ele><time>2026-04-04T10:01:47.279Z</time></trkpt><trkpt lat="41.4972272" lon="13.3126644"><ele>81.83333333333333</ele><time>2026-04-04T10:01:48.262Z</time></trkpt><trkpt lat="41.4973168" lon="13.3127215"><ele>82.0</ele><time>2026-04-04T10:01:49.265Z</time></trkpt><trkpt lat="41.4974086" lon="13.312749"><ele>83.0</ele><time>2026-04-04T10:01:50.264Z</time></trkpt><trkpt lat="41.4974883" lon="13.3127515"><ele>84.0</ele><time>2026-04-04T10:01:51.26Z</time></trkpt><trkpt lat="41.4975705" lon="13.3127391"><ele>85.0</ele><time>2026-04-04T10:01:52.261Z</time></trkpt><trkpt lat="41.4976556" lon="13.3127057"><ele>86.0</ele><time>2026-04-04T10:01:53.256Z</time></trkpt><trkpt lat="41.4977412" lon="13.3126783"><ele>87.0</ele><time>2026-04-04T10:01:54.265Z</time></trkpt><trkpt lat="41.49783" lon="13.3126504"><ele>88.0</ele><time>2026-04-04T10:01:55.259Z</time></trkpt><trkpt lat="41.4979207" lon="13.3126256"><ele>89.0</ele><time>2026-04-04T10:01:56.274Z</time></trkpt><trkpt lat="41.4980118" lon="13.312589"><ele>90.0</ele><time>2026-04-04T10:01:57.258Z</time></trkpt><trkpt lat="41.4981077" lon="13.3125386"><ele>91.0</ele><time>2026-04-04T10:01:58.261Z</time></trkpt><trkpt lat="41.4982072" lon="13.3124784"><ele>92.0</ele><time>2026-04-04T10:01:59.262Z</time></trkpt><trkpt lat="41.4983091" lon="13.3124144"><ele>93.0</ele><time>2026-04-04T10:02:00.26Z</time></trkpt><trkpt lat="41.4984126" lon="13.3123471"><ele>93.0</ele><time>2026-04-04T10:02:01.265Z</time></trkpt><trkpt lat="41.4985182" lon="13.3122808"><ele>93.0</ele><time>2026-04-04T10:02:02.263Z</time></trkpt><trkpt lat="41.4986242" lon="13.3122131"><ele>93.0</ele><time>2026-04-04T10:02:03.265Z</time></trkpt><trkpt lat="41.4987295" lon="13.3121454"><ele>93.0</ele><time>2026-04-04T10:02:04.259Z</time></trkpt><trkpt lat="41.4988344" lon="13.312082"><ele>93.0</ele><time>2026-04-04T10:02:05.263Z</time></trkpt><trkpt lat="41.4989407" lon="13.3120239"><ele>93.0</ele><time>2026-04-04T10:02:06.259Z</time></trkpt><trkpt lat="41.4990466" lon="13.3119734"><ele>93.0</ele><time>2026-04-04T10:02:07.263Z</time></trkpt><trkpt lat="41.4991611" lon="13.3119453"><ele>93.0</ele><time>2026-04-04T10:02:08.266Z</time></trkpt><trkpt lat="41.4992837" lon="13.3119318"><ele>93.0</ele><time>2026-04-04T10:02:09.263Z</time></trkpt><trkpt lat="41.4994102" lon="13.3119257"><ele>93.0</ele><time>2026-04-04T10:02:10.264Z</time></trkpt><trkpt lat="41.4995376" lon="13.3119218"><ele>93.0</ele><time>2026-04-04T10:02:11.269Z</time></trkpt><trkpt lat="41.4996703" lon="13.3119304"><ele>93.0</ele><time>2026-04-04T10:02:12.27Z</time></trkpt><trkpt lat="41.4998078" lon="13.3119425"><ele>94.25</ele><time>2026-04-04T10:02:13.291Z</time></trkpt><trkpt lat="41.4999453" lon="13.311965"><ele>95.5</ele><time>2026-04-04T10:02:14.264Z</time></trkpt><trkpt lat="41.5000922" lon="13.3119872"><ele>96.75</ele><time>2026-04-04T10:02:15.265Z</time></trkpt><trkpt lat="41.5002445" lon="13.3120179"><ele>98.0</ele><time>2026-04-04T10:02:16.267Z</time></trkpt><trkpt lat="41.5003988" lon="13.3120474"><ele>98.0</ele><time>2026-04-04T10:02:17.261Z</time></trkpt><trkpt lat="41.500549" lon="13.312065"><ele>98.0</ele><time>2026-04-04T10:02:18.281Z</time></trkpt><trkpt lat="41.5006882" lon="13.3120755"><ele>98.0</ele><time>2026-04-04T10:02:19.268Z</time></trkpt><trkpt lat="41.500823" lon="13.3120814"><ele>98.0</ele><time>2026-04-04T10:02:20.262Z</time></trkpt><trkpt lat="41.5009607" lon="13.3120899"><ele>98.0</ele><time>2026-04-04T10:02:21.267Z</time></trkpt><trkpt lat="41.5011057" lon="13.3120976"><ele>98.0</ele><time>2026-04-04T10:02:22.263Z</time></trkpt><trkpt lat="41.5012402" lon="13.3121092"><ele>98.0</ele><time>2026-04-04T10:02:23.263Z</time></trkpt><trkpt lat="41.5013792" lon="13.3120918"><ele>98.0</ele><time>2026-04-04T10:02:24.26Z</time></trkpt><trkpt lat="41.5015169" lon="13.3120775"><ele>98.25</ele><time>2026-04-04T10:02:25.259Z</time></trkpt><trkpt lat="41.501651" lon="13.3120531"><ele>98.5</ele><time>2026-04-04T10:02:26.261Z</time></trkpt><trkpt lat="41.5017826" lon="13.3120206"><ele>98.75</ele><time>2026-04-04T10:02:27.279Z</time></trkpt><trkpt lat="41.5019048" lon="13.3119715"><ele>99.0</ele><time>2026-04-04T10:02:28.258Z</time></trkpt><trkpt lat="41.5020213" lon="13.3119084"><ele>101.0</ele><time>2026-04-04T10:02:29.267Z</time></trkpt><trkpt lat="41.5021374" lon="13.3118319"><ele>103.0</ele><time>2026-04-04T10:02:30.27Z</time></trkpt><trkpt lat="41.5022629" lon="13.3117571"><ele>105.0</ele><time>2026-04-04T10:02:31.273Z</time></trkpt><trkpt lat="41.5023933" lon="13.3116892"><ele>107.0</ele><time>2026-04-04T10:02:32.259Z</time></trkpt><trkpt lat="41.5025248" lon="13.311627"><ele>107.0</ele><time>2026-04-04T10:02:33.276Z</time></trkpt><trkpt lat="41.5026577" lon="13.3115699"><ele>107.0</ele><time>2026-04-04T10:02:34.263Z</time></trkpt><trkpt lat="41.5027948" lon="13.3115218"><ele>107.0</ele><time>2026-04-04T10:02:35.259Z</time></trkpt><trkpt lat="41.5029308" lon="13.3114936"><ele>107.0</ele><time>2026-04-04T10:02:36.263Z</time></trkpt><trkpt lat="41.5030604" lon="13.3114705"><ele>108.25</ele><time>2026-04-04T10:02:37.257Z</time></trkpt><trkpt lat="41.5031934" lon="13.3114797"><ele>109.5</ele><time>2026-04-04T10:02:38.26Z</time></trkpt><trkpt lat="41.5033352" lon="13.3115178"><ele>110.75</ele><time>2026-04-04T10:02:39.278Z</time></trkpt><trkpt lat="41.5034751" lon="13.3115653"><ele>112.0</ele><time>2026-04-04T10:02:40.269Z</time></trkpt><trkpt lat="41.5036139" lon="13.3116144"><ele>112.0</ele><time>2026-04-04T10:02:41.26Z</time></trkpt><trkpt lat="41.5037408" lon="13.3116613"><ele>112.0</ele><time>2026-04-04T10:02:42.275Z</time></trkpt><trkpt lat="41.5038654" lon="13.311666"><ele>112.0</ele><time>2026-04-04T10:02:43.262Z</time></trkpt><trkpt lat="41.5039789" lon="13.3116524"><ele>112.0</ele><time>2026-04-04T10:02:44.285Z</time></trkpt><trkpt lat="41.5040952" lon="13.3116202"><ele>111.75</ele><time>2026-04-04T10:02:45.258Z</time></trkpt><trkpt lat="41.5042189" lon="13.3115856"><ele>111.5</ele><time>2026-04-04T10:02:46.269Z</time></trkpt><trkpt lat="41.5043447" lon="13.3115769"><ele>111.25</ele><time>2026-04-04T10:02:47.264Z</time></trkpt><trkpt lat="41.5044674" lon="13.3115802"><ele>111.0</ele><time>2026-04-04T10:02:48.269Z</time></trkpt><trkpt lat="41.504575" lon="13.3115855"><ele>112.0</ele><time>2026-04-04T10:02:49.264Z</time></trkpt><trkpt lat="41.5046621" lon="13.3115882"><ele>113.0</ele><time>2026-04-04T10:02:50.272Z</time></trkpt><trkpt lat="41.5047446" lon="13.3115865"><ele>114.0</ele><time>2026-04-04T10:02:51.261Z</time></trkpt><trkpt lat="41.5048352" lon="13.3115736"><ele>115.0</ele><time>2026-04-04T10:02:52.276Z</time></trkpt><trkpt lat="41.5049408" lon="13.3115483"><ele>116.0</ele><time>2026-04-04T10:02:53.27Z</time></trkpt><trkpt lat="41.5050553" lon="13.3115139"><ele>116.0</ele><time>2026-04-04T10:02:54.263Z</time></trkpt><trkpt lat="41.5051688" lon="13.3114657"><ele>116.0</ele><time>2026-04-04T10:02:55.265Z</time></trkpt><trkpt lat="41.5052867" lon="13.3114019"><ele>116.0</ele><time>2026-04-04T10:02:56.266Z</time></trkpt><trkpt lat="41.5054107" lon="13.3113365"><ele>116.0</ele><time>2026-04-04T10:02:57.265Z</time></trkpt><trkpt lat="41.505532" lon="13.3112762"><ele>117.5</ele><time>2026-04-04T10:02:58.27Z</time></trkpt><trkpt lat="41.5056502" lon="13.311222"><ele>119.0</ele><time>2026-04-04T10:02:59.268Z</time></trkpt><trkpt lat="41.5057702" lon="13.3111795"><ele>120.5</ele><time>2026-04-04T10:03:00.266Z</time></trkpt><trkpt lat="41.5058943" lon="13.3111497"><ele>122.0</ele><time>2026-04-04T10:03:01.267Z</time></trkpt><trkpt lat="41.506021" lon="13.3111292"><ele>122.0</ele><time>2026-04-04T10:03:02.271Z</time></trkpt><trkpt lat="41.5061513" lon="13.3111055"><ele>122.0</ele><time>2026-04-04T10:03:03.26Z</time></trkpt><trkpt lat="41.5062901" lon="13.3110921"><ele>122.0</ele><time>2026-04-04T10:03:04.269Z</time></trkpt><trkpt lat="41.5064265" lon="13.311081"><ele>122.0</ele><time>2026-04-04T10:03:05.266Z</time></trkpt><trkpt lat="41.5065492" lon="13.3110802"><ele>122.0</ele><time>2026-04-04T10:03:06.27Z</time></trkpt><trkpt lat="41.5066631" lon="13.3110855"><ele>122.0</ele><time>2026-04-04T10:03:07.259Z</time></trkpt><trkpt lat="41.5067643" lon="13.311109"><ele>122.0</ele><time>2026-04-04T10:03:08.258Z</time></trkpt><trkpt lat="41.5068746" lon="13.3111418"><ele>122.0</ele><time>2026-04-04T10:03:09.258Z</time></trkpt><trkpt lat="41.5069743" lon="13.3112346"><ele>122.75</ele><time>2026-04-04T10:03:10.264Z</time></trkpt><trkpt lat="41.5070908" lon="13.3113324"><ele>123.5</ele><time>2026-04-04T10:03:11.27Z</time></trkpt><trkpt lat="41.5072118" lon="13.3114382"><ele>124.25</ele><time>2026-04-04T10:03:12.253Z</time></trkpt><trkpt lat="41.5073338" lon="13.3115436"><ele>125.0</ele><time>2026-04-04T10:03:13.263Z</time></trkpt><trkpt lat="41.5074667" lon="13.311661"><ele>125.0</ele><time>2026-04-04T10:03:14.26Z</time></trkpt><trkpt lat="41.5076075" lon="13.3117718"><ele>125.0</ele><time>2026-04-04T10:03:15.257Z</time></trkpt><trkpt lat="41.5077589" lon="13.3118518"><ele>125.0</ele><time>2026-04-04T10:03:16.259Z</time></trkpt><trkpt lat="41.5079202" lon="13.3118887"><ele>125.33333333333333</ele><time>2026-04-04T10:03:17.268Z</time></trkpt><trkpt lat="41.5080785" lon="13.3119097"><ele>125.66666666666666</ele><time>2026-04-04T10:03:18.259Z</time></trkpt><trkpt lat="41.5082377" lon="13.3119182"><ele>126.0</ele><time>2026-04-04T10:03:19.26Z</time></trkpt><trkpt lat="41.5083952" lon="13.3119162"><ele>126.0</ele><time>2026-04-04T10:03:20.263Z</time></trkpt><trkpt lat="41.5085486" lon="13.3119116"><ele>126.0</ele><time>2026-04-04T10:03:21.267Z</time></trkpt><trkpt lat="41.5087002" lon="13.3119146"><ele>126.0</ele><time>2026-04-04T10:03:22.256Z</time></trkpt><trkpt lat="41.5088532" lon="13.3119313"><ele>127.66666666666666</ele><time>2026-04-04T10:03:23.265Z</time></trkpt><trkpt lat="41.5090098" lon="13.3119519"><ele>129.33333333333331</ele><time>2026-04-04T10:03:24.266Z</time></trkpt><trkpt lat="41.5091645" lon="13.3119657"><ele>131.0</ele><time>2026-04-04T10:03:25.255Z</time></trkpt><trkpt lat="41.5093093" lon="13.311959"><ele>131.0</ele><time>2026-04-04T10:03:26.257Z</time></trkpt><trkpt lat="41.5094262" lon="13.3119285"><ele>131.0</ele><time>2026-04-04T10:03:27.256Z</time></trkpt><trkpt lat="41.509516" lon="13.311867"><ele>131.0</ele><time>2026-04-04T10:03:28.262Z</time></trkpt><trkpt lat="41.5095827" lon="13.3117773"><ele>131.0</ele><time>2026-04-04T10:03:29.262Z</time></trkpt><trkpt lat="41.5096166" lon="13.3116674"><ele>131.0</ele><time>2026-04-04T10:03:30.263Z</time></trkpt><trkpt lat="41.5096232" lon="13.3115454"><ele>132.75</ele><time>2026-04-04T10:03:31.253Z</time></trkpt><trkpt lat="41.5095948" lon="13.3114145"><ele>134.5</ele><time>2026-04-04T10:03:32.258Z</time></trkpt><trkpt lat="41.5095392" lon="13.3112861"><ele>136.25</ele><time>2026-04-04T10:03:33.257Z</time></trkpt><trkpt lat="41.5094594" lon="13.3111646"><ele>138.0</ele><time>2026-04-04T10:03:34.266Z</time></trkpt><trkpt lat="41.5093642" lon="13.3110357"><ele>138.0</ele><time>2026-04-04T10:03:35.269Z</time></trkpt><trkpt lat="41.5092624" lon="13.3109036"><ele>138.0</ele><time>2026-04-04T10:03:36.262Z</time></trkpt><trkpt lat="41.5091548" lon="13.3107818"><ele>138.0</ele><time>2026-04-04T10:03:37.266Z</time></trkpt><trkpt lat="41.509047" lon="13.3106526"><ele>138.0</ele><time>2026-04-04T10:03:38.259Z</time></trkpt><trkpt lat="41.5089497" lon="13.3105058"><ele>140.0</ele><time>2026-04-04T10:03:39.268Z</time></trkpt><trkpt lat="41.5088696" lon="13.310341"><ele>142.0</ele><time>2026-04-04T10:03:40.257Z</time></trkpt><trkpt lat="41.5088118" lon="13.3101711"><ele>144.0</ele><time>2026-04-04T10:03:41.261Z</time></trkpt><trkpt lat="41.5087857" lon="13.3100071"><ele>146.0</ele><time>2026-04-04T10:03:42.257Z</time></trkpt><trkpt lat="41.5087885" lon="13.3098406"><ele>145.4</ele><time>2026-04-04T10:03:43.26Z</time></trkpt><trkpt lat="41.5088215" lon="13.3096821"><ele>144.8</ele><time>2026-04-04T10:03:44.256Z</time></trkpt><trkpt lat="41.5088787" lon="13.3095598"><ele>144.20000000000002</ele><time>2026-04-04T10:03:45.261Z</time></trkpt><trkpt lat="41.5089572" lon="13.3094729"><ele>143.6</ele><time>2026-04-04T10:03:46.26Z</time></trkpt><trkpt lat="41.509045" lon="13.3094261"><ele>143.0</ele><time>2026-04-04T10:03:47.269Z</time></trkpt><trkpt lat="41.5091344" lon="13.309428"><ele>143.0</ele><time>2026-04-04T10:03:48.26Z</time></trkpt><trkpt lat="41.509226" lon="13.3094732"><ele>143.0</ele><time>2026-04-04T10:03:49.262Z</time></trkpt><trkpt lat="41.5093196" lon="13.3095518"><ele>143.0</ele><time>2026-04-04T10:03:50.26Z</time></trkpt><trkpt lat="41.5094148" lon="13.3096529"><ele>143.0</ele><time>2026-04-04T10:03:51.264Z</time></trkpt><trkpt lat="41.509513" lon="13.309763"><ele>146.33333333333331</ele><time>2026-04-04T10:03:52.259Z</time></trkpt><trkpt lat="41.5096251" lon="13.3098811"><ele>149.66666666666666</ele><time>2026-04-04T10:03:53.26Z</time></trkpt><trkpt lat="41.5097435" lon="13.3100043"><ele>153.0</ele><time>2026-04-04T10:03:54.26Z</time></trkpt><trkpt lat="41.5098757" lon="13.3101321"><ele>153.0</ele><time>2026-04-04T10:03:55.267Z</time></trkpt><trkpt lat="41.5100125" lon="13.3102716"><ele>153.0</ele><time>2026-04-04T10:03:56.255Z</time></trkpt><trkpt lat="41.5101486" lon="13.3104098"><ele>153.0</ele><time>2026-04-04T10:03:57.27Z</time></trkpt><trkpt lat="41.5102864" lon="13.3105475"><ele>155.33333333333334</ele><time>2026-04-04T10:03:58.256Z</time></trkpt><trkpt lat="41.5104269" lon="13.3106884"><ele>157.66666666666669</ele><time>2026-04-04T10:03:59.26Z</time></trkpt><trkpt lat="41.5105682" lon="13.3108371"><ele>160.0</ele><time>2026-04-04T10:04:00.276Z</time></trkpt><trkpt lat="41.5107095" lon="13.3109877"><ele>160.0</ele><time>2026-04-04T10:04:01.256Z</time></trkpt><trkpt lat="41.5108421" lon="13.3111316"><ele>160.0</ele><time>2026-04-04T10:04:02.267Z</time></trkpt><trkpt lat="41.5109633" lon="13.311259"><ele>160.0</ele><time>2026-04-04T10:04:03.264Z</time></trkpt><trkpt lat="41.5110816" lon="13.3113694"><ele>161.33333333333334</ele><time>2026-04-04T10:04:04.259Z</time></trkpt><trkpt lat="41.5112084" lon="13.311465"><ele>162.66666666666666</ele><time>2026-04-04T10:04:05.26Z</time></trkpt><trkpt lat="41.5113449" lon="13.3115527"><ele>164.0</ele><time>2026-04-04T10:04:06.271Z</time></trkpt><trkpt lat="41.5114856" lon="13.3116396"><ele>164.0</ele><time>2026-04-04T10:04:07.263Z</time></trkpt><trkpt lat="41.5116379" lon="13.3117171"><ele>164.0</ele><time>2026-04-04T10:04:08.264Z</time></trkpt><trkpt lat="41.5117903" lon="13.3117998"><ele>164.0</ele><time>2026-04-04T10:04:09.259Z</time></trkpt><trkpt lat="41.5119302" lon="13.3118764"><ele>164.0</ele><time>2026-04-04T10:04:10.266Z</time></trkpt><trkpt lat="41.5120592" lon="13.3119501"><ele>164.0</ele><time>2026-04-04T10:04:11.26Z</time></trkpt><trkpt lat="41.5121649" lon="13.3120193"><ele>164.0</ele><time>2026-04-04T10:04:12.261Z</time></trkpt><trkpt lat="41.512252" lon="13.3120945"><ele>164.0</ele><time>2026-04-04T10:04:13.263Z</time></trkpt><trkpt lat="41.5123148" lon="13.3121768"><ele>164.79999999999998</ele><time>2026-04-04T10:04:14.261Z</time></trkpt><trkpt lat="41.5123428" lon="13.3122543"><ele>165.6</ele><time>2026-04-04T10:04:15.26Z</time></trkpt><trkpt lat="41.5123254" lon="13.3124096"><ele>166.4</ele><time>2026-04-04T10:04:17.261Z</time></trkpt><trkpt lat="41.5122855" lon="13.3125045"><ele>167.2</ele><time>2026-04-04T10:04:18.266Z</time></trkpt><trkpt lat="41.5122494" lon="13.3126258"><ele>168.0</ele><time>2026-04-04T10:04:19.265Z</time></trkpt><trkpt lat="41.5122164" lon="13.3127562"><ele>168.0</ele><time>2026-04-04T10:04:20.262Z</time></trkpt><trkpt lat="41.5121876" lon="13.3128763"><ele>168.0</ele><time>2026-04-04T10:04:21.26Z</time></trkpt><trkpt lat="41.5121669" lon="13.3129972"><ele>168.0</ele><time>2026-04-04T10:04:22.268Z</time></trkpt><trkpt lat="41.512157" lon="13.3131255"><ele>168.0</ele><time>2026-04-04T10:04:23.273Z</time></trkpt><trkpt lat="41.5121503" lon="13.3132436"><ele>168.0</ele><time>2026-04-04T10:04:24.272Z</time></trkpt><trkpt lat="41.5121458" lon="13.3133509"><ele>167.83333333333334</ele><time>2026-04-04T10:04:25.269Z</time></trkpt><trkpt lat="41.5121547" lon="13.3134501"><ele>167.66666666666666</ele><time>2026-04-04T10:04:26.26Z</time></trkpt><trkpt lat="41.5121826" lon="13.3135552"><ele>167.5</ele><time>2026-04-04T10:04:27.259Z</time></trkpt><trkpt lat="41.5122236" lon="13.3136612"><ele>167.33333333333331</ele><time>2026-04-04T10:04:28.264Z</time></trkpt><trkpt lat="41.512276" lon="13.3137644"><ele>167.16666666666666</ele><time>2026-04-04T10:04:29.26Z</time></trkpt><trkpt lat="41.5123364" lon="13.3138647"><ele>167.0</ele><time>2026-04-04T10:04:30.273Z</time></trkpt><trkpt lat="41.5123937" lon="13.313952"><ele>167.5</ele><time>2026-04-04T10:04:31.258Z</time></trkpt><trkpt lat="41.51244" lon="13.3140302"><ele>168.0</ele><time>2026-04-04T10:04:32.265Z</time></trkpt><trkpt lat="41.5124764" lon="13.3141636"><ele>168.5</ele><time>2026-04-04T10:04:34.262Z</time></trkpt><trkpt lat="41.5124002" lon="13.3142523"><ele>169.0</ele><time>2026-04-04T10:04:37.265Z</time></trkpt><trkpt lat="41.5123383" lon="13.3142837"><ele>169.5</ele><time>2026-04-04T10:04:38.261Z</time></trkpt><trkpt lat="41.5122539" lon="13.3143394"><ele>170.0</ele><time>2026-04-04T10:04:40.255Z</time></trkpt><trkpt lat="41.5121761" lon="13.3144055"><ele>169.83333333333331</ele><time>2026-04-04T10:04:42.26Z</time></trkpt><trkpt lat="41.5120716" lon="13.3144933"><ele>169.66666666666666</ele><time>2026-04-04T10:04:44.264Z</time></trkpt><trkpt lat="41.5120121" lon="13.3145481"><ele>169.5</ele><time>2026-04-04T10:04:45.269Z</time></trkpt><trkpt lat="41.5119616" lon="13.3146152"><ele>169.33333333333334</ele><time>2026-04-04T10:04:46.267Z</time></trkpt><trkpt lat="41.5119102" lon="13.3146649"><ele>169.16666666666669</ele><time>2026-04-04T10:04:47.268Z</time></trkpt><trkpt lat="41.5118528" lon="13.3147464"><ele>169.0</ele><time>2026-04-04T10:04:48.263Z</time></trkpt><trkpt lat="41.5118082" lon="13.3148505"><ele>171.16666666666669</ele><time>2026-04-04T10:04:49.257Z</time></trkpt><trkpt lat="41.511768" lon="13.3149632"><ele>173.33333333333334</ele><time>2026-04-04T10:04:50.263Z</time></trkpt><trkpt lat="41.5117128" lon="13.3150202"><ele>175.5</ele><time>2026-04-04T10:04:51.259Z</time></trkpt><trkpt lat="41.5116362" lon="13.3150619"><ele>177.66666666666666</ele><time>2026-04-04T10:04:52.255Z</time></trkpt><trkpt lat="41.5115616" lon="13.3151133"><ele>179.83333333333331</ele><time>2026-04-04T10:04:53.283Z</time></trkpt><trkpt lat="41.511488" lon="13.3151712"><ele>182.0</ele><time>2026-04-04T10:04:54.257Z</time></trkpt><trkpt lat="41.5114245" lon="13.3152352"><ele>182.0</ele><time>2026-04-04T10:04:55.265Z</time></trkpt><trkpt lat="41.5113557" lon="13.3153041"><ele>182.0</ele><time>2026-04-04T10:04:56.266Z</time></trkpt><trkpt lat="41.5112708" lon="13.3153617"><ele>182.0</ele><time>2026-04-04T10:04:57.256Z</time></trkpt><trkpt lat="41.5111857" lon="13.3153906"><ele>182.0</ele><time>2026-04-04T10:04:58.261Z</time></trkpt><trkpt lat="41.5111151" lon="13.315394"><ele>182.0</ele><time>2026-04-04T10:04:59.265Z</time></trkpt><trkpt lat="41.5110463" lon="13.3154135"><ele>182.0</ele><time>2026-04-04T10:05:00.264Z</time></trkpt><trkpt lat="41.5109944" lon="13.3154698"><ele>185.83333333333331</ele><time>2026-04-04T10:05:02.26Z</time></trkpt><trkpt lat="41.5109897" lon="13.3155915"><ele>189.66666666666666</ele><time>2026-04-04T10:05:04.263Z</time></trkpt><trkpt lat="41.511001" lon="13.3157504"><ele>193.5</ele><time>2026-04-04T10:05:06.272Z</time></trkpt><trkpt lat="41.5110044" lon="13.3158422"><ele>197.33333333333331</ele><time>2026-04-04T10:05:07.265Z</time></trkpt><trkpt lat="41.5109952" lon="13.3159385"><ele>201.16666666666666</ele><time>2026-04-04T10:05:08.256Z</time></trkpt><trkpt lat="41.5109909" lon="13.3160452"><ele>205.0</ele><time>2026-04-04T10:05:09.257Z</time></trkpt><trkpt lat="41.5109953" lon="13.3161548"><ele>204.99999999999997</ele><time>2026-04-04T10:05:10.26Z</time></trkpt><trkpt lat="41.511004" lon="13.3162736"><ele>205.0</ele><time>2026-04-04T10:05:11.254Z</time></trkpt><trkpt lat="41.511013" lon="13.3163943"><ele>205.0</ele><time>2026-04-04T10:05:12.271Z</time></trkpt><trkpt lat="41.5110229" lon="13.3164972"><ele>205.0</ele><time>2026-04-04T10:05:13.266Z</time></trkpt><trkpt lat="41.511008" lon="13.3165835"><ele>204.99999999999997</ele><time>2026-04-04T10:05:14.275Z</time></trkpt><trkpt lat="41.5109709" lon="13.3166701"><ele>205.0</ele><time>2026-04-04T10:05:15.263Z</time></trkpt><trkpt lat="41.510928" lon="13.3167514"><ele>207.8</ele><time>2026-04-04T10:05:16.268Z</time></trkpt><trkpt lat="41.5108896" lon="13.3168368"><ele>210.6</ele><time>2026-04-04T10:05:17.266Z</time></trkpt><trkpt lat="41.5107731" lon="13.3169234"><ele>213.39999999999998</ele><time>2026-04-04T10:05:19.261Z</time></trkpt><trkpt lat="41.5106963" lon="13.3169653"><ele>216.2</ele><time>2026-04-04T10:05:20.269Z</time></trkpt><trkpt lat="41.5106488" lon="13.317041"><ele>219.0</ele><time>2026-04-04T10:05:21.277Z</time></trkpt><trkpt lat="41.51061" lon="13.317147"><ele>221.39999999999998</ele><time>2026-04-04T10:05:22.264Z</time></trkpt><trkpt lat="41.5105707" lon="13.3172614"><ele>223.79999999999998</ele><time>2026-04-04T10:05:23.279Z</time></trkpt><trkpt lat="41.5105289" lon="13.3173874"><ele>226.20000000000002</ele><time>2026-04-04T10:05:24.26Z</time></trkpt><trkpt lat="41.5104889" lon="13.3175092"><ele>228.60000000000002</ele><time>2026-04-04T10:05:25.263Z</time></trkpt><trkpt lat="41.5104607" lon="13.3176681"><ele>231.0</ele><time>2026-04-04T10:05:26.257Z</time></trkpt><trkpt lat="41.5104509" lon="13.3178223"><ele>231.0</ele><time>2026-04-04T10:05:27.269Z</time></trkpt><trkpt lat="41.5104391" lon="13.3179867"><ele>231.0</ele><time>2026-04-04T10:05:28.264Z</time></trkpt><trkpt lat="41.510394" lon="13.3181525"><ele>231.0</ele><time>2026-04-04T10:05:29.266Z</time></trkpt><trkpt lat="41.5103491" lon="13.3183111"><ele>231.0</ele><time>2026-04-04T10:05:30.261Z</time></trkpt><trkpt lat="41.5103059" lon="13.3184572"><ele>237.25</ele><time>2026-04-04T10:05:31.274Z</time></trkpt><trkpt lat="41.5102554" lon="13.3186111"><ele>243.5</ele><time>2026-04-04T10:05:32.256Z</time></trkpt><trkpt lat="41.5102016" lon="13.3187522"><ele>249.75</ele><time>2026-04-04T10:05:33.264Z</time></trkpt><trkpt lat="41.5101401" lon="13.3188806"><ele>256.0</ele><time>2026-04-04T10:05:34.263Z</time></trkpt><trkpt lat="41.5100659" lon="13.3189784"><ele>258.0</ele><time>2026-04-04T10:05:35.268Z</time></trkpt><trkpt lat="41.5100035" lon="13.3190699"><ele>260.0</ele><time>2026-04-04T10:05:36.26Z</time></trkpt><trkpt lat="41.5099603" lon="13.3191666"><ele>262.0</ele><time>2026-04-04T10:05:37.26Z</time></trkpt><trkpt lat="41.5099074" lon="13.3192806"><ele>264.0</ele><time>2026-04-04T10:05:38.271Z</time></trkpt><trkpt lat="41.5098762" lon="13.319414"><ele>266.0</ele><time>2026-04-04T10:05:39.258Z</time></trkpt><trkpt lat="41.5098544" lon="13.3195469"><ele>266.0</ele><time>2026-04-04T10:05:40.273Z</time></trkpt><trkpt lat="41.5098255" lon="13.3196844"><ele>266.0</ele><time>2026-04-04T10:05:41.257Z</time></trkpt><trkpt lat="41.5097924" lon="13.3198315"><ele>266.0</ele><time>2026-04-04T10:05:42.265Z</time></trkpt><trkpt lat="41.5097704" lon="13.3199949"><ele>266.0</ele><time>2026-04-04T10:05:43.268Z</time></trkpt><trkpt lat="41.5097633" lon="13.3201746"><ele>266.75</ele><time>2026-04-04T10:05:44.266Z</time></trkpt><trkpt lat="41.5097474" lon="13.3203529"><ele>267.5</ele><time>2026-04-04T10:05:45.27Z</time></trkpt><trkpt lat="41.5097102" lon="13.3205451"><ele>268.25</ele><time>2026-04-04T10:05:46.258Z</time></trkpt><trkpt lat="41.5096793" lon="13.3207355"><ele>269.0</ele><time>2026-04-04T10:05:47.279Z</time></trkpt><trkpt lat="41.5096512" lon="13.3209096"><ele>269.75</ele><time>2026-04-04T10:05:48.271Z</time></trkpt><trkpt lat="41.5096216" lon="13.3210918"><ele>270.5</ele><time>2026-04-04T10:05:49.271Z</time></trkpt><trkpt lat="41.5096153" lon="13.3212469"><ele>271.25</ele><time>2026-04-04T10:05:50.262Z</time></trkpt><trkpt lat="41.5095933" lon="13.3214071"><ele>272.0</ele><time>2026-04-04T10:05:51.264Z</time></trkpt><trkpt lat="41.5095809" lon="13.3215528"><ele>271.5</ele><time>2026-04-04T10:05:52.266Z</time></trkpt><trkpt lat="41.5095653" lon="13.3216702"><ele>271.0</ele><time>2026-04-04T10:05:53.263Z</time></trkpt><trkpt lat="41.5095545" lon="13.3217656"><ele>270.5</ele><time>2026-04-04T10:05:54.266Z</time></trkpt><trkpt lat="41.5095669" lon="13.3218649"><ele>270.0</ele><time>2026-04-04T10:05:56.26Z</time></trkpt><trkpt lat="41.5096469" lon="13.3219483"><ele>269.5</ele><time>2026-04-04T10:05:58.267Z</time></trkpt><trkpt lat="41.509711" lon="13.3219834"><ele>269.0</ele><time>2026-04-04T10:05:59.264Z</time></trkpt><trkpt lat="41.5097891" lon="13.3220441"><ele>270.59999999999997</ele><time>2026-04-04T10:06:00.259Z</time></trkpt><trkpt lat="41.5098633" lon="13.3221509"><ele>272.2</ele><time>2026-04-04T10:06:01.256Z</time></trkpt><trkpt lat="41.5099413" lon="13.3222604"><ele>273.79999999999995</ele><time>2026-04-04T10:06:02.266Z</time></trkpt><trkpt lat="41.5100133" lon="13.3223632"><ele>275.4</ele><time>2026-04-04T10:06:03.263Z</time></trkpt><trkpt lat="41.5100704" lon="13.3224537"><ele>277.0</ele><time>2026-04-04T10:06:04.262Z</time></trkpt><trkpt lat="41.5101072" lon="13.3225232"><ele>278.4</ele><time>2026-04-04T10:06:05.268Z</time></trkpt><trkpt lat="41.5101263" lon="13.3226111"><ele>279.79999999999995</ele><time>2026-04-04T10:06:06.262Z</time></trkpt><trkpt lat="41.5100982" lon="13.3227671"><ele>281.2</ele><time>2026-04-04T10:06:07.271Z</time></trkpt><trkpt lat="41.5100899" lon="13.3229191"><ele>282.59999999999997</ele><time>2026-04-04T10:06:08.262Z</time></trkpt><trkpt lat="41.5100681" lon="13.323087"><ele>284.0</ele><time>2026-04-04T10:06:09.265Z</time></trkpt><trkpt lat="41.5100561" lon="13.3232557"><ele>285.75</ele><time>2026-04-04T10:06:10.26Z</time></trkpt><trkpt lat="41.5100422" lon="13.3234362"><ele>287.5</ele><time>2026-04-04T10:06:11.258Z</time></trkpt><trkpt lat="41.5100134" lon="13.3236189"><ele>289.25</ele><time>2026-04-04T10:06:12.261Z</time></trkpt><trkpt lat="41.5099858" lon="13.3237887"><ele>291.0</ele><time>2026-04-04T10:06:13.264Z</time></trkpt><trkpt lat="41.5099603" lon="13.323946"><ele>293.0</ele><time>2026-04-04T10:06:14.274Z</time></trkpt><trkpt lat="41.509937" lon="13.3240942"><ele>295.0</ele><time>2026-04-04T10:06:15.252Z</time></trkpt><trkpt lat="41.5099099" lon="13.3242409"><ele>297.0</ele><time>2026-04-04T10:06:16.263Z</time></trkpt><trkpt lat="41.5098833" lon="13.3243915"><ele>299.0</ele><time>2026-04-04T10:06:17.259Z</time></trkpt><trkpt lat="41.5098595" lon="13.3245401"><ele>299.0</ele><time>2026-04-04T10:06:18.263Z</time></trkpt><trkpt lat="41.5098408" lon="13.3246954"><ele>299.0</ele><time>2026-04-04T10:06:19.262Z</time></trkpt><trkpt lat="41.509836" lon="13.3248505"><ele>299.0</ele><time>2026-04-04T10:06:20.264Z</time></trkpt><trkpt lat="41.5098231" lon="13.325011"><ele>299.0</ele><time>2026-04-04T10:06:21.264Z</time></trkpt><trkpt lat="41.5098274" lon="13.3251749"><ele>301.0</ele><time>2026-04-04T10:06:22.259Z</time></trkpt><trkpt lat="41.5098155" lon="13.3253155"><ele>303.0</ele><time>2026-04-04T10:06:23.27Z</time></trkpt><trkpt lat="41.5098031" lon="13.325435"><ele>305.0</ele><time>2026-04-04T10:06:24.264Z</time></trkpt><trkpt lat="41.5097241" lon="13.32555"><ele>307.0</ele><time>2026-04-04T10:06:26.26Z</time></trkpt><trkpt lat="41.5097055" lon="13.325686"><ele>309.0</ele><time>2026-04-04T10:06:28.264Z</time></trkpt><trkpt lat="41.5097278" lon="13.3257691"><ele>311.1666666666667</ele><time>2026-04-04T10:06:29.262Z</time></trkpt><trkpt lat="41.5097459" lon="13.325865"><ele>313.3333333333333</ele><time>2026-04-04T10:06:30.256Z</time></trkpt><trkpt lat="41.5097558" lon="13.3259641"><ele>315.5</ele><time>2026-04-04T10:06:31.263Z</time></trkpt><trkpt lat="41.5097426" lon="13.3260635"><ele>317.66666666666663</ele><time>2026-04-04T10:06:32.265Z</time></trkpt><trkpt lat="41.5097149" lon="13.3261731"><ele>319.8333333333333</ele><time>2026-04-04T10:06:33.268Z</time></trkpt><trkpt lat="41.5096893" lon="13.3262767"><ele>322.0</ele><time>2026-04-04T10:06:34.26Z</time></trkpt><trkpt lat="41.5096747" lon="13.3263783"><ele>324.16666666666663</ele><time>2026-04-04T10:06:35.281Z</time></trkpt><trkpt lat="41.509681" lon="13.3264794"><ele>326.3333333333333</ele><time>2026-04-04T10:06:36.261Z</time></trkpt><trkpt lat="41.5096858" lon="13.3265876"><ele>328.5</ele><time>2026-04-04T10:06:37.26Z</time></trkpt><trkpt lat="41.5096628" lon="13.3266971"><ele>330.6666666666667</ele><time>2026-04-04T10:06:38.26Z</time></trkpt><trkpt lat="41.5096321" lon="13.3268076"><ele>332.83333333333337</ele><time>2026-04-04T10:06:39.263Z</time></trkpt><trkpt lat="41.5095978" lon="13.3269276"><ele>335.0</ele><time>2026-04-04T10:06:40.269Z</time></trkpt><trkpt lat="41.5095707" lon="13.3270546"><ele>336.0</ele><time>2026-04-04T10:06:41.264Z</time></trkpt><trkpt lat="41.5095436" lon="13.3271971"><ele>337.0</ele><time>2026-04-04T10:06:42.259Z</time></trkpt><trkpt lat="41.5095127" lon="13.327327"><ele>338.0</ele><time>2026-04-04T10:06:43.274Z</time></trkpt><trkpt lat="41.5094823" lon="13.3274595"><ele>339.0</ele><time>2026-04-04T10:06:44.262Z</time></trkpt><trkpt lat="41.5094556" lon="13.3276031"><ele>340.0</ele><time>2026-04-04T10:06:45.257Z</time></trkpt><trkpt lat="41.5094349" lon="13.3277527"><ele>342.5</ele><time>2026-04-04T10:06:46.261Z</time></trkpt><trkpt lat="41.5094227" lon="13.3279097"><ele>345.0</ele><time>2026-04-04T10:06:47.265Z</time></trkpt><trkpt lat="41.5094088" lon="13.3280708"><ele>347.5</ele><time>2026-04-04T10:06:48.265Z</time></trkpt><trkpt lat="41.5093849" lon="13.3282329"><ele>350.0</ele><time>2026-04-04T10:06:49.278Z</time></trkpt><trkpt lat="41.5093489" lon="13.3283995"><ele>351.75</ele><time>2026-04-04T10:06:50.268Z</time></trkpt><trkpt lat="41.5093082" lon="13.3285635"><ele>353.5</ele><time>2026-04-04T10:06:51.264Z</time></trkpt><trkpt lat="41.509272" lon="13.3287188"><ele>355.25</ele><time>2026-04-04T10:06:52.268Z</time></trkpt><trkpt lat="41.50924" lon="13.3288678"><ele>357.0</ele><time>2026-04-04T10:06:53.26Z</time></trkpt><trkpt lat="41.5092105" lon="13.3290151"><ele>357.5</ele><time>2026-04-04T10:06:54.268Z</time></trkpt><trkpt lat="41.5091935" lon="13.3291659"><ele>358.0</ele><time>2026-04-04T10:06:55.264Z</time></trkpt><trkpt lat="41.509194" lon="13.3293218"><ele>358.5</ele><time>2026-04-04T10:06:56.261Z</time></trkpt><trkpt lat="41.5091919" lon="13.3294767"><ele>359.0</ele><time>2026-04-04T10:06:57.265Z</time></trkpt><trkpt lat="41.5091814" lon="13.329622"><ele>358.4</ele><time>2026-04-04T10:06:58.262Z</time></trkpt><trkpt lat="41.5091616" lon="13.3297567"><ele>357.79999999999995</ele><time>2026-04-04T10:06:59.275Z</time></trkpt><trkpt lat="41.5091285" lon="13.3298829"><ele>357.20000000000005</ele><time>2026-04-04T10:07:00.258Z</time></trkpt><trkpt lat="41.5090998" lon="13.3299997"><ele>356.6</ele><time>2026-04-04T10:07:01.262Z</time></trkpt><trkpt lat="41.5090739" lon="13.3300967"><ele>356.0</ele><time>2026-04-04T10:07:02.267Z</time></trkpt><trkpt lat="41.5090517" lon="13.3302096"><ele>356.0</ele><time>2026-04-04T10:07:03.258Z</time></trkpt><trkpt lat="41.5090384" lon="13.3303477"><ele>356.0</ele><time>2026-04-04T10:07:04.277Z</time></trkpt><trkpt lat="41.5090251" lon="13.3304786"><ele>356.0</ele><time>2026-04-04T10:07:05.263Z</time></trkpt><trkpt lat="41.5090031" lon="13.3306062"><ele>356.0</ele><time>2026-04-04T10:07:06.266Z</time></trkpt><trkpt lat="41.5089954" lon="13.3307353"><ele>356.0</ele><time>2026-04-04T10:07:07.273Z</time></trkpt><trkpt lat="41.5090071" lon="13.330877"><ele>354.6</ele><time>2026-04-04T10:07:08.258Z</time></trkpt><trkpt lat="41.5090069" lon="13.3310153"><ele>353.20000000000005</ele><time>2026-04-04T10:07:09.266Z</time></trkpt><trkpt lat="41.5089939" lon="13.3311485"><ele>351.79999999999995</ele><time>2026-04-04T10:07:10.259Z</time></trkpt><trkpt lat="41.5089802" lon="13.3312713"><ele>350.4</ele><time>2026-04-04T10:07:11.263Z</time></trkpt><trkpt lat="41.5089796" lon="13.3313815"><ele>349.0</ele><time>2026-04-04T10:07:12.263Z</time></trkpt><trkpt lat="41.5089972" lon="13.3314836"><ele>347.4</ele><time>2026-04-04T10:07:13.261Z</time></trkpt><trkpt lat="41.509037" lon="13.3315952"><ele>345.79999999999995</ele><time>2026-04-04T10:07:14.264Z</time></trkpt><trkpt lat="41.509085" lon="13.3317125"><ele>344.20000000000005</ele><time>2026-04-04T10:07:15.266Z</time></trkpt><trkpt lat="41.509125" lon="13.3318407"><ele>342.6</ele><time>2026-04-04T10:07:16.27Z</time></trkpt><trkpt lat="41.5091536" lon="13.3319667"><ele>341.0</ele><time>2026-04-04T10:07:17.264Z</time></trkpt><trkpt lat="41.5091829" lon="13.3320826"><ele>341.0</ele><time>2026-04-04T10:07:18.26Z</time></trkpt><trkpt lat="41.5092162" lon="13.3321932"><ele>341.0</ele><time>2026-04-04T10:07:19.261Z</time></trkpt><trkpt lat="41.5092574" lon="13.3323049"><ele>341.0</ele><time>2026-04-04T10:07:20.262Z</time></trkpt><trkpt lat="41.5093051" lon="13.3324265"><ele>341.0</ele><time>2026-04-04T10:07:21.267Z</time></trkpt><trkpt lat="41.5093616" lon="13.3325503"><ele>341.0</ele><time>2026-04-04T10:07:22.274Z</time></trkpt><trkpt lat="41.509427" lon="13.3326756"><ele>341.5</ele><time>2026-04-04T10:07:23.255Z</time></trkpt><trkpt lat="41.5094933" lon="13.3328018"><ele>342.0</ele><time>2026-04-04T10:07:24.258Z</time></trkpt><trkpt lat="41.5095608" lon="13.3329322"><ele>342.5</ele><time>2026-04-04T10:07:25.254Z</time></trkpt><trkpt lat="41.5096288" lon="13.3330644"><ele>343.0</ele><time>2026-04-04T10:07:26.262Z</time></trkpt><trkpt lat="41.509702" lon="13.3332014"><ele>341.5</ele><time>2026-04-04T10:07:27.258Z</time></trkpt><trkpt lat="41.5097671" lon="13.3333468"><ele>340.0</ele><time>2026-04-04T10:07:28.273Z</time></trkpt><trkpt lat="41.5098292" lon="13.3334849"><ele>338.5</ele><time>2026-04-04T10:07:29.257Z</time></trkpt><trkpt lat="41.5098651" lon="13.3336346"><ele>337.0</ele><time>2026-04-04T10:07:30.263Z</time></trkpt><trkpt lat="41.5098943" lon="13.3337908"><ele>339.5</ele><time>2026-04-04T10:07:31.263Z</time></trkpt><trkpt lat="41.50991" lon="13.3339478"><ele>342.0</ele><time>2026-04-04T10:07:32.263Z</time></trkpt><trkpt lat="41.5099088" lon="13.3341081"><ele>344.5</ele><time>2026-04-04T10:07:33.265Z</time></trkpt><trkpt lat="41.5098915" lon="13.3342554"><ele>347.0</ele><time>2026-04-04T10:07:34.265Z</time></trkpt><trkpt lat="41.5098624" lon="13.3343987"><ele>347.0</ele><time>2026-04-04T10:07:35.26Z</time></trkpt><trkpt lat="41.509822" lon="13.3345441"><ele>347.0</ele><time>2026-04-04T10:07:36.258Z</time></trkpt><trkpt lat="41.5097805" lon="13.3346912"><ele>347.0</ele><time>2026-04-04T10:07:37.26Z</time></trkpt><trkpt lat="41.5097344" lon="13.3348381"><ele>347.0</ele><time>2026-04-04T10:07:38.261Z</time></trkpt><trkpt lat="41.5096885" lon="13.3349891"><ele>349.25</ele><time>2026-04-04T10:07:39.278Z</time></trkpt><trkpt lat="41.5096389" lon="13.3351498"><ele>351.5</ele><time>2026-04-04T10:07:40.26Z</time></trkpt><trkpt lat="41.5095917" lon="13.3353139"><ele>353.75</ele><time>2026-04-04T10:07:41.261Z</time></trkpt><trkpt lat="41.5095445" lon="13.3354776"><ele>356.0</ele><time>2026-04-04T10:07:42.256Z</time></trkpt><trkpt lat="41.5095035" lon="13.3356353"><ele>360.0</ele><time>2026-04-04T10:07:43.266Z</time></trkpt><trkpt lat="41.5094646" lon="13.3357967"><ele>364.0</ele><time>2026-04-04T10:07:44.26Z</time></trkpt><trkpt lat="41.5094307" lon="13.3359457"><ele>368.0</ele><time>2026-04-04T10:07:45.26Z</time></trkpt><trkpt lat="41.5094009" lon="13.3360672"><ele>372.0</ele><time>2026-04-04T10:07:46.26Z</time></trkpt><trkpt lat="41.5093885" lon="13.3361765"><ele>376.0</ele><time>2026-04-04T10:07:47.259Z</time></trkpt><trkpt lat="41.5093943" lon="13.3362921"><ele>376.0</ele><time>2026-04-04T10:07:48.261Z</time></trkpt><trkpt lat="41.5094496" lon="13.3363702"><ele>376.0</ele><time>2026-04-04T10:07:49.273Z</time></trkpt><trkpt lat="41.5095188" lon="13.3364536"><ele>376.0</ele><time>2026-04-04T10:07:50.259Z</time></trkpt><trkpt lat="41.5095669" lon="13.3365557"><ele>376.0</ele><time>2026-04-04T10:07:51.26Z</time></trkpt><trkpt lat="41.5096178" lon="13.336675"><ele>376.0</ele><time>2026-04-04T10:07:52.26Z</time></trkpt><trkpt lat="41.509664" lon="13.3368111"><ele>376.4</ele><time>2026-04-04T10:07:53.259Z</time></trkpt><trkpt lat="41.5096999" lon="13.3369361"><ele>376.8</ele><time>2026-04-04T10:07:54.256Z</time></trkpt><trkpt lat="41.509751" lon="13.3370725"><ele>377.2</ele><time>2026-04-04T10:07:55.264Z</time></trkpt><trkpt lat="41.5098024" lon="13.3371893"><ele>377.59999999999997</ele><time>2026-04-04T10:07:56.262Z</time></trkpt><trkpt lat="41.5098328" lon="13.3372873"><ele>378.0</ele><time>2026-04-04T10:07:57.262Z</time></trkpt><trkpt lat="41.5098094" lon="13.3374256"><ele>378.0</ele><time>2026-04-04T10:07:59.257Z</time></trkpt><trkpt lat="41.5097319" lon="13.3375335"><ele>378.0</ele><time>2026-04-04T10:08:01.258Z</time></trkpt><trkpt lat="41.5097127" lon="13.3376661"><ele>378.0</ele><time>2026-04-04T10:08:03.262Z</time></trkpt><trkpt lat="41.5097487" lon="13.337762"><ele>378.0</ele><time>2026-04-04T10:08:05.263Z</time></trkpt><trkpt lat="41.5098149" lon="13.3378445"><ele>378.0</ele><time>2026-04-04T10:08:10.276Z</time></trkpt><trkpt lat="41.5098812" lon="13.3379755"><ele>379.8333333333333</ele><time>2026-04-04T10:08:12.26Z</time></trkpt><trkpt lat="41.5099197" lon="13.3380535"><ele>381.66666666666663</ele><time>2026-04-04T10:08:13.267Z</time></trkpt><trkpt lat="41.5099548" lon="13.3381391"><ele>383.5</ele><time>2026-04-04T10:08:14.261Z</time></trkpt><trkpt lat="41.5099902" lon="13.3382359"><ele>385.3333333333333</ele><time>2026-04-04T10:08:15.263Z</time></trkpt><trkpt lat="41.5100233" lon="13.3383414"><ele>387.16666666666663</ele><time>2026-04-04T10:08:16.263Z</time></trkpt><trkpt lat="41.510056" lon="13.33846"><ele>389.0</ele><time>2026-04-04T10:08:17.261Z</time></trkpt><trkpt lat="41.5100866" lon="13.3385931"><ele>388.99999999999994</ele><time>2026-04-04T10:08:18.269Z</time></trkpt><trkpt lat="41.5101103" lon="13.3387095"><ele>389.0</ele><time>2026-04-04T10:08:19.261Z</time></trkpt><trkpt lat="41.5101326" lon="13.3388125"><ele>389.0</ele><time>2026-04-04T10:08:20.264Z</time></trkpt><trkpt lat="41.5101472" lon="13.338895"><ele>389.0</ele><time>2026-04-04T10:08:21.264Z</time></trkpt><trkpt lat="41.5101458" lon="13.339002"><ele>388.99999999999994</ele><time>2026-04-04T10:08:23.262Z</time></trkpt><trkpt lat="41.5100778" lon="13.3390202"><ele>389.0</ele><time>2026-04-04T10:08:25.268Z</time></trkpt><trkpt lat="41.5099727" lon="13.3389569"><ele>392.6</ele><time>2026-04-04T10:08:27.267Z</time></trkpt><trkpt lat="41.5098729" lon="13.3389305"><ele>396.2</ele><time>2026-04-04T10:08:29.265Z</time></trkpt><trkpt lat="41.5098189" lon="13.3390143"><ele>399.8</ele><time>2026-04-04T10:08:31.26Z</time></trkpt><trkpt lat="41.5097854" lon="13.3391484"><ele>403.40000000000003</ele><time>2026-04-04T10:08:33.263Z</time></trkpt><trkpt lat="41.5097518" lon="13.3393169"><ele>407.0</ele><time>2026-04-04T10:08:35.262Z</time></trkpt><trkpt lat="41.509725" lon="13.3394752"><ele>406.99999999999994</ele><time>2026-04-04T10:08:37.259Z</time></trkpt><trkpt lat="41.5097164" lon="13.3395713"><ele>407.0</ele><time>2026-04-04T10:08:39.265Z</time></trkpt><trkpt lat="41.5098088" lon="13.339627"><ele>407.0</ele><time>2026-04-04T10:08:41.262Z</time></trkpt><trkpt lat="41.5098608" lon="13.3397103"><ele>407.0</ele><time>2026-04-04T10:08:42.265Z</time></trkpt><trkpt lat="41.5099075" lon="13.3398032"><ele>406.99999999999994</ele><time>2026-04-04T10:08:43.271Z</time></trkpt><trkpt lat="41.5099586" lon="13.3399072"><ele>407.0</ele><time>2026-04-04T10:08:44.26Z</time></trkpt><trkpt lat="41.5100168" lon="13.3400175"><ele>410.8</ele><time>2026-04-04T10:08:45.262Z</time></trkpt><trkpt lat="41.5100815" lon="13.3401152"><ele>414.6</ele><time>2026-04-04T10:08:46.265Z</time></trkpt><trkpt lat="41.5101513" lon="13.3402051"><ele>418.40000000000003</ele><time>2026-04-04T10:08:47.257Z</time></trkpt><trkpt lat="41.5102247" lon="13.3402959"><ele>422.20000000000005</ele><time>2026-04-04T10:08:48.26Z</time></trkpt><trkpt lat="41.5102965" lon="13.3403841"><ele>426.0</ele><time>2026-04-04T10:08:49.261Z</time></trkpt><trkpt lat="41.5103613" lon="13.3404625"><ele>426.0</ele><time>2026-04-04T10:08:50.262Z</time></trkpt><trkpt lat="41.5104092" lon="13.3405193"><ele>426.0</ele><time>2026-04-04T10:08:51.269Z</time></trkpt><trkpt lat="41.5104492" lon="13.3405947"><ele>426.0</ele><time>2026-04-04T10:08:53.282Z</time></trkpt><trkpt lat="41.5103348" lon="13.3405546"><ele>426.0</ele><time>2026-04-04T10:08:57.266Z</time></trkpt><trkpt lat="41.5102671" lon="13.3405061"><ele>426.0</ele><time>2026-04-04T10:08:58.26Z</time></trkpt><trkpt lat="41.510192" lon="13.3404527"><ele>426.0</ele><time>2026-04-04T10:08:59.276Z</time></trkpt><trkpt lat="41.510099" lon="13.3404046"><ele>426.0</ele><time>2026-04-04T10:09:00.259Z</time></trkpt><trkpt lat="41.5100005" lon="13.3403646"><ele>426.0</ele><time>2026-04-04T10:09:01.262Z</time></trkpt><trkpt lat="41.5098932" lon="13.3403411"><ele>426.0</ele><time>2026-04-04T10:09:02.262Z</time></trkpt><trkpt lat="41.5097787" lon="13.3403409"><ele>426.0</ele><time>2026-04-04T10:09:03.261Z</time></trkpt><trkpt lat="41.5096614" lon="13.3403657"><ele>426.0</ele><time>2026-04-04T10:09:04.262Z</time></trkpt><trkpt lat="41.5095419" lon="13.340395"><ele>427.25</ele><time>2026-04-04T10:09:05.265Z</time></trkpt><trkpt lat="41.5094241" lon="13.3404491"><ele>428.5</ele><time>2026-04-04T10:09:06.27Z</time></trkpt><trkpt lat="41.509305" lon="13.3405022"><ele>429.75</ele><time>2026-04-04T10:09:07.259Z</time></trkpt><trkpt lat="41.5091917" lon="13.3405479"><ele>431.0</ele><time>2026-04-04T10:09:08.267Z</time></trkpt><trkpt lat="41.5090877" lon="13.3405739"><ele>432.8</ele><time>2026-04-04T10:09:09.264Z</time></trkpt><trkpt lat="41.5089939" lon="13.3405796"><ele>434.6</ele><time>2026-04-04T10:09:10.261Z</time></trkpt><trkpt lat="41.5089093" lon="13.3405859"><ele>436.4</ele><time>2026-04-04T10:09:11.262Z</time></trkpt><trkpt lat="41.5088313" lon="13.3406172"><ele>438.2</ele><time>2026-04-04T10:09:12.259Z</time></trkpt><trkpt lat="41.5087623" lon="13.3406686"><ele>440.0</ele><time>2026-04-04T10:09:13.271Z</time></trkpt><trkpt lat="41.508676" lon="13.340765"><ele>439.99999999999994</ele><time>2026-04-04T10:09:15.285Z</time></trkpt><trkpt lat="41.508663" lon="13.3408481"><ele>440.0</ele><time>2026-04-04T10:09:18.262Z</time></trkpt><trkpt lat="41.5087177" lon="13.3409352"><ele>440.0</ele><time>2026-04-04T10:09:26.266Z</time></trkpt><trkpt lat="41.508718" lon="13.3410458"><ele>440.0</ele><time>2026-04-04T10:09:28.263Z</time></trkpt><trkpt lat="41.5086693" lon="13.3412084"><ele>439.99999999999994</ele><time>2026-04-04T10:09:30.259Z</time></trkpt><trkpt lat="41.50864" lon="13.3413091"><ele>440.0</ele><time>2026-04-04T10:09:31.276Z</time></trkpt><trkpt lat="41.508606" lon="13.3414217"><ele>443.2</ele><time>2026-04-04T10:09:32.263Z</time></trkpt><trkpt lat="41.5085634" lon="13.3415388"><ele>446.4</ele><time>2026-04-04T10:09:33.263Z</time></trkpt><trkpt lat="41.5085099" lon="13.3416616"><ele>449.6</ele><time>2026-04-04T10:09:34.261Z</time></trkpt><trkpt lat="41.5084599" lon="13.3417861"><ele>452.8</ele><time>2026-04-04T10:09:35.262Z</time></trkpt><trkpt lat="41.5084231" lon="13.3419137"><ele>456.0</ele><time>2026-04-04T10:09:36.278Z</time></trkpt><trkpt lat="41.5083917" lon="13.3420272"><ele>456.0</ele><time>2026-04-04T10:09:37.262Z</time></trkpt><trkpt lat="41.5083872" lon="13.342114"><ele>456.0</ele><time>2026-04-04T10:09:38.268Z</time></trkpt><trkpt lat="41.5083836" lon="13.342198"><ele>456.0</ele><time>2026-04-04T10:09:39.266Z</time></trkpt><trkpt lat="41.5083259" lon="13.3423415"><ele>456.0</ele><time>2026-04-04T10:09:41.261Z</time></trkpt><trkpt lat="41.5082745" lon="13.3424133"><ele>456.0</ele><time>2026-04-04T10:09:42.26Z</time></trkpt><trkpt lat="41.5082211" lon="13.3425015"><ele>456.0</ele><time>2026-04-04T10:09:43.269Z</time></trkpt><trkpt lat="41.5081734" lon="13.3426122"><ele>459.20000000000005</ele><time>2026-04-04T10:09:44.266Z</time></trkpt><trkpt lat="41.5081336" lon="13.3427335"><ele>462.40000000000003</ele><time>2026-04-04T10:09:45.265Z</time></trkpt><trkpt lat="41.5080974" lon="13.3428646"><ele>465.6</ele><time>2026-04-04T10:09:46.268Z</time></trkpt><trkpt lat="41.5080608" lon="13.3429928"><ele>468.8</ele><time>2026-04-04T10:09:47.263Z</time></trkpt><trkpt lat="41.5080147" lon="13.3431205"><ele>472.0</ele><time>2026-04-04T10:09:48.267Z</time></trkpt><trkpt lat="41.5079686" lon="13.3432457"><ele>472.25</ele><time>2026-04-04T10:09:49.258Z</time></trkpt><trkpt lat="41.5079204" lon="13.3433853"><ele>472.5</ele><time>2026-04-04T10:09:50.265Z</time></trkpt><trkpt lat="41.5078842" lon="13.3435501"><ele>472.75</ele><time>2026-04-04T10:09:51.259Z</time></trkpt><trkpt lat="41.5078482" lon="13.3437245"><ele>473.0</ele><time>2026-04-04T10:09:52.261Z</time></trkpt><trkpt lat="41.5077933" lon="13.3439066"><ele>473.0</ele><time>2026-04-04T10:09:53.257Z</time></trkpt><trkpt lat="41.5077411" lon="13.3440836"><ele>473.0</ele><time>2026-04-04T10:09:54.259Z</time></trkpt><trkpt lat="41.5076848" lon="13.3442458"><ele>473.0</ele><time>2026-04-04T10:09:55.26Z</time></trkpt><trkpt lat="41.5076154" lon="13.344378"><ele>473.0</ele><time>2026-04-04T10:09:56.267Z</time></trkpt><trkpt lat="41.5075408" lon="13.3444927"><ele>472.99999999999994</ele><time>2026-04-04T10:09:57.265Z</time></trkpt><trkpt lat="41.5074733" lon="13.344584"><ele>473.0</ele><time>2026-04-04T10:09:58.26Z</time></trkpt><trkpt lat="41.5074197" lon="13.3446581"><ele>473.0</ele><time>2026-04-04T10:09:59.263Z</time></trkpt><trkpt lat="41.5073698" lon="13.3447424"><ele>473.0</ele><time>2026-04-04T10:10:01.268Z</time></trkpt><trkpt lat="41.5074018" lon="13.3448167"><ele>472.99999999999994</ele><time>2026-04-04T10:10:04.269Z</time></trkpt><trkpt lat="41.5074782" lon="13.3447349"><ele>473.0</ele><time>2026-04-04T10:10:06.266Z</time></trkpt><trkpt lat="41.5075177" lon="13.3446548"><ele>473.0</ele><time>2026-04-04T10:10:07.261Z</time></trkpt><trkpt lat="41.5075726" lon="13.3445713"><ele>472.99999999999994</ele><time>2026-04-04T10:10:08.256Z</time></trkpt><trkpt lat="41.5076404" lon="13.3444858"><ele>472.99999999999994</ele><time>2026-04-04T10:10:09.265Z</time></trkpt><trkpt lat="41.507724" lon="13.3443876"><ele>473.0</ele><time>2026-04-04T10:10:10.266Z</time></trkpt><trkpt lat="41.5078128" lon="13.3442878"><ele>473.0</ele><time>2026-04-04T10:10:11.261Z</time></trkpt><trkpt lat="41.5079047" lon="13.3441808"><ele>476.0</ele><time>2026-04-04T10:10:12.259Z</time></trkpt><trkpt lat="41.5079926" lon="13.34407"><ele>479.0</ele><time>2026-04-04T10:10:13.263Z</time></trkpt><trkpt lat="41.5080801" lon="13.3439528"><ele>482.0</ele><time>2026-04-04T10:10:14.265Z</time></trkpt><trkpt lat="41.508172" lon="13.3438332"><ele>485.0</ele><time>2026-04-04T10:10:15.273Z</time></trkpt><trkpt lat="41.5082684" lon="13.343714"><ele>485.0</ele><time>2026-04-04T10:10:16.263Z</time></trkpt><trkpt lat="41.5083673" lon="13.3435979"><ele>485.0</ele><time>2026-04-04T10:10:17.262Z</time></trkpt><trkpt lat="41.5084693" lon="13.3434868"><ele>485.0</ele><time>2026-04-04T10:10:18.263Z</time></trkpt><trkpt lat="41.5085766" lon="13.3433735"><ele>485.0</ele><time>2026-04-04T10:10:19.257Z</time></trkpt><trkpt lat="41.5086904" lon="13.3432648"><ele>486.5</ele><time>2026-04-04T10:10:20.26Z</time></trkpt><trkpt lat="41.5088106" lon="13.3431733"><ele>488.0</ele><time>2026-04-04T10:10:21.256Z</time></trkpt><trkpt lat="41.5089372" lon="13.3430942"><ele>489.5</ele><time>2026-04-04T10:10:22.265Z</time></trkpt><trkpt lat="41.5090687" lon="13.3430219"><ele>491.0</ele><time>2026-04-04T10:10:23.26Z</time></trkpt><trkpt lat="41.5092021" lon="13.3429564"><ele>491.0</ele><time>2026-04-04T10:10:24.263Z</time></trkpt><trkpt lat="41.5093324" lon="13.3428931"><ele>491.0</ele><time>2026-04-04T10:10:25.264Z</time></trkpt><trkpt lat="41.5094602" lon="13.3428292"><ele>491.0</ele><time>2026-04-04T10:10:26.264Z</time></trkpt><trkpt lat="41.509582" lon="13.3427702"><ele>491.0</ele><time>2026-04-04T10:10:27.273Z</time></trkpt><trkpt lat="41.509701" lon="13.3427139"><ele>494.5</ele><time>2026-04-04T10:10:28.273Z</time></trkpt><trkpt lat="41.5098268" lon="13.3426943"><ele>498.0</ele><time>2026-04-04T10:10:29.266Z</time></trkpt><trkpt lat="41.5099535" lon="13.3426907"><ele>501.5</ele><time>2026-04-04T10:10:30.275Z</time></trkpt><trkpt lat="41.5100722" lon="13.3427008"><ele>505.0</ele><time>2026-04-04T10:10:31.26Z</time></trkpt><trkpt lat="41.5101772" lon="13.342727"><ele>505.00000000000006</ele><time>2026-04-04T10:10:32.268Z</time></trkpt><trkpt lat="41.5102721" lon="13.3427525"><ele>505.0</ele><time>2026-04-04T10:10:33.269Z</time></trkpt><trkpt lat="41.5103383" lon="13.3427953"><ele>505.0</ele><time>2026-04-04T10:10:34.266Z</time></trkpt><trkpt lat="41.5103728" lon="13.3428833"><ele>505.0</ele><time>2026-04-04T10:10:35.26Z</time></trkpt><trkpt lat="41.5104096" lon="13.3429831"><ele>505.00000000000006</ele><time>2026-04-04T10:10:36.264Z</time></trkpt><trkpt lat="41.5104505" lon="13.3430938"><ele>505.0</ele><time>2026-04-04T10:10:37.259Z</time></trkpt><trkpt lat="41.5104788" lon="13.3432114"><ele>505.6</ele><time>2026-04-04T10:10:38.269Z</time></trkpt><trkpt lat="41.5104873" lon="13.3433379"><ele>506.2</ele><time>2026-04-04T10:10:39.267Z</time></trkpt><trkpt lat="41.5104774" lon="13.3434667"><ele>506.79999999999995</ele><time>2026-04-04T10:10:40.266Z</time></trkpt><trkpt lat="41.510463" lon="13.3436031"><ele>507.4</ele><time>2026-04-04T10:10:41.26Z</time></trkpt><trkpt lat="41.5104203" lon="13.343735"><ele>508.0</ele><time>2026-04-04T10:10:42.264Z</time></trkpt><trkpt lat="41.5103787" lon="13.3438551"><ele>512.6</ele><time>2026-04-04T10:10:43.266Z</time></trkpt><trkpt lat="41.510339" lon="13.3439843"><ele>517.1999999999999</ele><time>2026-04-04T10:10:44.265Z</time></trkpt><trkpt lat="41.5102989" lon="13.3441186"><ele>521.8</ele><time>2026-04-04T10:10:45.263Z</time></trkpt><trkpt lat="41.5102474" lon="13.3442565"><ele>526.4</ele><time>2026-04-04T10:10:46.261Z</time></trkpt><trkpt lat="41.5101978" lon="13.3443859"><ele>531.0</ele><time>2026-04-04T10:10:47.276Z</time></trkpt><trkpt lat="41.5101372" lon="13.3444599"><ele>531.0</ele><time>2026-04-04T10:10:48.261Z</time></trkpt><trkpt lat="41.5100637" lon="13.3445028"><ele>531.0</ele><time>2026-04-04T10:10:49.264Z</time></trkpt><trkpt lat="41.5099878" lon="13.3445466"><ele>531.0</ele><time>2026-04-04T10:10:50.271Z</time></trkpt><trkpt lat="41.5098859" lon="13.3445622"><ele>531.0</ele><time>2026-04-04T10:10:51.266Z</time></trkpt><trkpt lat="41.5097843" lon="13.3445849"><ele>531.0</ele><time>2026-04-04T10:10:52.268Z</time></trkpt><trkpt lat="41.5096884" lon="13.3446249"><ele>531.0</ele><time>2026-04-04T10:10:53.26Z</time></trkpt><trkpt lat="41.5095874" lon="13.3446913"><ele>531.0</ele><time>2026-04-04T10:10:54.261Z</time></trkpt><trkpt lat="41.5094822" lon="13.3447602"><ele>531.0</ele><time>2026-04-04T10:10:55.259Z</time></trkpt><trkpt lat="41.5093848" lon="13.3448546"><ele>531.0</ele><time>2026-04-04T10:10:56.271Z</time></trkpt><trkpt lat="41.5092898" lon="13.3449457"><ele>532.75</ele><time>2026-04-04T10:10:57.261Z</time></trkpt><trkpt lat="41.5092193" lon="13.3450747"><ele>534.5</ele><time>2026-04-04T10:10:58.256Z</time></trkpt><trkpt lat="41.5091611" lon="13.3452237"><ele>536.25</ele><time>2026-04-04T10:10:59.261Z</time></trkpt><trkpt lat="41.5091087" lon="13.3453815"><ele>538.0</ele><time>2026-04-04T10:11:00.261Z</time></trkpt><trkpt lat="41.5090538" lon="13.3455525"><ele>539.8</ele><time>2026-04-04T10:11:01.261Z</time></trkpt><trkpt lat="41.509014" lon="13.3457179"><ele>541.5999999999999</ele><time>2026-04-04T10:11:02.257Z</time></trkpt><trkpt lat="41.5089792" lon="13.3458565"><ele>543.4000000000001</ele><time>2026-04-04T10:11:03.265Z</time></trkpt><trkpt lat="41.5089594" lon="13.3459896"><ele>545.2</ele><time>2026-04-04T10:11:04.262Z</time></trkpt><trkpt lat="41.5089527" lon="13.3461244"><ele>547.0</ele><time>2026-04-04T10:11:05.268Z</time></trkpt><trkpt lat="41.5089478" lon="13.3462681"><ele>548.0</ele><time>2026-04-04T10:11:06.265Z</time></trkpt><trkpt lat="41.5089663" lon="13.3464121"><ele>549.0</ele><time>2026-04-04T10:11:07.274Z</time></trkpt><trkpt lat="41.5089922" lon="13.3465565"><ele>550.0</ele><time>2026-04-04T10:11:08.264Z</time></trkpt><trkpt lat="41.5090191" lon="13.346702"><ele>551.0</ele><time>2026-04-04T10:11:09.264Z</time></trkpt><trkpt lat="41.5090544" lon="13.3468464"><ele>552.0</ele><time>2026-04-04T10:11:10.266Z</time></trkpt><trkpt lat="41.5090965" lon="13.3469874"><ele>552.0</ele><time>2026-04-04T10:11:11.264Z</time></trkpt><trkpt lat="41.5091352" lon="13.3471263"><ele>552.0</ele><time>2026-04-04T10:11:12.265Z</time></trkpt><trkpt lat="41.5091636" lon="13.3472487"><ele>552.0</ele><time>2026-04-04T10:11:13.263Z</time></trkpt><trkpt lat="41.5091827" lon="13.3473412"><ele>552.0</ele><time>2026-04-04T10:11:14.269Z</time></trkpt><trkpt lat="41.5092294" lon="13.3474419"><ele>552.0</ele><time>2026-04-04T10:11:16.261Z</time></trkpt><trkpt lat="41.5092979" lon="13.3474194"><ele>552.0</ele><time>2026-04-04T10:11:18.273Z</time></trkpt><trkpt lat="41.5093124" lon="13.3473364"><ele>552.0</ele><time>2026-04-04T10:11:19.261Z</time></trkpt><trkpt lat="41.5093236" lon="13.3472316"><ele>552.0</ele><time>2026-04-04T10:11:20.263Z</time></trkpt><trkpt lat="41.5093416" lon="13.3471181"><ele>552.0</ele><time>2026-04-04T10:11:21.263Z</time></trkpt><trkpt lat="41.5093727" lon="13.3470041"><ele>552.0</ele><time>2026-04-04T10:11:22.265Z</time></trkpt><trkpt lat="41.5094085" lon="13.3469101"><ele>552.0</ele><time>2026-04-04T10:11:23.257Z</time></trkpt><trkpt lat="41.5094729" lon="13.3468475"><ele>552.0</ele><time>2026-04-04T10:11:25.259Z</time></trkpt><trkpt lat="41.5095072" lon="13.3469425"><ele>552.0</ele><time>2026-04-04T10:11:27.26Z</time></trkpt><trkpt lat="41.509517" lon="13.347026"><ele>552.0</ele><time>2026-04-04T10:11:28.264Z</time></trkpt><trkpt lat="41.5095335" lon="13.3471241"><ele>552.0</ele><time>2026-04-04T10:11:29.261Z</time></trkpt><trkpt lat="41.5095556" lon="13.3472246"><ele>552.0</ele><time>2026-04-04T10:11:30.271Z</time></trkpt><trkpt lat="41.5096032" lon="13.3473263"><ele>552.0</ele><time>2026-04-04T10:11:31.269Z</time></trkpt><trkpt lat="41.5096461" lon="13.3474231"><ele>552.0</ele><time>2026-04-04T10:11:32.263Z</time></trkpt><trkpt lat="41.5096735" lon="13.3475161"><ele>556.1666666666666</ele><time>2026-04-04T10:11:33.26Z</time></trkpt><trkpt lat="41.5096909" lon="13.3476"><ele>560.3333333333334</ele><time>2026-04-04T10:11:34.261Z</time></trkpt><trkpt lat="41.5096871" lon="13.3476856"><ele>564.5</ele><time>2026-04-04T10:11:35.258Z</time></trkpt><trkpt lat="41.5096683" lon="13.3477969"><ele>568.6666666666667</ele><time>2026-04-04T10:11:36.258Z</time></trkpt><trkpt lat="41.509644" lon="13.3479295"><ele>572.8333333333334</ele><time>2026-04-04T10:11:37.273Z</time></trkpt><trkpt lat="41.5096237" lon="13.3480774"><ele>577.0</ele><time>2026-04-04T10:11:38.261Z</time></trkpt><trkpt lat="41.5096022" lon="13.3482368"><ele>575.0</ele><time>2026-04-04T10:11:39.259Z</time></trkpt><trkpt lat="41.5095822" lon="13.3484026"><ele>573.0</ele><time>2026-04-04T10:11:40.263Z</time></trkpt><trkpt lat="41.5095635" lon="13.3485649"><ele>571.0</ele><time>2026-04-04T10:11:41.26Z</time></trkpt><trkpt lat="41.5095425" lon="13.3487229"><ele>569.0</ele><time>2026-04-04T10:11:42.276Z</time></trkpt><trkpt lat="41.5095226" lon="13.3488754"><ele>571.8333333333333</ele><time>2026-04-04T10:11:43.256Z</time></trkpt><trkpt lat="41.5095051" lon="13.3490099"><ele>574.6666666666666</ele><time>2026-04-04T10:11:44.262Z</time></trkpt><trkpt lat="41.5094823" lon="13.3491117"><ele>577.5</ele><time>2026-04-04T10:11:45.261Z</time></trkpt><trkpt lat="41.5094575" lon="13.3492553"><ele>580.3333333333334</ele><time>2026-04-04T10:11:47.265Z</time></trkpt><trkpt lat="41.5094828" lon="13.3493344"><ele>583.1666666666667</ele><time>2026-04-04T10:11:49.257Z</time></trkpt><trkpt lat="41.5095684" lon="13.349309"><ele>586.0</ele><time>2026-04-04T10:11:51.256Z</time></trkpt><trkpt lat="41.5096245" lon="13.3492653"><ele>586.4</ele><time>2026-04-04T10:11:52.26Z</time></trkpt><trkpt lat="41.5096799" lon="13.3491939"><ele>586.8</ele><time>2026-04-04T10:11:53.268Z</time></trkpt><trkpt lat="41.5097476" lon="13.3491133"><ele>587.1999999999999</ele><time>2026-04-04T10:11:54.269Z</time></trkpt><trkpt lat="41.5098292" lon="13.3490281"><ele>587.6</ele><time>2026-04-04T10:11:55.266Z</time></trkpt><trkpt lat="41.5099169" lon="13.3489354"><ele>588.0</ele><time>2026-04-04T10:11:56.262Z</time></trkpt><trkpt lat="41.5100068" lon="13.3488446"><ele>588.0</ele><time>2026-04-04T10:11:57.272Z</time></trkpt><trkpt lat="41.5100832" lon="13.3487624"><ele>588.0</ele><time>2026-04-04T10:11:58.261Z</time></trkpt><trkpt lat="41.5101422" lon="13.3486897"><ele>588.0</ele><time>2026-04-04T10:11:59.264Z</time></trkpt><trkpt lat="41.5102207" lon="13.3486135"><ele>588.0</ele><time>2026-04-04T10:12:01.257Z</time></trkpt><trkpt lat="41.5102315" lon="13.348743"><ele>588.0</ele><time>2026-04-04T10:12:05.266Z</time></trkpt><trkpt lat="41.5101906" lon="13.3488339"><ele>590.4</ele><time>2026-04-04T10:12:06.265Z</time></trkpt><trkpt lat="41.5101486" lon="13.3489434"><ele>592.8</ele><time>2026-04-04T10:12:07.294Z</time></trkpt><trkpt lat="41.5101023" lon="13.3490583"><ele>595.2</ele><time>2026-04-04T10:12:08.265Z</time></trkpt><trkpt lat="41.5100523" lon="13.3491947"><ele>597.6</ele><time>2026-04-04T10:12:09.263Z</time></trkpt><trkpt lat="41.5100023" lon="13.3493374"><ele>600.0</ele><time>2026-04-04T10:12:10.257Z</time></trkpt><trkpt lat="41.5099455" lon="13.3494816"><ele>600.0</ele><time>2026-04-04T10:12:11.269Z</time></trkpt><trkpt lat="41.5098828" lon="13.3496275"><ele>600.0</ele><time>2026-04-04T10:12:12.263Z</time></trkpt><trkpt lat="41.5098136" lon="13.3497761"><ele>600.0</ele><time>2026-04-04T10:12:13.264Z</time></trkpt><trkpt lat="41.5097422" lon="13.3499016"><ele>600.0</ele><time>2026-04-04T10:12:14.261Z</time></trkpt><trkpt lat="41.509681" lon="13.3499953"><ele>602.6666666666666</ele><time>2026-04-04T10:12:15.265Z</time></trkpt><trkpt lat="41.5096282" lon="13.3500744"><ele>605.3333333333334</ele><time>2026-04-04T10:12:16.26Z</time></trkpt><trkpt lat="41.5095832" lon="13.3501581"><ele>608.0</ele><time>2026-04-04T10:12:18.271Z</time></trkpt><trkpt lat="41.5096614" lon="13.3501901"><ele>610.6666666666667</ele><time>2026-04-04T10:12:20.266Z</time></trkpt><trkpt lat="41.5097302" lon="13.3501672"><ele>613.3333333333334</ele><time>2026-04-04T10:12:21.262Z</time></trkpt><trkpt lat="41.5098123" lon="13.3501299"><ele>616.0</ele><time>2026-04-04T10:12:22.267Z</time></trkpt><trkpt lat="41.5099089" lon="13.3500886"><ele>616.0</ele><time>2026-04-04T10:12:23.268Z</time></trkpt><trkpt lat="41.5100164" lon="13.3500305"><ele>616.0</ele><time>2026-04-04T10:12:24.261Z</time></trkpt><trkpt lat="41.5101261" lon="13.34997"><ele>616.0</ele><time>2026-04-04T10:12:25.262Z</time></trkpt><trkpt lat="41.5102444" lon="13.3499109"><ele>616.0</ele><time>2026-04-04T10:12:26.269Z</time></trkpt><trkpt lat="41.5103726" lon="13.3498552"><ele>617.0</ele><time>2026-04-04T10:12:27.266Z</time></trkpt><trkpt lat="41.5105028" lon="13.3497974"><ele>618.0</ele><time>2026-04-04T10:12:28.268Z</time></trkpt><trkpt lat="41.5106322" lon="13.3497516"><ele>619.0</ele><time>2026-04-04T10:12:29.259Z</time></trkpt><trkpt lat="41.5107678" lon="13.3497003"><ele>620.0</ele><time>2026-04-04T10:12:30.259Z</time></trkpt><trkpt lat="41.5109036" lon="13.3496436"><ele>620.0</ele><time>2026-04-04T10:12:31.263Z</time></trkpt><trkpt lat="41.5110331" lon="13.3495642"><ele>620.0</ele><time>2026-04-04T10:12:32.27Z</time></trkpt><trkpt lat="41.5111637" lon="13.3494692"><ele>620.0</ele><time>2026-04-04T10:12:33.274Z</time></trkpt><trkpt lat="41.5112772" lon="13.3493649"><ele>620.0</ele><time>2026-04-04T10:12:34.267Z</time></trkpt><trkpt lat="41.5113737" lon="13.3492526"><ele>624.75</ele><time>2026-04-04T10:12:35.263Z</time></trkpt><trkpt lat="41.5114608" lon="13.3491414"><ele>629.5</ele><time>2026-04-04T10:12:36.268Z</time></trkpt><trkpt lat="41.5115575" lon="13.3490388"><ele>634.25</ele><time>2026-04-04T10:12:37.26Z</time></trkpt><trkpt lat="41.511675" lon="13.348956"><ele>639.0</ele><time>2026-04-04T10:12:38.276Z</time></trkpt><trkpt lat="41.5118057" lon="13.3488857"><ele>639.0</ele><time>2026-04-04T10:12:39.266Z</time></trkpt><trkpt lat="41.5119385" lon="13.3488278"><ele>639.0</ele><time>2026-04-04T10:12:40.262Z</time></trkpt><trkpt lat="41.5120555" lon="13.3487831"><ele>639.0</ele><time>2026-04-04T10:12:41.263Z</time></trkpt><trkpt lat="41.512179" lon="13.3487294"><ele>639.0</ele><time>2026-04-04T10:12:42.263Z</time></trkpt><trkpt lat="41.5123061" lon="13.3486696"><ele>639.0</ele><time>2026-04-04T10:12:43.263Z</time></trkpt><trkpt lat="41.5124376" lon="13.3486059"><ele>639.0</ele><time>2026-04-04T10:12:44.257Z</time></trkpt><trkpt lat="41.5125741" lon="13.3485404"><ele>639.0</ele><time>2026-04-04T10:12:45.279Z</time></trkpt><trkpt lat="41.5127111" lon="13.3484747"><ele>639.0</ele><time>2026-04-04T10:12:46.257Z</time></trkpt><trkpt lat="41.5128466" lon="13.3484127"><ele>643.0</ele><time>2026-04-04T10:12:47.263Z</time></trkpt><trkpt lat="41.512982" lon="13.3483602"><ele>647.0</ele><time>2026-04-04T10:12:48.258Z</time></trkpt><trkpt lat="41.5130995" lon="13.3483"><ele>651.0</ele><time>2026-04-04T10:12:49.263Z</time></trkpt><trkpt lat="41.5132036" lon="13.3482585"><ele>655.0</ele><time>2026-04-04T10:12:50.269Z</time></trkpt><trkpt lat="41.5133011" lon="13.3482234"><ele>655.0</ele><time>2026-04-04T10:12:51.262Z</time></trkpt><trkpt lat="41.5133928" lon="13.3482036"><ele>655.0</ele><time>2026-04-04T10:12:52.257Z</time></trkpt><trkpt lat="41.5134934" lon="13.3481901"><ele>655.0</ele><time>2026-04-04T10:12:53.269Z</time></trkpt><trkpt lat="41.5135906" lon="13.3481921"><ele>655.0</ele><time>2026-04-04T10:12:54.263Z</time></trkpt><trkpt lat="41.5136842" lon="13.3481966"><ele>655.0</ele><time>2026-04-04T10:12:55.268Z</time></trkpt><trkpt lat="41.513759" lon="13.348205"><ele>655.0</ele><time>2026-04-04T10:12:56.265Z</time></trkpt><trkpt lat="41.5138252" lon="13.3482225"><ele>655.0</ele><time>2026-04-04T10:12:57.266Z</time></trkpt><trkpt lat="41.5138942" lon="13.3483156"><ele>655.0</ele><time>2026-04-04T10:12:59.268Z</time></trkpt><trkpt lat="41.513905" lon="13.3484227"><ele>655.0</ele><time>2026-04-04T10:13:01.26Z</time></trkpt><trkpt lat="41.5138172" lon="13.3485217"><ele>655.0</ele><time>2026-04-04T10:13:03.269Z</time></trkpt><trkpt lat="41.5137544" lon="13.3485941"><ele>655.0</ele><time>2026-04-04T10:13:04.267Z</time></trkpt><trkpt lat="41.5136985" lon="13.348662"><ele>655.0</ele><time>2026-04-04T10:13:05.277Z</time></trkpt><trkpt lat="41.5136584" lon="13.3487336"><ele>655.0</ele><time>2026-04-04T10:13:06.27Z</time></trkpt><trkpt lat="41.5136207" lon="13.3488677"><ele>655.0</ele><time>2026-04-04T10:13:08.262Z</time></trkpt><trkpt lat="41.5136591" lon="13.3489932"><ele>655.0</ele><time>2026-04-04T10:13:10.263Z</time></trkpt><trkpt lat="41.5137322" lon="13.3490421"><ele>655.0</ele><time>2026-04-04T10:13:12.265Z</time></trkpt><trkpt lat="41.5138049" lon="13.3490479"><ele>655.0</ele><time>2026-04-04T10:13:14.266Z</time></trkpt><trkpt lat="41.513857" lon="13.3491152"><ele>657.8333333333334</ele><time>2026-04-04T10:13:17.268Z</time></trkpt><trkpt lat="41.5138747" lon="13.3492066"><ele>660.6666666666667</ele><time>2026-04-04T10:13:19.269Z</time></trkpt><trkpt lat="41.513861" lon="13.3493259"><ele>663.5</ele><time>2026-04-04T10:13:21.266Z</time></trkpt><trkpt lat="41.5138087" lon="13.3494156"><ele>666.3333333333334</ele><time>2026-04-04T10:13:23.265Z</time></trkpt><trkpt lat="41.5137495" lon="13.3494679"><ele>669.1666666666666</ele><time>2026-04-04T10:13:25.266Z</time></trkpt><trkpt lat="41.5136705" lon="13.3494873"><ele>672.0</ele><time>2026-04-04T10:13:27.264Z</time></trkpt><trkpt lat="41.5135946" lon="13.3495236"><ele>672.0</ele><time>2026-04-04T10:13:29.267Z</time></trkpt><trkpt lat="41.5135015" lon="13.3495762"><ele>672.0</ele><time>2026-04-04T10:13:31.265Z</time></trkpt><trkpt lat="41.5134128" lon="13.3496341"><ele>672.0</ele><time>2026-04-04T10:13:33.263Z</time></trkpt><trkpt lat="41.5133241" lon="13.3497464"><ele>672.0</ele><time>2026-04-04T10:13:35.267Z</time></trkpt><trkpt lat="41.5132751" lon="13.3498192"><ele>672.0</ele><time>2026-04-04T10:13:36.259Z</time></trkpt><trkpt lat="41.5132206" lon="13.3498938"><ele>672.0</ele><time>2026-04-04T10:13:37.262Z</time></trkpt><trkpt lat="41.5131623" lon="13.3499748"><ele>672.0</ele><time>2026-04-04T10:13:38.272Z</time></trkpt><trkpt lat="41.5131077" lon="13.3500576"><ele>672.0</ele><time>2026-04-04T10:13:39.267Z</time></trkpt><trkpt lat="41.513058" lon="13.3501261"><ele>672.0</ele><time>2026-04-04T10:13:40.267Z</time></trkpt><trkpt lat="41.5129779" lon="13.3502459"><ele>672.0</ele><time>2026-04-04T10:13:42.259Z</time></trkpt><trkpt lat="41.5129272" lon="13.3503334"><ele>672.0</ele><time>2026-04-04T10:13:44.259Z</time></trkpt><trkpt lat="41.5128872" lon="13.3504136"><ele>672.0</ele><time>2026-04-04T10:15:09.262Z</time></trkpt><trkpt lat="41.5128275" lon="13.3505379"><ele>672.0</ele><time>2026-04-04T10:15:11.274Z</time></trkpt><trkpt lat="41.5127806" lon="13.3506105"><ele>672.0</ele><time>2026-04-04T10:15:12.262Z</time></trkpt><trkpt lat="41.5127337" lon="13.3506816"><ele>672.0</ele><time>2026-04-04T10:15:13.259Z</time></trkpt><trkpt lat="41.5126826" lon="13.3507561"><ele>672.0</ele><time>2026-04-04T10:15:14.26Z</time></trkpt><trkpt lat="41.5126207" lon="13.3508382"><ele>672.0</ele><time>2026-04-04T10:15:15.263Z</time></trkpt><trkpt lat="41.5125567" lon="13.3509186"><ele>675.0</ele><time>2026-04-04T10:15:16.254Z</time></trkpt><trkpt lat="41.5124918" lon="13.350997"><ele>678.0</ele><time>2026-04-04T10:15:17.271Z</time></trkpt><trkpt lat="41.5124366" lon="13.3510698"><ele>681.0</ele><time>2026-04-04T10:15:18.255Z</time></trkpt><trkpt lat="41.5123891" lon="13.3511414"><ele>684.0</ele><time>2026-04-04T10:15:19.268Z</time></trkpt><trkpt lat="41.5123414" lon="13.3512"><ele>687.0</ele><time>2026-04-04T10:15:20.266Z</time></trkpt><trkpt lat="41.5122862" lon="13.3512716"><ele>690.0</ele><time>2026-04-04T10:15:21.257Z</time></trkpt><trkpt lat="41.5122324" lon="13.3513482"><ele>691.1666666666666</ele><time>2026-04-04T10:15:22.274Z</time></trkpt><trkpt lat="41.5121782" lon="13.3514274"><ele>692.3333333333334</ele><time>2026-04-04T10:15:23.258Z</time></trkpt><trkpt lat="41.5121234" lon="13.3515048"><ele>693.5</ele><time>2026-04-04T10:15:24.267Z</time></trkpt><trkpt lat="41.5120734" lon="13.3515741"><ele>694.6666666666667</ele><time>2026-04-04T10:15:25.255Z</time></trkpt><trkpt lat="41.5120304" lon="13.3516422"><ele>695.8333333333334</ele><time>2026-04-04T10:15:26.264Z</time></trkpt><trkpt lat="41.511977" lon="13.3517241"><ele>697.0</ele><time>2026-04-04T10:15:27.261Z</time></trkpt><trkpt lat="41.5119193" lon="13.3517897"><ele>697.0</ele><time>2026-04-04T10:15:28.259Z</time></trkpt><trkpt lat="41.5118603" lon="13.3518582"><ele>697.0</ele><time>2026-04-04T10:15:29.264Z</time></trkpt><trkpt lat="41.5117996" lon="13.3519325"><ele>697.0</ele><time>2026-04-04T10:15:30.266Z</time></trkpt><trkpt lat="41.5117411" lon="13.3520082"><ele>697.0</ele><time>2026-04-04T10:15:31.26Z</time></trkpt><trkpt lat="41.5116825" lon="13.3520855"><ele>697.0</ele><time>2026-04-04T10:15:32.265Z</time></trkpt><trkpt lat="41.5116234" lon="13.3521634"><ele>697.0</ele><time>2026-04-04T10:15:33.262Z</time></trkpt><trkpt lat="41.5115699" lon="13.3522265"><ele>697.0</ele><time>2026-04-04T10:15:34.266Z</time></trkpt><trkpt lat="41.5115211" lon="13.3522812"><ele>697.0</ele><time>2026-04-04T10:15:35.26Z</time></trkpt><trkpt lat="41.5114221" lon="13.3523891"><ele>697.0</ele><time>2026-04-04T10:15:37.258Z</time></trkpt><trkpt lat="41.5113664" lon="13.3524472"><ele>697.0</ele><time>2026-04-04T10:15:38.26Z</time></trkpt><trkpt lat="41.5113138" lon="13.352503"><ele>697.0</ele><time>2026-04-04T10:15:39.275Z</time></trkpt><trkpt lat="41.5112276" lon="13.352604"><ele>697.0</ele><time>2026-04-04T10:15:41.258Z</time></trkpt><trkpt lat="41.5111656" lon="13.3526855"><ele>697.0</ele><time>2026-04-04T10:15:43.26Z</time></trkpt><trkpt lat="41.5111033" lon="13.3527594"><ele>697.0</ele><time>2026-04-04T10:15:45.27Z</time></trkpt><trkpt lat="41.511032" lon="13.3528535"><ele>697.0</ele><time>2026-04-04T10:15:47.264Z</time></trkpt><trkpt lat="41.5109778" lon="13.3529351"><ele>697.0</ele><time>2026-04-04T10:15:49.267Z</time></trkpt><trkpt lat="41.5109284" lon="13.3530357"><ele>697.0</ele><time>2026-04-04T10:15:51.264Z</time></trkpt><trkpt lat="41.5108662" lon="13.3531324"><ele>697.0</ele><time>2026-04-04T10:15:53.271Z</time></trkpt><trkpt lat="41.5107989" lon="13.3531356"><ele>697.0</ele><time>2026-04-04T10:16:52.259Z</time></trkpt><trkpt lat="41.5108668" lon="13.3531554"><ele>697.0</ele><time>2026-04-04T10:20:59.265Z</time></trkpt><trkpt lat="41.5109246" lon="13.3530672"><ele>697.0</ele><time>2026-04-04T10:21:03.268Z</time></trkpt><trkpt lat="41.5109704" lon="13.3530004"><ele>697.0</ele><time>2026-04-04T10:21:07.274Z</time></trkpt><trkpt lat="41.5110537" lon="13.3529506"><ele>697.0</ele><time>2026-04-04T10:22:11.238Z</time></trkpt><trkpt lat="41.5111305" lon="13.3529033"><ele>697.0</ele><time>2026-04-04T10:22:19.261Z</time></trkpt><trkpt lat="41.5112013" lon="13.3528439"><ele>697.0</ele><time>2026-04-04T10:22:21.264Z</time></trkpt><trkpt lat="41.5112836" lon="13.3527845"><ele>697.0</ele><time>2026-04-04T10:22:23.268Z</time></trkpt><trkpt lat="41.5113779" lon="13.3527195"><ele>697.0</ele><time>2026-04-04T10:22:25.262Z</time></trkpt><trkpt lat="41.5114827" lon="13.3526596"><ele>697.0</ele><time>2026-04-04T10:22:27.262Z</time></trkpt><trkpt lat="41.5115776" lon="13.3526092"><ele>702.25</ele><time>2026-04-04T10:22:29.273Z</time></trkpt><trkpt lat="41.5116752" lon="13.3525588"><ele>707.5</ele><time>2026-04-04T10:22:31.258Z</time></trkpt><trkpt lat="41.5117704" lon="13.3525063"><ele>712.75</ele><time>2026-04-04T10:22:33.266Z</time></trkpt><trkpt lat="41.5118851" lon="13.3524491"><ele>718.0</ele><time>2026-04-04T10:22:35.26Z</time></trkpt><trkpt lat="41.5120016" lon="13.3523911"><ele>718.0</ele><time>2026-04-04T10:22:37.273Z</time></trkpt><trkpt lat="41.5120619" lon="13.3523633"><ele>718.0</ele><time>2026-04-04T10:22:38.262Z</time></trkpt><trkpt lat="41.5121265" lon="13.3523351"><ele>718.0</ele><time>2026-04-04T10:22:39.264Z</time></trkpt><trkpt lat="41.5121858" lon="13.3523067"><ele>718.0</ele><time>2026-04-04T10:22:40.262Z</time></trkpt><trkpt lat="41.5122906" lon="13.3522607"><ele>718.0</ele><time>2026-04-04T10:22:42.262Z</time></trkpt><trkpt lat="41.5123853" lon="13.3522136"><ele>718.0</ele><time>2026-04-04T10:22:44.266Z</time></trkpt><trkpt lat="41.512458" lon="13.352269"><ele>718.0</ele><time>2026-04-04T10:23:28.27Z</time></trkpt><trkpt lat="41.5123731" lon="13.3523797"><ele>718.0</ele><time>2026-04-04T10:23:30.266Z</time></trkpt><trkpt lat="41.5123061" lon="13.3524556"><ele>718.0</ele><time>2026-04-04T10:23:31.26Z</time></trkpt><trkpt lat="41.5122374" lon="13.3525289"><ele>718.0</ele><time>2026-04-04T10:23:32.259Z</time></trkpt><trkpt lat="41.5121517" lon="13.3526112"><ele>718.0</ele><time>2026-04-04T10:23:33.26Z</time></trkpt><trkpt lat="41.5120713" lon="13.3526872"><ele>718.0</ele><time>2026-04-04T10:23:34.26Z</time></trkpt><trkpt lat="41.5119925" lon="13.3527689"><ele>718.0</ele><time>2026-04-04T10:23:35.261Z</time></trkpt><trkpt lat="41.5119061" lon="13.3528432"><ele>718.0</ele><time>2026-04-04T10:23:36.261Z</time></trkpt><trkpt lat="41.5118275" lon="13.3529078"><ele>718.0</ele><time>2026-04-04T10:23:37.262Z</time></trkpt><trkpt lat="41.5117534" lon="13.3529744"><ele>718.0</ele><time>2026-04-04T10:23:38.261Z</time></trkpt><trkpt lat="41.5116872" lon="13.3530338"><ele>721.2857142857143</ele><time>2026-04-04T10:23:39.271Z</time></trkpt><trkpt lat="41.5116281" lon="13.3530883"><ele>724.5714285714287</ele><time>2026-04-04T10:23:40.263Z</time></trkpt><trkpt lat="41.5115734" lon="13.3531413"><ele>727.8571428571429</ele><time>2026-04-04T10:23:41.269Z</time></trkpt><trkpt lat="41.5115184" lon="13.3532015"><ele>731.1428571428571</ele><time>2026-04-04T10:23:42.259Z</time></trkpt><trkpt lat="41.5114664" lon="13.353266"><ele>734.4285714285714</ele><time>2026-04-04T10:23:43.27Z</time></trkpt><trkpt lat="41.5114182" lon="13.3533314"><ele>737.7142857142857</ele><time>2026-04-04T10:23:44.265Z</time></trkpt><trkpt lat="41.5113669" lon="13.3533965"><ele>741.0</ele><time>2026-04-04T10:23:45.262Z</time></trkpt><trkpt lat="41.5113121" lon="13.353468"><ele>741.0</ele><time>2026-04-04T10:23:46.268Z</time></trkpt><trkpt lat="41.5112678" lon="13.3535346"><ele>741.0</ele><time>2026-04-04T10:23:47.261Z</time></trkpt><trkpt lat="41.5112173" lon="13.3535941"><ele>741.0</ele><time>2026-04-04T10:23:48.269Z</time></trkpt><trkpt lat="41.5111309" lon="13.3537047"><ele>741.0</ele><time>2026-04-04T10:23:50.268Z</time></trkpt><trkpt lat="41.5110836" lon="13.3537632"><ele>741.0</ele><time>2026-04-04T10:23:51.263Z</time></trkpt><trkpt lat="41.5109941" lon="13.3538787"><ele>741.0</ele><time>2026-04-04T10:23:53.264Z</time></trkpt><trkpt lat="41.5109148" lon="13.3539883"><ele>741.1666666666666</ele><time>2026-04-04T10:23:55.275Z</time></trkpt><trkpt lat="41.5108523" lon="13.3540621"><ele>741.3333333333334</ele><time>2026-04-04T10:24:23.263Z</time></trkpt><trkpt lat="41.5108941" lon="13.3541254"><ele>741.5</ele><time>2026-04-04T10:24:41.274Z</time></trkpt><trkpt lat="41.510959" lon="13.3540622"><ele>741.6666666666667</ele><time>2026-04-04T10:24:45.26Z</time></trkpt><trkpt lat="41.5110331" lon="13.354005"><ele>741.8333333333334</ele><time>2026-04-04T10:24:47.269Z</time></trkpt><trkpt lat="41.5110903" lon="13.3539572"><ele>742.0</ele><time>2026-04-04T10:24:48.267Z</time></trkpt><trkpt lat="41.5111552" lon="13.3539116"><ele>741.8</ele><time>2026-04-04T10:24:49.28Z</time></trkpt><trkpt lat="41.5112537" lon="13.3538368"><ele>741.6</ele><time>2026-04-04T10:24:51.264Z</time></trkpt><trkpt lat="41.5113399" lon="13.3537664"><ele>741.4</ele><time>2026-04-04T10:24:53.254Z</time></trkpt><trkpt lat="41.5114337" lon="13.3537067"><ele>741.1999999999999</ele><time>2026-04-04T10:24:55.257Z</time></trkpt><trkpt lat="41.5115437" lon="13.3536414"><ele>741.0</ele><time>2026-04-04T10:24:57.265Z</time></trkpt><trkpt lat="41.5116106" lon="13.3536049"><ele>741.0</ele><time>2026-04-04T10:24:58.261Z</time></trkpt><trkpt lat="41.5116825" lon="13.3535664"><ele>741.0</ele><time>2026-04-04T10:24:59.267Z</time></trkpt><trkpt lat="41.5117743" lon="13.3535224"><ele>741.0</ele><time>2026-04-04T10:25:00.271Z</time></trkpt><trkpt lat="41.5118524" lon="13.3534833"><ele>741.0</ele><time>2026-04-04T10:25:01.257Z</time></trkpt><trkpt lat="41.5119287" lon="13.3534554"><ele>741.0</ele><time>2026-04-04T10:25:02.272Z</time></trkpt><trkpt lat="41.5119923" lon="13.353427"><ele>741.0</ele><time>2026-04-04T10:25:03.256Z</time></trkpt><trkpt lat="41.5120926" lon="13.3533947"><ele>741.0</ele><time>2026-04-04T10:25:05.262Z</time></trkpt><trkpt lat="41.5121696" lon="13.353372"><ele>741.0</ele><time>2026-04-04T10:25:07.273Z</time></trkpt><trkpt lat="41.5122351" lon="13.3533545"><ele>741.0</ele><time>2026-04-04T10:25:12.257Z</time></trkpt><trkpt lat="41.5122205" lon="13.3534663"><ele>741.0</ele><time>2026-04-04T10:25:33.266Z</time></trkpt><trkpt lat="41.5121319" lon="13.3535466"><ele>741.0</ele><time>2026-04-04T10:25:35.267Z</time></trkpt><trkpt lat="41.5120394" lon="13.3536676"><ele>741.0</ele><time>2026-04-04T10:25:37.26Z</time></trkpt><trkpt lat="41.5119888" lon="13.3537212"><ele>741.0</ele><time>2026-04-04T10:25:38.256Z</time></trkpt><trkpt lat="41.5119055" lon="13.3538189"><ele>741.0</ele><time>2026-04-04T10:25:40.263Z</time></trkpt><trkpt lat="41.5118128" lon="13.3539099"><ele>741.0</ele><time>2026-04-04T10:25:42.266Z</time></trkpt><trkpt lat="41.511722" lon="13.3540191"><ele>741.0</ele><time>2026-04-04T10:25:44.267Z</time></trkpt><trkpt lat="41.5116433" lon="13.3541091"><ele>744.3333333333334</ele><time>2026-04-04T10:25:46.272Z</time></trkpt><trkpt lat="41.5115578" lon="13.3542081"><ele>747.6666666666666</ele><time>2026-04-04T10:25:48.261Z</time></trkpt><trkpt lat="41.511468" lon="13.3543137"><ele>751.0</ele><time>2026-04-04T10:25:50.26Z</time></trkpt><trkpt lat="41.5114207" lon="13.35437"><ele>754.3333333333333</ele><time>2026-04-04T10:25:51.266Z</time></trkpt><trkpt lat="41.5113664" lon="13.3544246"><ele>757.6666666666666</ele><time>2026-04-04T10:25:52.266Z</time></trkpt><trkpt lat="41.5113133" lon="13.3544804"><ele>761.0</ele><time>2026-04-04T10:25:53.262Z</time></trkpt><trkpt lat="41.5112577" lon="13.3545487"><ele>760.6666666666666</ele><time>2026-04-04T10:25:54.263Z</time></trkpt><trkpt lat="41.5112039" lon="13.3546072"><ele>760.3333333333333</ele><time>2026-04-04T10:25:55.26Z</time></trkpt><trkpt lat="41.5111551" lon="13.3546669"><ele>760.0</ele><time>2026-04-04T10:25:56.265Z</time></trkpt><trkpt lat="41.5111023" lon="13.3547306"><ele>759.6666666666666</ele><time>2026-04-04T10:25:57.263Z</time></trkpt><trkpt lat="41.5110427" lon="13.3547981"><ele>759.3333333333334</ele><time>2026-04-04T10:25:58.279Z</time></trkpt><trkpt lat="41.5109804" lon="13.3548734"><ele>759.0</ele><time>2026-04-04T10:25:59.267Z</time></trkpt><trkpt lat="41.5109139" lon="13.354954"><ele>759.0</ele><time>2026-04-04T10:26:00.267Z</time></trkpt><trkpt lat="41.5108376" lon="13.3550484"><ele>759.0</ele><time>2026-04-04T10:26:01.268Z</time></trkpt><trkpt lat="41.5107647" lon="13.3551474"><ele>759.0</ele><time>2026-04-04T10:26:02.276Z</time></trkpt><trkpt lat="41.5106787" lon="13.3552488"><ele>759.0</ele><time>2026-04-04T10:26:03.265Z</time></trkpt><trkpt lat="41.5106025" lon="13.3553365"><ele>759.0</ele><time>2026-04-04T10:26:04.259Z</time></trkpt><trkpt lat="41.5105244" lon="13.3554225"><ele>759.0</ele><time>2026-04-04T10:26:05.259Z</time></trkpt><trkpt lat="41.5104453" lon="13.3555013"><ele>759.0</ele><time>2026-04-04T10:26:06.266Z</time></trkpt><trkpt lat="41.5103735" lon="13.3555741"><ele>759.0</ele><time>2026-04-04T10:26:07.268Z</time></trkpt><trkpt lat="41.5103077" lon="13.35564"><ele>759.0</ele><time>2026-04-04T10:26:08.26Z</time></trkpt><trkpt lat="41.5102451" lon="13.3557052"><ele>759.0</ele><time>2026-04-04T10:26:09.28Z</time></trkpt><trkpt lat="41.5101787" lon="13.3557765"><ele>759.0</ele><time>2026-04-04T10:26:10.276Z</time></trkpt><trkpt lat="41.5101098" lon="13.3558403"><ele>758.0</ele><time>2026-04-04T10:26:11.27Z</time></trkpt><trkpt lat="41.5100497" lon="13.3558963"><ele>757.0</ele><time>2026-04-04T10:26:12.269Z</time></trkpt><trkpt lat="41.509994" lon="13.3559622"><ele>756.0</ele><time>2026-04-04T10:26:13.27Z</time></trkpt><trkpt lat="41.5099368" lon="13.3560335"><ele>755.0</ele><time>2026-04-04T10:26:14.271Z</time></trkpt><trkpt lat="41.5098829" lon="13.356099"><ele>754.0</ele><time>2026-04-04T10:26:15.263Z</time></trkpt><trkpt lat="41.5098005" lon="13.356206"><ele>753.0</ele><time>2026-04-04T10:26:17.266Z</time></trkpt><trkpt lat="41.5097312" lon="13.3563238"><ele>754.0</ele><time>2026-04-04T10:26:19.256Z</time></trkpt><trkpt lat="41.5096632" lon="13.3564691"><ele>755.0</ele><time>2026-04-04T10:26:21.264Z</time></trkpt><trkpt lat="41.5096325" lon="13.3565536"><ele>756.0</ele><time>2026-04-04T10:26:22.26Z</time></trkpt><trkpt lat="41.5096019" lon="13.3566354"><ele>757.0</ele><time>2026-04-04T10:26:23.267Z</time></trkpt><trkpt lat="41.5095769" lon="13.3567142"><ele>758.0</ele><time>2026-04-04T10:26:24.263Z</time></trkpt><trkpt lat="41.5095663" lon="13.3567976"><ele>759.0</ele><time>2026-04-04T10:26:25.27Z</time></trkpt><trkpt lat="41.5095717" lon="13.356883"><ele>757.0</ele><time>2026-04-04T10:26:26.267Z</time></trkpt><trkpt lat="41.5095456" lon="13.3570208"><ele>755.0</ele><time>2026-04-04T10:26:28.262Z</time></trkpt><trkpt lat="41.5094319" lon="13.3570954"><ele>753.0</ele><time>2026-04-04T10:26:30.262Z</time></trkpt><trkpt lat="41.509347" lon="13.3571963"><ele>751.0</ele><time>2026-04-04T10:26:32.262Z</time></trkpt><trkpt lat="41.5093246" lon="13.3572791"><ele>749.0</ele><time>2026-04-04T10:26:33.265Z</time></trkpt><trkpt lat="41.5092818" lon="13.3573634"><ele>749.0</ele><time>2026-04-04T10:26:34.268Z</time></trkpt><trkpt lat="41.5092335" lon="13.3574509"><ele>749.0</ele><time>2026-04-04T10:26:35.262Z</time></trkpt><trkpt lat="41.5091653" lon="13.3575343"><ele>749.0</ele><time>2026-04-04T10:26:36.262Z</time></trkpt><trkpt lat="41.5090974" lon="13.357616"><ele>749.0</ele><time>2026-04-04T10:26:37.266Z</time></trkpt><trkpt lat="41.5090165" lon="13.3577039"><ele>749.0</ele><time>2026-04-04T10:26:38.268Z</time></trkpt><trkpt lat="41.5089385" lon="13.3577927"><ele>749.0</ele><time>2026-04-04T10:26:39.265Z</time></trkpt><trkpt lat="41.5088651" lon="13.3578737"><ele>749.0</ele><time>2026-04-04T10:26:40.259Z</time></trkpt><trkpt lat="41.5087874" lon="13.3579405"><ele>749.0</ele><time>2026-04-04T10:26:41.267Z</time></trkpt><trkpt lat="41.5086938" lon="13.35799"><ele>749.0</ele><time>2026-04-04T10:26:42.263Z</time></trkpt><trkpt lat="41.5085957" lon="13.3580339"><ele>749.0</ele><time>2026-04-04T10:26:43.264Z</time></trkpt><trkpt lat="41.5084979" lon="13.3580677"><ele>748.0</ele><time>2026-04-04T10:26:44.261Z</time></trkpt><trkpt lat="41.5084015" lon="13.358101"><ele>747.0</ele><time>2026-04-04T10:26:45.296Z</time></trkpt><trkpt lat="41.5083183" lon="13.3581178"><ele>746.0</ele><time>2026-04-04T10:26:46.275Z</time></trkpt><trkpt lat="41.508252" lon="13.3581212"><ele>745.0</ele><time>2026-04-04T10:26:47.262Z</time></trkpt><trkpt lat="41.5081683" lon="13.3581776"><ele>744.0</ele><time>2026-04-04T10:26:49.258Z</time></trkpt><trkpt lat="41.5081302" lon="13.3582996"><ele>743.0</ele><time>2026-04-04T10:26:51.287Z</time></trkpt><trkpt lat="41.5081069" lon="13.358465"><ele>743.0</ele><time>2026-04-04T10:26:53.261Z</time></trkpt><trkpt lat="41.5081033" lon="13.3585571"><ele>743.0</ele><time>2026-04-04T10:26:54.265Z</time></trkpt><trkpt lat="41.5080979" lon="13.3586537"><ele>743.0</ele><time>2026-04-04T10:26:55.261Z</time></trkpt><trkpt lat="41.5080897" lon="13.3587438"><ele>743.0</ele><time>2026-04-04T10:26:56.267Z</time></trkpt><trkpt lat="41.5080682" lon="13.3588986"><ele>750.0</ele><time>2026-04-04T10:26:58.259Z</time></trkpt><trkpt lat="41.5080488" lon="13.359002"><ele>750.0</ele><time>2026-04-04T10:27:00.258Z</time></trkpt></trkseg><trkseg><trkpt lat="41.5080692" lon="13.3591407"><ele>750.0</ele><time>2026-04-04T11:11:31.262Z</time></trkpt><trkpt lat="41.5081434" lon="13.3592054"><ele>750.0</ele><time>2026-04-04T11:11:33.262Z</time></trkpt><trkpt lat="41.5081987" lon="13.3592545"><ele>750.0</ele><time>2026-04-04T11:11:35.26Z</time></trkpt><trkpt lat="41.5082695" lon="13.3592946"><ele>750.0</ele><time>2026-04-04T11:11:38.27Z</time></trkpt><trkpt lat="41.5083336" lon="13.3593446"><ele>750.0</ele><time>2026-04-04T11:11:41.272Z</time></trkpt><trkpt lat="41.5083903" lon="13.359391"><ele>750.0</ele><time>2026-04-04T11:11:44.276Z</time></trkpt><trkpt lat="41.5084558" lon="13.3594425"><ele>750.0</ele><time>2026-04-04T11:11:48.267Z</time></trkpt><trkpt lat="41.5085194" lon="13.3594712"><ele>750.0</ele><time>2026-04-04T11:11:51.274Z</time></trkpt><trkpt lat="41.5086132" lon="13.3595233"><ele>750.0</ele><time>2026-04-04T11:11:53.262Z</time></trkpt><trkpt lat="41.5086742" lon="13.3595575"><ele>750.0</ele><time>2026-04-04T11:11:54.267Z</time></trkpt><trkpt lat="41.5087748" lon="13.3596251"><ele>750.0</ele><time>2026-04-04T11:11:56.262Z</time></trkpt><trkpt lat="41.5088372" lon="13.3596671"><ele>750.0</ele><time>2026-04-04T11:11:58.264Z</time></trkpt><trkpt lat="41.5088941" lon="13.3597896"><ele>751.3333333333334</ele><time>2026-04-04T11:12:01.261Z</time></trkpt><trkpt lat="41.5089378" lon="13.3599394"><ele>752.6666666666666</ele><time>2026-04-04T11:12:03.268Z</time></trkpt><trkpt lat="41.5089625" lon="13.3600207"><ele>754.0</ele><time>2026-04-04T11:12:04.269Z</time></trkpt><trkpt lat="41.5089786" lon="13.3601216"><ele>755.3333333333333</ele><time>2026-04-04T11:12:05.263Z</time></trkpt><trkpt lat="41.5089793" lon="13.3602514"><ele>756.6666666666666</ele><time>2026-04-04T11:12:06.267Z</time></trkpt><trkpt lat="41.5089689" lon="13.3603485"><ele>758.0</ele><time>2026-04-04T11:12:07.268Z</time></trkpt><trkpt lat="41.5089712" lon="13.3604459"><ele>759.2857142857143</ele><time>2026-04-04T11:12:08.277Z</time></trkpt><trkpt lat="41.5089808" lon="13.3605379"><ele>760.5714285714286</ele><time>2026-04-04T11:12:09.265Z</time></trkpt><trkpt lat="41.5089784" lon="13.3606372"><ele>761.8571428571429</ele><time>2026-04-04T11:12:10.268Z</time></trkpt><trkpt lat="41.5089769" lon="13.3607336"><ele>763.1428571428571</ele><time>2026-04-04T11:12:11.261Z</time></trkpt><trkpt lat="41.5089712" lon="13.3608357"><ele>764.4285714285714</ele><time>2026-04-04T11:12:12.265Z</time></trkpt><trkpt lat="41.5089672" lon="13.3609248"><ele>765.7142857142858</ele><time>2026-04-04T11:12:13.267Z</time></trkpt><trkpt lat="41.5089463" lon="13.3610118"><ele>767.0</ele><time>2026-04-04T11:12:14.266Z</time></trkpt><trkpt lat="41.5089068" lon="13.3611059"><ele>767.0</ele><time>2026-04-04T11:12:15.263Z</time></trkpt><trkpt lat="41.5088642" lon="13.3612048"><ele>767.0</ele><time>2026-04-04T11:12:16.267Z</time></trkpt><trkpt lat="41.5088267" lon="13.3612862"><ele>767.0</ele><time>2026-04-04T11:12:17.257Z</time></trkpt><trkpt lat="41.5087717" lon="13.3614006"><ele>767.0</ele><time>2026-04-04T11:12:19.266Z</time></trkpt><trkpt lat="41.5087579" lon="13.36152"><ele>767.0</ele><time>2026-04-04T11:12:21.265Z</time></trkpt><trkpt lat="41.5087565" lon="13.361643"><ele>767.0</ele><time>2026-04-04T11:12:23.267Z</time></trkpt><trkpt lat="41.5087633" lon="13.3617818"><ele>767.8</ele><time>2026-04-04T11:12:25.268Z</time></trkpt><trkpt lat="41.5087472" lon="13.3619038"><ele>768.6</ele><time>2026-04-04T11:12:27.266Z</time></trkpt><trkpt lat="41.508681" lon="13.3619705"><ele>769.4</ele><time>2026-04-04T11:12:35.267Z</time></trkpt><trkpt lat="41.5085944" lon="13.3620452"><ele>770.1999999999999</ele><time>2026-04-04T11:12:38.265Z</time></trkpt><trkpt lat="41.5085436" lon="13.3621402"><ele>771.0</ele><time>2026-04-04T11:12:40.268Z</time></trkpt><trkpt lat="41.5085439" lon="13.3622641"><ele>771.1666666666666</ele><time>2026-04-04T11:12:42.271Z</time></trkpt><trkpt lat="41.5085466" lon="13.36236"><ele>771.3333333333333</ele><time>2026-04-04T11:12:44.269Z</time></trkpt><trkpt lat="41.5085084" lon="13.3624295"><ele>771.5</ele><time>2026-04-04T11:12:46.272Z</time></trkpt><trkpt lat="41.5084461" lon="13.3625282"><ele>771.6666666666666</ele><time>2026-04-04T11:12:48.274Z</time></trkpt><trkpt lat="41.5083505" lon="13.3626165"><ele>771.8333333333333</ele><time>2026-04-04T11:12:50.261Z</time></trkpt><trkpt lat="41.5082877" lon="13.3626583"><ele>772.0</ele><time>2026-04-04T11:12:51.265Z</time></trkpt><trkpt lat="41.5081945" lon="13.3627445"><ele>771.9999999999999</ele><time>2026-04-04T11:12:53.263Z</time></trkpt><trkpt lat="41.5081327" lon="13.3628579"><ele>772.0</ele><time>2026-04-04T11:12:55.26Z</time></trkpt><trkpt lat="41.5081271" lon="13.3629671"><ele>772.0</ele><time>2026-04-04T11:12:57.267Z</time></trkpt><trkpt lat="41.5081231" lon="13.3630804"><ele>772.0</ele><time>2026-04-04T11:13:00.268Z</time></trkpt><trkpt lat="41.5081361" lon="13.3632043"><ele>771.9999999999999</ele><time>2026-04-04T11:13:03.268Z</time></trkpt><trkpt lat="41.5081311" lon="13.363303"><ele>772.0</ele><time>2026-04-04T11:13:05.268Z</time></trkpt><trkpt lat="41.508148" lon="13.3634221"><ele>771.4000000000001</ele><time>2026-04-04T11:13:07.273Z</time></trkpt><trkpt lat="41.5081683" lon="13.3635521"><ele>770.8000000000001</ele><time>2026-04-04T11:13:09.27Z</time></trkpt><trkpt lat="41.5081407" lon="13.3636763"><ele>770.2</ele><time>2026-04-04T11:13:11.268Z</time></trkpt><trkpt lat="41.5080754" lon="13.3637935"><ele>769.6</ele><time>2026-04-04T11:13:13.272Z</time></trkpt><trkpt lat="41.5080783" lon="13.3638965"><ele>769.0</ele><time>2026-04-04T11:13:15.271Z</time></trkpt><trkpt lat="41.508102" lon="13.3639987"><ele>768.3333333333333</ele><time>2026-04-04T11:13:17.277Z</time></trkpt><trkpt lat="41.5080873" lon="13.3641615"><ele>767.6666666666666</ele><time>2026-04-04T11:13:19.264Z</time></trkpt><trkpt lat="41.5080767" lon="13.3642593"><ele>767.0</ele><time>2026-04-04T11:13:20.273Z</time></trkpt><trkpt lat="41.5080624" lon="13.3643493"><ele>766.3333333333333</ele><time>2026-04-04T11:13:21.263Z</time></trkpt><trkpt lat="41.508044" lon="13.3644417"><ele>765.6666666666666</ele><time>2026-04-04T11:13:22.264Z</time></trkpt><trkpt lat="41.5080243" lon="13.3645231"><ele>765.0</ele><time>2026-04-04T11:13:23.256Z</time></trkpt><trkpt lat="41.507999" lon="13.3646309"><ele>765.0</ele><time>2026-04-04T11:13:24.27Z</time></trkpt><trkpt lat="41.5079751" lon="13.3647543"><ele>765.0</ele><time>2026-04-04T11:13:25.262Z</time></trkpt><trkpt lat="41.5079507" lon="13.3648747"><ele>765.0</ele><time>2026-04-04T11:13:26.27Z</time></trkpt><trkpt lat="41.5079134" lon="13.364973"><ele>765.0</ele><time>2026-04-04T11:13:27.263Z</time></trkpt><trkpt lat="41.5078812" lon="13.3650781"><ele>765.0</ele><time>2026-04-04T11:13:28.263Z</time></trkpt><trkpt lat="41.5078617" lon="13.3651793"><ele>765.0</ele><time>2026-04-04T11:13:29.263Z</time></trkpt><trkpt lat="41.5078448" lon="13.3652764"><ele>767.1666666666666</ele><time>2026-04-04T11:13:30.26Z</time></trkpt><trkpt lat="41.5078212" lon="13.3653584"><ele>769.3333333333333</ele><time>2026-04-04T11:13:31.272Z</time></trkpt><trkpt lat="41.5077722" lon="13.3655071"><ele>771.5</ele><time>2026-04-04T11:13:33.263Z</time></trkpt><trkpt lat="41.5077356" lon="13.3656307"><ele>773.6666666666666</ele><time>2026-04-04T11:13:35.26Z</time></trkpt><trkpt lat="41.5077109" lon="13.3657297"><ele>775.8333333333333</ele><time>2026-04-04T11:13:37.263Z</time></trkpt><trkpt lat="41.5076499" lon="13.3657825"><ele>778.0</ele><time>2026-04-04T11:13:39.271Z</time></trkpt><trkpt lat="41.5075664" lon="13.3658841"><ele>778.8333333333333</ele><time>2026-04-04T11:13:41.268Z</time></trkpt><trkpt lat="41.5074891" lon="13.3659944"><ele>779.6666666666666</ele><time>2026-04-04T11:13:43.265Z</time></trkpt><trkpt lat="41.5074203" lon="13.3660892"><ele>780.5</ele><time>2026-04-04T11:13:45.265Z</time></trkpt><trkpt lat="41.5073861" lon="13.3661636"><ele>781.3333333333333</ele><time>2026-04-04T11:13:47.262Z</time></trkpt><trkpt lat="41.5073736" lon="13.366249"><ele>782.1666666666666</ele><time>2026-04-04T11:13:51.267Z</time></trkpt><trkpt lat="41.5072948" lon="13.3662982"><ele>783.0</ele><time>2026-04-04T11:13:53.264Z</time></trkpt><trkpt lat="41.5072018" lon="13.3663312"><ele>783.0</ele><time>2026-04-04T11:13:55.269Z</time></trkpt><trkpt lat="41.5071008" lon="13.3663232"><ele>783.0</ele><time>2026-04-04T11:13:57.265Z</time></trkpt><trkpt lat="41.5070145" lon="13.3662893"><ele>783.0</ele><time>2026-04-04T11:13:59.27Z</time></trkpt><trkpt lat="41.5069399" lon="13.3662731"><ele>783.0</ele><time>2026-04-04T11:14:03.275Z</time></trkpt><trkpt lat="41.5069342" lon="13.3663696"><ele>783.0</ele><time>2026-04-04T11:14:06.269Z</time></trkpt><trkpt lat="41.5069526" lon="13.3664974"><ele>783.0</ele><time>2026-04-04T11:14:08.274Z</time></trkpt><trkpt lat="41.5069966" lon="13.3666681"><ele>783.4</ele><time>2026-04-04T11:14:10.262Z</time></trkpt><trkpt lat="41.5070352" lon="13.3668099"><ele>783.8</ele><time>2026-04-04T11:14:12.266Z</time></trkpt><trkpt lat="41.5070756" lon="13.3669305"><ele>784.2</ele><time>2026-04-04T11:14:14.268Z</time></trkpt><trkpt lat="41.5071242" lon="13.3670551"><ele>784.6</ele><time>2026-04-04T11:14:16.285Z</time></trkpt><trkpt lat="41.5071281" lon="13.367145"><ele>785.0</ele><time>2026-04-04T11:14:18.266Z</time></trkpt><trkpt lat="41.5071952" lon="13.3671631"><ele>783.8</ele><time>2026-04-04T11:14:25.272Z</time></trkpt><trkpt lat="41.5072759" lon="13.3672376"><ele>782.6</ele><time>2026-04-04T11:14:28.277Z</time></trkpt><trkpt lat="41.507379" lon="13.3673009"><ele>781.4000000000001</ele><time>2026-04-04T11:14:30.267Z</time></trkpt><trkpt lat="41.5074585" lon="13.3674093"><ele>780.2</ele><time>2026-04-04T11:14:32.265Z</time></trkpt><trkpt lat="41.5074953" lon="13.3675441"><ele>779.0</ele><time>2026-04-04T11:14:34.269Z</time></trkpt><trkpt lat="41.507536" lon="13.367612"><ele>779.0</ele><time>2026-04-04T11:14:36.265Z</time></trkpt><trkpt lat="41.5076252" lon="13.3676179"><ele>779.0</ele><time>2026-04-04T11:14:38.266Z</time></trkpt><trkpt lat="41.5077038" lon="13.3675883"><ele>779.0</ele><time>2026-04-04T11:14:40.257Z</time></trkpt><trkpt lat="41.5077744" lon="13.3675219"><ele>779.0</ele><time>2026-04-04T11:14:42.275Z</time></trkpt><trkpt lat="41.5078711" lon="13.3674873"><ele>779.0</ele><time>2026-04-04T11:14:44.279Z</time></trkpt><trkpt lat="41.5079887" lon="13.3674888"><ele>778.0000000000001</ele><time>2026-04-04T11:14:46.268Z</time></trkpt><trkpt lat="41.5080944" lon="13.3674758"><ele>777.0</ele><time>2026-04-04T11:14:48.263Z</time></trkpt><trkpt lat="41.5081696" lon="13.3674577"><ele>776.0</ele><time>2026-04-04T11:14:50.271Z</time></trkpt><trkpt lat="41.5082279" lon="13.367399"><ele>775.0</ele><time>2026-04-04T11:14:53.271Z</time></trkpt><trkpt lat="41.5082886" lon="13.3673039"><ele>774.0000000000001</ele><time>2026-04-04T11:14:56.265Z</time></trkpt><trkpt lat="41.5083384" lon="13.3672149"><ele>773.0</ele><time>2026-04-04T11:14:58.275Z</time></trkpt><trkpt lat="41.5083098" lon="13.36712"><ele>773.0</ele><time>2026-04-04T11:15:01.269Z</time></trkpt><trkpt lat="41.5083332" lon="13.3669509"><ele>773.0</ele><time>2026-04-04T11:15:03.265Z</time></trkpt><trkpt lat="41.5083642" lon="13.366835"><ele>773.0</ele><time>2026-04-04T11:15:04.27Z</time></trkpt><trkpt lat="41.5083866" lon="13.3667256"><ele>773.0</ele><time>2026-04-04T11:15:05.269Z</time></trkpt><trkpt lat="41.5084034" lon="13.3666383"><ele>773.0</ele><time>2026-04-04T11:15:06.267Z</time></trkpt><trkpt lat="41.5084495" lon="13.3665076"><ele>773.0000000000001</ele><time>2026-04-04T11:15:08.268Z</time></trkpt><trkpt lat="41.5085014" lon="13.3663672"><ele>773.0</ele><time>2026-04-04T11:15:10.273Z</time></trkpt><trkpt lat="41.5085092" lon="13.3662756"><ele>773.0</ele><time>2026-04-04T11:15:12.263Z</time></trkpt><trkpt lat="41.508478" lon="13.3661763"><ele>773.0</ele><time>2026-04-04T11:15:15.275Z</time></trkpt><trkpt lat="41.5084453" lon="13.3660869"><ele>773.0000000000001</ele><time>2026-04-04T11:15:19.268Z</time></trkpt><trkpt lat="41.5084805" lon="13.3659709"><ele>773.0</ele><time>2026-04-04T11:15:21.269Z</time></trkpt><trkpt lat="41.5084946" lon="13.3658433"><ele>772.2</ele><time>2026-04-04T11:15:23.272Z</time></trkpt><trkpt lat="41.5084953" lon="13.3657267"><ele>771.4</ele><time>2026-04-04T11:15:25.273Z</time></trkpt><trkpt lat="41.5084881" lon="13.3656175"><ele>770.6</ele><time>2026-04-04T11:15:27.267Z</time></trkpt><trkpt lat="41.5084971" lon="13.365478"><ele>769.8000000000001</ele><time>2026-04-04T11:15:29.268Z</time></trkpt><trkpt lat="41.5085142" lon="13.3653203"><ele>769.0</ele><time>2026-04-04T11:15:31.264Z</time></trkpt><trkpt lat="41.5085432" lon="13.3651626"><ele>768.3333333333333</ele><time>2026-04-04T11:15:33.262Z</time></trkpt><trkpt lat="41.5085587" lon="13.3650783"><ele>767.6666666666666</ele><time>2026-04-04T11:15:34.268Z</time></trkpt><trkpt lat="41.5085903" lon="13.364905"><ele>767.0</ele><time>2026-04-04T11:15:36.264Z</time></trkpt><trkpt lat="41.5086052" lon="13.3648198"><ele>766.3333333333333</ele><time>2026-04-04T11:15:37.257Z</time></trkpt><trkpt lat="41.5086284" lon="13.3647383"><ele>765.6666666666666</ele><time>2026-04-04T11:15:38.275Z</time></trkpt><trkpt lat="41.5086453" lon="13.3646157"><ele>765.0</ele><time>2026-04-04T11:15:40.275Z</time></trkpt><trkpt lat="41.5085796" lon="13.3645775"><ele>765.0</ele><time>2026-04-04T11:15:42.262Z</time></trkpt><trkpt lat="41.508523" lon="13.364527"><ele>765.0</ele><time>2026-04-04T11:15:44.263Z</time></trkpt><trkpt lat="41.5085298" lon="13.3643861"><ele>765.0</ele><time>2026-04-04T11:15:46.268Z</time></trkpt><trkpt lat="41.508584" lon="13.3642429"><ele>765.0</ele><time>2026-04-04T11:15:48.267Z</time></trkpt><trkpt lat="41.5086408" lon="13.3641881"><ele>765.0</ele><time>2026-04-04T11:15:49.275Z</time></trkpt><trkpt lat="41.5087283" lon="13.3641076"><ele>762.2</ele><time>2026-04-04T11:15:51.269Z</time></trkpt><trkpt lat="41.5088154" lon="13.3640681"><ele>759.4</ele><time>2026-04-04T11:15:53.268Z</time></trkpt><trkpt lat="41.508938" lon="13.3640126"><ele>756.5999999999999</ele><time>2026-04-04T11:15:55.264Z</time></trkpt><trkpt lat="41.5090294" lon="13.363979"><ele>753.8</ele><time>2026-04-04T11:15:56.276Z</time></trkpt><trkpt lat="41.5091301" lon="13.3639498"><ele>751.0</ele><time>2026-04-04T11:15:57.263Z</time></trkpt><trkpt lat="41.5092162" lon="13.3639381"><ele>751.0</ele><time>2026-04-04T11:15:58.268Z</time></trkpt><trkpt lat="41.5092955" lon="13.3639413"><ele>751.0</ele><time>2026-04-04T11:15:59.261Z</time></trkpt><trkpt lat="41.5093659" lon="13.3639556"><ele>751.0</ele><time>2026-04-04T11:16:00.261Z</time></trkpt><trkpt lat="41.5094576" lon="13.3639796"><ele>751.0</ele><time>2026-04-04T11:16:02.269Z</time></trkpt><trkpt lat="41.5095286" lon="13.3639401"><ele>751.0</ele><time>2026-04-04T11:16:05.285Z</time></trkpt><trkpt lat="41.5096043" lon="13.363863"><ele>751.0</ele><time>2026-04-04T11:16:07.269Z</time></trkpt><trkpt lat="41.5096603" lon="13.3638167"><ele>750.3333333333334</ele><time>2026-04-04T11:16:08.279Z</time></trkpt><trkpt lat="41.5097604" lon="13.3637185"><ele>749.6666666666667</ele><time>2026-04-04T11:16:10.275Z</time></trkpt><trkpt lat="41.5098073" lon="13.3636578"><ele>749.0</ele><time>2026-04-04T11:16:11.273Z</time></trkpt><trkpt lat="41.5098468" lon="13.3635414"><ele>748.3333333333334</ele><time>2026-04-04T11:16:13.279Z</time></trkpt><trkpt lat="41.50989" lon="13.3634587"><ele>747.6666666666666</ele><time>2026-04-04T11:16:15.267Z</time></trkpt><trkpt lat="41.5099617" lon="13.3634612"><ele>747.0</ele><time>2026-04-04T11:16:17.267Z</time></trkpt><trkpt lat="41.5100431" lon="13.3634211"><ele>747.0</ele><time>2026-04-04T11:16:19.27Z</time></trkpt><trkpt lat="41.5101118" lon="13.3633418"><ele>747.0</ele><time>2026-04-04T11:16:21.269Z</time></trkpt><trkpt lat="41.5101896" lon="13.3632566"><ele>747.0</ele><time>2026-04-04T11:16:23.261Z</time></trkpt><trkpt lat="41.510274" lon="13.3632173"><ele>747.0</ele><time>2026-04-04T11:16:25.278Z</time></trkpt><trkpt lat="41.5103669" lon="13.3632276"><ele>747.0</ele><time>2026-04-04T11:16:28.263Z</time></trkpt><trkpt lat="41.5104489" lon="13.3632461"><ele>743.4000000000001</ele><time>2026-04-04T11:16:30.262Z</time></trkpt><trkpt lat="41.5105544" lon="13.3632085"><ele>739.8000000000001</ele><time>2026-04-04T11:16:32.263Z</time></trkpt><trkpt lat="41.5106542" lon="13.3631457"><ele>736.2</ele><time>2026-04-04T11:16:34.262Z</time></trkpt><trkpt lat="41.5107644" lon="13.3630921"><ele>732.6</ele><time>2026-04-04T11:16:36.261Z</time></trkpt><trkpt lat="41.5108497" lon="13.3630687"><ele>729.0</ele><time>2026-04-04T11:16:38.265Z</time></trkpt><trkpt lat="41.5109406" lon="13.3630616"><ele>728.0</ele><time>2026-04-04T11:16:40.264Z</time></trkpt><trkpt lat="41.5110186" lon="13.3629995"><ele>727.0</ele><time>2026-04-04T11:16:41.266Z</time></trkpt><trkpt lat="41.511106" lon="13.3629049"><ele>726.0</ele><time>2026-04-04T11:16:42.278Z</time></trkpt><trkpt lat="41.5112216" lon="13.3628258"><ele>725.0</ele><time>2026-04-04T11:16:43.261Z</time></trkpt><trkpt lat="41.5113453" lon="13.3627786"><ele>725.0</ele><time>2026-04-04T11:16:44.268Z</time></trkpt><trkpt lat="41.511464" lon="13.3627275"><ele>725.0</ele><time>2026-04-04T11:16:45.262Z</time></trkpt><trkpt lat="41.511578" lon="13.3626776"><ele>725.0</ele><time>2026-04-04T11:16:46.268Z</time></trkpt><trkpt lat="41.5116827" lon="13.3626321"><ele>725.0</ele><time>2026-04-04T11:16:47.275Z</time></trkpt><trkpt lat="41.5117677" lon="13.3625941"><ele>725.0</ele><time>2026-04-04T11:16:48.269Z</time></trkpt><trkpt lat="41.5118596" lon="13.362559"><ele>725.0</ele><time>2026-04-04T11:16:49.279Z</time></trkpt><trkpt lat="41.5119639" lon="13.3625553"><ele>725.0</ele><time>2026-04-04T11:16:50.266Z</time></trkpt><trkpt lat="41.5120886" lon="13.3625692"><ele>725.0</ele><time>2026-04-04T11:16:51.263Z</time></trkpt><trkpt lat="41.5122348" lon="13.3625902"><ele>725.0</ele><time>2026-04-04T11:16:52.27Z</time></trkpt><trkpt lat="41.5123856" lon="13.36261"><ele>721.75</ele><time>2026-04-04T11:16:53.269Z</time></trkpt><trkpt lat="41.5125378" lon="13.3626032"><ele>718.5</ele><time>2026-04-04T11:16:54.268Z</time></trkpt><trkpt lat="41.5126731" lon="13.3625757"><ele>715.25</ele><time>2026-04-04T11:16:55.265Z</time></trkpt><trkpt lat="41.5127923" lon="13.3625391"><ele>712.0</ele><time>2026-04-04T11:16:56.268Z</time></trkpt><trkpt lat="41.5128944" lon="13.3625016"><ele>710.0</ele><time>2026-04-04T11:16:57.267Z</time></trkpt><trkpt lat="41.512988" lon="13.3624691"><ele>708.0</ele><time>2026-04-04T11:16:58.271Z</time></trkpt><trkpt lat="41.5130801" lon="13.3624952"><ele>706.0</ele><time>2026-04-04T11:16:59.268Z</time></trkpt><trkpt lat="41.5131681" lon="13.362528"><ele>704.0</ele><time>2026-04-04T11:17:00.269Z</time></trkpt><trkpt lat="41.5132451" lon="13.362542"><ele>702.0</ele><time>2026-04-04T11:17:01.267Z</time></trkpt><trkpt lat="41.5133215" lon="13.3625553"><ele>700.0</ele><time>2026-04-04T11:17:02.284Z</time></trkpt><trkpt lat="41.5134043" lon="13.3625353"><ele>700.0</ele><time>2026-04-04T11:17:03.266Z</time></trkpt><trkpt lat="41.5134971" lon="13.3625007"><ele>700.0</ele><time>2026-04-04T11:17:04.268Z</time></trkpt><trkpt lat="41.5135881" lon="13.3624678"><ele>700.0</ele><time>2026-04-04T11:17:05.27Z</time></trkpt><trkpt lat="41.5136827" lon="13.3624378"><ele>700.0</ele><time>2026-04-04T11:17:06.274Z</time></trkpt><trkpt lat="41.5137786" lon="13.3623874"><ele>700.0</ele><time>2026-04-04T11:17:07.274Z</time></trkpt><trkpt lat="41.5138638" lon="13.3623337"><ele>699.8</ele><time>2026-04-04T11:17:08.278Z</time></trkpt><trkpt lat="41.5139486" lon="13.3622725"><ele>699.6</ele><time>2026-04-04T11:17:09.273Z</time></trkpt><trkpt lat="41.5140194" lon="13.3622059"><ele>699.4000000000001</ele><time>2026-04-04T11:17:10.27Z</time></trkpt><trkpt lat="41.5140865" lon="13.36213"><ele>699.2</ele><time>2026-04-04T11:17:11.274Z</time></trkpt><trkpt lat="41.5141513" lon="13.3620389"><ele>699.0</ele><time>2026-04-04T11:17:12.268Z</time></trkpt><trkpt lat="41.5142065" lon="13.3619411"><ele>699.0</ele><time>2026-04-04T11:17:13.282Z</time></trkpt><trkpt lat="41.5142604" lon="13.3618473"><ele>699.0</ele><time>2026-04-04T11:17:14.267Z</time></trkpt><trkpt lat="41.5143038" lon="13.361755"><ele>699.0</ele><time>2026-04-04T11:17:15.262Z</time></trkpt><trkpt lat="41.5143316" lon="13.3616556"><ele>699.0</ele><time>2026-04-04T11:17:16.269Z</time></trkpt><trkpt lat="41.5143485" lon="13.3615629"><ele>699.0</ele><time>2026-04-04T11:17:17.265Z</time></trkpt><trkpt lat="41.5143647" lon="13.3614151"><ele>699.0</ele><time>2026-04-04T11:17:19.266Z</time></trkpt><trkpt lat="41.5144601" lon="13.3612998"><ele>699.6666666666666</ele><time>2026-04-04T11:17:21.261Z</time></trkpt><trkpt lat="41.5145304" lon="13.3612481"><ele>700.3333333333334</ele><time>2026-04-04T11:17:22.265Z</time></trkpt><trkpt lat="41.514597" lon="13.3611913"><ele>701.0</ele><time>2026-04-04T11:17:23.271Z</time></trkpt><trkpt lat="41.5146534" lon="13.361119"><ele>701.6666666666667</ele><time>2026-04-04T11:17:24.269Z</time></trkpt><trkpt lat="41.5147102" lon="13.3610408"><ele>702.3333333333334</ele><time>2026-04-04T11:17:25.282Z</time></trkpt><trkpt lat="41.5147611" lon="13.3609651"><ele>703.0</ele><time>2026-04-04T11:17:26.271Z</time></trkpt><trkpt lat="41.5147971" lon="13.360886"><ele>699.8333333333334</ele><time>2026-04-04T11:17:27.262Z</time></trkpt><trkpt lat="41.5148272" lon="13.3608013"><ele>696.6666666666667</ele><time>2026-04-04T11:17:28.275Z</time></trkpt><trkpt lat="41.5148574" lon="13.3607147"><ele>693.5</ele><time>2026-04-04T11:17:29.274Z</time></trkpt><trkpt lat="41.514886" lon="13.3606227"><ele>690.3333333333334</ele><time>2026-04-04T11:17:30.276Z</time></trkpt><trkpt lat="41.5149161" lon="13.3605262"><ele>687.1666666666666</ele><time>2026-04-04T11:17:31.273Z</time></trkpt><trkpt lat="41.5149486" lon="13.3604242"><ele>684.0</ele><time>2026-04-04T11:17:32.267Z</time></trkpt><trkpt lat="41.5149705" lon="13.3603162"><ele>684.0</ele><time>2026-04-04T11:17:33.261Z</time></trkpt><trkpt lat="41.514995" lon="13.3602205"><ele>684.0</ele><time>2026-04-04T11:17:34.267Z</time></trkpt><trkpt lat="41.5150116" lon="13.3601214"><ele>684.0</ele><time>2026-04-04T11:17:35.261Z</time></trkpt><trkpt lat="41.5150243" lon="13.360016"><ele>684.0</ele><time>2026-04-04T11:17:36.279Z</time></trkpt><trkpt lat="41.5150368" lon="13.3599183"><ele>684.0</ele><time>2026-04-04T11:17:37.269Z</time></trkpt><trkpt lat="41.5150523" lon="13.3597955"><ele>684.0</ele><time>2026-04-04T11:17:39.272Z</time></trkpt><trkpt lat="41.5150466" lon="13.3597029"><ele>684.0</ele><time>2026-04-04T11:17:56.279Z</time></trkpt><trkpt lat="41.5150464" lon="13.3598679"><ele>684.0</ele><time>2026-04-04T11:18:07.27Z</time></trkpt><trkpt lat="41.5150379" lon="13.3599576"><ele>684.0</ele><time>2026-04-04T11:18:08.26Z</time></trkpt><trkpt lat="41.515021" lon="13.3600472"><ele>684.0</ele><time>2026-04-04T11:18:09.27Z</time></trkpt><trkpt lat="41.5150098" lon="13.3601458"><ele>684.0</ele><time>2026-04-04T11:18:10.275Z</time></trkpt><trkpt lat="41.5149933" lon="13.3602456"><ele>684.0</ele><time>2026-04-04T11:18:11.267Z</time></trkpt><trkpt lat="41.5149735" lon="13.3603477"><ele>684.0</ele><time>2026-04-04T11:18:12.285Z</time></trkpt><trkpt lat="41.5149471" lon="13.3604495"><ele>684.0</ele><time>2026-04-04T11:18:13.269Z</time></trkpt><trkpt lat="41.5149135" lon="13.3605718"><ele>684.0</ele><time>2026-04-04T11:18:14.278Z</time></trkpt><trkpt lat="41.5148833" lon="13.3606752"><ele>684.0</ele><time>2026-04-04T11:18:15.267Z</time></trkpt><trkpt lat="41.5148455" lon="13.3607788"><ele>684.0</ele><time>2026-04-04T11:18:16.269Z</time></trkpt><trkpt lat="41.5148033" lon="13.3608728"><ele>684.0</ele><time>2026-04-04T11:18:17.275Z</time></trkpt><trkpt lat="41.5147546" lon="13.3609581"><ele>683.4000000000001</ele><time>2026-04-04T11:18:18.266Z</time></trkpt><trkpt lat="41.5147096" lon="13.3610291"><ele>682.8</ele><time>2026-04-04T11:18:19.273Z</time></trkpt><trkpt lat="41.5146362" lon="13.3611315"><ele>682.2</ele><time>2026-04-04T11:18:21.262Z</time></trkpt><trkpt lat="41.5145577" lon="13.3612135"><ele>681.5999999999999</ele><time>2026-04-04T11:18:23.27Z</time></trkpt><trkpt lat="41.5144613" lon="13.3612779"><ele>681.0</ele><time>2026-04-04T11:18:25.263Z</time></trkpt><trkpt lat="41.5143842" lon="13.3613402"><ele>684.5999999999999</ele><time>2026-04-04T11:18:27.263Z</time></trkpt><trkpt lat="41.5143319" lon="13.361427"><ele>688.2</ele><time>2026-04-04T11:18:29.268Z</time></trkpt><trkpt lat="41.5143209" lon="13.3615792"><ele>691.8</ele><time>2026-04-04T11:18:31.265Z</time></trkpt><trkpt lat="41.5142882" lon="13.3617375"><ele>695.4000000000001</ele><time>2026-04-04T11:18:33.268Z</time></trkpt><trkpt lat="41.5142524" lon="13.3618182"><ele>699.0</ele><time>2026-04-04T11:18:34.279Z</time></trkpt><trkpt lat="41.51421" lon="13.3619043"><ele>699.0</ele><time>2026-04-04T11:18:35.263Z</time></trkpt><trkpt lat="41.5141689" lon="13.3619913"><ele>699.0</ele><time>2026-04-04T11:18:36.271Z</time></trkpt><trkpt lat="41.5141151" lon="13.3621036"><ele>699.0</ele><time>2026-04-04T11:18:38.262Z</time></trkpt><trkpt lat="41.5140432" lon="13.3621652"><ele>699.0</ele><time>2026-04-04T11:18:52.269Z</time></trkpt><trkpt lat="41.5139921" lon="13.3622286"><ele>699.0</ele><time>2026-04-04T11:18:54.268Z</time></trkpt><trkpt lat="41.513939" lon="13.3622911"><ele>699.0</ele><time>2026-04-04T11:18:57.283Z</time></trkpt><trkpt lat="41.5138627" lon="13.3623293"><ele>699.0</ele><time>2026-04-04T11:19:03.277Z</time></trkpt><trkpt lat="41.5138004" lon="13.362374"><ele>699.0</ele><time>2026-04-04T11:19:06.27Z</time></trkpt><trkpt lat="41.5138747" lon="13.3623285"><ele>699.0</ele><time>2026-04-04T11:19:13.265Z</time></trkpt><trkpt lat="41.5139723" lon="13.3622474"><ele>699.0</ele><time>2026-04-04T11:19:15.28Z</time></trkpt><trkpt lat="41.5140372" lon="13.3621966"><ele>699.0</ele><time>2026-04-04T11:19:16.273Z</time></trkpt><trkpt lat="41.5141086" lon="13.3621084"><ele>699.0</ele><time>2026-04-04T11:19:17.266Z</time></trkpt><trkpt lat="41.5141843" lon="13.3620126"><ele>699.0</ele><time>2026-04-04T11:19:18.263Z</time></trkpt><trkpt lat="41.5142549" lon="13.3618839"><ele>699.0</ele><time>2026-04-04T11:19:19.27Z</time></trkpt><trkpt lat="41.5143092" lon="13.3617637"><ele>699.0</ele><time>2026-04-04T11:19:20.261Z</time></trkpt><trkpt lat="41.514347" lon="13.3616535"><ele>699.0</ele><time>2026-04-04T11:19:21.267Z</time></trkpt><trkpt lat="41.5143813" lon="13.3615472"><ele>699.0</ele><time>2026-04-04T11:19:22.285Z</time></trkpt><trkpt lat="41.5143972" lon="13.3614387"><ele>699.8000000000001</ele><time>2026-04-04T11:19:23.272Z</time></trkpt><trkpt lat="41.5144099" lon="13.361348"><ele>700.6</ele><time>2026-04-04T11:19:24.269Z</time></trkpt><trkpt lat="41.5144851" lon="13.3612082"><ele>701.4</ele><time>2026-04-04T11:19:26.272Z</time></trkpt><trkpt lat="41.5145545" lon="13.3611642"><ele>702.2</ele><time>2026-04-04T11:19:27.285Z</time></trkpt><trkpt lat="41.514618" lon="13.3610887"><ele>703.0</ele><time>2026-04-04T11:19:28.265Z</time></trkpt><trkpt lat="41.5146962" lon="13.3609886"><ele>699.2</ele><time>2026-04-04T11:19:29.281Z</time></trkpt><trkpt lat="41.5147531" lon="13.3608816"><ele>695.4</ele><time>2026-04-04T11:19:30.274Z</time></trkpt><trkpt lat="41.5147981" lon="13.3607697"><ele>691.6</ele><time>2026-04-04T11:19:31.268Z</time></trkpt><trkpt lat="41.5148429" lon="13.3606492"><ele>687.8000000000001</ele><time>2026-04-04T11:19:32.265Z</time></trkpt><trkpt lat="41.5148934" lon="13.3605224"><ele>684.0</ele><time>2026-04-04T11:19:33.275Z</time></trkpt><trkpt lat="41.5149304" lon="13.3603756"><ele>684.0</ele><time>2026-04-04T11:19:34.265Z</time></trkpt><trkpt lat="41.5149718" lon="13.3602305"><ele>684.0</ele><time>2026-04-04T11:19:35.263Z</time></trkpt><trkpt lat="41.5149995" lon="13.3600902"><ele>684.0</ele><time>2026-04-04T11:19:36.267Z</time></trkpt><trkpt lat="41.5150199" lon="13.3599561"><ele>684.0</ele><time>2026-04-04T11:19:37.268Z</time></trkpt><trkpt lat="41.5150297" lon="13.359836"><ele>684.0</ele><time>2026-04-04T11:19:38.271Z</time></trkpt><trkpt lat="41.5150307" lon="13.3597198"><ele>683.3333333333334</ele><time>2026-04-04T11:19:39.267Z</time></trkpt><trkpt lat="41.5150179" lon="13.3596105"><ele>682.6666666666666</ele><time>2026-04-04T11:19:40.259Z</time></trkpt><trkpt lat="41.5149995" lon="13.3595052"><ele>682.0</ele><time>2026-04-04T11:19:41.273Z</time></trkpt><trkpt lat="41.5149754" lon="13.3594025"><ele>681.3333333333333</ele><time>2026-04-04T11:19:42.268Z</time></trkpt><trkpt lat="41.5149479" lon="13.3593117"><ele>680.6666666666666</ele><time>2026-04-04T11:19:43.267Z</time></trkpt><trkpt lat="41.5149157" lon="13.3592219"><ele>680.0</ele><time>2026-04-04T11:19:44.268Z</time></trkpt><trkpt lat="41.514881" lon="13.359134"><ele>680.0</ele><time>2026-04-04T11:19:45.266Z</time></trkpt><trkpt lat="41.5148432" lon="13.3590504"><ele>680.0</ele><time>2026-04-04T11:19:46.265Z</time></trkpt><trkpt lat="41.5148043" lon="13.3589694"><ele>680.0</ele><time>2026-04-04T11:19:47.26Z</time></trkpt><trkpt lat="41.5147761" lon="13.3588917"><ele>680.0</ele><time>2026-04-04T11:19:48.299Z</time></trkpt><trkpt lat="41.5147795" lon="13.3587485"><ele>680.0</ele><time>2026-04-04T11:19:50.273Z</time></trkpt><trkpt lat="41.5148514" lon="13.3586325"><ele>680.0</ele><time>2026-04-04T11:19:52.273Z</time></trkpt><trkpt lat="41.5149042" lon="13.3584798"><ele>680.3333333333333</ele><time>2026-04-04T11:19:54.275Z</time></trkpt><trkpt lat="41.5149092" lon="13.3583773"><ele>680.6666666666666</ele><time>2026-04-04T11:19:55.278Z</time></trkpt><trkpt lat="41.5149115" lon="13.3582702"><ele>681.0</ele><time>2026-04-04T11:19:56.269Z</time></trkpt><trkpt lat="41.5149364" lon="13.3581569"><ele>681.3333333333334</ele><time>2026-04-04T11:19:57.283Z</time></trkpt><trkpt lat="41.5149776" lon="13.3580411"><ele>681.6666666666667</ele><time>2026-04-04T11:19:58.273Z</time></trkpt><trkpt lat="41.5150151" lon="13.3579158"><ele>682.0</ele><time>2026-04-04T11:19:59.27Z</time></trkpt><trkpt lat="41.5150294" lon="13.3578088"><ele>682.4000000000001</ele><time>2026-04-04T11:20:00.267Z</time></trkpt><trkpt lat="41.5150213" lon="13.3577225"><ele>682.8000000000001</ele><time>2026-04-04T11:20:01.266Z</time></trkpt><trkpt lat="41.5149737" lon="13.3575839"><ele>683.2</ele><time>2026-04-04T11:20:03.275Z</time></trkpt><trkpt lat="41.5149281" lon="13.3575252"><ele>683.6</ele><time>2026-04-04T11:20:04.269Z</time></trkpt><trkpt lat="41.5148982" lon="13.3573965"><ele>684.0</ele><time>2026-04-04T11:20:06.272Z</time></trkpt><trkpt lat="41.5150046" lon="13.3572896"><ele>684.0</ele><time>2026-04-04T11:20:08.268Z</time></trkpt><trkpt lat="41.5150728" lon="13.3572843"><ele>684.0</ele><time>2026-04-04T11:20:09.275Z</time></trkpt><trkpt lat="41.5151461" lon="13.3572848"><ele>684.0</ele><time>2026-04-04T11:20:10.269Z</time></trkpt><trkpt lat="41.5152119" lon="13.3573069"><ele>684.0</ele><time>2026-04-04T11:20:11.264Z</time></trkpt><trkpt lat="41.5153341" lon="13.3573165"><ele>684.0</ele><time>2026-04-04T11:20:13.276Z</time></trkpt><trkpt lat="41.5153925" lon="13.3572833"><ele>684.0</ele><time>2026-04-04T11:20:14.268Z</time></trkpt><trkpt lat="41.5154737" lon="13.3571394"><ele>681.8333333333334</ele><time>2026-04-04T11:20:16.269Z</time></trkpt><trkpt lat="41.5155186" lon="13.3570401"><ele>679.6666666666666</ele><time>2026-04-04T11:20:17.273Z</time></trkpt><trkpt lat="41.5155617" lon="13.356941"><ele>677.5</ele><time>2026-04-04T11:20:18.28Z</time></trkpt><trkpt lat="41.5155881" lon="13.3568627"><ele>675.3333333333333</ele><time>2026-04-04T11:20:19.265Z</time></trkpt><trkpt lat="41.5155879" lon="13.3567059"><ele>673.1666666666666</ele><time>2026-04-04T11:20:21.267Z</time></trkpt><trkpt lat="41.5155762" lon="13.3566227"><ele>671.0</ele><time>2026-04-04T11:20:22.272Z</time></trkpt><trkpt lat="41.5155634" lon="13.3565396"><ele>671.0</ele><time>2026-04-04T11:20:23.277Z</time></trkpt><trkpt lat="41.5156163" lon="13.3563796"><ele>671.0</ele><time>2026-04-04T11:21:15.268Z</time></trkpt><trkpt lat="41.5156254" lon="13.3562895"><ele>671.0</ele><time>2026-04-04T11:21:17.279Z</time></trkpt><trkpt lat="41.5156325" lon="13.3561605"><ele>671.0</ele><time>2026-04-04T11:21:19.276Z</time></trkpt><trkpt lat="41.5155881" lon="13.3560463"><ele>671.0</ele><time>2026-04-04T11:21:21.332Z</time></trkpt><trkpt lat="41.5154941" lon="13.3559497"><ele>671.4285714285714</ele><time>2026-04-04T11:21:23.264Z</time></trkpt><trkpt lat="41.5154322" lon="13.355908"><ele>671.8571428571429</ele><time>2026-04-04T11:21:24.269Z</time></trkpt><trkpt lat="41.5153681" lon="13.3558843"><ele>672.2857142857143</ele><time>2026-04-04T11:21:25.267Z</time></trkpt><trkpt lat="41.5153013" lon="13.3558669"><ele>672.7142857142858</ele><time>2026-04-04T11:21:26.275Z</time></trkpt><trkpt lat="41.5152381" lon="13.3558554"><ele>673.1428571428571</ele><time>2026-04-04T11:21:27.263Z</time></trkpt><trkpt lat="41.5151709" lon="13.3558466"><ele>673.5714285714287</ele><time>2026-04-04T11:21:28.257Z</time></trkpt><trkpt lat="41.5150999" lon="13.3558288"><ele>674.0</ele><time>2026-04-04T11:21:29.26Z</time></trkpt><trkpt lat="41.5150343" lon="13.3558072"><ele>676.3333333333333</ele><time>2026-04-04T11:21:30.264Z</time></trkpt><trkpt lat="41.5149648" lon="13.3557807"><ele>678.6666666666666</ele><time>2026-04-04T11:21:31.266Z</time></trkpt><trkpt lat="41.5148584" lon="13.3557394"><ele>681.0</ele><time>2026-04-04T11:21:33.261Z</time></trkpt><trkpt lat="41.5148044" lon="13.3556939"><ele>683.3333333333334</ele><time>2026-04-04T11:21:34.262Z</time></trkpt><trkpt lat="41.5147619" lon="13.3556234"><ele>685.6666666666667</ele><time>2026-04-04T11:21:35.259Z</time></trkpt><trkpt lat="41.5147206" lon="13.3555517"><ele>688.0</ele><time>2026-04-04T11:21:36.267Z</time></trkpt><trkpt lat="41.514704" lon="13.3554553"><ele>688.3333333333334</ele><time>2026-04-04T11:21:37.276Z</time></trkpt><trkpt lat="41.5146805" lon="13.3553569"><ele>688.6666666666667</ele><time>2026-04-04T11:21:38.264Z</time></trkpt><trkpt lat="41.5146611" lon="13.355255"><ele>689.0</ele><time>2026-04-04T11:21:39.267Z</time></trkpt><trkpt lat="41.5146347" lon="13.355146"><ele>689.3333333333334</ele><time>2026-04-04T11:21:40.268Z</time></trkpt><trkpt lat="41.5146121" lon="13.3550435"><ele>689.6666666666666</ele><time>2026-04-04T11:21:41.269Z</time></trkpt><trkpt lat="41.5145936" lon="13.3549321"><ele>690.0</ele><time>2026-04-04T11:21:42.278Z</time></trkpt><trkpt lat="41.5145956" lon="13.3548073"><ele>691.0</ele><time>2026-04-04T11:21:43.27Z</time></trkpt><trkpt lat="41.5145948" lon="13.3546714"><ele>692.0</ele><time>2026-04-04T11:21:44.264Z</time></trkpt><trkpt lat="41.5145963" lon="13.3545327"><ele>693.0</ele><time>2026-04-04T11:21:45.272Z</time></trkpt><trkpt lat="41.5146157" lon="13.354394"><ele>694.0</ele><time>2026-04-04T11:21:46.269Z</time></trkpt><trkpt lat="41.5146294" lon="13.3542373"><ele>695.0</ele><time>2026-04-04T11:21:47.285Z</time></trkpt><trkpt lat="41.5146416" lon="13.3540743"><ele>695.0</ele><time>2026-04-04T11:21:48.278Z</time></trkpt><trkpt lat="41.5146656" lon="13.3539154"><ele>695.0</ele><time>2026-04-04T11:21:49.279Z</time></trkpt><trkpt lat="41.5146935" lon="13.353767"><ele>695.0</ele><time>2026-04-04T11:21:50.264Z</time></trkpt><trkpt lat="41.514715" lon="13.3536151"><ele>695.0</ele><time>2026-04-04T11:21:51.268Z</time></trkpt><trkpt lat="41.5147262" lon="13.3534771"><ele>696.2</ele><time>2026-04-04T11:21:52.269Z</time></trkpt><trkpt lat="41.5147074" lon="13.3533576"><ele>697.4</ele><time>2026-04-04T11:21:53.271Z</time></trkpt><trkpt lat="41.5146915" lon="13.3532451"><ele>698.5999999999999</ele><time>2026-04-04T11:21:54.275Z</time></trkpt><trkpt lat="41.5146606" lon="13.3531334"><ele>699.8</ele><time>2026-04-04T11:21:55.271Z</time></trkpt><trkpt lat="41.5146375" lon="13.3530238"><ele>701.0</ele><time>2026-04-04T11:21:56.269Z</time></trkpt><trkpt lat="41.5146693" lon="13.3528744"><ele>702.1999999999999</ele><time>2026-04-04T11:21:57.268Z</time></trkpt><trkpt lat="41.5147026" lon="13.3527329"><ele>703.4</ele><time>2026-04-04T11:21:58.275Z</time></trkpt><trkpt lat="41.5147528" lon="13.3526193"><ele>704.6</ele><time>2026-04-04T11:21:59.275Z</time></trkpt><trkpt lat="41.5148022" lon="13.3525058"><ele>705.8</ele><time>2026-04-04T11:22:00.265Z</time></trkpt><trkpt lat="41.5148586" lon="13.3523882"><ele>707.0</ele><time>2026-04-04T11:22:01.278Z</time></trkpt><trkpt lat="41.5149184" lon="13.3522835"><ele>708.2</ele><time>2026-04-04T11:22:02.271Z</time></trkpt><trkpt lat="41.5149648" lon="13.3522011"><ele>709.4000000000001</ele><time>2026-04-04T11:22:03.274Z</time></trkpt><trkpt lat="41.5150049" lon="13.3521342"><ele>710.5999999999999</ele><time>2026-04-04T11:22:04.271Z</time></trkpt><trkpt lat="41.5150493" lon="13.3520674"><ele>711.8</ele><time>2026-04-04T11:22:05.276Z</time></trkpt><trkpt lat="41.5151148" lon="13.3519412"><ele>713.0</ele><time>2026-04-04T11:22:07.267Z</time></trkpt><trkpt lat="41.515098" lon="13.3517637"><ele>713.0</ele><time>2026-04-04T11:22:09.269Z</time></trkpt><trkpt lat="41.5151005" lon="13.3516595"><ele>713.0</ele><time>2026-04-04T11:22:10.272Z</time></trkpt><trkpt lat="41.5151127" lon="13.3515547"><ele>713.0</ele><time>2026-04-04T11:22:11.265Z</time></trkpt><trkpt lat="41.5151203" lon="13.3514612"><ele>713.0</ele><time>2026-04-04T11:22:12.278Z</time></trkpt><trkpt lat="41.5150779" lon="13.3513296"><ele>713.0</ele><time>2026-04-04T11:22:14.275Z</time></trkpt><trkpt lat="41.5150234" lon="13.3512818"><ele>713.0</ele><time>2026-04-04T11:22:15.269Z</time></trkpt><trkpt lat="41.5149521" lon="13.3512366"><ele>712.1666666666666</ele><time>2026-04-04T11:22:16.267Z</time></trkpt><trkpt lat="41.5148917" lon="13.3511742"><ele>711.3333333333333</ele><time>2026-04-04T11:22:17.265Z</time></trkpt><trkpt lat="41.5148485" lon="13.3510978"><ele>710.5</ele><time>2026-04-04T11:22:18.27Z</time></trkpt><trkpt lat="41.5148255" lon="13.3510123"><ele>709.6666666666666</ele><time>2026-04-04T11:22:19.263Z</time></trkpt><trkpt lat="41.51482" lon="13.3509087"><ele>708.8333333333334</ele><time>2026-04-04T11:22:20.285Z</time></trkpt><trkpt lat="41.5148351" lon="13.3507863"><ele>708.0</ele><time>2026-04-04T11:22:21.264Z</time></trkpt><trkpt lat="41.5148465" lon="13.3506751"><ele>708.0</ele><time>2026-04-04T11:22:22.268Z</time></trkpt><trkpt lat="41.5148538" lon="13.3505642"><ele>708.0</ele><time>2026-04-04T11:22:23.27Z</time></trkpt><trkpt lat="41.5148576" lon="13.3504565"><ele>708.0</ele><time>2026-04-04T11:22:24.273Z</time></trkpt><trkpt lat="41.5148641" lon="13.3503471"><ele>708.0</ele><time>2026-04-04T11:22:25.26Z</time></trkpt><trkpt lat="41.514899" lon="13.3502267"><ele>708.0</ele><time>2026-04-04T11:22:26.264Z</time></trkpt><trkpt lat="41.5149398" lon="13.3501036"><ele>708.0</ele><time>2026-04-04T11:22:27.267Z</time></trkpt><trkpt lat="41.5149826" lon="13.3499774"><ele>706.5</ele><time>2026-04-04T11:22:28.274Z</time></trkpt><trkpt lat="41.5150291" lon="13.3498439"><ele>705.0</ele><time>2026-04-04T11:22:29.269Z</time></trkpt><trkpt lat="41.5150758" lon="13.3497083"><ele>703.5</ele><time>2026-04-04T11:22:30.284Z</time></trkpt><trkpt lat="41.5151248" lon="13.349573"><ele>702.0</ele><time>2026-04-04T11:22:31.273Z</time></trkpt><trkpt lat="41.5151743" lon="13.3494336"><ele>700.2</ele><time>2026-04-04T11:22:32.277Z</time></trkpt><trkpt lat="41.5152165" lon="13.3493036"><ele>698.4000000000001</ele><time>2026-04-04T11:22:33.268Z</time></trkpt><trkpt lat="41.5152554" lon="13.3491725"><ele>696.5999999999999</ele><time>2026-04-04T11:22:34.269Z</time></trkpt><trkpt lat="41.5152868" lon="13.3490463"><ele>694.8</ele><time>2026-04-04T11:22:35.287Z</time></trkpt><trkpt lat="41.5153139" lon="13.3489294"><ele>693.0</ele><time>2026-04-04T11:22:36.28Z</time></trkpt><trkpt lat="41.5153366" lon="13.34883"><ele>692.6666666666666</ele><time>2026-04-04T11:22:37.265Z</time></trkpt><trkpt lat="41.5153654" lon="13.3486981"><ele>692.3333333333334</ele><time>2026-04-04T11:22:39.274Z</time></trkpt><trkpt lat="41.5153593" lon="13.3486006"><ele>692.0</ele><time>2026-04-04T11:22:42.272Z</time></trkpt><trkpt lat="41.5153735" lon="13.3484557"><ele>691.6666666666667</ele><time>2026-04-04T11:22:48.269Z</time></trkpt><trkpt lat="41.5153884" lon="13.3483699"><ele>691.3333333333334</ele><time>2026-04-04T11:22:49.267Z</time></trkpt><trkpt lat="41.5153997" lon="13.3482758"><ele>691.0</ele><time>2026-04-04T11:22:50.269Z</time></trkpt><trkpt lat="41.5154152" lon="13.3481689"><ele>691.0</ele><time>2026-04-04T11:22:51.276Z</time></trkpt><trkpt lat="41.5154342" lon="13.3480484"><ele>691.0</ele><time>2026-04-04T11:22:52.28Z</time></trkpt><trkpt lat="41.5154529" lon="13.3479297"><ele>691.0</ele><time>2026-04-04T11:22:53.27Z</time></trkpt><trkpt lat="41.5154704" lon="13.3478124"><ele>691.0</ele><time>2026-04-04T11:22:54.278Z</time></trkpt><trkpt lat="41.5154858" lon="13.3477087"><ele>691.0</ele><time>2026-04-04T11:22:55.272Z</time></trkpt><trkpt lat="41.5155056" lon="13.3475964"><ele>691.0</ele><time>2026-04-04T11:22:56.271Z</time></trkpt><trkpt lat="41.5155239" lon="13.347487"><ele>691.1999999999999</ele><time>2026-04-04T11:22:57.265Z</time></trkpt><trkpt lat="41.5155464" lon="13.3473834"><ele>691.4</ele><time>2026-04-04T11:22:58.282Z</time></trkpt><trkpt lat="41.5155814" lon="13.3472763"><ele>691.6</ele><time>2026-04-04T11:22:59.275Z</time></trkpt><trkpt lat="41.5156232" lon="13.3471642"><ele>691.8</ele><time>2026-04-04T11:23:00.267Z</time></trkpt><trkpt lat="41.51567" lon="13.3470539"><ele>692.0</ele><time>2026-04-04T11:23:01.279Z</time></trkpt><trkpt lat="41.5157228" lon="13.3469463"><ele>692.1666666666666</ele><time>2026-04-04T11:23:02.275Z</time></trkpt><trkpt lat="41.515773" lon="13.3468443"><ele>692.3333333333333</ele><time>2026-04-04T11:23:03.277Z</time></trkpt><trkpt lat="41.5158123" lon="13.3467387"><ele>692.5</ele><time>2026-04-04T11:23:04.268Z</time></trkpt><trkpt lat="41.5158375" lon="13.34663"><ele>692.6666666666666</ele><time>2026-04-04T11:23:05.277Z</time></trkpt><trkpt lat="41.5158576" lon="13.3465218"><ele>692.8333333333334</ele><time>2026-04-04T11:23:06.274Z</time></trkpt><trkpt lat="41.5158762" lon="13.3464247"><ele>693.0</ele><time>2026-04-04T11:23:07.27Z</time></trkpt><trkpt lat="41.5159089" lon="13.3463444"><ele>692.7142857142857</ele><time>2026-04-04T11:23:08.286Z</time></trkpt><trkpt lat="41.5159454" lon="13.3462757"><ele>692.4285714285714</ele><time>2026-04-04T11:23:09.272Z</time></trkpt><trkpt lat="41.5159673" lon="13.3461896"><ele>692.1428571428571</ele><time>2026-04-04T11:23:10.268Z</time></trkpt><trkpt lat="41.5159904" lon="13.346095"><ele>691.8571428571429</ele><time>2026-04-04T11:23:11.273Z</time></trkpt><trkpt lat="41.516023" lon="13.3459978"><ele>691.5714285714286</ele><time>2026-04-04T11:23:12.275Z</time></trkpt><trkpt lat="41.5160548" lon="13.345905"><ele>691.2857142857142</ele><time>2026-04-04T11:23:13.271Z</time></trkpt><trkpt lat="41.5160986" lon="13.3458181"><ele>691.0</ele><time>2026-04-04T11:23:14.287Z</time></trkpt><trkpt lat="41.5161398" lon="13.3457372"><ele>691.0</ele><time>2026-04-04T11:23:15.27Z</time></trkpt><trkpt lat="41.5161668" lon="13.3456479"><ele>691.0</ele><time>2026-04-04T11:23:16.276Z</time></trkpt><trkpt lat="41.5161929" lon="13.3455463"><ele>691.0</ele><time>2026-04-04T11:23:17.272Z</time></trkpt><trkpt lat="41.5162289" lon="13.3454465"><ele>691.0</ele><time>2026-04-04T11:23:18.271Z</time></trkpt><trkpt lat="41.5162621" lon="13.3453438"><ele>691.0</ele><time>2026-04-04T11:23:19.282Z</time></trkpt><trkpt lat="41.5163023" lon="13.3452433"><ele>691.0</ele><time>2026-04-04T11:23:20.274Z</time></trkpt><trkpt lat="41.5163458" lon="13.3451476"><ele>692.6666666666667</ele><time>2026-04-04T11:23:21.279Z</time></trkpt><trkpt lat="41.5163932" lon="13.3450734"><ele>694.3333333333334</ele><time>2026-04-04T11:23:22.265Z</time></trkpt><trkpt lat="41.5164291" lon="13.3449855"><ele>696.0</ele><time>2026-04-04T11:23:23.275Z</time></trkpt><trkpt lat="41.516465" lon="13.3448908"><ele>697.6666666666666</ele><time>2026-04-04T11:23:24.274Z</time></trkpt><trkpt lat="41.516501" lon="13.3448006"><ele>699.3333333333333</ele><time>2026-04-04T11:23:25.268Z</time></trkpt><trkpt lat="41.5165394" lon="13.3447101"><ele>701.0</ele><time>2026-04-04T11:23:26.273Z</time></trkpt><trkpt lat="41.5165735" lon="13.3446133"><ele>701.0</ele><time>2026-04-04T11:23:27.291Z</time></trkpt><trkpt lat="41.516608" lon="13.3445097"><ele>701.0</ele><time>2026-04-04T11:23:28.274Z</time></trkpt><trkpt lat="41.5166442" lon="13.3444038"><ele>701.0</ele><time>2026-04-04T11:23:29.268Z</time></trkpt><trkpt lat="41.5166816" lon="13.3443035"><ele>701.0</ele><time>2026-04-04T11:23:30.274Z</time></trkpt><trkpt lat="41.5167253" lon="13.3442102"><ele>701.0</ele><time>2026-04-04T11:23:31.269Z</time></trkpt><trkpt lat="41.5167667" lon="13.3441106"><ele>701.0</ele><time>2026-04-04T11:23:32.283Z</time></trkpt><trkpt lat="41.5168093" lon="13.3440153"><ele>701.0</ele><time>2026-04-04T11:23:33.271Z</time></trkpt><trkpt lat="41.516851" lon="13.3439236"><ele>701.0</ele><time>2026-04-04T11:23:34.276Z</time></trkpt><trkpt lat="41.516888" lon="13.3438357"><ele>701.0</ele><time>2026-04-04T11:23:35.274Z</time></trkpt><trkpt lat="41.516917" lon="13.3437429"><ele>701.0</ele><time>2026-04-04T11:23:36.277Z</time></trkpt><trkpt lat="41.5169499" lon="13.3436496"><ele>701.0</ele><time>2026-04-04T11:23:37.271Z</time></trkpt><trkpt lat="41.5169887" lon="13.3435544"><ele>701.0</ele><time>2026-04-04T11:23:38.275Z</time></trkpt><trkpt lat="41.517032" lon="13.343454"><ele>700.2857142857143</ele><time>2026-04-04T11:23:39.279Z</time></trkpt><trkpt lat="41.5170768" lon="13.3433556"><ele>699.5714285714286</ele><time>2026-04-04T11:23:40.273Z</time></trkpt><trkpt lat="41.5171169" lon="13.343267"><ele>698.8571428571429</ele><time>2026-04-04T11:23:41.284Z</time></trkpt><trkpt lat="41.517152" lon="13.3431913"><ele>698.1428571428571</ele><time>2026-04-04T11:23:42.273Z</time></trkpt><trkpt lat="41.5171983" lon="13.3431167"><ele>697.4285714285714</ele><time>2026-04-04T11:23:43.264Z</time></trkpt><trkpt lat="41.517231" lon="13.3430417"><ele>696.7142857142857</ele><time>2026-04-04T11:23:44.273Z</time></trkpt><trkpt lat="41.5172611" lon="13.3429646"><ele>696.0</ele><time>2026-04-04T11:23:45.276Z</time></trkpt><trkpt lat="41.5173342" lon="13.3428359"><ele>696.0</ele><time>2026-04-04T11:23:47.28Z</time></trkpt><trkpt lat="41.517419" lon="13.3427216"><ele>696.0</ele><time>2026-04-04T11:23:49.272Z</time></trkpt><trkpt lat="41.5174675" lon="13.3426515"><ele>696.0</ele><time>2026-04-04T11:23:50.27Z</time></trkpt><trkpt lat="41.5175169" lon="13.3425806"><ele>696.0</ele><time>2026-04-04T11:23:51.272Z</time></trkpt><trkpt lat="41.5175652" lon="13.3425164"><ele>696.0</ele><time>2026-04-04T11:23:52.267Z</time></trkpt><trkpt lat="41.5176083" lon="13.3424537"><ele>696.0</ele><time>2026-04-04T11:23:53.28Z</time></trkpt><trkpt lat="41.5176482" lon="13.3423863"><ele>696.0</ele><time>2026-04-04T11:23:54.271Z</time></trkpt><trkpt lat="41.5176963" lon="13.3422422"><ele>696.0</ele><time>2026-04-04T11:23:56.274Z</time></trkpt><trkpt lat="41.5177471" lon="13.3420904"><ele>696.0</ele><time>2026-04-04T11:23:58.28Z</time></trkpt><trkpt lat="41.5177829" lon="13.3419319"><ele>696.0</ele><time>2026-04-04T11:24:00.274Z</time></trkpt><trkpt lat="41.5178316" lon="13.3417743"><ele>696.5</ele><time>2026-04-04T11:24:02.267Z</time></trkpt><trkpt lat="41.5178687" lon="13.341698"><ele>697.0</ele><time>2026-04-04T11:24:03.267Z</time></trkpt><trkpt lat="41.5179067" lon="13.341623"><ele>697.5</ele><time>2026-04-04T11:24:04.267Z</time></trkpt><trkpt lat="41.5179461" lon="13.3415492"><ele>698.0</ele><time>2026-04-04T11:24:05.276Z</time></trkpt><trkpt lat="41.517985" lon="13.3414806"><ele>698.5</ele><time>2026-04-04T11:24:06.27Z</time></trkpt><trkpt lat="41.5180397" lon="13.3413489"><ele>699.0</ele><time>2026-04-04T11:24:08.288Z</time></trkpt><trkpt lat="41.5180531" lon="13.3411901"><ele>696.6666666666666</ele><time>2026-04-04T11:24:10.275Z</time></trkpt><trkpt lat="41.5180647" lon="13.3411064"><ele>694.3333333333334</ele><time>2026-04-04T11:24:11.269Z</time></trkpt><trkpt lat="41.5180861" lon="13.3410247"><ele>692.0</ele><time>2026-04-04T11:24:12.273Z</time></trkpt><trkpt lat="41.5181173" lon="13.3409462"><ele>689.6666666666667</ele><time>2026-04-04T11:24:13.274Z</time></trkpt><trkpt lat="41.5181929" lon="13.3408423"><ele>687.3333333333334</ele><time>2026-04-04T11:24:15.286Z</time></trkpt><trkpt lat="41.5182817" lon="13.3407491"><ele>685.0</ele><time>2026-04-04T11:24:17.269Z</time></trkpt><trkpt lat="41.5183298" lon="13.3406914"><ele>685.0</ele><time>2026-04-04T11:24:18.271Z</time></trkpt><trkpt lat="41.5183841" lon="13.3406216"><ele>685.0</ele><time>2026-04-04T11:24:19.265Z</time></trkpt><trkpt lat="41.5184413" lon="13.3405546"><ele>685.0</ele><time>2026-04-04T11:24:20.278Z</time></trkpt><trkpt lat="41.518495" lon="13.340493"><ele>685.0</ele><time>2026-04-04T11:24:21.274Z</time></trkpt><trkpt lat="41.5185518" lon="13.3404264"><ele>685.0</ele><time>2026-04-04T11:24:22.28Z</time></trkpt><trkpt lat="41.5186138" lon="13.3403518"><ele>685.0</ele><time>2026-04-04T11:24:23.268Z</time></trkpt><trkpt lat="41.5186785" lon="13.3402794"><ele>687.1666666666667</ele><time>2026-04-04T11:24:24.276Z</time></trkpt><trkpt lat="41.5187474" lon="13.340209"><ele>689.3333333333334</ele><time>2026-04-04T11:24:25.275Z</time></trkpt><trkpt lat="41.5188154" lon="13.3401383"><ele>691.5</ele><time>2026-04-04T11:24:26.267Z</time></trkpt><trkpt lat="41.5188779" lon="13.3400687"><ele>693.6666666666666</ele><time>2026-04-04T11:24:27.262Z</time></trkpt><trkpt lat="41.5189433" lon="13.3400055"><ele>695.8333333333333</ele><time>2026-04-04T11:24:28.278Z</time></trkpt><trkpt lat="41.5190067" lon="13.3399309"><ele>698.0</ele><time>2026-04-04T11:24:29.273Z</time></trkpt><trkpt lat="41.5190703" lon="13.3398528"><ele>698.0</ele><time>2026-04-04T11:24:30.27Z</time></trkpt><trkpt lat="41.5191349" lon="13.3397811"><ele>698.0</ele><time>2026-04-04T11:24:31.273Z</time></trkpt><trkpt lat="41.5192019" lon="13.3397045"><ele>698.0</ele><time>2026-04-04T11:24:32.268Z</time></trkpt><trkpt lat="41.5192699" lon="13.3396321"><ele>698.0</ele><time>2026-04-04T11:24:33.268Z</time></trkpt><trkpt lat="41.5193455" lon="13.3395583"><ele>698.0</ele><time>2026-04-04T11:24:34.284Z</time></trkpt><trkpt lat="41.5194258" lon="13.3394815"><ele>699.5999999999999</ele><time>2026-04-04T11:24:35.272Z</time></trkpt><trkpt lat="41.519507" lon="13.3393982"><ele>701.1999999999999</ele><time>2026-04-04T11:24:36.277Z</time></trkpt><trkpt lat="41.5195907" lon="13.3393133"><ele>702.8</ele><time>2026-04-04T11:24:37.27Z</time></trkpt><trkpt lat="41.5196716" lon="13.3392242"><ele>704.4</ele><time>2026-04-04T11:24:38.274Z</time></trkpt><trkpt lat="41.5197403" lon="13.3391427"><ele>706.0</ele><time>2026-04-04T11:24:39.281Z</time></trkpt><trkpt lat="41.5198049" lon="13.339069"><ele>706.0</ele><time>2026-04-04T11:24:40.267Z</time></trkpt><trkpt lat="41.5198684" lon="13.3389974"><ele>706.0</ele><time>2026-04-04T11:24:41.284Z</time></trkpt><trkpt lat="41.5199377" lon="13.3389389"><ele>706.0</ele><time>2026-04-04T11:24:42.271Z</time></trkpt><trkpt lat="41.5200068" lon="13.3388787"><ele>706.0</ele><time>2026-04-04T11:24:43.27Z</time></trkpt><trkpt lat="41.5200745" lon="13.3388299"><ele>706.0</ele><time>2026-04-04T11:24:44.276Z</time></trkpt><trkpt lat="41.5201446" lon="13.338771"><ele>706.0</ele><time>2026-04-04T11:24:45.269Z</time></trkpt><trkpt lat="41.5202137" lon="13.3386933"><ele>703.5999999999999</ele><time>2026-04-04T11:24:46.275Z</time></trkpt><trkpt lat="41.5202818" lon="13.3386086"><ele>701.2</ele><time>2026-04-04T11:24:47.271Z</time></trkpt><trkpt lat="41.5203492" lon="13.3385275"><ele>698.8</ele><time>2026-04-04T11:24:48.266Z</time></trkpt><trkpt lat="41.520424" lon="13.338453"><ele>696.4000000000001</ele><time>2026-04-04T11:24:49.273Z</time></trkpt><trkpt lat="41.5205003" lon="13.3383785"><ele>694.0</ele><time>2026-04-04T11:24:50.266Z</time></trkpt><trkpt lat="41.5205705" lon="13.3382996"><ele>697.8000000000001</ele><time>2026-04-04T11:24:51.278Z</time></trkpt><trkpt lat="41.5206406" lon="13.3382206"><ele>701.6</ele><time>2026-04-04T11:24:52.263Z</time></trkpt><trkpt lat="41.520699" lon="13.338121"><ele>705.4</ele><time>2026-04-04T11:24:53.264Z</time></trkpt><trkpt lat="41.5207605" lon="13.3380055"><ele>709.2</ele><time>2026-04-04T11:24:54.264Z</time></trkpt><trkpt lat="41.5208186" lon="13.3378861"><ele>713.0</ele><time>2026-04-04T11:24:55.267Z</time></trkpt><trkpt lat="41.5208797" lon="13.3377716"><ele>713.0</ele><time>2026-04-04T11:24:56.261Z</time></trkpt><trkpt lat="41.5209449" lon="13.337659"><ele>713.0</ele><time>2026-04-04T11:24:57.267Z</time></trkpt><trkpt lat="41.5210172" lon="13.3375433"><ele>713.0</ele><time>2026-04-04T11:24:58.264Z</time></trkpt><trkpt lat="41.5210885" lon="13.3374222"><ele>713.0</ele><time>2026-04-04T11:24:59.27Z</time></trkpt><trkpt lat="41.5211531" lon="13.3372938"><ele>712.4</ele><time>2026-04-04T11:25:00.268Z</time></trkpt><trkpt lat="41.5212081" lon="13.3371633"><ele>711.8</ele><time>2026-04-04T11:25:01.269Z</time></trkpt><trkpt lat="41.5212538" lon="13.3370251"><ele>711.2</ele><time>2026-04-04T11:25:02.266Z</time></trkpt><trkpt lat="41.5212985" lon="13.3368903"><ele>710.6</ele><time>2026-04-04T11:25:03.268Z</time></trkpt><trkpt lat="41.5213436" lon="13.3367623"><ele>710.0</ele><time>2026-04-04T11:25:04.27Z</time></trkpt><trkpt lat="41.5213926" lon="13.3366352"><ele>715.75</ele><time>2026-04-04T11:25:05.266Z</time></trkpt><trkpt lat="41.5214516" lon="13.3365155"><ele>721.5</ele><time>2026-04-04T11:25:06.273Z</time></trkpt><trkpt lat="41.5215033" lon="13.336385"><ele>727.25</ele><time>2026-04-04T11:25:07.275Z</time></trkpt><trkpt lat="41.5215497" lon="13.336235"><ele>733.0</ele><time>2026-04-04T11:25:08.276Z</time></trkpt><trkpt lat="41.5215949" lon="13.3360789"><ele>733.0</ele><time>2026-04-04T11:25:09.283Z</time></trkpt><trkpt lat="41.5216296" lon="13.3359049"><ele>733.0</ele><time>2026-04-04T11:25:10.264Z</time></trkpt><trkpt lat="41.5216694" lon="13.3357461"><ele>733.0</ele><time>2026-04-04T11:25:11.265Z</time></trkpt><trkpt lat="41.5217051" lon="13.3356075"><ele>733.0</ele><time>2026-04-04T11:25:12.273Z</time></trkpt><trkpt lat="41.5217408" lon="13.3354985"><ele>732.0</ele><time>2026-04-04T11:25:13.279Z</time></trkpt><trkpt lat="41.5217751" lon="13.3353981"><ele>731.0</ele><time>2026-04-04T11:25:14.277Z</time></trkpt><trkpt lat="41.5218326" lon="13.3352999"><ele>730.0</ele><time>2026-04-04T11:25:15.273Z</time></trkpt><trkpt lat="41.5218888" lon="13.3352041"><ele>729.0</ele><time>2026-04-04T11:25:16.275Z</time></trkpt><trkpt lat="41.5219506" lon="13.3351118"><ele>728.0</ele><time>2026-04-04T11:25:17.273Z</time></trkpt><trkpt lat="41.5220318" lon="13.3350063"><ele>731.0</ele><time>2026-04-04T11:25:18.26Z</time></trkpt><trkpt lat="41.5221169" lon="13.3348938"><ele>734.0</ele><time>2026-04-04T11:25:19.267Z</time></trkpt><trkpt lat="41.522201" lon="13.3347654"><ele>737.0</ele><time>2026-04-04T11:25:20.259Z</time></trkpt><trkpt lat="41.5222822" lon="13.3346452"><ele>740.0</ele><time>2026-04-04T11:25:21.278Z</time></trkpt><trkpt lat="41.5223624" lon="13.3345486"><ele>740.0</ele><time>2026-04-04T11:25:22.271Z</time></trkpt><trkpt lat="41.5224447" lon="13.3344688"><ele>740.0</ele><time>2026-04-04T11:25:23.27Z</time></trkpt><trkpt lat="41.5225083" lon="13.3344029"><ele>740.0</ele><time>2026-04-04T11:25:24.27Z</time></trkpt><trkpt lat="41.5225526" lon="13.3343293"><ele>740.0</ele><time>2026-04-04T11:25:25.275Z</time></trkpt><trkpt lat="41.5225753" lon="13.3341744"><ele>740.0</ele><time>2026-04-04T11:25:27.268Z</time></trkpt><trkpt lat="41.5225589" lon="13.3340759"><ele>740.0</ele><time>2026-04-04T11:25:28.27Z</time></trkpt><trkpt lat="41.5225325" lon="13.3339827"><ele>740.0</ele><time>2026-04-04T11:25:29.276Z</time></trkpt><trkpt lat="41.5225143" lon="13.3338972"><ele>740.0</ele><time>2026-04-04T11:25:30.274Z</time></trkpt><trkpt lat="41.5225193" lon="13.3337405"><ele>740.0</ele><time>2026-04-04T11:25:32.277Z</time></trkpt><trkpt lat="41.5225511" lon="13.3336631"><ele>740.0</ele><time>2026-04-04T11:25:33.27Z</time></trkpt><trkpt lat="41.5225966" lon="13.3335715"><ele>740.0</ele><time>2026-04-04T11:25:34.275Z</time></trkpt><trkpt lat="41.5226478" lon="13.3334718"><ele>740.0</ele><time>2026-04-04T11:25:35.287Z</time></trkpt><trkpt lat="41.5227005" lon="13.3333669"><ele>739.5</ele><time>2026-04-04T11:25:36.269Z</time></trkpt><trkpt lat="41.5227423" lon="13.333271"><ele>739.0</ele><time>2026-04-04T11:25:37.272Z</time></trkpt><trkpt lat="41.5227837" lon="13.3331838"><ele>738.5</ele><time>2026-04-04T11:25:38.277Z</time></trkpt><trkpt lat="41.5228269" lon="13.3331076"><ele>738.0</ele><time>2026-04-04T11:25:39.269Z</time></trkpt><trkpt lat="41.5229188" lon="13.3330271"><ele>737.5</ele><time>2026-04-04T11:25:41.269Z</time></trkpt><trkpt lat="41.5229913" lon="13.333025"><ele>737.0</ele><time>2026-04-04T11:25:42.267Z</time></trkpt><trkpt lat="41.5230626" lon="13.3330194"><ele>735.3333333333333</ele><time>2026-04-04T11:25:43.273Z</time></trkpt><trkpt lat="41.5231318" lon="13.3329958"><ele>733.6666666666666</ele><time>2026-04-04T11:25:44.274Z</time></trkpt><trkpt lat="41.523231" lon="13.3328995"><ele>732.0</ele><time>2026-04-04T11:25:46.266Z</time></trkpt><trkpt lat="41.5232799" lon="13.3328394"><ele>730.3333333333334</ele><time>2026-04-04T11:25:47.273Z</time></trkpt><trkpt lat="41.5233267" lon="13.3327567"><ele>728.6666666666667</ele><time>2026-04-04T11:25:48.282Z</time></trkpt><trkpt lat="41.5233821" lon="13.3326697"><ele>727.0</ele><time>2026-04-04T11:25:49.268Z</time></trkpt><trkpt lat="41.5234357" lon="13.3325854"><ele>727.0</ele><time>2026-04-04T11:25:50.273Z</time></trkpt><trkpt lat="41.5234822" lon="13.3325098"><ele>727.0</ele><time>2026-04-04T11:25:51.273Z</time></trkpt><trkpt lat="41.523503" lon="13.3324246"><ele>727.0</ele><time>2026-04-04T11:25:52.27Z</time></trkpt><trkpt lat="41.52346" lon="13.3322515"><ele>727.0</ele><time>2026-04-04T11:25:54.268Z</time></trkpt><trkpt lat="41.5234317" lon="13.3321611"><ele>727.0</ele><time>2026-04-04T11:25:55.273Z</time></trkpt><trkpt lat="41.5234075" lon="13.3320745"><ele>727.0</ele><time>2026-04-04T11:25:56.272Z</time></trkpt><trkpt lat="41.5233932" lon="13.3319876"><ele>725.8</ele><time>2026-04-04T11:25:57.272Z</time></trkpt><trkpt lat="41.5233894" lon="13.3319033"><ele>724.6</ele><time>2026-04-04T11:25:58.269Z</time></trkpt><trkpt lat="41.523416" lon="13.3317372"><ele>723.4</ele><time>2026-04-04T11:26:00.264Z</time></trkpt><trkpt lat="41.5234612" lon="13.3316052"><ele>722.1999999999999</ele><time>2026-04-04T11:26:02.264Z</time></trkpt><trkpt lat="41.5235239" lon="13.3315268"><ele>721.0</ele><time>2026-04-04T11:26:04.276Z</time></trkpt><trkpt lat="41.5236153" lon="13.331454"><ele>720.8</ele><time>2026-04-04T11:26:06.267Z</time></trkpt><trkpt lat="41.5237006" lon="13.3313401"><ele>720.5999999999999</ele><time>2026-04-04T11:26:08.283Z</time></trkpt><trkpt lat="41.5237374" lon="13.3312685"><ele>720.4</ele><time>2026-04-04T11:26:09.272Z</time></trkpt><trkpt lat="41.5238099" lon="13.3311614"><ele>720.2</ele><time>2026-04-04T11:26:11.274Z</time></trkpt><trkpt lat="41.5238995" lon="13.331117"><ele>720.0</ele><time>2026-04-04T11:26:13.27Z</time></trkpt><trkpt lat="41.5240139" lon="13.3311127"><ele>720.0</ele><time>2026-04-04T11:26:15.272Z</time></trkpt><trkpt lat="41.524104" lon="13.3311133"><ele>720.0</ele><time>2026-04-04T11:26:17.269Z</time></trkpt><trkpt lat="41.5242019" lon="13.3311517"><ele>720.0</ele><time>2026-04-04T11:26:19.275Z</time></trkpt><trkpt lat="41.5242793" lon="13.331171"><ele>720.0</ele><time>2026-04-04T11:26:21.276Z</time></trkpt><trkpt lat="41.5243421" lon="13.3311175"><ele>720.0</ele><time>2026-04-04T11:26:23.275Z</time></trkpt><trkpt lat="41.524333" lon="13.3310228"><ele>720.0</ele><time>2026-04-04T11:26:25.271Z</time></trkpt><trkpt lat="41.5243452" lon="13.3309288"><ele>720.0</ele><time>2026-04-04T11:26:27.272Z</time></trkpt><trkpt lat="41.5244073" lon="13.330867"><ele>720.0</ele><time>2026-04-04T11:26:29.271Z</time></trkpt><trkpt lat="41.5244756" lon="13.3307825"><ele>720.0</ele><time>2026-04-04T11:26:31.276Z</time></trkpt><trkpt lat="41.5245462" lon="13.3307097"><ele>720.0</ele><time>2026-04-04T11:26:33.269Z</time></trkpt><trkpt lat="41.5246005" lon="13.3306118"><ele>720.0</ele><time>2026-04-04T11:26:35.273Z</time></trkpt><trkpt lat="41.5246536" lon="13.3305126"><ele>720.0</ele><time>2026-04-04T11:26:37.283Z</time></trkpt><trkpt lat="41.5247269" lon="13.3304238"><ele>718.6</ele><time>2026-04-04T11:26:39.278Z</time></trkpt><trkpt lat="41.5247991" lon="13.3303579"><ele>717.2</ele><time>2026-04-04T11:26:41.271Z</time></trkpt><trkpt lat="41.5248744" lon="13.3303221"><ele>715.8</ele><time>2026-04-04T11:26:43.29Z</time></trkpt><trkpt lat="41.5249625" lon="13.3302694"><ele>714.4</ele><time>2026-04-04T11:26:45.269Z</time></trkpt><trkpt lat="41.5250652" lon="13.3301977"><ele>713.0</ele><time>2026-04-04T11:26:47.273Z</time></trkpt><trkpt lat="41.5251489" lon="13.3301284"><ele>713.0</ele><time>2026-04-04T11:26:49.282Z</time></trkpt><trkpt lat="41.5252275" lon="13.3300823"><ele>713.0</ele><time>2026-04-04T11:26:51.264Z</time></trkpt><trkpt lat="41.5253024" lon="13.3300605"><ele>713.0</ele><time>2026-04-04T11:26:53.272Z</time></trkpt><trkpt lat="41.5253798" lon="13.3299875"><ele>713.0</ele><time>2026-04-04T11:26:55.276Z</time></trkpt><trkpt lat="41.5254525" lon="13.3299244"><ele>713.0</ele><time>2026-04-04T11:26:57.283Z</time></trkpt><trkpt lat="41.5255223" lon="13.3298899"><ele>713.0</ele><time>2026-04-04T11:26:59.281Z</time></trkpt><trkpt lat="41.5255872" lon="13.3298256"><ele>712.0</ele><time>2026-04-04T11:27:01.269Z</time></trkpt><trkpt lat="41.5256403" lon="13.3297653"><ele>711.0</ele><time>2026-04-04T11:27:03.27Z</time></trkpt><trkpt lat="41.5256967" lon="13.3297038"><ele>710.0</ele><time>2026-04-04T11:27:05.271Z</time></trkpt><trkpt lat="41.5257573" lon="13.3296163"><ele>709.0</ele><time>2026-04-04T11:27:07.269Z</time></trkpt><trkpt lat="41.5258093" lon="13.3295103"><ele>708.0</ele><time>2026-04-04T11:27:09.272Z</time></trkpt><trkpt lat="41.5258516" lon="13.3293919"><ele>707.0</ele><time>2026-04-04T11:27:11.268Z</time></trkpt><trkpt lat="41.5258905" lon="13.3293082"><ele>706.5</ele><time>2026-04-04T11:27:13.27Z</time></trkpt><trkpt lat="41.525964" lon="13.3292544"><ele>706.0</ele><time>2026-04-04T11:27:15.275Z</time></trkpt><trkpt lat="41.5260402" lon="13.3292321"><ele>705.5</ele><time>2026-04-04T11:27:18.269Z</time></trkpt><trkpt lat="41.5261181" lon="13.3292008"><ele>705.0</ele><time>2026-04-04T11:27:21.27Z</time></trkpt><trkpt lat="41.5261813" lon="13.3292159"><ele>704.5</ele><time>2026-04-04T11:27:23.28Z</time></trkpt><trkpt lat="41.5262481" lon="13.3291334"><ele>704.0</ele><time>2026-04-04T11:27:26.274Z</time></trkpt><trkpt lat="41.5262952" lon="13.3290506"><ele>702.5</ele><time>2026-04-04T11:27:28.269Z</time></trkpt><trkpt lat="41.526357" lon="13.3289995"><ele>701.0</ele><time>2026-04-04T11:27:30.271Z</time></trkpt><trkpt lat="41.5264243" lon="13.3289526"><ele>699.5</ele><time>2026-04-04T11:27:32.271Z</time></trkpt><trkpt lat="41.5265159" lon="13.3289404"><ele>698.0</ele><time>2026-04-04T11:27:35.271Z</time></trkpt><trkpt lat="41.5266028" lon="13.3289538"><ele>696.5</ele><time>2026-04-04T11:27:46.28Z</time></trkpt><trkpt lat="41.5266115" lon="13.3288692"><ele>695.0</ele><time>2026-04-04T11:27:52.27Z</time></trkpt><trkpt lat="41.526551" lon="13.3287906"><ele>695.0</ele><time>2026-04-04T11:27:54.273Z</time></trkpt><trkpt lat="41.5265087" lon="13.3287221"><ele>695.0</ele><time>2026-04-04T11:27:55.273Z</time></trkpt><trkpt lat="41.5264282" lon="13.3285997"><ele>695.0</ele><time>2026-04-04T11:27:57.273Z</time></trkpt><trkpt lat="41.5263523" lon="13.3284803"><ele>695.0</ele><time>2026-04-04T11:27:59.28Z</time></trkpt><trkpt lat="41.5263528" lon="13.3283714"><ele>695.0</ele><time>2026-04-04T11:28:01.27Z</time></trkpt><trkpt lat="41.5263571" lon="13.3282742"><ele>695.0</ele><time>2026-04-04T11:28:03.285Z</time></trkpt><trkpt lat="41.526358" lon="13.3281756"><ele>695.0</ele><time>2026-04-04T11:28:05.27Z</time></trkpt><trkpt lat="41.5263579" lon="13.3280822"><ele>695.0</ele><time>2026-04-04T11:28:07.274Z</time></trkpt><trkpt lat="41.5263714" lon="13.3279972"><ele>695.0</ele><time>2026-04-04T11:28:09.268Z</time></trkpt><trkpt lat="41.5180531" lon="13.3411901"><ele>693.3333333333333</ele><time>2026-04-04T11:24:10.275Z</time></trkpt><trkpt lat="41.5180647" lon="13.3411064"><ele>691.6666666666666</ele><time>2026-04-04T11:24:11.269Z</time></trkpt><trkpt lat="41.5180861" lon="13.3410247"><ele>690.0</ele><time>2026-04-04T11:24:12.273Z</time></trkpt><trkpt lat="41.5181173" lon="13.3409462"><ele>688.3333333333334</ele><time>2026-04-04T11:24:13.274Z</time></trkpt><trkpt lat="41.5181929" lon="13.3408423"><ele>686.6666666666667</ele><time>2026-04-04T11:24:15.286Z</time></trkpt><trkpt lat="41.5182817" lon="13.3407491"><ele>685.0</ele><time>2026-04-04T11:24:17.269Z</time></trkpt><trkpt lat="41.5183298" lon="13.3406914"><ele>685.0</ele><time>2026-04-04T11:24:18.271Z</time></trkpt><trkpt lat="41.5183841" lon="13.3406216"><ele>685.0</ele><time>2026-04-04T11:24:19.265Z</time></trkpt><trkpt lat="41.5184413" lon="13.3405546"><ele>685.0</ele><time>2026-04-04T11:24:20.278Z</time></trkpt><trkpt lat="41.518495" lon="13.340493"><ele>685.0</ele><time>2026-04-04T11:24:21.274Z</time></trkpt><trkpt lat="41.5185518" lon="13.3404264"><ele>685.0</ele><time>2026-04-04T11:24:22.28Z</time></trkpt><trkpt lat="41.5186138" lon="13.3403518"><ele>685.0</ele><time>2026-04-04T11:24:23.268Z</time></trkpt><trkpt lat="41.5186785" lon="13.3402794"><ele>687.1666666666667</ele><time>2026-04-04T11:24:24.276Z</time></trkpt><trkpt lat="41.5187474" lon="13.340209"><ele>689.3333333333334</ele><time>2026-04-04T11:24:25.275Z</time></trkpt><trkpt lat="41.5188154" lon="13.3401383"><ele>691.5</ele><time>2026-04-04T11:24:26.267Z</time></trkpt><trkpt lat="41.5188779" lon="13.3400687"><ele>693.6666666666666</ele><time>2026-04-04T11:24:27.262Z</time></trkpt><trkpt lat="41.5189433" lon="13.3400055"><ele>695.8333333333333</ele><time>2026-04-04T11:24:28.278Z</time></trkpt><trkpt lat="41.5190067" lon="13.3399309"><ele>698.0</ele><time>2026-04-04T11:24:29.273Z</time></trkpt><trkpt lat="41.5190703" lon="13.3398528"><ele>698.0</ele><time>2026-04-04T11:24:30.27Z</time></trkpt><trkpt lat="41.5191349" lon="13.3397811"><ele>698.0</ele><time>2026-04-04T11:24:31.273Z</time></trkpt><trkpt lat="41.5192019" lon="13.3397045"><ele>698.0</ele><time>2026-04-04T11:24:32.268Z</time></trkpt><trkpt lat="41.5192699" lon="13.3396321"><ele>698.0</ele><time>2026-04-04T11:24:33.268Z</time></trkpt><trkpt lat="41.5193455" lon="13.3395583"><ele>698.0</ele><time>2026-04-04T11:24:34.284Z</time></trkpt><trkpt lat="41.5194258" lon="13.3394815"><ele>699.5999999999999</ele><time>2026-04-04T11:24:35.272Z</time></trkpt><trkpt lat="41.519507" lon="13.3393982"><ele>701.1999999999999</ele><time>2026-04-04T11:24:36.277Z</time></trkpt><trkpt lat="41.5195907" lon="13.3393133"><ele>702.8</ele><time>2026-04-04T11:24:37.27Z</time></trkpt><trkpt lat="41.5196716" lon="13.3392242"><ele>704.4</ele><time>2026-04-04T11:24:38.274Z</time></trkpt><trkpt lat="41.5197403" lon="13.3391427"><ele>706.0</ele><time>2026-04-04T11:24:39.281Z</time></trkpt><trkpt lat="41.5198049" lon="13.339069"><ele>706.0</ele><time>2026-04-04T11:24:40.267Z</time></trkpt><trkpt lat="41.5198684" lon="13.3389974"><ele>706.0</ele><time>2026-04-04T11:24:41.284Z</time></trkpt><trkpt lat="41.5199377" lon="13.3389389"><ele>706.0</ele><time>2026-04-04T11:24:42.271Z</time></trkpt><trkpt lat="41.5200068" lon="13.3388787"><ele>706.0</ele><time>2026-04-04T11:24:43.27Z</time></trkpt><trkpt lat="41.5200745" lon="13.3388299"><ele>706.0</ele><time>2026-04-04T11:24:44.276Z</time></trkpt><trkpt lat="41.5201446" lon="13.338771"><ele>706.0</ele><time>2026-04-04T11:24:45.269Z</time></trkpt><trkpt lat="41.5202137" lon="13.3386933"><ele>703.5999999999999</ele><time>2026-04-04T11:24:46.275Z</time></trkpt><trkpt lat="41.5202818" lon="13.3386086"><ele>701.2</ele><time>2026-04-04T11:24:47.271Z</time></trkpt><trkpt lat="41.5203492" lon="13.3385275"><ele>698.8</ele><time>2026-04-04T11:24:48.266Z</time></trkpt><trkpt lat="41.520424" lon="13.338453"><ele>696.4000000000001</ele><time>2026-04-04T11:24:49.273Z</time></trkpt><trkpt lat="41.5205003" lon="13.3383785"><ele>694.0</ele><time>2026-04-04T11:24:50.266Z</time></trkpt><trkpt lat="41.5205705" lon="13.3382996"><ele>697.8000000000001</ele><time>2026-04-04T11:24:51.278Z</time></trkpt><trkpt lat="41.5206406" lon="13.3382206"><ele>701.6</ele><time>2026-04-04T11:24:52.263Z</time></trkpt><trkpt lat="41.520699" lon="13.338121"><ele>705.4</ele><time>2026-04-04T11:24:53.264Z</time></trkpt><trkpt lat="41.5207605" lon="13.3380055"><ele>709.2</ele><time>2026-04-04T11:24:54.264Z</time></trkpt><trkpt lat="41.5208186" lon="13.3378861"><ele>713.0</ele><time>2026-04-04T11:24:55.267Z</time></trkpt><trkpt lat="41.5208797" lon="13.3377716"><ele>713.0</ele><time>2026-04-04T11:24:56.261Z</time></trkpt><trkpt lat="41.5209449" lon="13.337659"><ele>713.0</ele><time>2026-04-04T11:24:57.267Z</time></trkpt><trkpt lat="41.5210172" lon="13.3375433"><ele>713.0</ele><time>2026-04-04T11:24:58.264Z</time></trkpt><trkpt lat="41.5210885" lon="13.3374222"><ele>713.0</ele><time>2026-04-04T11:24:59.27Z</time></trkpt><trkpt lat="41.5211531" lon="13.3372938"><ele>712.4</ele><time>2026-04-04T11:25:00.268Z</time></trkpt><trkpt lat="41.5212081" lon="13.3371633"><ele>711.8</ele><time>2026-04-04T11:25:01.269Z</time></trkpt><trkpt lat="41.5212538" lon="13.3370251"><ele>711.2</ele><time>2026-04-04T11:25:02.266Z</time></trkpt><trkpt lat="41.5212985" lon="13.3368903"><ele>710.6</ele><time>2026-04-04T11:25:03.268Z</time></trkpt><trkpt lat="41.5213436" lon="13.3367623"><ele>710.0</ele><time>2026-04-04T11:25:04.27Z</time></trkpt><trkpt lat="41.5213926" lon="13.3366352"><ele>715.75</ele><time>2026-04-04T11:25:05.266Z</time></trkpt><trkpt lat="41.5214516" lon="13.3365155"><ele>721.5</ele><time>2026-04-04T11:25:06.273Z</time></trkpt><trkpt lat="41.5215033" lon="13.336385"><ele>727.25</ele><time>2026-04-04T11:25:07.275Z</time></trkpt><trkpt lat="41.5215497" lon="13.336235"><ele>733.0</ele><time>2026-04-04T11:25:08.276Z</time></trkpt><trkpt lat="41.5215949" lon="13.3360789"><ele>733.0</ele><time>2026-04-04T11:25:09.283Z</time></trkpt><trkpt lat="41.5216296" lon="13.3359049"><ele>733.0</ele><time>2026-04-04T11:25:10.264Z</time></trkpt><trkpt lat="41.5216694" lon="13.3357461"><ele>733.0</ele><time>2026-04-04T11:25:11.265Z</time></trkpt><trkpt lat="41.5217051" lon="13.3356075"><ele>733.0</ele><time>2026-04-04T11:25:12.273Z</time></trkpt><trkpt lat="41.5217408" lon="13.3354985"><ele>732.0</ele><time>2026-04-04T11:25:13.279Z</time></trkpt><trkpt lat="41.5217751" lon="13.3353981"><ele>731.0</ele><time>2026-04-04T11:25:14.277Z</time></trkpt><trkpt lat="41.5218326" lon="13.3352999"><ele>730.0</ele><time>2026-04-04T11:25:15.273Z</time></trkpt><trkpt lat="41.5218888" lon="13.3352041"><ele>729.0</ele><time>2026-04-04T11:25:16.275Z</time></trkpt><trkpt lat="41.5219506" lon="13.3351118"><ele>728.0</ele><time>2026-04-04T11:25:17.273Z</time></trkpt><trkpt lat="41.5220318" lon="13.3350063"><ele>731.0</ele><time>2026-04-04T11:25:18.26Z</time></trkpt><trkpt lat="41.5221169" lon="13.3348938"><ele>734.0</ele><time>2026-04-04T11:25:19.267Z</time></trkpt><trkpt lat="41.522201" lon="13.3347654"><ele>737.0</ele><time>2026-04-04T11:25:20.259Z</time></trkpt><trkpt lat="41.5222822" lon="13.3346452"><ele>740.0</ele><time>2026-04-04T11:25:21.278Z</time></trkpt><trkpt lat="41.5223624" lon="13.3345486"><ele>740.0</ele><time>2026-04-04T11:25:22.271Z</time></trkpt><trkpt lat="41.5224447" lon="13.3344688"><ele>740.0</ele><time>2026-04-04T11:25:23.27Z</time></trkpt><trkpt lat="41.5225083" lon="13.3344029"><ele>740.0</ele><time>2026-04-04T11:25:24.27Z</time></trkpt><trkpt lat="41.5225526" lon="13.3343293"><ele>740.0</ele><time>2026-04-04T11:25:25.275Z</time></trkpt><trkpt lat="41.5225753" lon="13.3341744"><ele>740.0</ele><time>2026-04-04T11:25:27.268Z</time></trkpt><trkpt lat="41.5225589" lon="13.3340759"><ele>740.0</ele><time>2026-04-04T11:25:28.27Z</time></trkpt><trkpt lat="41.5225325" lon="13.3339827"><ele>740.0</ele><time>2026-04-04T11:25:29.276Z</time></trkpt><trkpt lat="41.5225143" lon="13.3338972"><ele>740.0</ele><time>2026-04-04T11:25:30.274Z</time></trkpt><trkpt lat="41.5225193" lon="13.3337405"><ele>740.0</ele><time>2026-04-04T11:25:32.277Z</time></trkpt><trkpt lat="41.5225511" lon="13.3336631"><ele>740.0</ele><time>2026-04-04T11:25:33.27Z</time></trkpt><trkpt lat="41.5225966" lon="13.3335715"><ele>740.0</ele><time>2026-04-04T11:25:34.275Z</time></trkpt><trkpt lat="41.5226478" lon="13.3334718"><ele>740.0</ele><time>2026-04-04T11:25:35.287Z</time></trkpt><trkpt lat="41.5227005" lon="13.3333669"><ele>739.5</ele><time>2026-04-04T11:25:36.269Z</time></trkpt><trkpt lat="41.5227423" lon="13.333271"><ele>739.0</ele><time>2026-04-04T11:25:37.272Z</time></trkpt><trkpt lat="41.5227837" lon="13.3331838"><ele>738.5</ele><time>2026-04-04T11:25:38.277Z</time></trkpt><trkpt lat="41.5228269" lon="13.3331076"><ele>738.0</ele><time>2026-04-04T11:25:39.269Z</time></trkpt><trkpt lat="41.5229188" lon="13.3330271"><ele>737.5</ele><time>2026-04-04T11:25:41.269Z</time></trkpt><trkpt lat="41.5229913" lon="13.333025"><ele>737.0</ele><time>2026-04-04T11:25:42.267Z</time></trkpt><trkpt lat="41.5230626" lon="13.3330194"><ele>735.3333333333333</ele><time>2026-04-04T11:25:43.273Z</time></trkpt><trkpt lat="41.5231318" lon="13.3329958"><ele>733.6666666666666</ele><time>2026-04-04T11:25:44.274Z</time></trkpt><trkpt lat="41.523231" lon="13.3328995"><ele>732.0</ele><time>2026-04-04T11:25:46.266Z</time></trkpt><trkpt lat="41.5232799" lon="13.3328394"><ele>730.3333333333334</ele><time>2026-04-04T11:25:47.273Z</time></trkpt><trkpt lat="41.5233267" lon="13.3327567"><ele>728.6666666666667</ele><time>2026-04-04T11:25:48.282Z</time></trkpt><trkpt lat="41.5233821" lon="13.3326697"><ele>727.0</ele><time>2026-04-04T11:25:49.268Z</time></trkpt><trkpt lat="41.5234357" lon="13.3325854"><ele>727.0</ele><time>2026-04-04T11:25:50.273Z</time></trkpt><trkpt lat="41.5234822" lon="13.3325098"><ele>727.0</ele><time>2026-04-04T11:25:51.273Z</time></trkpt><trkpt lat="41.523503" lon="13.3324246"><ele>727.0</ele><time>2026-04-04T11:25:52.27Z</time></trkpt><trkpt lat="41.52346" lon="13.3322515"><ele>727.0</ele><time>2026-04-04T11:25:54.268Z</time></trkpt><trkpt lat="41.5234317" lon="13.3321611"><ele>727.0</ele><time>2026-04-04T11:25:55.273Z</time></trkpt><trkpt lat="41.5234075" lon="13.3320745"><ele>727.0</ele><time>2026-04-04T11:25:56.272Z</time></trkpt><trkpt lat="41.5233932" lon="13.3319876"><ele>725.8</ele><time>2026-04-04T11:25:57.272Z</time></trkpt><trkpt lat="41.5233894" lon="13.3319033"><ele>724.6</ele><time>2026-04-04T11:25:58.269Z</time></trkpt><trkpt lat="41.523416" lon="13.3317372"><ele>723.4</ele><time>2026-04-04T11:26:00.264Z</time></trkpt><trkpt lat="41.5234612" lon="13.3316052"><ele>722.1999999999999</ele><time>2026-04-04T11:26:02.264Z</time></trkpt><trkpt lat="41.5235239" lon="13.3315268"><ele>721.0</ele><time>2026-04-04T11:26:04.276Z</time></trkpt><trkpt lat="41.5236153" lon="13.331454"><ele>720.8</ele><time>2026-04-04T11:26:06.267Z</time></trkpt><trkpt lat="41.5237006" lon="13.3313401"><ele>720.5999999999999</ele><time>2026-04-04T11:26:08.283Z</time></trkpt><trkpt lat="41.5237374" lon="13.3312685"><ele>720.4</ele><time>2026-04-04T11:26:09.272Z</time></trkpt><trkpt lat="41.5238099" lon="13.3311614"><ele>720.2</ele><time>2026-04-04T11:26:11.274Z</time></trkpt><trkpt lat="41.5238995" lon="13.331117"><ele>720.0</ele><time>2026-04-04T11:26:13.27Z</time></trkpt><trkpt lat="41.5240139" lon="13.3311127"><ele>720.0</ele><time>2026-04-04T11:26:15.272Z</time></trkpt><trkpt lat="41.524104" lon="13.3311133"><ele>720.0</ele><time>2026-04-04T11:26:17.269Z</time></trkpt><trkpt lat="41.5242019" lon="13.3311517"><ele>720.0</ele><time>2026-04-04T11:26:19.275Z</time></trkpt><trkpt lat="41.5242793" lon="13.331171"><ele>720.0</ele><time>2026-04-04T11:26:21.276Z</time></trkpt><trkpt lat="41.5243421" lon="13.3311175"><ele>720.0</ele><time>2026-04-04T11:26:23.275Z</time></trkpt><trkpt lat="41.524333" lon="13.3310228"><ele>720.0</ele><time>2026-04-04T11:26:25.271Z</time></trkpt><trkpt lat="41.5243452" lon="13.3309288"><ele>720.0</ele><time>2026-04-04T11:26:27.272Z</time></trkpt><trkpt lat="41.5244073" lon="13.330867"><ele>720.0</ele><time>2026-04-04T11:26:29.271Z</time></trkpt><trkpt lat="41.5244756" lon="13.3307825"><ele>720.0</ele><time>2026-04-04T11:26:31.276Z</time></trkpt><trkpt lat="41.5245462" lon="13.3307097"><ele>720.0</ele><time>2026-04-04T11:26:33.269Z</time></trkpt><trkpt lat="41.5246005" lon="13.3306118"><ele>720.0</ele><time>2026-04-04T11:26:35.273Z</time></trkpt><trkpt lat="41.5246536" lon="13.3305126"><ele>720.0</ele><time>2026-04-04T11:26:37.283Z</time></trkpt><trkpt lat="41.5247269" lon="13.3304238"><ele>718.6</ele><time>2026-04-04T11:26:39.278Z</time></trkpt><trkpt lat="41.5247991" lon="13.3303579"><ele>717.2</ele><time>2026-04-04T11:26:41.271Z</time></trkpt><trkpt lat="41.5248744" lon="13.3303221"><ele>715.8</ele><time>2026-04-04T11:26:43.29Z</time></trkpt><trkpt lat="41.5249625" lon="13.3302694"><ele>714.4</ele><time>2026-04-04T11:26:45.269Z</time></trkpt><trkpt lat="41.5250652" lon="13.3301977"><ele>713.0</ele><time>2026-04-04T11:26:47.273Z</time></trkpt><trkpt lat="41.5251489" lon="13.3301284"><ele>713.0</ele><time>2026-04-04T11:26:49.282Z</time></trkpt><trkpt lat="41.5252275" lon="13.3300823"><ele>713.0</ele><time>2026-04-04T11:26:51.264Z</time></trkpt><trkpt lat="41.5253024" lon="13.3300605"><ele>713.0</ele><time>2026-04-04T11:26:53.272Z</time></trkpt><trkpt lat="41.5253798" lon="13.3299875"><ele>713.0</ele><time>2026-04-04T11:26:55.276Z</time></trkpt><trkpt lat="41.5254525" lon="13.3299244"><ele>713.0</ele><time>2026-04-04T11:26:57.283Z</time></trkpt><trkpt lat="41.5255223" lon="13.3298899"><ele>713.0</ele><time>2026-04-04T11:26:59.281Z</time></trkpt><trkpt lat="41.5255872" lon="13.3298256"><ele>712.0</ele><time>2026-04-04T11:27:01.269Z</time></trkpt><trkpt lat="41.5256403" lon="13.3297653"><ele>711.0</ele><time>2026-04-04T11:27:03.27Z</time></trkpt><trkpt lat="41.5256967" lon="13.3297038"><ele>710.0</ele><time>2026-04-04T11:27:05.271Z</time></trkpt><trkpt lat="41.5257573" lon="13.3296163"><ele>709.0</ele><time>2026-04-04T11:27:07.269Z</time></trkpt><trkpt lat="41.5258093" lon="13.3295103"><ele>708.0</ele><time>2026-04-04T11:27:09.272Z</time></trkpt><trkpt lat="41.5258516" lon="13.3293919"><ele>707.0</ele><time>2026-04-04T11:27:11.268Z</time></trkpt><trkpt lat="41.5258905" lon="13.3293082"><ele>706.5</ele><time>2026-04-04T11:27:13.27Z</time></trkpt><trkpt lat="41.525964" lon="13.3292544"><ele>706.0</ele><time>2026-04-04T11:27:15.275Z</time></trkpt><trkpt lat="41.5260402" lon="13.3292321"><ele>705.5</ele><time>2026-04-04T11:27:18.269Z</time></trkpt><trkpt lat="41.5261181" lon="13.3292008"><ele>705.0</ele><time>2026-04-04T11:27:21.27Z</time></trkpt><trkpt lat="41.5261813" lon="13.3292159"><ele>704.5</ele><time>2026-04-04T11:27:23.28Z</time></trkpt><trkpt lat="41.5262481" lon="13.3291334"><ele>704.0</ele><time>2026-04-04T11:27:26.274Z</time></trkpt><trkpt lat="41.5262952" lon="13.3290506"><ele>702.5</ele><time>2026-04-04T11:27:28.269Z</time></trkpt><trkpt lat="41.526357" lon="13.3289995"><ele>701.0</ele><time>2026-04-04T11:27:30.271Z</time></trkpt><trkpt lat="41.5264243" lon="13.3289526"><ele>699.5</ele><time>2026-04-04T11:27:32.271Z</time></trkpt><trkpt lat="41.5265159" lon="13.3289404"><ele>698.0</ele><time>2026-04-04T11:27:35.271Z</time></trkpt><trkpt lat="41.5266028" lon="13.3289538"><ele>696.5</ele><time>2026-04-04T11:27:46.28Z</time></trkpt><trkpt lat="41.5266115" lon="13.3288692"><ele>695.0</ele><time>2026-04-04T11:27:52.27Z</time></trkpt><trkpt lat="41.526551" lon="13.3287906"><ele>695.0</ele><time>2026-04-04T11:27:54.273Z</time></trkpt><trkpt lat="41.5265087" lon="13.3287221"><ele>695.0</ele><time>2026-04-04T11:27:55.273Z</time></trkpt><trkpt lat="41.5264282" lon="13.3285997"><ele>695.0</ele><time>2026-04-04T11:27:57.273Z</time></trkpt><trkpt lat="41.5263523" lon="13.3284803"><ele>695.0</ele><time>2026-04-04T11:27:59.28Z</time></trkpt><trkpt lat="41.5263528" lon="13.3283714"><ele>695.0</ele><time>2026-04-04T11:28:01.27Z</time></trkpt><trkpt lat="41.5263571" lon="13.3282742"><ele>695.0</ele><time>2026-04-04T11:28:03.285Z</time></trkpt><trkpt lat="41.526358" lon="13.3281756"><ele>695.0</ele><time>2026-04-04T11:28:05.27Z</time></trkpt><trkpt lat="41.5263579" lon="13.3280822"><ele>695.0</ele><time>2026-04-04T11:28:07.274Z</time></trkpt><trkpt lat="41.5263714" lon="13.3279972"><ele>695.0</ele><time>2026-04-04T11:28:09.268Z</time></trkpt><trkpt lat="41.526349" lon="13.3278468"><ele>695.0</ele><time>2026-04-04T11:28:11.275Z</time></trkpt><trkpt lat="41.5263265" lon="13.3277628"><ele>695.0</ele><time>2026-04-04T11:28:12.272Z</time></trkpt><trkpt lat="41.5262945" lon="13.3276825"><ele>695.0</ele><time>2026-04-04T11:28:13.283Z</time></trkpt><trkpt lat="41.5262491" lon="13.3276203"><ele>695.0</ele><time>2026-04-04T11:28:14.275Z</time></trkpt><trkpt lat="41.5261963" lon="13.3275728"><ele>695.0</ele><time>2026-04-04T11:28:15.268Z</time></trkpt><trkpt lat="41.5261348" lon="13.3275295"><ele>695.0</ele><time>2026-04-04T11:28:16.265Z</time></trkpt><trkpt lat="41.5260556" lon="13.3274954"><ele>695.0</ele><time>2026-04-04T11:28:17.277Z</time></trkpt><trkpt lat="41.5259713" lon="13.327468"><ele>695.0</ele><time>2026-04-04T11:28:18.271Z</time></trkpt><trkpt lat="41.5258948" lon="13.3274304"><ele>695.0</ele><time>2026-04-04T11:28:19.267Z</time></trkpt><trkpt lat="41.5258262" lon="13.3273937"><ele>695.0</ele><time>2026-04-04T11:28:20.271Z</time></trkpt><trkpt lat="41.5257682" lon="13.3273512"><ele>695.0</ele><time>2026-04-04T11:28:21.269Z</time></trkpt><trkpt lat="41.5256835" lon="13.3272361"><ele>695.0</ele><time>2026-04-04T11:28:23.269Z</time></trkpt><trkpt lat="41.5257157" lon="13.3270732"><ele>695.0</ele><time>2026-04-04T11:28:25.272Z</time></trkpt><trkpt lat="41.5257538" lon="13.3269874"><ele>694.0</ele><time>2026-04-04T11:28:26.279Z</time></trkpt><trkpt lat="41.5257967" lon="13.3268905"><ele>693.0</ele><time>2026-04-04T11:28:27.273Z</time></trkpt><trkpt lat="41.5258391" lon="13.3267816"><ele>692.0</ele><time>2026-04-04T11:28:28.272Z</time></trkpt><trkpt lat="41.5258811" lon="13.3266717"><ele>691.0</ele><time>2026-04-04T11:28:29.267Z</time></trkpt><trkpt lat="41.5259176" lon="13.3265793"><ele>690.0</ele><time>2026-04-04T11:28:30.271Z</time></trkpt><trkpt lat="41.5259526" lon="13.326506"><ele>689.0</ele><time>2026-04-04T11:28:31.268Z</time></trkpt><trkpt lat="41.5260231" lon="13.3263608"><ele>689.0</ele><time>2026-04-04T11:28:33.271Z</time></trkpt><trkpt lat="41.52606" lon="13.3262778"><ele>689.0</ele><time>2026-04-04T11:28:34.271Z</time></trkpt><trkpt lat="41.526096" lon="13.3261999"><ele>689.0</ele><time>2026-04-04T11:28:35.266Z</time></trkpt><trkpt lat="41.5261726" lon="13.3260806"><ele>689.0</ele><time>2026-04-04T11:28:37.265Z</time></trkpt><trkpt lat="41.5262535" lon="13.3259631"><ele>689.0</ele><time>2026-04-04T11:28:39.266Z</time></trkpt><trkpt lat="41.5263107" lon="13.3258982"><ele>689.0</ele><time>2026-04-04T11:28:40.271Z</time></trkpt><trkpt lat="41.5263707" lon="13.3258308"><ele>689.0</ele><time>2026-04-04T11:28:41.268Z</time></trkpt><trkpt lat="41.5264412" lon="13.3257584"><ele>689.0</ele><time>2026-04-04T11:28:42.27Z</time></trkpt><trkpt lat="41.5265016" lon="13.3256886"><ele>689.0</ele><time>2026-04-04T11:28:43.279Z</time></trkpt><trkpt lat="41.5265509" lon="13.3256006"><ele>689.0</ele><time>2026-04-04T11:28:44.267Z</time></trkpt><trkpt lat="41.5265781" lon="13.3254945"><ele>689.0</ele><time>2026-04-04T11:28:45.27Z</time></trkpt><trkpt lat="41.5265885" lon="13.3253713"><ele>688.4000000000001</ele><time>2026-04-04T11:28:46.273Z</time></trkpt><trkpt lat="41.5266054" lon="13.3252503"><ele>687.8</ele><time>2026-04-04T11:28:47.263Z</time></trkpt><trkpt lat="41.5266376" lon="13.3251323"><ele>687.2</ele><time>2026-04-04T11:28:48.261Z</time></trkpt><trkpt lat="41.5266843" lon="13.3250189"><ele>686.5999999999999</ele><time>2026-04-04T11:28:49.274Z</time></trkpt><trkpt lat="41.5267367" lon="13.3249056"><ele>686.0</ele><time>2026-04-04T11:28:50.26Z</time></trkpt><trkpt lat="41.5267914" lon="13.3247972"><ele>685.1999999999999</ele><time>2026-04-04T11:28:51.279Z</time></trkpt><trkpt lat="41.5268525" lon="13.3246831"><ele>684.4</ele><time>2026-04-04T11:28:52.268Z</time></trkpt><trkpt lat="41.5269142" lon="13.3245669"><ele>683.6</ele><time>2026-04-04T11:28:53.268Z</time></trkpt><trkpt lat="41.5269855" lon="13.3244454"><ele>682.8</ele><time>2026-04-04T11:28:54.263Z</time></trkpt><trkpt lat="41.5270594" lon="13.3243233"><ele>682.0</ele><time>2026-04-04T11:28:55.267Z</time></trkpt><trkpt lat="41.5271327" lon="13.3242067"><ele>684.3333333333334</ele><time>2026-04-04T11:28:56.282Z</time></trkpt><trkpt lat="41.5271993" lon="13.324108"><ele>686.6666666666667</ele><time>2026-04-04T11:28:57.268Z</time></trkpt><trkpt lat="41.5272653" lon="13.3240282"><ele>689.0</ele><time>2026-04-04T11:28:58.264Z</time></trkpt><trkpt lat="41.5273142" lon="13.3239494"><ele>691.3333333333334</ele><time>2026-04-04T11:28:59.265Z</time></trkpt><trkpt lat="41.5273377" lon="13.3238697"><ele>693.6666666666666</ele><time>2026-04-04T11:29:00.269Z</time></trkpt><trkpt lat="41.5273214" lon="13.3237431"><ele>696.0</ele><time>2026-04-04T11:29:02.27Z</time></trkpt><trkpt lat="41.5272781" lon="13.3236737"><ele>697.0</ele><time>2026-04-04T11:29:03.261Z</time></trkpt><trkpt lat="41.5272081" lon="13.3235987"><ele>698.0</ele><time>2026-04-04T11:29:04.265Z</time></trkpt><trkpt lat="41.5271362" lon="13.3235251"><ele>699.0</ele><time>2026-04-04T11:29:05.262Z</time></trkpt><trkpt lat="41.5270492" lon="13.3234643"><ele>700.0</ele><time>2026-04-04T11:29:06.275Z</time></trkpt><trkpt lat="41.5269534" lon="13.3233933"><ele>701.0</ele><time>2026-04-04T11:29:07.268Z</time></trkpt><trkpt lat="41.5268699" lon="13.3233031"><ele>698.4</ele><time>2026-04-04T11:29:08.273Z</time></trkpt><trkpt lat="41.5267899" lon="13.3232093"><ele>695.8</ele><time>2026-04-04T11:29:09.273Z</time></trkpt><trkpt lat="41.5267288" lon="13.3231082"><ele>693.1999999999999</ele><time>2026-04-04T11:29:10.268Z</time></trkpt><trkpt lat="41.5266771" lon="13.3230154"><ele>690.5999999999999</ele><time>2026-04-04T11:29:11.267Z</time></trkpt><trkpt lat="41.5266286" lon="13.3229183"><ele>688.0</ele><time>2026-04-04T11:29:12.272Z</time></trkpt><trkpt lat="41.5265889" lon="13.322822"><ele>688.0</ele><time>2026-04-04T11:29:13.265Z</time></trkpt><trkpt lat="41.5265522" lon="13.3227271"><ele>688.0</ele><time>2026-04-04T11:29:14.284Z</time></trkpt><trkpt lat="41.5265193" lon="13.3226265"><ele>688.0</ele><time>2026-04-04T11:29:15.265Z</time></trkpt><trkpt lat="41.5264881" lon="13.3225217"><ele>688.0</ele><time>2026-04-04T11:29:16.263Z</time></trkpt><trkpt lat="41.5264518" lon="13.3224041"><ele>688.0</ele><time>2026-04-04T11:29:17.268Z</time></trkpt><trkpt lat="41.5264242" lon="13.3222803"><ele>688.0</ele><time>2026-04-04T11:29:18.259Z</time></trkpt><trkpt lat="41.5263872" lon="13.3221417"><ele>688.5</ele><time>2026-04-04T11:29:19.271Z</time></trkpt><trkpt lat="41.5263573" lon="13.3219945"><ele>689.0</ele><time>2026-04-04T11:29:20.26Z</time></trkpt><trkpt lat="41.5263221" lon="13.3218397"><ele>689.5</ele><time>2026-04-04T11:29:21.264Z</time></trkpt><trkpt lat="41.5262906" lon="13.3216915"><ele>690.0</ele><time>2026-04-04T11:29:22.26Z</time></trkpt><trkpt lat="41.5262659" lon="13.3215399"><ele>689.25</ele><time>2026-04-04T11:29:23.263Z</time></trkpt><trkpt lat="41.5262307" lon="13.3213929"><ele>688.5</ele><time>2026-04-04T11:29:24.281Z</time></trkpt><trkpt lat="41.5262009" lon="13.3212303"><ele>687.75</ele><time>2026-04-04T11:29:25.263Z</time></trkpt><trkpt lat="41.5261763" lon="13.3210546"><ele>687.0</ele><time>2026-04-04T11:29:26.264Z</time></trkpt><trkpt lat="41.5261575" lon="13.3208884"><ele>680.6</ele><time>2026-04-04T11:29:27.26Z</time></trkpt><trkpt lat="41.5261546" lon="13.3207386"><ele>674.2</ele><time>2026-04-04T11:29:28.268Z</time></trkpt><trkpt lat="41.5261459" lon="13.3206055"><ele>667.8</ele><time>2026-04-04T11:29:29.266Z</time></trkpt><trkpt lat="41.526136" lon="13.3204597"><ele>661.4</ele><time>2026-04-04T11:29:30.264Z</time></trkpt><trkpt lat="41.5261292" lon="13.3203351"><ele>655.0</ele><time>2026-04-04T11:29:31.283Z</time></trkpt><trkpt lat="41.5261263" lon="13.3202144"><ele>654.1666666666667</ele><time>2026-04-04T11:29:32.261Z</time></trkpt><trkpt lat="41.5261244" lon="13.3201268"><ele>653.3333333333334</ele><time>2026-04-04T11:29:33.266Z</time></trkpt><trkpt lat="41.5261174" lon="13.3200009"><ele>652.5</ele><time>2026-04-04T11:29:35.275Z</time></trkpt><trkpt lat="41.5260522" lon="13.3199854"><ele>651.6666666666666</ele><time>2026-04-04T11:29:38.271Z</time></trkpt><trkpt lat="41.5260244" lon="13.3200935"><ele>650.8333333333333</ele><time>2026-04-04T11:29:40.265Z</time></trkpt><trkpt lat="41.5259695" lon="13.3202506"><ele>650.0</ele><time>2026-04-04T11:29:42.277Z</time></trkpt><trkpt lat="41.5259251" lon="13.3203599"><ele>650.0</ele><time>2026-04-04T11:29:43.264Z</time></trkpt><trkpt lat="41.5258999" lon="13.3204836"><ele>650.0</ele><time>2026-04-04T11:29:44.26Z</time></trkpt><trkpt lat="41.5258742" lon="13.3206034"><ele>650.0</ele><time>2026-04-04T11:29:45.262Z</time></trkpt><trkpt lat="41.5258539" lon="13.3207224"><ele>650.0</ele><time>2026-04-04T11:29:46.273Z</time></trkpt><trkpt lat="41.5258363" lon="13.3208386"><ele>650.0</ele><time>2026-04-04T11:29:47.274Z</time></trkpt><trkpt lat="41.5258196" lon="13.3209521"><ele>650.7142857142857</ele><time>2026-04-04T11:29:48.262Z</time></trkpt><trkpt lat="41.5258014" lon="13.3210595"><ele>651.4285714285714</ele><time>2026-04-04T11:29:49.269Z</time></trkpt><trkpt lat="41.5257802" lon="13.3211601"><ele>652.1428571428571</ele><time>2026-04-04T11:29:50.274Z</time></trkpt><trkpt lat="41.5257619" lon="13.3212593"><ele>652.8571428571429</ele><time>2026-04-04T11:29:51.273Z</time></trkpt><trkpt lat="41.5257435" lon="13.321352"><ele>653.5714285714286</ele><time>2026-04-04T11:29:52.268Z</time></trkpt><trkpt lat="41.5257288" lon="13.3214436"><ele>654.2857142857143</ele><time>2026-04-04T11:29:53.261Z</time></trkpt><trkpt lat="41.5257117" lon="13.3215342"><ele>655.0</ele><time>2026-04-04T11:29:54.268Z</time></trkpt><trkpt lat="41.5256964" lon="13.3216225"><ele>655.5</ele><time>2026-04-04T11:29:55.27Z</time></trkpt><trkpt lat="41.5256871" lon="13.3217067"><ele>656.0</ele><time>2026-04-04T11:29:56.266Z</time></trkpt><trkpt lat="41.5256837" lon="13.3218539"><ele>656.5</ele><time>2026-04-04T11:29:58.263Z</time></trkpt><trkpt lat="41.5256735" lon="13.3219608"><ele>657.0</ele><time>2026-04-04T11:30:00.264Z</time></trkpt><trkpt lat="41.5256091" lon="13.321923"><ele>657.5</ele><time>2026-04-04T11:30:04.279Z</time></trkpt><trkpt lat="41.5255758" lon="13.321809"><ele>658.0</ele><time>2026-04-04T11:30:06.267Z</time></trkpt><trkpt lat="41.5255581" lon="13.3217186"><ele>658.0</ele><time>2026-04-04T11:30:07.265Z</time></trkpt><trkpt lat="41.5255438" lon="13.3216097"><ele>658.0</ele><time>2026-04-04T11:30:08.266Z</time></trkpt><trkpt lat="41.5255201" lon="13.3214884"><ele>658.0</ele><time>2026-04-04T11:30:09.268Z</time></trkpt><trkpt lat="41.5255022" lon="13.321384"><ele>658.0</ele><time>2026-04-04T11:30:10.261Z</time></trkpt><trkpt lat="41.5254874" lon="13.3212873"><ele>658.0</ele><time>2026-04-04T11:30:11.269Z</time></trkpt><trkpt lat="41.5254612" lon="13.321155"><ele>658.0</ele><time>2026-04-04T11:30:13.268Z</time></trkpt><trkpt lat="41.5254405" lon="13.3210737"><ele>657.5</ele><time>2026-04-04T11:30:15.278Z</time></trkpt><trkpt lat="41.5254352" lon="13.3209639"><ele>657.0</ele><time>2026-04-04T11:30:18.262Z</time></trkpt><trkpt lat="41.525437" lon="13.3208768"><ele>656.5</ele><time>2026-04-04T11:30:20.268Z</time></trkpt><trkpt lat="41.5254175" lon="13.3207518"><ele>656.0</ele><time>2026-04-04T11:30:23.275Z</time></trkpt><trkpt lat="41.5253989" lon="13.320636"><ele>655.5</ele><time>2026-04-04T11:30:25.264Z</time></trkpt><trkpt lat="41.5253768" lon="13.3204957"><ele>655.0</ele><time>2026-04-04T11:30:27.265Z</time></trkpt><trkpt lat="41.5253561" lon="13.3203618"><ele>648.3333333333334</ele><time>2026-04-04T11:30:29.267Z</time></trkpt><trkpt lat="41.5253396" lon="13.3202182"><ele>641.6666666666667</ele><time>2026-04-04T11:30:31.269Z</time></trkpt><trkpt lat="41.5253323" lon="13.3201106"><ele>635.0</ele><time>2026-04-04T11:30:34.275Z</time></trkpt><trkpt lat="41.5253218" lon="13.3200074"><ele>628.3333333333334</ele><time>2026-04-04T11:30:37.267Z</time></trkpt><trkpt lat="41.5253203" lon="13.3198867"><ele>621.6666666666666</ele><time>2026-04-04T11:30:40.264Z</time></trkpt><trkpt lat="41.5253226" lon="13.3198007"><ele>615.0</ele><time>2026-04-04T11:30:45.271Z</time></trkpt><trkpt lat="41.5253211" lon="13.3197132"><ele>614.3333333333334</ele><time>2026-04-04T11:30:47.269Z</time></trkpt><trkpt lat="41.5253202" lon="13.3195641"><ele>613.6666666666666</ele><time>2026-04-04T11:30:49.271Z</time></trkpt><trkpt lat="41.5253187" lon="13.3194661"><ele>613.0</ele><time>2026-04-04T11:30:50.272Z</time></trkpt><trkpt lat="41.5253126" lon="13.3193562"><ele>612.3333333333333</ele><time>2026-04-04T11:30:51.268Z</time></trkpt><trkpt lat="41.5253126" lon="13.3192418"><ele>611.6666666666666</ele><time>2026-04-04T11:30:52.272Z</time></trkpt><trkpt lat="41.5253117" lon="13.3191397"><ele>611.0</ele><time>2026-04-04T11:30:53.264Z</time></trkpt><trkpt lat="41.5253108" lon="13.3190504"><ele>609.8333333333333</ele><time>2026-04-04T11:30:54.269Z</time></trkpt><trkpt lat="41.5253119" lon="13.3188914"><ele>608.6666666666666</ele><time>2026-04-04T11:30:56.269Z</time></trkpt><trkpt lat="41.5253204" lon="13.3187274"><ele>607.5</ele><time>2026-04-04T11:30:58.261Z</time></trkpt><trkpt lat="41.5253247" lon="13.3186375"><ele>606.3333333333334</ele><time>2026-04-04T11:30:59.261Z</time></trkpt><trkpt lat="41.5253286" lon="13.3185442"><ele>605.1666666666667</ele><time>2026-04-04T11:31:00.26Z</time></trkpt><trkpt lat="41.525333" lon="13.3184544"><ele>604.0</ele><time>2026-04-04T11:31:01.268Z</time></trkpt><trkpt lat="41.5253453" lon="13.3182919"><ele>604.0</ele><time>2026-04-04T11:31:03.263Z</time></trkpt><trkpt lat="41.5253558" lon="13.3181398"><ele>604.0</ele><time>2026-04-04T11:31:05.261Z</time></trkpt><trkpt lat="41.5253664" lon="13.3179768"><ele>604.0</ele><time>2026-04-04T11:31:07.264Z</time></trkpt><trkpt lat="41.525379" lon="13.3178228"><ele>604.0</ele><time>2026-04-04T11:31:09.265Z</time></trkpt><trkpt lat="41.5253899" lon="13.31769"><ele>602.5</ele><time>2026-04-04T11:31:11.265Z</time></trkpt><trkpt lat="41.5254095" lon="13.3175475"><ele>601.0</ele><time>2026-04-04T11:31:13.269Z</time></trkpt><trkpt lat="41.5254282" lon="13.3174068"><ele>599.5</ele><time>2026-04-04T11:31:15.284Z</time></trkpt><trkpt lat="41.5254415" lon="13.3173188"><ele>598.0</ele><time>2026-04-04T11:31:17.266Z</time></trkpt><trkpt lat="41.5253701" lon="13.3173275"><ele>596.5</ele><time>2026-04-04T11:31:22.266Z</time></trkpt><trkpt lat="41.5253326" lon="13.3174005"><ele>595.0</ele><time>2026-04-04T11:31:24.266Z</time></trkpt><trkpt lat="41.525265" lon="13.3174961"><ele>595.0</ele><time>2026-04-04T11:31:26.272Z</time></trkpt><trkpt lat="41.5251936" lon="13.3176212"><ele>595.0</ele><time>2026-04-04T11:31:28.28Z</time></trkpt><trkpt lat="41.5251509" lon="13.317697"><ele>595.0</ele><time>2026-04-04T11:31:29.267Z</time></trkpt><trkpt lat="41.5251043" lon="13.3177809"><ele>595.0</ele><time>2026-04-04T11:31:30.268Z</time></trkpt><trkpt lat="41.5250516" lon="13.3178669"><ele>595.0</ele><time>2026-04-04T11:31:31.262Z</time></trkpt><trkpt lat="41.5250048" lon="13.3179426"><ele>595.0</ele><time>2026-04-04T11:31:32.266Z</time></trkpt><trkpt lat="41.5249336" lon="13.3180437"><ele>595.0</ele><time>2026-04-04T11:31:34.271Z</time></trkpt><trkpt lat="41.5248752" lon="13.3181462"><ele>595.0</ele><time>2026-04-04T11:31:36.266Z</time></trkpt><trkpt lat="41.5248291" lon="13.3182443"><ele>595.0</ele><time>2026-04-04T11:31:38.267Z</time></trkpt><trkpt lat="41.5247757" lon="13.318187"><ele>595.0</ele><time>2026-04-04T11:32:08.264Z</time></trkpt><trkpt lat="41.5247879" lon="13.3180729"><ele>595.0</ele><time>2026-04-04T11:32:11.283Z</time></trkpt><trkpt lat="41.5247921" lon="13.3179533"><ele>595.0</ele><time>2026-04-04T11:32:13.27Z</time></trkpt><trkpt lat="41.5248094" lon="13.3178227"><ele>595.0</ele><time>2026-04-04T11:32:15.285Z</time></trkpt><trkpt lat="41.5248333" lon="13.3176831"><ele>595.0</ele><time>2026-04-04T11:32:17.266Z</time></trkpt><trkpt lat="41.5248486" lon="13.3175468"><ele>595.0</ele><time>2026-04-04T11:32:19.268Z</time></trkpt><trkpt lat="41.5248661" lon="13.3174112"><ele>595.0</ele><time>2026-04-04T11:32:21.273Z</time></trkpt><trkpt lat="41.5248854" lon="13.3172727"><ele>595.0</ele><time>2026-04-04T11:32:23.266Z</time></trkpt><trkpt lat="41.5249016" lon="13.3171334"><ele>593.1666666666667</ele><time>2026-04-04T11:32:25.266Z</time></trkpt><trkpt lat="41.5249187" lon="13.3169942"><ele>591.3333333333334</ele><time>2026-04-04T11:32:27.274Z</time></trkpt><trkpt lat="41.5249389" lon="13.3168381"><ele>589.5</ele><time>2026-04-04T11:32:29.262Z</time></trkpt><trkpt lat="41.524951" lon="13.3167549"><ele>587.6666666666666</ele><time>2026-04-04T11:32:30.263Z</time></trkpt><trkpt lat="41.5249627" lon="13.3166684"><ele>585.8333333333333</ele><time>2026-04-04T11:32:31.266Z</time></trkpt><trkpt lat="41.5249736" lon="13.3165837"><ele>584.0</ele><time>2026-04-04T11:32:32.27Z</time></trkpt><trkpt lat="41.5249838" lon="13.3164172"><ele>582.25</ele><time>2026-04-04T11:32:34.272Z</time></trkpt><trkpt lat="41.5249768" lon="13.3162622"><ele>580.5</ele><time>2026-04-04T11:32:36.261Z</time></trkpt><trkpt lat="41.5249599" lon="13.3161168"><ele>578.75</ele><time>2026-04-04T11:32:38.264Z</time></trkpt><trkpt lat="41.5249502" lon="13.3159619"><ele>577.0</ele><time>2026-04-04T11:32:40.27Z</time></trkpt><trkpt lat="41.5249339" lon="13.3158141"><ele>577.0</ele><time>2026-04-04T11:32:42.268Z</time></trkpt><trkpt lat="41.5249183" lon="13.3156624"><ele>577.0</ele><time>2026-04-04T11:32:44.277Z</time></trkpt><trkpt lat="41.5248961" lon="13.3155127"><ele>577.0</ele><time>2026-04-04T11:32:46.26Z</time></trkpt><trkpt lat="41.5248704" lon="13.3153729"><ele>577.0</ele><time>2026-04-04T11:32:48.275Z</time></trkpt><trkpt lat="41.5248379" lon="13.3152237"><ele>576.2</ele><time>2026-04-04T11:32:50.279Z</time></trkpt><trkpt lat="41.5248122" lon="13.3150661"><ele>575.4000000000001</ele><time>2026-04-04T11:32:52.264Z</time></trkpt><trkpt lat="41.5247928" lon="13.3149079"><ele>574.5999999999999</ele><time>2026-04-04T11:32:54.268Z</time></trkpt><trkpt lat="41.5247664" lon="13.3147611"><ele>573.8</ele><time>2026-04-04T11:32:56.275Z</time></trkpt><trkpt lat="41.5247445" lon="13.3146437"><ele>573.0</ele><time>2026-04-04T11:32:58.268Z</time></trkpt><trkpt lat="41.524681" lon="13.3146255"><ele>573.0</ele><time>2026-04-04T11:33:02.262Z</time></trkpt><trkpt lat="41.5246473" lon="13.314708"><ele>573.0</ele><time>2026-04-04T11:33:04.268Z</time></trkpt><trkpt lat="41.5246198" lon="13.3148051"><ele>573.0</ele><time>2026-04-04T11:33:07.266Z</time></trkpt><trkpt lat="41.5245773" lon="13.3149202"><ele>573.0</ele><time>2026-04-04T11:34:07.264Z</time></trkpt><trkpt lat="41.5245371" lon="13.3150683"><ele>573.0</ele><time>2026-04-04T11:34:09.27Z</time></trkpt><trkpt lat="41.5245211" lon="13.315163"><ele>573.0</ele><time>2026-04-04T11:34:10.271Z</time></trkpt><trkpt lat="41.524508" lon="13.3152567"><ele>567.6666666666666</ele><time>2026-04-04T11:34:11.276Z</time></trkpt><trkpt lat="41.5244967" lon="13.3153441"><ele>562.3333333333334</ele><time>2026-04-04T11:34:12.269Z</time></trkpt><trkpt lat="41.5244813" lon="13.315435"><ele>557.0</ele><time>2026-04-04T11:34:13.266Z</time></trkpt><trkpt lat="41.5244666" lon="13.315523"><ele>551.6666666666667</ele><time>2026-04-04T11:34:14.265Z</time></trkpt><trkpt lat="41.5244439" lon="13.3156448"><ele>546.3333333333334</ele><time>2026-04-04T11:34:16.269Z</time></trkpt><trkpt lat="41.5243968" lon="13.31574"><ele>541.0</ele><time>2026-04-04T11:34:19.264Z</time></trkpt><trkpt lat="41.5243531" lon="13.315855"><ele>541.0</ele><time>2026-04-04T11:34:22.269Z</time></trkpt><trkpt lat="41.5243114" lon="13.3159747"><ele>541.0</ele><time>2026-04-04T11:34:24.269Z</time></trkpt><trkpt lat="41.5242685" lon="13.3160974"><ele>541.0</ele><time>2026-04-04T11:34:26.293Z</time></trkpt><trkpt lat="41.5242144" lon="13.3162173"><ele>541.0</ele><time>2026-04-04T11:34:28.266Z</time></trkpt><trkpt lat="41.5241515" lon="13.3163594"><ele>541.0</ele><time>2026-04-04T11:34:30.268Z</time></trkpt><trkpt lat="41.5241133" lon="13.3164444"><ele>542.8333333333334</ele><time>2026-04-04T11:34:31.296Z</time></trkpt><trkpt lat="41.5240762" lon="13.3165135"><ele>544.6666666666667</ele><time>2026-04-04T11:34:32.27Z</time></trkpt><trkpt lat="41.5240259" lon="13.3165688"><ele>546.5</ele><time>2026-04-04T11:34:35.277Z</time></trkpt><trkpt lat="41.523982" lon="13.3166322"><ele>548.3333333333334</ele><time>2026-04-04T11:35:11.279Z</time></trkpt><trkpt lat="41.5239446" lon="13.3167037"><ele>550.1666666666666</ele><time>2026-04-04T11:35:13.281Z</time></trkpt><trkpt lat="41.5238854" lon="13.3168195"><ele>552.0</ele><time>2026-04-04T11:35:15.271Z</time></trkpt><trkpt lat="41.5238355" lon="13.3169495"><ele>552.0</ele><time>2026-04-04T11:35:17.267Z</time></trkpt><trkpt lat="41.5237794" lon="13.3170963"><ele>552.0</ele><time>2026-04-04T11:35:19.277Z</time></trkpt><trkpt lat="41.52375" lon="13.3171786"><ele>552.0</ele><time>2026-04-04T11:35:20.268Z</time></trkpt><trkpt lat="41.5237012" lon="13.3172947"><ele>552.0</ele><time>2026-04-04T11:35:22.267Z</time></trkpt><trkpt lat="41.5236477" lon="13.3173721"><ele>552.0</ele><time>2026-04-04T11:35:24.269Z</time></trkpt><trkpt lat="41.5235936" lon="13.3174563"><ele>549.1666666666666</ele><time>2026-04-04T11:35:26.273Z</time></trkpt><trkpt lat="41.5235539" lon="13.3175461"><ele>546.3333333333334</ele><time>2026-04-04T11:35:29.273Z</time></trkpt><trkpt lat="41.5235049" lon="13.3176539"><ele>543.5</ele><time>2026-04-04T11:35:32.267Z</time></trkpt><trkpt lat="41.5234751" lon="13.31773"><ele>540.6666666666667</ele><time>2026-04-04T11:35:34.268Z</time></trkpt><trkpt lat="41.5234272" lon="13.3178205"><ele>537.8333333333334</ele><time>2026-04-04T11:35:36.271Z</time></trkpt><trkpt lat="41.5233652" lon="13.3179176"><ele>535.0</ele><time>2026-04-04T11:35:38.274Z</time></trkpt><trkpt lat="41.523319" lon="13.3180338"><ele>536.3333333333334</ele><time>2026-04-04T11:35:40.274Z</time></trkpt><trkpt lat="41.5232839" lon="13.3181323"><ele>537.6666666666667</ele><time>2026-04-04T11:35:42.271Z</time></trkpt><trkpt lat="41.5232544" lon="13.3182121"><ele>539.0</ele><time>2026-04-04T11:35:44.267Z</time></trkpt><trkpt lat="41.5232367" lon="13.3183109"><ele>540.3333333333334</ele><time>2026-04-04T11:35:46.266Z</time></trkpt><trkpt lat="41.523204" lon="13.3184101"><ele>541.6666666666666</ele><time>2026-04-04T11:35:48.267Z</time></trkpt><trkpt lat="41.5231547" lon="13.3185284"><ele>543.0</ele><time>2026-04-04T11:35:50.264Z</time></trkpt><trkpt lat="41.5231049" lon="13.3186568"><ele>543.0</ele><time>2026-04-04T11:35:52.28Z</time></trkpt><trkpt lat="41.5230674" lon="13.3187612"><ele>543.0</ele><time>2026-04-04T11:35:54.272Z</time></trkpt><trkpt lat="41.5230278" lon="13.3188575"><ele>543.0</ele><time>2026-04-04T11:35:56.278Z</time></trkpt><trkpt lat="41.5229897" lon="13.3189285"><ele>543.0</ele><time>2026-04-04T11:35:59.271Z</time></trkpt><trkpt lat="41.5229038" lon="13.3189519"><ele>543.0</ele><time>2026-04-04T11:36:11.274Z</time></trkpt><trkpt lat="41.5228324" lon="13.3190187"><ele>543.0</ele><time>2026-04-04T11:36:13.276Z</time></trkpt><trkpt lat="41.5227753" lon="13.319124"><ele>542.0</ele><time>2026-04-04T11:36:15.272Z</time></trkpt><trkpt lat="41.5226974" lon="13.3192318"><ele>541.0</ele><time>2026-04-04T11:36:17.283Z</time></trkpt><trkpt lat="41.5226485" lon="13.3192885"><ele>540.0</ele><time>2026-04-04T11:36:18.285Z</time></trkpt><trkpt lat="41.5225987" lon="13.3193435"><ele>539.0</ele><time>2026-04-04T11:36:19.275Z</time></trkpt><trkpt lat="41.5225501" lon="13.3193989"><ele>538.0</ele><time>2026-04-04T11:36:20.275Z</time></trkpt><trkpt lat="41.5225033" lon="13.3195389"><ele>537.0</ele><time>2026-04-04T11:36:22.271Z</time></trkpt><trkpt lat="41.5224677" lon="13.3196885"><ele>538.6</ele><time>2026-04-04T11:36:24.271Z</time></trkpt><trkpt lat="41.5224518" lon="13.3198399"><ele>540.2</ele><time>2026-04-04T11:36:26.271Z</time></trkpt><trkpt lat="41.522444" lon="13.3199996"><ele>541.8</ele><time>2026-04-04T11:36:28.265Z</time></trkpt><trkpt lat="41.5224554" lon="13.3201552"><ele>543.4</ele><time>2026-04-04T11:36:30.271Z</time></trkpt><trkpt lat="41.5224859" lon="13.3202582"><ele>545.0</ele><time>2026-04-04T11:36:32.267Z</time></trkpt><trkpt lat="41.5225185" lon="13.3203966"><ele>545.0</ele><time>2026-04-04T11:36:34.267Z</time></trkpt><trkpt lat="41.5225379" lon="13.3205548"><ele>545.0</ele><time>2026-04-04T11:36:36.265Z</time></trkpt><trkpt lat="41.5225532" lon="13.3206375"><ele>545.0</ele><time>2026-04-04T11:36:37.265Z</time></trkpt><trkpt lat="41.5225801" lon="13.3207137"><ele>545.0</ele><time>2026-04-04T11:36:38.26Z</time></trkpt><trkpt lat="41.5226136" lon="13.3207867"><ele>545.0</ele><time>2026-04-04T11:36:39.271Z</time></trkpt><trkpt lat="41.5226586" lon="13.3208543"><ele>545.0</ele><time>2026-04-04T11:36:40.265Z</time></trkpt><trkpt lat="41.5227036" lon="13.3209227"><ele>545.0</ele><time>2026-04-04T11:36:41.266Z</time></trkpt><trkpt lat="41.5227518" lon="13.3210002"><ele>544.0</ele><time>2026-04-04T11:36:42.265Z</time></trkpt><trkpt lat="41.5227985" lon="13.3210864"><ele>543.0</ele><time>2026-04-04T11:36:43.264Z</time></trkpt><trkpt lat="41.5228446" lon="13.3211703"><ele>542.0</ele><time>2026-04-04T11:36:44.264Z</time></trkpt><trkpt lat="41.5228889" lon="13.3212491"><ele>541.0</ele><time>2026-04-04T11:36:45.275Z</time></trkpt><trkpt lat="41.5229666" lon="13.3213906"><ele>540.0</ele><time>2026-04-04T11:36:47.263Z</time></trkpt><trkpt lat="41.5230069" lon="13.3214707"><ele>539.0</ele><time>2026-04-04T11:36:48.272Z</time></trkpt><trkpt lat="41.5230467" lon="13.3215455"><ele>544.0</ele><time>2026-04-04T11:36:49.272Z</time></trkpt><trkpt lat="41.5231276" lon="13.3216817"><ele>549.0</ele><time>2026-04-04T11:36:51.281Z</time></trkpt><trkpt lat="41.5231838" lon="13.3218155"><ele>554.0</ele><time>2026-04-04T11:36:53.268Z</time></trkpt><trkpt lat="41.5232273" lon="13.3219133"><ele>559.0</ele><time>2026-04-04T11:36:55.273Z</time></trkpt><trkpt lat="41.5232746" lon="13.3220194"><ele>564.0</ele><time>2026-04-04T11:36:57.265Z</time></trkpt><trkpt lat="41.5233253" lon="13.3221383"><ele>564.0</ele><time>2026-04-04T11:36:59.267Z</time></trkpt><trkpt lat="41.5233577" lon="13.3222105"><ele>564.0</ele><time>2026-04-04T11:37:00.27Z</time></trkpt><trkpt lat="41.5233964" lon="13.3222896"><ele>564.0</ele><time>2026-04-04T11:37:01.276Z</time></trkpt><trkpt lat="41.5234364" lon="13.322368"><ele>564.0</ele><time>2026-04-04T11:37:02.271Z</time></trkpt><trkpt lat="41.523474" lon="13.3224381"><ele>564.0</ele><time>2026-04-04T11:37:03.263Z</time></trkpt><trkpt lat="41.5235094" lon="13.3225161"><ele>564.0</ele><time>2026-04-04T11:37:04.261Z</time></trkpt><trkpt lat="41.5235491" lon="13.3225982"><ele>564.0</ele><time>2026-04-04T11:37:05.262Z</time></trkpt><trkpt lat="41.5235928" lon="13.3226801"><ele>564.1428571428571</ele><time>2026-04-04T11:37:06.267Z</time></trkpt><trkpt lat="41.5236356" lon="13.3227469"><ele>564.2857142857142</ele><time>2026-04-04T11:37:07.263Z</time></trkpt><trkpt lat="41.5236806" lon="13.3228169"><ele>564.4285714285713</ele><time>2026-04-04T11:37:08.276Z</time></trkpt><trkpt lat="41.5237287" lon="13.3228901"><ele>564.5714285714286</ele><time>2026-04-04T11:37:09.262Z</time></trkpt><trkpt lat="41.5237642" lon="13.3229672"><ele>564.7142857142857</ele><time>2026-04-04T11:37:10.265Z</time></trkpt><trkpt lat="41.5237695" lon="13.3230536"><ele>564.8571428571428</ele><time>2026-04-04T11:37:11.268Z</time></trkpt><trkpt lat="41.5237418" lon="13.3231549"><ele>565.0</ele><time>2026-04-04T11:37:12.272Z</time></trkpt><trkpt lat="41.523682" lon="13.3232525"><ele>565.0</ele><time>2026-04-04T11:37:13.262Z</time></trkpt><trkpt lat="41.5236242" lon="13.3233537"><ele>565.0</ele><time>2026-04-04T11:37:14.268Z</time></trkpt><trkpt lat="41.5235747" lon="13.3234631"><ele>565.0</ele><time>2026-04-04T11:37:15.265Z</time></trkpt><trkpt lat="41.5235281" lon="13.323592"><ele>565.0</ele><time>2026-04-04T11:37:16.272Z</time></trkpt><trkpt lat="41.523484" lon="13.323727"><ele>565.0</ele><time>2026-04-04T11:37:17.269Z</time></trkpt><trkpt lat="41.5234404" lon="13.3238781"><ele>569.5</ele><time>2026-04-04T11:37:18.278Z</time></trkpt><trkpt lat="41.5233965" lon="13.3240347"><ele>574.0</ele><time>2026-04-04T11:37:19.271Z</time></trkpt><trkpt lat="41.5233532" lon="13.3241831"><ele>578.5</ele><time>2026-04-04T11:37:20.265Z</time></trkpt><trkpt lat="41.5233088" lon="13.3243299"><ele>583.0</ele><time>2026-04-04T11:37:21.268Z</time></trkpt><trkpt lat="41.5232652" lon="13.3244791"><ele>583.0</ele><time>2026-04-04T11:37:22.275Z</time></trkpt><trkpt lat="41.523221" lon="13.324635"><ele>583.0</ele><time>2026-04-04T11:37:23.276Z</time></trkpt><trkpt lat="41.5231731" lon="13.3247964"><ele>583.0</ele><time>2026-04-04T11:37:24.265Z</time></trkpt><trkpt lat="41.5231205" lon="13.3249582"><ele>583.0</ele><time>2026-04-04T11:37:25.267Z</time></trkpt><trkpt lat="41.5230627" lon="13.3251186"><ele>580.0</ele><time>2026-04-04T11:37:26.268Z</time></trkpt><trkpt lat="41.5229961" lon="13.3252657"><ele>577.0</ele><time>2026-04-04T11:37:27.271Z</time></trkpt><trkpt lat="41.5229297" lon="13.325409"><ele>574.0</ele><time>2026-04-04T11:37:28.263Z</time></trkpt><trkpt lat="41.52285" lon="13.3255468"><ele>571.0</ele><time>2026-04-04T11:37:29.269Z</time></trkpt><trkpt lat="41.5227544" lon="13.3256736"><ele>578.25</ele><time>2026-04-04T11:37:30.265Z</time></trkpt><trkpt lat="41.5226522" lon="13.3258059"><ele>585.5</ele><time>2026-04-04T11:37:31.265Z</time></trkpt><trkpt lat="41.5225562" lon="13.3259348"><ele>592.75</ele><time>2026-04-04T11:37:32.264Z</time></trkpt><trkpt lat="41.5224662" lon="13.3260571"><ele>600.0</ele><time>2026-04-04T11:37:33.271Z</time></trkpt><trkpt lat="41.52239" lon="13.3261631"><ele>600.0</ele><time>2026-04-04T11:37:34.266Z</time></trkpt><trkpt lat="41.5223272" lon="13.3262488"><ele>600.0</ele><time>2026-04-04T11:37:35.271Z</time></trkpt><trkpt lat="41.5222742" lon="13.3263163"><ele>600.0</ele><time>2026-04-04T11:37:36.267Z</time></trkpt><trkpt lat="41.5221987" lon="13.326376"><ele>600.0</ele><time>2026-04-04T11:37:38.264Z</time></trkpt><trkpt lat="41.5221023" lon="13.3262902"><ele>600.0</ele><time>2026-04-04T11:37:40.265Z</time></trkpt><trkpt lat="41.5220663" lon="13.3261786"><ele>599.4</ele><time>2026-04-04T11:37:41.259Z</time></trkpt><trkpt lat="41.5220199" lon="13.3260511"><ele>598.8</ele><time>2026-04-04T11:37:42.269Z</time></trkpt><trkpt lat="41.5219545" lon="13.3259282"><ele>598.2</ele><time>2026-04-04T11:37:43.26Z</time></trkpt><trkpt lat="41.5218883" lon="13.3258141"><ele>597.6</ele><time>2026-04-04T11:37:44.264Z</time></trkpt><trkpt lat="41.5218221" lon="13.325679"><ele>597.0</ele><time>2026-04-04T11:37:45.278Z</time></trkpt><trkpt lat="41.5217457" lon="13.3255495"><ele>597.0</ele><time>2026-04-04T11:37:46.268Z</time></trkpt><trkpt lat="41.5216596" lon="13.3254241"><ele>597.0</ele><time>2026-04-04T11:37:47.263Z</time></trkpt><trkpt lat="41.5215758" lon="13.3252982"><ele>597.0</ele><time>2026-04-04T11:37:48.266Z</time></trkpt><trkpt lat="41.5214922" lon="13.325197"><ele>597.0</ele><time>2026-04-04T11:37:49.26Z</time></trkpt><trkpt lat="41.521409" lon="13.3251228"><ele>597.0</ele><time>2026-04-04T11:37:50.273Z</time></trkpt><trkpt lat="41.5213239" lon="13.3250529"><ele>597.0</ele><time>2026-04-04T11:37:51.26Z</time></trkpt><trkpt lat="41.521226" lon="13.3250162"><ele>597.0</ele><time>2026-04-04T11:37:52.263Z</time></trkpt><trkpt lat="41.5211208" lon="13.3250009"><ele>597.0</ele><time>2026-04-04T11:37:53.263Z</time></trkpt><trkpt lat="41.521011" lon="13.3250049"><ele>597.0</ele><time>2026-04-04T11:37:54.265Z</time></trkpt><trkpt lat="41.5208932" lon="13.3250291"><ele>597.75</ele><time>2026-04-04T11:37:55.267Z</time></trkpt><trkpt lat="41.5207793" lon="13.3250565"><ele>598.5</ele><time>2026-04-04T11:37:56.266Z</time></trkpt><trkpt lat="41.5206598" lon="13.3250969"><ele>599.25</ele><time>2026-04-04T11:37:57.262Z</time></trkpt><trkpt lat="41.5205474" lon="13.3251386"><ele>600.0</ele><time>2026-04-04T11:37:58.279Z</time></trkpt><trkpt lat="41.5204476" lon="13.325178"><ele>597.2</ele><time>2026-04-04T11:37:59.27Z</time></trkpt><trkpt lat="41.520345" lon="13.3252136"><ele>594.4</ele><time>2026-04-04T11:38:00.268Z</time></trkpt><trkpt lat="41.5202426" lon="13.3252579"><ele>591.6</ele><time>2026-04-04T11:38:01.266Z</time></trkpt><trkpt lat="41.5201397" lon="13.3253079"><ele>588.8</ele><time>2026-04-04T11:38:02.268Z</time></trkpt><trkpt lat="41.5200354" lon="13.3253589"><ele>586.0</ele><time>2026-04-04T11:38:03.264Z</time></trkpt><trkpt lat="41.5199237" lon="13.3254126"><ele>586.0</ele><time>2026-04-04T11:38:04.281Z</time></trkpt><trkpt lat="41.5198223" lon="13.3254885"><ele>586.0</ele><time>2026-04-04T11:38:05.264Z</time></trkpt><trkpt lat="41.519726" lon="13.3255706"><ele>586.0</ele><time>2026-04-04T11:38:06.266Z</time></trkpt><trkpt lat="41.5196336" lon="13.3256568"><ele>586.0</ele><time>2026-04-04T11:38:07.264Z</time></trkpt><trkpt lat="41.5195592" lon="13.3257547"><ele>586.0</ele><time>2026-04-04T11:38:08.266Z</time></trkpt><trkpt lat="41.5194927" lon="13.3258803"><ele>584.8333333333334</ele><time>2026-04-04T11:38:09.266Z</time></trkpt><trkpt lat="41.519437" lon="13.3259892"><ele>583.6666666666667</ele><time>2026-04-04T11:38:10.261Z</time></trkpt><trkpt lat="41.5193859" lon="13.3260669"><ele>582.5</ele><time>2026-04-04T11:38:11.275Z</time></trkpt><trkpt lat="41.5193343" lon="13.3261351"><ele>581.3333333333334</ele><time>2026-04-04T11:38:12.265Z</time></trkpt><trkpt lat="41.519275" lon="13.3262027"><ele>580.1666666666666</ele><time>2026-04-04T11:38:13.279Z</time></trkpt><trkpt lat="41.5192069" lon="13.3262717"><ele>579.0</ele><time>2026-04-04T11:38:14.27Z</time></trkpt><trkpt lat="41.51913" lon="13.3263493"><ele>583.0</ele><time>2026-04-04T11:38:15.264Z</time></trkpt><trkpt lat="41.5190509" lon="13.3264511"><ele>587.0</ele><time>2026-04-04T11:38:16.269Z</time></trkpt><trkpt lat="41.5189675" lon="13.3265662"><ele>591.0</ele><time>2026-04-04T11:38:17.267Z</time></trkpt><trkpt lat="41.5188797" lon="13.3266784"><ele>595.0</ele><time>2026-04-04T11:38:18.273Z</time></trkpt><trkpt lat="41.5187933" lon="13.326791"><ele>590.8</ele><time>2026-04-04T11:38:19.264Z</time></trkpt><trkpt lat="41.5187175" lon="13.3269107"><ele>586.6</ele><time>2026-04-04T11:38:20.268Z</time></trkpt><trkpt lat="41.5186492" lon="13.327029"><ele>582.4</ele><time>2026-04-04T11:38:21.276Z</time></trkpt><trkpt lat="41.5185816" lon="13.3271434"><ele>578.2</ele><time>2026-04-04T11:38:22.268Z</time></trkpt><trkpt lat="41.5185145" lon="13.3272566"><ele>574.0</ele><time>2026-04-04T11:38:23.268Z</time></trkpt><trkpt lat="41.5184501" lon="13.3273733"><ele>574.0</ele><time>2026-04-04T11:38:24.27Z</time></trkpt><trkpt lat="41.5183855" lon="13.3274974"><ele>574.0</ele><time>2026-04-04T11:38:25.268Z</time></trkpt><trkpt lat="41.5183163" lon="13.3276268"><ele>574.0</ele><time>2026-04-04T11:38:26.269Z</time></trkpt><trkpt lat="41.5182403" lon="13.3277632"><ele>574.0</ele><time>2026-04-04T11:38:27.286Z</time></trkpt><trkpt lat="41.5181617" lon="13.3279066"><ele>574.0</ele><time>2026-04-04T11:38:28.276Z</time></trkpt><trkpt lat="41.518088" lon="13.3280495"><ele>574.0</ele><time>2026-04-04T11:38:29.267Z</time></trkpt><trkpt lat="41.5180194" lon="13.3281885"><ele>574.0</ele><time>2026-04-04T11:38:30.26Z</time></trkpt><trkpt lat="41.5179533" lon="13.3283201"><ele>574.0</ele><time>2026-04-04T11:38:31.266Z</time></trkpt><trkpt lat="41.5178784" lon="13.3284578"><ele>571.0</ele><time>2026-04-04T11:38:32.262Z</time></trkpt><trkpt lat="41.5177945" lon="13.3286002"><ele>568.0</ele><time>2026-04-04T11:38:33.264Z</time></trkpt><trkpt lat="41.5177061" lon="13.3287466"><ele>565.0</ele><time>2026-04-04T11:38:34.271Z</time></trkpt><trkpt lat="41.51761" lon="13.3288982"><ele>562.0</ele><time>2026-04-04T11:38:35.266Z</time></trkpt><trkpt lat="41.5175088" lon="13.3290526"><ele>562.0</ele><time>2026-04-04T11:38:36.266Z</time></trkpt><trkpt lat="41.5174065" lon="13.3291993"><ele>562.0</ele><time>2026-04-04T11:38:37.274Z</time></trkpt><trkpt lat="41.5173023" lon="13.3293499"><ele>562.0</ele><time>2026-04-04T11:38:38.272Z</time></trkpt><trkpt lat="41.5172002" lon="13.3295054"><ele>562.0</ele><time>2026-04-04T11:38:39.276Z</time></trkpt><trkpt lat="41.5171029" lon="13.3296587"><ele>562.0</ele><time>2026-04-04T11:38:40.269Z</time></trkpt><trkpt lat="41.5170093" lon="13.3298032"><ele>562.0</ele><time>2026-04-04T11:38:41.267Z</time></trkpt><trkpt lat="41.5169186" lon="13.3299407"><ele>562.0</ele><time>2026-04-04T11:38:42.264Z</time></trkpt><trkpt lat="41.51683" lon="13.3300781"><ele>561.0</ele><time>2026-04-04T11:38:43.267Z</time></trkpt><trkpt lat="41.5167426" lon="13.3302176"><ele>560.0</ele><time>2026-04-04T11:38:44.28Z</time></trkpt><trkpt lat="41.5166476" lon="13.3303574"><ele>559.0</ele><time>2026-04-04T11:38:45.264Z</time></trkpt><trkpt lat="41.5165539" lon="13.3304997"><ele>558.0</ele><time>2026-04-04T11:38:46.28Z</time></trkpt><trkpt lat="41.5164612" lon="13.3306362"><ele>558.0</ele><time>2026-04-04T11:38:47.263Z</time></trkpt><trkpt lat="41.5163676" lon="13.3307614"><ele>558.0</ele><time>2026-04-04T11:38:48.269Z</time></trkpt><trkpt lat="41.5162806" lon="13.3308712"><ele>558.0</ele><time>2026-04-04T11:38:49.267Z</time></trkpt><trkpt lat="41.5161937" lon="13.3309748"><ele>558.0</ele><time>2026-04-04T11:38:50.274Z</time></trkpt><trkpt lat="41.5161102" lon="13.331072"><ele>552.5</ele><time>2026-04-04T11:38:51.269Z</time></trkpt><trkpt lat="41.5160269" lon="13.3311746"><ele>547.0</ele><time>2026-04-04T11:38:52.273Z</time></trkpt><trkpt lat="41.5159448" lon="13.3312851"><ele>541.5</ele><time>2026-04-04T11:38:53.274Z</time></trkpt><trkpt lat="41.5158651" lon="13.3314029"><ele>536.0</ele><time>2026-04-04T11:38:54.261Z</time></trkpt><trkpt lat="41.5157883" lon="13.3315244"><ele>536.0</ele><time>2026-04-04T11:38:55.274Z</time></trkpt><trkpt lat="41.5157105" lon="13.3316428"><ele>536.0</ele><time>2026-04-04T11:38:56.264Z</time></trkpt><trkpt lat="41.5156354" lon="13.3317598"><ele>536.0</ele><time>2026-04-04T11:38:57.267Z</time></trkpt><trkpt lat="41.5155607" lon="13.3318788"><ele>536.0</ele><time>2026-04-04T11:38:58.271Z</time></trkpt><trkpt lat="41.5154869" lon="13.3319977"><ele>536.0</ele><time>2026-04-04T11:38:59.269Z</time></trkpt><trkpt lat="41.5154143" lon="13.3321203"><ele>536.0</ele><time>2026-04-04T11:39:00.268Z</time></trkpt><trkpt lat="41.5153478" lon="13.3322452"><ele>536.0</ele><time>2026-04-04T11:39:01.26Z</time></trkpt><trkpt lat="41.5152876" lon="13.3323725"><ele>536.0</ele><time>2026-04-04T11:39:02.27Z</time></trkpt><trkpt lat="41.5152366" lon="13.3325014"><ele>531.2</ele><time>2026-04-04T11:39:03.267Z</time></trkpt><trkpt lat="41.51519" lon="13.3326239"><ele>526.4000000000001</ele><time>2026-04-04T11:39:04.267Z</time></trkpt><trkpt lat="41.5151399" lon="13.3327418"><ele>521.6</ele><time>2026-04-04T11:39:05.261Z</time></trkpt><trkpt lat="41.5150886" lon="13.332845"><ele>516.8000000000001</ele><time>2026-04-04T11:39:06.264Z</time></trkpt><trkpt lat="41.5150408" lon="13.3329568"><ele>512.0</ele><time>2026-04-04T11:39:07.279Z</time></trkpt><trkpt lat="41.5150058" lon="13.333076"><ele>512.0</ele><time>2026-04-04T11:39:08.261Z</time></trkpt><trkpt lat="41.5149878" lon="13.3332002"><ele>512.0</ele><time>2026-04-04T11:39:09.267Z</time></trkpt><trkpt lat="41.5149701" lon="13.3333202"><ele>512.0</ele><time>2026-04-04T11:39:10.264Z</time></trkpt><trkpt lat="41.5149522" lon="13.333436"><ele>512.0</ele><time>2026-04-04T11:39:11.273Z</time></trkpt><trkpt lat="41.5149413" lon="13.3335553"><ele>512.0</ele><time>2026-04-04T11:39:12.271Z</time></trkpt><trkpt lat="41.5149364" lon="13.3336776"><ele>512.0</ele><time>2026-04-04T11:39:13.266Z</time></trkpt><trkpt lat="41.5149304" lon="13.3338052"><ele>512.0</ele><time>2026-04-04T11:39:14.266Z</time></trkpt><trkpt lat="41.5149301" lon="13.3339363"><ele>512.0</ele><time>2026-04-04T11:39:15.278Z</time></trkpt><trkpt lat="41.5149354" lon="13.3340652"><ele>512.0</ele><time>2026-04-04T11:39:16.266Z</time></trkpt><trkpt lat="41.5149526" lon="13.3341877"><ele>512.0</ele><time>2026-04-04T11:39:17.265Z</time></trkpt><trkpt lat="41.5149793" lon="13.3343063"><ele>510.20000000000005</ele><time>2026-04-04T11:39:18.271Z</time></trkpt><trkpt lat="41.5150156" lon="13.3344193"><ele>508.40000000000003</ele><time>2026-04-04T11:39:19.272Z</time></trkpt><trkpt lat="41.5150578" lon="13.3345333"><ele>506.59999999999997</ele><time>2026-04-04T11:39:20.279Z</time></trkpt><trkpt lat="41.5151077" lon="13.3346446"><ele>504.79999999999995</ele><time>2026-04-04T11:39:21.281Z</time></trkpt><trkpt lat="41.515155" lon="13.3347415"><ele>503.0</ele><time>2026-04-04T11:39:22.271Z</time></trkpt><trkpt lat="41.5152083" lon="13.33482"><ele>501.16666666666663</ele><time>2026-04-04T11:39:23.271Z</time></trkpt><trkpt lat="41.5152562" lon="13.3348939"><ele>499.3333333333333</ele><time>2026-04-04T11:39:24.273Z</time></trkpt><trkpt lat="41.515283" lon="13.3349718"><ele>497.5</ele><time>2026-04-04T11:39:25.28Z</time></trkpt><trkpt lat="41.5152713" lon="13.3351336"><ele>495.66666666666663</ele><time>2026-04-04T11:39:27.266Z</time></trkpt><trkpt lat="41.5152446" lon="13.3352196"><ele>493.8333333333333</ele><time>2026-04-04T11:39:28.276Z</time></trkpt><trkpt lat="41.5152154" lon="13.3353079"><ele>492.0</ele><time>2026-04-04T11:39:29.272Z</time></trkpt><trkpt lat="41.5151925" lon="13.3354101"><ele>492.0</ele><time>2026-04-04T11:39:30.266Z</time></trkpt><trkpt lat="41.5151602" lon="13.335497"><ele>492.0</ele><time>2026-04-04T11:39:31.264Z</time></trkpt><trkpt lat="41.5150583" lon="13.3355606"><ele>492.0</ele><time>2026-04-04T11:39:33.268Z</time></trkpt><trkpt lat="41.5149941" lon="13.3355662"><ele>492.0</ele><time>2026-04-04T11:39:34.269Z</time></trkpt><trkpt lat="41.5149197" lon="13.3355725"><ele>492.0</ele><time>2026-04-04T11:39:35.268Z</time></trkpt><trkpt lat="41.5148301" lon="13.3355877"><ele>492.0</ele><time>2026-04-04T11:39:36.267Z</time></trkpt><trkpt lat="41.514726" lon="13.3356175"><ele>490.25</ele><time>2026-04-04T11:39:37.271Z</time></trkpt><trkpt lat="41.5146196" lon="13.3356521"><ele>488.5</ele><time>2026-04-04T11:39:38.275Z</time></trkpt><trkpt lat="41.5145049" lon="13.335711"><ele>486.75</ele><time>2026-04-04T11:39:39.273Z</time></trkpt><trkpt lat="41.5143896" lon="13.3357798"><ele>485.0</ele><time>2026-04-04T11:39:40.272Z</time></trkpt><trkpt lat="41.5142741" lon="13.3358257"><ele>485.0</ele><time>2026-04-04T11:39:41.263Z</time></trkpt><trkpt lat="41.5141593" lon="13.3358498"><ele>485.0</ele><time>2026-04-04T11:39:42.27Z</time></trkpt><trkpt lat="41.5140586" lon="13.3358643"><ele>485.0</ele><time>2026-04-04T11:39:43.264Z</time></trkpt><trkpt lat="41.5139685" lon="13.3358816"><ele>485.0</ele><time>2026-04-04T11:39:44.268Z</time></trkpt><trkpt lat="41.5138808" lon="13.3358969"><ele>485.0</ele><time>2026-04-04T11:39:45.265Z</time></trkpt><trkpt lat="41.5138088" lon="13.3359141"><ele>481.2</ele><time>2026-04-04T11:39:46.279Z</time></trkpt><trkpt lat="41.5136919" lon="13.3359787"><ele>477.4</ele><time>2026-04-04T11:39:48.267Z</time></trkpt><trkpt lat="41.5136338" lon="13.3360241"><ele>473.6</ele><time>2026-04-04T11:39:49.265Z</time></trkpt><trkpt lat="41.5135639" lon="13.3360763"><ele>469.8</ele><time>2026-04-04T11:39:50.267Z</time></trkpt><trkpt lat="41.5134894" lon="13.3361442"><ele>466.0</ele><time>2026-04-04T11:39:51.265Z</time></trkpt><trkpt lat="41.5134112" lon="13.3362199"><ele>466.00000000000006</ele><time>2026-04-04T11:39:52.273Z</time></trkpt><trkpt lat="41.5133378" lon="13.336301"><ele>466.0</ele><time>2026-04-04T11:39:53.27Z</time></trkpt><trkpt lat="41.5132702" lon="13.3363848"><ele>466.0</ele><time>2026-04-04T11:39:54.268Z</time></trkpt><trkpt lat="41.5132108" lon="13.3364616"><ele>466.0</ele><time>2026-04-04T11:39:55.271Z</time></trkpt><trkpt lat="41.513155" lon="13.3365385"><ele>466.00000000000006</ele><time>2026-04-04T11:39:56.267Z</time></trkpt><trkpt lat="41.5131026" lon="13.3366181"><ele>466.0</ele><time>2026-04-04T11:39:57.264Z</time></trkpt><trkpt lat="41.5130478" lon="13.3367"><ele>463.20000000000005</ele><time>2026-04-04T11:39:58.269Z</time></trkpt><trkpt lat="41.5129933" lon="13.3367926"><ele>460.40000000000003</ele><time>2026-04-04T11:39:59.261Z</time></trkpt><trkpt lat="41.5129365" lon="13.3368894"><ele>457.6</ele><time>2026-04-04T11:40:00.283Z</time></trkpt><trkpt lat="41.5128757" lon="13.3369918"><ele>454.8</ele><time>2026-04-04T11:40:01.269Z</time></trkpt><trkpt lat="41.5128133" lon="13.337097"><ele>452.0</ele><time>2026-04-04T11:40:02.269Z</time></trkpt><trkpt lat="41.5127516" lon="13.337202"><ele>454.20000000000005</ele><time>2026-04-04T11:40:03.266Z</time></trkpt><trkpt lat="41.512688" lon="13.3373061"><ele>456.40000000000003</ele><time>2026-04-04T11:40:04.265Z</time></trkpt><trkpt lat="41.5126163" lon="13.3374185"><ele>458.59999999999997</ele><time>2026-04-04T11:40:05.267Z</time></trkpt><trkpt lat="41.5125507" lon="13.3375315"><ele>460.79999999999995</ele><time>2026-04-04T11:40:06.272Z</time></trkpt><trkpt lat="41.5124846" lon="13.3376479"><ele>463.0</ele><time>2026-04-04T11:40:07.275Z</time></trkpt><trkpt lat="41.5124282" lon="13.3377721"><ele>463.0</ele><time>2026-04-04T11:40:08.271Z</time></trkpt><trkpt lat="41.5123847" lon="13.3379019"><ele>462.99999999999994</ele><time>2026-04-04T11:40:09.276Z</time></trkpt><trkpt lat="41.5123531" lon="13.3380268"><ele>462.99999999999994</ele><time>2026-04-04T11:40:10.265Z</time></trkpt><trkpt lat="41.5123257" lon="13.3381528"><ele>463.0</ele><time>2026-04-04T11:40:11.269Z</time></trkpt><trkpt lat="41.5122957" lon="13.3382879"><ele>463.0</ele><time>2026-04-04T11:40:12.271Z</time></trkpt><trkpt lat="41.5122594" lon="13.3384304"><ele>464.0</ele><time>2026-04-04T11:40:13.271Z</time></trkpt><trkpt lat="41.5122212" lon="13.3385809"><ele>465.0</ele><time>2026-04-04T11:40:14.273Z</time></trkpt><trkpt lat="41.5121794" lon="13.3387349"><ele>466.0</ele><time>2026-04-04T11:40:15.264Z</time></trkpt><trkpt lat="41.5121322" lon="13.3388891"><ele>467.0</ele><time>2026-04-04T11:40:16.275Z</time></trkpt><trkpt lat="41.5120865" lon="13.3390364"><ele>461.5</ele><time>2026-04-04T11:40:17.272Z</time></trkpt><trkpt lat="41.5120345" lon="13.3391786"><ele>456.0</ele><time>2026-04-04T11:40:18.263Z</time></trkpt><trkpt lat="41.5119747" lon="13.3393177"><ele>450.5</ele><time>2026-04-04T11:40:19.268Z</time></trkpt><trkpt lat="41.5119134" lon="13.339456"><ele>445.0</ele><time>2026-04-04T11:40:20.27Z</time></trkpt><trkpt lat="41.5118344" lon="13.3395861"><ele>445.0</ele><time>2026-04-04T11:40:21.261Z</time></trkpt><trkpt lat="41.5117543" lon="13.3396909"><ele>445.0</ele><time>2026-04-04T11:40:22.272Z</time></trkpt><trkpt lat="41.5116749" lon="13.3397657"><ele>445.0</ele><time>2026-04-04T11:40:23.275Z</time></trkpt><trkpt lat="41.5115884" lon="13.3398388"><ele>445.0</ele><time>2026-04-04T11:40:24.27Z</time></trkpt><trkpt lat="41.511507" lon="13.3399133"><ele>445.0</ele><time>2026-04-04T11:40:25.276Z</time></trkpt><trkpt lat="41.5114321" lon="13.3399895"><ele>443.33333333333337</ele><time>2026-04-04T11:40:26.267Z</time></trkpt><trkpt lat="41.5113627" lon="13.340062"><ele>441.6666666666667</ele><time>2026-04-04T11:40:27.27Z</time></trkpt><trkpt lat="41.5112943" lon="13.3401299"><ele>440.0</ele><time>2026-04-04T11:40:28.277Z</time></trkpt><trkpt lat="41.5112262" lon="13.3401944"><ele>438.33333333333337</ele><time>2026-04-04T11:40:29.265Z</time></trkpt><trkpt lat="41.5111621" lon="13.3402602"><ele>436.6666666666667</ele><time>2026-04-04T11:40:30.27Z</time></trkpt><trkpt lat="41.511107" lon="13.3403317"><ele>435.0</ele><time>2026-04-04T11:40:31.27Z</time></trkpt><trkpt lat="41.5110586" lon="13.3404108"><ele>435.0</ele><time>2026-04-04T11:40:32.267Z</time></trkpt><trkpt lat="41.5110156" lon="13.3405"><ele>435.0</ele><time>2026-04-04T11:40:33.276Z</time></trkpt><trkpt lat="41.5109789" lon="13.3405943"><ele>435.0</ele><time>2026-04-04T11:40:34.275Z</time></trkpt><trkpt lat="41.5109459" lon="13.3406863"><ele>435.0</ele><time>2026-04-04T11:40:35.272Z</time></trkpt><trkpt lat="41.5109133" lon="13.3407751"><ele>435.0</ele><time>2026-04-04T11:40:36.271Z</time></trkpt><trkpt lat="41.5108819" lon="13.3408559"><ele>435.0</ele><time>2026-04-04T11:40:37.263Z</time></trkpt><trkpt lat="41.510797" lon="13.3409685"><ele>435.0</ele><time>2026-04-04T11:40:39.268Z</time></trkpt><trkpt lat="41.5106683" lon="13.3409167"><ele>435.0</ele><time>2026-04-04T11:40:41.272Z</time></trkpt><trkpt lat="41.5106111" lon="13.3408317"><ele>435.0</ele><time>2026-04-04T11:40:42.265Z</time></trkpt><trkpt lat="41.5105545" lon="13.3407263"><ele>435.0</ele><time>2026-04-04T11:40:43.275Z</time></trkpt><trkpt lat="41.5105008" lon="13.340635"><ele>435.0</ele><time>2026-04-04T11:40:44.264Z</time></trkpt><trkpt lat="41.5104428" lon="13.3405435"><ele>433.2</ele><time>2026-04-04T11:40:45.277Z</time></trkpt><trkpt lat="41.5103772" lon="13.3404613"><ele>431.4</ele><time>2026-04-04T11:40:46.264Z</time></trkpt><trkpt lat="41.5103159" lon="13.3403827"><ele>429.6</ele><time>2026-04-04T11:40:47.267Z</time></trkpt><trkpt lat="41.5102506" lon="13.3403092"><ele>427.8</ele><time>2026-04-04T11:40:48.266Z</time></trkpt><trkpt lat="41.5101839" lon="13.3402275"><ele>426.0</ele><time>2026-04-04T11:40:49.264Z</time></trkpt><trkpt lat="41.510113" lon="13.3401349"><ele>426.0</ele><time>2026-04-04T11:40:50.26Z</time></trkpt><trkpt lat="41.5100476" lon="13.3400285"><ele>426.0</ele><time>2026-04-04T11:40:51.26Z</time></trkpt><trkpt lat="41.5099878" lon="13.3399181"><ele>426.0</ele><time>2026-04-04T11:40:52.262Z</time></trkpt><trkpt lat="41.5099331" lon="13.3398041"><ele>426.0</ele><time>2026-04-04T11:40:53.265Z</time></trkpt><trkpt lat="41.5098866" lon="13.339702"><ele>426.0</ele><time>2026-04-04T11:40:54.271Z</time></trkpt><trkpt lat="41.509846" lon="13.3396163"><ele>422.8333333333333</ele><time>2026-04-04T11:40:55.267Z</time></trkpt><trkpt lat="41.5097644" lon="13.3395441"><ele>419.66666666666663</ele><time>2026-04-04T11:40:57.279Z</time></trkpt><trkpt lat="41.5097106" lon="13.3394923"><ele>416.5</ele><time>2026-04-04T11:40:59.271Z</time></trkpt><trkpt lat="41.5097202" lon="13.3393726"><ele>413.3333333333333</ele><time>2026-04-04T11:41:02.266Z</time></trkpt><trkpt lat="41.5097446" lon="13.3392678"><ele>410.16666666666663</ele><time>2026-04-04T11:41:04.266Z</time></trkpt><trkpt lat="41.5097675" lon="13.3391572"><ele>407.0</ele><time>2026-04-04T11:41:06.27Z</time></trkpt><trkpt lat="41.5097896" lon="13.3390529"><ele>406.99999999999994</ele><time>2026-04-04T11:41:08.271Z</time></trkpt><trkpt lat="41.5098066" lon="13.3389579"><ele>407.0</ele><time>2026-04-04T11:41:10.275Z</time></trkpt><trkpt lat="41.5098507" lon="13.3388944"><ele>407.0</ele><time>2026-04-04T11:41:12.271Z</time></trkpt><trkpt lat="41.5099356" lon="13.3389003"><ele>407.0</ele><time>2026-04-04T11:41:14.277Z</time></trkpt><trkpt lat="41.5100479" lon="13.3389586"><ele>406.99999999999994</ele><time>2026-04-04T11:41:16.286Z</time></trkpt><trkpt lat="41.5101242" lon="13.3389507"><ele>407.0</ele><time>2026-04-04T11:41:18.272Z</time></trkpt><trkpt lat="41.5101265" lon="13.3388471"><ele>403.40000000000003</ele><time>2026-04-04T11:41:20.272Z</time></trkpt><trkpt lat="41.5101005" lon="13.3386948"><ele>399.8</ele><time>2026-04-04T11:41:22.269Z</time></trkpt><trkpt lat="41.5100852" lon="13.338612"><ele>396.2</ele><time>2026-04-04T11:41:23.264Z</time></trkpt><trkpt lat="41.5100697" lon="13.3385263"><ele>392.6</ele><time>2026-04-04T11:41:24.262Z</time></trkpt><trkpt lat="41.5100362" lon="13.3383774"><ele>389.0</ele><time>2026-04-04T11:41:26.272Z</time></trkpt><trkpt lat="41.5099909" lon="13.3382508"><ele>388.99999999999994</ele><time>2026-04-04T11:41:28.277Z</time></trkpt><trkpt lat="41.5099317" lon="13.3380996"><ele>389.0</ele><time>2026-04-04T11:41:30.269Z</time></trkpt><trkpt lat="41.509895" lon="13.3380168"><ele>389.0</ele><time>2026-04-04T11:41:31.275Z</time></trkpt><trkpt lat="41.5098586" lon="13.3379308"><ele>389.0</ele><time>2026-04-04T11:41:32.266Z</time></trkpt><trkpt lat="41.5098193" lon="13.3378431"><ele>388.99999999999994</ele><time>2026-04-04T11:41:33.265Z</time></trkpt><trkpt lat="41.5097741" lon="13.3377647"><ele>389.0</ele><time>2026-04-04T11:41:34.267Z</time></trkpt><trkpt lat="41.5097328" lon="13.3376941"><ele>386.79999999999995</ele><time>2026-04-04T11:41:35.272Z</time></trkpt><trkpt lat="41.5096921" lon="13.3375809"><ele>384.59999999999997</ele><time>2026-04-04T11:41:37.276Z</time></trkpt><trkpt lat="41.5097193" lon="13.3374816"><ele>382.4</ele><time>2026-04-04T11:41:39.273Z</time></trkpt><trkpt lat="41.5098146" lon="13.3373776"><ele>380.2</ele><time>2026-04-04T11:41:41.27Z</time></trkpt><trkpt lat="41.5098428" lon="13.3372419"><ele>378.0</ele><time>2026-04-04T11:41:43.266Z</time></trkpt><trkpt lat="41.5098322" lon="13.3371061"><ele>377.1666666666667</ele><time>2026-04-04T11:41:45.263Z</time></trkpt><trkpt lat="41.5097884" lon="13.3370316"><ele>376.3333333333333</ele><time>2026-04-04T11:41:46.263Z</time></trkpt><trkpt lat="41.509745" lon="13.3369567"><ele>375.5</ele><time>2026-04-04T11:41:47.278Z</time></trkpt><trkpt lat="41.5097058" lon="13.3368892"><ele>374.66666666666663</ele><time>2026-04-04T11:41:48.264Z</time></trkpt><trkpt lat="41.5096758" lon="13.3367839"><ele>373.8333333333333</ele><time>2026-04-04T11:41:50.266Z</time></trkpt><trkpt lat="41.5096606" lon="13.3366955"><ele>373.0</ele><time>2026-04-04T11:41:52.266Z</time></trkpt><trkpt lat="41.509644" lon="13.3365734"><ele>373.0</ele><time>2026-04-04T11:41:54.267Z</time></trkpt><trkpt lat="41.5096029" lon="13.3364115"><ele>373.0</ele><time>2026-04-04T11:41:56.275Z</time></trkpt><trkpt lat="41.5095554" lon="13.336321"><ele>373.0</ele><time>2026-04-04T11:41:57.264Z</time></trkpt><trkpt lat="41.5095034" lon="13.3362304"><ele>373.0</ele><time>2026-04-04T11:41:58.268Z</time></trkpt><trkpt lat="41.5094558" lon="13.3361361"><ele>373.0</ele><time>2026-04-04T11:41:59.26Z</time></trkpt><trkpt lat="41.5094212" lon="13.3360291"><ele>373.4</ele><time>2026-04-04T11:42:00.264Z</time></trkpt><trkpt lat="41.5094113" lon="13.3359287"><ele>373.79999999999995</ele><time>2026-04-04T11:42:01.268Z</time></trkpt><trkpt lat="41.5094288" lon="13.3358233"><ele>374.2</ele><time>2026-04-04T11:42:02.264Z</time></trkpt><trkpt lat="41.5094562" lon="13.3357139"><ele>374.6</ele><time>2026-04-04T11:42:03.269Z</time></trkpt><trkpt lat="41.5094852" lon="13.3355884"><ele>375.0</ele><time>2026-04-04T11:42:04.265Z</time></trkpt><trkpt lat="41.5095263" lon="13.3354525"><ele>375.0</ele><time>2026-04-04T11:42:05.267Z</time></trkpt><trkpt lat="41.5095612" lon="13.3353152"><ele>375.0</ele><time>2026-04-04T11:42:06.274Z</time></trkpt><trkpt lat="41.509596" lon="13.3351887"><ele>375.0</ele><time>2026-04-04T11:42:07.268Z</time></trkpt><trkpt lat="41.5096266" lon="13.3350831"><ele>375.0</ele><time>2026-04-04T11:42:08.272Z</time></trkpt><trkpt lat="41.5096586" lon="13.3349812"><ele>375.0</ele><time>2026-04-04T11:42:09.268Z</time></trkpt><trkpt lat="41.5096886" lon="13.3348912"><ele>371.8333333333333</ele><time>2026-04-04T11:42:10.266Z</time></trkpt><trkpt lat="41.5097175" lon="13.3348113"><ele>368.6666666666667</ele><time>2026-04-04T11:42:11.266Z</time></trkpt><trkpt lat="41.5097479" lon="13.3347213"><ele>365.5</ele><time>2026-04-04T11:42:12.274Z</time></trkpt><trkpt lat="41.509779" lon="13.3346305"><ele>362.33333333333337</ele><time>2026-04-04T11:42:13.268Z</time></trkpt><trkpt lat="41.50981" lon="13.3345256"><ele>359.1666666666667</ele><time>2026-04-04T11:42:14.268Z</time></trkpt><trkpt lat="41.5098375" lon="13.3344199"><ele>356.0</ele><time>2026-04-04T11:42:15.274Z</time></trkpt><trkpt lat="41.5098595" lon="13.3343029"><ele>354.20000000000005</ele><time>2026-04-04T11:42:16.262Z</time></trkpt><trkpt lat="41.5098806" lon="13.3341782"><ele>352.40000000000003</ele><time>2026-04-04T11:42:17.278Z</time></trkpt><trkpt lat="41.5098956" lon="13.3340442"><ele>350.6</ele><time>2026-04-04T11:42:18.26Z</time></trkpt><trkpt lat="41.5098971" lon="13.3339052"><ele>348.8</ele><time>2026-04-04T11:42:19.269Z</time></trkpt><trkpt lat="41.509879" lon="13.3337705"><ele>347.0</ele><time>2026-04-04T11:42:20.269Z</time></trkpt><trkpt lat="41.5098559" lon="13.3336503"><ele>345.0</ele><time>2026-04-04T11:42:21.265Z</time></trkpt><trkpt lat="41.509839" lon="13.3335525"><ele>343.0</ele><time>2026-04-04T11:42:22.272Z</time></trkpt><trkpt lat="41.5098227" lon="13.3334708"><ele>341.0</ele><time>2026-04-04T11:42:23.274Z</time></trkpt><trkpt lat="41.5097704" lon="13.3333167"><ele>339.0</ele><time>2026-04-04T11:42:25.268Z</time></trkpt><trkpt lat="41.5097206" lon="13.3332114"><ele>337.0</ele><time>2026-04-04T11:42:26.267Z</time></trkpt><trkpt lat="41.5096689" lon="13.3330913"><ele>338.5</ele><time>2026-04-04T11:42:27.268Z</time></trkpt><trkpt lat="41.5096091" lon="13.3329602"><ele>340.0</ele><time>2026-04-04T11:42:28.272Z</time></trkpt><trkpt lat="41.5095445" lon="13.3328226"><ele>341.5</ele><time>2026-04-04T11:42:29.27Z</time></trkpt><trkpt lat="41.5094747" lon="13.3326829"><ele>343.0</ele><time>2026-04-04T11:42:30.271Z</time></trkpt><trkpt lat="41.5094049" lon="13.3325388"><ele>343.0</ele><time>2026-04-04T11:42:31.276Z</time></trkpt><trkpt lat="41.5093361" lon="13.3323923"><ele>343.0</ele><time>2026-04-04T11:42:32.272Z</time></trkpt><trkpt lat="41.5092765" lon="13.3322407"><ele>343.0</ele><time>2026-04-04T11:42:33.276Z</time></trkpt><trkpt lat="41.5092272" lon="13.3320891"><ele>343.0</ele><time>2026-04-04T11:42:34.264Z</time></trkpt><trkpt lat="41.5091875" lon="13.3319456"><ele>342.59999999999997</ele><time>2026-04-04T11:42:35.275Z</time></trkpt><trkpt lat="41.5091639" lon="13.3318291"><ele>342.2</ele><time>2026-04-04T11:42:36.281Z</time></trkpt><trkpt lat="41.5091494" lon="13.3317341"><ele>341.8</ele><time>2026-04-04T11:42:37.267Z</time></trkpt><trkpt lat="41.5091016" lon="13.331595"><ele>341.4</ele><time>2026-04-04T11:42:39.277Z</time></trkpt><trkpt lat="41.5090147" lon="13.3314871"><ele>341.0</ele><time>2026-04-04T11:42:41.283Z</time></trkpt><trkpt lat="41.508974" lon="13.3313506"><ele>342.33333333333337</ele><time>2026-04-04T11:42:43.274Z</time></trkpt><trkpt lat="41.5089927" lon="13.3312555"><ele>343.6666666666667</ele><time>2026-04-04T11:42:44.27Z</time></trkpt><trkpt lat="41.5090112" lon="13.3311494"><ele>345.0</ele><time>2026-04-04T11:42:45.268Z</time></trkpt><trkpt lat="41.5090254" lon="13.3310367"><ele>346.3333333333333</ele><time>2026-04-04T11:42:46.271Z</time></trkpt><trkpt lat="41.5090279" lon="13.3309249"><ele>347.66666666666663</ele><time>2026-04-04T11:42:47.269Z</time></trkpt><trkpt lat="41.5090176" lon="13.330822"><ele>349.0</ele><time>2026-04-04T11:42:48.278Z</time></trkpt><trkpt lat="41.5090067" lon="13.3307208"><ele>349.0</ele><time>2026-04-04T11:42:49.263Z</time></trkpt><trkpt lat="41.5090033" lon="13.330617"><ele>349.0</ele><time>2026-04-04T11:42:50.276Z</time></trkpt><trkpt lat="41.5090161" lon="13.3305154"><ele>349.0</ele><time>2026-04-04T11:42:51.268Z</time></trkpt><trkpt lat="41.5090331" lon="13.3304184"><ele>349.0</ele><time>2026-04-04T11:42:52.271Z</time></trkpt><trkpt lat="41.5090609" lon="13.3303162"><ele>349.0</ele><time>2026-04-04T11:42:53.264Z</time></trkpt><trkpt lat="41.5090676" lon="13.3302144"><ele>349.0</ele><time>2026-04-04T11:42:54.264Z</time></trkpt><trkpt lat="41.5090678" lon="13.3301227"><ele>350.16666666666663</ele><time>2026-04-04T11:42:55.283Z</time></trkpt><trkpt lat="41.509069" lon="13.3300298"><ele>351.3333333333333</ele><time>2026-04-04T11:42:56.265Z</time></trkpt><trkpt lat="41.5090956" lon="13.3299355"><ele>352.5</ele><time>2026-04-04T11:42:57.263Z</time></trkpt><trkpt lat="41.5091235" lon="13.329835"><ele>353.6666666666667</ele><time>2026-04-04T11:42:58.276Z</time></trkpt><trkpt lat="41.5091528" lon="13.3297236"><ele>354.83333333333337</ele><time>2026-04-04T11:42:59.26Z</time></trkpt><trkpt lat="41.5091694" lon="13.3295976"><ele>356.0</ele><time>2026-04-04T11:43:00.286Z</time></trkpt><trkpt lat="41.5091843" lon="13.3294732"><ele>356.20000000000005</ele><time>2026-04-04T11:43:01.262Z</time></trkpt><trkpt lat="41.509185" lon="13.3293452"><ele>356.40000000000003</ele><time>2026-04-04T11:43:02.267Z</time></trkpt><trkpt lat="41.5091806" lon="13.3292222"><ele>356.6</ele><time>2026-04-04T11:43:03.264Z</time></trkpt><trkpt lat="41.5091869" lon="13.3290978"><ele>356.8</ele><time>2026-04-04T11:43:04.269Z</time></trkpt><trkpt lat="41.5092098" lon="13.3289785"><ele>357.0</ele><time>2026-04-04T11:43:05.267Z</time></trkpt><trkpt lat="41.5092399" lon="13.3288409"><ele>357.0</ele><time>2026-04-04T11:43:06.286Z</time></trkpt><trkpt lat="41.509268" lon="13.3287021"><ele>357.0</ele><time>2026-04-04T11:43:07.27Z</time></trkpt><trkpt lat="41.5093014" lon="13.3285633"><ele>357.0</ele><time>2026-04-04T11:43:08.268Z</time></trkpt><trkpt lat="41.5093355" lon="13.3284389"><ele>357.0</ele><time>2026-04-04T11:43:09.267Z</time></trkpt><trkpt lat="41.5093641" lon="13.328331"><ele>357.0</ele><time>2026-04-04T11:43:10.271Z</time></trkpt><trkpt lat="41.5093872" lon="13.3282277"><ele>357.0</ele><time>2026-04-04T11:43:11.272Z</time></trkpt><trkpt lat="41.5094017" lon="13.3281223"><ele>357.0</ele><time>2026-04-04T11:43:12.265Z</time></trkpt><trkpt lat="41.5094137" lon="13.3280153"><ele>357.0</ele><time>2026-04-04T11:43:13.269Z</time></trkpt><trkpt lat="41.5094244" lon="13.3279069"><ele>357.0</ele><time>2026-04-04T11:43:14.264Z</time></trkpt><trkpt lat="41.5094322" lon="13.3277981"><ele>357.0</ele><time>2026-04-04T11:43:15.27Z</time></trkpt><trkpt lat="41.5094429" lon="13.3276851"><ele>357.0</ele><time>2026-04-04T11:43:16.265Z</time></trkpt><trkpt lat="41.5094611" lon="13.3275632"><ele>355.8333333333333</ele><time>2026-04-04T11:43:17.27Z</time></trkpt><trkpt lat="41.5094853" lon="13.3274393"><ele>354.6666666666667</ele><time>2026-04-04T11:43:18.267Z</time></trkpt><trkpt lat="41.509511" lon="13.3273203"><ele>353.5</ele><time>2026-04-04T11:43:19.269Z</time></trkpt><trkpt lat="41.5095351" lon="13.3272078"><ele>352.33333333333337</ele><time>2026-04-04T11:43:20.262Z</time></trkpt><trkpt lat="41.5095583" lon="13.3271041"><ele>351.1666666666667</ele><time>2026-04-04T11:43:21.274Z</time></trkpt><trkpt lat="41.5095836" lon="13.3269992"><ele>350.0</ele><time>2026-04-04T11:43:22.264Z</time></trkpt><trkpt lat="41.5096135" lon="13.326894"><ele>347.5</ele><time>2026-04-04T11:43:23.265Z</time></trkpt><trkpt lat="41.5096414" lon="13.3267872"><ele>345.0</ele><time>2026-04-04T11:43:24.269Z</time></trkpt><trkpt lat="41.5096654" lon="13.3266802"><ele>342.5</ele><time>2026-04-04T11:43:25.268Z</time></trkpt><trkpt lat="41.5096835" lon="13.3265758"><ele>340.0</ele><time>2026-04-04T11:43:26.274Z</time></trkpt><trkpt lat="41.5096939" lon="13.3264729"><ele>337.5</ele><time>2026-04-04T11:43:27.264Z</time></trkpt><trkpt lat="41.5096936" lon="13.3263605"><ele>335.0</ele><time>2026-04-04T11:43:28.269Z</time></trkpt><trkpt lat="41.5096932" lon="13.3262503"><ele>333.1428571428571</ele><time>2026-04-04T11:43:29.261Z</time></trkpt><trkpt lat="41.5097084" lon="13.3261463"><ele>331.2857142857143</ele><time>2026-04-04T11:43:30.27Z</time></trkpt><trkpt lat="41.5097238" lon="13.3260553"><ele>329.42857142857144</ele><time>2026-04-04T11:43:31.266Z</time></trkpt><trkpt lat="41.5097519" lon="13.3259732"><ele>327.57142857142856</ele><time>2026-04-04T11:43:32.274Z</time></trkpt><trkpt lat="41.509745" lon="13.3258743"><ele>325.7142857142857</ele><time>2026-04-04T11:43:33.281Z</time></trkpt><trkpt lat="41.5097253" lon="13.3257766"><ele>323.85714285714283</ele><time>2026-04-04T11:43:34.267Z</time></trkpt><trkpt lat="41.5097035" lon="13.3256879"><ele>322.0</ele><time>2026-04-04T11:43:35.286Z</time></trkpt><trkpt lat="41.5096846" lon="13.325569"><ele>319.8333333333333</ele><time>2026-04-04T11:43:37.269Z</time></trkpt><trkpt lat="41.5097376" lon="13.3254759"><ele>317.66666666666663</ele><time>2026-04-04T11:43:40.264Z</time></trkpt><trkpt lat="41.5098039" lon="13.3254"><ele>315.5</ele><time>2026-04-04T11:43:42.261Z</time></trkpt><trkpt lat="41.5098379" lon="13.3252373"><ele>313.3333333333333</ele><time>2026-04-04T11:43:44.294Z</time></trkpt><trkpt lat="41.5098405" lon="13.3251414"><ele>311.1666666666667</ele><time>2026-04-04T11:43:45.264Z</time></trkpt><trkpt lat="41.5098373" lon="13.3250412"><ele>309.0</ele><time>2026-04-04T11:43:46.261Z</time></trkpt><trkpt lat="41.5098354" lon="13.3249275"><ele>309.0</ele><time>2026-04-04T11:43:47.264Z</time></trkpt><trkpt lat="41.5098321" lon="13.3248154"><ele>309.0</ele><time>2026-04-04T11:43:48.262Z</time></trkpt><trkpt lat="41.5098415" lon="13.3246987"><ele>309.0</ele><time>2026-04-04T11:43:49.276Z</time></trkpt><trkpt lat="41.509857" lon="13.3245851"><ele>309.0</ele><time>2026-04-04T11:43:50.262Z</time></trkpt><trkpt lat="41.5098723" lon="13.3244743"><ele>309.0</ele><time>2026-04-04T11:43:51.267Z</time></trkpt><trkpt lat="41.5098886" lon="13.3243552"><ele>309.0</ele><time>2026-04-04T11:43:52.261Z</time></trkpt><trkpt lat="41.509907" lon="13.324228"><ele>307.0</ele><time>2026-04-04T11:43:53.268Z</time></trkpt><trkpt lat="41.5099251" lon="13.3240974"><ele>305.0</ele><time>2026-04-04T11:43:54.26Z</time></trkpt><trkpt lat="41.5099513" lon="13.3239629"><ele>303.0</ele><time>2026-04-04T11:43:55.267Z</time></trkpt><trkpt lat="41.5099741" lon="13.3238141"><ele>301.0</ele><time>2026-04-04T11:43:56.26Z</time></trkpt><trkpt lat="41.5099932" lon="13.3236769"><ele>299.0</ele><time>2026-04-04T11:43:57.264Z</time></trkpt><trkpt lat="41.5100085" lon="13.3235504"><ele>297.6666666666667</ele><time>2026-04-04T11:43:58.266Z</time></trkpt><trkpt lat="41.510023" lon="13.3234366"><ele>296.33333333333337</ele><time>2026-04-04T11:43:59.27Z</time></trkpt><trkpt lat="41.5100339" lon="13.3233299"><ele>295.0</ele><time>2026-04-04T11:44:00.272Z</time></trkpt><trkpt lat="41.5100403" lon="13.3232265"><ele>293.6666666666667</ele><time>2026-04-04T11:44:01.272Z</time></trkpt><trkpt lat="41.5100475" lon="13.323129"><ele>292.3333333333333</ele><time>2026-04-04T11:44:02.275Z</time></trkpt><trkpt lat="41.5100566" lon="13.3230303"><ele>291.0</ele><time>2026-04-04T11:44:03.263Z</time></trkpt><trkpt lat="41.5100646" lon="13.3229321"><ele>289.8333333333333</ele><time>2026-04-04T11:44:04.271Z</time></trkpt><trkpt lat="41.5100669" lon="13.3228366"><ele>288.6666666666667</ele><time>2026-04-04T11:44:05.263Z</time></trkpt><trkpt lat="41.5100675" lon="13.3227408"><ele>287.5</ele><time>2026-04-04T11:44:06.268Z</time></trkpt><trkpt lat="41.5100687" lon="13.3226432"><ele>286.33333333333337</ele><time>2026-04-04T11:44:07.268Z</time></trkpt><trkpt lat="41.5100657" lon="13.322546"><ele>285.1666666666667</ele><time>2026-04-04T11:44:08.28Z</time></trkpt><trkpt lat="41.5100672" lon="13.3224531"><ele>284.0</ele><time>2026-04-04T11:44:09.267Z</time></trkpt><trkpt lat="41.5100343" lon="13.3223221"><ele>284.0</ele><time>2026-04-04T11:44:11.276Z</time></trkpt><trkpt lat="41.5099837" lon="13.322266"><ele>284.0</ele><time>2026-04-04T11:44:12.267Z</time></trkpt><trkpt lat="41.5099264" lon="13.322214"><ele>284.0</ele><time>2026-04-04T11:44:13.288Z</time></trkpt><trkpt lat="41.5098757" lon="13.3221549"><ele>284.0</ele><time>2026-04-04T11:44:14.267Z</time></trkpt><trkpt lat="41.5098009" lon="13.3220378"><ele>284.0</ele><time>2026-04-04T11:44:16.269Z</time></trkpt><trkpt lat="41.5097176" lon="13.3219294"><ele>284.0</ele><time>2026-04-04T11:44:18.264Z</time></trkpt><trkpt lat="41.5096647" lon="13.3218735"><ele>282.83333333333337</ele><time>2026-04-04T11:44:19.261Z</time></trkpt><trkpt lat="41.5095867" lon="13.3218146"><ele>281.6666666666667</ele><time>2026-04-04T11:44:21.267Z</time></trkpt><trkpt lat="41.5095632" lon="13.3217105"><ele>280.5</ele><time>2026-04-04T11:44:24.27Z</time></trkpt><trkpt lat="41.5095849" lon="13.3215662"><ele>279.3333333333333</ele><time>2026-04-04T11:44:26.276Z</time></trkpt><trkpt lat="41.5095923" lon="13.3214731"><ele>278.16666666666663</ele><time>2026-04-04T11:44:27.267Z</time></trkpt><trkpt lat="41.5095968" lon="13.3213716"><ele>277.0</ele><time>2026-04-04T11:44:28.276Z</time></trkpt><trkpt lat="41.509607" lon="13.3212611"><ele>276.16666666666663</ele><time>2026-04-04T11:44:29.268Z</time></trkpt><trkpt lat="41.5096239" lon="13.3211432"><ele>275.3333333333333</ele><time>2026-04-04T11:44:30.279Z</time></trkpt><trkpt lat="41.5096415" lon="13.3210187"><ele>274.5</ele><time>2026-04-04T11:44:31.276Z</time></trkpt><trkpt lat="41.5096582" lon="13.3209033"><ele>273.6666666666667</ele><time>2026-04-04T11:44:32.273Z</time></trkpt><trkpt lat="41.5096739" lon="13.3207919"><ele>272.83333333333337</ele><time>2026-04-04T11:44:33.263Z</time></trkpt><trkpt lat="41.5096914" lon="13.3206868"><ele>272.0</ele><time>2026-04-04T11:44:34.271Z</time></trkpt><trkpt lat="41.509715" lon="13.3205712"><ele>271.25</ele><time>2026-04-04T11:44:35.266Z</time></trkpt><trkpt lat="41.5097309" lon="13.3204291"><ele>270.5</ele><time>2026-04-04T11:44:36.27Z</time></trkpt><trkpt lat="41.5097485" lon="13.3202441"><ele>269.75</ele><time>2026-04-04T11:44:37.272Z</time></trkpt><trkpt lat="41.5097639" lon="13.320061"><ele>269.0</ele><time>2026-04-04T11:44:38.268Z</time></trkpt><trkpt lat="41.5097904" lon="13.319892"><ele>269.0</ele><time>2026-04-04T11:44:39.264Z</time></trkpt><trkpt lat="41.5098159" lon="13.3197419"><ele>269.0</ele><time>2026-04-04T11:44:40.265Z</time></trkpt><trkpt lat="41.5098455" lon="13.3196081"><ele>269.0</ele><time>2026-04-04T11:44:41.261Z</time></trkpt><trkpt lat="41.5098732" lon="13.3194837"><ele>269.0</ele><time>2026-04-04T11:44:42.282Z</time></trkpt><trkpt lat="41.5099021" lon="13.3193562"><ele>269.0</ele><time>2026-04-04T11:44:43.267Z</time></trkpt><trkpt lat="41.5099332" lon="13.3192383"><ele>268.5</ele><time>2026-04-04T11:44:44.265Z</time></trkpt><trkpt lat="41.5099577" lon="13.3191354"><ele>268.0</ele><time>2026-04-04T11:44:45.264Z</time></trkpt><trkpt lat="41.5099872" lon="13.3190502"><ele>267.5</ele><time>2026-04-04T11:44:46.262Z</time></trkpt><trkpt lat="41.5100475" lon="13.3189652"><ele>267.0</ele><time>2026-04-04T11:44:47.263Z</time></trkpt><trkpt lat="41.5101071" lon="13.3188841"><ele>266.5</ele><time>2026-04-04T11:44:48.263Z</time></trkpt><trkpt lat="41.5101638" lon="13.3187871"><ele>266.0</ele><time>2026-04-04T11:44:49.267Z</time></trkpt><trkpt lat="41.5102141" lon="13.3186708"><ele>263.5</ele><time>2026-04-04T11:44:50.269Z</time></trkpt><trkpt lat="41.5102653" lon="13.3185466"><ele>261.0</ele><time>2026-04-04T11:44:51.268Z</time></trkpt><trkpt lat="41.5103103" lon="13.3184086"><ele>258.5</ele><time>2026-04-04T11:44:52.261Z</time></trkpt><trkpt lat="41.5103585" lon="13.3182618"><ele>256.0</ele><time>2026-04-04T11:44:53.263Z</time></trkpt><trkpt lat="41.5103928" lon="13.3181163"><ele>251.0</ele><time>2026-04-04T11:44:54.265Z</time></trkpt><trkpt lat="41.5104257" lon="13.3179809"><ele>246.00000000000003</ele><time>2026-04-04T11:44:55.266Z</time></trkpt><trkpt lat="41.5104533" lon="13.3178417"><ele>241.00000000000003</ele><time>2026-04-04T11:44:56.267Z</time></trkpt><trkpt lat="41.5104798" lon="13.317696"><ele>236.0</ele><time>2026-04-04T11:44:57.263Z</time></trkpt><trkpt lat="41.5105066" lon="13.3175592"><ele>231.0</ele><time>2026-04-04T11:44:58.266Z</time></trkpt><trkpt lat="41.5105316" lon="13.31744"><ele>231.0</ele><time>2026-04-04T11:44:59.264Z</time></trkpt><trkpt lat="41.5105603" lon="13.3173243"><ele>231.0</ele><time>2026-04-04T11:45:00.266Z</time></trkpt><trkpt lat="41.5105929" lon="13.3172112"><ele>231.0</ele><time>2026-04-04T11:45:01.26Z</time></trkpt><trkpt lat="41.5106293" lon="13.3170966"><ele>231.0</ele><time>2026-04-04T11:45:02.264Z</time></trkpt><trkpt lat="41.5106815" lon="13.3169929"><ele>231.0</ele><time>2026-04-04T11:45:03.265Z</time></trkpt><trkpt lat="41.5107323" lon="13.31692"><ele>231.0</ele><time>2026-04-04T11:45:04.264Z</time></trkpt><trkpt lat="41.510816" lon="13.3168511"><ele>228.60000000000002</ele><time>2026-04-04T11:45:06.267Z</time></trkpt><trkpt lat="41.5108956" lon="13.3167738"><ele>226.20000000000002</ele><time>2026-04-04T11:45:08.277Z</time></trkpt><trkpt lat="41.5109658" lon="13.3166159"><ele>223.79999999999998</ele><time>2026-04-04T11:45:10.266Z</time></trkpt><trkpt lat="41.5109951" lon="13.316533"><ele>221.39999999999998</ele><time>2026-04-04T11:45:11.271Z</time></trkpt><trkpt lat="41.5110197" lon="13.3163698"><ele>219.0</ele><time>2026-04-04T11:45:13.266Z</time></trkpt><trkpt lat="41.5110127" lon="13.3162788"><ele>217.0</ele><time>2026-04-04T11:45:14.274Z</time></trkpt><trkpt lat="41.5110027" lon="13.3161619"><ele>215.0</ele><time>2026-04-04T11:45:15.266Z</time></trkpt><trkpt lat="41.5109976" lon="13.3160563"><ele>213.0</ele><time>2026-04-04T11:45:16.26Z</time></trkpt><trkpt lat="41.5109989" lon="13.3159596"><ele>211.0</ele><time>2026-04-04T11:45:17.265Z</time></trkpt><trkpt lat="41.5110062" lon="13.3158737"><ele>209.0</ele><time>2026-04-04T11:45:18.266Z</time></trkpt><trkpt lat="41.5110047" lon="13.3157894"><ele>207.0</ele><time>2026-04-04T11:45:19.276Z</time></trkpt><trkpt lat="41.5110073" lon="13.3156961"><ele>205.0</ele><time>2026-04-04T11:45:20.26Z</time></trkpt><trkpt lat="41.5110053" lon="13.3156069"><ele>202.66666666666666</ele><time>2026-04-04T11:45:21.268Z</time></trkpt><trkpt lat="41.5110061" lon="13.3154647"><ele>200.33333333333331</ele><time>2026-04-04T11:45:23.266Z</time></trkpt><trkpt lat="41.5110827" lon="13.3153914"><ele>198.0</ele><time>2026-04-04T11:45:26.263Z</time></trkpt><trkpt lat="41.5111593" lon="13.3153689"><ele>195.66666666666666</ele><time>2026-04-04T11:45:27.265Z</time></trkpt><trkpt lat="41.5112341" lon="13.3153366"><ele>193.33333333333331</ele><time>2026-04-04T11:45:28.267Z</time></trkpt><trkpt lat="41.5113115" lon="13.315301"><ele>191.0</ele><time>2026-04-04T11:45:29.264Z</time></trkpt><trkpt lat="41.5113763" lon="13.3152553"><ele>189.5</ele><time>2026-04-04T11:45:30.263Z</time></trkpt><trkpt lat="41.5114296" lon="13.3152087"><ele>188.0</ele><time>2026-04-04T11:45:31.261Z</time></trkpt><trkpt lat="41.5115254" lon="13.3151024"><ele>186.5</ele><time>2026-04-04T11:45:33.271Z</time></trkpt><trkpt lat="41.5115763" lon="13.3150462"><ele>185.0</ele><time>2026-04-04T11:45:34.269Z</time></trkpt><trkpt lat="41.5116391" lon="13.3150012"><ele>183.5</ele><time>2026-04-04T11:45:35.276Z</time></trkpt><trkpt lat="41.5116973" lon="13.3149567"><ele>182.0</ele><time>2026-04-04T11:45:36.266Z</time></trkpt><trkpt lat="41.5117563" lon="13.3149118"><ele>182.0</ele><time>2026-04-04T11:45:37.267Z</time></trkpt><trkpt lat="41.5118032" lon="13.3148525"><ele>182.0</ele><time>2026-04-04T11:45:38.278Z</time></trkpt><trkpt lat="41.5118393" lon="13.3147792"><ele>182.0</ele><time>2026-04-04T11:45:39.275Z</time></trkpt><trkpt lat="41.5119254" lon="13.3146564"><ele>182.0</ele><time>2026-04-04T11:45:41.265Z</time></trkpt><trkpt lat="41.5120235" lon="13.3145356"><ele>182.0</ele><time>2026-04-04T11:45:43.263Z</time></trkpt><trkpt lat="41.5120906" lon="13.314468"><ele>180.0</ele><time>2026-04-04T11:45:44.271Z</time></trkpt><trkpt lat="41.512142" lon="13.3144188"><ele>178.0</ele><time>2026-04-04T11:45:45.273Z</time></trkpt><trkpt lat="41.5121952" lon="13.3143712"><ele>176.0</ele><time>2026-04-04T11:45:46.276Z</time></trkpt><trkpt lat="41.5122509" lon="13.3143284"><ele>174.0</ele><time>2026-04-04T11:45:47.268Z</time></trkpt><trkpt lat="41.5123341" lon="13.314273"><ele>172.0</ele><time>2026-04-04T11:45:49.272Z</time></trkpt><trkpt lat="41.5124219" lon="13.3142176"><ele>170.0</ele><time>2026-04-04T11:45:51.266Z</time></trkpt><trkpt lat="41.5124914" lon="13.3141498"><ele>170.0</ele><time>2026-04-04T11:45:53.264Z</time></trkpt><trkpt lat="41.5124497" lon="13.3140301"><ele>170.0</ele><time>2026-04-04T11:45:55.269Z</time></trkpt><trkpt lat="41.5124168" lon="13.3139551"><ele>170.0</ele><time>2026-04-04T11:45:56.26Z</time></trkpt><trkpt lat="41.5123631" lon="13.313882"><ele>170.0</ele><time>2026-04-04T11:45:57.263Z</time></trkpt><trkpt lat="41.5123146" lon="13.3138029"><ele>170.0</ele><time>2026-04-04T11:45:58.262Z</time></trkpt><trkpt lat="41.5122658" lon="13.3137191"><ele>170.0</ele><time>2026-04-04T11:45:59.265Z</time></trkpt><trkpt lat="41.5122214" lon="13.3136328"><ele>169.71428571428572</ele><time>2026-04-04T11:46:00.264Z</time></trkpt><trkpt lat="41.5121871" lon="13.3135444"><ele>169.42857142857142</ele><time>2026-04-04T11:46:01.267Z</time></trkpt><trkpt lat="41.5121651" lon="13.3134574"><ele>169.14285714285714</ele><time>2026-04-04T11:46:02.28Z</time></trkpt><trkpt lat="41.5121553" lon="13.3133665"><ele>168.85714285714286</ele><time>2026-04-04T11:46:03.266Z</time></trkpt><trkpt lat="41.5121534" lon="13.3132767"><ele>168.57142857142856</ele><time>2026-04-04T11:46:04.264Z</time></trkpt><trkpt lat="41.512154" lon="13.3131886"><ele>168.28571428571428</ele><time>2026-04-04T11:46:05.263Z</time></trkpt><trkpt lat="41.5121576" lon="13.3131046"><ele>168.0</ele><time>2026-04-04T11:46:06.267Z</time></trkpt><trkpt lat="41.5121697" lon="13.3129498"><ele>168.0</ele><time>2026-04-04T11:46:08.279Z</time></trkpt><trkpt lat="41.512183" lon="13.3128669"><ele>168.0</ele><time>2026-04-04T11:46:09.273Z</time></trkpt><trkpt lat="41.5122012" lon="13.3127813"><ele>168.0</ele><time>2026-04-04T11:46:10.282Z</time></trkpt><trkpt lat="41.5122188" lon="13.3126955"><ele>168.0</ele><time>2026-04-04T11:46:11.264Z</time></trkpt><trkpt lat="41.5122415" lon="13.3126135"><ele>168.0</ele><time>2026-04-04T11:46:12.267Z</time></trkpt><trkpt lat="41.5122822" lon="13.312483"><ele>168.0</ele><time>2026-04-04T11:46:14.266Z</time></trkpt><trkpt lat="41.5123238" lon="13.3123649"><ele>168.0</ele><time>2026-04-04T11:46:16.267Z</time></trkpt><trkpt lat="41.5123499" lon="13.3122823"><ele>168.0</ele><time>2026-04-04T11:46:18.271Z</time></trkpt><trkpt lat="41.5123308" lon="13.3121558"><ele>168.0</ele><time>2026-04-04T11:46:22.267Z</time></trkpt><trkpt lat="41.5122385" lon="13.3120334"><ele>168.0</ele><time>2026-04-04T11:46:24.265Z</time></trkpt><trkpt lat="41.5121686" lon="13.3119751"><ele>168.0</ele><time>2026-04-04T11:46:25.266Z</time></trkpt><trkpt lat="41.5120789" lon="13.3119148"><ele>167.0</ele><time>2026-04-04T11:46:26.26Z</time></trkpt><trkpt lat="41.5119838" lon="13.3118591"><ele>166.0</ele><time>2026-04-04T11:46:27.268Z</time></trkpt><trkpt lat="41.5118827" lon="13.3118054"><ele>165.0</ele><time>2026-04-04T11:46:28.269Z</time></trkpt><trkpt lat="41.5117742" lon="13.3117482"><ele>164.0</ele><time>2026-04-04T11:46:29.276Z</time></trkpt><trkpt lat="41.5114199" lon="13.3115539"><ele>164.0</ele><time>2026-04-04T11:46:32.275Z</time></trkpt><trkpt lat="41.5112964" lon="13.3114775"><ele>164.0</ele><time>2026-04-04T11:46:33.267Z</time></trkpt><trkpt lat="41.510928" lon="13.311137"><ele>162.0</ele><time>2026-04-04T11:46:36.266Z</time></trkpt><trkpt lat="41.5108034" lon="13.311007"><ele>160.0</ele><time>2026-04-04T11:46:37.266Z</time></trkpt><trkpt lat="41.5105437" lon="13.3107362"><ele>153.0</ele><time>2026-04-04T11:46:39.269Z</time></trkpt><trkpt lat="41.5100269" lon="13.3102189"><ele>153.0</ele><time>2026-04-04T11:46:43.264Z</time></trkpt><trkpt lat="41.5098926" lon="13.310084"><ele>153.0</ele><time>2026-04-04T11:46:44.262Z</time></trkpt><trkpt lat="41.5097623" lon="13.3099538"><ele>153.0</ele><time>2026-04-04T11:46:45.268Z</time></trkpt><trkpt lat="41.5096376" lon="13.3098303"><ele>150.5</ele><time>2026-04-04T11:46:46.262Z</time></trkpt><trkpt lat="41.5095187" lon="13.3097144"><ele>148.0</ele><time>2026-04-04T11:46:47.266Z</time></trkpt><trkpt lat="41.509408" lon="13.3096057"><ele>145.5</ele><time>2026-04-04T11:46:48.273Z</time></trkpt><trkpt lat="41.5093095" lon="13.309511"><ele>143.0</ele><time>2026-04-04T11:46:49.269Z</time></trkpt><trkpt lat="41.5092198" lon="13.3094351"><ele>143.0</ele><time>2026-04-04T11:46:50.264Z</time></trkpt><trkpt lat="41.5091308" lon="13.3093893"><ele>143.0</ele><time>2026-04-04T11:46:51.268Z</time></trkpt><trkpt lat="41.5090378" lon="13.3093839"><ele>143.0</ele><time>2026-04-04T11:46:52.26Z</time></trkpt><trkpt lat="41.5089488" lon="13.3094219"><ele>143.0</ele><time>2026-04-04T11:46:53.271Z</time></trkpt><trkpt lat="41.5088736" lon="13.3094946"><ele>143.0</ele><time>2026-04-04T11:46:54.266Z</time></trkpt><trkpt lat="41.5088131" lon="13.3095935"><ele>143.0</ele><time>2026-04-04T11:46:55.269Z</time></trkpt><trkpt lat="41.5087699" lon="13.3097193"><ele>143.0</ele><time>2026-04-04T11:46:56.266Z</time></trkpt><trkpt lat="41.5087508" lon="13.3098644"><ele>143.0</ele><time>2026-04-04T11:46:57.264Z</time></trkpt><trkpt lat="41.5087566" lon="13.3100188"><ele>143.0</ele><time>2026-04-04T11:46:58.266Z</time></trkpt><trkpt lat="41.5087863" lon="13.3101737"><ele>143.0</ele><time>2026-04-04T11:46:59.266Z</time></trkpt><trkpt lat="41.5088374" lon="13.310324"><ele>143.75</ele><time>2026-04-04T11:47:00.272Z</time></trkpt><trkpt lat="41.5089063" lon="13.3104667"><ele>144.5</ele><time>2026-04-04T11:47:01.268Z</time></trkpt><trkpt lat="41.5089903" lon="13.3106026"><ele>145.25</ele><time>2026-04-04T11:47:02.268Z</time></trkpt><trkpt lat="41.5090903" lon="13.3107324"><ele>146.0</ele><time>2026-04-04T11:47:03.26Z</time></trkpt><trkpt lat="41.5091953" lon="13.3108495"><ele>144.0</ele><time>2026-04-04T11:47:04.263Z</time></trkpt><trkpt lat="41.5092909" lon="13.3109589"><ele>142.0</ele><time>2026-04-04T11:47:05.258Z</time></trkpt><trkpt lat="41.5093856" lon="13.3110698"><ele>140.0</ele><time>2026-04-04T11:47:06.261Z</time></trkpt><trkpt lat="41.5094718" lon="13.3111823"><ele>138.0</ele><time>2026-04-04T11:47:07.263Z</time></trkpt><trkpt lat="41.5095413" lon="13.3112943"><ele>138.6</ele><time>2026-04-04T11:47:08.261Z</time></trkpt><trkpt lat="41.5095887" lon="13.3114167"><ele>139.20000000000002</ele><time>2026-04-04T11:47:09.266Z</time></trkpt><trkpt lat="41.5096036" lon="13.3115421"><ele>139.8</ele><time>2026-04-04T11:47:10.271Z</time></trkpt><trkpt lat="41.5095819" lon="13.3116639"><ele>140.4</ele><time>2026-04-04T11:47:11.268Z</time></trkpt><trkpt lat="41.5095341" lon="13.3117727"><ele>141.0</ele><time>2026-04-04T11:47:12.265Z</time></trkpt><trkpt lat="41.509466" lon="13.3118594"><ele>139.0</ele><time>2026-04-04T11:47:13.26Z</time></trkpt><trkpt lat="41.5093787" lon="13.3119131"><ele>137.0</ele><time>2026-04-04T11:47:14.269Z</time></trkpt><trkpt lat="41.5092811" lon="13.3119312"><ele>135.0</ele><time>2026-04-04T11:47:15.261Z</time></trkpt><trkpt lat="41.5091775" lon="13.3119233"><ele>133.0</ele><time>2026-04-04T11:47:16.276Z</time></trkpt><trkpt lat="41.5090647" lon="13.3119049"><ele>131.0</ele><time>2026-04-04T11:47:17.265Z</time></trkpt><trkpt lat="41.5089467" lon="13.3118879"><ele>131.0</ele><time>2026-04-04T11:47:18.268Z</time></trkpt><trkpt lat="41.5088278" lon="13.311879"><ele>131.0</ele><time>2026-04-04T11:47:19.266Z</time></trkpt><trkpt lat="41.5087036" lon="13.3118699"><ele>131.0</ele><time>2026-04-04T11:47:20.269Z</time></trkpt><trkpt lat="41.5085722" lon="13.3118681"><ele>131.0</ele><time>2026-04-04T11:47:21.271Z</time></trkpt><trkpt lat="41.5084289" lon="13.3118682"><ele>129.33333333333331</ele><time>2026-04-04T11:47:22.273Z</time></trkpt><trkpt lat="41.5082732" lon="13.3118677"><ele>127.66666666666666</ele><time>2026-04-04T11:47:23.265Z</time></trkpt><trkpt lat="41.508111" lon="13.3118613"><ele>126.0</ele><time>2026-04-04T11:47:24.266Z</time></trkpt><trkpt lat="41.507955" lon="13.311852"><ele>125.75</ele><time>2026-04-04T11:47:25.268Z</time></trkpt><trkpt lat="41.50781" lon="13.311821"><ele>125.5</ele><time>2026-04-04T11:47:26.268Z</time></trkpt><trkpt lat="41.5076771" lon="13.3117508"><ele>125.25</ele><time>2026-04-04T11:47:27.271Z</time></trkpt><trkpt lat="41.5075703" lon="13.3116748"><ele>125.0</ele><time>2026-04-04T11:47:28.27Z</time></trkpt><trkpt lat="41.5074781" lon="13.311593"><ele>125.0</ele><time>2026-04-04T11:47:29.27Z</time></trkpt><trkpt lat="41.5073882" lon="13.3115155"><ele>125.0</ele><time>2026-04-04T11:47:30.27Z</time></trkpt><trkpt lat="41.5072936" lon="13.3114387"><ele>125.0</ele><time>2026-04-04T11:47:31.268Z</time></trkpt><trkpt lat="41.5071876" lon="13.3113683"><ele>125.0</ele><time>2026-04-04T11:47:32.265Z</time></trkpt><trkpt lat="41.5070752" lon="13.3112842"><ele>124.4</ele><time>2026-04-04T11:47:33.269Z</time></trkpt><trkpt lat="41.5069777" lon="13.311199"><ele>123.8</ele><time>2026-04-04T11:47:34.268Z</time></trkpt><trkpt lat="41.5068952" lon="13.311132"><ele>123.19999999999999</ele><time>2026-04-04T11:47:35.261Z</time></trkpt><trkpt lat="41.5068243" lon="13.3110852"><ele>122.6</ele><time>2026-04-04T11:47:36.279Z</time></trkpt><trkpt lat="41.5067363" lon="13.3110455"><ele>122.0</ele><time>2026-04-04T11:47:38.266Z</time></trkpt><trkpt lat="41.5066222" lon="13.3110237"><ele>122.0</ele><time>2026-04-04T11:47:43.273Z</time></trkpt><trkpt lat="41.5065233" lon="13.3110232"><ele>121.99999999999999</ele><time>2026-04-04T11:47:46.263Z</time></trkpt><trkpt lat="41.5064063" lon="13.3110368"><ele>121.99999999999999</ele><time>2026-04-04T11:47:48.267Z</time></trkpt><trkpt lat="41.5063229" lon="13.3110475"><ele>122.0</ele><time>2026-04-04T11:47:49.287Z</time></trkpt><trkpt lat="41.5062246" lon="13.3110609"><ele>122.0</ele><time>2026-04-04T11:47:50.261Z</time></trkpt><trkpt lat="41.5061148" lon="13.3110757"><ele>122.0</ele><time>2026-04-04T11:47:51.266Z</time></trkpt><trkpt lat="41.5059982" lon="13.3110939"><ele>122.0</ele><time>2026-04-04T11:47:52.263Z</time></trkpt><trkpt lat="41.5058695" lon="13.3111221"><ele>122.0</ele><time>2026-04-04T11:47:53.27Z</time></trkpt><trkpt lat="41.5057362" lon="13.3111681"><ele>122.0</ele><time>2026-04-04T11:47:54.264Z</time></trkpt><trkpt lat="41.5056021" lon="13.3112233"><ele>122.0</ele><time>2026-04-04T11:47:55.282Z</time></trkpt><trkpt lat="41.5054722" lon="13.3112868"><ele>122.0</ele><time>2026-04-04T11:47:56.268Z</time></trkpt><trkpt lat="41.5053476" lon="13.3113462"><ele>122.0</ele><time>2026-04-04T11:47:57.275Z</time></trkpt><trkpt lat="41.5052301" lon="13.3114051"><ele>122.0</ele><time>2026-04-04T11:47:58.271Z</time></trkpt><trkpt lat="41.5051214" lon="13.3114578"><ele>120.8</ele><time>2026-04-04T11:47:59.267Z</time></trkpt><trkpt lat="41.5050218" lon="13.3115027"><ele>119.6</ele><time>2026-04-04T11:48:00.279Z</time></trkpt><trkpt lat="41.5049286" lon="13.3115374"><ele>118.39999999999999</ele><time>2026-04-04T11:48:01.267Z</time></trkpt><trkpt lat="41.5048315" lon="13.3115625"><ele>117.19999999999999</ele><time>2026-04-04T11:48:02.268Z</time></trkpt><trkpt lat="41.5047322" lon="13.3115744"><ele>116.0</ele><time>2026-04-04T11:48:03.271Z</time></trkpt><trkpt lat="41.5046279" lon="13.3115746"><ele>115.0</ele><time>2026-04-04T11:48:04.268Z</time></trkpt><trkpt lat="41.5045189" lon="13.31157"><ele>114.0</ele><time>2026-04-04T11:48:05.271Z</time></trkpt><trkpt lat="41.5044072" lon="13.3115655"><ele>113.0</ele><time>2026-04-04T11:48:06.267Z</time></trkpt><trkpt lat="41.5042992" lon="13.3115683"><ele>112.0</ele><time>2026-04-04T11:48:07.263Z</time></trkpt><trkpt lat="41.5041898" lon="13.3115863"><ele>111.0</ele><time>2026-04-04T11:48:08.271Z</time></trkpt><trkpt lat="41.5040786" lon="13.3116175"><ele>111.0</ele><time>2026-04-04T11:48:09.271Z</time></trkpt><trkpt lat="41.5039668" lon="13.3116454"><ele>111.0</ele><time>2026-04-04T11:48:10.266Z</time></trkpt><trkpt lat="41.5038571" lon="13.3116547"><ele>111.0</ele><time>2026-04-04T11:48:11.275Z</time></trkpt><trkpt lat="41.5037466" lon="13.311639"><ele>111.0</ele><time>2026-04-04T11:48:12.263Z</time></trkpt><trkpt lat="41.503633" lon="13.3116036"><ele>111.25</ele><time>2026-04-04T11:48:13.268Z</time></trkpt><trkpt lat="41.5035096" lon="13.3115578"><ele>111.5</ele><time>2026-04-04T11:48:14.268Z</time></trkpt><trkpt lat="41.503382" lon="13.311521"><ele>111.75</ele><time>2026-04-04T11:48:15.262Z</time></trkpt><trkpt lat="41.5032569" lon="13.3114913"><ele>112.0</ele><time>2026-04-04T11:48:16.27Z</time></trkpt><trkpt lat="41.5031276" lon="13.3114739"><ele>112.0</ele><time>2026-04-04T11:48:17.263Z</time></trkpt><trkpt lat="41.502998" lon="13.3114732"><ele>112.0</ele><time>2026-04-04T11:48:18.272Z</time></trkpt><trkpt lat="41.5028706" lon="13.3114899"><ele>112.0</ele><time>2026-04-04T11:48:19.263Z</time></trkpt><trkpt lat="41.5027458" lon="13.3115285"><ele>112.0</ele><time>2026-04-04T11:48:20.266Z</time></trkpt><trkpt lat="41.502621" lon="13.3115762"><ele>110.75</ele><time>2026-04-04T11:48:21.262Z</time></trkpt><trkpt lat="41.5024943" lon="13.3116297"><ele>109.5</ele><time>2026-04-04T11:48:22.264Z</time></trkpt><trkpt lat="41.5023666" lon="13.3116845"><ele>108.25</ele><time>2026-04-04T11:48:23.265Z</time></trkpt><trkpt lat="41.5022439" lon="13.3117458"><ele>107.0</ele><time>2026-04-04T11:48:24.263Z</time></trkpt><trkpt lat="41.5021205" lon="13.3118234"><ele>105.0</ele><time>2026-04-04T11:48:25.264Z</time></trkpt><trkpt lat="41.5020028" lon="13.3118924"><ele>103.0</ele><time>2026-04-04T11:48:26.265Z</time></trkpt><trkpt lat="41.5018882" lon="13.3119518"><ele>101.0</ele><time>2026-04-04T11:48:27.272Z</time></trkpt><trkpt lat="41.5017636" lon="13.3119968"><ele>99.0</ele><time>2026-04-04T11:48:28.266Z</time></trkpt><trkpt lat="41.5016319" lon="13.3120315"><ele>99.0</ele><time>2026-04-04T11:48:29.279Z</time></trkpt><trkpt lat="41.5014913" lon="13.3120583"><ele>99.0</ele><time>2026-04-04T11:48:30.27Z</time></trkpt><trkpt lat="41.5013437" lon="13.3120739"><ele>99.0</ele><time>2026-04-04T11:48:31.272Z</time></trkpt><trkpt lat="41.5011893" lon="13.3120745"><ele>99.0</ele><time>2026-04-04T11:48:32.269Z</time></trkpt><trkpt lat="41.5010384" lon="13.3120698"><ele>98.75</ele><time>2026-04-04T11:48:33.264Z</time></trkpt><trkpt lat="41.5008942" lon="13.3120626"><ele>98.5</ele><time>2026-04-04T11:48:34.263Z</time></trkpt><trkpt lat="41.5007523" lon="13.312056"><ele>98.25</ele><time>2026-04-04T11:48:35.263Z</time></trkpt><trkpt lat="41.5006093" lon="13.312046"><ele>98.0</ele><time>2026-04-04T11:48:36.272Z</time></trkpt><trkpt lat="41.5004624" lon="13.3120278"><ele>98.0</ele><time>2026-04-04T11:48:37.266Z</time></trkpt><trkpt lat="41.5003158" lon="13.3120044"><ele>98.0</ele><time>2026-04-04T11:48:38.278Z</time></trkpt><trkpt lat="41.5001737" lon="13.311975"><ele>98.0</ele><time>2026-04-04T11:48:39.269Z</time></trkpt><trkpt lat="41.5000326" lon="13.3119527"><ele>98.0</ele><time>2026-04-04T11:48:40.267Z</time></trkpt><trkpt lat="41.4998911" lon="13.3119389"><ele>98.0</ele><time>2026-04-04T11:48:41.269Z</time></trkpt><trkpt lat="41.4997514" lon="13.3119227"><ele>98.0</ele><time>2026-04-04T11:48:42.264Z</time></trkpt><trkpt lat="41.4996126" lon="13.3119103"><ele>98.0</ele><time>2026-04-04T11:48:43.272Z</time></trkpt><trkpt lat="41.4994726" lon="13.3119084"><ele>98.0</ele><time>2026-04-04T11:48:44.268Z</time></trkpt><trkpt lat="41.4993446" lon="13.3119095"><ele>97.0</ele><time>2026-04-04T11:48:45.283Z</time></trkpt><trkpt lat="41.49923" lon="13.311908"><ele>96.0</ele><time>2026-04-04T11:48:46.273Z</time></trkpt><trkpt lat="41.4991227" lon="13.3119233"><ele>95.0</ele><time>2026-04-04T11:48:47.272Z</time></trkpt><trkpt lat="41.4990207" lon="13.311957"><ele>94.0</ele><time>2026-04-04T11:48:48.267Z</time></trkpt><trkpt lat="41.4989186" lon="13.311997"><ele>93.0</ele><time>2026-04-04T11:48:49.268Z</time></trkpt><trkpt lat="41.4988265" lon="13.3120559"><ele>93.0</ele><time>2026-04-04T11:48:50.264Z</time></trkpt><trkpt lat="41.4987499" lon="13.3121042"><ele>93.0</ele><time>2026-04-04T11:48:51.265Z</time></trkpt><trkpt lat="41.4986783" lon="13.312146"><ele>93.0</ele><time>2026-04-04T11:48:52.264Z</time></trkpt><trkpt lat="41.4986043" lon="13.3121967"><ele>93.0</ele><time>2026-04-04T11:48:53.265Z</time></trkpt><trkpt lat="41.4985306" lon="13.3122483"><ele>93.0</ele><time>2026-04-04T11:48:54.278Z</time></trkpt><trkpt lat="41.4984473" lon="13.3123068"><ele>93.0</ele><time>2026-04-04T11:48:55.263Z</time></trkpt><trkpt lat="41.4983528" lon="13.3123744"><ele>93.0</ele><time>2026-04-04T11:48:56.267Z</time></trkpt><trkpt lat="41.4982627" lon="13.3124314"><ele>93.0</ele><time>2026-04-04T11:48:57.265Z</time></trkpt><trkpt lat="41.49817" lon="13.3124857"><ele>93.0</ele><time>2026-04-04T11:48:58.266Z</time></trkpt><trkpt lat="41.4980798" lon="13.3125385"><ele>93.0</ele><time>2026-04-04T11:48:59.277Z</time></trkpt><trkpt lat="41.4979898" lon="13.3125871"><ele>93.0</ele><time>2026-04-04T11:49:00.265Z</time></trkpt><trkpt lat="41.4978939" lon="13.3126236"><ele>92.0</ele><time>2026-04-04T11:49:01.27Z</time></trkpt><trkpt lat="41.4978031" lon="13.3126526"><ele>91.0</ele><time>2026-04-04T11:49:02.265Z</time></trkpt><trkpt lat="41.4977097" lon="13.3126742"><ele>90.0</ele><time>2026-04-04T11:49:03.267Z</time></trkpt><trkpt lat="41.4976145" lon="13.3126968"><ele>89.0</ele><time>2026-04-04T11:49:04.27Z</time></trkpt><trkpt lat="41.4975227" lon="13.3127232"><ele>88.0</ele><time>2026-04-04T11:49:05.271Z</time></trkpt><trkpt lat="41.4974329" lon="13.3127326"><ele>88.0</ele><time>2026-04-04T11:49:06.277Z</time></trkpt><trkpt lat="41.4973481" lon="13.3127154"><ele>88.0</ele><time>2026-04-04T11:49:07.264Z</time></trkpt><trkpt lat="41.4972673" lon="13.3126718"><ele>88.0</ele><time>2026-04-04T11:49:08.265Z</time></trkpt><trkpt lat="41.497186" lon="13.3126151"><ele>88.0</ele><time>2026-04-04T11:49:09.272Z</time></trkpt><trkpt lat="41.4971066" lon="13.3125616"><ele>88.0</ele><time>2026-04-04T11:49:10.268Z</time></trkpt><trkpt lat="41.4970402" lon="13.3125184"><ele>88.0</ele><time>2026-04-04T11:49:11.278Z</time></trkpt><trkpt lat="41.4969411" lon="13.3124367"><ele>87.0</ele><time>2026-04-04T11:49:13.268Z</time></trkpt><trkpt lat="41.4969229" lon="13.3123413"><ele>86.0</ele><time>2026-04-04T11:49:14.267Z</time></trkpt><trkpt lat="41.4969328" lon="13.3122237"><ele>85.0</ele><time>2026-04-04T11:49:15.268Z</time></trkpt><trkpt lat="41.496946" lon="13.3121102"><ele>84.0</ele><time>2026-04-04T11:49:16.267Z</time></trkpt><trkpt lat="41.4969643" lon="13.3120015"><ele>83.0</ele><time>2026-04-04T11:49:17.271Z</time></trkpt><trkpt lat="41.4969812" lon="13.3119043"><ele>82.0</ele><time>2026-04-04T11:49:18.278Z</time></trkpt><trkpt lat="41.4970092" lon="13.3118247"><ele>81.8</ele><time>2026-04-04T11:49:19.26Z</time></trkpt><trkpt lat="41.497053" lon="13.3117269"><ele>81.6</ele><time>2026-04-04T11:49:20.273Z</time></trkpt><trkpt lat="41.4970972" lon="13.3116119"><ele>81.39999999999999</ele><time>2026-04-04T11:49:21.267Z</time></trkpt><trkpt lat="41.4971327" lon="13.3114709"><ele>81.19999999999999</ele><time>2026-04-04T11:49:22.263Z</time></trkpt><trkpt lat="41.4971659" lon="13.3113101"><ele>81.0</ele><time>2026-04-04T11:49:23.264Z</time></trkpt><trkpt lat="41.4971933" lon="13.3111329"><ele>81.0</ele><time>2026-04-04T11:49:24.265Z</time></trkpt><trkpt lat="41.4972259" lon="13.3109528"><ele>81.0</ele><time>2026-04-04T11:49:25.267Z</time></trkpt><trkpt lat="41.4972533" lon="13.3107609"><ele>81.0</ele><time>2026-04-04T11:49:26.269Z</time></trkpt><trkpt lat="41.4972661" lon="13.3105787"><ele>81.0</ele><time>2026-04-04T11:49:27.266Z</time></trkpt><trkpt lat="41.4972713" lon="13.3104091"><ele>81.0</ele><time>2026-04-04T11:49:28.27Z</time></trkpt><trkpt lat="41.4972703" lon="13.3102474"><ele>81.0</ele><time>2026-04-04T11:49:29.265Z</time></trkpt><trkpt lat="41.4972432" lon="13.3100952"><ele>81.0</ele><time>2026-04-04T11:49:30.263Z</time></trkpt><trkpt lat="41.497215" lon="13.3099571"><ele>81.0</ele><time>2026-04-04T11:49:31.268Z</time></trkpt><trkpt lat="41.4971876" lon="13.3098373"><ele>81.0</ele><time>2026-04-04T11:49:32.27Z</time></trkpt><trkpt lat="41.4972034" lon="13.3097228"><ele>82.19999999999999</ele><time>2026-04-04T11:49:33.266Z</time></trkpt><trkpt lat="41.4972391" lon="13.3096077"><ele>83.39999999999999</ele><time>2026-04-04T11:49:34.261Z</time></trkpt><trkpt lat="41.4972769" lon="13.309475"><ele>84.6</ele><time>2026-04-04T11:49:35.266Z</time></trkpt><trkpt lat="41.4973077" lon="13.3093293"><ele>85.8</ele><time>2026-04-04T11:49:36.262Z</time></trkpt><trkpt lat="41.4973397" lon="13.3091781"><ele>87.0</ele><time>2026-04-04T11:49:37.273Z</time></trkpt><trkpt lat="41.4973761" lon="13.3090133"><ele>87.75</ele><time>2026-04-04T11:49:38.268Z</time></trkpt><trkpt lat="41.4974122" lon="13.3088423"><ele>88.5</ele><time>2026-04-04T11:49:39.264Z</time></trkpt><trkpt lat="41.4974564" lon="13.3086637"><ele>89.25</ele><time>2026-04-04T11:49:40.27Z</time></trkpt><trkpt lat="41.497505" lon="13.3084743"><ele>90.0</ele><time>2026-04-04T11:49:41.267Z</time></trkpt><trkpt lat="41.4975723" lon="13.3083138"><ele>90.0</ele><time>2026-04-04T11:49:42.272Z</time></trkpt><trkpt lat="41.4976411" lon="13.3081804"><ele>90.0</ele><time>2026-04-04T11:49:43.267Z</time></trkpt><trkpt lat="41.4976774" lon="13.3080552"><ele>90.0</ele><time>2026-04-04T11:49:44.268Z</time></trkpt><trkpt lat="41.4977026" lon="13.3079461"><ele>90.0</ele><time>2026-04-04T11:49:45.263Z</time></trkpt><trkpt lat="41.4976155" lon="13.307869"><ele>90.0</ele><time>2026-04-04T11:49:53.264Z</time></trkpt><trkpt lat="41.497532" lon="13.3079262"><ele>90.0</ele><time>2026-04-04T11:49:55.271Z</time></trkpt><trkpt lat="41.4974409" lon="13.3079969"><ele>90.0</ele><time>2026-04-04T11:49:57.265Z</time></trkpt><trkpt lat="41.4973778" lon="13.3080424"><ele>90.0</ele><time>2026-04-04T11:50:02.268Z</time></trkpt><trkpt lat="41.4973099" lon="13.3080699"><ele>90.0</ele><time>2026-04-04T11:50:03.265Z</time></trkpt><trkpt lat="41.4972466" lon="13.3080892"><ele>90.0</ele><time>2026-04-04T11:50:05.271Z</time></trkpt><trkpt lat="41.4971724" lon="13.3081253"><ele>90.0</ele><time>2026-04-04T11:50:07.272Z</time></trkpt><trkpt lat="41.4970586" lon="13.3081469"><ele>89.6</ele><time>2026-04-04T11:50:22.275Z</time></trkpt><trkpt lat="41.4969897" lon="13.308179"><ele>89.2</ele><time>2026-04-04T11:50:23.274Z</time></trkpt><trkpt lat="41.4969224" lon="13.3082366"><ele>88.80000000000001</ele><time>2026-04-04T11:50:25.274Z</time></trkpt><trkpt lat="41.4968548" lon="13.3082843"><ele>88.4</ele><time>2026-04-04T11:50:27.271Z</time></trkpt><trkpt lat="41.4967749" lon="13.3083373"><ele>88.0</ele><time>2026-04-04T11:50:30.264Z</time></trkpt><trkpt lat="41.49667" lon="13.3084431"><ele>88.0</ele><time>2026-04-04T11:50:35.269Z</time></trkpt><trkpt lat="41.4966037" lon="13.3084894"><ele>88.0</ele><time>2026-04-04T11:50:38.27Z</time></trkpt><trkpt lat="41.4965182" lon="13.3085473"><ele>88.0</ele><time>2026-04-04T11:50:41.276Z</time></trkpt><trkpt lat="41.4964364" lon="13.3085751"><ele>88.0</ele><time>2026-04-04T11:50:43.268Z</time></trkpt><trkpt lat="41.4963381" lon="13.308613"><ele>88.0</ele><time>2026-04-04T11:50:45.27Z</time></trkpt><trkpt lat="41.4962762" lon="13.3086378"><ele>88.0</ele><time>2026-04-04T11:50:46.264Z</time></trkpt><trkpt lat="41.4961793" lon="13.3086659"><ele>88.0</ele><time>2026-04-04T11:50:48.269Z</time></trkpt><trkpt lat="41.4961028" lon="13.3086944"><ele>88.0</ele><time>2026-04-04T11:50:50.278Z</time></trkpt><trkpt lat="41.4960244" lon="13.3087173"><ele>88.0</ele><time>2026-04-04T11:50:52.272Z</time></trkpt><trkpt lat="41.4959594" lon="13.3087289"><ele>88.0</ele><time>2026-04-04T11:50:54.273Z</time></trkpt><trkpt lat="41.4958928" lon="13.3087435"><ele>88.0</ele><time>2026-04-04T11:50:57.274Z</time></trkpt><trkpt lat="41.495818" lon="13.3087714"><ele>88.0</ele><time>2026-04-04T11:50:59.281Z</time></trkpt><trkpt lat="41.4957179" lon="13.3087694"><ele>88.0</ele><time>2026-04-04T11:51:01.263Z</time></trkpt><trkpt lat="41.4956236" lon="13.3087721"><ele>88.0</ele><time>2026-04-04T11:51:03.276Z</time></trkpt><trkpt lat="41.4955473" lon="13.3087848"><ele>88.0</ele><time>2026-04-04T11:51:05.267Z</time></trkpt><trkpt lat="41.4954508" lon="13.3088099"><ele>88.0</ele><time>2026-04-04T11:51:07.27Z</time></trkpt><trkpt lat="41.4953547" lon="13.3088508"><ele>88.0</ele><time>2026-04-04T11:51:09.271Z</time></trkpt><trkpt lat="41.4952625" lon="13.3088895"><ele>87.4</ele><time>2026-04-04T11:51:11.268Z</time></trkpt><trkpt lat="41.4951751" lon="13.3089243"><ele>86.80000000000001</ele><time>2026-04-04T11:51:13.266Z</time></trkpt><trkpt lat="41.4950996" lon="13.3089193"><ele>86.2</ele><time>2026-04-04T11:51:15.278Z</time></trkpt><trkpt lat="41.4950103" lon="13.3088732"><ele>85.6</ele><time>2026-04-04T11:51:17.273Z</time></trkpt><trkpt lat="41.4949208" lon="13.3088469"><ele>85.0</ele><time>2026-04-04T11:51:19.267Z</time></trkpt><trkpt lat="41.4948179" lon="13.3088582"><ele>84.6</ele><time>2026-04-04T11:51:21.264Z</time></trkpt><trkpt lat="41.4947045" lon="13.3088879"><ele>84.2</ele><time>2026-04-04T11:51:23.265Z</time></trkpt><trkpt lat="41.4946019" lon="13.3089041"><ele>83.80000000000001</ele><time>2026-04-04T11:51:25.271Z</time></trkpt><trkpt lat="41.4944903" lon="13.308904"><ele>83.4</ele><time>2026-04-04T11:51:27.268Z</time></trkpt><trkpt lat="41.4944186" lon="13.3088765"><ele>83.0</ele><time>2026-04-04T11:51:28.271Z</time></trkpt><trkpt lat="41.4943566" lon="13.3088335"><ele>82.0</ele><time>2026-04-04T11:51:29.262Z</time></trkpt><trkpt lat="41.4943001" lon="13.3087888"><ele>81.0</ele><time>2026-04-04T11:51:30.267Z</time></trkpt><trkpt lat="41.4942008" lon="13.3087256"><ele>80.0</ele><time>2026-04-04T11:51:32.264Z</time></trkpt><trkpt lat="41.4941126" lon="13.308705"><ele>79.0</ele><time>2026-04-04T11:51:34.265Z</time></trkpt><trkpt lat="41.4940454" lon="13.3086892"><ele>78.0</ele><time>2026-04-04T11:51:36.278Z</time></trkpt><trkpt lat="41.4939619" lon="13.3086532"><ele>77.0</ele><time>2026-04-04T11:51:39.267Z</time></trkpt><trkpt lat="41.4938911" lon="13.3086233"><ele>77.0</ele><time>2026-04-04T11:51:41.264Z</time></trkpt><trkpt lat="41.4938109" lon="13.3085914"><ele>77.0</ele><time>2026-04-04T11:51:43.272Z</time></trkpt><trkpt lat="41.4937144" lon="13.3084928"><ele>77.0</ele><time>2026-04-04T11:51:45.27Z</time></trkpt><trkpt lat="41.4936607" lon="13.308388"><ele>77.0</ele><time>2026-04-04T11:51:46.268Z</time></trkpt><trkpt lat="41.4936047" lon="13.3082467"><ele>77.0</ele><time>2026-04-04T11:51:47.266Z</time></trkpt><trkpt lat="41.4935696" lon="13.3080748"><ele>77.0</ele><time>2026-04-04T11:51:48.271Z</time></trkpt><trkpt lat="41.4935378" lon="13.3079162"><ele>77.0</ele><time>2026-04-04T11:51:49.267Z</time></trkpt><trkpt lat="41.4935131" lon="13.3077835"><ele>77.0</ele><time>2026-04-04T11:51:50.265Z</time></trkpt><trkpt lat="41.4934943" lon="13.3076625"><ele>77.0</ele><time>2026-04-04T11:51:51.27Z</time></trkpt><trkpt lat="41.4934726" lon="13.3075394"><ele>77.0</ele><time>2026-04-04T11:51:52.267Z</time></trkpt><trkpt lat="41.4934574" lon="13.307432"><ele>77.0</ele><time>2026-04-04T11:51:53.262Z</time></trkpt><trkpt lat="41.4934472" lon="13.3073283"><ele>77.0</ele><time>2026-04-04T11:51:54.264Z</time></trkpt><trkpt lat="41.4934865" lon="13.3071712"><ele>77.0</ele><time>2026-04-04T11:51:56.271Z</time></trkpt><trkpt lat="41.4935358" lon="13.3070992"><ele>77.0</ele><time>2026-04-04T11:51:57.269Z</time></trkpt><trkpt lat="41.4935961" lon="13.3070459"><ele>77.0</ele><time>2026-04-04T11:51:58.273Z</time></trkpt><trkpt lat="41.4936875" lon="13.3069295"><ele>78.0</ele><time>2026-04-04T11:52:00.269Z</time></trkpt><trkpt lat="41.4937067" lon="13.3068391"><ele>79.0</ele><time>2026-04-04T11:52:01.269Z</time></trkpt><trkpt lat="41.493715" lon="13.3067556"><ele>80.0</ele><time>2026-04-04T11:52:02.275Z</time></trkpt><trkpt lat="41.4937438" lon="13.3066037"><ele>81.0</ele><time>2026-04-04T11:52:04.272Z</time></trkpt><trkpt lat="41.4937733" lon="13.306459"><ele>82.0</ele><time>2026-04-04T11:52:06.264Z</time></trkpt><trkpt lat="41.4937953" lon="13.3063584"><ele>83.0</ele><time>2026-04-04T11:52:07.288Z</time></trkpt><trkpt lat="41.4938121" lon="13.3062649"><ele>84.5</ele><time>2026-04-04T11:52:08.274Z</time></trkpt><trkpt lat="41.4938308" lon="13.3061833"><ele>86.0</ele><time>2026-04-04T11:52:09.262Z</time></trkpt><trkpt lat="41.4938497" lon="13.3060942"><ele>87.5</ele><time>2026-04-04T11:52:10.266Z</time></trkpt><trkpt lat="41.4938669" lon="13.3059928"><ele>89.0</ele><time>2026-04-04T11:52:11.27Z</time></trkpt><trkpt lat="41.4938863" lon="13.3058853"><ele>90.5</ele><time>2026-04-04T11:52:12.268Z</time></trkpt><trkpt lat="41.4939249" lon="13.3057585"><ele>92.0</ele><time>2026-04-04T11:52:13.274Z</time></trkpt><trkpt lat="41.4939599" lon="13.3056437"><ele>91.6</ele><time>2026-04-04T11:52:14.275Z</time></trkpt><trkpt lat="41.4940069" lon="13.3055401"><ele>91.19999999999999</ele><time>2026-04-04T11:52:15.269Z</time></trkpt><trkpt lat="41.4940706" lon="13.3054396"><ele>90.8</ele><time>2026-04-04T11:52:16.267Z</time></trkpt><trkpt lat="41.4941295" lon="13.3053345"><ele>90.4</ele><time>2026-04-04T11:52:17.269Z</time></trkpt><trkpt lat="41.4941717" lon="13.3052187"><ele>90.0</ele><time>2026-04-04T11:52:18.276Z</time></trkpt><trkpt lat="41.4941974" lon="13.3050939"><ele>90.0</ele><time>2026-04-04T11:52:19.266Z</time></trkpt><trkpt lat="41.4942099" lon="13.3049729"><ele>90.0</ele><time>2026-04-04T11:52:20.271Z</time></trkpt><trkpt lat="41.4942241" lon="13.3048586"><ele>90.0</ele><time>2026-04-04T11:52:21.268Z</time></trkpt><trkpt lat="41.4942422" lon="13.3047565"><ele>90.0</ele><time>2026-04-04T11:52:22.269Z</time></trkpt><trkpt lat="41.4942532" lon="13.3046732"><ele>90.0</ele><time>2026-04-04T11:52:23.268Z</time></trkpt><trkpt lat="41.4942307" lon="13.3045655"><ele>90.0</ele><time>2026-04-04T11:52:25.263Z</time></trkpt><trkpt lat="41.4941559" lon="13.3045218"><ele>89.66666666666667</ele><time>2026-04-04T11:52:27.272Z</time></trkpt><trkpt lat="41.4940789" lon="13.304491"><ele>89.33333333333333</ele><time>2026-04-04T11:52:29.265Z</time></trkpt><trkpt lat="41.4939968" lon="13.3044609"><ele>89.0</ele><time>2026-04-04T11:52:31.268Z</time></trkpt><trkpt lat="41.4939108" lon="13.304446"><ele>88.66666666666666</ele><time>2026-04-04T11:52:33.282Z</time></trkpt><trkpt lat="41.4938193" lon="13.3044674"><ele>88.33333333333333</ele><time>2026-04-04T11:52:35.272Z</time></trkpt><trkpt lat="41.4937268" lon="13.3045008"><ele>88.0</ele><time>2026-04-04T11:52:37.265Z</time></trkpt><trkpt lat="41.4936451" lon="13.3045286"><ele>87.33333333333333</ele><time>2026-04-04T11:52:39.277Z</time></trkpt><trkpt lat="41.4935586" lon="13.3045826"><ele>86.66666666666666</ele><time>2026-04-04T11:52:41.285Z</time></trkpt><trkpt lat="41.4934418" lon="13.3046098"><ele>86.0</ele><time>2026-04-04T11:52:43.26Z</time></trkpt><trkpt lat="41.4933715" lon="13.3046187"><ele>85.33333333333333</ele><time>2026-04-04T11:52:44.267Z</time></trkpt><trkpt lat="41.4932976" lon="13.3046092"><ele>84.66666666666667</ele><time>2026-04-04T11:52:45.265Z</time></trkpt><trkpt lat="41.4932329" lon="13.3045832"><ele>84.0</ele><time>2026-04-04T11:52:46.265Z</time></trkpt><trkpt lat="41.4931741" lon="13.3045432"><ele>84.0</ele><time>2026-04-04T11:52:47.269Z</time></trkpt><trkpt lat="41.4930855" lon="13.3044723"><ele>84.0</ele><time>2026-04-04T11:52:49.276Z</time></trkpt><trkpt lat="41.4930161" lon="13.3044252"><ele>84.0</ele><time>2026-04-04T11:52:51.262Z</time></trkpt><trkpt lat="41.4929578" lon="13.3043848"><ele>84.0</ele><time>2026-04-04T11:52:53.261Z</time></trkpt><trkpt lat="41.4928884" lon="13.3043305"><ele>84.0</ele><time>2026-04-04T11:52:55.269Z</time></trkpt><trkpt lat="41.4928227" lon="13.3042829"><ele>84.0</ele><time>2026-04-04T11:52:57.268Z</time></trkpt><trkpt lat="41.4927671" lon="13.304236"><ele>83.85714285714286</ele><time>2026-04-04T11:52:59.278Z</time></trkpt><trkpt lat="41.4927018" lon="13.3041971"><ele>83.71428571428572</ele><time>2026-04-04T11:53:01.281Z</time></trkpt><trkpt lat="41.4926427" lon="13.3041586"><ele>83.57142857142857</ele><time>2026-04-04T11:53:03.273Z</time></trkpt><trkpt lat="41.4925712" lon="13.304072"><ele>83.42857142857143</ele><time>2026-04-04T11:53:17.27Z</time></trkpt><trkpt lat="41.4925076" lon="13.3040486"><ele>83.28571428571429</ele><time>2026-04-04T11:53:54.27Z</time></trkpt><trkpt lat="41.4924418" lon="13.3040213"><ele>83.14285714285714</ele><time>2026-04-04T11:53:57.265Z</time></trkpt><trkpt lat="41.492383" lon="13.3039884"><ele>83.0</ele><time>2026-04-04T11:54:00.267Z</time></trkpt><trkpt lat="41.492323" lon="13.3039335"><ele>83.0</ele><time>2026-04-04T11:54:05.269Z</time></trkpt><trkpt lat="41.4922469" lon="13.3038525"><ele>79.0</ele><time>2026-04-04T11:55:03.273Z</time></trkpt><trkpt lat="41.4921875" lon="13.3038012"><ele>79.0</ele><time>2026-04-04T11:55:07.279Z</time></trkpt></trkseg><trkseg><trkpt lat="41.4919981" lon="13.3036531"><ele>75.0</ele><time>2026-04-04T12:25:25.271Z</time></trkpt><trkpt lat="41.491943" lon="13.3036117"><ele>75.0</ele><time>2026-04-04T12:25:27.27Z</time></trkpt><trkpt lat="41.4918616" lon="13.3035869"><ele>75.0</ele><time>2026-04-04T12:25:30.269Z</time></trkpt><trkpt lat="41.4917584" lon="13.3035774"><ele>75.0</ele><time>2026-04-04T12:25:33.274Z</time></trkpt><trkpt lat="41.4916832" lon="13.3035702"><ele>75.0</ele><time>2026-04-04T12:25:36.272Z</time></trkpt><trkpt lat="41.4916" lon="13.3035376"><ele>75.0</ele><time>2026-04-04T12:25:38.268Z</time></trkpt><trkpt lat="41.4915005" lon="13.3035122"><ele>75.0</ele><time>2026-04-04T12:25:40.267Z</time></trkpt><trkpt lat="41.4914358" lon="13.3034972"><ele>75.0</ele><time>2026-04-04T12:25:41.278Z</time></trkpt><trkpt lat="41.4913495" lon="13.3034545"><ele>75.0</ele><time>2026-04-04T12:25:42.272Z</time></trkpt><trkpt lat="41.4912665" lon="13.3033962"><ele>75.0</ele><time>2026-04-04T12:25:43.267Z</time></trkpt><trkpt lat="41.4911899" lon="13.3033402"><ele>75.0</ele><time>2026-04-04T12:25:44.273Z</time></trkpt><trkpt lat="41.4911079" lon="13.3032914"><ele>75.0</ele><time>2026-04-04T12:25:45.268Z</time></trkpt><trkpt lat="41.4910273" lon="13.3032365"><ele>75.0</ele><time>2026-04-04T12:25:46.269Z</time></trkpt><trkpt lat="41.490954" lon="13.3032004"><ele>75.0</ele><time>2026-04-04T12:25:47.276Z</time></trkpt><trkpt lat="41.4908858" lon="13.3031652"><ele>75.0</ele><time>2026-04-04T12:25:48.273Z</time></trkpt><trkpt lat="41.4908212" lon="13.3031291"><ele>75.0</ele><time>2026-04-04T12:25:49.268Z</time></trkpt><trkpt lat="41.4907564" lon="13.3030757"><ele>75.0</ele><time>2026-04-04T12:25:50.27Z</time></trkpt><trkpt lat="41.4907004" lon="13.3030328"><ele>75.0</ele><time>2026-04-04T12:25:51.268Z</time></trkpt><trkpt lat="41.4905856" lon="13.3029708"><ele>75.0</ele><time>2026-04-04T12:25:53.268Z</time></trkpt><trkpt lat="41.4905144" lon="13.3029443"><ele>75.0</ele><time>2026-04-04T12:25:54.267Z</time></trkpt><trkpt lat="41.4904518" lon="13.3029122"><ele>75.0</ele><time>2026-04-04T12:25:55.267Z</time></trkpt><trkpt lat="41.4903962" lon="13.3028714"><ele>75.0</ele><time>2026-04-04T12:25:56.27Z</time></trkpt><trkpt lat="41.490307" lon="13.3028108"><ele>75.0</ele><time>2026-04-04T12:25:58.27Z</time></trkpt><trkpt lat="41.4902141" lon="13.3027679"><ele>75.0</ele><time>2026-04-04T12:26:00.268Z</time></trkpt><trkpt lat="41.4901005" lon="13.3027464"><ele>74.5</ele><time>2026-04-04T12:26:02.265Z</time></trkpt><trkpt lat="41.4900322" lon="13.3027521"><ele>74.0</ele><time>2026-04-04T12:26:03.265Z</time></trkpt><trkpt lat="41.4899577" lon="13.3027282"><ele>73.5</ele><time>2026-04-04T12:26:04.268Z</time></trkpt><trkpt lat="41.4898736" lon="13.3026675"><ele>73.0</ele><time>2026-04-04T12:26:05.267Z</time></trkpt><trkpt lat="41.4897953" lon="13.3026141"><ele>72.5</ele><time>2026-04-04T12:26:06.268Z</time></trkpt><trkpt lat="41.4897229" lon="13.302553"><ele>72.0</ele><time>2026-04-04T12:26:07.265Z</time></trkpt><trkpt lat="41.4896319" lon="13.3024648"><ele>72.2</ele><time>2026-04-04T12:26:08.265Z</time></trkpt><trkpt lat="41.4895399" lon="13.3023886"><ele>72.4</ele><time>2026-04-04T12:26:09.27Z</time></trkpt><trkpt lat="41.4894452" lon="13.3023265"><ele>72.6</ele><time>2026-04-04T12:26:10.278Z</time></trkpt><trkpt lat="41.4893406" lon="13.3022735"><ele>72.8</ele><time>2026-04-04T12:26:11.274Z</time></trkpt><trkpt lat="41.489234" lon="13.302213"><ele>73.0</ele><time>2026-04-04T12:26:12.264Z</time></trkpt><trkpt lat="41.4891409" lon="13.3021337"><ele>73.0</ele><time>2026-04-04T12:26:13.265Z</time></trkpt><trkpt lat="41.4890512" lon="13.3020419"><ele>73.0</ele><time>2026-04-04T12:26:14.269Z</time></trkpt><trkpt lat="41.488968" lon="13.3019745"><ele>73.0</ele><time>2026-04-04T12:26:15.278Z</time></trkpt><trkpt lat="41.4888883" lon="13.301913"><ele>73.0</ele><time>2026-04-04T12:26:16.267Z</time></trkpt><trkpt lat="41.4888162" lon="13.3018755"><ele>73.0</ele><time>2026-04-04T12:26:17.274Z</time></trkpt><trkpt lat="41.4887535" lon="13.3018296"><ele>72.5</ele><time>2026-04-04T12:26:18.278Z</time></trkpt><trkpt lat="41.4886974" lon="13.3017768"><ele>72.0</ele><time>2026-04-04T12:26:19.27Z</time></trkpt><trkpt lat="41.4886367" lon="13.3017236"><ele>71.5</ele><time>2026-04-04T12:26:20.266Z</time></trkpt><trkpt lat="41.4885725" lon="13.3016779"><ele>71.0</ele><time>2026-04-04T12:26:21.268Z</time></trkpt><trkpt lat="41.4884984" lon="13.3016243"><ele>70.5</ele><time>2026-04-04T12:26:22.269Z</time></trkpt><trkpt lat="41.4884288" lon="13.3015679"><ele>70.0</ele><time>2026-04-04T12:26:23.274Z</time></trkpt><trkpt lat="41.4883553" lon="13.3015047"><ele>70.0</ele><time>2026-04-04T12:26:24.27Z</time></trkpt><trkpt lat="41.48828" lon="13.301434"><ele>70.0</ele><time>2026-04-04T12:26:25.269Z</time></trkpt><trkpt lat="41.4882158" lon="13.3013627"><ele>70.0</ele><time>2026-04-04T12:26:26.263Z</time></trkpt><trkpt lat="41.4881437" lon="13.3012874"><ele>70.0</ele><time>2026-04-04T12:26:27.265Z</time></trkpt><trkpt lat="41.4880725" lon="13.3012066"><ele>70.0</ele><time>2026-04-04T12:26:28.267Z</time></trkpt><trkpt lat="41.4880046" lon="13.3011228"><ele>70.0</ele><time>2026-04-04T12:26:29.265Z</time></trkpt><trkpt lat="41.4879263" lon="13.3010255"><ele>70.0</ele><time>2026-04-04T12:26:30.282Z</time></trkpt><trkpt lat="41.4878492" lon="13.3009259"><ele>70.0</ele><time>2026-04-04T12:26:31.267Z</time></trkpt><trkpt lat="41.4877657" lon="13.3008227"><ele>70.0</ele><time>2026-04-04T12:26:32.264Z</time></trkpt><trkpt lat="41.4876864" lon="13.3007061"><ele>70.0</ele><time>2026-04-04T12:26:33.271Z</time></trkpt><trkpt lat="41.487609" lon="13.3005753"><ele>70.25</ele><time>2026-04-04T12:26:34.273Z</time></trkpt><trkpt lat="41.4875455" lon="13.3004498"><ele>70.5</ele><time>2026-04-04T12:26:35.272Z</time></trkpt><trkpt lat="41.4874752" lon="13.3003215"><ele>70.75</ele><time>2026-04-04T12:26:36.272Z</time></trkpt><trkpt lat="41.4873989" lon="13.3001902"><ele>71.0</ele><time>2026-04-04T12:26:37.268Z</time></trkpt><trkpt lat="41.4873297" lon="13.3000656"><ele>71.0</ele><time>2026-04-04T12:26:38.265Z</time></trkpt><trkpt lat="41.4872586" lon="13.299927"><ele>71.0</ele><time>2026-04-04T12:26:39.27Z</time></trkpt><trkpt lat="41.4871893" lon="13.2997943"><ele>71.0</ele><time>2026-04-04T12:26:40.27Z</time></trkpt><trkpt lat="41.4871185" lon="13.2996544"><ele>71.0</ele><time>2026-04-04T12:26:41.264Z</time></trkpt><trkpt lat="41.4870528" lon="13.2995063"><ele>70.75</ele><time>2026-04-04T12:26:42.285Z</time></trkpt><trkpt lat="41.4870037" lon="13.2993376"><ele>70.5</ele><time>2026-04-04T12:26:43.266Z</time></trkpt><trkpt lat="41.4869639" lon="13.2991591"><ele>70.25</ele><time>2026-04-04T12:26:44.272Z</time></trkpt><trkpt lat="41.4869264" lon="13.298997"><ele>70.0</ele><time>2026-04-04T12:26:45.268Z</time></trkpt><trkpt lat="41.4868925" lon="13.2988446"><ele>70.0</ele><time>2026-04-04T12:26:46.266Z</time></trkpt><trkpt lat="41.4868632" lon="13.2986861"><ele>70.0</ele><time>2026-04-04T12:26:47.271Z</time></trkpt><trkpt lat="41.4868492" lon="13.298524"><ele>70.0</ele><time>2026-04-04T12:26:48.265Z</time></trkpt><trkpt lat="41.4868471" lon="13.2983663"><ele>70.0</ele><time>2026-04-04T12:26:49.263Z</time></trkpt><trkpt lat="41.4868594" lon="13.2982066"><ele>70.0</ele><time>2026-04-04T12:26:50.271Z</time></trkpt><trkpt lat="41.4868747" lon="13.2980481"><ele>70.0</ele><time>2026-04-04T12:26:51.269Z</time></trkpt><trkpt lat="41.4868732" lon="13.2978931"><ele>70.0</ele><time>2026-04-04T12:26:52.27Z</time></trkpt><trkpt lat="41.4868864" lon="13.2977544"><ele>70.0</ele><time>2026-04-04T12:26:53.269Z</time></trkpt><trkpt lat="41.4869103" lon="13.2976142"><ele>70.0</ele><time>2026-04-04T12:26:54.265Z</time></trkpt><trkpt lat="41.4869445" lon="13.2974745"><ele>70.0</ele><time>2026-04-04T12:26:55.27Z</time></trkpt><trkpt lat="41.4869862" lon="13.2973143"><ele>70.0</ele><time>2026-04-04T12:26:56.272Z</time></trkpt><trkpt lat="41.4870248" lon="13.2971532"><ele>70.0</ele><time>2026-04-04T12:26:57.267Z</time></trkpt><trkpt lat="41.487046" lon="13.2969946"><ele>70.0</ele><time>2026-04-04T12:26:58.271Z</time></trkpt><trkpt lat="41.4870662" lon="13.296849"><ele>71.8</ele><time>2026-04-04T12:26:59.269Z</time></trkpt><trkpt lat="41.4870986" lon="13.296708"><ele>73.6</ele><time>2026-04-04T12:27:00.268Z</time></trkpt><trkpt lat="41.4871303" lon="13.2965713"><ele>75.4</ele><time>2026-04-04T12:27:01.267Z</time></trkpt><trkpt lat="41.4871732" lon="13.2964396"><ele>77.2</ele><time>2026-04-04T12:27:02.271Z</time></trkpt><trkpt lat="41.4872489" lon="13.296312"><ele>79.0</ele><time>2026-04-04T12:27:03.274Z</time></trkpt><trkpt lat="41.4873449" lon="13.2962017"><ele>79.0</ele><time>2026-04-04T12:27:04.266Z</time></trkpt><trkpt lat="41.4874364" lon="13.2960872"><ele>79.0</ele><time>2026-04-04T12:27:05.269Z</time></trkpt><trkpt lat="41.4875101" lon="13.2959562"><ele>79.0</ele><time>2026-04-04T12:27:06.269Z</time></trkpt><trkpt lat="41.4875677" lon="13.2958375"><ele>79.0</ele><time>2026-04-04T12:27:07.272Z</time></trkpt><trkpt lat="41.4876105" lon="13.2957175"><ele>79.0</ele><time>2026-04-04T12:27:08.277Z</time></trkpt><trkpt lat="41.4876421" lon="13.295602"><ele>79.0</ele><time>2026-04-04T12:27:09.262Z</time></trkpt><trkpt lat="41.4876507" lon="13.2954665"><ele>79.0</ele><time>2026-04-04T12:27:10.271Z</time></trkpt><trkpt lat="41.4876712" lon="13.2953158"><ele>79.0</ele><time>2026-04-04T12:27:11.267Z</time></trkpt><trkpt lat="41.4877098" lon="13.2951777"><ele>79.0</ele><time>2026-04-04T12:27:12.27Z</time></trkpt><trkpt lat="41.4877702" lon="13.2950571"><ele>78.83333333333333</ele><time>2026-04-04T12:27:13.284Z</time></trkpt><trkpt lat="41.4878259" lon="13.2949352"><ele>78.66666666666666</ele><time>2026-04-04T12:27:14.27Z</time></trkpt><trkpt lat="41.4878673" lon="13.2948201"><ele>78.5</ele><time>2026-04-04T12:27:15.274Z</time></trkpt><trkpt lat="41.4878916" lon="13.2947136"><ele>78.33333333333333</ele><time>2026-04-04T12:27:16.27Z</time></trkpt><trkpt lat="41.4878885" lon="13.2946125"><ele>78.16666666666667</ele><time>2026-04-04T12:27:17.275Z</time></trkpt><trkpt lat="41.4878866" lon="13.2945103"><ele>78.0</ele><time>2026-04-04T12:27:18.267Z</time></trkpt><trkpt lat="41.4878471" lon="13.2944025"><ele>78.25</ele><time>2026-04-04T12:27:19.274Z</time></trkpt><trkpt lat="41.4877836" lon="13.2942998"><ele>78.5</ele><time>2026-04-04T12:27:20.276Z</time></trkpt><trkpt lat="41.4877169" lon="13.294194"><ele>78.75</ele><time>2026-04-04T12:27:21.279Z</time></trkpt><trkpt lat="41.4876423" lon="13.2940633"><ele>79.0</ele><time>2026-04-04T12:27:22.269Z</time></trkpt><trkpt lat="41.4875977" lon="13.2938897"><ele>79.0</ele><time>2026-04-04T12:27:23.268Z</time></trkpt><trkpt lat="41.4875601" lon="13.2937064"><ele>79.0</ele><time>2026-04-04T12:27:24.269Z</time></trkpt><trkpt lat="41.4875152" lon="13.2935306"><ele>79.0</ele><time>2026-04-04T12:27:25.268Z</time></trkpt><trkpt lat="41.4874558" lon="13.2933456"><ele>79.0</ele><time>2026-04-04T12:27:26.268Z</time></trkpt><trkpt lat="41.487389" lon="13.2931759"><ele>77.75</ele><time>2026-04-04T12:27:27.269Z</time></trkpt><trkpt lat="41.4873378" lon="13.2929981"><ele>76.5</ele><time>2026-04-04T12:27:28.276Z</time></trkpt><trkpt lat="41.4872897" lon="13.2928286"><ele>75.25</ele><time>2026-04-04T12:27:29.268Z</time></trkpt><trkpt lat="41.4872329" lon="13.2926612"><ele>74.0</ele><time>2026-04-04T12:27:30.268Z</time></trkpt><trkpt lat="41.4871721" lon="13.2924927"><ele>74.0</ele><time>2026-04-04T12:27:31.272Z</time></trkpt><trkpt lat="41.4871156" lon="13.2923301"><ele>74.0</ele><time>2026-04-04T12:27:32.274Z</time></trkpt><trkpt lat="41.487061" lon="13.2921697"><ele>74.0</ele><time>2026-04-04T12:27:33.271Z</time></trkpt><trkpt lat="41.4870151" lon="13.2920285"><ele>74.0</ele><time>2026-04-04T12:27:34.276Z</time></trkpt><trkpt lat="41.4869742" lon="13.2919041"><ele>73.4</ele><time>2026-04-04T12:27:35.274Z</time></trkpt><trkpt lat="41.4869453" lon="13.2918197"><ele>72.80000000000001</ele><time>2026-04-04T12:27:36.278Z</time></trkpt><trkpt lat="41.48692" lon="13.2917402"><ele>72.19999999999999</ele><time>2026-04-04T12:27:38.271Z</time></trkpt><trkpt lat="41.4869714" lon="13.2916498"><ele>71.6</ele><time>2026-04-04T12:27:40.272Z</time></trkpt><trkpt lat="41.4870678" lon="13.2915825"><ele>71.0</ele><time>2026-04-04T12:27:42.268Z</time></trkpt><trkpt lat="41.4872058" lon="13.2915779"><ele>71.0</ele><time>2026-04-04T12:27:44.268Z</time></trkpt><trkpt lat="41.4872963" lon="13.2915592"><ele>71.0</ele><time>2026-04-04T12:27:45.27Z</time></trkpt><trkpt lat="41.4873938" lon="13.2915176"><ele>71.0</ele><time>2026-04-04T12:27:46.27Z</time></trkpt><trkpt lat="41.487471" lon="13.2914627"><ele>71.0</ele><time>2026-04-04T12:27:47.273Z</time></trkpt><trkpt lat="41.4875277" lon="13.2913987"><ele>71.0</ele><time>2026-04-04T12:27:48.292Z</time></trkpt><trkpt lat="41.4875792" lon="13.2912958"><ele>71.0</ele><time>2026-04-04T12:27:50.267Z</time></trkpt><trkpt lat="41.4875887" lon="13.291153"><ele>70.33333333333334</ele><time>2026-04-04T12:27:52.278Z</time></trkpt><trkpt lat="41.4875949" lon="13.2910631"><ele>69.66666666666667</ele><time>2026-04-04T12:27:53.304Z</time></trkpt><trkpt lat="41.4875991" lon="13.2909696"><ele>69.0</ele><time>2026-04-04T12:27:54.269Z</time></trkpt><trkpt lat="41.487601" lon="13.2908747"><ele>68.33333333333333</ele><time>2026-04-04T12:27:55.272Z</time></trkpt><trkpt lat="41.4876177" lon="13.2907188"><ele>67.66666666666666</ele><time>2026-04-04T12:27:57.276Z</time></trkpt><trkpt lat="41.4876707" lon="13.2905897"><ele>67.0</ele><time>2026-04-04T12:27:59.278Z</time></trkpt><trkpt lat="41.4877462" lon="13.2904957"><ele>66.33333333333333</ele><time>2026-04-04T12:28:01.268Z</time></trkpt><trkpt lat="41.4878086" lon="13.2904102"><ele>65.66666666666666</ele><time>2026-04-04T12:28:03.272Z</time></trkpt><trkpt lat="41.4878571" lon="13.2903429"><ele>65.0</ele><time>2026-04-04T12:28:05.285Z</time></trkpt><trkpt lat="41.4879218" lon="13.2902701"><ele>64.33333333333333</ele><time>2026-04-04T12:28:44.272Z</time></trkpt><trkpt lat="41.4879886" lon="13.2903129"><ele>63.666666666666664</ele><time>2026-04-04T12:28:49.271Z</time></trkpt><trkpt lat="41.488046" lon="13.2903486"><ele>63.0</ele><time>2026-04-04T12:28:52.274Z</time></trkpt><trkpt lat="41.4881126" lon="13.2904154"><ele>62.8</ele><time>2026-04-04T12:28:54.31Z</time></trkpt><trkpt lat="41.4881697" lon="13.2904644"><ele>62.599999999999994</ele><time>2026-04-04T12:28:55.28Z</time></trkpt><trkpt lat="41.488253" lon="13.290535"><ele>62.400000000000006</ele><time>2026-04-04T12:28:56.269Z</time></trkpt><trkpt lat="41.488351" lon="13.2906252"><ele>62.2</ele><time>2026-04-04T12:28:57.271Z</time></trkpt><trkpt lat="41.4884661" lon="13.290733"><ele>62.0</ele><time>2026-04-04T12:28:58.271Z</time></trkpt><trkpt lat="41.4885997" lon="13.290856"><ele>61.333333333333336</ele><time>2026-04-04T12:28:59.275Z</time></trkpt><trkpt lat="41.4887433" lon="13.2909888"><ele>60.66666666666667</ele><time>2026-04-04T12:29:00.28Z</time></trkpt><trkpt lat="41.4888954" lon="13.2911355"><ele>60.0</ele><time>2026-04-04T12:29:01.269Z</time></trkpt><trkpt lat="41.4890474" lon="13.2912847"><ele>62.33333333333333</ele><time>2026-04-04T12:29:02.268Z</time></trkpt><trkpt lat="41.4891938" lon="13.2914316"><ele>64.66666666666666</ele><time>2026-04-04T12:29:03.279Z</time></trkpt><trkpt lat="41.489338" lon="13.2915744"><ele>67.0</ele><time>2026-04-04T12:29:04.27Z</time></trkpt><trkpt lat="41.4894767" lon="13.2917145"><ele>64.33333333333333</ele><time>2026-04-04T12:29:05.273Z</time></trkpt><trkpt lat="41.4896136" lon="13.2918545"><ele>61.66666666666667</ele><time>2026-04-04T12:29:06.273Z</time></trkpt><trkpt lat="41.4897478" lon="13.2919914"><ele>59.0</ele><time>2026-04-04T12:29:07.274Z</time></trkpt><trkpt lat="41.4898811" lon="13.292124"><ele>59.0</ele><time>2026-04-04T12:29:08.271Z</time></trkpt><trkpt lat="41.4900099" lon="13.2922514"><ele>59.0</ele><time>2026-04-04T12:29:09.272Z</time></trkpt><trkpt lat="41.4901393" lon="13.2923797"><ele>59.0</ele><time>2026-04-04T12:29:10.292Z</time></trkpt><trkpt lat="41.4902603" lon="13.2925"><ele>59.2</ele><time>2026-04-04T12:29:11.274Z</time></trkpt><trkpt lat="41.4903696" lon="13.2926071"><ele>59.400000000000006</ele><time>2026-04-04T12:29:12.265Z</time></trkpt><trkpt lat="41.4904673" lon="13.2927014"><ele>59.6</ele><time>2026-04-04T12:29:13.268Z</time></trkpt><trkpt lat="41.4905532" lon="13.2927797"><ele>59.8</ele><time>2026-04-04T12:29:14.269Z</time></trkpt><trkpt lat="41.4906241" lon="13.2928365"><ele>60.0</ele><time>2026-04-04T12:29:15.277Z</time></trkpt><trkpt lat="41.4906837" lon="13.2928697"><ele>59.5</ele><time>2026-04-04T12:29:16.27Z</time></trkpt><trkpt lat="41.4907584" lon="13.2928457"><ele>59.0</ele><time>2026-04-04T12:29:17.276Z</time></trkpt><trkpt lat="41.4908552" lon="13.2927789"><ele>58.5</ele><time>2026-04-04T12:29:18.272Z</time></trkpt><trkpt lat="41.4909698" lon="13.292702"><ele>58.0</ele><time>2026-04-04T12:29:19.274Z</time></trkpt><trkpt lat="41.491095" lon="13.2926101"><ele>58.0</ele><time>2026-04-04T12:29:20.273Z</time></trkpt><trkpt lat="41.49122" lon="13.2925338"><ele>58.0</ele><time>2026-04-04T12:29:21.271Z</time></trkpt><trkpt lat="41.4913468" lon="13.2924708"><ele>58.0</ele><time>2026-04-04T12:29:22.288Z</time></trkpt><trkpt lat="41.4914596" lon="13.292397"><ele>58.0</ele><time>2026-04-04T12:29:23.277Z</time></trkpt><trkpt lat="41.4915643" lon="13.2923565"><ele>57.99999999999999</ele><time>2026-04-04T12:29:24.272Z</time></trkpt><trkpt lat="41.4916561" lon="13.2923318"><ele>58.0</ele><time>2026-04-04T12:29:25.283Z</time></trkpt><trkpt lat="41.4917267" lon="13.2923224"><ele>58.0</ele><time>2026-04-04T12:29:26.278Z</time></trkpt><trkpt lat="41.4917929" lon="13.2923207"><ele>58.0</ele><time>2026-04-04T12:29:27.278Z</time></trkpt><trkpt lat="41.4918697" lon="13.2923983"><ele>57.99999999999999</ele><time>2026-04-04T12:29:28.276Z</time></trkpt><trkpt lat="41.4919267" lon="13.2924853"><ele>58.0</ele><time>2026-04-04T12:29:29.285Z</time></trkpt><trkpt lat="41.4919858" lon="13.2925675"><ele>58.0</ele><time>2026-04-04T12:29:30.281Z</time></trkpt><trkpt lat="41.4920627" lon="13.2926306"><ele>58.0</ele><time>2026-04-04T12:29:31.272Z</time></trkpt><trkpt lat="41.4921618" lon="13.2926687"><ele>58.0</ele><time>2026-04-04T12:29:32.28Z</time></trkpt><trkpt lat="41.4922785" lon="13.2926859"><ele>58.0</ele><time>2026-04-04T12:29:33.278Z</time></trkpt><trkpt lat="41.492401" lon="13.2926985"><ele>58.0</ele><time>2026-04-04T12:29:34.281Z</time></trkpt><trkpt lat="41.4925336" lon="13.2927099"><ele>58.25</ele><time>2026-04-04T12:29:35.277Z</time></trkpt><trkpt lat="41.4926669" lon="13.292716"><ele>58.5</ele><time>2026-04-04T12:29:36.285Z</time></trkpt><trkpt lat="41.4928049" lon="13.2927138"><ele>58.75</ele><time>2026-04-04T12:29:37.275Z</time></trkpt><trkpt lat="41.4929538" lon="13.2926864"><ele>59.0</ele><time>2026-04-04T12:29:38.285Z</time></trkpt><trkpt lat="41.4931029" lon="13.2926447"><ele>60.5</ele><time>2026-04-04T12:29:39.281Z</time></trkpt><trkpt lat="41.4932549" lon="13.2926272"><ele>62.0</ele><time>2026-04-04T12:29:40.275Z</time></trkpt><trkpt lat="41.4933955" lon="13.29261"><ele>63.5</ele><time>2026-04-04T12:29:41.271Z</time></trkpt><trkpt lat="41.4935359" lon="13.2926179"><ele>65.0</ele><time>2026-04-04T12:29:42.27Z</time></trkpt><trkpt lat="41.4936881" lon="13.292642"><ele>66.66666666666667</ele><time>2026-04-04T12:29:43.276Z</time></trkpt><trkpt lat="41.4938453" lon="13.2926598"><ele>68.33333333333333</ele><time>2026-04-04T12:29:44.277Z</time></trkpt><trkpt lat="41.4940042" lon="13.2926617"><ele>70.0</ele><time>2026-04-04T12:29:45.288Z</time></trkpt><trkpt lat="41.4941588" lon="13.2926656"><ele>70.0</ele><time>2026-04-04T12:29:46.272Z</time></trkpt><trkpt lat="41.494318" lon="13.2926685"><ele>70.0</ele><time>2026-04-04T12:29:47.274Z</time></trkpt><trkpt lat="41.494484" lon="13.2926647"><ele>70.0</ele><time>2026-04-04T12:29:48.273Z</time></trkpt><trkpt lat="41.4946486" lon="13.2926617"><ele>71.66666666666666</ele><time>2026-04-04T12:29:49.275Z</time></trkpt><trkpt lat="41.4947949" lon="13.2926581"><ele>73.33333333333333</ele><time>2026-04-04T12:29:50.276Z</time></trkpt><trkpt lat="41.4949522" lon="13.2926452"><ele>75.0</ele><time>2026-04-04T12:29:51.271Z</time></trkpt><trkpt lat="41.495105" lon="13.2926204"><ele>75.0</ele><time>2026-04-04T12:29:52.287Z</time></trkpt><trkpt lat="41.495263" lon="13.2925864"><ele>75.0</ele><time>2026-04-04T12:29:53.278Z</time></trkpt><trkpt lat="41.4954276" lon="13.2925329"><ele>75.0</ele><time>2026-04-04T12:29:54.274Z</time></trkpt><trkpt lat="41.4955781" lon="13.2924878"><ele>74.5</ele><time>2026-04-04T12:29:55.269Z</time></trkpt><trkpt lat="41.4957102" lon="13.2924279"><ele>74.0</ele><time>2026-04-04T12:29:56.275Z</time></trkpt><trkpt lat="41.4958364" lon="13.29235"><ele>73.5</ele><time>2026-04-04T12:29:57.277Z</time></trkpt><trkpt lat="41.4959544" lon="13.2922406"><ele>73.0</ele><time>2026-04-04T12:29:58.274Z</time></trkpt><trkpt lat="41.4960666" lon="13.2921123"><ele>73.0</ele><time>2026-04-04T12:29:59.29Z</time></trkpt><trkpt lat="41.4961767" lon="13.2919898"><ele>73.0</ele><time>2026-04-04T12:30:00.28Z</time></trkpt><trkpt lat="41.4962758" lon="13.2918847"><ele>73.0</ele><time>2026-04-04T12:30:01.274Z</time></trkpt><trkpt lat="41.4963797" lon="13.2917969"><ele>73.0</ele><time>2026-04-04T12:30:02.276Z</time></trkpt><trkpt lat="41.4964944" lon="13.2917123"><ele>72.25</ele><time>2026-04-04T12:30:03.274Z</time></trkpt><trkpt lat="41.49661" lon="13.2916255"><ele>71.5</ele><time>2026-04-04T12:30:04.285Z</time></trkpt><trkpt lat="41.4967323" lon="13.2915457"><ele>70.75</ele><time>2026-04-04T12:30:05.273Z</time></trkpt><trkpt lat="41.4968643" lon="13.2914756"><ele>70.0</ele><time>2026-04-04T12:30:06.269Z</time></trkpt><trkpt lat="41.4969982" lon="13.2914138"><ele>71.25</ele><time>2026-04-04T12:30:07.277Z</time></trkpt><trkpt lat="41.4971348" lon="13.2913603"><ele>72.5</ele><time>2026-04-04T12:30:08.278Z</time></trkpt><trkpt lat="41.4972799" lon="13.2913217"><ele>73.75</ele><time>2026-04-04T12:30:09.282Z</time></trkpt><trkpt lat="41.4974373" lon="13.2912905"><ele>75.0</ele><time>2026-04-04T12:30:10.278Z</time></trkpt><trkpt lat="41.4975902" lon="13.2912656"><ele>75.0</ele><time>2026-04-04T12:30:11.276Z</time></trkpt><trkpt lat="41.497722" lon="13.2912433"><ele>75.0</ele><time>2026-04-04T12:30:12.273Z</time></trkpt><trkpt lat="41.4978418" lon="13.2912034"><ele>75.0</ele><time>2026-04-04T12:30:13.277Z</time></trkpt><trkpt lat="41.497965" lon="13.291145"><ele>75.0</ele><time>2026-04-04T12:30:14.274Z</time></trkpt><trkpt lat="41.498094" lon="13.2910804"><ele>77.0</ele><time>2026-04-04T12:30:15.275Z</time></trkpt><trkpt lat="41.4982331" lon="13.2910096"><ele>79.0</ele><time>2026-04-04T12:30:16.271Z</time></trkpt><trkpt lat="41.4983789" lon="13.2909345"><ele>81.0</ele><time>2026-04-04T12:30:17.279Z</time></trkpt><trkpt lat="41.4985269" lon="13.2908572"><ele>81.0</ele><time>2026-04-04T12:30:18.276Z</time></trkpt><trkpt lat="41.4986703" lon="13.2907618"><ele>81.0</ele><time>2026-04-04T12:30:19.277Z</time></trkpt><trkpt lat="41.4988107" lon="13.2906592"><ele>81.0</ele><time>2026-04-04T12:30:20.278Z</time></trkpt><trkpt lat="41.4989539" lon="13.2905676"><ele>80.66666666666667</ele><time>2026-04-04T12:30:21.273Z</time></trkpt><trkpt lat="41.4990824" lon="13.2904668"><ele>80.33333333333334</ele><time>2026-04-04T12:30:22.285Z</time></trkpt><trkpt lat="41.499215" lon="13.2903771"><ele>80.0</ele><time>2026-04-04T12:30:23.271Z</time></trkpt><trkpt lat="41.4993465" lon="13.2902666"><ele>80.0</ele><time>2026-04-04T12:30:24.271Z</time></trkpt><trkpt lat="41.4994611" lon="13.2901455"><ele>80.0</ele><time>2026-04-04T12:30:25.275Z</time></trkpt><trkpt lat="41.4995726" lon="13.2900602"><ele>80.0</ele><time>2026-04-04T12:30:26.278Z</time></trkpt><trkpt lat="41.4996767" lon="13.2899801"><ele>80.0</ele><time>2026-04-04T12:30:27.278Z</time></trkpt><trkpt lat="41.4997753" lon="13.2899149"><ele>80.75</ele><time>2026-04-04T12:30:28.279Z</time></trkpt><trkpt lat="41.499878" lon="13.2898625"><ele>81.5</ele><time>2026-04-04T12:30:29.283Z</time></trkpt><trkpt lat="41.5000028" lon="13.2898448"><ele>82.25</ele><time>2026-04-04T12:30:30.281Z</time></trkpt><trkpt lat="41.5001418" lon="13.2898558"><ele>83.0</ele><time>2026-04-04T12:30:31.272Z</time></trkpt><trkpt lat="41.5002893" lon="13.2898661"><ele>83.5</ele><time>2026-04-04T12:30:32.29Z</time></trkpt><trkpt lat="41.5004443" lon="13.2898799"><ele>84.0</ele><time>2026-04-04T12:30:33.287Z</time></trkpt><trkpt lat="41.5005905" lon="13.2898926"><ele>84.5</ele><time>2026-04-04T12:30:34.275Z</time></trkpt><trkpt lat="41.5007243" lon="13.2898968"><ele>85.0</ele><time>2026-04-04T12:30:35.275Z</time></trkpt><trkpt lat="41.5008447" lon="13.2898962"><ele>85.0</ele><time>2026-04-04T12:30:36.276Z</time></trkpt><trkpt lat="41.5009503" lon="13.2898811"><ele>85.0</ele><time>2026-04-04T12:30:37.273Z</time></trkpt><trkpt lat="41.5010506" lon="13.2898607"><ele>85.0</ele><time>2026-04-04T12:30:38.283Z</time></trkpt><trkpt lat="41.5011417" lon="13.2898422"><ele>85.0</ele><time>2026-04-04T12:30:39.272Z</time></trkpt><trkpt lat="41.5012042" lon="13.2898256"><ele>85.0</ele><time>2026-04-04T12:30:40.275Z</time></trkpt><trkpt lat="41.5012817" lon="13.2897425"><ele>84.4</ele><time>2026-04-04T12:30:42.279Z</time></trkpt><trkpt lat="41.5012916" lon="13.2896501"><ele>83.8</ele><time>2026-04-04T12:30:43.27Z</time></trkpt><trkpt lat="41.5012956" lon="13.2895336"><ele>83.19999999999999</ele><time>2026-04-04T12:30:44.278Z</time></trkpt><trkpt lat="41.5013113" lon="13.2894018"><ele>82.6</ele><time>2026-04-04T12:30:45.276Z</time></trkpt><trkpt lat="41.5013487" lon="13.2892587"><ele>82.0</ele><time>2026-04-04T12:30:46.284Z</time></trkpt><trkpt lat="41.501411" lon="13.2891053"><ele>82.0</ele><time>2026-04-04T12:30:47.275Z</time></trkpt><trkpt lat="41.5014832" lon="13.2889446"><ele>82.0</ele><time>2026-04-04T12:30:48.275Z</time></trkpt><trkpt lat="41.5015453" lon="13.2887747"><ele>82.0</ele><time>2026-04-04T12:30:49.276Z</time></trkpt><trkpt lat="41.5015874" lon="13.2886012"><ele>82.0</ele><time>2026-04-04T12:30:50.274Z</time></trkpt><trkpt lat="41.5016133" lon="13.2884154"><ele>79.75</ele><time>2026-04-04T12:30:51.285Z</time></trkpt><trkpt lat="41.5016321" lon="13.2882339"><ele>77.5</ele><time>2026-04-04T12:30:52.27Z</time></trkpt><trkpt lat="41.5016614" lon="13.2880583"><ele>75.25</ele><time>2026-04-04T12:30:53.277Z</time></trkpt><trkpt lat="41.5017069" lon="13.287884"><ele>73.0</ele><time>2026-04-04T12:30:54.276Z</time></trkpt><trkpt lat="41.5017656" lon="13.2877029"><ele>71.25</ele><time>2026-04-04T12:30:55.28Z</time></trkpt><trkpt lat="41.5018281" lon="13.2875206"><ele>69.5</ele><time>2026-04-04T12:30:56.271Z</time></trkpt><trkpt lat="41.5018885" lon="13.287344"><ele>67.75</ele><time>2026-04-04T12:30:57.271Z</time></trkpt><trkpt lat="41.5019414" lon="13.2871853"><ele>66.0</ele><time>2026-04-04T12:30:58.285Z</time></trkpt><trkpt lat="41.501988" lon="13.2870519"><ele>66.39999999999999</ele><time>2026-04-04T12:30:59.269Z</time></trkpt><trkpt lat="41.502035" lon="13.2869413"><ele>66.8</ele><time>2026-04-04T12:31:00.275Z</time></trkpt><trkpt lat="41.5020806" lon="13.2868467"><ele>67.19999999999999</ele><time>2026-04-04T12:31:01.27Z</time></trkpt><trkpt lat="41.5021601" lon="13.2867749"><ele>67.6</ele><time>2026-04-04T12:31:02.277Z</time></trkpt><trkpt lat="41.5022162" lon="13.2866674"><ele>68.0</ele><time>2026-04-04T12:31:03.275Z</time></trkpt><trkpt lat="41.5022544" lon="13.28652"><ele>66.25</ele><time>2026-04-04T12:31:04.271Z</time></trkpt><trkpt lat="41.502293" lon="13.2863548"><ele>64.5</ele><time>2026-04-04T12:31:05.272Z</time></trkpt><trkpt lat="41.5023337" lon="13.2861742"><ele>62.75</ele><time>2026-04-04T12:31:06.281Z</time></trkpt><trkpt lat="41.5023795" lon="13.2860044"><ele>61.0</ele><time>2026-04-04T12:31:07.287Z</time></trkpt><trkpt lat="41.5024598" lon="13.2858405"><ele>61.0</ele><time>2026-04-04T12:31:08.271Z</time></trkpt><trkpt lat="41.5025322" lon="13.2856732"><ele>61.0</ele><time>2026-04-04T12:31:09.268Z</time></trkpt><trkpt lat="41.5025978" lon="13.2855139"><ele>61.0</ele><time>2026-04-04T12:31:10.274Z</time></trkpt><trkpt lat="41.5026495" lon="13.2853482"><ele>61.0</ele><time>2026-04-04T12:31:11.277Z</time></trkpt><trkpt lat="41.5026831" lon="13.2851653"><ele>59.666666666666664</ele><time>2026-04-04T12:31:12.282Z</time></trkpt><trkpt lat="41.5027037" lon="13.2849575"><ele>58.33333333333333</ele><time>2026-04-04T12:31:13.274Z</time></trkpt><trkpt lat="41.5027217" lon="13.2847366"><ele>57.0</ele><time>2026-04-04T12:31:14.272Z</time></trkpt><trkpt lat="41.5027277" lon="13.2845234"><ele>56.33333333333333</ele><time>2026-04-04T12:31:15.276Z</time></trkpt><trkpt lat="41.5027341" lon="13.2843118"><ele>55.666666666666664</ele><time>2026-04-04T12:31:16.275Z</time></trkpt><trkpt lat="41.5027365" lon="13.2841025"><ele>55.0</ele><time>2026-04-04T12:31:17.271Z</time></trkpt><trkpt lat="41.5027409" lon="13.2838989"><ele>54.5</ele><time>2026-04-04T12:31:18.268Z</time></trkpt><trkpt lat="41.5027549" lon="13.2836966"><ele>54.0</ele><time>2026-04-04T12:31:19.272Z</time></trkpt><trkpt lat="41.5027771" lon="13.2835011"><ele>53.5</ele><time>2026-04-04T12:31:20.287Z</time></trkpt><trkpt lat="41.50281" lon="13.2833264"><ele>53.0</ele><time>2026-04-04T12:31:21.263Z</time></trkpt><trkpt lat="41.5028422" lon="13.2831729"><ele>52.75</ele><time>2026-04-04T12:31:22.265Z</time></trkpt><trkpt lat="41.5028759" lon="13.2830349"><ele>52.5</ele><time>2026-04-04T12:31:23.265Z</time></trkpt><trkpt lat="41.5029228" lon="13.2829009"><ele>52.25</ele><time>2026-04-04T12:31:24.269Z</time></trkpt><trkpt lat="41.5029855" lon="13.2827506"><ele>52.0</ele><time>2026-04-04T12:31:25.275Z</time></trkpt><trkpt lat="41.5030536" lon="13.2825901"><ele>52.25</ele><time>2026-04-04T12:31:26.273Z</time></trkpt><trkpt lat="41.5031287" lon="13.2824193"><ele>52.5</ele><time>2026-04-04T12:31:27.286Z</time></trkpt><trkpt lat="41.5032062" lon="13.2822458"><ele>52.75</ele><time>2026-04-04T12:31:28.268Z</time></trkpt><trkpt lat="41.5032763" lon="13.2820898"><ele>53.0</ele><time>2026-04-04T12:31:29.27Z</time></trkpt><trkpt lat="41.5033468" lon="13.2819306"><ele>53.0</ele><time>2026-04-04T12:31:30.271Z</time></trkpt><trkpt lat="41.5034024" lon="13.281755"><ele>53.0</ele><time>2026-04-04T12:31:31.274Z</time></trkpt><trkpt lat="41.503442" lon="13.2815783"><ele>53.0</ele><time>2026-04-04T12:31:32.271Z</time></trkpt><trkpt lat="41.5034715" lon="13.2814303"><ele>53.0</ele><time>2026-04-04T12:31:33.265Z</time></trkpt><trkpt lat="41.5035123" lon="13.2813138"><ele>52.66666666666667</ele><time>2026-04-04T12:31:34.272Z</time></trkpt><trkpt lat="41.5035569" lon="13.2812126"><ele>52.333333333333336</ele><time>2026-04-04T12:31:35.271Z</time></trkpt><trkpt lat="41.503643" lon="13.2811455"><ele>52.0</ele><time>2026-04-04T12:31:36.282Z</time></trkpt><trkpt lat="41.5037253" lon="13.2810926"><ele>51.66666666666667</ele><time>2026-04-04T12:31:37.268Z</time></trkpt><trkpt lat="41.5037872" lon="13.2810432"><ele>51.333333333333336</ele><time>2026-04-04T12:31:38.268Z</time></trkpt><trkpt lat="41.5038726" lon="13.2809857"><ele>51.0</ele><time>2026-04-04T12:31:40.273Z</time></trkpt><trkpt lat="41.5039689" lon="13.2808958"><ele>52.0</ele><time>2026-04-04T12:31:45.271Z</time></trkpt><trkpt lat="41.5039694" lon="13.2807214"><ele>53.0</ele><time>2026-04-04T12:31:47.277Z</time></trkpt><trkpt lat="41.5039656" lon="13.2806028"><ele>53.99999999999999</ele><time>2026-04-04T12:31:48.274Z</time></trkpt><trkpt lat="41.5039628" lon="13.2804878"><ele>55.0</ele><time>2026-04-04T12:31:49.279Z</time></trkpt><trkpt lat="41.5039788" lon="13.2803739"><ele>56.0</ele><time>2026-04-04T12:31:50.269Z</time></trkpt><trkpt lat="41.504011" lon="13.2802579"><ele>56.199999999999996</ele><time>2026-04-04T12:31:51.273Z</time></trkpt><trkpt lat="41.5040374" lon="13.2801368"><ele>56.39999999999999</ele><time>2026-04-04T12:31:52.266Z</time></trkpt><trkpt lat="41.5040616" lon="13.2800239"><ele>56.6</ele><time>2026-04-04T12:31:53.273Z</time></trkpt><trkpt lat="41.5040772" lon="13.2799368"><ele>56.8</ele><time>2026-04-04T12:31:54.268Z</time></trkpt><trkpt lat="41.5041087" lon="13.279798"><ele>57.0</ele><time>2026-04-04T12:31:56.278Z</time></trkpt><trkpt lat="41.5041566" lon="13.2796747"><ele>57.166666666666664</ele><time>2026-04-04T12:32:01.271Z</time></trkpt><trkpt lat="41.5042116" lon="13.2796217"><ele>57.33333333333333</ele><time>2026-04-04T12:32:03.272Z</time></trkpt><trkpt lat="41.504257" lon="13.2795417"><ele>57.5</ele><time>2026-04-04T12:32:06.273Z</time></trkpt><trkpt lat="41.5043252" lon="13.2795479"><ele>57.666666666666664</ele><time>2026-04-04T12:32:18.268Z</time></trkpt><trkpt lat="41.5042925" lon="13.279649"><ele>57.83333333333333</ele><time>2026-04-04T12:32:21.288Z</time></trkpt><trkpt lat="41.5041774" lon="13.2796495"><ele>58.0</ele><time>2026-04-04T12:32:27.275Z</time></trkpt><trkpt lat="41.5041171" lon="13.2797389"><ele>57.75</ele><time>2026-04-04T12:32:30.271Z</time></trkpt><trkpt lat="41.5040858" lon="13.2799008"><ele>57.5</ele><time>2026-04-04T12:32:32.27Z</time></trkpt><trkpt lat="41.5040697" lon="13.2800175"><ele>57.25</ele><time>2026-04-04T12:32:33.267Z</time></trkpt><trkpt lat="41.5040417" lon="13.2801623"><ele>57.0</ele><time>2026-04-04T12:32:34.264Z</time></trkpt><trkpt lat="41.5040062" lon="13.2803235"><ele>57.0</ele><time>2026-04-04T12:32:35.27Z</time></trkpt><trkpt lat="41.5039774" lon="13.2804746"><ele>57.0</ele><time>2026-04-04T12:32:36.276Z</time></trkpt><trkpt lat="41.5039596" lon="13.2806061"><ele>57.0</ele><time>2026-04-04T12:32:37.269Z</time></trkpt><trkpt lat="41.5039651" lon="13.2807279"><ele>57.0</ele><time>2026-04-04T12:32:38.277Z</time></trkpt><trkpt lat="41.5039709" lon="13.2808383"><ele>57.0</ele><time>2026-04-04T12:32:39.278Z</time></trkpt><trkpt lat="41.5039779" lon="13.2809295"><ele>57.0</ele><time>2026-04-04T12:32:40.277Z</time></trkpt><trkpt lat="41.50399" lon="13.2810186"><ele>57.0</ele><time>2026-04-04T12:32:41.27Z</time></trkpt><trkpt lat="41.5040228" lon="13.2811087"><ele>57.0</ele><time>2026-04-04T12:32:42.279Z</time></trkpt><trkpt lat="41.5040839" lon="13.2812324"><ele>57.0</ele><time>2026-04-04T12:32:43.27Z</time></trkpt><trkpt lat="41.5041503" lon="13.2813701"><ele>57.0</ele><time>2026-04-04T12:32:44.282Z</time></trkpt><trkpt lat="41.5042115" lon="13.2815"><ele>57.0</ele><time>2026-04-04T12:32:45.274Z</time></trkpt><trkpt lat="41.5042661" lon="13.2816064"><ele>57.0</ele><time>2026-04-04T12:32:46.271Z</time></trkpt><trkpt lat="41.5043207" lon="13.2816958"><ele>57.0</ele><time>2026-04-04T12:32:47.278Z</time></trkpt><trkpt lat="41.5043812" lon="13.2817719"><ele>57.0</ele><time>2026-04-04T12:32:48.266Z</time></trkpt><trkpt lat="41.5044636" lon="13.2818345"><ele>57.0</ele><time>2026-04-04T12:32:49.287Z</time></trkpt><trkpt lat="41.5045607" lon="13.281889"><ele>58.2</ele><time>2026-04-04T12:32:50.281Z</time></trkpt><trkpt lat="41.5046589" lon="13.2819464"><ele>59.400000000000006</ele><time>2026-04-04T12:32:51.276Z</time></trkpt><trkpt lat="41.5047533" lon="13.2820092"><ele>60.599999999999994</ele><time>2026-04-04T12:32:52.27Z</time></trkpt><trkpt lat="41.5048323" lon="13.2820983"><ele>61.8</ele><time>2026-04-04T12:32:53.271Z</time></trkpt><trkpt lat="41.5049021" lon="13.2822121"><ele>63.0</ele><time>2026-04-04T12:32:54.266Z</time></trkpt><trkpt lat="41.5049681" lon="13.2823462"><ele>63.0</ele><time>2026-04-04T12:32:55.276Z</time></trkpt><trkpt lat="41.5050404" lon="13.2824902"><ele>63.0</ele><time>2026-04-04T12:32:56.275Z</time></trkpt><trkpt lat="41.5051198" lon="13.2826259"><ele>63.0</ele><time>2026-04-04T12:32:57.279Z</time></trkpt><trkpt lat="41.505199" lon="13.2827412"><ele>63.0</ele><time>2026-04-04T12:32:58.268Z</time></trkpt><trkpt lat="41.5052632" lon="13.2828287"><ele>63.0</ele><time>2026-04-04T12:32:59.273Z</time></trkpt><trkpt lat="41.5053226" lon="13.2828943"><ele>63.0</ele><time>2026-04-04T12:33:00.287Z</time></trkpt><trkpt lat="41.5053824" lon="13.2829294"><ele>63.0</ele><time>2026-04-04T12:33:01.276Z</time></trkpt><trkpt lat="41.505498" lon="13.2829483"><ele>63.0</ele><time>2026-04-04T12:33:03.273Z</time></trkpt><trkpt lat="41.5055976" lon="13.2830571"><ele>63.0</ele><time>2026-04-04T12:33:05.266Z</time></trkpt><trkpt lat="41.505633" lon="13.2831649"><ele>64.0</ele><time>2026-04-04T12:33:06.267Z</time></trkpt><trkpt lat="41.5056816" lon="13.2832606"><ele>65.0</ele><time>2026-04-04T12:33:07.287Z</time></trkpt><trkpt lat="41.5057508" lon="13.2833458"><ele>66.0</ele><time>2026-04-04T12:33:08.271Z</time></trkpt><trkpt lat="41.5058331" lon="13.2834135"><ele>67.0</ele><time>2026-04-04T12:33:09.28Z</time></trkpt><trkpt lat="41.5059265" lon="13.2834741"><ele>68.0</ele><time>2026-04-04T12:33:10.273Z</time></trkpt><trkpt lat="41.5060126" lon="13.2834889"><ele>68.0</ele><time>2026-04-04T12:33:11.275Z</time></trkpt><trkpt lat="41.5060978" lon="13.2835018"><ele>68.0</ele><time>2026-04-04T12:33:12.278Z</time></trkpt><trkpt lat="41.5061796" lon="13.2834793"><ele>68.0</ele><time>2026-04-04T12:33:13.278Z</time></trkpt><trkpt lat="41.5062738" lon="13.2834241"><ele>68.0</ele><time>2026-04-04T12:33:14.273Z</time></trkpt><trkpt lat="41.5063858" lon="13.2833571"><ele>68.0</ele><time>2026-04-04T12:33:15.27Z</time></trkpt><trkpt lat="41.5065013" lon="13.2833187"><ele>71.25</ele><time>2026-04-04T12:33:16.271Z</time></trkpt><trkpt lat="41.5066233" lon="13.2832738"><ele>74.5</ele><time>2026-04-04T12:33:17.273Z</time></trkpt><trkpt lat="41.5067369" lon="13.2832002"><ele>77.75</ele><time>2026-04-04T12:33:18.281Z</time></trkpt><trkpt lat="41.5068553" lon="13.2831322"><ele>81.0</ele><time>2026-04-04T12:33:19.265Z</time></trkpt><trkpt lat="41.5069596" lon="13.2830659"><ele>81.5</ele><time>2026-04-04T12:33:20.272Z</time></trkpt><trkpt lat="41.5070596" lon="13.2830136"><ele>82.0</ele><time>2026-04-04T12:33:21.273Z</time></trkpt><trkpt lat="41.5071667" lon="13.2829861"><ele>82.5</ele><time>2026-04-04T12:33:22.277Z</time></trkpt><trkpt lat="41.507289" lon="13.2829812"><ele>83.0</ele><time>2026-04-04T12:33:23.261Z</time></trkpt><trkpt lat="41.5074256" lon="13.2829942"><ele>85.25</ele><time>2026-04-04T12:33:24.277Z</time></trkpt><trkpt lat="41.5075638" lon="13.2830044"><ele>87.5</ele><time>2026-04-04T12:33:25.271Z</time></trkpt><trkpt lat="41.5076941" lon="13.2830215"><ele>89.75</ele><time>2026-04-04T12:33:26.269Z</time></trkpt><trkpt lat="41.5078143" lon="13.2830611"><ele>92.0</ele><time>2026-04-04T12:33:27.275Z</time></trkpt><trkpt lat="41.5079276" lon="13.2831047"><ele>92.39999999999999</ele><time>2026-04-04T12:33:28.267Z</time></trkpt><trkpt lat="41.5080255" lon="13.283162"><ele>92.8</ele><time>2026-04-04T12:33:29.269Z</time></trkpt><trkpt lat="41.5081182" lon="13.2832064"><ele>93.2</ele><time>2026-04-04T12:33:30.274Z</time></trkpt><trkpt lat="41.5082088" lon="13.2832292"><ele>93.6</ele><time>2026-04-04T12:33:31.271Z</time></trkpt><trkpt lat="41.5083014" lon="13.2832448"><ele>94.0</ele><time>2026-04-04T12:33:32.275Z</time></trkpt><trkpt lat="41.5083929" lon="13.2832359"><ele>94.0</ele><time>2026-04-04T12:33:33.266Z</time></trkpt><trkpt lat="41.5084815" lon="13.2832236"><ele>94.0</ele><time>2026-04-04T12:33:34.27Z</time></trkpt><trkpt lat="41.5085517" lon="13.2832328"><ele>94.0</ele><time>2026-04-04T12:33:35.272Z</time></trkpt><trkpt lat="41.508625" lon="13.2832508"><ele>94.0</ele><time>2026-04-04T12:33:37.301Z</time></trkpt><trkpt lat="41.5086655" lon="13.2831702"><ele>94.0</ele><time>2026-04-04T12:33:40.272Z</time></trkpt><trkpt lat="41.5086058" lon="13.2830186"><ele>94.0</ele><time>2026-04-04T12:33:42.266Z</time></trkpt><trkpt lat="41.5085551" lon="13.2828878"><ele>95.25</ele><time>2026-04-04T12:33:43.281Z</time></trkpt><trkpt lat="41.5085161" lon="13.2827405"><ele>96.5</ele><time>2026-04-04T12:33:44.27Z</time></trkpt><trkpt lat="41.5084834" lon="13.2825827"><ele>97.75</ele><time>2026-04-04T12:33:45.277Z</time></trkpt><trkpt lat="41.508456" lon="13.2824147"><ele>99.0</ele><time>2026-04-04T12:33:46.274Z</time></trkpt><trkpt lat="41.5084362" lon="13.2822375"><ele>99.25</ele><time>2026-04-04T12:33:47.27Z</time></trkpt><trkpt lat="41.5084171" lon="13.2820518"><ele>99.5</ele><time>2026-04-04T12:33:48.271Z</time></trkpt><trkpt lat="41.508393" lon="13.2818546"><ele>99.75</ele><time>2026-04-04T12:33:49.271Z</time></trkpt><trkpt lat="41.5083655" lon="13.2816544"><ele>100.0</ele><time>2026-04-04T12:33:50.267Z</time></trkpt><trkpt lat="41.5083279" lon="13.281452"><ele>100.25</ele><time>2026-04-04T12:33:51.272Z</time></trkpt><trkpt lat="41.508279" lon="13.28126"><ele>100.5</ele><time>2026-04-04T12:33:52.268Z</time></trkpt><trkpt lat="41.5082196" lon="13.2810799"><ele>100.75</ele><time>2026-04-04T12:33:53.264Z</time></trkpt><trkpt lat="41.5081488" lon="13.2809097"><ele>101.0</ele><time>2026-04-04T12:33:54.284Z</time></trkpt><trkpt lat="41.5080654" lon="13.2807626"><ele>101.0</ele><time>2026-04-04T12:33:55.275Z</time></trkpt><trkpt lat="41.5079762" lon="13.28062"><ele>101.0</ele><time>2026-04-04T12:33:56.275Z</time></trkpt><trkpt lat="41.5078536" lon="13.2804932"><ele>101.0</ele><time>2026-04-04T12:33:57.266Z</time></trkpt><trkpt lat="41.5077264" lon="13.2803738"><ele>100.75</ele><time>2026-04-04T12:33:58.27Z</time></trkpt><trkpt lat="41.5076064" lon="13.2802498"><ele>100.5</ele><time>2026-04-04T12:33:59.271Z</time></trkpt><trkpt lat="41.5074941" lon="13.2801373"><ele>100.25</ele><time>2026-04-04T12:34:00.273Z</time></trkpt><trkpt lat="41.5074139" lon="13.2799977"><ele>100.0</ele><time>2026-04-04T12:34:01.278Z</time></trkpt><trkpt lat="41.507354" lon="13.2798552"><ele>100.5</ele><time>2026-04-04T12:34:02.27Z</time></trkpt><trkpt lat="41.5073032" lon="13.2796953"><ele>101.0</ele><time>2026-04-04T12:34:03.27Z</time></trkpt><trkpt lat="41.5072589" lon="13.2795198"><ele>101.5</ele><time>2026-04-04T12:34:04.271Z</time></trkpt><trkpt lat="41.5072157" lon="13.279338"><ele>102.0</ele><time>2026-04-04T12:34:05.265Z</time></trkpt><trkpt lat="41.5071764" lon="13.2791619"><ele>102.0</ele><time>2026-04-04T12:34:06.27Z</time></trkpt><trkpt lat="41.5071434" lon="13.2789895"><ele>102.0</ele><time>2026-04-04T12:34:07.275Z</time></trkpt><trkpt lat="41.50711" lon="13.2788153"><ele>102.0</ele><time>2026-04-04T12:34:08.266Z</time></trkpt><trkpt lat="41.5070798" lon="13.2786588"><ele>102.0</ele><time>2026-04-04T12:34:09.283Z</time></trkpt><trkpt lat="41.5070539" lon="13.2785203"><ele>99.8</ele><time>2026-04-04T12:34:10.272Z</time></trkpt><trkpt lat="41.5070329" lon="13.2783955"><ele>97.6</ele><time>2026-04-04T12:34:11.275Z</time></trkpt><trkpt lat="41.5070131" lon="13.2782761"><ele>95.39999999999999</ele><time>2026-04-04T12:34:12.269Z</time></trkpt><trkpt lat="41.5069925" lon="13.278151"><ele>93.19999999999999</ele><time>2026-04-04T12:34:13.28Z</time></trkpt><trkpt lat="41.5069733" lon="13.2780219"><ele>91.0</ele><time>2026-04-04T12:34:14.269Z</time></trkpt><trkpt lat="41.5069539" lon="13.277886"><ele>89.6</ele><time>2026-04-04T12:34:15.273Z</time></trkpt><trkpt lat="41.5069334" lon="13.2777574"><ele>88.19999999999999</ele><time>2026-04-04T12:34:16.27Z</time></trkpt><trkpt lat="41.5069124" lon="13.277628"><ele>86.80000000000001</ele><time>2026-04-04T12:34:17.275Z</time></trkpt><trkpt lat="41.5068914" lon="13.2774916"><ele>85.4</ele><time>2026-04-04T12:34:18.264Z</time></trkpt><trkpt lat="41.5068767" lon="13.2773625"><ele>84.0</ele><time>2026-04-04T12:34:19.264Z</time></trkpt><trkpt lat="41.5068624" lon="13.2772288"><ele>83.16666666666667</ele><time>2026-04-04T12:34:20.266Z</time></trkpt><trkpt lat="41.5068473" lon="13.2771056"><ele>82.33333333333333</ele><time>2026-04-04T12:34:21.27Z</time></trkpt><trkpt lat="41.5068418" lon="13.2769942"><ele>81.5</ele><time>2026-04-04T12:34:22.268Z</time></trkpt><trkpt lat="41.5068459" lon="13.2768901"><ele>80.66666666666666</ele><time>2026-04-04T12:34:23.27Z</time></trkpt><trkpt lat="41.5068497" lon="13.2767879"><ele>79.83333333333333</ele><time>2026-04-04T12:34:24.284Z</time></trkpt><trkpt lat="41.5068516" lon="13.2766887"><ele>79.0</ele><time>2026-04-04T12:34:25.274Z</time></trkpt><trkpt lat="41.5068465" lon="13.2765886"><ele>79.0</ele><time>2026-04-04T12:34:26.273Z</time></trkpt><trkpt lat="41.506825" lon="13.2764867"><ele>79.0</ele><time>2026-04-04T12:34:27.273Z</time></trkpt><trkpt lat="41.5067774" lon="13.2763791"><ele>79.0</ele><time>2026-04-04T12:34:28.271Z</time></trkpt><trkpt lat="41.5067218" lon="13.2762661"><ele>79.0</ele><time>2026-04-04T12:34:29.283Z</time></trkpt><trkpt lat="41.506655" lon="13.2761576"><ele>79.0</ele><time>2026-04-04T12:34:30.273Z</time></trkpt><trkpt lat="41.5065908" lon="13.2760666"><ele>78.33333333333333</ele><time>2026-04-04T12:34:31.281Z</time></trkpt><trkpt lat="41.5065348" lon="13.2759805"><ele>77.66666666666666</ele><time>2026-04-04T12:34:32.268Z</time></trkpt><trkpt lat="41.5064801" lon="13.2758911"><ele>77.0</ele><time>2026-04-04T12:34:33.275Z</time></trkpt><trkpt lat="41.5064279" lon="13.2757869"><ele>76.33333333333333</ele><time>2026-04-04T12:34:34.272Z</time></trkpt><trkpt lat="41.5063904" lon="13.2756751"><ele>75.66666666666667</ele><time>2026-04-04T12:34:35.276Z</time></trkpt><trkpt lat="41.5063652" lon="13.2755673"><ele>75.0</ele><time>2026-04-04T12:34:36.272Z</time></trkpt><trkpt lat="41.506339" lon="13.2754586"><ele>72.66666666666667</ele><time>2026-04-04T12:34:37.27Z</time></trkpt><trkpt lat="41.5063096" lon="13.2753575"><ele>70.33333333333333</ele><time>2026-04-04T12:34:38.27Z</time></trkpt><trkpt lat="41.5062794" lon="13.2752652"><ele>68.0</ele><time>2026-04-04T12:34:39.273Z</time></trkpt><trkpt lat="41.5062543" lon="13.2751697"><ele>65.66666666666666</ele><time>2026-04-04T12:34:40.271Z</time></trkpt><trkpt lat="41.5062295" lon="13.2750708"><ele>63.33333333333333</ele><time>2026-04-04T12:34:41.274Z</time></trkpt><trkpt lat="41.506198" lon="13.2749804"><ele>61.0</ele><time>2026-04-04T12:34:42.274Z</time></trkpt><trkpt lat="41.5061608" lon="13.2749098"><ele>60.0</ele><time>2026-04-04T12:34:43.277Z</time></trkpt><trkpt lat="41.5060855" lon="13.2747995"><ele>58.99999999999999</ele><time>2026-04-04T12:34:45.282Z</time></trkpt><trkpt lat="41.5060181" lon="13.2746678"><ele>57.99999999999999</ele><time>2026-04-04T12:34:47.285Z</time></trkpt><trkpt lat="41.5060045" lon="13.2745791"><ele>57.0</ele><time>2026-04-04T12:34:48.272Z</time></trkpt><trkpt lat="41.5059988" lon="13.2744748"><ele>56.0</ele><time>2026-04-04T12:34:49.268Z</time></trkpt><trkpt lat="41.5059896" lon="13.2743622"><ele>55.16666666666667</ele><time>2026-04-04T12:34:50.272Z</time></trkpt><trkpt lat="41.5059859" lon="13.2742586"><ele>54.333333333333336</ele><time>2026-04-04T12:34:51.269Z</time></trkpt><trkpt lat="41.505979" lon="13.2741185"><ele>53.5</ele><time>2026-04-04T12:34:53.273Z</time></trkpt><trkpt lat="41.5059762" lon="13.27402"><ele>52.66666666666667</ele><time>2026-04-04T12:34:55.275Z</time></trkpt><trkpt lat="41.5059676" lon="13.273868"><ele>51.833333333333336</ele><time>2026-04-04T12:34:57.265Z</time></trkpt><trkpt lat="41.5059545" lon="13.2737796"><ele>51.0</ele><time>2026-04-04T12:34:58.275Z</time></trkpt><trkpt lat="41.5059386" lon="13.2736781"><ele>51.0</ele><time>2026-04-04T12:34:59.275Z</time></trkpt><trkpt lat="41.5059207" lon="13.2735621"><ele>51.0</ele><time>2026-04-04T12:35:00.276Z</time></trkpt><trkpt lat="41.505896" lon="13.2734407"><ele>51.0</ele><time>2026-04-04T12:35:01.275Z</time></trkpt><trkpt lat="41.5058608" lon="13.2733136"><ele>51.0</ele><time>2026-04-04T12:35:02.313Z</time></trkpt><trkpt lat="41.5058202" lon="13.2731865"><ele>51.0</ele><time>2026-04-04T12:35:03.27Z</time></trkpt><trkpt lat="41.5057893" lon="13.273067"><ele>51.0</ele><time>2026-04-04T12:35:04.266Z</time></trkpt><trkpt lat="41.5057556" lon="13.2729484"><ele>51.0</ele><time>2026-04-04T12:35:05.273Z</time></trkpt><trkpt lat="41.5057387" lon="13.2728327"><ele>51.0</ele><time>2026-04-04T12:35:07.274Z</time></trkpt><trkpt lat="41.5058009" lon="13.2727135"><ele>51.0</ele><time>2026-04-04T12:35:10.284Z</time></trkpt><trkpt lat="41.5058393" lon="13.2726448"><ele>51.0</ele><time>2026-04-04T12:35:11.271Z</time></trkpt><trkpt lat="41.5058904" lon="13.2724661"><ele>51.0</ele><time>2026-04-04T12:35:13.27Z</time></trkpt><trkpt lat="41.5059082" lon="13.2723831"><ele>51.0</ele><time>2026-04-04T12:35:14.276Z</time></trkpt><trkpt lat="41.5058748" lon="13.272286"><ele>51.0</ele><time>2026-04-04T12:35:16.28Z</time></trkpt><trkpt lat="41.5057547" lon="13.2722311"><ele>51.0</ele><time>2026-04-04T12:35:18.282Z</time></trkpt><trkpt lat="41.5056531" lon="13.2722208"><ele>51.0</ele><time>2026-04-04T12:35:19.284Z</time></trkpt><trkpt lat="41.5055358" lon="13.2721983"><ele>50.75</ele><time>2026-04-04T12:35:20.273Z</time></trkpt><trkpt lat="41.5054267" lon="13.2721561"><ele>50.5</ele><time>2026-04-04T12:35:21.28Z</time></trkpt><trkpt lat="41.5053297" lon="13.2720809"><ele>50.25</ele><time>2026-04-04T12:35:22.281Z</time></trkpt><trkpt lat="41.5052412" lon="13.2719716"><ele>50.0</ele><time>2026-04-04T12:35:23.283Z</time></trkpt><trkpt lat="41.5051565" lon="13.2718466"><ele>49.75</ele><time>2026-04-04T12:35:24.287Z</time></trkpt><trkpt lat="41.505077" lon="13.2717211"><ele>49.5</ele><time>2026-04-04T12:35:25.277Z</time></trkpt><trkpt lat="41.5050075" lon="13.2715781"><ele>49.25</ele><time>2026-04-04T12:35:26.274Z</time></trkpt><trkpt lat="41.5049352" lon="13.2714302"><ele>49.0</ele><time>2026-04-04T12:35:27.266Z</time></trkpt><trkpt lat="41.5048651" lon="13.2712797"><ele>48.666666666666664</ele><time>2026-04-04T12:35:28.271Z</time></trkpt><trkpt lat="41.5047963" lon="13.2711161"><ele>48.33333333333333</ele><time>2026-04-04T12:35:29.269Z</time></trkpt><trkpt lat="41.5047297" lon="13.2709251"><ele>48.0</ele><time>2026-04-04T12:35:30.273Z</time></trkpt><trkpt lat="41.5046699" lon="13.2707031"><ele>47.666666666666664</ele><time>2026-04-04T12:35:31.273Z</time></trkpt><trkpt lat="41.5046137" lon="13.2704773"><ele>47.33333333333333</ele><time>2026-04-04T12:35:32.274Z</time></trkpt><trkpt lat="41.5045798" lon="13.2702507"><ele>47.0</ele><time>2026-04-04T12:35:33.269Z</time></trkpt><trkpt lat="41.5045418" lon="13.270026"><ele>47.0</ele><time>2026-04-04T12:35:34.273Z</time></trkpt><trkpt lat="41.5045028" lon="13.2698109"><ele>47.0</ele><time>2026-04-04T12:35:35.269Z</time></trkpt><trkpt lat="41.5044393" lon="13.2696188"><ele>47.0</ele><time>2026-04-04T12:35:36.27Z</time></trkpt><trkpt lat="41.5043746" lon="13.2694123"><ele>47.0</ele><time>2026-04-04T12:35:37.269Z</time></trkpt><trkpt lat="41.5043296" lon="13.2692054"><ele>47.0</ele><time>2026-04-04T12:35:38.269Z</time></trkpt><trkpt lat="41.5042765" lon="13.2690106"><ele>47.0</ele><time>2026-04-04T12:35:39.272Z</time></trkpt><trkpt lat="41.5042377" lon="13.2688369"><ele>47.6</ele><time>2026-04-04T12:35:40.283Z</time></trkpt><trkpt lat="41.5042087" lon="13.2686715"><ele>48.2</ele><time>2026-04-04T12:35:41.292Z</time></trkpt><trkpt lat="41.5041587" lon="13.2685329"><ele>48.8</ele><time>2026-04-04T12:35:42.268Z</time></trkpt><trkpt lat="41.5041084" lon="13.2684069"><ele>49.4</ele><time>2026-04-04T12:35:43.272Z</time></trkpt><trkpt lat="41.5040958" lon="13.2682893"><ele>50.0</ele><time>2026-04-04T12:35:44.281Z</time></trkpt><trkpt lat="41.5041052" lon="13.2681729"><ele>50.2</ele><time>2026-04-04T12:35:45.273Z</time></trkpt><trkpt lat="41.5041123" lon="13.2680762"><ele>50.4</ele><time>2026-04-04T12:35:46.271Z</time></trkpt><trkpt lat="41.5041037" lon="13.267962"><ele>50.599999999999994</ele><time>2026-04-04T12:35:47.279Z</time></trkpt><trkpt lat="41.5040971" lon="13.26784"><ele>50.8</ele><time>2026-04-04T12:35:48.275Z</time></trkpt><trkpt lat="41.5040711" lon="13.2677073"><ele>51.0</ele><time>2026-04-04T12:35:49.288Z</time></trkpt><trkpt lat="41.5040457" lon="13.2675396"><ele>51.0</ele><time>2026-04-04T12:35:50.277Z</time></trkpt><trkpt lat="41.5040057" lon="13.2673659"><ele>51.0</ele><time>2026-04-04T12:35:51.275Z</time></trkpt><trkpt lat="41.503963" lon="13.2671778"><ele>51.0</ele><time>2026-04-04T12:35:52.281Z</time></trkpt><trkpt lat="41.5039275" lon="13.2669815"><ele>51.0</ele><time>2026-04-04T12:35:53.273Z</time></trkpt><trkpt lat="41.5038842" lon="13.2667919"><ele>50.33333333333333</ele><time>2026-04-04T12:35:54.288Z</time></trkpt><trkpt lat="41.5038419" lon="13.2665868"><ele>49.666666666666664</ele><time>2026-04-04T12:35:55.277Z</time></trkpt><trkpt lat="41.5037968" lon="13.2663792"><ele>49.0</ele><time>2026-04-04T12:35:56.275Z</time></trkpt><trkpt lat="41.503743" lon="13.2661848"><ele>48.25</ele><time>2026-04-04T12:35:57.276Z</time></trkpt><trkpt lat="41.5036891" lon="13.2659951"><ele>47.5</ele><time>2026-04-04T12:35:58.28Z</time></trkpt><trkpt lat="41.5036439" lon="13.2658153"><ele>46.75</ele><time>2026-04-04T12:35:59.272Z</time></trkpt><trkpt lat="41.5036183" lon="13.2656279"><ele>46.0</ele><time>2026-04-04T12:36:00.289Z</time></trkpt><trkpt lat="41.5036046" lon="13.2654245"><ele>45.66666666666667</ele><time>2026-04-04T12:36:01.275Z</time></trkpt><trkpt lat="41.5035912" lon="13.2652058"><ele>45.333333333333336</ele><time>2026-04-04T12:36:02.276Z</time></trkpt><trkpt lat="41.5035753" lon="13.264978"><ele>45.0</ele><time>2026-04-04T12:36:03.274Z</time></trkpt><trkpt lat="41.5035624" lon="13.2647416"><ele>45.0</ele><time>2026-04-04T12:36:04.277Z</time></trkpt><trkpt lat="41.503554" lon="13.2644997"><ele>45.0</ele><time>2026-04-04T12:36:05.276Z</time></trkpt><trkpt lat="41.5035529" lon="13.264254"><ele>45.0</ele><time>2026-04-04T12:36:06.285Z</time></trkpt><trkpt lat="41.5035553" lon="13.264005"><ele>45.0</ele><time>2026-04-04T12:36:07.275Z</time></trkpt><trkpt lat="41.5035603" lon="13.2637542"><ele>45.0</ele><time>2026-04-04T12:36:08.279Z</time></trkpt><trkpt lat="41.5035721" lon="13.2635081"><ele>45.0</ele><time>2026-04-04T12:36:09.272Z</time></trkpt><trkpt lat="41.5035936" lon="13.2632657"><ele>45.0</ele><time>2026-04-04T12:36:10.272Z</time></trkpt><trkpt lat="41.5036197" lon="13.2630348"><ele>45.0</ele><time>2026-04-04T12:36:11.268Z</time></trkpt><trkpt lat="41.5036408" lon="13.2628253"><ele>45.0</ele><time>2026-04-04T12:36:12.269Z</time></trkpt><trkpt lat="41.5036558" lon="13.2626237"><ele>45.0</ele><time>2026-04-04T12:36:13.271Z</time></trkpt><trkpt lat="41.5036602" lon="13.2624372"><ele>45.0</ele><time>2026-04-04T12:36:14.272Z</time></trkpt><trkpt lat="41.5036566" lon="13.2622737"><ele>45.0</ele><time>2026-04-04T12:36:15.273Z</time></trkpt><trkpt lat="41.5036523" lon="13.2621435"><ele>45.0</ele><time>2026-04-04T12:36:16.271Z</time></trkpt><trkpt lat="41.5036537" lon="13.2620517"><ele>45.0</ele><time>2026-04-04T12:36:17.275Z</time></trkpt><trkpt lat="41.5036932" lon="13.2619415"><ele>45.6</ele><time>2026-04-04T12:36:19.274Z</time></trkpt><trkpt lat="41.5037507" lon="13.2618934"><ele>46.2</ele><time>2026-04-04T12:36:20.272Z</time></trkpt><trkpt lat="41.503825" lon="13.2618317"><ele>46.8</ele><time>2026-04-04T12:36:21.272Z</time></trkpt><trkpt lat="41.5039072" lon="13.261737"><ele>47.4</ele><time>2026-04-04T12:36:22.274Z</time></trkpt><trkpt lat="41.5039889" lon="13.2616223"><ele>48.0</ele><time>2026-04-04T12:36:23.275Z</time></trkpt><trkpt lat="41.5040717" lon="13.2614832"><ele>47.666666666666664</ele><time>2026-04-04T12:36:24.275Z</time></trkpt><trkpt lat="41.5041564" lon="13.2613203"><ele>47.33333333333333</ele><time>2026-04-04T12:36:25.275Z</time></trkpt><trkpt lat="41.5042389" lon="13.2611502"><ele>47.0</ele><time>2026-04-04T12:36:26.276Z</time></trkpt><trkpt lat="41.5043173" lon="13.2609676"><ele>47.0</ele><time>2026-04-04T12:36:27.272Z</time></trkpt><trkpt lat="41.5043807" lon="13.260765"><ele>47.0</ele><time>2026-04-04T12:36:28.278Z</time></trkpt><trkpt lat="41.504426" lon="13.2605425"><ele>47.0</ele><time>2026-04-04T12:36:29.265Z</time></trkpt><trkpt lat="41.5044566" lon="13.260303"><ele>47.0</ele><time>2026-04-04T12:36:30.269Z</time></trkpt><trkpt lat="41.5044762" lon="13.2600594"><ele>47.0</ele><time>2026-04-04T12:36:31.27Z</time></trkpt><trkpt lat="41.5044764" lon="13.2598101"><ele>47.0</ele><time>2026-04-04T12:36:32.272Z</time></trkpt><trkpt lat="41.5044566" lon="13.2595577"><ele>47.0</ele><time>2026-04-04T12:36:33.268Z</time></trkpt><trkpt lat="41.5044214" lon="13.2593037"><ele>47.0</ele><time>2026-04-04T12:36:34.278Z</time></trkpt><trkpt lat="41.5043799" lon="13.2590398"><ele>47.0</ele><time>2026-04-04T12:36:35.271Z</time></trkpt><trkpt lat="41.5043336" lon="13.2587712"><ele>47.33333333333333</ele><time>2026-04-04T12:36:36.271Z</time></trkpt><trkpt lat="41.504284" lon="13.2585007"><ele>47.666666666666664</ele><time>2026-04-04T12:36:37.273Z</time></trkpt><trkpt lat="41.5042323" lon="13.2582273"><ele>48.0</ele><time>2026-04-04T12:36:38.271Z</time></trkpt><trkpt lat="41.5041786" lon="13.2579505"><ele>47.0</ele><time>2026-04-04T12:36:39.269Z</time></trkpt><trkpt lat="41.5041191" lon="13.2576724"><ele>46.0</ele><time>2026-04-04T12:36:40.271Z</time></trkpt><trkpt lat="41.5040462" lon="13.2573935"><ele>45.0</ele><time>2026-04-04T12:36:41.27Z</time></trkpt><trkpt lat="41.5039608" lon="13.2571138"><ele>43.5</ele><time>2026-04-04T12:36:42.283Z</time></trkpt><trkpt lat="41.5038683" lon="13.2568334"><ele>42.0</ele><time>2026-04-04T12:36:43.274Z</time></trkpt><trkpt lat="41.5037752" lon="13.2565519"><ele>42.0</ele><time>2026-04-04T12:36:44.273Z</time></trkpt><trkpt lat="41.5036824" lon="13.2562717"><ele>42.0</ele><time>2026-04-04T12:36:45.271Z</time></trkpt><trkpt lat="41.5035907" lon="13.2559932"><ele>42.0</ele><time>2026-04-04T12:36:46.268Z</time></trkpt><trkpt lat="41.5034992" lon="13.2557127"><ele>42.0</ele><time>2026-04-04T12:36:47.277Z</time></trkpt><trkpt lat="41.5034118" lon="13.2554292"><ele>42.0</ele><time>2026-04-04T12:36:48.281Z</time></trkpt><trkpt lat="41.5033382" lon="13.2551443"><ele>42.0</ele><time>2026-04-04T12:36:49.302Z</time></trkpt><trkpt lat="41.5032808" lon="13.2548497"><ele>42.0</ele><time>2026-04-04T12:36:50.273Z</time></trkpt><trkpt lat="41.5032355" lon="13.2545461"><ele>42.0</ele><time>2026-04-04T12:36:51.273Z</time></trkpt><trkpt lat="41.5031949" lon="13.2542377"><ele>41.5</ele><time>2026-04-04T12:36:52.273Z</time></trkpt><trkpt lat="41.5031546" lon="13.2539413"><ele>41.0</ele><time>2026-04-04T12:36:53.28Z</time></trkpt><trkpt lat="41.5031095" lon="13.2536359"><ele>41.0</ele><time>2026-04-04T12:36:54.276Z</time></trkpt><trkpt lat="41.5030669" lon="13.2533302"><ele>41.0</ele><time>2026-04-04T12:36:55.267Z</time></trkpt><trkpt lat="41.5030243" lon="13.2530253"><ele>41.5</ele><time>2026-04-04T12:36:56.271Z</time></trkpt><trkpt lat="41.5029782" lon="13.2527166"><ele>42.0</ele><time>2026-04-04T12:36:57.265Z</time></trkpt><trkpt lat="41.5029371" lon="13.2524144"><ele>42.0</ele><time>2026-04-04T12:36:58.272Z</time></trkpt><trkpt lat="41.5029005" lon="13.2521114"><ele>42.0</ele><time>2026-04-04T12:36:59.274Z</time></trkpt><trkpt lat="41.5028724" lon="13.2518078"><ele>42.0</ele><time>2026-04-04T12:37:00.272Z</time></trkpt><trkpt lat="41.5028505" lon="13.2514991"><ele>42.0</ele><time>2026-04-04T12:37:01.27Z</time></trkpt><trkpt lat="41.5028317" lon="13.2511853"><ele>41.0</ele><time>2026-04-04T12:37:02.277Z</time></trkpt><trkpt lat="41.5028153" lon="13.2508693"><ele>40.0</ele><time>2026-04-04T12:37:03.277Z</time></trkpt><trkpt lat="41.5028005" lon="13.2505537"><ele>40.0</ele><time>2026-04-04T12:37:04.279Z</time></trkpt><trkpt lat="41.5027863" lon="13.2502383"><ele>40.0</ele><time>2026-04-04T12:37:05.27Z</time></trkpt><trkpt lat="41.5027711" lon="13.2499196"><ele>39.66666666666667</ele><time>2026-04-04T12:37:06.275Z</time></trkpt><trkpt lat="41.5027554" lon="13.2496142"><ele>39.333333333333336</ele><time>2026-04-04T12:37:07.273Z</time></trkpt><trkpt lat="41.5027378" lon="13.249333"><ele>39.0</ele><time>2026-04-04T12:37:08.276Z</time></trkpt><trkpt lat="41.5027235" lon="13.2490727"><ele>38.666666666666664</ele><time>2026-04-04T12:37:09.276Z</time></trkpt><trkpt lat="41.5027095" lon="13.2488204"><ele>38.33333333333333</ele><time>2026-04-04T12:37:10.271Z</time></trkpt><trkpt lat="41.5026915" lon="13.2485649"><ele>38.0</ele><time>2026-04-04T12:37:11.285Z</time></trkpt><trkpt lat="41.5026633" lon="13.2483145"><ele>38.666666666666664</ele><time>2026-04-04T12:37:12.272Z</time></trkpt><trkpt lat="41.5026221" lon="13.2480809"><ele>39.333333333333336</ele><time>2026-04-04T12:37:13.275Z</time></trkpt><trkpt lat="41.5025638" lon="13.2478755"><ele>40.0</ele><time>2026-04-04T12:37:14.277Z</time></trkpt><trkpt lat="41.5024897" lon="13.2476908"><ele>40.0</ele><time>2026-04-04T12:37:15.273Z</time></trkpt><trkpt lat="41.5024056" lon="13.2475077"><ele>40.0</ele><time>2026-04-04T12:37:16.285Z</time></trkpt><trkpt lat="41.5023188" lon="13.2473144"><ele>40.0</ele><time>2026-04-04T12:37:17.273Z</time></trkpt><trkpt lat="41.5022325" lon="13.2471045"><ele>40.66666666666667</ele><time>2026-04-04T12:37:18.269Z</time></trkpt><trkpt lat="41.5021473" lon="13.2468817"><ele>41.333333333333336</ele><time>2026-04-04T12:37:19.277Z</time></trkpt><trkpt lat="41.5020533" lon="13.246661"><ele>42.0</ele><time>2026-04-04T12:37:20.27Z</time></trkpt><trkpt lat="41.5019435" lon="13.2464448"><ele>43.0</ele><time>2026-04-04T12:37:21.282Z</time></trkpt><trkpt lat="41.5018243" lon="13.2462317"><ele>44.0</ele><time>2026-04-04T12:37:22.275Z</time></trkpt><trkpt lat="41.5016996" lon="13.2460161"><ele>45.0</ele><time>2026-04-04T12:37:23.266Z</time></trkpt><trkpt lat="41.5015723" lon="13.2457967"><ele>46.33333333333333</ele><time>2026-04-04T12:37:24.272Z</time></trkpt><trkpt lat="41.5014477" lon="13.2455792"><ele>47.666666666666664</ele><time>2026-04-04T12:37:25.27Z</time></trkpt><trkpt lat="41.5013293" lon="13.2453729"><ele>49.0</ele><time>2026-04-04T12:37:26.279Z</time></trkpt><trkpt lat="41.5012207" lon="13.2451908"><ele>47.5</ele><time>2026-04-04T12:37:27.274Z</time></trkpt><trkpt lat="41.5011205" lon="13.2450292"><ele>46.0</ele><time>2026-04-04T12:37:28.274Z</time></trkpt><trkpt lat="41.5010327" lon="13.2448813"><ele>44.5</ele><time>2026-04-04T12:37:29.273Z</time></trkpt><trkpt lat="41.5009637" lon="13.244737"><ele>43.0</ele><time>2026-04-04T12:37:30.275Z</time></trkpt><trkpt lat="41.500914" lon="13.2445879"><ele>43.0</ele><time>2026-04-04T12:37:31.281Z</time></trkpt><trkpt lat="41.5008868" lon="13.2444256"><ele>43.0</ele><time>2026-04-04T12:37:32.269Z</time></trkpt><trkpt lat="41.5008556" lon="13.2442596"><ele>43.0</ele><time>2026-04-04T12:37:33.28Z</time></trkpt><trkpt lat="41.5008257" lon="13.2440935"><ele>43.0</ele><time>2026-04-04T12:37:34.281Z</time></trkpt><trkpt lat="41.5007962" lon="13.2439264"><ele>43.2</ele><time>2026-04-04T12:37:35.274Z</time></trkpt><trkpt lat="41.5007691" lon="13.243772"><ele>43.4</ele><time>2026-04-04T12:37:36.272Z</time></trkpt><trkpt lat="41.5007491" lon="13.2436384"><ele>43.6</ele><time>2026-04-04T12:37:37.276Z</time></trkpt><trkpt lat="41.500733" lon="13.2435185"><ele>43.800000000000004</ele><time>2026-04-04T12:37:38.267Z</time></trkpt><trkpt lat="41.5007179" lon="13.2434064"><ele>44.0</ele><time>2026-04-04T12:37:39.272Z</time></trkpt><trkpt lat="41.5006944" lon="13.2432867"><ele>44.0</ele><time>2026-04-04T12:37:40.277Z</time></trkpt><trkpt lat="41.5006698" lon="13.2431763"><ele>44.0</ele><time>2026-04-04T12:37:41.273Z</time></trkpt><trkpt lat="41.5006448" lon="13.2430799"><ele>44.0</ele><time>2026-04-04T12:37:42.302Z</time></trkpt><trkpt lat="41.5006114" lon="13.2430082"><ele>44.0</ele><time>2026-04-04T12:37:43.289Z</time></trkpt><trkpt lat="41.5004964" lon="13.2429463"><ele>44.0</ele><time>2026-04-04T12:37:45.271Z</time></trkpt><trkpt lat="41.5004178" lon="13.2429463"><ele>44.0</ele><time>2026-04-04T12:37:46.277Z</time></trkpt><trkpt lat="41.5003393" lon="13.2429907"><ele>43.285714285714285</ele><time>2026-04-04T12:37:47.278Z</time></trkpt><trkpt lat="41.500274" lon="13.2430448"><ele>42.57142857142857</ele><time>2026-04-04T12:37:48.274Z</time></trkpt><trkpt lat="41.5002075" lon="13.2431053"><ele>41.85714285714286</ele><time>2026-04-04T12:37:49.282Z</time></trkpt><trkpt lat="41.5001459" lon="13.2431475"><ele>41.14285714285714</ele><time>2026-04-04T12:37:50.269Z</time></trkpt><trkpt lat="41.5000836" lon="13.2431791"><ele>40.42857142857142</ele><time>2026-04-04T12:37:51.277Z</time></trkpt><trkpt lat="41.5000199" lon="13.2431878"><ele>39.714285714285715</ele><time>2026-04-04T12:37:52.277Z</time></trkpt><trkpt lat="41.4999552" lon="13.243174"><ele>39.0</ele><time>2026-04-04T12:37:53.27Z</time></trkpt><trkpt lat="41.4998912" lon="13.2431407"><ele>38.833333333333336</ele><time>2026-04-04T12:37:54.28Z</time></trkpt><trkpt lat="41.4998287" lon="13.2430987"><ele>38.666666666666664</ele><time>2026-04-04T12:37:55.274Z</time></trkpt><trkpt lat="41.4997648" lon="13.2430482"><ele>38.5</ele><time>2026-04-04T12:37:56.277Z</time></trkpt><trkpt lat="41.49969" lon="13.2429867"><ele>38.33333333333333</ele><time>2026-04-04T12:37:57.277Z</time></trkpt><trkpt lat="41.4996082" lon="13.2429141"><ele>38.166666666666664</ele><time>2026-04-04T12:37:58.275Z</time></trkpt><trkpt lat="41.4995264" lon="13.2428254"><ele>38.0</ele><time>2026-04-04T12:37:59.277Z</time></trkpt><trkpt lat="41.4994408" lon="13.242725"><ele>37.666666666666664</ele><time>2026-04-04T12:38:00.276Z</time></trkpt><trkpt lat="41.499352" lon="13.2425801"><ele>37.333333333333336</ele><time>2026-04-04T12:38:01.283Z</time></trkpt><trkpt lat="41.4992554" lon="13.2424266"><ele>37.0</ele><time>2026-04-04T12:38:02.284Z</time></trkpt><trkpt lat="41.4991469" lon="13.2422601"><ele>37.0</ele><time>2026-04-04T12:38:03.277Z</time></trkpt><trkpt lat="41.4990309" lon="13.2420843"><ele>37.0</ele><time>2026-04-04T12:38:04.268Z</time></trkpt><trkpt lat="41.4989133" lon="13.2418958"><ele>37.0</ele><time>2026-04-04T12:38:05.273Z</time></trkpt><trkpt lat="41.4987913" lon="13.2416917"><ele>37.0</ele><time>2026-04-04T12:38:06.272Z</time></trkpt><trkpt lat="41.4986637" lon="13.2414889"><ele>37.0</ele><time>2026-04-04T12:38:07.296Z</time></trkpt><trkpt lat="41.498535" lon="13.2412811"><ele>37.0</ele><time>2026-04-04T12:38:08.273Z</time></trkpt><trkpt lat="41.4984109" lon="13.2410769"><ele>37.0</ele><time>2026-04-04T12:38:09.272Z</time></trkpt><trkpt lat="41.4982838" lon="13.2408623"><ele>37.0</ele><time>2026-04-04T12:38:10.266Z</time></trkpt><trkpt lat="41.4981634" lon="13.2406454"><ele>37.0</ele><time>2026-04-04T12:38:11.268Z</time></trkpt><trkpt lat="41.4980362" lon="13.2404306"><ele>37.0</ele><time>2026-04-04T12:38:12.272Z</time></trkpt><trkpt lat="41.4979104" lon="13.2402256"><ele>37.0</ele><time>2026-04-04T12:38:13.274Z</time></trkpt><trkpt lat="41.4977917" lon="13.2400372"><ele>37.0</ele><time>2026-04-04T12:38:14.272Z</time></trkpt><trkpt lat="41.4976835" lon="13.2398651"><ele>36.333333333333336</ele><time>2026-04-04T12:38:15.278Z</time></trkpt><trkpt lat="41.4975918" lon="13.2396899"><ele>35.666666666666664</ele><time>2026-04-04T12:38:16.271Z</time></trkpt><trkpt lat="41.4975028" lon="13.2395172"><ele>35.0</ele><time>2026-04-04T12:38:17.285Z</time></trkpt><trkpt lat="41.4974321" lon="13.2393237"><ele>35.0</ele><time>2026-04-04T12:38:18.282Z</time></trkpt><trkpt lat="41.4973556" lon="13.2391392"><ele>35.0</ele><time>2026-04-04T12:38:19.283Z</time></trkpt><trkpt lat="41.4972629" lon="13.2389765"><ele>35.0</ele><time>2026-04-04T12:38:20.274Z</time></trkpt><trkpt lat="41.497161" lon="13.2388287"><ele>35.0</ele><time>2026-04-04T12:38:21.273Z</time></trkpt><trkpt lat="41.4970441" lon="13.238722"><ele>35.0</ele><time>2026-04-04T12:38:22.277Z</time></trkpt><trkpt lat="41.496913" lon="13.2386216"><ele>35.0</ele><time>2026-04-04T12:38:23.287Z</time></trkpt><trkpt lat="41.4967892" lon="13.2385203"><ele>35.0</ele><time>2026-04-04T12:38:24.275Z</time></trkpt><trkpt lat="41.4966894" lon="13.2384111"><ele>35.0</ele><time>2026-04-04T12:38:25.276Z</time></trkpt><trkpt lat="41.4966109" lon="13.2382683"><ele>35.0</ele><time>2026-04-04T12:38:26.274Z</time></trkpt><trkpt lat="41.4965417" lon="13.2381128"><ele>35.0</ele><time>2026-04-04T12:38:27.278Z</time></trkpt><trkpt lat="41.4964702" lon="13.2379495"><ele>35.0</ele><time>2026-04-04T12:38:28.27Z</time></trkpt><trkpt lat="41.4963661" lon="13.2378043"><ele>35.0</ele><time>2026-04-04T12:38:29.275Z</time></trkpt><trkpt lat="41.4962392" lon="13.2376266"><ele>35.0</ele><time>2026-04-04T12:38:30.275Z</time></trkpt><trkpt lat="41.496112" lon="13.2374428"><ele>35.0</ele><time>2026-04-04T12:38:31.277Z</time></trkpt><trkpt lat="41.4959792" lon="13.2372588"><ele>35.0</ele><time>2026-04-04T12:38:32.285Z</time></trkpt><trkpt lat="41.4958449" lon="13.2370759"><ele>35.0</ele><time>2026-04-04T12:38:33.273Z</time></trkpt><trkpt lat="41.4957265" lon="13.2369028"><ele>35.0</ele><time>2026-04-04T12:38:34.28Z</time></trkpt><trkpt lat="41.4956167" lon="13.2367471"><ele>35.0</ele><time>2026-04-04T12:38:35.276Z</time></trkpt><trkpt lat="41.4955076" lon="13.2365898"><ele>35.0</ele><time>2026-04-04T12:38:36.273Z</time></trkpt><trkpt lat="41.4954065" lon="13.2364147"><ele>35.0</ele><time>2026-04-04T12:38:37.273Z</time></trkpt><trkpt lat="41.4953145" lon="13.2362344"><ele>35.33333333333333</ele><time>2026-04-04T12:38:38.272Z</time></trkpt><trkpt lat="41.4952417" lon="13.2360289"><ele>35.666666666666664</ele><time>2026-04-04T12:38:39.277Z</time></trkpt><trkpt lat="41.4951643" lon="13.2358199"><ele>36.0</ele><time>2026-04-04T12:38:40.268Z</time></trkpt><trkpt lat="41.495086" lon="13.2356107"><ele>35.333333333333336</ele><time>2026-04-04T12:38:41.277Z</time></trkpt><trkpt lat="41.4950043" lon="13.2354085"><ele>34.66666666666667</ele><time>2026-04-04T12:38:42.272Z</time></trkpt><trkpt lat="41.4949271" lon="13.2352045"><ele>34.0</ele><time>2026-04-04T12:38:43.276Z</time></trkpt><trkpt lat="41.4948438" lon="13.2350149"><ele>34.0</ele><time>2026-04-04T12:38:44.275Z</time></trkpt><trkpt lat="41.4947789" lon="13.2348334"><ele>34.0</ele><time>2026-04-04T12:38:45.274Z</time></trkpt><trkpt lat="41.4947277" lon="13.2346686"><ele>34.0</ele><time>2026-04-04T12:38:46.269Z</time></trkpt><trkpt lat="41.4946922" lon="13.2344988"><ele>34.0</ele><time>2026-04-04T12:38:47.272Z</time></trkpt><trkpt lat="41.4946754" lon="13.2343065"><ele>34.0</ele><time>2026-04-04T12:38:48.275Z</time></trkpt><trkpt lat="41.4946622" lon="13.2341146"><ele>34.0</ele><time>2026-04-04T12:38:49.279Z</time></trkpt><trkpt lat="41.4946428" lon="13.2339201"><ele>34.0</ele><time>2026-04-04T12:38:50.272Z</time></trkpt><trkpt lat="41.4946062" lon="13.2337139"><ele>34.0</ele><time>2026-04-04T12:38:51.284Z</time></trkpt><trkpt lat="41.4945599" lon="13.2335067"><ele>34.0</ele><time>2026-04-04T12:38:52.267Z</time></trkpt><trkpt lat="41.4944879" lon="13.2332979"><ele>34.0</ele><time>2026-04-04T12:38:53.268Z</time></trkpt><trkpt lat="41.4944294" lon="13.2330924"><ele>34.0</ele><time>2026-04-04T12:38:54.275Z</time></trkpt><trkpt lat="41.4943737" lon="13.2328909"><ele>34.0</ele><time>2026-04-04T12:38:55.271Z</time></trkpt><trkpt lat="41.4943135" lon="13.2327179"><ele>34.0</ele><time>2026-04-04T12:38:56.28Z</time></trkpt><trkpt lat="41.4942317" lon="13.232566"><ele>34.0</ele><time>2026-04-04T12:38:57.274Z</time></trkpt><trkpt lat="41.4941398" lon="13.2324231"><ele>34.66666666666667</ele><time>2026-04-04T12:38:58.283Z</time></trkpt><trkpt lat="41.4940362" lon="13.2322974"><ele>35.333333333333336</ele><time>2026-04-04T12:38:59.273Z</time></trkpt><trkpt lat="41.4939435" lon="13.2321438"><ele>36.0</ele><time>2026-04-04T12:39:00.27Z</time></trkpt><trkpt lat="41.4938604" lon="13.2319492"><ele>36.0</ele><time>2026-04-04T12:39:01.273Z</time></trkpt><trkpt lat="41.4937905" lon="13.2317646"><ele>36.0</ele><time>2026-04-04T12:39:02.281Z</time></trkpt><trkpt lat="41.4937288" lon="13.2315805"><ele>36.0</ele><time>2026-04-04T12:39:03.277Z</time></trkpt><trkpt lat="41.4936773" lon="13.231401"><ele>36.0</ele><time>2026-04-04T12:39:04.274Z</time></trkpt><trkpt lat="41.493622" lon="13.2312323"><ele>36.0</ele><time>2026-04-04T12:39:05.272Z</time></trkpt><trkpt lat="41.4935797" lon="13.2310455"><ele>36.0</ele><time>2026-04-04T12:39:06.279Z</time></trkpt><trkpt lat="41.4935205" lon="13.2308668"><ele>36.0</ele><time>2026-04-04T12:39:07.273Z</time></trkpt><trkpt lat="41.493458" lon="13.2306924"><ele>36.333333333333336</ele><time>2026-04-04T12:39:08.268Z</time></trkpt><trkpt lat="41.4933845" lon="13.2305053"><ele>36.66666666666667</ele><time>2026-04-04T12:39:09.295Z</time></trkpt><trkpt lat="41.4933067" lon="13.2303089"><ele>37.0</ele><time>2026-04-04T12:39:10.276Z</time></trkpt><trkpt lat="41.493232" lon="13.2301094"><ele>37.0</ele><time>2026-04-04T12:39:11.277Z</time></trkpt><trkpt lat="41.4931544" lon="13.2299174"><ele>37.0</ele><time>2026-04-04T12:39:12.276Z</time></trkpt><trkpt lat="41.4930751" lon="13.2297219"><ele>37.0</ele><time>2026-04-04T12:39:13.274Z</time></trkpt><trkpt lat="41.4930044" lon="13.2295199"><ele>37.333333333333336</ele><time>2026-04-04T12:39:14.286Z</time></trkpt><trkpt lat="41.4929539" lon="13.2293243"><ele>37.666666666666664</ele><time>2026-04-04T12:39:15.271Z</time></trkpt><trkpt lat="41.4929222" lon="13.2291326"><ele>38.0</ele><time>2026-04-04T12:39:16.276Z</time></trkpt><trkpt lat="41.4929069" lon="13.2289249"><ele>37.33333333333333</ele><time>2026-04-04T12:39:17.269Z</time></trkpt><trkpt lat="41.4929071" lon="13.2287047"><ele>36.666666666666664</ele><time>2026-04-04T12:39:18.275Z</time></trkpt><trkpt lat="41.4929194" lon="13.2284792"><ele>36.0</ele><time>2026-04-04T12:39:19.275Z</time></trkpt><trkpt lat="41.492934" lon="13.2282548"><ele>35.333333333333336</ele><time>2026-04-04T12:39:20.276Z</time></trkpt><trkpt lat="41.4929474" lon="13.2280448"><ele>34.66666666666667</ele><time>2026-04-04T12:39:21.279Z</time></trkpt><trkpt lat="41.4929695" lon="13.2278408"><ele>34.0</ele><time>2026-04-04T12:39:22.268Z</time></trkpt><trkpt lat="41.4929925" lon="13.2276551"><ele>34.0</ele><time>2026-04-04T12:39:23.286Z</time></trkpt><trkpt lat="41.4930173" lon="13.2274876"><ele>34.0</ele><time>2026-04-04T12:39:24.271Z</time></trkpt><trkpt lat="41.4930398" lon="13.2273404"><ele>34.0</ele><time>2026-04-04T12:39:25.273Z</time></trkpt><trkpt lat="41.4930652" lon="13.2272114"><ele>34.0</ele><time>2026-04-04T12:39:26.276Z</time></trkpt><trkpt lat="41.4930946" lon="13.2270965"><ele>34.0</ele><time>2026-04-04T12:39:27.271Z</time></trkpt><trkpt lat="41.4931294" lon="13.2269846"><ele>33.66666666666667</ele><time>2026-04-04T12:39:28.278Z</time></trkpt><trkpt lat="41.4931614" lon="13.2268825"><ele>33.333333333333336</ele><time>2026-04-04T12:39:29.276Z</time></trkpt><trkpt lat="41.4931919" lon="13.2267897"><ele>33.0</ele><time>2026-04-04T12:39:30.278Z</time></trkpt><trkpt lat="41.4932099" lon="13.2266933"><ele>32.666666666666664</ele><time>2026-04-04T12:39:31.28Z</time></trkpt><trkpt lat="41.4932252" lon="13.226587"><ele>32.33333333333333</ele><time>2026-04-04T12:39:32.274Z</time></trkpt><trkpt lat="41.4932356" lon="13.2264717"><ele>32.0</ele><time>2026-04-04T12:39:33.284Z</time></trkpt><trkpt lat="41.4932447" lon="13.2263502"><ele>31.999999999999996</ele><time>2026-04-04T12:39:34.282Z</time></trkpt><trkpt lat="41.4932532" lon="13.2262267"><ele>32.0</ele><time>2026-04-04T12:39:35.271Z</time></trkpt><trkpt lat="41.493251" lon="13.2261062"><ele>32.0</ele><time>2026-04-04T12:39:36.28Z</time></trkpt><trkpt lat="41.493241" lon="13.2259917"><ele>32.0</ele><time>2026-04-04T12:39:37.273Z</time></trkpt><trkpt lat="41.4932326" lon="13.2258775"><ele>31.999999999999996</ele><time>2026-04-04T12:39:38.292Z</time></trkpt><trkpt lat="41.4932284" lon="13.2257639"><ele>32.0</ele><time>2026-04-04T12:39:39.273Z</time></trkpt><trkpt lat="41.4932226" lon="13.2256662"><ele>32.33333333333333</ele><time>2026-04-04T12:39:40.275Z</time></trkpt><trkpt lat="41.4932122" lon="13.2255513"><ele>32.666666666666664</ele><time>2026-04-04T12:39:42.276Z</time></trkpt><trkpt lat="41.4932017" lon="13.2254403"><ele>33.0</ele><time>2026-04-04T12:39:45.273Z</time></trkpt><trkpt lat="41.493195" lon="13.2253446"><ele>33.333333333333336</ele><time>2026-04-04T12:39:48.271Z</time></trkpt><trkpt lat="41.4931835" lon="13.2252531"><ele>33.66666666666667</ele><time>2026-04-04T12:39:50.275Z</time></trkpt><trkpt lat="41.4931495" lon="13.2250947"><ele>34.0</ele><time>2026-04-04T12:39:52.274Z</time></trkpt><trkpt lat="41.4931317" lon="13.2250066"><ele>34.0</ele><time>2026-04-04T12:39:53.272Z</time></trkpt><trkpt lat="41.4930751" lon="13.2248649"><ele>34.0</ele><time>2026-04-04T12:39:55.272Z</time></trkpt><trkpt lat="41.4930443" lon="13.2247228"><ele>34.0</ele><time>2026-04-04T12:39:57.274Z</time></trkpt><trkpt lat="41.4930335" lon="13.2246385"><ele>34.0</ele><time>2026-04-04T12:39:58.273Z</time></trkpt><trkpt lat="41.4930203" lon="13.2245492"><ele>34.0</ele><time>2026-04-04T12:39:59.276Z</time></trkpt><trkpt lat="41.4930118" lon="13.2244486"><ele>34.0</ele><time>2026-04-04T12:40:00.271Z</time></trkpt><trkpt lat="41.4930165" lon="13.2243121"><ele>34.5</ele><time>2026-04-04T12:40:02.271Z</time></trkpt><trkpt lat="41.4930307" lon="13.2241538"><ele>35.0</ele><time>2026-04-04T12:40:04.272Z</time></trkpt><trkpt lat="41.4930435" lon="13.2240657"><ele>35.5</ele><time>2026-04-04T12:40:05.268Z</time></trkpt><trkpt lat="41.4930619" lon="13.2239564"><ele>36.0</ele><time>2026-04-04T12:40:06.275Z</time></trkpt><trkpt lat="41.4930751" lon="13.2238394"><ele>36.5</ele><time>2026-04-04T12:40:07.283Z</time></trkpt><trkpt lat="41.4930955" lon="13.2237267"><ele>37.0</ele><time>2026-04-04T12:40:08.278Z</time></trkpt><trkpt lat="41.4931098" lon="13.2236086"><ele>37.2</ele><time>2026-04-04T12:40:09.264Z</time></trkpt><trkpt lat="41.4931279" lon="13.2234815"><ele>37.400000000000006</ele><time>2026-04-04T12:40:10.271Z</time></trkpt><trkpt lat="41.4931424" lon="13.223361"><ele>37.599999999999994</ele><time>2026-04-04T12:40:11.276Z</time></trkpt><trkpt lat="41.4931527" lon="13.2232363"><ele>37.8</ele><time>2026-04-04T12:40:12.28Z</time></trkpt><trkpt lat="41.4931593" lon="13.2231082"><ele>38.0</ele><time>2026-04-04T12:40:13.276Z</time></trkpt><trkpt lat="41.4931595" lon="13.2229727"><ele>38.0</ele><time>2026-04-04T12:40:14.272Z</time></trkpt><trkpt lat="41.4931605" lon="13.2228392"><ele>38.0</ele><time>2026-04-04T12:40:15.276Z</time></trkpt><trkpt lat="41.4931683" lon="13.2227111"><ele>38.0</ele><time>2026-04-04T12:40:16.275Z</time></trkpt><trkpt lat="41.4931851" lon="13.2225763"><ele>38.0</ele><time>2026-04-04T12:40:17.281Z</time></trkpt><trkpt lat="41.4932107" lon="13.2224424"><ele>38.0</ele><time>2026-04-04T12:40:18.28Z</time></trkpt><trkpt lat="41.4932349" lon="13.2223096"><ele>37.6</ele><time>2026-04-04T12:40:19.276Z</time></trkpt><trkpt lat="41.4932499" lon="13.2221762"><ele>37.199999999999996</ele><time>2026-04-04T12:40:20.273Z</time></trkpt><trkpt lat="41.4932495" lon="13.2220357"><ele>36.8</ele><time>2026-04-04T12:40:21.277Z</time></trkpt><trkpt lat="41.4932449" lon="13.2218964"><ele>36.4</ele><time>2026-04-04T12:40:22.274Z</time></trkpt><trkpt lat="41.4932461" lon="13.2217551"><ele>36.0</ele><time>2026-04-04T12:40:23.271Z</time></trkpt><trkpt lat="41.4932428" lon="13.2216019"><ele>35.8</ele><time>2026-04-04T12:40:24.287Z</time></trkpt><trkpt lat="41.493233" lon="13.2214479"><ele>35.6</ele><time>2026-04-04T12:40:25.272Z</time></trkpt><trkpt lat="41.4932184" lon="13.2212992"><ele>35.4</ele><time>2026-04-04T12:40:26.271Z</time></trkpt><trkpt lat="41.4932154" lon="13.2211596"><ele>35.2</ele><time>2026-04-04T12:40:27.276Z</time></trkpt><trkpt lat="41.4932077" lon="13.2210157"><ele>35.0</ele><time>2026-04-04T12:40:28.275Z</time></trkpt><trkpt lat="41.4932054" lon="13.220891"><ele>35.0</ele><time>2026-04-04T12:40:29.284Z</time></trkpt><trkpt lat="41.4932248" lon="13.2207914"><ele>35.0</ele><time>2026-04-04T12:40:30.275Z</time></trkpt><trkpt lat="41.4932402" lon="13.2207086"><ele>35.0</ele><time>2026-04-04T12:40:31.275Z</time></trkpt><trkpt lat="41.4933349" lon="13.2205799"><ele>35.0</ele><time>2026-04-04T12:40:33.276Z</time></trkpt><trkpt lat="41.4934169" lon="13.2205162"><ele>35.0</ele><time>2026-04-04T12:40:34.272Z</time></trkpt><trkpt lat="41.4935002" lon="13.220437"><ele>35.0</ele><time>2026-04-04T12:40:35.269Z</time></trkpt><trkpt lat="41.4935832" lon="13.2203833"><ele>35.0</ele><time>2026-04-04T12:40:36.269Z</time></trkpt><trkpt lat="41.493654" lon="13.220346"><ele>35.0</ele><time>2026-04-04T12:40:37.271Z</time></trkpt><trkpt lat="41.4937698" lon="13.220317"><ele>35.0</ele><time>2026-04-04T12:40:39.28Z</time></trkpt><trkpt lat="41.4938518" lon="13.220368"><ele>35.0</ele><time>2026-04-04T12:40:41.268Z</time></trkpt><trkpt lat="41.4938734" lon="13.2202534"><ele>35.0</ele><time>2026-04-04T12:40:46.277Z</time></trkpt><trkpt lat="41.493831" lon="13.2201601"><ele>35.0</ele><time>2026-04-04T12:40:47.278Z</time></trkpt><trkpt lat="41.4937784" lon="13.220043"><ele>35.0</ele><time>2026-04-04T12:40:48.263Z</time></trkpt><trkpt lat="41.4937229" lon="13.2199107"><ele>35.0</ele><time>2026-04-04T12:40:49.282Z</time></trkpt><trkpt lat="41.493672" lon="13.2197798"><ele>35.0</ele><time>2026-04-04T12:40:50.274Z</time></trkpt><trkpt lat="41.4936232" lon="13.2196673"><ele>34.6</ele><time>2026-04-04T12:40:51.276Z</time></trkpt><trkpt lat="41.4935779" lon="13.2195671"><ele>34.2</ele><time>2026-04-04T12:40:52.272Z</time></trkpt><trkpt lat="41.4935545" lon="13.2194697"><ele>33.8</ele><time>2026-04-04T12:40:53.268Z</time></trkpt><trkpt lat="41.4935374" lon="13.2193623"><ele>33.4</ele><time>2026-04-04T12:40:54.274Z</time></trkpt><trkpt lat="41.4935344" lon="13.219221"><ele>33.0</ele><time>2026-04-04T12:40:55.275Z</time></trkpt><trkpt lat="41.4935365" lon="13.2190686"><ele>33.0</ele><time>2026-04-04T12:40:56.273Z</time></trkpt><trkpt lat="41.4935393" lon="13.2189086"><ele>33.0</ele><time>2026-04-04T12:40:57.283Z</time></trkpt><trkpt lat="41.4935518" lon="13.2187543"><ele>33.0</ele><time>2026-04-04T12:40:58.278Z</time></trkpt><trkpt lat="41.4935583" lon="13.2186093"><ele>33.0</ele><time>2026-04-04T12:40:59.272Z</time></trkpt><trkpt lat="41.4935609" lon="13.2184953"><ele>33.0</ele><time>2026-04-04T12:41:00.279Z</time></trkpt><trkpt lat="41.4935679" lon="13.2183911"><ele>33.0</ele><time>2026-04-04T12:41:01.276Z</time></trkpt><trkpt lat="41.4935737" lon="13.2182558"><ele>33.0</ele><time>2026-04-04T12:41:03.276Z</time></trkpt><trkpt lat="41.4935356" lon="13.2181736"><ele>33.0</ele><time>2026-04-04T12:41:05.276Z</time></trkpt><trkpt lat="41.4934268" lon="13.218064"><ele>33.0</ele><time>2026-04-04T12:41:07.279Z</time></trkpt><trkpt lat="41.493364" lon="13.2179703"><ele>33.0</ele><time>2026-04-04T12:41:08.279Z</time></trkpt><trkpt lat="41.4933058" lon="13.2178653"><ele>32.6</ele><time>2026-04-04T12:41:09.276Z</time></trkpt><trkpt lat="41.4932437" lon="13.2177558"><ele>32.199999999999996</ele><time>2026-04-04T12:41:10.276Z</time></trkpt><trkpt lat="41.4931767" lon="13.2176393"><ele>31.8</ele><time>2026-04-04T12:41:11.275Z</time></trkpt><trkpt lat="41.4931119" lon="13.2175094"><ele>31.4</ele><time>2026-04-04T12:41:12.313Z</time></trkpt><trkpt lat="41.4930541" lon="13.2173732"><ele>31.0</ele><time>2026-04-04T12:41:13.296Z</time></trkpt><trkpt lat="41.4930065" lon="13.217203"><ele>31.0</ele><time>2026-04-04T12:41:14.289Z</time></trkpt><trkpt lat="41.4929543" lon="13.2170411"><ele>31.0</ele><time>2026-04-04T12:41:15.277Z</time></trkpt><trkpt lat="41.4929138" lon="13.2168955"><ele>31.0</ele><time>2026-04-04T12:41:16.271Z</time></trkpt><trkpt lat="41.4928746" lon="13.2167542"><ele>31.0</ele><time>2026-04-04T12:41:17.278Z</time></trkpt><trkpt lat="41.4928305" lon="13.2166175"><ele>31.0</ele><time>2026-04-04T12:41:18.284Z</time></trkpt><trkpt lat="41.4927819" lon="13.2164855"><ele>31.0</ele><time>2026-04-04T12:41:19.271Z</time></trkpt><trkpt lat="41.4927363" lon="13.216364"><ele>31.0</ele><time>2026-04-04T12:41:20.28Z</time></trkpt><trkpt lat="41.4926804" lon="13.2162575"><ele>31.0</ele><time>2026-04-04T12:41:21.269Z</time></trkpt><trkpt lat="41.4926165" lon="13.2161493"><ele>31.0</ele><time>2026-04-04T12:41:22.275Z</time></trkpt><trkpt lat="41.4925512" lon="13.2160285"><ele>31.0</ele><time>2026-04-04T12:41:23.275Z</time></trkpt><trkpt lat="41.4924804" lon="13.2159097"><ele>31.0</ele><time>2026-04-04T12:41:24.272Z</time></trkpt><trkpt lat="41.4924096" lon="13.2157979"><ele>31.0</ele><time>2026-04-04T12:41:25.281Z</time></trkpt><trkpt lat="41.4923432" lon="13.2156849"><ele>31.0</ele><time>2026-04-04T12:41:26.272Z</time></trkpt><trkpt lat="41.4922716" lon="13.2155593"><ele>31.0</ele><time>2026-04-04T12:41:27.273Z</time></trkpt><trkpt lat="41.492199" lon="13.2154467"><ele>31.0</ele><time>2026-04-04T12:41:28.271Z</time></trkpt><trkpt lat="41.4921354" lon="13.2153528"><ele>31.0</ele><time>2026-04-04T12:41:29.274Z</time></trkpt><trkpt lat="41.4920664" lon="13.215264"><ele>31.0</ele><time>2026-04-04T12:41:30.275Z</time></trkpt><trkpt lat="41.4919923" lon="13.2151848"><ele>31.0</ele><time>2026-04-04T12:41:31.272Z</time></trkpt><trkpt lat="41.4919094" lon="13.215105"><ele>31.0</ele><time>2026-04-04T12:41:32.286Z</time></trkpt><trkpt lat="41.4918177" lon="13.2150218"><ele>31.0</ele><time>2026-04-04T12:41:33.275Z</time></trkpt><trkpt lat="41.4917124" lon="13.214936"><ele>31.0</ele><time>2026-04-04T12:41:34.271Z</time></trkpt><trkpt lat="41.4915959" lon="13.2148507"><ele>31.0</ele><time>2026-04-04T12:41:35.275Z</time></trkpt><trkpt lat="41.4914763" lon="13.2147719"><ele>31.0</ele><time>2026-04-04T12:41:36.277Z</time></trkpt><trkpt lat="41.4913548" lon="13.2146876"><ele>31.75</ele><time>2026-04-04T12:41:37.279Z</time></trkpt><trkpt lat="41.49123" lon="13.2146033"><ele>32.5</ele><time>2026-04-04T12:41:38.273Z</time></trkpt><trkpt lat="41.4911028" lon="13.2145078"><ele>33.25</ele><time>2026-04-04T12:41:39.286Z</time></trkpt><trkpt lat="41.4909703" lon="13.214418"><ele>34.0</ele><time>2026-04-04T12:41:40.277Z</time></trkpt><trkpt lat="41.490835" lon="13.2143284"><ele>34.0</ele><time>2026-04-04T12:41:41.276Z</time></trkpt><trkpt lat="41.4906985" lon="13.2142414"><ele>34.0</ele><time>2026-04-04T12:41:42.279Z</time></trkpt><trkpt lat="41.4905716" lon="13.2141588"><ele>34.0</ele><time>2026-04-04T12:41:43.273Z</time></trkpt><trkpt lat="41.4904536" lon="13.2140823"><ele>34.0</ele><time>2026-04-04T12:41:44.27Z</time></trkpt><trkpt lat="41.4903423" lon="13.2140107"><ele>33.5</ele><time>2026-04-04T12:41:45.28Z</time></trkpt><trkpt lat="41.4902335" lon="13.2139428"><ele>33.0</ele><time>2026-04-04T12:41:46.272Z</time></trkpt><trkpt lat="41.4901415" lon="13.213874"><ele>32.5</ele><time>2026-04-04T12:41:47.278Z</time></trkpt><trkpt lat="41.490047" lon="13.2137952"><ele>32.0</ele><time>2026-04-04T12:41:48.276Z</time></trkpt><trkpt lat="41.4899446" lon="13.2137042"><ele>32.0</ele><time>2026-04-04T12:41:49.267Z</time></trkpt><trkpt lat="41.489854" lon="13.2136039"><ele>32.0</ele><time>2026-04-04T12:41:50.266Z</time></trkpt><trkpt lat="41.4897732" lon="13.2134887"><ele>32.0</ele><time>2026-04-04T12:41:51.281Z</time></trkpt><trkpt lat="41.4897015" lon="13.2133809"><ele>32.0</ele><time>2026-04-04T12:41:52.268Z</time></trkpt><trkpt lat="41.4896529" lon="13.2132862"><ele>32.0</ele><time>2026-04-04T12:41:53.285Z</time></trkpt><trkpt lat="41.4896131" lon="13.2131998"><ele>31.833333333333332</ele><time>2026-04-04T12:41:54.273Z</time></trkpt><trkpt lat="41.489571" lon="13.2131136"><ele>31.666666666666664</ele><time>2026-04-04T12:41:55.275Z</time></trkpt><trkpt lat="41.4895235" lon="13.2130188"><ele>31.5</ele><time>2026-04-04T12:41:56.272Z</time></trkpt><trkpt lat="41.4894772" lon="13.2129158"><ele>31.333333333333336</ele><time>2026-04-04T12:41:57.27Z</time></trkpt><trkpt lat="41.4894319" lon="13.2128106"><ele>31.166666666666668</ele><time>2026-04-04T12:41:58.286Z</time></trkpt><trkpt lat="41.4893867" lon="13.2127149"><ele>31.0</ele><time>2026-04-04T12:41:59.274Z</time></trkpt><trkpt lat="41.4893489" lon="13.2126269"><ele>31.0</ele><time>2026-04-04T12:42:00.271Z</time></trkpt><trkpt lat="41.4893129" lon="13.2125513"><ele>31.000000000000004</ele><time>2026-04-04T12:42:01.269Z</time></trkpt><trkpt lat="41.4892805" lon="13.2124749"><ele>31.0</ele><time>2026-04-04T12:42:02.266Z</time></trkpt><trkpt lat="41.489244" lon="13.212401"><ele>31.0</ele><time>2026-04-04T12:42:03.283Z</time></trkpt><trkpt lat="41.4892085" lon="13.2123247"><ele>31.000000000000004</ele><time>2026-04-04T12:42:04.275Z</time></trkpt><trkpt lat="41.4891744" lon="13.2122482"><ele>31.0</ele><time>2026-04-04T12:42:05.276Z</time></trkpt><trkpt lat="41.4891396" lon="13.2121659"><ele>31.0</ele><time>2026-04-04T12:42:06.275Z</time></trkpt><trkpt lat="41.4890982" lon="13.2120813"><ele>31.166666666666668</ele><time>2026-04-04T12:42:07.269Z</time></trkpt><trkpt lat="41.4890557" lon="13.2119953"><ele>31.333333333333336</ele><time>2026-04-04T12:42:08.278Z</time></trkpt><trkpt lat="41.4890094" lon="13.2119111"><ele>31.5</ele><time>2026-04-04T12:42:09.285Z</time></trkpt><trkpt lat="41.4889566" lon="13.2117897"><ele>31.666666666666664</ele><time>2026-04-04T12:42:11.288Z</time></trkpt><trkpt lat="41.4889375" lon="13.2116964"><ele>31.833333333333332</ele><time>2026-04-04T12:42:13.274Z</time></trkpt><trkpt lat="41.4889757" lon="13.2115929"><ele>32.0</ele><time>2026-04-04T12:45:21.283Z</time></trkpt><trkpt lat="41.4889872" lon="13.2116847"><ele>32.0</ele><time>2026-04-04T12:45:25.274Z</time></trkpt><trkpt lat="41.4889846" lon="13.2117778"><ele>32.0</ele><time>2026-04-04T12:45:27.274Z</time></trkpt><trkpt lat="41.4890008" lon="13.2118658"><ele>32.0</ele><time>2026-04-04T12:45:29.279Z</time></trkpt><trkpt lat="41.4891647" lon="13.2121973"><ele>32.0</ele><time>2026-04-04T12:45:34.278Z</time></trkpt><trkpt lat="41.4892759" lon="13.2124459"><ele>31.75</ele><time>2026-04-04T12:45:37.278Z</time></trkpt><trkpt lat="41.4893399" lon="13.2125859"><ele>31.5</ele><time>2026-04-04T12:45:39.285Z</time></trkpt><trkpt lat="41.4893732" lon="13.2126611"><ele>31.25</ele><time>2026-04-04T12:45:40.277Z</time></trkpt><trkpt lat="41.4894397" lon="13.2128123"><ele>31.0</ele><time>2026-04-04T12:45:42.289Z</time></trkpt><trkpt lat="41.4895735" lon="13.2131073"><ele>31.333333333333336</ele><time>2026-04-04T12:45:45.281Z</time></trkpt><trkpt lat="41.489684" lon="13.2133239"><ele>31.666666666666664</ele><time>2026-04-04T12:45:47.283Z</time></trkpt><trkpt lat="41.4897385" lon="13.21343"><ele>32.0</ele><time>2026-04-04T12:45:48.277Z</time></trkpt><trkpt lat="41.4898687" lon="13.2136314"><ele>32.0</ele><time>2026-04-04T12:45:50.277Z</time></trkpt><trkpt lat="41.4901233" lon="13.2138759"><ele>32.0</ele><time>2026-04-04T12:45:53.275Z</time></trkpt><trkpt lat="41.4903868" lon="13.2140513"><ele>33.0</ele><time>2026-04-04T12:45:56.281Z</time></trkpt><trkpt lat="41.4906694" lon="13.2142246"><ele>34.0</ele><time>2026-04-04T12:45:59.275Z</time></trkpt><trkpt lat="41.4908876" lon="13.2143632"><ele>34.0</ele><time>2026-04-04T12:46:01.292Z</time></trkpt><trkpt lat="41.4909949" lon="13.2144318"><ele>34.0</ele><time>2026-04-04T12:46:02.277Z</time></trkpt><trkpt lat="41.4912151" lon="13.2145819"><ele>34.0</ele><time>2026-04-04T12:46:04.279Z</time></trkpt><trkpt lat="41.4913342" lon="13.2146729"><ele>33.0</ele><time>2026-04-04T12:46:05.274Z</time></trkpt><trkpt lat="41.4915621" lon="13.2148267"><ele>32.0</ele><time>2026-04-04T12:46:07.28Z</time></trkpt><trkpt lat="41.4916746" lon="13.2148981"><ele>31.0</ele><time>2026-04-04T12:46:08.313Z</time></trkpt><trkpt lat="41.4920221" lon="13.2151963"><ele>31.0</ele><time>2026-04-04T12:46:11.279Z</time></trkpt><trkpt lat="41.4923149" lon="13.215579"><ele>31.0</ele><time>2026-04-04T12:46:14.28Z</time></trkpt><trkpt lat="41.4925367" lon="13.2159602"><ele>31.0</ele><time>2026-04-04T12:46:17.274Z</time></trkpt><trkpt lat="41.4926043" lon="13.2160796"><ele>31.0</ele><time>2026-04-04T12:46:18.268Z</time></trkpt><trkpt lat="41.4926697" lon="13.2161962"><ele>31.0</ele><time>2026-04-04T12:46:19.273Z</time></trkpt><trkpt lat="41.4928249" lon="13.2165494"><ele>31.0</ele><time>2026-04-04T12:46:22.272Z</time></trkpt><trkpt lat="41.4928679" lon="13.2166617"><ele>31.0</ele><time>2026-04-04T12:46:23.277Z</time></trkpt><trkpt lat="41.4930014" lon="13.2170744"><ele>31.0</ele><time>2026-04-04T12:46:26.27Z</time></trkpt><trkpt lat="41.4930542" lon="13.2172469"><ele>31.0</ele><time>2026-04-04T12:46:27.281Z</time></trkpt><trkpt lat="41.4931677" lon="13.2175864"><ele>31.0</ele><time>2026-04-04T12:46:29.287Z</time></trkpt><trkpt lat="41.4932356" lon="13.21773"><ele>31.0</ele><time>2026-04-04T12:46:30.284Z</time></trkpt><trkpt lat="41.493376" lon="13.2179768"><ele>31.0</ele><time>2026-04-04T12:46:32.286Z</time></trkpt><trkpt lat="41.4935508" lon="13.2181916"><ele>31.0</ele><time>2026-04-04T12:46:35.276Z</time></trkpt><trkpt lat="41.4936241" lon="13.2182063"><ele>31.0</ele><time>2026-04-04T12:46:37.275Z</time></trkpt><trkpt lat="41.4936528" lon="13.2181102"><ele>31.0</ele><time>2026-04-04T12:46:39.282Z</time></trkpt><trkpt lat="41.4936017" lon="13.2178314"><ele>31.0</ele><time>2026-04-04T12:46:42.277Z</time></trkpt><trkpt lat="41.4935904" lon="13.2176923"><ele>31.0</ele><time>2026-04-04T12:46:43.282Z</time></trkpt><trkpt lat="41.4935816" lon="13.2175374"><ele>31.0</ele><time>2026-04-04T12:46:44.28Z</time></trkpt><trkpt lat="41.4935949" lon="13.217362"><ele>31.0</ele><time>2026-04-04T12:46:45.275Z</time></trkpt><trkpt lat="41.4936101" lon="13.2169951"><ele>30.666666666666668</ele><time>2026-04-04T12:46:47.277Z</time></trkpt><trkpt lat="41.4936212" lon="13.2168078"><ele>30.333333333333336</ele><time>2026-04-04T12:46:48.271Z</time></trkpt><trkpt lat="41.4936448" lon="13.2164484"><ele>30.0</ele><time>2026-04-04T12:46:50.278Z</time></trkpt><trkpt lat="41.4936775" lon="13.2159291"><ele>30.333333333333336</ele><time>2026-04-04T12:46:53.271Z</time></trkpt><trkpt lat="41.4936948" lon="13.2156374"><ele>30.666666666666668</ele><time>2026-04-04T12:46:55.291Z</time></trkpt><trkpt lat="41.4937049" lon="13.2154851"><ele>31.0</ele><time>2026-04-04T12:46:56.274Z</time></trkpt><trkpt lat="41.4937298" lon="13.2151855"><ele>31.0</ele><time>2026-04-04T12:46:58.28Z</time></trkpt><trkpt lat="41.4937494" lon="13.2147063"><ele>31.0</ele><time>2026-04-04T12:47:01.282Z</time></trkpt><trkpt lat="41.4937649" lon="13.2142025"><ele>31.333333333333336</ele><time>2026-04-04T12:47:04.279Z</time></trkpt><trkpt lat="41.4937582" lon="13.2138842"><ele>31.666666666666664</ele><time>2026-04-04T12:47:06.27Z</time></trkpt><trkpt lat="41.4937483" lon="13.2137306"><ele>32.0</ele><time>2026-04-04T12:47:07.276Z</time></trkpt><trkpt lat="41.4937212" lon="13.2135801"><ele>32.0</ele><time>2026-04-04T12:47:08.279Z</time></trkpt><trkpt lat="41.4936554" lon="13.2132506"><ele>32.0</ele><time>2026-04-04T12:47:10.275Z</time></trkpt><trkpt lat="41.493619" lon="13.2130712"><ele>32.0</ele><time>2026-04-04T12:47:11.278Z</time></trkpt><trkpt lat="41.4935424" lon="13.2127086"><ele>32.0</ele><time>2026-04-04T12:47:13.275Z</time></trkpt><trkpt lat="41.493499" lon="13.2125228"><ele>32.0</ele><time>2026-04-04T12:47:14.271Z</time></trkpt><trkpt lat="41.4934504" lon="13.2123432"><ele>32.0</ele><time>2026-04-04T12:47:15.272Z</time></trkpt><trkpt lat="41.4933549" lon="13.2119762"><ele>31.5</ele><time>2026-04-04T12:47:17.286Z</time></trkpt><trkpt lat="41.4933084" lon="13.2117794"><ele>31.0</ele><time>2026-04-04T12:47:18.276Z</time></trkpt><trkpt lat="41.4932133" lon="13.2114017"><ele>31.0</ele><time>2026-04-04T12:47:20.277Z</time></trkpt><trkpt lat="41.4931665" lon="13.2112255"><ele>31.0</ele><time>2026-04-04T12:47:21.275Z</time></trkpt><trkpt lat="41.4930711" lon="13.2108732"><ele>31.0</ele><time>2026-04-04T12:47:23.289Z</time></trkpt><trkpt lat="41.4928937" lon="13.2103432"><ele>30.666666666666668</ele><time>2026-04-04T12:47:26.276Z</time></trkpt><trkpt lat="41.4927502" lon="13.2099888"><ele>30.333333333333336</ele><time>2026-04-04T12:47:28.283Z</time></trkpt><trkpt lat="41.4926879" lon="13.2098184"><ele>30.0</ele><time>2026-04-04T12:47:29.285Z</time></trkpt><trkpt lat="41.4925737" lon="13.2095004"><ele>30.666666666666664</ele><time>2026-04-04T12:47:31.287Z</time></trkpt><trkpt lat="41.4925337" lon="13.2093718"><ele>31.333333333333332</ele><time>2026-04-04T12:47:32.288Z</time></trkpt><trkpt lat="41.492494" lon="13.2090655"><ele>32.0</ele><time>2026-04-04T12:47:34.284Z</time></trkpt><trkpt lat="41.4924809" lon="13.2089049"><ele>32.5</ele><time>2026-04-04T12:47:35.277Z</time></trkpt><trkpt lat="41.4924833" lon="13.2086145"><ele>33.0</ele><time>2026-04-04T12:47:37.28Z</time></trkpt><trkpt lat="41.4925755" lon="13.2081605"><ele>32.666666666666664</ele><time>2026-04-04T12:47:40.266Z</time></trkpt><trkpt lat="41.4926715" lon="13.2077945"><ele>32.33333333333333</ele><time>2026-04-04T12:47:43.266Z</time></trkpt><trkpt lat="41.4927166" lon="13.2076944"><ele>32.0</ele><time>2026-04-04T12:47:44.278Z</time></trkpt><trkpt lat="41.4928989" lon="13.2074713"><ele>32.666666666666664</ele><time>2026-04-04T12:47:47.269Z</time></trkpt><trkpt lat="41.4930676" lon="13.2072417"><ele>33.333333333333336</ele><time>2026-04-04T12:47:49.274Z</time></trkpt><trkpt lat="41.4931324" lon="13.2070944"><ele>34.0</ele><time>2026-04-04T12:47:50.28Z</time></trkpt><trkpt lat="41.4932331" lon="13.2067736"><ele>33.75</ele><time>2026-04-04T12:47:52.275Z</time></trkpt><trkpt lat="41.4933304" lon="13.2064421"><ele>33.5</ele><time>2026-04-04T12:47:55.283Z</time></trkpt><trkpt lat="41.4933088" lon="13.2063364"><ele>33.25</ele><time>2026-04-04T12:47:57.277Z</time></trkpt><trkpt lat="41.493244" lon="13.2063093"><ele>33.0</ele><time>2026-04-04T12:47:59.309Z</time></trkpt><trkpt lat="41.4930261" lon="13.2062878"><ele>33.0</ele><time>2026-04-04T12:48:02.275Z</time></trkpt><trkpt lat="41.4929695" lon="13.2062447"><ele>33.0</ele><time>2026-04-04T12:48:03.276Z</time></trkpt><trkpt lat="41.4929022" lon="13.2060769"><ele>33.0</ele><time>2026-04-04T12:48:05.275Z</time></trkpt><trkpt lat="41.4929046" lon="13.2059741"><ele>33.0</ele><time>2026-04-04T12:48:06.275Z</time></trkpt><trkpt lat="41.4929691" lon="13.2057765"><ele>33.0</ele><time>2026-04-04T12:48:08.28Z</time></trkpt><trkpt lat="41.49318" lon="13.2054883"><ele>33.0</ele><time>2026-04-04T12:48:11.272Z</time></trkpt><trkpt lat="41.4931261" lon="13.205334"><ele>33.0</ele><time>2026-04-04T12:48:14.277Z</time></trkpt><trkpt lat="41.4929633" lon="13.2051895"><ele>33.0</ele><time>2026-04-04T12:48:16.279Z</time></trkpt><trkpt lat="41.4928597" lon="13.2050991"><ele>33.0</ele><time>2026-04-04T12:48:17.269Z</time></trkpt><trkpt lat="41.4926234" lon="13.2048903"><ele>31.5</ele><time>2026-04-04T12:48:19.279Z</time></trkpt><trkpt lat="41.4923452" lon="13.204668"><ele>30.0</ele><time>2026-04-04T12:48:21.284Z</time></trkpt><trkpt lat="41.4921943" lon="13.2045562"><ele>29.5</ele><time>2026-04-04T12:48:22.277Z</time></trkpt><trkpt lat="41.4918624" lon="13.2043354"><ele>29.0</ele><time>2026-04-04T12:48:24.316Z</time></trkpt><trkpt lat="41.4916819" lon="13.2042214"><ele>29.0</ele><time>2026-04-04T12:48:25.277Z</time></trkpt><trkpt lat="41.4913122" lon="13.2039922"><ele>29.0</ele><time>2026-04-04T12:48:27.286Z</time></trkpt><trkpt lat="41.4911192" lon="13.2038726"><ele>29.0</ele><time>2026-04-04T12:48:28.283Z</time></trkpt><trkpt lat="41.4907172" lon="13.2036236"><ele>29.0</ele><time>2026-04-04T12:48:30.282Z</time></trkpt><trkpt lat="41.4901912" lon="13.2032822"><ele>28.5</ele><time>2026-04-04T12:48:33.281Z</time></trkpt><trkpt lat="41.4899039" lon="13.2030429"><ele>28.0</ele><time>2026-04-04T12:48:35.275Z</time></trkpt><trkpt lat="41.4897451" lon="13.2029464"><ele>29.0</ele><time>2026-04-04T12:48:36.274Z</time></trkpt><trkpt lat="41.4894314" lon="13.2027447"><ele>30.0</ele><time>2026-04-04T12:48:38.282Z</time></trkpt><trkpt lat="41.489112" lon="13.2024954"><ele>30.0</ele><time>2026-04-04T12:48:40.273Z</time></trkpt><trkpt lat="41.4889489" lon="13.2023602"><ele>30.0</ele><time>2026-04-04T12:48:41.275Z</time></trkpt><trkpt lat="41.4886192" lon="13.2020793"><ele>29.666666666666664</ele><time>2026-04-04T12:48:43.273Z</time></trkpt><trkpt lat="41.4884586" lon="13.2019241"><ele>29.333333333333332</ele><time>2026-04-04T12:48:44.292Z</time></trkpt><trkpt lat="41.4882992" lon="13.2017618"><ele>29.0</ele><time>2026-04-04T12:48:45.278Z</time></trkpt><trkpt lat="41.4879923" lon="13.2014388"><ele>29.0</ele><time>2026-04-04T12:48:47.274Z</time></trkpt><trkpt lat="41.4876973" lon="13.2010983"><ele>29.0</ele><time>2026-04-04T12:48:49.279Z</time></trkpt><trkpt lat="41.4875498" lon="13.2009161"><ele>29.0</ele><time>2026-04-04T12:48:50.276Z</time></trkpt><trkpt lat="41.4872646" lon="13.2005431"><ele>29.0</ele><time>2026-04-04T12:48:52.279Z</time></trkpt><trkpt lat="41.4871329" lon="13.2003718"><ele>29.0</ele><time>2026-04-04T12:48:53.282Z</time></trkpt><trkpt lat="41.486892" lon="13.2000396"><ele>29.0</ele><time>2026-04-04T12:48:55.284Z</time></trkpt><trkpt lat="41.4867994" lon="13.1998986"><ele>28.5</ele><time>2026-04-04T12:48:56.284Z</time></trkpt><trkpt lat="41.4866845" lon="13.1996969"><ele>28.0</ele><time>2026-04-04T12:48:58.277Z</time></trkpt><trkpt lat="41.4866605" lon="13.1996113"><ele>27.5</ele><time>2026-04-04T12:48:59.274Z</time></trkpt><trkpt lat="41.4866549" lon="13.1993595"><ele>27.0</ele><time>2026-04-04T12:49:01.289Z</time></trkpt><trkpt lat="41.4866477" lon="13.1991974"><ele>27.0</ele><time>2026-04-04T12:49:02.284Z</time></trkpt><trkpt lat="41.4866107" lon="13.1988222"><ele>27.0</ele><time>2026-04-04T12:49:04.286Z</time></trkpt><trkpt lat="41.4865897" lon="13.1986391"><ele>27.0</ele><time>2026-04-04T12:49:05.291Z</time></trkpt><trkpt lat="41.4865459" lon="13.1982899"><ele>27.0</ele><time>2026-04-04T12:49:07.291Z</time></trkpt><trkpt lat="41.4865248" lon="13.1981368"><ele>27.0</ele><time>2026-04-04T12:49:08.284Z</time></trkpt><trkpt lat="41.4864742" lon="13.1979261"><ele>27.0</ele><time>2026-04-04T12:49:10.281Z</time></trkpt><trkpt lat="41.4864028" lon="13.1978574"><ele>27.0</ele><time>2026-04-04T12:49:13.288Z</time></trkpt><trkpt lat="41.4863164" lon="13.1978851"><ele>27.0</ele><time>2026-04-04T12:49:15.283Z</time></trkpt><trkpt lat="41.4862424" lon="13.1978975"><ele>27.0</ele><time>2026-04-04T12:49:16.276Z</time></trkpt><trkpt lat="41.4860736" lon="13.1979623"><ele>27.0</ele><time>2026-04-04T12:49:18.278Z</time></trkpt><trkpt lat="41.4859735" lon="13.198019"><ele>27.0</ele><time>2026-04-04T12:49:19.277Z</time></trkpt><trkpt lat="41.4857666" lon="13.1981558"><ele>27.333333333333336</ele><time>2026-04-04T12:49:21.285Z</time></trkpt><trkpt lat="41.4856496" lon="13.1982338"><ele>27.666666666666668</ele><time>2026-04-04T12:49:22.28Z</time></trkpt><trkpt lat="41.4853931" lon="13.1984169"><ele>28.0</ele><time>2026-04-04T12:49:24.289Z</time></trkpt><trkpt lat="41.4852542" lon="13.1985222"><ele>28.0</ele><time>2026-04-04T12:49:25.286Z</time></trkpt><trkpt lat="41.4847967" lon="13.1988838"><ele>29.0</ele><time>2026-04-04T12:49:28.287Z</time></trkpt><trkpt lat="41.4845006" lon="13.1990973"><ele>30.0</ele><time>2026-04-04T12:49:30.286Z</time></trkpt><trkpt lat="41.4843606" lon="13.1991551"><ele>30.0</ele><time>2026-04-04T12:49:31.277Z</time></trkpt><trkpt lat="41.4841224" lon="13.1992033"><ele>30.0</ele><time>2026-04-04T12:49:33.295Z</time></trkpt><trkpt lat="41.4840333" lon="13.1992509"><ele>30.0</ele><time>2026-04-04T12:49:34.287Z</time></trkpt><trkpt lat="41.4839347" lon="13.1994234"><ele>30.0</ele><time>2026-04-04T12:49:36.292Z</time></trkpt><trkpt lat="41.4839321" lon="13.1995335"><ele>30.0</ele><time>2026-04-04T12:49:37.284Z</time></trkpt><trkpt lat="41.4840079" lon="13.1997871"><ele>30.0</ele><time>2026-04-04T12:49:39.284Z</time></trkpt><trkpt lat="41.4840444" lon="13.1999341"><ele>30.0</ele><time>2026-04-04T12:49:40.284Z</time></trkpt><trkpt lat="41.4840408" lon="13.2002886"><ele>29.5</ele><time>2026-04-04T12:49:42.268Z</time></trkpt><trkpt lat="41.48402" lon="13.2004876"><ele>29.0</ele><time>2026-04-04T12:49:43.282Z</time></trkpt><trkpt lat="41.4839467" lon="13.2009157"><ele>29.0</ele><time>2026-04-04T12:49:45.284Z</time></trkpt><trkpt lat="41.4839114" lon="13.2011017"><ele>29.0</ele><time>2026-04-04T12:49:46.278Z</time></trkpt><trkpt lat="41.4838833" lon="13.2012631"><ele>29.0</ele><time>2026-04-04T12:49:47.278Z</time></trkpt><trkpt lat="41.4838562" lon="13.2013973"><ele>29.0</ele><time>2026-04-04T12:49:48.285Z</time></trkpt><trkpt lat="41.4838124" lon="13.201546"><ele>28.666666666666664</ele><time>2026-04-04T12:49:50.279Z</time></trkpt><trkpt lat="41.4835607" lon="13.2012941"><ele>28.333333333333336</ele><time>2026-04-04T12:49:55.276Z</time></trkpt><trkpt lat="41.4834566" lon="13.2012248"><ele>28.0</ele><time>2026-04-04T12:49:56.277Z</time></trkpt><trkpt lat="41.4833389" lon="13.2011599"><ele>28.0</ele><time>2026-04-04T12:49:57.285Z</time></trkpt><trkpt lat="41.4830974" lon="13.2010203"><ele>28.0</ele><time>2026-04-04T12:49:59.284Z</time></trkpt><trkpt lat="41.482977" lon="13.2009452"><ele>28.0</ele><time>2026-04-04T12:50:00.277Z</time></trkpt><trkpt lat="41.4825916" lon="13.2007284"><ele>28.0</ele><time>2026-04-04T12:50:03.272Z</time></trkpt><trkpt lat="41.4823387" lon="13.2005976"><ele>28.0</ele><time>2026-04-04T12:50:05.273Z</time></trkpt><trkpt lat="41.4822048" lon="13.200527"><ele>28.0</ele><time>2026-04-04T12:50:06.272Z</time></trkpt><trkpt lat="41.4819213" lon="13.2003836"><ele>28.0</ele><time>2026-04-04T12:50:08.285Z</time></trkpt><trkpt lat="41.4817949" lon="13.2002931"><ele>28.0</ele><time>2026-04-04T12:50:09.272Z</time></trkpt><trkpt lat="41.4816755" lon="13.2001775"><ele>28.0</ele><time>2026-04-04T12:50:10.278Z</time></trkpt><trkpt lat="41.4815632" lon="13.2000415"><ele>28.0</ele><time>2026-04-04T12:50:11.276Z</time></trkpt><trkpt lat="41.4813746" lon="13.1997537"><ele>28.0</ele><time>2026-04-04T12:50:13.277Z</time></trkpt><trkpt lat="41.4812919" lon="13.1996064"><ele>28.0</ele><time>2026-04-04T12:50:14.28Z</time></trkpt><trkpt lat="41.481138" lon="13.1992811"><ele>28.0</ele><time>2026-04-04T12:50:16.271Z</time></trkpt><trkpt lat="41.481077" lon="13.1991218"><ele>28.0</ele><time>2026-04-04T12:50:17.267Z</time></trkpt><trkpt lat="41.4809642" lon="13.1988357"><ele>28.0</ele><time>2026-04-04T12:50:19.276Z</time></trkpt><trkpt lat="41.4809195" lon="13.198689"><ele>28.0</ele><time>2026-04-04T12:50:20.275Z</time></trkpt><trkpt lat="41.4808381" lon="13.198406"><ele>28.0</ele><time>2026-04-04T12:50:22.283Z</time></trkpt><trkpt lat="41.4807662" lon="13.198267"><ele>28.0</ele><time>2026-04-04T12:50:23.272Z</time></trkpt><trkpt lat="41.4806106" lon="13.1979999"><ele>28.0</ele><time>2026-04-04T12:50:25.278Z</time></trkpt><trkpt lat="41.4805203" lon="13.1978815"><ele>27.333333333333336</ele><time>2026-04-04T12:50:26.274Z</time></trkpt><trkpt lat="41.4803035" lon="13.1977087"><ele>26.666666666666664</ele><time>2026-04-04T12:50:28.269Z</time></trkpt><trkpt lat="41.4801883" lon="13.1976543"><ele>26.0</ele><time>2026-04-04T12:50:29.278Z</time></trkpt><trkpt lat="41.4799276" lon="13.1975816"><ele>26.0</ele><time>2026-04-04T12:50:31.278Z</time></trkpt><trkpt lat="41.4797871" lon="13.1975411"><ele>26.0</ele><time>2026-04-04T12:50:32.273Z</time></trkpt><trkpt lat="41.4793771" lon="13.1973743"><ele>26.5</ele><time>2026-04-04T12:50:35.278Z</time></trkpt><trkpt lat="41.4790252" lon="13.1970556"><ele>27.0</ele><time>2026-04-04T12:50:38.276Z</time></trkpt><trkpt lat="41.4787593" lon="13.1965821"><ele>27.0</ele><time>2026-04-04T12:50:41.279Z</time></trkpt><trkpt lat="41.4785312" lon="13.196042"><ele>27.0</ele><time>2026-04-04T12:50:44.28Z</time></trkpt><trkpt lat="41.478466" lon="13.1958607"><ele>27.0</ele><time>2026-04-04T12:50:45.278Z</time></trkpt><trkpt lat="41.4783101" lon="13.1955079"><ele>27.0</ele><time>2026-04-04T12:50:47.283Z</time></trkpt><trkpt lat="41.4782288" lon="13.1953532"><ele>27.0</ele><time>2026-04-04T12:50:48.288Z</time></trkpt><trkpt lat="41.4780893" lon="13.1950964"><ele>27.0</ele><time>2026-04-04T12:50:50.281Z</time></trkpt><trkpt lat="41.4778903" lon="13.1948744"><ele>27.0</ele><time>2026-04-04T12:50:52.278Z</time></trkpt><trkpt lat="41.4777603" lon="13.194771"><ele>27.0</ele><time>2026-04-04T12:50:53.284Z</time></trkpt><trkpt lat="41.4773185" lon="13.1945191"><ele>29.0</ele><time>2026-04-04T12:50:56.276Z</time></trkpt><trkpt lat="41.4768239" lon="13.1944949"><ele>29.0</ele><time>2026-04-04T12:50:59.279Z</time></trkpt><trkpt lat="41.4766533" lon="13.1945181"><ele>29.0</ele><time>2026-04-04T12:51:00.281Z</time></trkpt><trkpt lat="41.4764882" lon="13.1945596"><ele>29.0</ele><time>2026-04-04T12:51:01.285Z</time></trkpt><trkpt lat="41.4760094" lon="13.194764"><ele>28.666666666666664</ele><time>2026-04-04T12:51:04.283Z</time></trkpt><trkpt lat="41.4758672" lon="13.1948345"><ele>28.333333333333336</ele><time>2026-04-04T12:51:05.281Z</time></trkpt><trkpt lat="41.4756087" lon="13.1949521"><ele>28.0</ele><time>2026-04-04T12:51:07.288Z</time></trkpt><trkpt lat="41.4752936" lon="13.195148"><ele>27.0</ele><time>2026-04-04T12:51:10.281Z</time></trkpt><trkpt lat="41.4749893" lon="13.1954962"><ele>26.0</ele><time>2026-04-04T12:51:13.276Z</time></trkpt><trkpt lat="41.4746522" lon="13.1958704"><ele>25.75</ele><time>2026-04-04T12:51:16.282Z</time></trkpt><trkpt lat="41.4745391" lon="13.1959981"><ele>25.5</ele><time>2026-04-04T12:51:17.278Z</time></trkpt><trkpt lat="41.4744299" lon="13.1961211"><ele>25.25</ele><time>2026-04-04T12:51:18.271Z</time></trkpt><trkpt lat="41.4743249" lon="13.1962457"><ele>25.0</ele><time>2026-04-04T12:51:19.275Z</time></trkpt><trkpt lat="41.474223" lon="13.1963375"><ele>25.0</ele><time>2026-04-04T12:51:20.278Z</time></trkpt><trkpt lat="41.4741221" lon="13.1964375"><ele>25.0</ele><time>2026-04-04T12:51:21.28Z</time></trkpt><trkpt lat="41.4737654" lon="13.1967545"><ele>25.5</ele><time>2026-04-04T12:51:24.275Z</time></trkpt><trkpt lat="41.4734128" lon="13.1969064"><ele>26.0</ele><time>2026-04-04T12:51:27.278Z</time></trkpt><trkpt lat="41.4730311" lon="13.1969713"><ele>26.0</ele><time>2026-04-04T12:51:30.287Z</time></trkpt><trkpt lat="41.4726392" lon="13.1970093"><ele>26.0</ele><time>2026-04-04T12:51:33.278Z</time></trkpt><trkpt lat="41.4723624" lon="13.1970359"><ele>26.0</ele><time>2026-04-04T12:51:35.289Z</time></trkpt><trkpt lat="41.4722229" lon="13.1970501"><ele>26.0</ele><time>2026-04-04T12:51:36.285Z</time></trkpt><trkpt lat="41.471836" lon="13.1970996"><ele>25.5</ele><time>2026-04-04T12:51:39.275Z</time></trkpt><trkpt lat="41.4713888" lon="13.1971277"><ele>25.0</ele><time>2026-04-04T12:51:42.269Z</time></trkpt><trkpt lat="41.471261" lon="13.197143"><ele>25.0</ele><time>2026-04-04T12:51:43.275Z</time></trkpt><trkpt lat="41.4711494" lon="13.1971565"><ele>25.0</ele><time>2026-04-04T12:51:44.28Z</time></trkpt><trkpt lat="41.4708788" lon="13.197172"><ele>25.0</ele><time>2026-04-04T12:51:47.266Z</time></trkpt><trkpt lat="41.4707668" lon="13.1971458"><ele>25.0</ele><time>2026-04-04T12:51:50.279Z</time></trkpt><trkpt lat="41.4707552" lon="13.196994"><ele>25.0</ele><time>2026-04-04T12:51:52.277Z</time></trkpt><trkpt lat="41.4707536" lon="13.196869"><ele>25.0</ele><time>2026-04-04T12:51:53.272Z</time></trkpt><trkpt lat="41.4707266" lon="13.1965131"><ele>25.666666666666668</ele><time>2026-04-04T12:51:56.279Z</time></trkpt><trkpt lat="41.470673" lon="13.1964315"><ele>26.333333333333336</ele><time>2026-04-04T12:51:58.28Z</time></trkpt><trkpt lat="41.4704101" lon="13.196424"><ele>27.0</ele><time>2026-04-04T12:52:01.271Z</time></trkpt><trkpt lat="41.4702655" lon="13.1964435"><ele>27.0</ele><time>2026-04-04T12:52:02.276Z</time></trkpt><trkpt lat="41.4699154" lon="13.196486"><ele>27.0</ele><time>2026-04-04T12:52:04.276Z</time></trkpt><trkpt lat="41.469719" lon="13.1965113"><ele>25.666666666666668</ele><time>2026-04-04T12:52:05.286Z</time></trkpt><trkpt lat="41.4695177" lon="13.1965334"><ele>24.333333333333336</ele><time>2026-04-04T12:52:06.285Z</time></trkpt><trkpt lat="41.4693159" lon="13.1965584"><ele>23.0</ele><time>2026-04-04T12:52:07.279Z</time></trkpt><trkpt lat="41.4689326" lon="13.1966143"><ele>23.5</ele><time>2026-04-04T12:52:09.284Z</time></trkpt><trkpt lat="41.4687458" lon="13.1966241"><ele>24.0</ele><time>2026-04-04T12:52:10.273Z</time></trkpt><trkpt lat="41.4683929" lon="13.1966542"><ele>24.0</ele><time>2026-04-04T12:52:12.281Z</time></trkpt><trkpt lat="41.4682358" lon="13.1966676"><ele>24.0</ele><time>2026-04-04T12:52:13.286Z</time></trkpt><trkpt lat="41.4679538" lon="13.1967121"><ele>24.0</ele><time>2026-04-04T12:52:15.27Z</time></trkpt><trkpt lat="41.4678244" lon="13.1967282"><ele>24.333333333333336</ele><time>2026-04-04T12:52:16.282Z</time></trkpt><trkpt lat="41.4675582" lon="13.1967566"><ele>24.666666666666668</ele><time>2026-04-04T12:52:18.274Z</time></trkpt><trkpt lat="41.4674402" lon="13.1967668"><ele>25.0</ele><time>2026-04-04T12:52:19.278Z</time></trkpt><trkpt lat="41.4673265" lon="13.1967588"><ele>25.0</ele><time>2026-04-04T12:52:20.283Z</time></trkpt><trkpt lat="41.4672109" lon="13.1967609"><ele>25.0</ele><time>2026-04-04T12:52:21.285Z</time></trkpt><trkpt lat="41.4669705" lon="13.1967901"><ele>25.0</ele><time>2026-04-04T12:52:23.274Z</time></trkpt><trkpt lat="41.4665782" lon="13.1967661"><ele>24.5</ele><time>2026-04-04T12:52:26.277Z</time></trkpt><trkpt lat="41.4662074" lon="13.1965905"><ele>24.0</ele><time>2026-04-04T12:52:29.28Z</time></trkpt><trkpt lat="41.4658635" lon="13.1963828"><ele>24.0</ele><time>2026-04-04T12:52:32.276Z</time></trkpt><trkpt lat="41.4655592" lon="13.1962116"><ele>24.0</ele><time>2026-04-04T12:52:35.272Z</time></trkpt><trkpt lat="41.4654735" lon="13.196152"><ele>24.0</ele><time>2026-04-04T12:52:36.275Z</time></trkpt><trkpt lat="41.4653928" lon="13.1960868"><ele>23.666666666666668</ele><time>2026-04-04T12:52:37.275Z</time></trkpt><trkpt lat="41.4651029" lon="13.195937"><ele>23.333333333333336</ele><time>2026-04-04T12:52:40.276Z</time></trkpt><trkpt lat="41.4649718" lon="13.195883"><ele>23.0</ele><time>2026-04-04T12:52:41.277Z</time></trkpt><trkpt lat="41.4644799" lon="13.1958226"><ele>23.0</ele><time>2026-04-04T12:52:44.276Z</time></trkpt><trkpt lat="41.4639948" lon="13.1959533"><ele>26.0</ele><time>2026-04-04T12:52:47.275Z</time></trkpt><trkpt lat="41.4635562" lon="13.1962816"><ele>26.0</ele><time>2026-04-04T12:52:50.281Z</time></trkpt><trkpt lat="41.4634147" lon="13.1964415"><ele>26.0</ele><time>2026-04-04T12:52:51.276Z</time></trkpt><trkpt lat="41.4631641" lon="13.1967867"><ele>25.0</ele><time>2026-04-04T12:52:53.278Z</time></trkpt><trkpt lat="41.4628335" lon="13.197302"><ele>24.333333333333336</ele><time>2026-04-04T12:52:56.269Z</time></trkpt><trkpt lat="41.4627176" lon="13.1974817"><ele>23.666666666666668</ele><time>2026-04-04T12:52:57.274Z</time></trkpt><trkpt lat="41.4625885" lon="13.1976761"><ele>23.0</ele><time>2026-04-04T12:52:58.277Z</time></trkpt><trkpt lat="41.462332" lon="13.1980788"><ele>23.0</ele><time>2026-04-04T12:53:00.291Z</time></trkpt><trkpt lat="41.4622027" lon="13.1982746"><ele>23.0</ele><time>2026-04-04T12:53:01.277Z</time></trkpt><trkpt lat="41.4619463" lon="13.1986791"><ele>23.5</ele><time>2026-04-04T12:53:03.316Z</time></trkpt><trkpt lat="41.461826" lon="13.1988681"><ele>24.0</ele><time>2026-04-04T12:53:04.277Z</time></trkpt><trkpt lat="41.4615914" lon="13.199189"><ele>23.5</ele><time>2026-04-04T12:53:06.28Z</time></trkpt><trkpt lat="41.4614694" lon="13.1993114"><ele>23.0</ele><time>2026-04-04T12:53:07.278Z</time></trkpt><trkpt lat="41.4610458" lon="13.1995775"><ele>23.0</ele><time>2026-04-04T12:53:10.282Z</time></trkpt><trkpt lat="41.4605296" lon="13.1996959"><ele>22.5</ele><time>2026-04-04T12:53:13.28Z</time></trkpt><trkpt lat="41.4603367" lon="13.1997374"><ele>22.0</ele><time>2026-04-04T12:53:14.284Z</time></trkpt><trkpt lat="41.4600031" lon="13.1998065"><ele>22.0</ele><time>2026-04-04T12:53:16.281Z</time></trkpt><trkpt lat="41.4598601" lon="13.1998343"><ele>22.0</ele><time>2026-04-04T12:53:17.282Z</time></trkpt><trkpt lat="41.4596217" lon="13.1998676"><ele>22.0</ele><time>2026-04-04T12:53:19.266Z</time></trkpt><trkpt lat="41.4595334" lon="13.1998633"><ele>22.0</ele><time>2026-04-04T12:53:20.275Z</time></trkpt><trkpt lat="41.4594395" lon="13.1998571"><ele>22.0</ele><time>2026-04-04T12:53:22.274Z</time></trkpt><trkpt lat="41.45938" lon="13.1999685"><ele>22.0</ele><time>2026-04-04T12:53:25.285Z</time></trkpt><trkpt lat="41.4594668" lon="13.2006441"><ele>22.0</ele><time>2026-04-04T12:53:30.281Z</time></trkpt><trkpt lat="41.4594249" lon="13.2007847"><ele>22.0</ele><time>2026-04-04T12:53:33.277Z</time></trkpt><trkpt lat="41.4593331" lon="13.2006959"><ele>22.0</ele><time>2026-04-04T12:53:36.272Z</time></trkpt><trkpt lat="41.4591208" lon="13.2007621"><ele>22.0</ele><time>2026-04-04T12:53:39.275Z</time></trkpt><trkpt lat="41.459036" lon="13.20079"><ele>22.0</ele><time>2026-04-04T12:53:40.288Z</time></trkpt><trkpt lat="41.4589644" lon="13.2007962"><ele>22.0</ele><time>2026-04-04T12:53:41.277Z</time></trkpt><trkpt lat="41.4588405" lon="13.2008218"><ele>22.0</ele><time>2026-04-04T12:53:43.286Z</time></trkpt><trkpt lat="41.458769" lon="13.2008772"><ele>22.0</ele><time>2026-04-04T12:53:44.275Z</time></trkpt><trkpt lat="41.4586017" lon="13.2010231"><ele>22.25</ele><time>2026-04-04T12:53:46.277Z</time></trkpt><trkpt lat="41.4585212" lon="13.201109"><ele>22.5</ele><time>2026-04-04T12:53:47.276Z</time></trkpt><trkpt lat="41.4583697" lon="13.2013144"><ele>22.75</ele><time>2026-04-04T12:53:49.274Z</time></trkpt><trkpt lat="41.4582958" lon="13.2014382"><ele>23.0</ele><time>2026-04-04T12:53:50.269Z</time></trkpt><trkpt lat="41.4582237" lon="13.2015621"><ele>23.0</ele><time>2026-04-04T12:53:51.278Z</time></trkpt><trkpt lat="41.4581491" lon="13.2016898"><ele>23.0</ele><time>2026-04-04T12:53:52.273Z</time></trkpt><trkpt lat="41.4579231" lon="13.2021073"><ele>23.5</ele><time>2026-04-04T12:53:55.288Z</time></trkpt><trkpt lat="41.4578394" lon="13.202251"><ele>24.0</ele><time>2026-04-04T12:53:56.277Z</time></trkpt><trkpt lat="41.4576223" lon="13.202675"><ele>23.0</ele><time>2026-04-04T12:53:59.269Z</time></trkpt><trkpt lat="41.4574458" lon="13.203023"><ele>22.0</ele><time>2026-04-04T12:54:02.272Z</time></trkpt><trkpt lat="41.4573172" lon="13.2032389"><ele>22.0</ele><time>2026-04-04T12:54:05.271Z</time></trkpt><trkpt lat="41.4572576" lon="13.2033548"><ele>22.0</ele><time>2026-04-04T12:54:06.281Z</time></trkpt><trkpt lat="41.4571858" lon="13.2034899"><ele>22.0</ele><time>2026-04-04T12:54:07.28Z</time></trkpt><trkpt lat="41.4570295" lon="13.2037991"><ele>22.0</ele><time>2026-04-04T12:54:09.279Z</time></trkpt><trkpt lat="41.4569498" lon="13.2039351"><ele>22.0</ele><time>2026-04-04T12:54:10.29Z</time></trkpt><trkpt lat="41.4567914" lon="13.2042286"><ele>22.0</ele><time>2026-04-04T12:54:12.281Z</time></trkpt><trkpt lat="41.4567098" lon="13.2043713"><ele>22.0</ele><time>2026-04-04T12:54:13.283Z</time></trkpt><trkpt lat="41.4564868" lon="13.2046961"><ele>22.0</ele><time>2026-04-04T12:54:16.273Z</time></trkpt><trkpt lat="41.4564203" lon="13.2047617"><ele>22.0</ele><time>2026-04-04T12:54:17.276Z</time></trkpt><trkpt lat="41.4563402" lon="13.2048333"><ele>21.666666666666664</ele><time>2026-04-04T12:54:18.282Z</time></trkpt><trkpt lat="41.4561113" lon="13.2049782"><ele>21.333333333333332</ele><time>2026-04-04T12:54:20.286Z</time></trkpt><trkpt lat="41.4560113" lon="13.2050233"><ele>21.0</ele><time>2026-04-04T12:54:21.275Z</time></trkpt><trkpt lat="41.455871" lon="13.2051262"><ele>21.0</ele><time>2026-04-04T12:54:23.287Z</time></trkpt><trkpt lat="41.455781" lon="13.2051301"><ele>21.0</ele><time>2026-04-04T12:54:24.271Z</time></trkpt><trkpt lat="41.4555267" lon="13.2051019"><ele>21.0</ele><time>2026-04-04T12:54:26.284Z</time></trkpt><trkpt lat="41.4553702" lon="13.2050853"><ele>20.333333333333332</ele><time>2026-04-04T12:54:27.275Z</time></trkpt><trkpt lat="41.455056" lon="13.205042"><ele>19.666666666666664</ele><time>2026-04-04T12:54:29.285Z</time></trkpt><trkpt lat="41.4549258" lon="13.205011"><ele>19.0</ele><time>2026-04-04T12:54:30.275Z</time></trkpt><trkpt lat="41.4546897" lon="13.204876"><ele>21.0</ele><time>2026-04-04T12:54:32.27Z</time></trkpt><trkpt lat="41.4545658" lon="13.2047642"><ele>23.0</ele><time>2026-04-04T12:54:33.276Z</time></trkpt><trkpt lat="41.454201" lon="13.2044432"><ele>23.0</ele><time>2026-04-04T12:54:36.281Z</time></trkpt><trkpt lat="41.4538836" lon="13.2041952"><ele>23.0</ele><time>2026-04-04T12:54:39.28Z</time></trkpt><trkpt lat="41.4537902" lon="13.2041503"><ele>24.333333333333336</ele><time>2026-04-04T12:54:40.273Z</time></trkpt><trkpt lat="41.4536074" lon="13.204151"><ele>25.666666666666668</ele><time>2026-04-04T12:54:42.272Z</time></trkpt><trkpt lat="41.4535067" lon="13.2041895"><ele>27.0</ele><time>2026-04-04T12:54:43.28Z</time></trkpt><trkpt lat="41.4532772" lon="13.2042975"><ele>27.0</ele><time>2026-04-04T12:54:45.281Z</time></trkpt><trkpt lat="41.4531716" lon="13.2043386"><ele>27.0</ele><time>2026-04-04T12:54:46.274Z</time></trkpt><trkpt lat="41.452982" lon="13.2043224"><ele>27.0</ele><time>2026-04-04T12:54:49.267Z</time></trkpt><trkpt lat="41.4529996" lon="13.2040248"><ele>27.0</ele><time>2026-04-04T12:54:52.28Z</time></trkpt><trkpt lat="41.4530164" lon="13.2038845"><ele>27.0</ele><time>2026-04-04T12:54:53.272Z</time></trkpt><trkpt lat="41.4530084" lon="13.2037159"><ele>27.0</ele><time>2026-04-04T12:54:55.273Z</time></trkpt><trkpt lat="41.452826" lon="13.2036507"><ele>27.0</ele><time>2026-04-04T12:54:58.289Z</time></trkpt><trkpt lat="41.4527179" lon="13.2036487"><ele>27.0</ele><time>2026-04-04T12:54:59.275Z</time></trkpt><trkpt lat="41.4523003" lon="13.2036415"><ele>27.0</ele><time>2026-04-04T12:55:02.281Z</time></trkpt><trkpt lat="41.4518605" lon="13.2037196"><ele>27.0</ele><time>2026-04-04T12:55:05.275Z</time></trkpt><trkpt lat="41.4514337" lon="13.203987"><ele>23.0</ele><time>2026-04-04T12:55:08.277Z</time></trkpt><trkpt lat="41.4510844" lon="13.2041417"><ele>19.0</ele><time>2026-04-04T12:55:11.282Z</time></trkpt><trkpt lat="41.450739" lon="13.2040121"><ele>17.0</ele><time>2026-04-04T12:55:14.276Z</time></trkpt><trkpt lat="41.4504093" lon="13.2035617"><ele>26.0</ele><time>2026-04-04T12:55:17.28Z</time></trkpt><trkpt lat="41.4500362" lon="13.2031266"><ele>26.0</ele><time>2026-04-04T12:55:20.274Z</time></trkpt><trkpt lat="41.4499096" lon="13.2030011"><ele>26.0</ele><time>2026-04-04T12:55:21.27Z</time></trkpt><trkpt lat="41.4497828" lon="13.2028903"><ele>26.0</ele><time>2026-04-04T12:55:22.276Z</time></trkpt><trkpt lat="41.4493707" lon="13.2026614"><ele>20.0</ele><time>2026-04-04T12:55:25.29Z</time></trkpt><trkpt lat="41.448913" lon="13.2026299"><ele>21.0</ele><time>2026-04-04T12:55:28.283Z</time></trkpt><trkpt lat="41.4487675" lon="13.2026631"><ele>22.0</ele><time>2026-04-04T12:55:29.281Z</time></trkpt><trkpt lat="41.4484804" lon="13.2028162"><ele>22.0</ele><time>2026-04-04T12:55:31.304Z</time></trkpt><trkpt lat="41.4483525" lon="13.2029016"><ele>22.0</ele><time>2026-04-04T12:55:32.287Z</time></trkpt><trkpt lat="41.4481511" lon="13.203113"><ele>22.0</ele><time>2026-04-04T12:55:34.281Z</time></trkpt><trkpt lat="41.4480647" lon="13.2032399"><ele>22.0</ele><time>2026-04-04T12:55:35.273Z</time></trkpt><trkpt lat="41.4479311" lon="13.2034276"><ele>22.0</ele><time>2026-04-04T12:55:37.302Z</time></trkpt><trkpt lat="41.4478585" lon="13.203479"><ele>22.0</ele><time>2026-04-04T12:55:38.275Z</time></trkpt><trkpt lat="41.4476735" lon="13.2036672"><ele>22.0</ele><time>2026-04-04T12:55:40.285Z</time></trkpt><trkpt lat="41.4475735" lon="13.2037962"><ele>22.0</ele><time>2026-04-04T12:55:41.279Z</time></trkpt><trkpt lat="41.4473828" lon="13.2040549"><ele>22.0</ele><time>2026-04-04T12:55:43.271Z</time></trkpt><trkpt lat="41.447272" lon="13.2041689"><ele>21.0</ele><time>2026-04-04T12:55:44.273Z</time></trkpt><trkpt lat="41.447143" lon="13.2042687"><ele>20.0</ele><time>2026-04-04T12:55:45.286Z</time></trkpt><trkpt lat="41.446713" lon="13.2045604"><ele>19.5</ele><time>2026-04-04T12:55:48.272Z</time></trkpt><trkpt lat="41.4463189" lon="13.2048462"><ele>19.0</ele><time>2026-04-04T12:55:51.278Z</time></trkpt><trkpt lat="41.4459014" lon="13.2049759"><ele>18.5</ele><time>2026-04-04T12:55:54.277Z</time></trkpt><trkpt lat="41.4454578" lon="13.2049192"><ele>18.0</ele><time>2026-04-04T12:55:57.276Z</time></trkpt><trkpt lat="41.4450461" lon="13.2046954"><ele>24.0</ele><time>2026-04-04T12:56:00.276Z</time></trkpt><trkpt lat="41.4446983" lon="13.2042949"><ele>27.0</ele><time>2026-04-04T12:56:03.284Z</time></trkpt><trkpt lat="41.4443481" lon="13.2039429"><ele>30.0</ele><time>2026-04-04T12:56:06.275Z</time></trkpt><trkpt lat="41.4439728" lon="13.2038044"><ele>28.0</ele><time>2026-04-04T12:56:09.274Z</time></trkpt><trkpt lat="41.4435646" lon="13.2038583"><ele>26.0</ele><time>2026-04-04T12:56:12.283Z</time></trkpt><trkpt lat="41.4434379" lon="13.2038968"><ele>26.0</ele><time>2026-04-04T12:56:13.275Z</time></trkpt><trkpt lat="41.4431979" lon="13.2039503"><ele>26.0</ele><time>2026-04-04T12:56:15.289Z</time></trkpt><trkpt lat="41.4430735" lon="13.2039514"><ele>26.0</ele><time>2026-04-04T12:56:16.272Z</time></trkpt><trkpt lat="41.4428108" lon="13.2039286"><ele>26.333333333333332</ele><time>2026-04-04T12:56:18.274Z</time></trkpt><trkpt lat="41.442669" lon="13.2039146"><ele>26.666666666666664</ele><time>2026-04-04T12:56:19.274Z</time></trkpt><trkpt lat="41.442397" lon="13.2038873"><ele>27.0</ele><time>2026-04-04T12:56:21.28Z</time></trkpt><trkpt lat="41.4422599" lon="13.2038699"><ele>24.333333333333332</ele><time>2026-04-04T12:56:22.284Z</time></trkpt><trkpt lat="41.4419959" lon="13.203838"><ele>21.666666666666664</ele><time>2026-04-04T12:56:24.279Z</time></trkpt><trkpt lat="41.441881" lon="13.2038093"><ele>19.0</ele><time>2026-04-04T12:56:25.278Z</time></trkpt><trkpt lat="41.4416948" lon="13.2036925"><ele>19.0</ele><time>2026-04-04T12:56:27.284Z</time></trkpt><trkpt lat="41.4416172" lon="13.2035973"><ele>19.0</ele><time>2026-04-04T12:56:28.277Z</time></trkpt><trkpt lat="41.441475" lon="13.2033249"><ele>19.0</ele><time>2026-04-04T12:56:30.284Z</time></trkpt><trkpt lat="41.4414056" lon="13.203156"><ele>18.666666666666664</ele><time>2026-04-04T12:56:31.277Z</time></trkpt><trkpt lat="41.4412645" lon="13.2028214"><ele>18.333333333333332</ele><time>2026-04-04T12:56:33.281Z</time></trkpt><trkpt lat="41.4411912" lon="13.2026801"><ele>18.0</ele><time>2026-04-04T12:56:34.285Z</time></trkpt><trkpt lat="41.4410256" lon="13.2024454"><ele>18.0</ele><time>2026-04-04T12:56:36.276Z</time></trkpt><trkpt lat="41.4409431" lon="13.2023549"><ele>18.0</ele><time>2026-04-04T12:56:37.281Z</time></trkpt><trkpt lat="41.4407907" lon="13.2022249"><ele>18.0</ele><time>2026-04-04T12:56:39.269Z</time></trkpt><trkpt lat="41.4407124" lon="13.2021727"><ele>18.0</ele><time>2026-04-04T12:56:40.275Z</time></trkpt><trkpt lat="41.4404523" lon="13.2020365"><ele>19.333333333333332</ele><time>2026-04-04T12:56:43.273Z</time></trkpt><trkpt lat="41.4403412" lon="13.2020094"><ele>20.666666666666664</ele><time>2026-04-04T12:56:44.277Z</time></trkpt><trkpt lat="41.4402234" lon="13.2019954"><ele>22.0</ele><time>2026-04-04T12:56:45.272Z</time></trkpt><trkpt lat="41.4398685" lon="13.2020534"><ele>20.5</ele><time>2026-04-04T12:56:48.271Z</time></trkpt><trkpt lat="41.4394758" lon="13.2022563"><ele>19.0</ele><time>2026-04-04T12:56:51.282Z</time></trkpt><trkpt lat="41.4393365" lon="13.2023674"><ele>16.0</ele><time>2026-04-04T12:56:52.273Z</time></trkpt><trkpt lat="41.4388966" lon="13.2027864"><ele>14.0</ele><time>2026-04-04T12:56:55.271Z</time></trkpt><trkpt lat="41.4384528" lon="13.2032462"><ele>14.0</ele><time>2026-04-04T12:56:58.271Z</time></trkpt><trkpt lat="41.4383193" lon="13.2033746"><ele>14.0</ele><time>2026-04-04T12:56:59.281Z</time></trkpt><trkpt lat="41.4378908" lon="13.2035867"><ele>17.0</ele><time>2026-04-04T12:57:02.269Z</time></trkpt><trkpt lat="41.4374212" lon="13.2035143"><ele>14.0</ele><time>2026-04-04T12:57:05.276Z</time></trkpt><trkpt lat="41.4370205" lon="13.2031777"><ele>14.333333333333334</ele><time>2026-04-04T12:57:08.275Z</time></trkpt><trkpt lat="41.4369206" lon="13.2030429"><ele>14.666666666666668</ele><time>2026-04-04T12:57:09.275Z</time></trkpt><trkpt lat="41.4368284" lon="13.2028963"><ele>15.0</ele><time>2026-04-04T12:57:10.274Z</time></trkpt><trkpt lat="41.4364992" lon="13.2023334"><ele>14.0</ele><time>2026-04-04T12:57:13.273Z</time></trkpt><trkpt lat="41.4360868" lon="13.2016498"><ele>13.333333333333334</ele><time>2026-04-04T12:57:16.275Z</time></trkpt><trkpt lat="41.4359537" lon="13.2014266"><ele>12.666666666666668</ele><time>2026-04-04T12:57:17.264Z</time></trkpt><trkpt lat="41.4358221" lon="13.2012014"><ele>12.0</ele><time>2026-04-04T12:57:18.271Z</time></trkpt><trkpt lat="41.4354685" lon="13.2005945"><ele>12.0</ele><time>2026-04-04T12:57:21.275Z</time></trkpt><trkpt lat="41.4352484" lon="13.2001807"><ele>12.0</ele><time>2026-04-04T12:57:24.281Z</time></trkpt><trkpt lat="41.435225" lon="13.2000965"><ele>12.0</ele><time>2026-04-04T12:57:25.271Z</time></trkpt><trkpt lat="41.4352313" lon="13.1999521"><ele>12.0</ele><time>2026-04-04T12:57:27.28Z</time></trkpt><trkpt lat="41.4352562" lon="13.1998486"><ele>12.0</ele><time>2026-04-04T12:57:28.273Z</time></trkpt><trkpt lat="41.4353983" lon="13.1995914"><ele>12.0</ele><time>2026-04-04T12:57:30.285Z</time></trkpt><trkpt lat="41.435479" lon="13.1994275"><ele>13.0</ele><time>2026-04-04T12:57:31.281Z</time></trkpt><trkpt lat="41.4355744" lon="13.1992497"><ele>14.0</ele><time>2026-04-04T12:57:32.283Z</time></trkpt><trkpt lat="41.4360209" lon="13.1983941"><ele>14.0</ele><time>2026-04-04T12:57:36.286Z</time></trkpt><trkpt lat="41.4361347" lon="13.1981699"><ele>14.0</ele><time>2026-04-04T12:57:37.286Z</time></trkpt><trkpt lat="41.4363541" lon="13.1977429"><ele>15.0</ele><time>2026-04-04T12:57:39.278Z</time></trkpt><trkpt lat="41.4366512" lon="13.1971617"><ele>15.0</ele><time>2026-04-04T12:57:42.283Z</time></trkpt><trkpt lat="41.4368994" lon="13.1966699"><ele>15.0</ele><time>2026-04-04T12:57:45.273Z</time></trkpt><trkpt lat="41.4370638" lon="13.1963481"><ele>15.333333333333332</ele><time>2026-04-04T12:57:48.274Z</time></trkpt><trkpt lat="41.4371301" lon="13.1961789"><ele>15.666666666666666</ele><time>2026-04-04T12:57:58.28Z</time></trkpt><trkpt lat="41.4369918" lon="13.195896"><ele>16.0</ele><time>2026-04-04T12:58:01.275Z</time></trkpt><trkpt lat="41.4367203" lon="13.195451"><ele>16.333333333333332</ele><time>2026-04-04T12:58:04.277Z</time></trkpt><trkpt lat="41.436634" lon="13.1952943"><ele>16.666666666666668</ele><time>2026-04-04T12:58:05.275Z</time></trkpt><trkpt lat="41.4365353" lon="13.1950618"><ele>17.0</ele><time>2026-04-04T12:58:07.277Z</time></trkpt><trkpt lat="41.4362629" lon="13.1949177"><ele>16.5</ele><time>2026-04-04T12:58:40.293Z</time></trkpt><trkpt lat="41.4361584" lon="13.1948667"><ele>16.0</ele><time>2026-04-04T12:58:41.272Z</time></trkpt><trkpt lat="41.4359693" lon="13.1947749"><ele>15.5</ele><time>2026-04-04T12:58:43.278Z</time></trkpt><trkpt lat="41.435866" lon="13.1947212"><ele>15.0</ele><time>2026-04-04T12:58:44.271Z</time></trkpt><trkpt lat="41.4356446" lon="13.1946359"><ele>15.0</ele><time>2026-04-04T12:58:46.279Z</time></trkpt><trkpt lat="41.4355226" lon="13.1946107"><ele>15.0</ele><time>2026-04-04T12:58:47.277Z</time></trkpt><trkpt lat="41.4352804" lon="13.1945897"><ele>15.0</ele><time>2026-04-04T12:58:49.282Z</time></trkpt><trkpt lat="41.4349356" lon="13.1945561"><ele>15.0</ele><time>2026-04-04T12:58:52.287Z</time></trkpt><trkpt lat="41.434843" lon="13.1945331"><ele>15.0</ele><time>2026-04-04T12:58:53.275Z</time></trkpt><trkpt lat="41.4347231" lon="13.1945085"><ele>15.0</ele><time>2026-04-04T12:58:55.278Z</time></trkpt><trkpt lat="41.4346146" lon="13.1945709"><ele>15.0</ele><time>2026-04-04T12:58:58.276Z</time></trkpt><trkpt lat="41.4344398" lon="13.1943697"><ele>15.0</ele><time>2026-04-04T12:59:02.271Z</time></trkpt><trkpt lat="41.4343951" lon="13.1942867"><ele>15.0</ele><time>2026-04-04T12:59:03.272Z</time></trkpt><trkpt lat="41.4343424" lon="13.1942133"><ele>15.0</ele><time>2026-04-04T12:59:04.275Z</time></trkpt><trkpt lat="41.4342028" lon="13.1941585"><ele>15.0</ele><time>2026-04-04T12:59:07.277Z</time></trkpt><trkpt lat="41.4340251" lon="13.1941979"><ele>15.0</ele><time>2026-04-04T12:59:10.279Z</time></trkpt><trkpt lat="41.4338805" lon="13.1941951"><ele>15.0</ele><time>2026-04-04T12:59:12.284Z</time></trkpt><trkpt lat="41.4338023" lon="13.1941593"><ele>15.0</ele><time>2026-04-04T12:59:13.278Z</time></trkpt><trkpt lat="41.433652" lon="13.1940788"><ele>15.0</ele><time>2026-04-04T12:59:15.28Z</time></trkpt><trkpt lat="41.4335907" lon="13.194031"><ele>14.8</ele><time>2026-04-04T12:59:16.274Z</time></trkpt><trkpt lat="41.4335497" lon="13.1939464"><ele>14.6</ele><time>2026-04-04T12:59:18.291Z</time></trkpt><trkpt lat="41.4335738" lon="13.1937693"><ele>14.399999999999999</ele><time>2026-04-04T12:59:21.292Z</time></trkpt><trkpt lat="41.4336035" lon="13.1936668"><ele>14.2</ele><time>2026-04-04T12:59:22.291Z</time></trkpt><trkpt lat="41.4336453" lon="13.193547"><ele>14.0</ele><time>2026-04-04T12:59:23.265Z</time></trkpt><trkpt lat="41.4337002" lon="13.1934096"><ele>14.0</ele><time>2026-04-04T12:59:24.281Z</time></trkpt><trkpt lat="41.4337612" lon="13.1932629"><ele>14.0</ele><time>2026-04-04T12:59:25.277Z</time></trkpt><trkpt lat="41.4339024" lon="13.192917"><ele>14.0</ele><time>2026-04-04T12:59:27.285Z</time></trkpt><trkpt lat="41.4339802" lon="13.1927288"><ele>15.5</ele><time>2026-04-04T12:59:28.274Z</time></trkpt><trkpt lat="41.4341555" lon="13.1923221"><ele>17.0</ele><time>2026-04-04T12:59:30.279Z</time></trkpt><trkpt lat="41.4344469" lon="13.1916946"><ele>22.0</ele><time>2026-04-04T12:59:33.274Z</time></trkpt><trkpt lat="41.4347604" lon="13.1911614"><ele>22.0</ele><time>2026-04-04T12:59:36.273Z</time></trkpt><trkpt lat="41.4348469" lon="13.19104"><ele>22.0</ele><time>2026-04-04T12:59:37.271Z</time></trkpt><trkpt lat="41.4349319" lon="13.190942"><ele>22.0</ele><time>2026-04-04T12:59:38.276Z</time></trkpt><trkpt lat="41.4352037" lon="13.1908099"><ele>26.5</ele><time>2026-04-04T12:59:41.276Z</time></trkpt><trkpt lat="41.4355563" lon="13.1909325"><ele>31.0</ele><time>2026-04-04T12:59:44.279Z</time></trkpt><trkpt lat="41.4359616" lon="13.1912238"><ele>31.0</ele><time>2026-04-04T12:59:47.28Z</time></trkpt><trkpt lat="41.4362732" lon="13.1914887"><ele>31.0</ele><time>2026-04-04T12:59:50.274Z</time></trkpt><trkpt lat="41.4363522" lon="13.1915518"><ele>30.5</ele><time>2026-04-04T12:59:51.275Z</time></trkpt><trkpt lat="41.4364755" lon="13.1916151"><ele>30.0</ele><time>2026-04-04T12:59:53.33Z</time></trkpt><trkpt lat="41.4365973" lon="13.1915949"><ele>29.5</ele><time>2026-04-04T12:59:56.27Z</time></trkpt><trkpt lat="41.4366523" lon="13.1914748"><ele>29.0</ele><time>2026-04-04T13:00:01.273Z</time></trkpt><trkpt lat="41.4366475" lon="13.1913374"><ele>30.666666666666664</ele><time>2026-04-04T13:00:05.284Z</time></trkpt><trkpt lat="41.4366264" lon="13.1911701"><ele>32.333333333333336</ele><time>2026-04-04T13:00:08.289Z</time></trkpt><trkpt lat="41.4366403" lon="13.1909546"><ele>34.0</ele><time>2026-04-04T13:00:11.274Z</time></trkpt><trkpt lat="41.4367538" lon="13.1907614"><ele>34.0</ele><time>2026-04-04T13:00:15.289Z</time></trkpt><trkpt lat="41.4368512" lon="13.1907442"><ele>34.0</ele><time>2026-04-04T13:00:18.282Z</time></trkpt><trkpt lat="41.4369652" lon="13.1906522"><ele>34.0</ele><time>2026-04-04T13:00:21.282Z</time></trkpt><trkpt lat="41.4370739" lon="13.1905065"><ele>34.0</ele><time>2026-04-04T13:00:24.273Z</time></trkpt><trkpt lat="41.4371628" lon="13.1904141"><ele>36.333333333333336</ele><time>2026-04-04T13:00:26.282Z</time></trkpt><trkpt lat="41.4372525" lon="13.1903059"><ele>38.666666666666664</ele><time>2026-04-04T13:00:28.276Z</time></trkpt><trkpt lat="41.4374894" lon="13.1902401"><ele>41.0</ele><time>2026-04-04T13:00:32.276Z</time></trkpt><trkpt lat="41.4377155" lon="13.1901653"><ele>41.0</ele><time>2026-04-04T13:00:35.275Z</time></trkpt><trkpt lat="41.4379274" lon="13.1900976"><ele>41.0</ele><time>2026-04-04T13:00:38.273Z</time></trkpt><trkpt lat="41.4381471" lon="13.1899029"><ele>45.0</ele><time>2026-04-04T13:00:41.274Z</time></trkpt><trkpt lat="41.4384235" lon="13.1897196"><ele>49.0</ele><time>2026-04-04T13:00:44.277Z</time></trkpt><trkpt lat="41.4386096" lon="13.1896053"><ele>49.0</ele><time>2026-04-04T13:00:47.279Z</time></trkpt><trkpt lat="41.4386902" lon="13.1895885"><ele>49.0</ele><time>2026-04-04T13:00:48.266Z</time></trkpt><trkpt lat="41.4388972" lon="13.1895526"><ele>49.0</ele><time>2026-04-04T13:00:50.273Z</time></trkpt><trkpt lat="41.4390042" lon="13.1895394"><ele>49.0</ele><time>2026-04-04T13:00:51.276Z</time></trkpt><trkpt lat="41.4392125" lon="13.1895256"><ele>49.400000000000006</ele><time>2026-04-04T13:00:53.269Z</time></trkpt><trkpt lat="41.4393224" lon="13.1895129"><ele>49.8</ele><time>2026-04-04T13:00:54.272Z</time></trkpt><trkpt lat="41.4394129" lon="13.1894842"><ele>50.2</ele><time>2026-04-04T13:00:55.281Z</time></trkpt><trkpt lat="41.4394927" lon="13.1894536"><ele>50.599999999999994</ele><time>2026-04-04T13:00:56.277Z</time></trkpt><trkpt lat="41.4396494" lon="13.1893978"><ele>51.0</ele><time>2026-04-04T13:00:58.268Z</time></trkpt><trkpt lat="41.4397104" lon="13.1893176"><ele>51.66666666666667</ele><time>2026-04-04T13:00:59.273Z</time></trkpt><trkpt lat="41.4398509" lon="13.1890932"><ele>52.333333333333336</ele><time>2026-04-04T13:01:02.274Z</time></trkpt><trkpt lat="41.439951" lon="13.1888702"><ele>53.0</ele><time>2026-04-04T13:01:05.277Z</time></trkpt><trkpt lat="41.4400605" lon="13.1886517"><ele>57.0</ele><time>2026-04-04T13:01:08.276Z</time></trkpt><trkpt lat="41.440276" lon="13.188613"><ele>61.0</ele><time>2026-04-04T13:01:11.278Z</time></trkpt><trkpt lat="41.4405585" lon="13.1884376"><ele>61.0</ele><time>2026-04-04T13:01:14.283Z</time></trkpt><trkpt lat="41.4408065" lon="13.1881932"><ele>61.0</ele><time>2026-04-04T13:01:17.28Z</time></trkpt><trkpt lat="41.4410457" lon="13.1880722"><ele>62.33333333333333</ele><time>2026-04-04T13:01:20.271Z</time></trkpt><trkpt lat="41.4411252" lon="13.1880569"><ele>63.66666666666667</ele><time>2026-04-04T13:01:21.273Z</time></trkpt><trkpt lat="41.4412173" lon="13.1880578"><ele>65.0</ele><time>2026-04-04T13:01:22.272Z</time></trkpt><trkpt lat="41.4414912" lon="13.1881179"><ele>59.5</ele><time>2026-04-04T13:01:25.277Z</time></trkpt><trkpt lat="41.4417535" lon="13.1882574"><ele>54.0</ele><time>2026-04-04T13:01:28.276Z</time></trkpt><trkpt lat="41.441973" lon="13.188387"><ele>54.66666666666667</ele><time>2026-04-04T13:01:31.272Z</time></trkpt><trkpt lat="41.4421759" lon="13.1884626"><ele>55.333333333333336</ele><time>2026-04-04T13:01:34.272Z</time></trkpt><trkpt lat="41.4423733" lon="13.1883645"><ele>56.0</ele><time>2026-04-04T13:01:37.277Z</time></trkpt><trkpt lat="41.4425795" lon="13.1883116"><ele>59.0</ele><time>2026-04-04T13:01:40.277Z</time></trkpt><trkpt lat="41.4428905" lon="13.1881594"><ele>62.0</ele><time>2026-04-04T13:01:43.276Z</time></trkpt><trkpt lat="41.443112" lon="13.1880731"><ele>62.333333333333336</ele><time>2026-04-04T13:01:45.279Z</time></trkpt><trkpt lat="41.4432358" lon="13.1880238"><ele>62.66666666666667</ele><time>2026-04-04T13:01:46.274Z</time></trkpt><trkpt lat="41.4434815" lon="13.1879233"><ele>63.0</ele><time>2026-04-04T13:01:48.274Z</time></trkpt><trkpt lat="41.4436013" lon="13.187881"><ele>64.5</ele><time>2026-04-04T13:01:49.274Z</time></trkpt><trkpt lat="41.4438624" lon="13.1877475"><ele>66.0</ele><time>2026-04-04T13:01:52.274Z</time></trkpt><trkpt lat="41.4440385" lon="13.1877297"><ele>66.0</ele><time>2026-04-04T13:01:54.268Z</time></trkpt><trkpt lat="41.4441469" lon="13.187745"><ele>66.0</ele><time>2026-04-04T13:01:55.272Z</time></trkpt><trkpt lat="41.4445659" lon="13.1876504"><ele>66.0</ele><time>2026-04-04T13:01:58.279Z</time></trkpt><trkpt lat="41.4449367" lon="13.1874759"><ele>66.0</ele><time>2026-04-04T13:02:01.283Z</time></trkpt><trkpt lat="41.4452042" lon="13.1873908"><ele>66.0</ele><time>2026-04-04T13:02:04.272Z</time></trkpt><trkpt lat="41.4454709" lon="13.1873973"><ele>66.0</ele><time>2026-04-04T13:02:07.28Z</time></trkpt><trkpt lat="41.4455606" lon="13.1874156"><ele>66.0</ele><time>2026-04-04T13:02:08.269Z</time></trkpt><trkpt lat="41.4457086" lon="13.187428"><ele>66.0</ele><time>2026-04-04T13:02:10.277Z</time></trkpt><trkpt lat="41.4457827" lon="13.1873941"><ele>66.0</ele><time>2026-04-04T13:02:11.274Z</time></trkpt><trkpt lat="41.4458943" lon="13.1872594"><ele>66.0</ele><time>2026-04-04T13:02:13.277Z</time></trkpt><trkpt lat="41.4459349" lon="13.1871781"><ele>66.0</ele><time>2026-04-04T13:02:14.281Z</time></trkpt><trkpt lat="41.4460088" lon="13.1870182"><ele>66.0</ele><time>2026-04-04T13:02:16.279Z</time></trkpt><trkpt lat="41.4460363" lon="13.186936"><ele>70.5</ele><time>2026-04-04T13:02:17.28Z</time></trkpt><trkpt lat="41.4460597" lon="13.1866231"><ele>75.0</ele><time>2026-04-04T13:02:20.278Z</time></trkpt><trkpt lat="41.4461848" lon="13.1863112"><ele>76.5</ele><time>2026-04-04T13:02:23.275Z</time></trkpt><trkpt lat="41.4463068" lon="13.1860575"><ele>78.0</ele><time>2026-04-04T13:02:26.28Z</time></trkpt><trkpt lat="41.4463961" lon="13.1857651"><ele>80.33333333333333</ele><time>2026-04-04T13:02:29.278Z</time></trkpt><trkpt lat="41.4462821" lon="13.1861707"><ele>82.66666666666666</ele><time>2026-04-04T13:04:02.277Z</time></trkpt><trkpt lat="41.4462068" lon="13.1862952"><ele>85.0</ele><time>2026-04-04T13:04:04.273Z</time></trkpt><trkpt lat="41.4461376" lon="13.1864252"><ele>83.0</ele><time>2026-04-04T13:04:06.272Z</time></trkpt><trkpt lat="41.446094" lon="13.1865143"><ele>81.0</ele><time>2026-04-04T13:04:07.27Z</time></trkpt><trkpt lat="41.4460467" lon="13.1866175"><ele>79.0</ele><time>2026-04-04T13:04:08.271Z</time></trkpt><trkpt lat="41.4460157" lon="13.1867264"><ele>77.0</ele><time>2026-04-04T13:04:09.276Z</time></trkpt><trkpt lat="41.4460059" lon="13.1868251"><ele>75.0</ele><time>2026-04-04T13:04:10.284Z</time></trkpt><trkpt lat="41.4460022" lon="13.1869847"><ele>75.0</ele><time>2026-04-04T13:04:12.276Z</time></trkpt><trkpt lat="41.4459359" lon="13.1871349"><ele>75.0</ele><time>2026-04-04T13:04:14.265Z</time></trkpt><trkpt lat="41.4458876" lon="13.1872129"><ele>75.0</ele><time>2026-04-04T13:04:15.277Z</time></trkpt><trkpt lat="41.4458385" lon="13.1872921"><ele>75.0</ele><time>2026-04-04T13:04:16.268Z</time></trkpt><trkpt lat="41.4457898" lon="13.1873684"><ele>75.0</ele><time>2026-04-04T13:04:17.268Z</time></trkpt><trkpt lat="41.4457317" lon="13.1874265"><ele>75.0</ele><time>2026-04-04T13:04:18.27Z</time></trkpt><trkpt lat="41.4456665" lon="13.1874583"><ele>73.5</ele><time>2026-04-04T13:04:19.273Z</time></trkpt><trkpt lat="41.4455929" lon="13.1874766"><ele>72.0</ele><time>2026-04-04T13:04:20.276Z</time></trkpt><trkpt lat="41.445516" lon="13.1874681"><ele>70.5</ele><time>2026-04-04T13:04:21.282Z</time></trkpt><trkpt lat="41.4454401" lon="13.1874426"><ele>69.0</ele><time>2026-04-04T13:04:22.268Z</time></trkpt><trkpt lat="41.4453643" lon="13.1874183"><ele>67.5</ele><time>2026-04-04T13:04:23.268Z</time></trkpt><trkpt lat="41.4452906" lon="13.187412"><ele>66.0</ele><time>2026-04-04T13:04:24.275Z</time></trkpt><trkpt lat="41.4452156" lon="13.187409"><ele>66.0</ele><time>2026-04-04T13:04:25.265Z</time></trkpt><trkpt lat="41.4451449" lon="13.1874143"><ele>66.0</ele><time>2026-04-04T13:04:26.283Z</time></trkpt><trkpt lat="41.4450742" lon="13.1874187"><ele>66.0</ele><time>2026-04-04T13:04:27.263Z</time></trkpt><trkpt lat="41.4449924" lon="13.1874266"><ele>66.0</ele><time>2026-04-04T13:04:28.27Z</time></trkpt><trkpt lat="41.4449079" lon="13.1874528"><ele>66.0</ele><time>2026-04-04T13:04:29.268Z</time></trkpt><trkpt lat="41.4448107" lon="13.1875032"><ele>66.0</ele><time>2026-04-04T13:04:30.273Z</time></trkpt><trkpt lat="41.4447148" lon="13.1875598"><ele>66.0</ele><time>2026-04-04T13:04:31.272Z</time></trkpt><trkpt lat="41.4446172" lon="13.1876038"><ele>66.0</ele><time>2026-04-04T13:04:32.269Z</time></trkpt><trkpt lat="41.4445178" lon="13.1876462"><ele>66.0</ele><time>2026-04-04T13:04:33.27Z</time></trkpt><trkpt lat="41.444416" lon="13.1876916"><ele>66.0</ele><time>2026-04-04T13:04:34.267Z</time></trkpt><trkpt lat="41.4443032" lon="13.1877327"><ele>66.0</ele><time>2026-04-04T13:04:35.269Z</time></trkpt><trkpt lat="41.4441892" lon="13.1877671"><ele>66.0</ele><time>2026-04-04T13:04:36.266Z</time></trkpt><trkpt lat="41.4440683" lon="13.1877802"><ele>66.0</ele><time>2026-04-04T13:04:37.276Z</time></trkpt><trkpt lat="41.4439544" lon="13.1877726"><ele>66.0</ele><time>2026-04-04T13:04:38.277Z</time></trkpt><trkpt lat="41.4438656" lon="13.1877689"><ele>66.0</ele><time>2026-04-04T13:04:39.277Z</time></trkpt><trkpt lat="41.4437862" lon="13.187771"><ele>66.0</ele><time>2026-04-04T13:04:40.272Z</time></trkpt><trkpt lat="41.4437102" lon="13.1878069"><ele>65.25</ele><time>2026-04-04T13:04:41.264Z</time></trkpt><trkpt lat="41.44362" lon="13.1878801"><ele>64.5</ele><time>2026-04-04T13:04:42.269Z</time></trkpt><trkpt lat="41.4435031" lon="13.1879365"><ele>63.75</ele><time>2026-04-04T13:04:43.27Z</time></trkpt><trkpt lat="41.4433765" lon="13.1879714"><ele>63.0</ele><time>2026-04-04T13:04:44.266Z</time></trkpt><trkpt lat="41.4432659" lon="13.1880125"><ele>63.0</ele><time>2026-04-04T13:04:45.268Z</time></trkpt><trkpt lat="41.4431679" lon="13.1880558"><ele>63.0</ele><time>2026-04-04T13:04:46.269Z</time></trkpt><trkpt lat="41.4430656" lon="13.1880957"><ele>63.0</ele><time>2026-04-04T13:04:47.277Z</time></trkpt><trkpt lat="41.4429608" lon="13.1881421"><ele>63.0</ele><time>2026-04-04T13:04:48.267Z</time></trkpt><trkpt lat="41.4428551" lon="13.188188"><ele>63.0</ele><time>2026-04-04T13:04:49.272Z</time></trkpt><trkpt lat="41.4427591" lon="13.1882338"><ele>61.833333333333336</ele><time>2026-04-04T13:04:50.268Z</time></trkpt><trkpt lat="41.442675" lon="13.1882722"><ele>60.66666666666667</ele><time>2026-04-04T13:04:51.269Z</time></trkpt><trkpt lat="41.4425995" lon="13.188303"><ele>59.5</ele><time>2026-04-04T13:04:52.278Z</time></trkpt><trkpt lat="41.4425291" lon="13.188327"><ele>58.333333333333336</ele><time>2026-04-04T13:04:53.273Z</time></trkpt><trkpt lat="41.4424433" lon="13.1883354"><ele>57.16666666666667</ele><time>2026-04-04T13:04:54.28Z</time></trkpt><trkpt lat="41.4423603" lon="13.1883502"><ele>56.0</ele><time>2026-04-04T13:04:55.272Z</time></trkpt><trkpt lat="41.4422947" lon="13.1883729"><ele>56.0</ele><time>2026-04-04T13:04:56.268Z</time></trkpt><trkpt lat="41.4421754" lon="13.1884392"><ele>55.99999999999999</ele><time>2026-04-04T13:04:58.272Z</time></trkpt><trkpt lat="41.4420573" lon="13.1885003"><ele>55.99999999999999</ele><time>2026-04-04T13:05:00.275Z</time></trkpt><trkpt lat="41.4419883" lon="13.1885647"><ele>56.0</ele><time>2026-04-04T13:05:01.273Z</time></trkpt><trkpt lat="41.4419138" lon="13.1886327"><ele>56.0</ele><time>2026-04-04T13:05:02.269Z</time></trkpt><trkpt lat="41.4418309" lon="13.1887051"><ele>55.66666666666667</ele><time>2026-04-04T13:05:03.275Z</time></trkpt><trkpt lat="41.4417453" lon="13.1887643"><ele>55.333333333333336</ele><time>2026-04-04T13:05:04.268Z</time></trkpt><trkpt lat="41.4416555" lon="13.1888184"><ele>55.0</ele><time>2026-04-04T13:05:05.271Z</time></trkpt><trkpt lat="41.4415822" lon="13.188864"><ele>54.66666666666667</ele><time>2026-04-04T13:05:06.271Z</time></trkpt><trkpt lat="41.4415283" lon="13.1889118"><ele>54.333333333333336</ele><time>2026-04-04T13:05:07.272Z</time></trkpt><trkpt lat="41.4414552" lon="13.1889777"><ele>54.0</ele><time>2026-04-04T13:05:09.268Z</time></trkpt><trkpt lat="41.4413997" lon="13.1890226"><ele>53.666666666666664</ele><time>2026-04-04T13:05:11.274Z</time></trkpt><trkpt lat="41.4413948" lon="13.1891205"><ele>53.33333333333333</ele><time>2026-04-04T13:05:13.273Z</time></trkpt><trkpt lat="41.441417" lon="13.1892295"><ele>53.0</ele><time>2026-04-04T13:05:15.28Z</time></trkpt><trkpt lat="41.4413718" lon="13.1892915"><ele>52.666666666666664</ele><time>2026-04-04T13:05:18.269Z</time></trkpt><trkpt lat="41.4412522" lon="13.189341"><ele>52.33333333333333</ele><time>2026-04-04T13:05:20.266Z</time></trkpt><trkpt lat="41.4411676" lon="13.1893732"><ele>52.0</ele><time>2026-04-04T13:05:21.282Z</time></trkpt><trkpt lat="41.4410599" lon="13.1894158"><ele>52.0</ele><time>2026-04-04T13:05:22.272Z</time></trkpt><trkpt lat="41.4409357" lon="13.1894691"><ele>52.0</ele><time>2026-04-04T13:05:23.269Z</time></trkpt><trkpt lat="41.4408149" lon="13.1895311"><ele>52.0</ele><time>2026-04-04T13:05:24.27Z</time></trkpt><trkpt lat="41.4406894" lon="13.1895972"><ele>52.0</ele><time>2026-04-04T13:05:25.274Z</time></trkpt><trkpt lat="41.4405476" lon="13.1896601"><ele>52.33333333333333</ele><time>2026-04-04T13:05:26.264Z</time></trkpt><trkpt lat="41.4403886" lon="13.1897177"><ele>52.66666666666667</ele><time>2026-04-04T13:05:27.265Z</time></trkpt><trkpt lat="41.4402146" lon="13.1897722"><ele>53.0</ele><time>2026-04-04T13:05:28.266Z</time></trkpt><trkpt lat="41.4400356" lon="13.189836"><ele>51.66666666666667</ele><time>2026-04-04T13:05:29.276Z</time></trkpt><trkpt lat="41.4398539" lon="13.1898912"><ele>50.33333333333333</ele><time>2026-04-04T13:05:30.271Z</time></trkpt><trkpt lat="41.4396812" lon="13.1899614"><ele>49.0</ele><time>2026-04-04T13:05:31.285Z</time></trkpt><trkpt lat="41.4395111" lon="13.1900316"><ele>48.33333333333333</ele><time>2026-04-04T13:05:32.271Z</time></trkpt><trkpt lat="41.4393532" lon="13.1900934"><ele>47.666666666666664</ele><time>2026-04-04T13:05:33.269Z</time></trkpt><trkpt lat="41.4391925" lon="13.1901514"><ele>47.0</ele><time>2026-04-04T13:05:34.269Z</time></trkpt><trkpt lat="41.4390364" lon="13.1902121"><ele>47.0</ele><time>2026-04-04T13:05:35.273Z</time></trkpt><trkpt lat="41.4388929" lon="13.1902788"><ele>47.0</ele><time>2026-04-04T13:05:36.276Z</time></trkpt><trkpt lat="41.4387681" lon="13.190326"><ele>47.0</ele><time>2026-04-04T13:05:37.266Z</time></trkpt><trkpt lat="41.4386367" lon="13.1903679"><ele>47.0</ele><time>2026-04-04T13:05:38.269Z</time></trkpt><trkpt lat="41.4384899" lon="13.1904241"><ele>46.0</ele><time>2026-04-04T13:05:39.272Z</time></trkpt><trkpt lat="41.4383382" lon="13.1904882"><ele>45.0</ele><time>2026-04-04T13:05:40.262Z</time></trkpt><trkpt lat="41.4381915" lon="13.1905423"><ele>44.0</ele><time>2026-04-04T13:05:41.277Z</time></trkpt><trkpt lat="41.4380508" lon="13.1906202"><ele>41.33333333333333</ele><time>2026-04-04T13:05:42.274Z</time></trkpt><trkpt lat="41.437909" lon="13.1906946"><ele>38.666666666666664</ele><time>2026-04-04T13:05:43.269Z</time></trkpt><trkpt lat="41.437776" lon="13.1907965"><ele>36.0</ele><time>2026-04-04T13:05:44.267Z</time></trkpt><trkpt lat="41.4376416" lon="13.1909025"><ele>36.0</ele><time>2026-04-04T13:05:45.276Z</time></trkpt><trkpt lat="41.4375104" lon="13.1910147"><ele>36.0</ele><time>2026-04-04T13:05:46.272Z</time></trkpt><trkpt lat="41.4373743" lon="13.1911263"><ele>36.0</ele><time>2026-04-04T13:05:47.267Z</time></trkpt><trkpt lat="41.4372361" lon="13.191228"><ele>35.5</ele><time>2026-04-04T13:05:48.283Z</time></trkpt><trkpt lat="41.4371127" lon="13.1913141"><ele>35.0</ele><time>2026-04-04T13:05:49.269Z</time></trkpt><trkpt lat="41.4370019" lon="13.1913522"><ele>34.5</ele><time>2026-04-04T13:05:50.267Z</time></trkpt><trkpt lat="41.4368898" lon="13.1914092"><ele>34.0</ele><time>2026-04-04T13:05:51.272Z</time></trkpt><trkpt lat="41.4367864" lon="13.1914525"><ele>33.99999999999999</ele><time>2026-04-04T13:05:52.267Z</time></trkpt><trkpt lat="41.4367041" lon="13.1914741"><ele>34.0</ele><time>2026-04-04T13:05:53.283Z</time></trkpt><trkpt lat="41.4366413" lon="13.1914385"><ele>34.0</ele><time>2026-04-04T13:05:58.269Z</time></trkpt><trkpt lat="41.4366313" lon="13.191331"><ele>34.0</ele><time>2026-04-04T13:06:00.269Z</time></trkpt><trkpt lat="41.4366193" lon="13.1912458"><ele>34.0</ele><time>2026-04-04T13:06:01.267Z</time></trkpt><trkpt lat="41.4366067" lon="13.1911509"><ele>33.99999999999999</ele><time>2026-04-04T13:06:02.268Z</time></trkpt><trkpt lat="41.4365923" lon="13.1910608"><ele>34.0</ele><time>2026-04-04T13:06:03.275Z</time></trkpt><trkpt lat="41.4366162" lon="13.1909567"><ele>34.0</ele><time>2026-04-04T13:06:04.274Z</time></trkpt><trkpt lat="41.4366543" lon="13.1908833"><ele>34.0</ele><time>2026-04-04T13:06:05.272Z</time></trkpt><trkpt lat="41.4366966" lon="13.1908172"><ele>34.0</ele><time>2026-04-04T13:06:06.267Z</time></trkpt><trkpt lat="41.4368005" lon="13.1907374"><ele>34.0</ele><time>2026-04-04T13:06:08.269Z</time></trkpt><trkpt lat="41.4368878" lon="13.1907525"><ele>34.0</ele><time>2026-04-04T13:06:10.288Z</time></trkpt><trkpt lat="41.4369606" lon="13.1906648"><ele>34.0</ele><time>2026-04-04T13:06:12.271Z</time></trkpt><trkpt lat="41.4370021" lon="13.1905989"><ele>35.0</ele><time>2026-04-04T13:06:13.265Z</time></trkpt><trkpt lat="41.4370556" lon="13.1905213"><ele>36.0</ele><time>2026-04-04T13:06:14.273Z</time></trkpt><trkpt lat="41.4371099" lon="13.1904627"><ele>37.0</ele><time>2026-04-04T13:06:15.273Z</time></trkpt><trkpt lat="41.4371833" lon="13.1904115"><ele>38.0</ele><time>2026-04-04T13:06:16.277Z</time></trkpt><trkpt lat="41.4372467" lon="13.1903367"><ele>39.0</ele><time>2026-04-04T13:06:17.27Z</time></trkpt><trkpt lat="41.437301" lon="13.190272"><ele>40.0</ele><time>2026-04-04T13:06:18.272Z</time></trkpt><trkpt lat="41.4373715" lon="13.1902303"><ele>40.16666666666667</ele><time>2026-04-04T13:06:19.267Z</time></trkpt><trkpt lat="41.4374393" lon="13.1902369"><ele>40.333333333333336</ele><time>2026-04-04T13:06:20.271Z</time></trkpt><trkpt lat="41.4375092" lon="13.1902321"><ele>40.5</ele><time>2026-04-04T13:06:21.275Z</time></trkpt><trkpt lat="41.4375972" lon="13.1902055"><ele>40.666666666666664</ele><time>2026-04-04T13:06:22.265Z</time></trkpt><trkpt lat="41.4376689" lon="13.1902041"><ele>40.83333333333333</ele><time>2026-04-04T13:06:23.267Z</time></trkpt><trkpt lat="41.4377593" lon="13.190167"><ele>41.0</ele><time>2026-04-04T13:06:24.274Z</time></trkpt><trkpt lat="41.4378465" lon="13.1901407"><ele>41.0</ele><time>2026-04-04T13:06:25.265Z</time></trkpt><trkpt lat="41.437934" lon="13.1900973"><ele>41.0</ele><time>2026-04-04T13:06:26.273Z</time></trkpt><trkpt lat="41.4380143" lon="13.1900346"><ele>41.0</ele><time>2026-04-04T13:06:27.275Z</time></trkpt><trkpt lat="41.4380896" lon="13.189954"><ele>41.0</ele><time>2026-04-04T13:06:28.28Z</time></trkpt><trkpt lat="41.4381638" lon="13.1898929"><ele>41.0</ele><time>2026-04-04T13:06:29.269Z</time></trkpt><trkpt lat="41.4382411" lon="13.1898427"><ele>42.599999999999994</ele><time>2026-04-04T13:06:30.268Z</time></trkpt><trkpt lat="41.4383459" lon="13.1897878"><ele>44.2</ele><time>2026-04-04T13:06:31.268Z</time></trkpt><trkpt lat="41.4384432" lon="13.189722"><ele>45.8</ele><time>2026-04-04T13:06:32.277Z</time></trkpt><trkpt lat="41.4385149" lon="13.1896601"><ele>47.400000000000006</ele><time>2026-04-04T13:06:33.269Z</time></trkpt><trkpt lat="41.4385783" lon="13.1896095"><ele>49.0</ele><time>2026-04-04T13:06:34.289Z</time></trkpt><trkpt lat="41.4386487" lon="13.1895975"><ele>49.0</ele><time>2026-04-04T13:06:35.27Z</time></trkpt><trkpt lat="41.4387296" lon="13.1896032"><ele>49.0</ele><time>2026-04-04T13:06:36.267Z</time></trkpt><trkpt lat="41.4388166" lon="13.1895833"><ele>49.0</ele><time>2026-04-04T13:06:37.271Z</time></trkpt><trkpt lat="41.4389316" lon="13.189551"><ele>49.0</ele><time>2026-04-04T13:06:38.268Z</time></trkpt><trkpt lat="41.4390296" lon="13.1895417"><ele>49.0</ele><time>2026-04-04T13:06:39.283Z</time></trkpt><trkpt lat="41.4391463" lon="13.1895418"><ele>49.400000000000006</ele><time>2026-04-04T13:06:40.269Z</time></trkpt><trkpt lat="41.4392582" lon="13.1895332"><ele>49.8</ele><time>2026-04-04T13:06:41.267Z</time></trkpt><trkpt lat="41.439369" lon="13.1894981"><ele>50.2</ele><time>2026-04-04T13:06:42.271Z</time></trkpt><trkpt lat="41.4394552" lon="13.1894697"><ele>50.599999999999994</ele><time>2026-04-04T13:06:43.268Z</time></trkpt><trkpt lat="41.4395344" lon="13.1894504"><ele>51.0</ele><time>2026-04-04T13:06:44.281Z</time></trkpt><trkpt lat="41.4396032" lon="13.1894087"><ele>51.333333333333336</ele><time>2026-04-04T13:06:45.268Z</time></trkpt><trkpt lat="41.4396775" lon="13.1893661"><ele>51.66666666666667</ele><time>2026-04-04T13:06:46.265Z</time></trkpt><trkpt lat="41.4397325" lon="13.1892964"><ele>52.0</ele><time>2026-04-04T13:06:47.269Z</time></trkpt><trkpt lat="41.439772" lon="13.1891888"><ele>52.333333333333336</ele><time>2026-04-04T13:06:48.272Z</time></trkpt><trkpt lat="41.4398333" lon="13.189122"><ele>52.66666666666667</ele><time>2026-04-04T13:06:49.268Z</time></trkpt><trkpt lat="41.4398942" lon="13.1890793"><ele>53.0</ele><time>2026-04-04T13:06:50.276Z</time></trkpt><trkpt lat="41.4399603" lon="13.1889363"><ele>54.8</ele><time>2026-04-04T13:06:52.293Z</time></trkpt><trkpt lat="41.4399869" lon="13.1888347"><ele>56.599999999999994</ele><time>2026-04-04T13:06:53.272Z</time></trkpt><trkpt lat="41.4400326" lon="13.1887515"><ele>58.400000000000006</ele><time>2026-04-04T13:06:54.27Z</time></trkpt><trkpt lat="41.4400851" lon="13.1886976"><ele>60.2</ele><time>2026-04-04T13:06:55.271Z</time></trkpt><trkpt lat="41.4402082" lon="13.1886429"><ele>62.0</ele><time>2026-04-04T13:07:00.275Z</time></trkpt><trkpt lat="41.4403499" lon="13.1885665"><ele>62.00000000000001</ele><time>2026-04-04T13:07:02.268Z</time></trkpt><trkpt lat="41.4404225" lon="13.1885218"><ele>62.0</ele><time>2026-04-04T13:07:03.271Z</time></trkpt><trkpt lat="41.4405023" lon="13.1884727"><ele>62.0</ele><time>2026-04-04T13:07:04.276Z</time></trkpt><trkpt lat="41.4405747" lon="13.1884086"><ele>62.0</ele><time>2026-04-04T13:07:05.27Z</time></trkpt><trkpt lat="41.4406442" lon="13.1883475"><ele>62.00000000000001</ele><time>2026-04-04T13:07:06.269Z</time></trkpt><trkpt lat="41.4407081" lon="13.1882791"><ele>62.0</ele><time>2026-04-04T13:07:07.272Z</time></trkpt><trkpt lat="41.4407777" lon="13.1882131"><ele>63.2</ele><time>2026-04-04T13:07:08.265Z</time></trkpt><trkpt lat="41.4408329" lon="13.1881715"><ele>64.4</ele><time>2026-04-04T13:07:09.275Z</time></trkpt><trkpt lat="41.4409317" lon="13.1881137"><ele>65.6</ele><time>2026-04-04T13:07:11.283Z</time></trkpt><trkpt lat="41.4410277" lon="13.1880616"><ele>66.8</ele><time>2026-04-04T13:08:48.279Z</time></trkpt><trkpt lat="41.4411333" lon="13.1880604"><ele>68.0</ele><time>2026-04-04T13:08:50.279Z</time></trkpt><trkpt lat="41.4412131" lon="13.1880572"><ele>67.4</ele><time>2026-04-04T13:08:51.272Z</time></trkpt><trkpt lat="41.4412998" lon="13.188064"><ele>66.8</ele><time>2026-04-04T13:08:52.271Z</time></trkpt><trkpt lat="41.4413941" lon="13.1880832"><ele>66.2</ele><time>2026-04-04T13:08:53.276Z</time></trkpt><trkpt lat="41.4414953" lon="13.1881122"><ele>65.6</ele><time>2026-04-04T13:08:54.271Z</time></trkpt><trkpt lat="41.4415928" lon="13.1881416"><ele>65.0</ele><time>2026-04-04T13:08:55.279Z</time></trkpt><trkpt lat="41.4416631" lon="13.1881652"><ele>62.8</ele><time>2026-04-04T13:08:56.266Z</time></trkpt><trkpt lat="41.4417401" lon="13.1882175"><ele>60.6</ele><time>2026-04-04T13:09:01.275Z</time></trkpt><trkpt lat="41.4418552" lon="13.1882991"><ele>58.400000000000006</ele><time>2026-04-04T13:09:03.27Z</time></trkpt><trkpt lat="41.4419315" lon="13.1883451"><ele>56.2</ele><time>2026-04-04T13:09:04.282Z</time></trkpt><trkpt lat="41.4420003" lon="13.18839"><ele>54.0</ele><time>2026-04-04T13:09:05.268Z</time></trkpt><trkpt lat="41.4420911" lon="13.1884452"><ele>54.333333333333336</ele><time>2026-04-04T13:09:07.271Z</time></trkpt><trkpt lat="41.4421531" lon="13.1884691"><ele>54.66666666666667</ele><time>2026-04-04T13:09:09.273Z</time></trkpt><trkpt lat="41.4422557" lon="13.1884345"><ele>55.0</ele><time>2026-04-04T13:09:11.269Z</time></trkpt><trkpt lat="41.4423365" lon="13.1883881"><ele>55.333333333333336</ele><time>2026-04-04T13:09:12.269Z</time></trkpt><trkpt lat="41.4424246" lon="13.188343"><ele>55.66666666666667</ele><time>2026-04-04T13:09:13.302Z</time></trkpt><trkpt lat="41.4425053" lon="13.1883114"><ele>56.0</ele><time>2026-04-04T13:09:14.275Z</time></trkpt><trkpt lat="41.4426002" lon="13.1882986"><ele>56.0</ele><time>2026-04-04T13:09:15.271Z</time></trkpt><trkpt lat="41.4426948" lon="13.1882797"><ele>55.99999999999999</ele><time>2026-04-04T13:09:16.274Z</time></trkpt><trkpt lat="41.4428" lon="13.1882305"><ele>55.99999999999999</ele><time>2026-04-04T13:09:17.273Z</time></trkpt><trkpt lat="41.4429039" lon="13.1881624"><ele>56.0</ele><time>2026-04-04T13:09:18.27Z</time></trkpt><trkpt lat="41.4430116" lon="13.1881062"><ele>56.0</ele><time>2026-04-04T13:09:19.27Z</time></trkpt><trkpt lat="41.4431187" lon="13.1880697"><ele>57.75</ele><time>2026-04-04T13:09:20.268Z</time></trkpt><trkpt lat="41.4432293" lon="13.1880275"><ele>59.5</ele><time>2026-04-04T13:09:21.276Z</time></trkpt><trkpt lat="41.4433426" lon="13.1879828"><ele>61.25</ele><time>2026-04-04T13:09:22.267Z</time></trkpt><trkpt lat="41.4434655" lon="13.187931"><ele>63.0</ele><time>2026-04-04T13:09:23.271Z</time></trkpt><trkpt lat="41.4435834" lon="13.1878812"><ele>63.0</ele><time>2026-04-04T13:09:24.264Z</time></trkpt><trkpt lat="41.4436924" lon="13.1878357"><ele>63.0</ele><time>2026-04-04T13:09:25.271Z</time></trkpt><trkpt lat="41.4437777" lon="13.1877805"><ele>63.0</ele><time>2026-04-04T13:09:26.27Z</time></trkpt><trkpt lat="41.4438463" lon="13.1877388"><ele>63.0</ele><time>2026-04-04T13:09:27.267Z</time></trkpt><trkpt lat="41.4439282" lon="13.1877233"><ele>63.0</ele><time>2026-04-04T13:09:28.266Z</time></trkpt><trkpt lat="41.444023" lon="13.1877281"><ele>63.75</ele><time>2026-04-04T13:09:29.266Z</time></trkpt><trkpt lat="41.4441396" lon="13.1877282"><ele>64.5</ele><time>2026-04-04T13:09:30.273Z</time></trkpt><trkpt lat="41.4442517" lon="13.1877121"><ele>65.25</ele><time>2026-04-04T13:09:31.282Z</time></trkpt><trkpt lat="41.4443785" lon="13.1876823"><ele>66.0</ele><time>2026-04-04T13:09:32.268Z</time></trkpt><trkpt lat="41.4445227" lon="13.1876249"><ele>66.0</ele><time>2026-04-04T13:09:33.267Z</time></trkpt><trkpt lat="41.4446564" lon="13.1875629"><ele>66.0</ele><time>2026-04-04T13:09:34.269Z</time></trkpt><trkpt lat="41.444778" lon="13.1875045"><ele>66.0</ele><time>2026-04-04T13:09:35.268Z</time></trkpt><trkpt lat="41.4448908" lon="13.1874532"><ele>66.0</ele><time>2026-04-04T13:09:36.282Z</time></trkpt><trkpt lat="41.4449957" lon="13.1874036"><ele>66.0</ele><time>2026-04-04T13:09:37.274Z</time></trkpt><trkpt lat="41.4450812" lon="13.1873755"><ele>66.0</ele><time>2026-04-04T13:09:38.273Z</time></trkpt><trkpt lat="41.4451651" lon="13.187372"><ele>66.0</ele><time>2026-04-04T13:09:39.269Z</time></trkpt><trkpt lat="41.445243" lon="13.187388"><ele>66.0</ele><time>2026-04-04T13:09:40.267Z</time></trkpt><trkpt lat="41.4453425" lon="13.187398"><ele>66.0</ele><time>2026-04-04T13:09:41.296Z</time></trkpt><trkpt lat="41.4454271" lon="13.1874005"><ele>66.0</ele><time>2026-04-04T13:09:42.265Z</time></trkpt><trkpt lat="41.4455112" lon="13.1874159"><ele>66.0</ele><time>2026-04-04T13:09:43.267Z</time></trkpt><trkpt lat="41.4455868" lon="13.1874399"><ele>66.0</ele><time>2026-04-04T13:09:44.278Z</time></trkpt><trkpt lat="41.4456536" lon="13.1874577"><ele>66.0</ele><time>2026-04-04T13:09:45.267Z</time></trkpt><trkpt lat="41.4457296" lon="13.1874298"><ele>66.0</ele><time>2026-04-04T13:09:46.292Z</time></trkpt><trkpt lat="41.445796" lon="13.187365"><ele>66.0</ele><time>2026-04-04T13:09:47.273Z</time></trkpt><trkpt lat="41.4458541" lon="13.1872805"><ele>66.0</ele><time>2026-04-04T13:09:48.268Z</time></trkpt><trkpt lat="41.4459071" lon="13.1871881"><ele>67.28571428571428</ele><time>2026-04-04T13:09:49.268Z</time></trkpt><trkpt lat="41.445948" lon="13.1871087"><ele>68.57142857142857</ele><time>2026-04-04T13:09:50.265Z</time></trkpt><trkpt lat="41.4459879" lon="13.1870352"><ele>69.85714285714286</ele><time>2026-04-04T13:09:51.271Z</time></trkpt><trkpt lat="41.4460253" lon="13.1869511"><ele>71.14285714285714</ele><time>2026-04-04T13:09:52.269Z</time></trkpt><trkpt lat="41.4460439" lon="13.1868606"><ele>72.42857142857143</ele><time>2026-04-04T13:09:53.273Z</time></trkpt><trkpt lat="41.4460428" lon="13.1867754"><ele>73.71428571428571</ele><time>2026-04-04T13:09:54.264Z</time></trkpt><trkpt lat="41.4460413" lon="13.1866844"><ele>75.0</ele><time>2026-04-04T13:09:55.271Z</time></trkpt><trkpt lat="41.4460582" lon="13.1865828"><ele>75.5</ele><time>2026-04-04T13:09:56.265Z</time></trkpt><trkpt lat="41.4461015" lon="13.186492"><ele>76.0</ele><time>2026-04-04T13:09:57.275Z</time></trkpt><trkpt lat="41.4461427" lon="13.1864017"><ele>76.5</ele><time>2026-04-04T13:09:58.275Z</time></trkpt><trkpt lat="41.4461783" lon="13.1863155"><ele>77.0</ele><time>2026-04-04T13:09:59.273Z</time></trkpt><trkpt lat="41.4462144" lon="13.186231"><ele>77.5</ele><time>2026-04-04T13:10:00.268Z</time></trkpt><trkpt lat="41.4462556" lon="13.186143"><ele>78.0</ele><time>2026-04-04T13:10:01.268Z</time></trkpt><trkpt lat="41.4462957" lon="13.1860352"><ele>78.0</ele><time>2026-04-04T13:10:02.285Z</time></trkpt><trkpt lat="41.4463267" lon="13.1859334"><ele>78.0</ele><time>2026-04-04T13:10:03.268Z</time></trkpt><trkpt lat="41.4463544" lon="13.1858355"><ele>78.0</ele><time>2026-04-04T13:10:04.267Z</time></trkpt><trkpt lat="41.4463697" lon="13.1857537"><ele>78.0</ele><time>2026-04-04T13:10:05.268Z</time></trkpt><trkpt lat="41.4464295" lon="13.1856813"><ele>78.0</ele><time>2026-04-04T13:10:07.281Z</time></trkpt><trkpt lat="41.4465186" lon="13.1856532"><ele>78.0</ele><time>2026-04-04T13:10:09.273Z</time></trkpt><trkpt lat="41.4466177" lon="13.1855932"><ele>80.16666666666667</ele><time>2026-04-04T13:10:11.267Z</time></trkpt><trkpt lat="41.4466664" lon="13.1855204"><ele>82.33333333333333</ele><time>2026-04-04T13:10:12.274Z</time></trkpt><trkpt lat="41.4467186" lon="13.1854505"><ele>84.5</ele><time>2026-04-04T13:10:13.266Z</time></trkpt><trkpt lat="41.4468004" lon="13.1853796"><ele>86.66666666666666</ele><time>2026-04-04T13:10:15.269Z</time></trkpt><trkpt lat="41.4468627" lon="13.1852939"><ele>88.83333333333333</ele><time>2026-04-04T13:10:17.272Z</time></trkpt><trkpt lat="41.4468951" lon="13.185211"><ele>91.0</ele><time>2026-04-04T13:10:18.273Z</time></trkpt><trkpt lat="41.4469219" lon="13.1851319"><ele>91.0</ele><time>2026-04-04T13:10:19.282Z</time></trkpt><trkpt lat="41.446945" lon="13.1850522"><ele>91.0</ele><time>2026-04-04T13:10:20.273Z</time></trkpt><trkpt lat="41.4469578" lon="13.1848955"><ele>91.0</ele><time>2026-04-04T13:10:22.272Z</time></trkpt><trkpt lat="41.4469576" lon="13.1847534"><ele>91.0</ele><time>2026-04-04T13:10:24.271Z</time></trkpt><trkpt lat="41.4468962" lon="13.1846483"><ele>91.0</ele><time>2026-04-04T13:10:26.284Z</time></trkpt><trkpt lat="41.4468898" lon="13.184564"><ele>91.0</ele><time>2026-04-04T13:10:28.283Z</time></trkpt><trkpt lat="41.446802" lon="13.1845555"><ele>91.0</ele><time>2026-04-04T13:10:55.293Z</time></trkpt><trkpt lat="41.446752" lon="13.1846247"><ele>91.0</ele><time>2026-04-04T13:10:57.273Z</time></trkpt><trkpt lat="41.4467111" lon="13.1847497"><ele>91.0</ele><time>2026-04-04T13:10:59.269Z</time></trkpt><trkpt lat="41.4466181" lon="13.1848846"><ele>91.0</ele><time>2026-04-04T13:11:01.28Z</time></trkpt><trkpt lat="41.4465424" lon="13.1849698"><ele>91.0</ele><time>2026-04-04T13:11:02.269Z</time></trkpt><trkpt lat="41.4464681" lon="13.1850388"><ele>91.0</ele><time>2026-04-04T13:11:03.272Z</time></trkpt><trkpt lat="41.4464023" lon="13.1850867"><ele>91.0</ele><time>2026-04-04T13:11:04.27Z</time></trkpt><trkpt lat="41.4462863" lon="13.1850872"><ele>91.0</ele><time>2026-04-04T13:11:06.278Z</time></trkpt><trkpt lat="41.4461696" lon="13.1850605"><ele>91.0</ele><time>2026-04-04T13:11:08.27Z</time></trkpt><trkpt lat="41.4460995" lon="13.1851731"><ele>91.5</ele><time>2026-04-04T13:11:11.289Z</time></trkpt><trkpt lat="41.4460742" lon="13.1852711"><ele>92.0</ele><time>2026-04-04T13:11:12.274Z</time></trkpt><trkpt lat="41.4460429" lon="13.1853937"><ele>92.5</ele><time>2026-04-04T13:11:13.275Z</time></trkpt><trkpt lat="41.4459959" lon="13.1855012"><ele>93.0</ele><time>2026-04-04T13:11:14.269Z</time></trkpt><trkpt lat="41.4459527" lon="13.1855861"><ele>93.5</ele><time>2026-04-04T13:11:15.273Z</time></trkpt><trkpt lat="41.4459037" lon="13.1856747"><ele>94.0</ele><time>2026-04-04T13:11:16.273Z</time></trkpt><trkpt lat="41.4457941" lon="13.1857394"><ele>92.2</ele><time>2026-04-04T13:11:18.272Z</time></trkpt><trkpt lat="41.4456781" lon="13.1857796"><ele>90.4</ele><time>2026-04-04T13:11:20.273Z</time></trkpt><trkpt lat="41.4456177" lon="13.1858098"><ele>88.6</ele><time>2026-04-04T13:11:21.278Z</time></trkpt><trkpt lat="41.4455154" lon="13.1858756"><ele>86.8</ele><time>2026-04-04T13:11:23.271Z</time></trkpt><trkpt lat="41.4454042" lon="13.1859257"><ele>85.0</ele><time>2026-04-04T13:11:25.275Z</time></trkpt><trkpt lat="41.4452898" lon="13.1859834"><ele>83.8</ele><time>2026-04-04T13:11:27.27Z</time></trkpt><trkpt lat="41.4451976" lon="13.1860764"><ele>82.6</ele><time>2026-04-04T13:11:29.277Z</time></trkpt><trkpt lat="41.4451131" lon="13.1861913"><ele>81.4</ele><time>2026-04-04T13:11:31.283Z</time></trkpt><trkpt lat="41.4450123" lon="13.1862628"><ele>80.2</ele><time>2026-04-04T13:11:33.267Z</time></trkpt><trkpt lat="41.4449387" lon="13.1862923"><ele>79.0</ele><time>2026-04-04T13:11:34.274Z</time></trkpt><trkpt lat="41.4448334" lon="13.186344"><ele>79.0</ele><time>2026-04-04T13:11:35.277Z</time></trkpt><trkpt lat="41.4447421" lon="13.1863913"><ele>79.0</ele><time>2026-04-04T13:11:36.271Z</time></trkpt><trkpt lat="41.4446658" lon="13.1864328"><ele>79.0</ele><time>2026-04-04T13:11:37.265Z</time></trkpt><trkpt lat="41.4445434" lon="13.1864642"><ele>79.0</ele><time>2026-04-04T13:11:39.266Z</time></trkpt><trkpt lat="41.4444504" lon="13.1864385"><ele>79.0</ele><time>2026-04-04T13:11:40.264Z</time></trkpt><trkpt lat="41.4443563" lon="13.1864219"><ele>78.4</ele><time>2026-04-04T13:11:41.271Z</time></trkpt><trkpt lat="41.4442908" lon="13.1864075"><ele>77.80000000000001</ele><time>2026-04-04T13:11:42.266Z</time></trkpt><trkpt lat="41.4441683" lon="13.1864392"><ele>77.19999999999999</ele><time>2026-04-04T13:11:44.268Z</time></trkpt><trkpt lat="41.4440978" lon="13.1864619"><ele>76.6</ele><time>2026-04-04T13:11:45.267Z</time></trkpt><trkpt lat="41.4439726" lon="13.1864802"><ele>76.0</ele><time>2026-04-04T13:11:47.268Z</time></trkpt><trkpt lat="41.4438806" lon="13.1864838"><ele>76.0</ele><time>2026-04-04T13:11:48.265Z</time></trkpt><trkpt lat="41.4437754" lon="13.1864955"><ele>76.0</ele><time>2026-04-04T13:11:49.273Z</time></trkpt><trkpt lat="41.4436571" lon="13.1865155"><ele>76.0</ele><time>2026-04-04T13:11:50.272Z</time></trkpt><trkpt lat="41.4435388" lon="13.1865406"><ele>76.0</ele><time>2026-04-04T13:11:51.275Z</time></trkpt><trkpt lat="41.4434323" lon="13.1865669"><ele>75.16666666666666</ele><time>2026-04-04T13:11:52.266Z</time></trkpt><trkpt lat="41.4433387" lon="13.1865923"><ele>74.33333333333333</ele><time>2026-04-04T13:11:53.265Z</time></trkpt><trkpt lat="41.443265" lon="13.1865969"><ele>73.5</ele><time>2026-04-04T13:11:54.266Z</time></trkpt><trkpt lat="41.4431973" lon="13.1865936"><ele>72.66666666666667</ele><time>2026-04-04T13:11:55.271Z</time></trkpt><trkpt lat="41.4431122" lon="13.1865855"><ele>71.83333333333334</ele><time>2026-04-04T13:11:56.263Z</time></trkpt><trkpt lat="41.4430143" lon="13.186585"><ele>71.0</ele><time>2026-04-04T13:11:57.292Z</time></trkpt><trkpt lat="41.4429167" lon="13.186589"><ele>71.2</ele><time>2026-04-04T13:11:58.272Z</time></trkpt><trkpt lat="41.4428335" lon="13.1865924"><ele>71.39999999999999</ele><time>2026-04-04T13:11:59.275Z</time></trkpt><trkpt lat="41.4427433" lon="13.1865814"><ele>71.6</ele><time>2026-04-04T13:12:00.277Z</time></trkpt><trkpt lat="41.4426491" lon="13.186551"><ele>71.8</ele><time>2026-04-04T13:12:01.278Z</time></trkpt><trkpt lat="41.4425618" lon="13.1864959"><ele>72.0</ele><time>2026-04-04T13:12:02.276Z</time></trkpt><trkpt lat="41.4424824" lon="13.1864415"><ele>72.0</ele><time>2026-04-04T13:12:03.264Z</time></trkpt><trkpt lat="41.4424128" lon="13.1863994"><ele>72.0</ele><time>2026-04-04T13:12:04.266Z</time></trkpt><trkpt lat="41.4423441" lon="13.18638"><ele>72.0</ele><time>2026-04-04T13:12:05.264Z</time></trkpt><trkpt lat="41.4422729" lon="13.1863876"><ele>72.0</ele><time>2026-04-04T13:12:06.269Z</time></trkpt><trkpt lat="41.4422071" lon="13.1864282"><ele>72.0</ele><time>2026-04-04T13:12:07.289Z</time></trkpt><trkpt lat="41.4421252" lon="13.1864686"><ele>72.0</ele><time>2026-04-04T13:12:08.279Z</time></trkpt><trkpt lat="41.4420396" lon="13.1865092"><ele>72.5</ele><time>2026-04-04T13:12:09.271Z</time></trkpt><trkpt lat="41.4419719" lon="13.1865351"><ele>73.0</ele><time>2026-04-04T13:12:10.271Z</time></trkpt><trkpt lat="41.4419064" lon="13.186565"><ele>73.5</ele><time>2026-04-04T13:12:11.267Z</time></trkpt><trkpt lat="41.4418413" lon="13.1866198"><ele>74.0</ele><time>2026-04-04T13:12:12.269Z</time></trkpt><trkpt lat="41.4417822" lon="13.1867214"><ele>74.5</ele><time>2026-04-04T13:12:13.267Z</time></trkpt><trkpt lat="41.4417401" lon="13.1868529"><ele>75.0</ele><time>2026-04-04T13:12:14.267Z</time></trkpt><trkpt lat="41.4416765" lon="13.1869756"><ele>75.0</ele><time>2026-04-04T13:12:15.265Z</time></trkpt><trkpt lat="41.4416103" lon="13.1871089"><ele>75.0</ele><time>2026-04-04T13:12:16.266Z</time></trkpt><trkpt lat="41.441538" lon="13.1872183"><ele>75.0</ele><time>2026-04-04T13:12:17.268Z</time></trkpt><trkpt lat="41.4414671" lon="13.1873222"><ele>75.0</ele><time>2026-04-04T13:12:18.271Z</time></trkpt><trkpt lat="41.4414082" lon="13.1874038"><ele>75.0</ele><time>2026-04-04T13:12:19.268Z</time></trkpt><trkpt lat="41.4413134" lon="13.1875147"><ele>73.83333333333333</ele><time>2026-04-04T13:12:21.265Z</time></trkpt><trkpt lat="41.4412801" lon="13.1876636"><ele>72.66666666666667</ele><time>2026-04-04T13:12:23.268Z</time></trkpt><trkpt lat="41.4412677" lon="13.187762"><ele>71.5</ele><time>2026-04-04T13:12:24.267Z</time></trkpt><trkpt lat="41.4412126" lon="13.1878525"><ele>70.33333333333334</ele><time>2026-04-04T13:12:25.263Z</time></trkpt><trkpt lat="41.4411487" lon="13.1879254"><ele>69.16666666666667</ele><time>2026-04-04T13:12:26.265Z</time></trkpt><trkpt lat="41.4410879" lon="13.1879849"><ele>68.0</ele><time>2026-04-04T13:12:27.272Z</time></trkpt><trkpt lat="41.4410255" lon="13.1880221"><ele>68.0</ele><time>2026-04-04T13:12:29.268Z</time></trkpt><trkpt lat="41.4409415" lon="13.1880859"><ele>68.0</ele><time>2026-04-04T13:12:38.275Z</time></trkpt><trkpt lat="41.4408718" lon="13.1881391"><ele>68.0</ele><time>2026-04-04T13:12:39.285Z</time></trkpt><trkpt lat="41.4407932" lon="13.1881973"><ele>68.0</ele><time>2026-04-04T13:12:40.267Z</time></trkpt><trkpt lat="41.4407108" lon="13.1882716"><ele>68.0</ele><time>2026-04-04T13:12:41.281Z</time></trkpt><trkpt lat="41.4406321" lon="13.1883497"><ele>66.8</ele><time>2026-04-04T13:12:42.272Z</time></trkpt><trkpt lat="41.4405478" lon="13.1884305"><ele>65.6</ele><time>2026-04-04T13:12:43.272Z</time></trkpt><trkpt lat="41.4404582" lon="13.1885137"><ele>64.4</ele><time>2026-04-04T13:12:44.265Z</time></trkpt><trkpt lat="41.4403595" lon="13.1885676"><ele>63.2</ele><time>2026-04-04T13:12:45.27Z</time></trkpt><trkpt lat="41.4402758" lon="13.1886057"><ele>62.0</ele><time>2026-04-04T13:12:46.273Z</time></trkpt><trkpt lat="41.4401991" lon="13.1886409"><ele>62.0</ele><time>2026-04-04T13:12:47.273Z</time></trkpt><trkpt lat="41.440083" lon="13.1886872"><ele>62.0</ele><time>2026-04-04T13:12:49.267Z</time></trkpt><trkpt lat="41.4399928" lon="13.1887515"><ele>62.0</ele><time>2026-04-04T13:12:51.266Z</time></trkpt><trkpt lat="41.439924" lon="13.1889098"><ele>62.0</ele><time>2026-04-04T13:12:53.27Z</time></trkpt><trkpt lat="41.4398971" lon="13.1890156"><ele>62.0</ele><time>2026-04-04T13:12:54.265Z</time></trkpt><trkpt lat="41.4398733" lon="13.1891003"><ele>61.2</ele><time>2026-04-04T13:12:55.266Z</time></trkpt><trkpt lat="41.439788" lon="13.1891885"><ele>60.400000000000006</ele><time>2026-04-04T13:12:57.269Z</time></trkpt><trkpt lat="41.4397191" lon="13.1891986"><ele>59.599999999999994</ele><time>2026-04-04T13:12:59.284Z</time></trkpt><trkpt lat="41.4395945" lon="13.1891402"><ele>58.8</ele><time>2026-04-04T13:13:01.276Z</time></trkpt><trkpt lat="41.439505" lon="13.1890502"><ele>58.0</ele><time>2026-04-04T13:13:02.277Z</time></trkpt><trkpt lat="41.4394074" lon="13.1889402"><ele>58.0</ele><time>2026-04-04T13:13:03.285Z</time></trkpt><trkpt lat="41.4392999" lon="13.188822"><ele>58.0</ele><time>2026-04-04T13:13:04.272Z</time></trkpt><trkpt lat="41.4391883" lon="13.1886995"><ele>58.0</ele><time>2026-04-04T13:13:05.277Z</time></trkpt><trkpt lat="41.4390676" lon="13.1885796"><ele>58.0</ele><time>2026-04-04T13:13:06.271Z</time></trkpt><trkpt lat="41.4389308" lon="13.1884482"><ele>58.666666666666664</ele><time>2026-04-04T13:13:07.273Z</time></trkpt><trkpt lat="41.4387954" lon="13.1883165"><ele>59.33333333333333</ele><time>2026-04-04T13:13:08.275Z</time></trkpt><trkpt lat="41.4386605" lon="13.1881982"><ele>60.0</ele><time>2026-04-04T13:13:09.281Z</time></trkpt><trkpt lat="41.4385429" lon="13.1880947"><ele>60.0</ele><time>2026-04-04T13:13:10.284Z</time></trkpt><trkpt lat="41.4384268" lon="13.1879897"><ele>60.0</ele><time>2026-04-04T13:13:11.278Z</time></trkpt><trkpt lat="41.4383038" lon="13.1878672"><ele>60.0</ele><time>2026-04-04T13:13:12.267Z</time></trkpt><trkpt lat="41.4381651" lon="13.1877192"><ele>60.0</ele><time>2026-04-04T13:13:13.268Z</time></trkpt><trkpt lat="41.4380419" lon="13.1876003"><ele>60.0</ele><time>2026-04-04T13:13:14.269Z</time></trkpt><trkpt lat="41.4379235" lon="13.1874951"><ele>60.0</ele><time>2026-04-04T13:13:15.265Z</time></trkpt><trkpt lat="41.437804" lon="13.187395"><ele>60.0</ele><time>2026-04-04T13:13:16.266Z</time></trkpt><trkpt lat="41.4376931" lon="13.1872966"><ele>60.75</ele><time>2026-04-04T13:13:17.268Z</time></trkpt><trkpt lat="41.4375798" lon="13.1871809"><ele>61.5</ele><time>2026-04-04T13:13:18.267Z</time></trkpt><trkpt lat="41.4374747" lon="13.1870709"><ele>62.25</ele><time>2026-04-04T13:13:19.269Z</time></trkpt><trkpt lat="41.4373627" lon="13.1869632"><ele>63.0</ele><time>2026-04-04T13:13:20.276Z</time></trkpt><trkpt lat="41.4372612" lon="13.1868642"><ele>63.0</ele><time>2026-04-04T13:13:21.279Z</time></trkpt><trkpt lat="41.4371703" lon="13.1867708"><ele>63.0</ele><time>2026-04-04T13:13:22.283Z</time></trkpt><trkpt lat="41.4370948" lon="13.1866981"><ele>63.0</ele><time>2026-04-04T13:13:23.272Z</time></trkpt><trkpt lat="41.43704" lon="13.1866443"><ele>63.0</ele><time>2026-04-04T13:13:24.265Z</time></trkpt><trkpt lat="41.4369369" lon="13.1865868"><ele>63.0</ele><time>2026-04-04T13:13:26.269Z</time></trkpt><trkpt lat="41.4368594" lon="13.1865207"><ele>62.599999999999994</ele><time>2026-04-04T13:13:27.278Z</time></trkpt><trkpt lat="41.4367649" lon="13.18644"><ele>62.199999999999996</ele><time>2026-04-04T13:13:28.27Z</time></trkpt><trkpt lat="41.4366654" lon="13.1863502"><ele>61.8</ele><time>2026-04-04T13:13:29.275Z</time></trkpt><trkpt lat="41.4365869" lon="13.186273"><ele>61.4</ele><time>2026-04-04T13:13:30.27Z</time></trkpt><trkpt lat="41.4365267" lon="13.1863515"><ele>61.0</ele><time>2026-04-04T13:13:47.275Z</time></trkpt><trkpt lat="41.4364831" lon="13.1864556"><ele>60.4</ele><time>2026-04-04T13:13:49.27Z</time></trkpt><trkpt lat="41.4364232" lon="13.1865417"><ele>59.8</ele><time>2026-04-04T13:13:51.271Z</time></trkpt><trkpt lat="41.4363341" lon="13.1866214"><ele>59.199999999999996</ele><time>2026-04-04T13:13:53.268Z</time></trkpt><trkpt lat="41.4362503" lon="13.1867039"><ele>58.599999999999994</ele><time>2026-04-04T13:13:54.283Z</time></trkpt><trkpt lat="41.4361579" lon="13.1868056"><ele>58.0</ele><time>2026-04-04T13:13:55.267Z</time></trkpt><trkpt lat="41.4360939" lon="13.1869072"><ele>58.0</ele><time>2026-04-04T13:13:56.268Z</time></trkpt><trkpt lat="41.4360379" lon="13.1869691"><ele>58.0</ele><time>2026-04-04T13:13:57.268Z</time></trkpt><trkpt lat="41.4359449" lon="13.1869912"><ele>58.0</ele><time>2026-04-04T13:13:58.268Z</time></trkpt><trkpt lat="41.4358353" lon="13.1870308"><ele>58.0</ele><time>2026-04-04T13:13:59.273Z</time></trkpt><trkpt lat="41.435725" lon="13.187048"><ele>58.0</ele><time>2026-04-04T13:14:00.264Z</time></trkpt><trkpt lat="41.4356384" lon="13.1870546"><ele>58.0</ele><time>2026-04-04T13:14:01.268Z</time></trkpt><trkpt lat="41.4355695" lon="13.1870585"><ele>58.0</ele><time>2026-04-04T13:14:02.281Z</time></trkpt><trkpt lat="41.4355149" lon="13.1871114"><ele>58.0</ele><time>2026-04-04T13:14:03.271Z</time></trkpt><trkpt lat="41.4354323" lon="13.1872048"><ele>58.0</ele><time>2026-04-04T13:14:04.273Z</time></trkpt><trkpt lat="41.4353441" lon="13.1873219"><ele>58.0</ele><time>2026-04-04T13:14:05.267Z</time></trkpt><trkpt lat="41.4352433" lon="13.187417"><ele>57.0</ele><time>2026-04-04T13:14:06.266Z</time></trkpt><trkpt lat="41.4351337" lon="13.1874941"><ele>56.0</ele><time>2026-04-04T13:14:07.267Z</time></trkpt><trkpt lat="41.435036" lon="13.1875406"><ele>55.0</ele><time>2026-04-04T13:14:08.269Z</time></trkpt><trkpt lat="41.4349528" lon="13.1875775"><ele>54.0</ele><time>2026-04-04T13:14:09.27Z</time></trkpt><trkpt lat="41.4348871" lon="13.1876425"><ele>53.0</ele><time>2026-04-04T13:14:10.269Z</time></trkpt><trkpt lat="41.4348297" lon="13.1877042"><ele>53.0</ele><time>2026-04-04T13:14:11.266Z</time></trkpt><trkpt lat="41.4347249" lon="13.1877357"><ele>53.0</ele><time>2026-04-04T13:14:15.27Z</time></trkpt><trkpt lat="41.4347089" lon="13.1875692"><ele>53.0</ele><time>2026-04-04T13:14:17.278Z</time></trkpt><trkpt lat="41.4346974" lon="13.1874468"><ele>53.0</ele><time>2026-04-04T13:14:18.269Z</time></trkpt><trkpt lat="41.4346807" lon="13.1873302"><ele>53.0</ele><time>2026-04-04T13:14:19.272Z</time></trkpt><trkpt lat="41.4346869" lon="13.1872257"><ele>53.2</ele><time>2026-04-04T13:14:20.269Z</time></trkpt><trkpt lat="41.4346983" lon="13.1870586"><ele>53.4</ele><time>2026-04-04T13:14:22.282Z</time></trkpt><trkpt lat="41.4346588" lon="13.186936"><ele>53.60000000000001</ele><time>2026-04-04T13:14:23.267Z</time></trkpt><trkpt lat="41.434623" lon="13.1868178"><ele>53.800000000000004</ele><time>2026-04-04T13:14:24.26Z</time></trkpt><trkpt lat="41.4346102" lon="13.186715"><ele>54.0</ele><time>2026-04-04T13:14:25.266Z</time></trkpt><trkpt lat="41.4346253" lon="13.18654"><ele>51.6</ele><time>2026-04-04T13:14:27.274Z</time></trkpt><trkpt lat="41.4346164" lon="13.1864388"><ele>49.2</ele><time>2026-04-04T13:14:28.296Z</time></trkpt><trkpt lat="41.4345382" lon="13.1863052"><ele>46.800000000000004</ele><time>2026-04-04T13:14:30.275Z</time></trkpt><trkpt lat="41.4344643" lon="13.1862722"><ele>44.400000000000006</ele><time>2026-04-04T13:14:31.267Z</time></trkpt><trkpt lat="41.4343829" lon="13.1862468"><ele>42.0</ele><time>2026-04-04T13:14:32.273Z</time></trkpt><trkpt lat="41.4342719" lon="13.1862026"><ele>42.0</ele><time>2026-04-04T13:14:34.267Z</time></trkpt><trkpt lat="41.4341985" lon="13.1861456"><ele>42.0</ele><time>2026-04-04T13:14:36.268Z</time></trkpt><trkpt lat="41.4340905" lon="13.1861081"><ele>42.0</ele><time>2026-04-04T13:14:38.274Z</time></trkpt><trkpt lat="41.4340006" lon="13.1860919"><ele>42.0</ele><time>2026-04-04T13:14:40.268Z</time></trkpt><trkpt lat="41.4339235" lon="13.1860666"><ele>42.0</ele><time>2026-04-04T13:14:42.272Z</time></trkpt><trkpt lat="41.4338667" lon="13.1860051"><ele>42.0</ele><time>2026-04-04T13:14:44.276Z</time></trkpt><trkpt lat="41.4338037" lon="13.1858835"><ele>40.833333333333336</ele><time>2026-04-04T13:14:46.274Z</time></trkpt><trkpt lat="41.4337415" lon="13.1858229"><ele>39.666666666666664</ele><time>2026-04-04T13:14:48.264Z</time></trkpt><trkpt lat="41.4336329" lon="13.1857467"><ele>38.5</ele><time>2026-04-04T13:15:02.279Z</time></trkpt><trkpt lat="41.4335636" lon="13.1856667"><ele>37.33333333333333</ele><time>2026-04-04T13:15:07.267Z</time></trkpt><trkpt lat="41.4335064" lon="13.185602"><ele>36.166666666666664</ele><time>2026-04-04T13:15:09.279Z</time></trkpt><trkpt lat="41.4334344" lon="13.1855558"><ele>35.0</ele><time>2026-04-04T13:15:11.266Z</time></trkpt><trkpt lat="41.4333551" lon="13.1855132"><ele>35.0</ele><time>2026-04-04T13:15:15.271Z</time></trkpt><trkpt lat="41.4332851" lon="13.1855108"><ele>35.0</ele><time>2026-04-04T13:15:18.275Z</time></trkpt><trkpt lat="41.4332203" lon="13.1854942"><ele>35.0</ele><time>2026-04-04T13:15:20.273Z</time></trkpt><trkpt lat="41.433156" lon="13.1854407"><ele>35.0</ele><time>2026-04-04T13:15:23.27Z</time></trkpt><trkpt lat="41.4331271" lon="13.1853572"><ele>35.0</ele><time>2026-04-04T13:15:26.274Z</time></trkpt><trkpt lat="41.4330924" lon="13.1852501"><ele>35.0</ele><time>2026-04-04T13:15:29.265Z</time></trkpt><trkpt lat="41.4330388" lon="13.1851818"><ele>35.0</ele><time>2026-04-04T13:15:32.275Z</time></trkpt><trkpt lat="41.433002" lon="13.1850898"><ele>33.666666666666664</ele><time>2026-04-04T13:15:36.286Z</time></trkpt><trkpt lat="41.4329536" lon="13.1850284"><ele>32.33333333333333</ele><time>2026-04-04T13:15:38.286Z</time></trkpt><trkpt lat="41.4328846" lon="13.1850739"><ele>31.0</ele><time>2026-04-04T13:15:41.272Z</time></trkpt><trkpt lat="41.4328898" lon="13.1851953"><ele>29.666666666666664</ele><time>2026-04-04T13:15:44.268Z</time></trkpt><trkpt lat="41.4328973" lon="13.1853044"><ele>28.333333333333332</ele><time>2026-04-04T13:15:47.269Z</time></trkpt><trkpt lat="41.4329049" lon="13.1854044"><ele>27.0</ele><time>2026-04-04T13:15:49.275Z</time></trkpt><trkpt lat="41.4329138" lon="13.1854933"><ele>27.0</ele><time>2026-04-04T13:15:50.274Z</time></trkpt><trkpt lat="41.4329224" lon="13.1855909"><ele>27.000000000000004</ele><time>2026-04-04T13:15:51.282Z</time></trkpt><trkpt lat="41.4329316" lon="13.1857046"><ele>27.000000000000004</ele><time>2026-04-04T13:15:52.269Z</time></trkpt><trkpt lat="41.4329412" lon="13.1858232"><ele>27.0</ele><time>2026-04-04T13:15:53.287Z</time></trkpt><trkpt lat="41.4329509" lon="13.1859567"><ele>27.0</ele><time>2026-04-04T13:15:54.268Z</time></trkpt><trkpt lat="41.4329608" lon="13.186102"><ele>27.75</ele><time>2026-04-04T13:15:55.268Z</time></trkpt><trkpt lat="41.4329734" lon="13.186256"><ele>28.5</ele><time>2026-04-04T13:15:56.275Z</time></trkpt><trkpt lat="41.4329893" lon="13.1864212"><ele>29.25</ele><time>2026-04-04T13:15:57.269Z</time></trkpt><trkpt lat="41.4330051" lon="13.1866"><ele>30.0</ele><time>2026-04-04T13:15:58.27Z</time></trkpt><trkpt lat="41.4330198" lon="13.1867908"><ele>30.0</ele><time>2026-04-04T13:15:59.272Z</time></trkpt><trkpt lat="41.4330366" lon="13.1869942"><ele>30.0</ele><time>2026-04-04T13:16:00.276Z</time></trkpt><trkpt lat="41.4330551" lon="13.1872027"><ele>30.0</ele><time>2026-04-04T13:16:01.277Z</time></trkpt><trkpt lat="41.4330716" lon="13.1874066"><ele>29.5</ele><time>2026-04-04T13:16:02.287Z</time></trkpt><trkpt lat="41.4330888" lon="13.1875889"><ele>29.0</ele><time>2026-04-04T13:16:03.268Z</time></trkpt><trkpt lat="41.4331038" lon="13.1877557"><ele>28.5</ele><time>2026-04-04T13:16:04.267Z</time></trkpt><trkpt lat="41.4331156" lon="13.1879085"><ele>28.0</ele><time>2026-04-04T13:16:05.273Z</time></trkpt><trkpt lat="41.4331277" lon="13.1880473"><ele>28.0</ele><time>2026-04-04T13:16:06.272Z</time></trkpt><trkpt lat="41.4331396" lon="13.1881713"><ele>27.999999999999996</ele><time>2026-04-04T13:16:07.267Z</time></trkpt><trkpt lat="41.4331462" lon="13.1882986"><ele>27.999999999999996</ele><time>2026-04-04T13:16:08.274Z</time></trkpt><trkpt lat="41.4331593" lon="13.1884338"><ele>28.0</ele><time>2026-04-04T13:16:09.282Z</time></trkpt><trkpt lat="41.4331714" lon="13.1885701"><ele>28.0</ele><time>2026-04-04T13:16:10.269Z</time></trkpt><trkpt lat="41.4331873" lon="13.1887076"><ele>27.0</ele><time>2026-04-04T13:16:11.273Z</time></trkpt><trkpt lat="41.4332012" lon="13.1888324"><ele>25.999999999999996</ele><time>2026-04-04T13:16:12.268Z</time></trkpt><trkpt lat="41.4332044" lon="13.188937"><ele>25.0</ele><time>2026-04-04T13:16:13.269Z</time></trkpt><trkpt lat="41.4331653" lon="13.1890631"><ele>24.0</ele><time>2026-04-04T13:16:15.277Z</time></trkpt><trkpt lat="41.4330644" lon="13.189057"><ele>23.0</ele><time>2026-04-04T13:16:17.275Z</time></trkpt><trkpt lat="41.4329908" lon="13.1890131"><ele>21.0</ele><time>2026-04-04T13:16:18.277Z</time></trkpt><trkpt lat="41.4329063" lon="13.1889495"><ele>19.0</ele><time>2026-04-04T13:16:19.273Z</time></trkpt><trkpt lat="41.4328094" lon="13.1888656"><ele>17.0</ele><time>2026-04-04T13:16:20.283Z</time></trkpt><trkpt lat="41.4327011" lon="13.1887745"><ele>15.0</ele><time>2026-04-04T13:16:21.272Z</time></trkpt><trkpt lat="41.4325768" lon="13.1886867"><ele>15.0</ele><time>2026-04-04T13:16:22.269Z</time></trkpt><trkpt lat="41.4324357" lon="13.1885809"><ele>15.0</ele><time>2026-04-04T13:16:23.27Z</time></trkpt><trkpt lat="41.4322871" lon="13.1884725"><ele>15.0</ele><time>2026-04-04T13:16:24.279Z</time></trkpt><trkpt lat="41.4321288" lon="13.1883766"><ele>15.0</ele><time>2026-04-04T13:16:25.268Z</time></trkpt><trkpt lat="41.4319589" lon="13.1882954"><ele>15.0</ele><time>2026-04-04T13:16:26.268Z</time></trkpt><trkpt lat="41.4317793" lon="13.1882353"><ele>15.0</ele><time>2026-04-04T13:16:27.271Z</time></trkpt><trkpt lat="41.4315954" lon="13.1881941"><ele>15.0</ele><time>2026-04-04T13:16:28.268Z</time></trkpt><trkpt lat="41.4314085" lon="13.1881659"><ele>15.0</ele><time>2026-04-04T13:16:29.282Z</time></trkpt><trkpt lat="41.4312183" lon="13.1881413"><ele>15.0</ele><time>2026-04-04T13:16:30.27Z</time></trkpt><trkpt lat="41.4310258" lon="13.1881191"><ele>15.0</ele><time>2026-04-04T13:16:31.268Z</time></trkpt><trkpt lat="41.4308328" lon="13.1880951"><ele>15.0</ele><time>2026-04-04T13:16:32.267Z</time></trkpt><trkpt lat="41.4306435" lon="13.1880712"><ele>15.0</ele><time>2026-04-04T13:16:33.275Z</time></trkpt><trkpt lat="41.4304564" lon="13.1880414"><ele>15.0</ele><time>2026-04-04T13:16:34.265Z</time></trkpt><trkpt lat="41.430268" lon="13.1879996"><ele>15.0</ele><time>2026-04-04T13:16:35.273Z</time></trkpt><trkpt lat="41.4300788" lon="13.1879428"><ele>15.0</ele><time>2026-04-04T13:16:36.273Z</time></trkpt><trkpt lat="41.4298924" lon="13.1878645"><ele>15.0</ele><time>2026-04-04T13:16:37.273Z</time></trkpt><trkpt lat="41.429709" lon="13.1877656"><ele>15.0</ele><time>2026-04-04T13:16:38.267Z</time></trkpt><trkpt lat="41.4295264" lon="13.187652"><ele>15.0</ele><time>2026-04-04T13:16:39.282Z</time></trkpt><trkpt lat="41.4293439" lon="13.1875267"><ele>15.0</ele><time>2026-04-04T13:16:40.278Z</time></trkpt><trkpt lat="41.4291615" lon="13.1873901"><ele>15.0</ele><time>2026-04-04T13:16:41.267Z</time></trkpt><trkpt lat="41.4289785" lon="13.1872407"><ele>15.0</ele><time>2026-04-04T13:16:42.276Z</time></trkpt><trkpt lat="41.4287965" lon="13.1870843"><ele>16.0</ele><time>2026-04-04T13:16:43.271Z</time></trkpt><trkpt lat="41.4286133" lon="13.1869212"><ele>17.0</ele><time>2026-04-04T13:16:44.275Z</time></trkpt><trkpt lat="41.4284309" lon="13.1867564"><ele>18.0</ele><time>2026-04-04T13:16:45.286Z</time></trkpt><trkpt lat="41.428251" lon="13.186592"><ele>17.333333333333332</ele><time>2026-04-04T13:16:46.28Z</time></trkpt><trkpt lat="41.428072" lon="13.1864288"><ele>16.666666666666664</ele><time>2026-04-04T13:16:47.276Z</time></trkpt><trkpt lat="41.4278922" lon="13.1862618"><ele>16.0</ele><time>2026-04-04T13:16:48.272Z</time></trkpt><trkpt lat="41.4277167" lon="13.1860972"><ele>16.0</ele><time>2026-04-04T13:16:49.269Z</time></trkpt><trkpt lat="41.4275376" lon="13.1859428"><ele>16.0</ele><time>2026-04-04T13:16:50.271Z</time></trkpt><trkpt lat="41.4273653" lon="13.1857831"><ele>16.0</ele><time>2026-04-04T13:16:51.275Z</time></trkpt><trkpt lat="41.4271848" lon="13.1856164"><ele>15.0</ele><time>2026-04-04T13:16:52.271Z</time></trkpt><trkpt lat="41.4270036" lon="13.1854572"><ele>14.0</ele><time>2026-04-04T13:16:53.279Z</time></trkpt><trkpt lat="41.4268217" lon="13.1852772"><ele>13.0</ele><time>2026-04-04T13:16:54.273Z</time></trkpt><trkpt lat="41.426649" lon="13.185114"><ele>13.0</ele><time>2026-04-04T13:16:55.272Z</time></trkpt><trkpt lat="41.4264888" lon="13.1849743"><ele>13.0</ele><time>2026-04-04T13:16:56.289Z</time></trkpt><trkpt lat="41.4263345" lon="13.1848313"><ele>13.0</ele><time>2026-04-04T13:16:57.276Z</time></trkpt><trkpt lat="41.4261857" lon="13.1846976"><ele>13.333333333333332</ele><time>2026-04-04T13:16:58.273Z</time></trkpt><trkpt lat="41.4260489" lon="13.1845711"><ele>13.666666666666668</ele><time>2026-04-04T13:16:59.276Z</time></trkpt><trkpt lat="41.4259185" lon="13.1844505"><ele>14.0</ele><time>2026-04-04T13:17:00.27Z</time></trkpt><trkpt lat="41.4257908" lon="13.1843324"><ele>14.0</ele><time>2026-04-04T13:17:01.28Z</time></trkpt><trkpt lat="41.4256726" lon="13.1842205"><ele>14.0</ele><time>2026-04-04T13:17:02.279Z</time></trkpt><trkpt lat="41.4255639" lon="13.184119"><ele>14.0</ele><time>2026-04-04T13:17:03.264Z</time></trkpt><trkpt lat="41.4254631" lon="13.1840262"><ele>14.0</ele><time>2026-04-04T13:17:04.27Z</time></trkpt><trkpt lat="41.4253711" lon="13.1839384"><ele>14.166666666666668</ele><time>2026-04-04T13:17:05.271Z</time></trkpt><trkpt lat="41.4252871" lon="13.1838567"><ele>14.333333333333334</ele><time>2026-04-04T13:17:06.27Z</time></trkpt><trkpt lat="41.42521" lon="13.1837865"><ele>14.5</ele><time>2026-04-04T13:17:07.289Z</time></trkpt><trkpt lat="41.425136" lon="13.183744"><ele>14.666666666666668</ele><time>2026-04-04T13:17:08.274Z</time></trkpt><trkpt lat="41.4250729" lon="13.1837267"><ele>14.833333333333334</ele><time>2026-04-04T13:17:09.272Z</time></trkpt><trkpt lat="41.4249805" lon="13.1836865"><ele>15.0</ele><time>2026-04-04T13:17:11.275Z</time></trkpt><trkpt lat="41.4249063" lon="13.1836201"><ele>15.0</ele><time>2026-04-04T13:17:13.278Z</time></trkpt></trkseg></trk></gpx>